<?xml version='1.0' encoding='UTF-8'?><gpx version="1.1" creator="JPX - https://github.com/jenetics/jpx" xmlns="http://www.topografix.com/GPX/1/1"><trk><trkseg><trkpt lat="43.160086677599026" lon="10.617221816993181"><ele>199.0</ele><time>2026-04-04T07:58:54.998Z</time></trkpt><trkpt lat="43.160020216356074" lon="10.617301445438176"><ele>199.0</ele><time>2026-04-04T07:58:56.998Z</time></trkpt><trkpt lat="43.15998212976781" lon="10.617370166780379"><ele>199.0</ele><time>2026-04-04T07:58:57.998Z</time></trkpt><trkpt lat="43.159917720504616" lon="10.617474272073279"><ele>199.0</ele><time>2026-04-04T07:58:59.998Z</time></trkpt><trkpt lat="43.1598750470857" lon="10.617582687169001"><ele>199.0</ele><time>2026-04-04T07:59:01.998Z</time></trkpt><trkpt lat="43.159833554164685" lon="10.617721722950385"><ele>199.6</ele><time>2026-04-04T07:59:04Z</time></trkpt><trkpt lat="43.1597892330332" lon="10.617797978695613"><ele>200.2</ele><time>2026-04-04T07:59:05Z</time></trkpt><trkpt lat="43.15973536000503" lon="10.617884784262381"><ele>200.79999999999998</ele><time>2026-04-04T07:59:06Z</time></trkpt><trkpt lat="43.15969705165968" lon="10.617972584223333"><ele>201.39999999999998</ele><time>2026-04-04T07:59:07Z</time></trkpt><trkpt lat="43.15964311864953" lon="10.61811723594153"><ele>202.0</ele><time>2026-04-04T07:59:08Z</time></trkpt><trkpt lat="43.159568321428495" lon="10.618255406005291"><ele>205.25</ele><time>2026-04-04T07:59:09Z</time></trkpt><trkpt lat="43.15949690014064" lon="10.618417188695409"><ele>208.5</ele><time>2026-04-04T07:59:10Z</time></trkpt><trkpt lat="43.159431305025436" lon="10.618559834188035"><ele>211.75</ele><time>2026-04-04T07:59:11Z</time></trkpt><trkpt lat="43.15936701258914" lon="10.618694037987268"><ele>215.0</ele><time>2026-04-04T07:59:12Z</time></trkpt><trkpt lat="43.15931762137429" lon="10.618813597892391"><ele>217.00000000000003</ele><time>2026-04-04T07:59:13Z</time></trkpt><trkpt lat="43.15925849592689" lon="10.618936014913317"><ele>219.0</ele><time>2026-04-04T07:59:14Z</time></trkpt><trkpt lat="43.15920179812143" lon="10.619044226134282"><ele>221.0</ele><time>2026-04-04T07:59:15Z</time></trkpt><trkpt lat="43.15915299371807" lon="10.61913630431564"><ele>223.0</ele><time>2026-04-04T07:59:16Z</time></trkpt><trkpt lat="43.15909223567137" lon="10.619206507554491"><ele>225.00000000000003</ele><time>2026-04-04T07:59:17Z</time></trkpt><trkpt lat="43.159018377758386" lon="10.619241389694059"><ele>227.0</ele><time>2026-04-04T07:59:18Z</time></trkpt><trkpt lat="43.15893214851765" lon="10.619278812290997"><ele>230.2</ele><time>2026-04-04T07:59:19Z</time></trkpt><trkpt lat="43.158846343636036" lon="10.619285330689074"><ele>233.39999999999998</ele><time>2026-04-04T07:59:20Z</time></trkpt><trkpt lat="43.15876872915289" lon="10.619253985834339"><ele>236.60000000000002</ele><time>2026-04-04T07:59:21Z</time></trkpt><trkpt lat="43.15868238115405" lon="10.619216803111025"><ele>239.8</ele><time>2026-04-04T07:59:22Z</time></trkpt><trkpt lat="43.158583398384785" lon="10.619185950017666"><ele>243.0</ele><time>2026-04-04T07:59:23Z</time></trkpt><trkpt lat="43.15848013603147" lon="10.619164029136128"><ele>243.0</ele><time>2026-04-04T07:59:24Z</time></trkpt><trkpt lat="43.15838731761702" lon="10.619092303214423"><ele>243.0</ele><time>2026-04-04T07:59:25Z</time></trkpt><trkpt lat="43.1582989793231" lon="10.619006323666973"><ele>243.0</ele><time>2026-04-04T07:59:26Z</time></trkpt><trkpt lat="43.158215525235015" lon="10.61892492494495"><ele>243.0</ele><time>2026-04-04T07:59:27Z</time></trkpt><trkpt lat="43.15816742049551" lon="10.618838219496245"><ele>243.0</ele><time>2026-04-04T07:59:28Z</time></trkpt><trkpt lat="43.158053204155344" lon="10.618824581141672"><ele>243.16666666666666</ele><time>2026-04-04T07:59:30Z</time></trkpt><trkpt lat="43.15798520024994" lon="10.618826629869103"><ele>243.33333333333331</ele><time>2026-04-04T07:59:31Z</time></trkpt><trkpt lat="43.15791456093571" lon="10.61885602849459"><ele>243.5</ele><time>2026-04-04T07:59:32Z</time></trkpt><trkpt lat="43.157853161691165" lon="10.618910333820544"><ele>243.66666666666666</ele><time>2026-04-04T07:59:33Z</time></trkpt><trkpt lat="43.15778905461256" lon="10.618967117303422"><ele>243.83333333333331</ele><time>2026-04-04T07:59:34Z</time></trkpt><trkpt lat="43.15773089599846" lon="10.619038292305273"><ele>244.0</ele><time>2026-04-04T07:59:35Z</time></trkpt><trkpt lat="43.15766903242454" lon="10.619119498196085"><ele>244.0</ele><time>2026-04-04T07:59:36Z</time></trkpt><trkpt lat="43.15761485623913" lon="10.61921428970005"><ele>243.99999999999997</ele><time>2026-04-04T07:59:37Z</time></trkpt><trkpt lat="43.157575816138326" lon="10.619310321102434"><ele>243.99999999999997</ele><time>2026-04-04T07:59:38Z</time></trkpt><trkpt lat="43.15755048384903" lon="10.619403317687125"><ele>244.0</ele><time>2026-04-04T07:59:39Z</time></trkpt><trkpt lat="43.15747888704213" lon="10.619581005968218"><ele>244.0</ele><time>2026-04-04T07:59:41Z</time></trkpt><trkpt lat="43.15745464621173" lon="10.619743052429289"><ele>245.6</ele><time>2026-04-04T07:59:42Z</time></trkpt><trkpt lat="43.15744510254899" lon="10.61987758163541"><ele>247.2</ele><time>2026-04-04T07:59:43Z</time></trkpt><trkpt lat="43.15742589489047" lon="10.61999796518906"><ele>248.79999999999998</ele><time>2026-04-04T07:59:44Z</time></trkpt><trkpt lat="43.15738169126386" lon="10.62013530919878"><ele>250.39999999999998</ele><time>2026-04-04T07:59:45Z</time></trkpt><trkpt lat="43.15735024525425" lon="10.620249896936064"><ele>252.0</ele><time>2026-04-04T07:59:46Z</time></trkpt><trkpt lat="43.157315082252275" lon="10.620385740492454"><ele>256.5</ele><time>2026-04-04T07:59:47Z</time></trkpt><trkpt lat="43.15725797065812" lon="10.62047061110864"><ele>261.0</ele><time>2026-04-04T07:59:48Z</time></trkpt><trkpt lat="43.157206196713204" lon="10.620577851202889"><ele>265.5</ele><time>2026-04-04T07:59:49Z</time></trkpt><trkpt lat="43.15715060872945" lon="10.620667036802148"><ele>270.0</ele><time>2026-04-04T07:59:49.999Z</time></trkpt><trkpt lat="43.157089134189015" lon="10.620715568072645"><ele>274.5</ele><time>2026-04-04T07:59:50.999Z</time></trkpt><trkpt lat="43.1570050454677" lon="10.620800646280305"><ele>279.0</ele><time>2026-04-04T07:59:51.999Z</time></trkpt><trkpt lat="43.15693546842772" lon="10.620887790641971"><ele>279.0</ele><time>2026-04-04T07:59:52.999Z</time></trkpt><trkpt lat="43.15689302007468" lon="10.620962948990485"><ele>279.0</ele><time>2026-04-04T07:59:53.999Z</time></trkpt><trkpt lat="43.15691821199406" lon="10.621083550559279"><ele>279.0</ele><time>2026-04-04T07:59:56.999Z</time></trkpt><trkpt lat="43.15692405321011" lon="10.621197224350011"><ele>279.0</ele><time>2026-04-04T07:59:57.999Z</time></trkpt><trkpt lat="43.156940047101706" lon="10.621304383478142"><ele>279.0</ele><time>2026-04-04T07:59:59.999Z</time></trkpt><trkpt lat="43.15695817517583" lon="10.62146100198077"><ele>279.0</ele><time>2026-04-04T08:00:01.999Z</time></trkpt><trkpt lat="43.15694025421106" lon="10.62155031395361"><ele>282.0</ele><time>2026-04-04T08:00:02.999Z</time></trkpt><trkpt lat="43.156935145343134" lon="10.621647615627584"><ele>285.0</ele><time>2026-04-04T08:00:03.999Z</time></trkpt><trkpt lat="43.156927097924324" lon="10.62179093432349"><ele>288.0</ele><time>2026-04-04T08:00:05.999Z</time></trkpt><trkpt lat="43.15688287879061" lon="10.62188989608665"><ele>291.0</ele><time>2026-04-04T08:00:06.999Z</time></trkpt><trkpt lat="43.15682705125168" lon="10.622050788508163"><ele>294.0</ele><time>2026-04-04T08:00:07.999Z</time></trkpt><trkpt lat="43.156749776648724" lon="10.622206795796107"><ele>294.0</ele><time>2026-04-04T08:00:08.999Z</time></trkpt><trkpt lat="43.15667668622856" lon="10.62234964620651"><ele>294.0</ele><time>2026-04-04T08:00:09.999Z</time></trkpt><trkpt lat="43.15661619627944" lon="10.622452966174075"><ele>294.0</ele><time>2026-04-04T08:00:10.999Z</time></trkpt><trkpt lat="43.15654470300545" lon="10.622565208238093"><ele>294.0</ele><time>2026-04-04T08:00:11.999Z</time></trkpt><trkpt lat="43.15647459610367" lon="10.622633254422196"><ele>294.0</ele><time>2026-04-04T08:00:12.999Z</time></trkpt><trkpt lat="43.15638486793243" lon="10.622700476699931"><ele>295.4</ele><time>2026-04-04T08:00:13.999Z</time></trkpt><trkpt lat="43.1562881111512" lon="10.622766092972881"><ele>296.79999999999995</ele><time>2026-04-04T08:00:14.999Z</time></trkpt><trkpt lat="43.15618834103025" lon="10.622813418976259"><ele>298.20000000000005</ele><time>2026-04-04T08:00:15.999Z</time></trkpt><trkpt lat="43.15608789850029" lon="10.622840959839511"><ele>299.6</ele><time>2026-04-04T08:00:16.999Z</time></trkpt><trkpt lat="43.155992288192955" lon="10.622805715681002"><ele>301.0</ele><time>2026-04-04T08:00:17.999Z</time></trkpt><trkpt lat="43.15590667310007" lon="10.622814255106764"><ele>301.0</ele><time>2026-04-04T08:00:18.999Z</time></trkpt><trkpt lat="43.155795182290824" lon="10.622866363650797"><ele>301.0</ele><time>2026-04-04T08:00:19.999Z</time></trkpt><trkpt lat="43.155694623238126" lon="10.622937701719072"><ele>301.0</ele><time>2026-04-04T08:00:20.999Z</time></trkpt><trkpt lat="43.15562417787523" lon="10.623015481093537"><ele>301.0</ele><time>2026-04-04T08:00:21.999Z</time></trkpt><trkpt lat="43.15558115425631" lon="10.623118913079674"><ele>301.0</ele><time>2026-04-04T08:00:22.999Z</time></trkpt><trkpt lat="43.155520032608" lon="10.62325567653284"><ele>300.6</ele><time>2026-04-04T08:00:23.999Z</time></trkpt><trkpt lat="43.15549181697385" lon="10.623354549164427"><ele>300.20000000000005</ele><time>2026-04-04T08:00:24.999Z</time></trkpt><trkpt lat="43.15544752496881" lon="10.623491370698703"><ele>299.79999999999995</ele><time>2026-04-04T08:00:25.999Z</time></trkpt><trkpt lat="43.15538606714026" lon="10.623621347845722"><ele>299.4</ele><time>2026-04-04T08:00:26.999Z</time></trkpt><trkpt lat="43.15532531948011" lon="10.623687860358517"><ele>299.0</ele><time>2026-04-04T08:00:27.999Z</time></trkpt><trkpt lat="43.15525624511669" lon="10.623736240842154"><ele>299.6666666666667</ele><time>2026-04-04T08:00:28.999Z</time></trkpt><trkpt lat="43.15518964475624" lon="10.623768118582072"><ele>300.33333333333337</ele><time>2026-04-04T08:00:29.999Z</time></trkpt><trkpt lat="43.15512709168003" lon="10.623782239700807"><ele>301.0</ele><time>2026-04-04T08:00:30.999Z</time></trkpt><trkpt lat="43.15508394614592" lon="10.623894553229393"><ele>301.6666666666667</ele><time>2026-04-04T08:00:31.999Z</time></trkpt><trkpt lat="43.15499823308204" lon="10.623968777557899"><ele>302.3333333333333</ele><time>2026-04-04T08:00:32.999Z</time></trkpt><trkpt lat="43.15494204401509" lon="10.624039376484964"><ele>303.0</ele><time>2026-04-04T08:00:33.999Z</time></trkpt><trkpt lat="43.154838900915045" lon="10.624166179990882"><ele>303.0</ele><time>2026-04-04T08:00:35.999Z</time></trkpt><trkpt lat="43.15475646979631" lon="10.624232898548547"><ele>303.0</ele><time>2026-04-04T08:00:36.999Z</time></trkpt><trkpt lat="43.15470031653586" lon="10.624318091148616"><ele>303.0</ele><time>2026-04-04T08:00:37.999Z</time></trkpt><trkpt lat="43.154648645681874" lon="10.62440505318401"><ele>303.0</ele><time>2026-04-04T08:00:38.999Z</time></trkpt><trkpt lat="43.15458367459972" lon="10.624471488198903"><ele>303.0</ele><time>2026-04-04T08:00:39.999Z</time></trkpt><trkpt lat="43.154508140137146" lon="10.624539977645581"><ele>303.0</ele><time>2026-04-04T08:00:40.999Z</time></trkpt><trkpt lat="43.15442781181754" lon="10.6246081988322"><ele>308.8</ele><time>2026-04-04T08:00:41.999Z</time></trkpt><trkpt lat="43.15433159145755" lon="10.624656721152926"><ele>314.6</ele><time>2026-04-04T08:00:42.999Z</time></trkpt><trkpt lat="43.154229706687616" lon="10.624699391222748"><ele>320.40000000000003</ele><time>2026-04-04T08:00:43.999Z</time></trkpt><trkpt lat="43.15412115743201" lon="10.624715336587306"><ele>326.20000000000005</ele><time>2026-04-04T08:00:44.998Z</time></trkpt><trkpt lat="43.154007135854975" lon="10.624727587562312"><ele>332.0</ele><time>2026-04-04T08:00:45.998Z</time></trkpt><trkpt lat="43.15388246064979" lon="10.624744492155783"><ele>332.0</ele><time>2026-04-04T08:00:46.998Z</time></trkpt><trkpt lat="43.153760331539424" lon="10.624742793846071"><ele>332.0</ele><time>2026-04-04T08:00:47.998Z</time></trkpt><trkpt lat="43.15365272566269" lon="10.624736038379526"><ele>332.0</ele><time>2026-04-04T08:00:48.998Z</time></trkpt><trkpt lat="43.15354717586243" lon="10.624712138054603"><ele>332.0</ele><time>2026-04-04T08:00:49.998Z</time></trkpt><trkpt lat="43.15345335506016" lon="10.624702652589363"><ele>332.0</ele><time>2026-04-04T08:00:50.998Z</time></trkpt><trkpt lat="43.153378966015524" lon="10.62469840606981"><ele>332.0</ele><time>2026-04-04T08:00:51.998Z</time></trkpt><trkpt lat="43.15331307645759" lon="10.624684820363093"><ele>332.0</ele><time>2026-04-04T08:00:52.998Z</time></trkpt><trkpt lat="43.1532349507435" lon="10.624782402296203"><ele>332.0</ele><time>2026-04-04T08:00:54.998Z</time></trkpt><trkpt lat="43.15319719316903" lon="10.624952758916434"><ele>332.0</ele><time>2026-04-04T08:00:56.998Z</time></trkpt><trkpt lat="43.15315250449568" lon="10.625044008218778"><ele>332.0</ele><time>2026-04-04T08:00:57.998Z</time></trkpt><trkpt lat="43.15309857059221" lon="10.625153114589764"><ele>329.5</ele><time>2026-04-04T08:00:58.998Z</time></trkpt><trkpt lat="43.15307143877563" lon="10.625258136710805"><ele>327.0</ele><time>2026-04-04T08:00:59.998Z</time></trkpt><trkpt lat="43.15305862073515" lon="10.625361864278462"><ele>324.5</ele><time>2026-04-04T08:01:00.998Z</time></trkpt><trkpt lat="43.15305366447662" lon="10.62547129022687"><ele>322.0</ele><time>2026-04-04T08:01:01.998Z</time></trkpt><trkpt lat="43.15304295134118" lon="10.62560636369168"><ele>319.5</ele><time>2026-04-04T08:01:02.998Z</time></trkpt><trkpt lat="43.15301205963954" lon="10.625743107879284"><ele>317.0</ele><time>2026-04-04T08:01:03.998Z</time></trkpt><trkpt lat="43.152999342124154" lon="10.62587156504924"><ele>317.0</ele><time>2026-04-04T08:01:04.998Z</time></trkpt><trkpt lat="43.15298849055467" lon="10.625999065040368"><ele>317.0</ele><time>2026-04-04T08:01:05.998Z</time></trkpt><trkpt lat="43.15298506850744" lon="10.626117391229887"><ele>317.0</ele><time>2026-04-04T08:01:06.998Z</time></trkpt><trkpt lat="43.15298264363504" lon="10.626227017582039"><ele>317.0</ele><time>2026-04-04T08:01:07.998Z</time></trkpt><trkpt lat="43.15299855137055" lon="10.626325261532324"><ele>317.0</ele><time>2026-04-04T08:01:09Z</time></trkpt><trkpt lat="43.15303590646174" lon="10.62644042038247"><ele>317.0</ele><time>2026-04-04T08:01:10Z</time></trkpt><trkpt lat="43.15306555480482" lon="10.626572824331959"><ele>320.0</ele><time>2026-04-04T08:01:11Z</time></trkpt><trkpt lat="43.15306439507222" lon="10.626685897478456"><ele>323.0</ele><time>2026-04-04T08:01:12Z</time></trkpt><trkpt lat="43.15302644736432" lon="10.62681923514238"><ele>326.0</ele><time>2026-04-04T08:01:13Z</time></trkpt><trkpt lat="43.152980847632364" lon="10.626967593644489"><ele>329.0</ele><time>2026-04-04T08:01:14Z</time></trkpt><trkpt lat="43.152926608790416" lon="10.627112794336329"><ele>332.0</ele><time>2026-04-04T08:01:15Z</time></trkpt><trkpt lat="43.15288691833813" lon="10.627221117170757"><ele>334.83333333333337</ele><time>2026-04-04T08:01:16Z</time></trkpt><trkpt lat="43.15283578781393" lon="10.627321889208092"><ele>337.6666666666667</ele><time>2026-04-04T08:01:17Z</time></trkpt><trkpt lat="43.15277940131827" lon="10.627384490880253"><ele>340.5</ele><time>2026-04-04T08:01:18Z</time></trkpt><trkpt lat="43.15271065845654" lon="10.627420036793024"><ele>343.3333333333333</ele><time>2026-04-04T08:01:19Z</time></trkpt><trkpt lat="43.15262809085454" lon="10.627460020695024"><ele>346.16666666666663</ele><time>2026-04-04T08:01:20Z</time></trkpt><trkpt lat="43.15254675555738" lon="10.627501214176508"><ele>349.0</ele><time>2026-04-04T08:01:21Z</time></trkpt><trkpt lat="43.15248246836251" lon="10.62752577136374"><ele>349.0</ele><time>2026-04-04T08:01:22Z</time></trkpt><trkpt lat="43.15243056116037" lon="10.627588096500196"><ele>349.0</ele><time>2026-04-04T08:01:23Z</time></trkpt><trkpt lat="43.15240190958922" lon="10.627671328205551"><ele>349.0</ele><time>2026-04-04T08:01:24Z</time></trkpt><trkpt lat="43.152396705112885" lon="10.627849218155566"><ele>349.0</ele><time>2026-04-04T08:01:26Z</time></trkpt><trkpt lat="43.15238836356964" lon="10.627985506372928"><ele>349.0</ele><time>2026-04-04T08:01:27Z</time></trkpt><trkpt lat="43.15236973752054" lon="10.628124710400847"><ele>355.2</ele><time>2026-04-04T08:01:28Z</time></trkpt><trkpt lat="43.152340121650106" lon="10.628262147903284"><ele>361.4</ele><time>2026-04-04T08:01:29Z</time></trkpt><trkpt lat="43.152305232193584" lon="10.628388240491732"><ele>367.6</ele><time>2026-04-04T08:01:30Z</time></trkpt><trkpt lat="43.15225022767667" lon="10.628511863027855"><ele>373.8</ele><time>2026-04-04T08:01:31Z</time></trkpt><trkpt lat="43.152188829258606" lon="10.628614762343076"><ele>380.0</ele><time>2026-04-04T08:01:32Z</time></trkpt><trkpt lat="43.15213250422687" lon="10.628722801283208"><ele>380.6666666666667</ele><time>2026-04-04T08:01:33Z</time></trkpt><trkpt lat="43.15208735036757" lon="10.628812458160377"><ele>381.33333333333337</ele><time>2026-04-04T08:01:34Z</time></trkpt><trkpt lat="43.15202545380451" lon="10.628869960924721"><ele>382.0</ele><time>2026-04-04T08:01:35Z</time></trkpt><trkpt lat="43.151964744668" lon="10.628944793687024"><ele>382.6666666666667</ele><time>2026-04-04T08:01:36Z</time></trkpt><trkpt lat="43.151909839484865" lon="10.629084298390223"><ele>383.3333333333333</ele><time>2026-04-04T08:01:37Z</time></trkpt><trkpt lat="43.15185523660286" lon="10.629166331680178"><ele>384.0</ele><time>2026-04-04T08:01:38Z</time></trkpt><trkpt lat="43.151796857864014" lon="10.629284453886136"><ele>384.0</ele><time>2026-04-04T08:01:39Z</time></trkpt><trkpt lat="43.15175805080993" lon="10.629387492719196"><ele>384.0</ele><time>2026-04-04T08:01:40Z</time></trkpt><trkpt lat="43.15172982869357" lon="10.629474216272051"><ele>384.0</ele><time>2026-04-04T08:01:41Z</time></trkpt><trkpt lat="43.151694789470234" lon="10.629599621251424"><ele>384.0</ele><time>2026-04-04T08:01:42Z</time></trkpt><trkpt lat="43.15164263417539" lon="10.629759029515542"><ele>384.0</ele><time>2026-04-04T08:01:43Z</time></trkpt><trkpt lat="43.151643994218404" lon="10.629960916690175"><ele>384.0</ele><time>2026-04-04T08:01:44Z</time></trkpt><trkpt lat="43.151633886267824" lon="10.630123519573912"><ele>384.0</ele><time>2026-04-04T08:01:45Z</time></trkpt><trkpt lat="43.1516375409167" lon="10.63024446841671"><ele>384.0</ele><time>2026-04-04T08:01:46Z</time></trkpt><trkpt lat="43.15167938918592" lon="10.630454945182215"><ele>384.0</ele><time>2026-04-04T08:01:47Z</time></trkpt><trkpt lat="43.15172481045391" lon="10.630593385755688"><ele>384.79999999999995</ele><time>2026-04-04T08:01:48Z</time></trkpt><trkpt lat="43.151729949383395" lon="10.630736480155571"><ele>385.59999999999997</ele><time>2026-04-04T08:01:49Z</time></trkpt><trkpt lat="43.15176296828372" lon="10.630878290612126"><ele>386.4</ele><time>2026-04-04T08:01:50Z</time></trkpt><trkpt lat="43.15176460407824" lon="10.631001265825487"><ele>387.2</ele><time>2026-04-04T08:01:51Z</time></trkpt><trkpt lat="43.15176271902062" lon="10.631101490120152"><ele>388.0</ele><time>2026-04-04T08:01:51.999Z</time></trkpt><trkpt lat="43.15171993701076" lon="10.63121219470892"><ele>389.4</ele><time>2026-04-04T08:01:52.999Z</time></trkpt><trkpt lat="43.15175844314874" lon="10.631354035338994"><ele>390.79999999999995</ele><time>2026-04-04T08:01:53.999Z</time></trkpt><trkpt lat="43.15174293012786" lon="10.631501438187623"><ele>392.2</ele><time>2026-04-04T08:01:54.999Z</time></trkpt><trkpt lat="43.15171463082613" lon="10.631622675554064"><ele>393.6</ele><time>2026-04-04T08:01:55.999Z</time></trkpt><trkpt lat="43.15167744587537" lon="10.631731832547203"><ele>395.0</ele><time>2026-04-04T08:01:56.999Z</time></trkpt><trkpt lat="43.1516194669527" lon="10.631831268562493"><ele>395.0</ele><time>2026-04-04T08:01:57.999Z</time></trkpt><trkpt lat="43.151559915631054" lon="10.631932628969796"><ele>395.0</ele><time>2026-04-04T08:01:58.999Z</time></trkpt><trkpt lat="43.15150959682893" lon="10.632016653377026"><ele>395.0</ele><time>2026-04-04T08:01:59.999Z</time></trkpt><trkpt lat="43.15143904497952" lon="10.632085496760382"><ele>395.0</ele><time>2026-04-04T08:02:00.999Z</time></trkpt><trkpt lat="43.15136656928713" lon="10.632207092384565"><ele>395.0</ele><time>2026-04-04T08:02:01.999Z</time></trkpt><trkpt lat="43.151286471139706" lon="10.632274199259959"><ele>396.4</ele><time>2026-04-04T08:02:02.999Z</time></trkpt><trkpt lat="43.15120614908121" lon="10.632422736771762"><ele>397.8</ele><time>2026-04-04T08:02:03.999Z</time></trkpt><trkpt lat="43.151118800316375" lon="10.632538924901747"><ele>399.20000000000005</ele><time>2026-04-04T08:02:04.999Z</time></trkpt><trkpt lat="43.151037642063855" lon="10.63262112987902"><ele>400.6</ele><time>2026-04-04T08:02:05.999Z</time></trkpt><trkpt lat="43.150977749359015" lon="10.632697431301338"><ele>402.0</ele><time>2026-04-04T08:02:06.999Z</time></trkpt><trkpt lat="43.150924369891825" lon="10.632768362729056"><ele>400.6</ele><time>2026-04-04T08:02:07.999Z</time></trkpt><trkpt lat="43.150846076526406" lon="10.632814522874632"><ele>399.20000000000005</ele><time>2026-04-04T08:02:08.999Z</time></trkpt><trkpt lat="43.15073119151292" lon="10.632860767690714"><ele>397.8</ele><time>2026-04-04T08:02:09.999Z</time></trkpt><trkpt lat="43.1506016906346" lon="10.632906469754726"><ele>396.4</ele><time>2026-04-04T08:02:10.999Z</time></trkpt><trkpt lat="43.1505002728013" lon="10.632957440577593"><ele>395.0</ele><time>2026-04-04T08:02:11.999Z</time></trkpt><trkpt lat="43.15040484124653" lon="10.633016580350535"><ele>394.99999999999994</ele><time>2026-04-04T08:02:12.999Z</time></trkpt><trkpt lat="43.15032741899812" lon="10.63308160626177"><ele>395.0</ele><time>2026-04-04T08:02:13.999Z</time></trkpt><trkpt lat="43.150280617559915" lon="10.633143508032951"><ele>395.0</ele><time>2026-04-04T08:02:14.999Z</time></trkpt><trkpt lat="43.1502212985416" lon="10.63322040804259"><ele>395.0</ele><time>2026-04-04T08:02:15.999Z</time></trkpt><trkpt lat="43.15015163102476" lon="10.633324649936373"><ele>394.99999999999994</ele><time>2026-04-04T08:02:16.999Z</time></trkpt><trkpt lat="43.1500778244739" lon="10.633412122743193"><ele>395.0</ele><time>2026-04-04T08:02:17.999Z</time></trkpt><trkpt lat="43.15002026556913" lon="10.633478263118498"><ele>395.0</ele><time>2026-04-04T08:02:18.999Z</time></trkpt><trkpt lat="43.14994511689484" lon="10.63352239145919"><ele>395.0</ele><time>2026-04-04T08:02:19.999Z</time></trkpt><trkpt lat="43.14982078834883" lon="10.633466979638836"><ele>395.0</ele><time>2026-04-04T08:02:21.999Z</time></trkpt><trkpt lat="43.149719295574585" lon="10.633448931156279"><ele>395.0</ele><time>2026-04-04T08:02:22.999Z</time></trkpt><trkpt lat="43.14960297236466" lon="10.633476713417593"><ele>395.0</ele><time>2026-04-04T08:02:23.999Z</time></trkpt><trkpt lat="43.1494693282965" lon="10.633543218641453"><ele>395.2</ele><time>2026-04-04T08:02:24.999Z</time></trkpt><trkpt lat="43.149355260288594" lon="10.633603678291427"><ele>395.4</ele><time>2026-04-04T08:02:25.999Z</time></trkpt><trkpt lat="43.14925789722054" lon="10.633636937330726"><ele>395.6</ele><time>2026-04-04T08:02:26.999Z</time></trkpt><trkpt lat="43.14916650870461" lon="10.633723933266987"><ele>395.8</ele><time>2026-04-04T08:02:27.999Z</time></trkpt><trkpt lat="43.14910395409625" lon="10.633744390254808"><ele>396.0</ele><time>2026-04-04T08:02:28.999Z</time></trkpt><trkpt lat="43.149033060842164" lon="10.63377714947975"><ele>395.8333333333333</ele><time>2026-04-04T08:02:29.999Z</time></trkpt><trkpt lat="43.1489560303512" lon="10.633789896740572"><ele>395.66666666666663</ele><time>2026-04-04T08:02:30.999Z</time></trkpt><trkpt lat="43.14888873915326" lon="10.633753375706668"><ele>395.5</ele><time>2026-04-04T08:02:31.999Z</time></trkpt><trkpt lat="43.14879509452619" lon="10.633707626964174"><ele>395.3333333333333</ele><time>2026-04-04T08:02:32.999Z</time></trkpt><trkpt lat="43.148740120493656" lon="10.63364426749749"><ele>395.16666666666663</ele><time>2026-04-04T08:02:33.999Z</time></trkpt><trkpt lat="43.148710555743" lon="10.633557373169394"><ele>395.0</ele><time>2026-04-04T08:02:34.999Z</time></trkpt><trkpt lat="43.148675248860854" lon="10.633447680853159"><ele>394.99999999999994</ele><time>2026-04-04T08:02:35.999Z</time></trkpt><trkpt lat="43.14862577947603" lon="10.633342900222567"><ele>395.0</ele><time>2026-04-04T08:02:36.999Z</time></trkpt><trkpt lat="43.14858113075963" lon="10.633242376652126"><ele>395.0</ele><time>2026-04-04T08:02:37.999Z</time></trkpt><trkpt lat="43.14854682250637" lon="10.633141018903597"><ele>395.0</ele><time>2026-04-04T08:02:38.999Z</time></trkpt><trkpt lat="43.14850414516046" lon="10.633042761044798"><ele>394.99999999999994</ele><time>2026-04-04T08:02:39.999Z</time></trkpt><trkpt lat="43.14844758144107" lon="10.632948425745091"><ele>395.0</ele><time>2026-04-04T08:02:40.999Z</time></trkpt><trkpt lat="43.14838262256392" lon="10.632851917751255"><ele>393.2</ele><time>2026-04-04T08:02:41.999Z</time></trkpt><trkpt lat="43.148328780448914" lon="10.632756941133767"><ele>391.4</ele><time>2026-04-04T08:02:42.999Z</time></trkpt><trkpt lat="43.14823270684448" lon="10.632610061272677"><ele>389.6</ele><time>2026-04-04T08:02:44.999Z</time></trkpt><trkpt lat="43.14816270312731" lon="10.632579544744056"><ele>387.8</ele><time>2026-04-04T08:02:45.998Z</time></trkpt><trkpt lat="43.14807209693535" lon="10.632516455745876"><ele>386.0</ele><time>2026-04-04T08:02:46.998Z</time></trkpt><trkpt lat="43.147985896275806" lon="10.632448058709024"><ele>384.6</ele><time>2026-04-04T08:02:47.998Z</time></trkpt><trkpt lat="43.147922490577336" lon="10.632395436808837"><ele>383.20000000000005</ele><time>2026-04-04T08:02:48.998Z</time></trkpt><trkpt lat="43.14787264014712" lon="10.632293997507384"><ele>381.79999999999995</ele><time>2026-04-04T08:02:49.998Z</time></trkpt><trkpt lat="43.147803387899096" lon="10.632141560250483"><ele>380.4</ele><time>2026-04-04T08:02:50.998Z</time></trkpt><trkpt lat="43.14773424712629" lon="10.632068796419288"><ele>379.0</ele><time>2026-04-04T08:02:51.998Z</time></trkpt><trkpt lat="43.147662823112086" lon="10.631991089270054"><ele>380.4</ele><time>2026-04-04T08:02:52.998Z</time></trkpt><trkpt lat="43.14752256631095" lon="10.63194310167498"><ele>381.79999999999995</ele><time>2026-04-04T08:02:54.998Z</time></trkpt><trkpt lat="43.14742603795738" lon="10.631960141751867"><ele>383.20000000000005</ele><time>2026-04-04T08:02:55.998Z</time></trkpt><trkpt lat="43.147339775837445" lon="10.631986951562741"><ele>384.6</ele><time>2026-04-04T08:02:56.998Z</time></trkpt><trkpt lat="43.147253328365274" lon="10.63204008276836"><ele>386.0</ele><time>2026-04-04T08:02:57.998Z</time></trkpt><trkpt lat="43.14717478943648" lon="10.63211303842085"><ele>386.20000000000005</ele><time>2026-04-04T08:02:58.998Z</time></trkpt><trkpt lat="43.14711994869363" lon="10.632177740941925"><ele>386.40000000000003</ele><time>2026-04-04T08:02:59.998Z</time></trkpt><trkpt lat="43.14703961633084" lon="10.632260032613916"><ele>386.6</ele><time>2026-04-04T08:03:00.998Z</time></trkpt><trkpt lat="43.14692894543829" lon="10.632317028666577"><ele>386.8</ele><time>2026-04-04T08:03:02.998Z</time></trkpt><trkpt lat="43.14683751540909" lon="10.632307773752194"><ele>387.0</ele><time>2026-04-04T08:03:03.998Z</time></trkpt><trkpt lat="43.14673078374079" lon="10.632351275617058"><ele>387.0</ele><time>2026-04-04T08:03:05.998Z</time></trkpt><trkpt lat="43.14664880096154" lon="10.632384319436088"><ele>387.0</ele><time>2026-04-04T08:03:06.998Z</time></trkpt><trkpt lat="43.14657860469687" lon="10.632426525467462"><ele>387.0</ele><time>2026-04-04T08:03:07.998Z</time></trkpt><trkpt lat="43.1465029619269" lon="10.632477804940354"><ele>387.0</ele><time>2026-04-04T08:03:08.998Z</time></trkpt><trkpt lat="43.14641183720966" lon="10.63252616092378"><ele>387.0</ele><time>2026-04-04T08:03:09.998Z</time></trkpt><trkpt lat="43.14634816966599" lon="10.63260955661317"><ele>387.0</ele><time>2026-04-04T08:03:10.998Z</time></trkpt><trkpt lat="43.14628938099167" lon="10.632680255527891"><ele>389.0</ele><time>2026-04-04T08:03:11.998Z</time></trkpt><trkpt lat="43.14616157686788" lon="10.63266592578669"><ele>391.0</ele><time>2026-04-04T08:03:13.998Z</time></trkpt><trkpt lat="43.14609822207772" lon="10.632610531645652"><ele>393.0</ele><time>2026-04-04T08:03:15Z</time></trkpt><trkpt lat="43.14602939916167" lon="10.632543872079598"><ele>395.0</ele><time>2026-04-04T08:03:16Z</time></trkpt><trkpt lat="43.145960271463665" lon="10.632536318545197"><ele>397.0</ele><time>2026-04-04T08:03:17Z</time></trkpt><trkpt lat="43.145864221026194" lon="10.632562386993722"><ele>397.0</ele><time>2026-04-04T08:03:18Z</time></trkpt><trkpt lat="43.14577216312204" lon="10.632593843007278"><ele>397.0</ele><time>2026-04-04T08:03:19Z</time></trkpt><trkpt lat="43.145690122311045" lon="10.632610340838683"><ele>397.0</ele><time>2026-04-04T08:03:20Z</time></trkpt><trkpt lat="43.145625070523984" lon="10.632620273728087"><ele>397.0</ele><time>2026-04-04T08:03:21Z</time></trkpt><trkpt lat="43.14560568851677" lon="10.632520309876577"><ele>397.0</ele><time>2026-04-04T08:03:24Z</time></trkpt><trkpt lat="43.145511122471284" lon="10.632374038284038"><ele>397.8</ele><time>2026-04-04T08:03:26Z</time></trkpt><trkpt lat="43.14544476983694" lon="10.63230953059352"><ele>398.6</ele><time>2026-04-04T08:03:27Z</time></trkpt><trkpt lat="43.145315872202836" lon="10.632265057312882"><ele>399.40000000000003</ele><time>2026-04-04T08:03:29Z</time></trkpt><trkpt lat="43.145232331859354" lon="10.632262076473253"><ele>400.20000000000005</ele><time>2026-04-04T08:03:30Z</time></trkpt><trkpt lat="43.14514971386144" lon="10.63226040327139"><ele>401.0</ele><time>2026-04-04T08:03:31Z</time></trkpt><trkpt lat="43.145065261953626" lon="10.632287155411747"><ele>400.99999999999994</ele><time>2026-04-04T08:03:32Z</time></trkpt><trkpt lat="43.144971348296856" lon="10.632324448259403"><ele>401.0</ele><time>2026-04-04T08:03:33Z</time></trkpt><trkpt lat="43.14488462219167" lon="10.632372615757332"><ele>401.0</ele><time>2026-04-04T08:03:34Z</time></trkpt><trkpt lat="43.14481247335338" lon="10.632411866498556"><ele>401.0</ele><time>2026-04-04T08:03:35Z</time></trkpt><trkpt lat="43.144754912321375" lon="10.632447527657035"><ele>400.99999999999994</ele><time>2026-04-04T08:03:36Z</time></trkpt><trkpt lat="43.144660772976515" lon="10.632520752999545"><ele>401.0</ele><time>2026-04-04T08:03:38Z</time></trkpt><trkpt lat="43.14456719079013" lon="10.63255594577718"><ele>400.99999999999994</ele><time>2026-04-04T08:03:41Z</time></trkpt><trkpt lat="43.14445268541309" lon="10.632574866271042"><ele>401.0</ele><time>2026-04-04T08:03:43Z</time></trkpt><trkpt lat="43.14437666555618" lon="10.632613108692953"><ele>401.0</ele><time>2026-04-04T08:03:45Z</time></trkpt><trkpt lat="43.14432065497071" lon="10.632655456004722"><ele>401.0</ele><time>2026-04-04T08:03:46Z</time></trkpt><trkpt lat="43.1442501582172" lon="10.632684386370075"><ele>400.99999999999994</ele><time>2026-04-04T08:03:47Z</time></trkpt><trkpt lat="43.14417187427489" lon="10.632688533706169"><ele>401.0</ele><time>2026-04-04T08:03:48Z</time></trkpt><trkpt lat="43.144099989526154" lon="10.632687776831979"><ele>402.2857142857143</ele><time>2026-04-04T08:03:49Z</time></trkpt><trkpt lat="43.14402527012312" lon="10.632682723082437"><ele>403.57142857142856</ele><time>2026-04-04T08:03:50Z</time></trkpt><trkpt lat="43.14394517569772" lon="10.632662211147771"><ele>404.8571428571429</ele><time>2026-04-04T08:03:51Z</time></trkpt><trkpt lat="43.143874213590166" lon="10.632645207764735"><ele>406.1428571428571</ele><time>2026-04-04T08:03:52Z</time></trkpt><trkpt lat="43.14380468805394" lon="10.632639421495917"><ele>407.4285714285714</ele><time>2026-04-04T08:03:53Z</time></trkpt><trkpt lat="43.1437351028619" lon="10.63267319793452"><ele>408.7142857142857</ele><time>2026-04-04T08:03:53.999Z</time></trkpt><trkpt lat="43.1436626483966" lon="10.632692248964133"><ele>410.0</ele><time>2026-04-04T08:03:54.999Z</time></trkpt><trkpt lat="43.14358439956903" lon="10.632682991829432"><ele>409.99999999999994</ele><time>2026-04-04T08:03:55.999Z</time></trkpt><trkpt lat="43.143501327754684" lon="10.632710283716547"><ele>410.0</ele><time>2026-04-04T08:03:56.999Z</time></trkpt><trkpt lat="43.14342086344972" lon="10.632719208606938"><ele>410.0</ele><time>2026-04-04T08:03:57.999Z</time></trkpt><trkpt lat="43.143334561067675" lon="10.632718278338835"><ele>410.0</ele><time>2026-04-04T08:03:58.999Z</time></trkpt><trkpt lat="43.143234892898626" lon="10.632637342250671"><ele>409.99999999999994</ele><time>2026-04-04T08:04:00.999Z</time></trkpt><trkpt lat="43.14316897442459" lon="10.632638165867283"><ele>410.0</ele><time>2026-04-04T08:04:01.999Z</time></trkpt><trkpt lat="43.1430982291793" lon="10.632655059867522"><ele>412.49999999999994</ele><time>2026-04-04T08:04:02.999Z</time></trkpt><trkpt lat="43.143026413604474" lon="10.632705943719346"><ele>415.0</ele><time>2026-04-04T08:04:03.999Z</time></trkpt><trkpt lat="43.142916409731235" lon="10.632757827201726"><ele>417.5</ele><time>2026-04-04T08:04:05.999Z</time></trkpt><trkpt lat="43.142833989131525" lon="10.632675623805925"><ele>420.0</ele><time>2026-04-04T08:04:07.999Z</time></trkpt><trkpt lat="43.142769658052174" lon="10.632653126415903"><ele>422.49999999999994</ele><time>2026-04-04T08:04:08.999Z</time></trkpt><trkpt lat="43.142725342106495" lon="10.632589295570261"><ele>425.0</ele><time>2026-04-04T08:04:09.999Z</time></trkpt><trkpt lat="43.14265790425272" lon="10.632527383905026"><ele>424.99999999999994</ele><time>2026-04-04T08:04:10.999Z</time></trkpt><trkpt lat="43.142576394675" lon="10.632495210453175"><ele>425.0</ele><time>2026-04-04T08:04:11.999Z</time></trkpt><trkpt lat="43.14242701228729" lon="10.632477782742889"><ele>425.0</ele><time>2026-04-04T08:04:14.999Z</time></trkpt><trkpt lat="43.14235883103443" lon="10.632458625800764"><ele>425.0</ele><time>2026-04-04T08:04:15.999Z</time></trkpt><trkpt lat="43.14228678020426" lon="10.632438206363721"><ele>424.99999999999994</ele><time>2026-04-04T08:04:16.999Z</time></trkpt><trkpt lat="43.14221899199979" lon="10.632430723791332"><ele>425.0</ele><time>2026-04-04T08:04:17.999Z</time></trkpt><trkpt lat="43.14214071087896" lon="10.63239819043243"><ele>426.6</ele><time>2026-04-04T08:04:19.999Z</time></trkpt><trkpt lat="43.14208259420886" lon="10.632358038898568"><ele>428.2</ele><time>2026-04-04T08:04:20.999Z</time></trkpt><trkpt lat="43.14197081391965" lon="10.632291058553294"><ele>429.79999999999995</ele><time>2026-04-04T08:04:22.999Z</time></trkpt><trkpt lat="43.14186783698219" lon="10.632212138719089"><ele>431.4</ele><time>2026-04-04T08:04:23.999Z</time></trkpt><trkpt lat="43.14173940481166" lon="10.632230308286656"><ele>433.0</ele><time>2026-04-04T08:04:24.999Z</time></trkpt><trkpt lat="43.141660418849824" lon="10.632216816530768"><ele>433.0</ele><time>2026-04-04T08:04:25.999Z</time></trkpt><trkpt lat="43.14158294105328" lon="10.6322012220515"><ele>432.99999999999994</ele><time>2026-04-04T08:04:26.999Z</time></trkpt><trkpt lat="43.14148608025667" lon="10.632179333584082"><ele>432.99999999999994</ele><time>2026-04-04T08:04:27.999Z</time></trkpt><trkpt lat="43.14140890221461" lon="10.632178496232527"><ele>433.0</ele><time>2026-04-04T08:04:28.999Z</time></trkpt><trkpt lat="43.1412428896188" lon="10.632142512260213"><ele>433.0</ele><time>2026-04-04T08:04:30.999Z</time></trkpt><trkpt lat="43.14117555702909" lon="10.63217940808724"><ele>433.79999999999995</ele><time>2026-04-04T08:04:31.999Z</time></trkpt><trkpt lat="43.141082020537326" lon="10.63216836819223"><ele>434.59999999999997</ele><time>2026-04-04T08:04:32.999Z</time></trkpt><trkpt lat="43.141002701454404" lon="10.632176063364355"><ele>435.40000000000003</ele><time>2026-04-04T08:04:33.999Z</time></trkpt><trkpt lat="43.14085565129478" lon="10.632261686901545"><ele>436.20000000000005</ele><time>2026-04-04T08:04:35.999Z</time></trkpt><trkpt lat="43.140788341017796" lon="10.632303327949845"><ele>437.0</ele><time>2026-04-04T08:04:36.999Z</time></trkpt><trkpt lat="43.14069983799565" lon="10.632356606911053"><ele>434.66666666666663</ele><time>2026-04-04T08:04:38.999Z</time></trkpt><trkpt lat="43.14061864442355" lon="10.632408987270166"><ele>432.3333333333333</ele><time>2026-04-04T08:04:40.999Z</time></trkpt><trkpt lat="43.14052901846196" lon="10.632461764787573"><ele>430.0</ele><time>2026-04-04T08:04:42.999Z</time></trkpt><trkpt lat="43.14047012425444" lon="10.632542645487218"><ele>427.66666666666663</ele><time>2026-04-04T08:04:43.999Z</time></trkpt><trkpt lat="43.14041954685234" lon="10.632622410260815"><ele>425.3333333333333</ele><time>2026-04-04T08:04:44.999Z</time></trkpt><trkpt lat="43.140370213518906" lon="10.632697976232237"><ele>423.0</ele><time>2026-04-04T08:04:45.999Z</time></trkpt><trkpt lat="43.14027744217497" lon="10.632805656866198"><ele>425.1666666666667</ele><time>2026-04-04T08:04:46.999Z</time></trkpt><trkpt lat="43.140204047331174" lon="10.63284921141506"><ele>427.33333333333337</ele><time>2026-04-04T08:04:47.998Z</time></trkpt><trkpt lat="43.14013232704885" lon="10.632891838885536"><ele>429.5</ele><time>2026-04-04T08:04:48.998Z</time></trkpt><trkpt lat="43.14007580850959" lon="10.632939305512801"><ele>431.6666666666667</ele><time>2026-04-04T08:04:49.998Z</time></trkpt><trkpt lat="43.14002214357626" lon="10.633000625469805"><ele>433.83333333333337</ele><time>2026-04-04T08:04:50.998Z</time></trkpt><trkpt lat="43.13996171635462" lon="10.633031037119839"><ele>436.0</ele><time>2026-04-04T08:04:51.998Z</time></trkpt><trkpt lat="43.139841931141326" lon="10.633071203251799"><ele>436.00000000000006</ele><time>2026-04-04T08:04:53.998Z</time></trkpt><trkpt lat="43.139769334152014" lon="10.633081353088084"><ele>436.0</ele><time>2026-04-04T08:04:56.998Z</time></trkpt><trkpt lat="43.13969369644076" lon="10.633071720716401"><ele>436.0</ele><time>2026-04-04T08:08:00Z</time></trkpt><trkpt lat="43.13960989933052" lon="10.633047953100256"><ele>436.0</ele><time>2026-04-04T08:08:01.999Z</time></trkpt><trkpt lat="43.13953511759379" lon="10.633056564543281"><ele>436.00000000000006</ele><time>2026-04-04T08:08:02.999Z</time></trkpt><trkpt lat="43.13946478276063" lon="10.633050437497559"><ele>436.0</ele><time>2026-04-04T08:08:03.999Z</time></trkpt><trkpt lat="43.13939554265313" lon="10.633002763589031"><ele>436.0</ele><time>2026-04-04T08:08:04.999Z</time></trkpt><trkpt lat="43.13932734966716" lon="10.63293361284542"><ele>436.0</ele><time>2026-04-04T08:08:05.999Z</time></trkpt><trkpt lat="43.139254240427924" lon="10.63290103740389"><ele>436.0</ele><time>2026-04-04T08:08:07.999Z</time></trkpt><trkpt lat="43.13913902188166" lon="10.63289085887244"><ele>436.0</ele><time>2026-04-04T08:08:09.999Z</time></trkpt><trkpt lat="43.139069192755656" lon="10.632909758947028"><ele>436.0</ele><time>2026-04-04T08:08:10.999Z</time></trkpt><trkpt lat="43.13897214796198" lon="10.632952052385921"><ele>439.00000000000006</ele><time>2026-04-04T08:08:11.999Z</time></trkpt><trkpt lat="43.13891871837083" lon="10.63300033656089"><ele>442.0</ele><time>2026-04-04T08:08:12.999Z</time></trkpt><trkpt lat="43.13882586994772" lon="10.63307114686066"><ele>445.0</ele><time>2026-04-04T08:08:14.999Z</time></trkpt><trkpt lat="43.1387122339358" lon="10.633057034834051"><ele>448.0</ele><time>2026-04-04T08:08:16.999Z</time></trkpt><trkpt lat="43.138648044714714" lon="10.633014772125673"><ele>451.00000000000006</ele><time>2026-04-04T08:08:18.999Z</time></trkpt><trkpt lat="43.138554648140435" lon="10.633026797761127"><ele>454.0</ele><time>2026-04-04T08:08:20.999Z</time></trkpt><trkpt lat="43.13844917311985" lon="10.633031021528934"><ele>454.00000000000006</ele><time>2026-04-04T08:08:21.999Z</time></trkpt><trkpt lat="43.13835170073077" lon="10.633018562425283"><ele>454.0</ele><time>2026-04-04T08:08:22.999Z</time></trkpt><trkpt lat="43.138269043794516" lon="10.633019701845802"><ele>454.0</ele><time>2026-04-04T08:08:23.999Z</time></trkpt><trkpt lat="43.13819802114103" lon="10.633059345512303"><ele>454.0</ele><time>2026-04-04T08:08:24.999Z</time></trkpt><trkpt lat="43.13810915972723" lon="10.633079617511575"><ele>454.00000000000006</ele><time>2026-04-04T08:08:25.999Z</time></trkpt><trkpt lat="43.13802129390681" lon="10.633114452103534"><ele>454.0</ele><time>2026-04-04T08:08:26.999Z</time></trkpt><trkpt lat="43.13795551011727" lon="10.63314082481336"><ele>457.0</ele><time>2026-04-04T08:08:27.999Z</time></trkpt><trkpt lat="43.137894708653356" lon="10.633195266851066"><ele>460.0</ele><time>2026-04-04T08:08:28.999Z</time></trkpt><trkpt lat="43.137753669919285" lon="10.633273789882823"><ele>463.0</ele><time>2026-04-04T08:08:30.999Z</time></trkpt><trkpt lat="43.137673559814694" lon="10.6332747276846"><ele>466.0</ele><time>2026-04-04T08:08:31.999Z</time></trkpt><trkpt lat="43.137611707524655" lon="10.633194063939897"><ele>469.0</ele><time>2026-04-04T08:08:32.999Z</time></trkpt><trkpt lat="43.13753739924233" lon="10.63318301247896"><ele>469.00000000000006</ele><time>2026-04-04T08:08:33.999Z</time></trkpt><trkpt lat="43.13742965069657" lon="10.6332200235555"><ele>469.0</ele><time>2026-04-04T08:08:35.999Z</time></trkpt><trkpt lat="43.13738395757408" lon="10.633284371418336"><ele>469.0</ele><time>2026-04-04T08:08:38.999Z</time></trkpt><trkpt lat="43.13729976806162" lon="10.633226490716865"><ele>469.0</ele><time>2026-04-04T08:08:41.999Z</time></trkpt><trkpt lat="43.1372329641604" lon="10.633234987840549"><ele>469.00000000000006</ele><time>2026-04-04T08:08:42.999Z</time></trkpt><trkpt lat="43.137149777226306" lon="10.633242606083208"><ele>469.0</ele><time>2026-04-04T08:08:43.999Z</time></trkpt><trkpt lat="43.13706195061454" lon="10.63325541816447"><ele>472.6</ele><time>2026-04-04T08:08:44.999Z</time></trkpt><trkpt lat="43.136966743998826" lon="10.63322147655562"><ele>476.2</ele><time>2026-04-04T08:08:46.999Z</time></trkpt><trkpt lat="43.13688652385351" lon="10.633249884484508"><ele>479.80000000000007</ele><time>2026-04-04T08:08:47.999Z</time></trkpt><trkpt lat="43.13678921633604" lon="10.63325283669082"><ele>483.40000000000003</ele><time>2026-04-04T08:08:48.999Z</time></trkpt><trkpt lat="43.13670235495683" lon="10.633201503442637"><ele>487.0</ele><time>2026-04-04T08:08:49.999Z</time></trkpt><trkpt lat="43.13662825972958" lon="10.633110147893827"><ele>487.0</ele><time>2026-04-04T08:08:50.999Z</time></trkpt><trkpt lat="43.13657318324383" lon="10.6330367741619"><ele>487.0</ele><time>2026-04-04T08:08:51.999Z</time></trkpt><trkpt lat="43.136444418530715" lon="10.632992401585263"><ele>487.0</ele><time>2026-04-04T08:08:52.999Z</time></trkpt><trkpt lat="43.13632877921874" lon="10.633005791750643"><ele>487.0</ele><time>2026-04-04T08:08:54.999Z</time></trkpt><trkpt lat="43.13617135957451" lon="10.633029195621374"><ele>489.33333333333337</ele><time>2026-04-04T08:08:56.998Z</time></trkpt><trkpt lat="43.13610413027622" lon="10.633009058298162"><ele>491.6666666666667</ele><time>2026-04-04T08:08:57.998Z</time></trkpt><trkpt lat="43.13602395258122" lon="10.633069918364553"><ele>494.0</ele><time>2026-04-04T08:08:59.998Z</time></trkpt><trkpt lat="43.13594099728697" lon="10.633115062067445"><ele>496.33333333333337</ele><time>2026-04-04T08:09:01.998Z</time></trkpt><trkpt lat="43.13587454813028" lon="10.633152984319032"><ele>498.6666666666667</ele><time>2026-04-04T08:09:03.998Z</time></trkpt><trkpt lat="43.135787140147954" lon="10.633197794528975"><ele>501.0</ele><time>2026-04-04T08:09:04.998Z</time></trkpt><trkpt lat="43.1356941434904" lon="10.633231596173854"><ele>502.5</ele><time>2026-04-04T08:09:05.998Z</time></trkpt><trkpt lat="43.135598239336744" lon="10.633252060139569"><ele>504.0</ele><time>2026-04-04T08:09:06.998Z</time></trkpt><trkpt lat="43.13549199806305" lon="10.633254486119242"><ele>505.5</ele><time>2026-04-04T08:09:07.998Z</time></trkpt><trkpt lat="43.135430752440115" lon="10.633275428650233"><ele>507.0</ele><time>2026-04-04T08:09:08.998Z</time></trkpt><trkpt lat="43.13532673703021" lon="10.633276905733744"><ele>508.5</ele><time>2026-04-04T08:09:09.998Z</time></trkpt><trkpt lat="43.13525131640357" lon="10.633283755415663"><ele>510.0</ele><time>2026-04-04T08:09:10.998Z</time></trkpt><trkpt lat="43.13513087724087" lon="10.633275107724756"><ele>510.0</ele><time>2026-04-04T08:09:12.998Z</time></trkpt><trkpt lat="43.13504031875468" lon="10.633256889577947"><ele>510.0</ele><time>2026-04-04T08:09:13.998Z</time></trkpt><trkpt lat="43.13494733418776" lon="10.633225121149385"><ele>510.0</ele><time>2026-04-04T08:09:14.998Z</time></trkpt><trkpt lat="43.134820045254436" lon="10.633110351907131"><ele>510.0</ele><time>2026-04-04T08:09:16.998Z</time></trkpt><trkpt lat="43.13474495088943" lon="10.633047237656989"><ele>510.0</ele><time>2026-04-04T08:09:17.998Z</time></trkpt><trkpt lat="43.13468161139304" lon="10.63298617484686"><ele>509.5</ele><time>2026-04-04T08:09:18.998Z</time></trkpt><trkpt lat="43.13459692140599" lon="10.632935479253268"><ele>509.0</ele><time>2026-04-04T08:09:20.998Z</time></trkpt><trkpt lat="43.13448661779905" lon="10.632923451251923"><ele>508.5</ele><time>2026-04-04T08:09:22.998Z</time></trkpt><trkpt lat="43.13442239777041" lon="10.632888974565297"><ele>508.0</ele><time>2026-04-04T08:09:23.998Z</time></trkpt><trkpt lat="43.13432968143357" lon="10.63289021926228"><ele>507.5</ele><time>2026-04-04T08:09:24.998Z</time></trkpt><trkpt lat="43.134258458618966" lon="10.632921986970027"><ele>507.0</ele><time>2026-04-04T08:09:25.998Z</time></trkpt><trkpt lat="43.13415748800853" lon="10.632944749503016"><ele>507.0</ele><time>2026-04-04T08:09:26.998Z</time></trkpt><trkpt lat="43.13408879483614" lon="10.632959067772465"><ele>507.0</ele><time>2026-04-04T08:09:27.998Z</time></trkpt><trkpt lat="43.13401992463772" lon="10.633026475645504"><ele>507.0</ele><time>2026-04-04T08:09:29.998Z</time></trkpt><trkpt lat="43.133916769156826" lon="10.633051816203741"><ele>507.0</ele><time>2026-04-04T08:09:31.998Z</time></trkpt><trkpt lat="43.13384538803496" lon="10.633056041355674"><ele>507.0</ele><time>2026-04-04T08:09:34Z</time></trkpt><trkpt lat="43.13376526958294" lon="10.633040421972858"><ele>507.0</ele><time>2026-04-04T08:09:35Z</time></trkpt><trkpt lat="43.133673800875535" lon="10.633056899363424"><ele>506.0</ele><time>2026-04-04T08:09:36Z</time></trkpt><trkpt lat="43.13360552911911" lon="10.633080462641425"><ele>505.00000000000006</ele><time>2026-04-04T08:09:37Z</time></trkpt><trkpt lat="43.13351479795157" lon="10.63317995394479"><ele>504.00000000000006</ele><time>2026-04-04T08:09:40Z</time></trkpt><trkpt lat="43.13344495388223" lon="10.63331364924534"><ele>503.0</ele><time>2026-04-04T08:09:42Z</time></trkpt><trkpt lat="43.133378996058546" lon="10.633422843898039"><ele>502.0</ele><time>2026-04-04T08:09:43Z</time></trkpt><trkpt lat="43.13333285534194" lon="10.633508187375922"><ele>503.20000000000005</ele><time>2026-04-04T08:09:44Z</time></trkpt><trkpt lat="43.133278535620626" lon="10.633640276354397"><ele>504.40000000000003</ele><time>2026-04-04T08:09:46Z</time></trkpt><trkpt lat="43.13328297352233" lon="10.633732443251501"><ele>505.59999999999997</ele><time>2026-04-04T08:09:48Z</time></trkpt><trkpt lat="43.13332314649555" lon="10.633899759987269"><ele>506.79999999999995</ele><time>2026-04-04T08:09:50Z</time></trkpt><trkpt lat="43.133320732421545" lon="10.63401180878098"><ele>508.0</ele><time>2026-04-04T08:09:51Z</time></trkpt><trkpt lat="43.13326203028116" lon="10.634160492904407"><ele>507.50000000000006</ele><time>2026-04-04T08:09:53Z</time></trkpt><trkpt lat="43.133200868286245" lon="10.634246379306902"><ele>507.0</ele><time>2026-04-04T08:09:54Z</time></trkpt><trkpt lat="43.133142797079486" lon="10.634316760956521"><ele>506.5</ele><time>2026-04-04T08:09:55Z</time></trkpt><trkpt lat="43.13308287192873" lon="10.63439027830998"><ele>506.0</ele><time>2026-04-04T08:09:56Z</time></trkpt><trkpt lat="43.133002322884685" lon="10.634380052714695"><ele>505.50000000000006</ele><time>2026-04-04T08:09:57Z</time></trkpt><trkpt lat="43.13292615370249" lon="10.634415317872659"><ele>505.0</ele><time>2026-04-04T08:09:58Z</time></trkpt><trkpt lat="43.13285453917269" lon="10.634432515479354"><ele>503.8</ele><time>2026-04-04T08:09:59Z</time></trkpt><trkpt lat="43.13278151242263" lon="10.634488903177383"><ele>502.6</ele><time>2026-04-04T08:10:00Z</time></trkpt><trkpt lat="43.132693308889095" lon="10.63448306965408"><ele>501.4</ele><time>2026-04-04T08:10:01Z</time></trkpt><trkpt lat="43.13259772223936" lon="10.634490065966684"><ele>500.2</ele><time>2026-04-04T08:10:02Z</time></trkpt><trkpt lat="43.13250134360243" lon="10.634482434557729"><ele>499.0</ele><time>2026-04-04T08:10:03Z</time></trkpt><trkpt lat="43.132429445129574" lon="10.634586462222735"><ele>499.0</ele><time>2026-04-04T08:10:05Z</time></trkpt><trkpt lat="43.13242098917105" lon="10.6347401848023"><ele>499.0</ele><time>2026-04-04T08:10:07Z</time></trkpt><trkpt lat="43.132308500900294" lon="10.63482721674506"><ele>499.0</ele><time>2026-04-04T08:10:09Z</time></trkpt><trkpt lat="43.132206043274614" lon="10.634832878101792"><ele>499.0</ele><time>2026-04-04T08:10:10Z</time></trkpt><trkpt lat="43.132088515093876" lon="10.63483542981273"><ele>500.6</ele><time>2026-04-04T08:10:11Z</time></trkpt><trkpt lat="43.13198696331407" lon="10.6348474109619"><ele>502.2</ele><time>2026-04-04T08:10:12Z</time></trkpt><trkpt lat="43.13192398344547" lon="10.634759678831253"><ele>503.80000000000007</ele><time>2026-04-04T08:10:13.999Z</time></trkpt><trkpt lat="43.13190504341841" lon="10.634634169898348"><ele>505.40000000000003</ele><time>2026-04-04T08:10:14.999Z</time></trkpt><trkpt lat="43.13188674245523" lon="10.634456569506119"><ele>507.0</ele><time>2026-04-04T08:10:15.999Z</time></trkpt><trkpt lat="43.131854894549626" lon="10.634249823066138"><ele>507.0</ele><time>2026-04-04T08:10:16.999Z</time></trkpt><trkpt lat="43.13182550558874" lon="10.634059623072176"><ele>507.0</ele><time>2026-04-04T08:10:17.999Z</time></trkpt><trkpt lat="43.13177034945155" lon="10.63389832171592"><ele>507.0</ele><time>2026-04-04T08:10:18.999Z</time></trkpt><trkpt lat="43.13174896953483" lon="10.633726904825965"><ele>507.0</ele><time>2026-04-04T08:10:19.999Z</time></trkpt><trkpt lat="43.13175255885534" lon="10.633561315731907"><ele>506.0</ele><time>2026-04-04T08:10:20.999Z</time></trkpt><trkpt lat="43.131743999360914" lon="10.633423704162434"><ele>505.0</ele><time>2026-04-04T08:10:21.999Z</time></trkpt><trkpt lat="43.13172640956013" lon="10.633308984674796"><ele>504.0</ele><time>2026-04-04T08:10:22.999Z</time></trkpt><trkpt lat="43.13170214924072" lon="10.63321036306211"><ele>503.0</ele><time>2026-04-04T08:10:23.999Z</time></trkpt><trkpt lat="43.13164273713625" lon="10.633104465561772"><ele>502.0</ele><time>2026-04-04T08:10:24.999Z</time></trkpt><trkpt lat="43.13157434027512" lon="10.6330352356612"><ele>501.0</ele><time>2026-04-04T08:10:25.999Z</time></trkpt><trkpt lat="43.131495899934976" lon="10.632977634075896"><ele>501.0</ele><time>2026-04-04T08:10:26.999Z</time></trkpt><trkpt lat="43.131392903419865" lon="10.632905409874096"><ele>501.0</ele><time>2026-04-04T08:10:27.999Z</time></trkpt><trkpt lat="43.131289706054616" lon="10.632778495651642"><ele>501.0</ele><time>2026-04-04T08:10:28.999Z</time></trkpt><trkpt lat="43.131213314931315" lon="10.632685056252358"><ele>501.0</ele><time>2026-04-04T08:10:29.999Z</time></trkpt><trkpt lat="43.13113604461521" lon="10.63259997057169"><ele>501.0</ele><time>2026-04-04T08:10:30.999Z</time></trkpt><trkpt lat="43.13105032892172" lon="10.632527256057978"><ele>501.0</ele><time>2026-04-04T08:10:31.999Z</time></trkpt><trkpt lat="43.130966789289396" lon="10.632483412643372"><ele>501.0</ele><time>2026-04-04T08:10:32.999Z</time></trkpt><trkpt lat="43.13086731891297" lon="10.632448650408273"><ele>501.0</ele><time>2026-04-04T08:10:33.999Z</time></trkpt><trkpt lat="43.13076309701643" lon="10.632413700797764"><ele>501.0</ele><time>2026-04-04T08:10:34.999Z</time></trkpt><trkpt lat="43.13065883492882" lon="10.632384688765939"><ele>503.0</ele><time>2026-04-04T08:10:35.999Z</time></trkpt><trkpt lat="43.130549338739385" lon="10.632371119147237"><ele>505.0</ele><time>2026-04-04T08:10:36.999Z</time></trkpt><trkpt lat="43.13044804786822" lon="10.632350886652876"><ele>507.0</ele><time>2026-04-04T08:10:37.999Z</time></trkpt><trkpt lat="43.13035085751216" lon="10.632313262581064"><ele>509.0</ele><time>2026-04-04T08:10:38.999Z</time></trkpt><trkpt lat="43.130257707129665" lon="10.63224505302499"><ele>511.0</ele><time>2026-04-04T08:10:39.999Z</time></trkpt><trkpt lat="43.13017335873074" lon="10.63216173579002"><ele>511.0</ele><time>2026-04-04T08:10:40.999Z</time></trkpt><trkpt lat="43.13010795983242" lon="10.632066890724523"><ele>511.0</ele><time>2026-04-04T08:10:41.999Z</time></trkpt><trkpt lat="43.130027898067496" lon="10.631963710641994"><ele>511.0</ele><time>2026-04-04T08:10:42.999Z</time></trkpt><trkpt lat="43.12994925535862" lon="10.631854851912372"><ele>511.0</ele><time>2026-04-04T08:10:43.999Z</time></trkpt><trkpt lat="43.129870117232876" lon="10.631760480292652"><ele>511.0</ele><time>2026-04-04T08:10:44.999Z</time></trkpt><trkpt lat="43.129797786424234" lon="10.631713039581365"><ele>510.50000000000006</ele><time>2026-04-04T08:10:45.999Z</time></trkpt><trkpt lat="43.12973200831928" lon="10.631670588218894"><ele>510.0</ele><time>2026-04-04T08:10:46.999Z</time></trkpt><trkpt lat="43.12966699711175" lon="10.631658998114544"><ele>509.5</ele><time>2026-04-04T08:10:47.999Z</time></trkpt><trkpt lat="43.12959220858989" lon="10.631667736657272"><ele>509.0</ele><time>2026-04-04T08:10:48.999Z</time></trkpt><trkpt lat="43.12950972775918" lon="10.631687901496615"><ele>508.50000000000006</ele><time>2026-04-04T08:10:49.999Z</time></trkpt><trkpt lat="43.129413913963745" lon="10.631694725775446"><ele>508.0</ele><time>2026-04-04T08:10:50.999Z</time></trkpt><trkpt lat="43.12933810869655" lon="10.631681441491772"><ele>508.0</ele><time>2026-04-04T08:10:51.999Z</time></trkpt><trkpt lat="43.12926857348335" lon="10.631656493003888"><ele>507.99999999999994</ele><time>2026-04-04T08:10:52.999Z</time></trkpt><trkpt lat="43.129166577506986" lon="10.631627975842896"><ele>507.99999999999994</ele><time>2026-04-04T08:10:53.999Z</time></trkpt><trkpt lat="43.12906236475373" lon="10.631633837439484"><ele>508.0</ele><time>2026-04-04T08:10:54.999Z</time></trkpt><trkpt lat="43.12896501410163" lon="10.631673317827547"><ele>508.0</ele><time>2026-04-04T08:10:55.999Z</time></trkpt><trkpt lat="43.128868068601946" lon="10.63170251384507"><ele>507.4</ele><time>2026-04-04T08:10:56.999Z</time></trkpt><trkpt lat="43.128739024025464" lon="10.631744363444934"><ele>506.79999999999995</ele><time>2026-04-04T08:10:57.999Z</time></trkpt><trkpt lat="43.12862841764809" lon="10.631760296996909"><ele>506.2</ele><time>2026-04-04T08:10:58.999Z</time></trkpt><trkpt lat="43.12852877437117" lon="10.631773933173454"><ele>505.6</ele><time>2026-04-04T08:10:59.999Z</time></trkpt><trkpt lat="43.12844975511609" lon="10.631761244515824"><ele>505.0</ele><time>2026-04-04T08:11:00.999Z</time></trkpt><trkpt lat="43.12838372940478" lon="10.631710496986106"><ele>505.0</ele><time>2026-04-04T08:11:01.999Z</time></trkpt><trkpt lat="43.128322020993934" lon="10.63165520063136"><ele>505.0</ele><time>2026-04-04T08:11:02.999Z</time></trkpt><trkpt lat="43.12827122548676" lon="10.631535314813924"><ele>505.0</ele><time>2026-04-04T08:11:03.999Z</time></trkpt><trkpt lat="43.12821378904711" lon="10.631354036074804"><ele>505.0</ele><time>2026-04-04T08:11:05.999Z</time></trkpt><trkpt lat="43.128208237569766" lon="10.631249403902205"><ele>505.0</ele><time>2026-04-04T08:11:06.999Z</time></trkpt><trkpt lat="43.12814339691822" lon="10.631141756621629"><ele>505.5</ele><time>2026-04-04T08:11:08.998Z</time></trkpt><trkpt lat="43.12808184252945" lon="10.631063942361784"><ele>506.0</ele><time>2026-04-04T08:11:09.998Z</time></trkpt><trkpt lat="43.127967722334006" lon="10.630884142775509"><ele>506.5</ele><time>2026-04-04T08:11:10.998Z</time></trkpt><trkpt lat="43.127878846723334" lon="10.630727487134157"><ele>507.0</ele><time>2026-04-04T08:11:11.998Z</time></trkpt><trkpt lat="43.12778635676427" lon="10.630576495340945"><ele>507.0</ele><time>2026-04-04T08:11:12.998Z</time></trkpt><trkpt lat="43.12770014841886" lon="10.630381295071981"><ele>507.0</ele><time>2026-04-04T08:11:13.998Z</time></trkpt><trkpt lat="43.12760544781725" lon="10.630204428118507"><ele>507.0</ele><time>2026-04-04T08:11:14.998Z</time></trkpt><trkpt lat="43.12753357409528" lon="10.630041121971333"><ele>509.40000000000003</ele><time>2026-04-04T08:11:15.998Z</time></trkpt><trkpt lat="43.12745638276303" lon="10.62993715556653"><ele>511.80000000000007</ele><time>2026-04-04T08:11:16.998Z</time></trkpt><trkpt lat="43.12738851495537" lon="10.629831244319513"><ele>514.2</ele><time>2026-04-04T08:11:17.998Z</time></trkpt><trkpt lat="43.12731232141997" lon="10.629726248907604"><ele>516.6</ele><time>2026-04-04T08:11:18.998Z</time></trkpt><trkpt lat="43.127241717978094" lon="10.629640952961267"><ele>519.0</ele><time>2026-04-04T08:11:19.998Z</time></trkpt><trkpt lat="43.127191018952445" lon="10.629511969891832"><ele>520.0</ele><time>2026-04-04T08:11:20.998Z</time></trkpt><trkpt lat="43.12715001716472" lon="10.629433799291553"><ele>521.0</ele><time>2026-04-04T08:11:21.998Z</time></trkpt><trkpt lat="43.12709850953855" lon="10.629331009730713"><ele>522.0</ele><time>2026-04-04T08:11:23.998Z</time></trkpt><trkpt lat="43.12697071445347" lon="10.62926988706524"><ele>523.0</ele><time>2026-04-04T08:11:26.998Z</time></trkpt><trkpt lat="43.12691438453683" lon="10.629326679374573"><ele>524.0</ele><time>2026-04-04T08:11:27.998Z</time></trkpt><trkpt lat="43.12684216896018" lon="10.629376328283389"><ele>525.0</ele><time>2026-04-04T08:11:29.998Z</time></trkpt><trkpt lat="43.126776417078254" lon="10.629389371945987"><ele>525.0</ele><time>2026-04-04T08:11:31.998Z</time></trkpt><trkpt lat="43.12670933485517" lon="10.62940283978402"><ele>525.0</ele><time>2026-04-04T08:11:34.998Z</time></trkpt><trkpt lat="43.126683289773105" lon="10.629257538147657"><ele>525.0</ele><time>2026-04-04T08:13:58Z</time></trkpt><trkpt lat="43.12668633024444" lon="10.629147628211623"><ele>525.0</ele><time>2026-04-04T08:13:59Z</time></trkpt><trkpt lat="43.12667044552054" lon="10.628999602288387"><ele>525.0</ele><time>2026-04-04T08:14:01Z</time></trkpt><trkpt lat="43.126671745314695" lon="10.628910579682692"><ele>525.0</ele><time>2026-04-04T08:14:03Z</time></trkpt><trkpt lat="43.126645723654526" lon="10.628766535422852"><ele>525.0</ele><time>2026-04-04T08:14:05Z</time></trkpt><trkpt lat="43.126619128307844" lon="10.628684163781456"><ele>525.0</ele><time>2026-04-04T08:14:06Z</time></trkpt><trkpt lat="43.12660555359097" lon="10.628596850742335"><ele>525.0</ele><time>2026-04-04T08:14:07Z</time></trkpt><trkpt lat="43.12660234705942" lon="10.628441313584956"><ele>525.0</ele><time>2026-04-04T08:14:09Z</time></trkpt><trkpt lat="43.1265261014577" lon="10.62835693695231"><ele>525.0</ele><time>2026-04-04T08:14:11Z</time></trkpt><trkpt lat="43.126479408857975" lon="10.628251084061446"><ele>525.0</ele><time>2026-04-04T08:14:13Z</time></trkpt><trkpt lat="43.126418883725115" lon="10.62808493980858"><ele>524.3333333333334</ele><time>2026-04-04T08:14:15Z</time></trkpt><trkpt lat="43.1263688968355" lon="10.628001432863215"><ele>523.6666666666666</ele><time>2026-04-04T08:14:17Z</time></trkpt><trkpt lat="43.12629862672449" lon="10.627931422200646"><ele>523.0</ele><time>2026-04-04T08:14:19Z</time></trkpt><trkpt lat="43.12625288121352" lon="10.627849372157412"><ele>522.3333333333333</ele><time>2026-04-04T08:14:20Z</time></trkpt><trkpt lat="43.12618535412416" lon="10.62772203949553"><ele>521.6666666666666</ele><time>2026-04-04T08:14:22Z</time></trkpt><trkpt lat="43.12612658467152" lon="10.627662090908663"><ele>521.0</ele><time>2026-04-04T08:14:23Z</time></trkpt><trkpt lat="43.12606436076391" lon="10.627603665357103"><ele>520.3333333333333</ele><time>2026-04-04T08:14:25Z</time></trkpt><trkpt lat="43.12604097692987" lon="10.627514521376906"><ele>519.6666666666666</ele><time>2026-04-04T08:14:26.999Z</time></trkpt><trkpt lat="43.12597943207243" lon="10.62740945796034"><ele>519.0</ele><time>2026-04-04T08:14:28.999Z</time></trkpt><trkpt lat="43.125972316453755" lon="10.627317005404562"><ele>518.3333333333334</ele><time>2026-04-04T08:14:29.999Z</time></trkpt><trkpt lat="43.12589611170684" lon="10.627223552770504"><ele>517.6666666666667</ele><time>2026-04-04T08:14:31.999Z</time></trkpt><trkpt lat="43.12583711379835" lon="10.627144844334376"><ele>517.0</ele><time>2026-04-04T08:14:32.999Z</time></trkpt><trkpt lat="43.12580487539641" lon="10.627054726754109"><ele>515.6666666666667</ele><time>2026-04-04T08:14:33.999Z</time></trkpt><trkpt lat="43.125771367413186" lon="10.626918247351023"><ele>514.3333333333334</ele><time>2026-04-04T08:14:34.999Z</time></trkpt><trkpt lat="43.125738888634224" lon="10.626841464947717"><ele>513.0</ele><time>2026-04-04T08:14:35.999Z</time></trkpt><trkpt lat="43.125681371605616" lon="10.626768922385294"><ele>511.66666666666663</ele><time>2026-04-04T08:14:36.999Z</time></trkpt><trkpt lat="43.125616302231876" lon="10.626696612880059"><ele>510.3333333333333</ele><time>2026-04-04T08:14:37.999Z</time></trkpt><trkpt lat="43.12555255911975" lon="10.62661683701181"><ele>509.0</ele><time>2026-04-04T08:14:38.999Z</time></trkpt><trkpt lat="43.12551383824171" lon="10.626533160916349"><ele>507.4</ele><time>2026-04-04T08:14:39.999Z</time></trkpt><trkpt lat="43.125480231333235" lon="10.626420520280671"><ele>505.79999999999995</ele><time>2026-04-04T08:14:40.999Z</time></trkpt><trkpt lat="43.125453565650304" lon="10.626302019623422"><ele>504.20000000000005</ele><time>2026-04-04T08:14:41.999Z</time></trkpt><trkpt lat="43.12543837105595" lon="10.626212155568348"><ele>502.6</ele><time>2026-04-04T08:14:42.999Z</time></trkpt><trkpt lat="43.12540110417013" lon="10.626057317736866"><ele>501.0</ele><time>2026-04-04T08:14:44.999Z</time></trkpt><trkpt lat="43.12536445686435" lon="10.625953383247536"><ele>500.3333333333333</ele><time>2026-04-04T08:14:45.999Z</time></trkpt><trkpt lat="43.12532173809027" lon="10.625833353095718"><ele>499.66666666666663</ele><time>2026-04-04T08:14:46.999Z</time></trkpt><trkpt lat="43.12531156293471" lon="10.62571775972289"><ele>499.0</ele><time>2026-04-04T08:14:47.999Z</time></trkpt><trkpt lat="43.1253175593723" lon="10.625608274113468"><ele>498.3333333333333</ele><time>2026-04-04T08:14:48.999Z</time></trkpt><trkpt lat="43.12529930711053" lon="10.625521094876872"><ele>497.66666666666663</ele><time>2026-04-04T08:14:49.999Z</time></trkpt><trkpt lat="43.125288713569915" lon="10.625412389087652"><ele>497.0</ele><time>2026-04-04T08:14:50.999Z</time></trkpt><trkpt lat="43.12528467335258" lon="10.62532225015272"><ele>497.8</ele><time>2026-04-04T08:14:53.999Z</time></trkpt><trkpt lat="43.12531243687162" lon="10.625180020392007"><ele>498.6</ele><time>2026-04-04T08:14:57.999Z</time></trkpt><trkpt lat="43.12533402823729" lon="10.625095812445494"><ele>499.40000000000003</ele><time>2026-04-04T08:14:58.999Z</time></trkpt><trkpt lat="43.125393369651334" lon="10.624977196691509"><ele>500.20000000000005</ele><time>2026-04-04T08:15:00.999Z</time></trkpt><trkpt lat="43.12545785456987" lon="10.62485395999954"><ele>501.0</ele><time>2026-04-04T08:15:02.999Z</time></trkpt><trkpt lat="43.12551326209236" lon="10.624737811668425"><ele>501.0</ele><time>2026-04-04T08:15:04.999Z</time></trkpt><trkpt lat="43.12554137038147" lon="10.624650033834682"><ele>501.0</ele><time>2026-04-04T08:15:05.999Z</time></trkpt><trkpt lat="43.12556528886878" lon="10.62447714439623"><ele>501.0</ele><time>2026-04-04T08:15:07.999Z</time></trkpt><trkpt lat="43.125570073614384" lon="10.624307181865543"><ele>501.0</ele><time>2026-04-04T08:15:09.999Z</time></trkpt><trkpt lat="43.125572128045484" lon="10.6242103687459"><ele>501.0</ele><time>2026-04-04T08:15:10.999Z</time></trkpt><trkpt lat="43.1255832603777" lon="10.624031162329478"><ele>502.4</ele><time>2026-04-04T08:15:12.999Z</time></trkpt><trkpt lat="43.12559103171289" lon="10.623929160796013"><ele>503.8</ele><time>2026-04-04T08:15:13.999Z</time></trkpt><trkpt lat="43.12558684874605" lon="10.623770893706375"><ele>505.19999999999993</ele><time>2026-04-04T08:15:15.999Z</time></trkpt><trkpt lat="43.1255878472219" lon="10.623614584364915"><ele>506.59999999999997</ele><time>2026-04-04T08:15:17.999Z</time></trkpt><trkpt lat="43.125621713929384" lon="10.623527120679395"><ele>508.0</ele><time>2026-04-04T08:15:18.999Z</time></trkpt><trkpt lat="43.125653542342675" lon="10.623432502194493"><ele>508.14285714285717</ele><time>2026-04-04T08:15:19.999Z</time></trkpt><trkpt lat="43.12567578262085" lon="10.623335170554084"><ele>508.2857142857142</ele><time>2026-04-04T08:15:20.999Z</time></trkpt><trkpt lat="43.125690201905556" lon="10.623240056061402"><ele>508.4285714285714</ele><time>2026-04-04T08:15:21.998Z</time></trkpt><trkpt lat="43.12571234346104" lon="10.623143885680008"><ele>508.57142857142856</ele><time>2026-04-04T08:15:22.998Z</time></trkpt><trkpt lat="43.12574199882548" lon="10.623036921777146"><ele>508.71428571428567</ele><time>2026-04-04T08:15:24.998Z</time></trkpt><trkpt lat="43.12579716451292" lon="10.622986480811464"><ele>508.8571428571428</ele><time>2026-04-04T08:15:26.998Z</time></trkpt><trkpt lat="43.12580830755034" lon="10.62287954629285"><ele>508.99999999999994</ele><time>2026-04-04T08:15:28.998Z</time></trkpt><trkpt lat="43.12580127930995" lon="10.622790334049549"><ele>505.49999999999994</ele><time>2026-04-04T08:15:30.998Z</time></trkpt><trkpt lat="43.12581199059952" lon="10.622663978446276"><ele>502.0</ele><time>2026-04-04T08:15:33.998Z</time></trkpt><trkpt lat="43.125846157450255" lon="10.622577975011328"><ele>498.5</ele><time>2026-04-04T08:15:34.998Z</time></trkpt><trkpt lat="43.12583988101421" lon="10.622470007422143"><ele>495.0</ele><time>2026-04-04T08:15:35.998Z</time></trkpt><trkpt lat="43.12582285535438" lon="10.622354240471775"><ele>491.49999999999994</ele><time>2026-04-04T08:15:37.998Z</time></trkpt><trkpt lat="43.12577258415407" lon="10.622246408388037"><ele>488.0</ele><time>2026-04-04T08:15:39.998Z</time></trkpt><trkpt lat="43.125784715937364" lon="10.622068781134717"><ele>486.2</ele><time>2026-04-04T08:15:41.998Z</time></trkpt><trkpt lat="43.125820597642495" lon="10.621952387005278"><ele>484.4</ele><time>2026-04-04T08:15:43.998Z</time></trkpt><trkpt lat="43.1258382726456" lon="10.621840497207023"><ele>482.59999999999997</ele><time>2026-04-04T08:15:45.998Z</time></trkpt><trkpt lat="43.12585792339813" lon="10.62171708178786"><ele>480.79999999999995</ele><time>2026-04-04T08:15:48.998Z</time></trkpt><trkpt lat="43.1258593535894" lon="10.621533548857695"><ele>479.0</ele><time>2026-04-04T08:15:51Z</time></trkpt><trkpt lat="43.1258684485657" lon="10.621409209836553"><ele>478.99999999999994</ele><time>2026-04-04T08:15:53Z</time></trkpt><trkpt lat="43.1259151519959" lon="10.621331741663322"><ele>479.0</ele><time>2026-04-04T08:15:54Z</time></trkpt><trkpt lat="43.125945431358765" lon="10.621231179614933"><ele>479.0</ele><time>2026-04-04T08:15:56Z</time></trkpt><trkpt lat="43.12594548818247" lon="10.621116464487287"><ele>479.0</ele><time>2026-04-04T08:15:58Z</time></trkpt><trkpt lat="43.12592068341415" lon="10.62097645437829"><ele>478.99999999999994</ele><time>2026-04-04T08:16:00Z</time></trkpt><trkpt lat="43.12589730607023" lon="10.620878120121397"><ele>479.0</ele><time>2026-04-04T08:16:01Z</time></trkpt><trkpt lat="43.12587810970679" lon="10.620779341121033"><ele>476.79999999999995</ele><time>2026-04-04T08:16:03Z</time></trkpt><trkpt lat="43.12586590919682" lon="10.620678931147253"><ele>474.59999999999997</ele><time>2026-04-04T08:16:04Z</time></trkpt><trkpt lat="43.12585292210355" lon="10.620533386905967"><ele>472.4</ele><time>2026-04-04T08:16:05Z</time></trkpt><trkpt lat="43.12586224665467" lon="10.620381945852024"><ele>470.2</ele><time>2026-04-04T08:16:07Z</time></trkpt><trkpt lat="43.12588519443733" lon="10.620282034647364"><ele>468.0</ele><time>2026-04-04T08:16:10Z</time></trkpt><trkpt lat="43.125924882700595" lon="10.620166119790367"><ele>465.8333333333333</ele><time>2026-04-04T08:16:12Z</time></trkpt><trkpt lat="43.12597419541394" lon="10.620107538454265"><ele>463.66666666666663</ele><time>2026-04-04T08:16:13Z</time></trkpt><trkpt lat="43.1260379901882" lon="10.620077939634037"><ele>461.5</ele><time>2026-04-04T08:16:14Z</time></trkpt><trkpt lat="43.12604886838638" lon="10.619961842057908"><ele>459.3333333333333</ele><time>2026-04-04T08:16:16Z</time></trkpt><trkpt lat="43.12604119391444" lon="10.619847391665798"><ele>457.16666666666663</ele><time>2026-04-04T08:16:17Z</time></trkpt><trkpt lat="43.12600528995402" lon="10.619759719802191"><ele>455.0</ele><time>2026-04-04T08:16:18Z</time></trkpt><trkpt lat="43.125932637760194" lon="10.619785782638992"><ele>455.0</ele><time>2026-04-04T08:16:19Z</time></trkpt><trkpt lat="43.12584335773323" lon="10.619743066223068"><ele>455.0</ele><time>2026-04-04T08:16:21Z</time></trkpt><trkpt lat="43.12579901360259" lon="10.61961967861198"><ele>455.0</ele><time>2026-04-04T08:16:24Z</time></trkpt><trkpt lat="43.12576610658597" lon="10.619471362632083"><ele>455.0</ele><time>2026-04-04T08:16:26Z</time></trkpt><trkpt lat="43.12577434407579" lon="10.6193425499228"><ele>455.0</ele><time>2026-04-04T08:16:28Z</time></trkpt><trkpt lat="43.12581828847667" lon="10.619252700810915"><ele>453.2</ele><time>2026-04-04T08:16:30Z</time></trkpt><trkpt lat="43.12586148000189" lon="10.619100332802521"><ele>451.4</ele><time>2026-04-04T08:16:32Z</time></trkpt><trkpt lat="43.12587423826123" lon="10.619009186785377"><ele>449.6</ele><time>2026-04-04T08:16:33Z</time></trkpt><trkpt lat="43.12588478120299" lon="10.618857583230039"><ele>447.8</ele><time>2026-04-04T08:16:34.999Z</time></trkpt><trkpt lat="43.125861475933135" lon="10.618753133254437"><ele>446.0</ele><time>2026-04-04T08:16:35.999Z</time></trkpt><trkpt lat="43.12584065987681" lon="10.618645542777465"><ele>445.66666666666663</ele><time>2026-04-04T08:16:36.999Z</time></trkpt><trkpt lat="43.1258450908461" lon="10.618529605260788"><ele>445.3333333333333</ele><time>2026-04-04T08:16:37.999Z</time></trkpt><trkpt lat="43.12587510621992" lon="10.618416179309955"><ele>445.0</ele><time>2026-04-04T08:16:38.999Z</time></trkpt><trkpt lat="43.12588824732931" lon="10.61830521466887"><ele>444.66666666666663</ele><time>2026-04-04T08:16:39.999Z</time></trkpt><trkpt lat="43.125899198864055" lon="10.618218638478908"><ele>444.3333333333333</ele><time>2026-04-04T08:16:40.999Z</time></trkpt><trkpt lat="43.12593985869492" lon="10.618091443289359"><ele>444.0</ele><time>2026-04-04T08:16:42.999Z</time></trkpt><trkpt lat="43.125993787068154" lon="10.617970115391175"><ele>444.0</ele><time>2026-04-04T08:16:44.999Z</time></trkpt><trkpt lat="43.12601955206781" lon="10.61788348685283"><ele>444.0</ele><time>2026-04-04T08:16:45.999Z</time></trkpt><trkpt lat="43.12604066733828" lon="10.617699903273033"><ele>444.0</ele><time>2026-04-04T08:16:47.999Z</time></trkpt><trkpt lat="43.12606270571769" lon="10.617597613255999"><ele>444.0</ele><time>2026-04-04T08:16:48.999Z</time></trkpt><trkpt lat="43.12608159864475" lon="10.617485742531828"><ele>444.0</ele><time>2026-04-04T08:16:49.999Z</time></trkpt><trkpt lat="43.12611935101761" lon="10.617398237196715"><ele>444.0</ele><time>2026-04-04T08:16:50.999Z</time></trkpt><trkpt lat="43.126145190058175" lon="10.617316153626254"><ele>444.0</ele><time>2026-04-04T08:16:51.999Z</time></trkpt><trkpt lat="43.12618686289594" lon="10.617221096769788"><ele>444.0</ele><time>2026-04-04T08:16:52.999Z</time></trkpt><trkpt lat="43.12621667894626" lon="10.61711259804873"><ele>444.0</ele><time>2026-04-04T08:16:53.999Z</time></trkpt><trkpt lat="43.126228365647336" lon="10.6170138816275"><ele>444.0</ele><time>2026-04-04T08:16:54.999Z</time></trkpt><trkpt lat="43.12623067004182" lon="10.616901569562662"><ele>444.0</ele><time>2026-04-04T08:16:56.999Z</time></trkpt><trkpt lat="43.126233793331416" lon="10.616815179033788"><ele>444.0</ele><time>2026-04-04T08:16:57.999Z</time></trkpt><trkpt lat="43.12624580292619" lon="10.616712699181205"><ele>444.0</ele><time>2026-04-04T08:16:58.999Z</time></trkpt><trkpt lat="43.12626557508743" lon="10.616610492706277"><ele>444.0</ele><time>2026-04-04T08:16:59.999Z</time></trkpt><trkpt lat="43.12624762140825" lon="10.61651415315187"><ele>444.0</ele><time>2026-04-04T08:17:00.999Z</time></trkpt><trkpt lat="43.12621344506973" lon="10.61642401321421"><ele>444.0</ele><time>2026-04-04T08:17:02.999Z</time></trkpt><trkpt lat="43.12620103242832" lon="10.616305647228284"><ele>444.0</ele><time>2026-04-04T08:17:03.999Z</time></trkpt><trkpt lat="43.12618342781458" lon="10.6161972172781"><ele>444.0</ele><time>2026-04-04T08:17:04.999Z</time></trkpt><trkpt lat="43.12615739738133" lon="10.616054067910806"><ele>443.0</ele><time>2026-04-04T08:17:05.999Z</time></trkpt><trkpt lat="43.12613017086238" lon="10.615912280574786"><ele>442.0</ele><time>2026-04-04T08:17:06.999Z</time></trkpt><trkpt lat="43.1261122588662" lon="10.615800758211465"><ele>441.0</ele><time>2026-04-04T08:17:07.999Z</time></trkpt><trkpt lat="43.12606418536923" lon="10.615662219099926"><ele>440.0</ele><time>2026-04-04T08:17:08.999Z</time></trkpt><trkpt lat="43.12607149524329" lon="10.615534373617741"><ele>439.0</ele><time>2026-04-04T08:17:09.999Z</time></trkpt><trkpt lat="43.12608677832097" lon="10.6154380199497"><ele>439.00000000000006</ele><time>2026-04-04T08:17:10.999Z</time></trkpt><trkpt lat="43.12610764762904" lon="10.615349784586433"><ele>439.0</ele><time>2026-04-04T08:17:11.999Z</time></trkpt><trkpt lat="43.126156842546656" lon="10.615245368334223"><ele>439.0</ele><time>2026-04-04T08:17:12.999Z</time></trkpt><trkpt lat="43.12620008962529" lon="10.615166997288217"><ele>439.0</ele><time>2026-04-04T08:17:13.999Z</time></trkpt><trkpt lat="43.126242581491574" lon="10.615068278415688"><ele>439.00000000000006</ele><time>2026-04-04T08:17:14.999Z</time></trkpt><trkpt lat="43.12627627783574" lon="10.614991022829226"><ele>439.0</ele><time>2026-04-04T08:17:15.999Z</time></trkpt><trkpt lat="43.1263225564597" lon="10.614861096515519"><ele>437.2</ele><time>2026-04-04T08:17:17.999Z</time></trkpt><trkpt lat="43.12633271673846" lon="10.614725456306592"><ele>435.4</ele><time>2026-04-04T08:17:19.999Z</time></trkpt><trkpt lat="43.126316048350425" lon="10.614642180400159"><ele>433.6</ele><time>2026-04-04T08:17:20.999Z</time></trkpt><trkpt lat="43.126302786335316" lon="10.614524448670036"><ele>431.8</ele><time>2026-04-04T08:17:22.999Z</time></trkpt><trkpt lat="43.12629216268416" lon="10.614378534541087"><ele>430.0</ele><time>2026-04-04T08:17:24.999Z</time></trkpt><trkpt lat="43.126229488355236" lon="10.61425199448741"><ele>428.1666666666667</ele><time>2026-04-04T08:17:26.999Z</time></trkpt><trkpt lat="43.12620319525016" lon="10.614167297203167"><ele>426.33333333333337</ele><time>2026-04-04T08:17:27.999Z</time></trkpt><trkpt lat="43.1261754102609" lon="10.614076887506123"><ele>424.5</ele><time>2026-04-04T08:17:28.998Z</time></trkpt><trkpt lat="43.12613282869898" lon="10.613992823091507"><ele>422.66666666666663</ele><time>2026-04-04T08:17:29.998Z</time></trkpt><trkpt lat="43.12613119114209" lon="10.613851879830245"><ele>420.8333333333333</ele><time>2026-04-04T08:17:31.998Z</time></trkpt><trkpt lat="43.12613865488137" lon="10.613693413628047"><ele>419.0</ele><time>2026-04-04T08:17:33.998Z</time></trkpt><trkpt lat="43.12616285663817" lon="10.613602746185924"><ele>417.99999999999994</ele><time>2026-04-04T08:17:34.998Z</time></trkpt><trkpt lat="43.12619286693151" lon="10.61346767525673"><ele>417.0</ele><time>2026-04-04T08:17:35.998Z</time></trkpt><trkpt lat="43.1262342779699" lon="10.613381678015681"><ele>416.0</ele><time>2026-04-04T08:17:36.998Z</time></trkpt><trkpt lat="43.12631043846104" lon="10.613319870969802"><ele>415.0</ele><time>2026-04-04T08:17:37.998Z</time></trkpt><trkpt lat="43.12635217198783" lon="10.613246799559883"><ele>413.99999999999994</ele><time>2026-04-04T08:17:38.998Z</time></trkpt><trkpt lat="43.12638761118698" lon="10.613168602981826"><ele>413.0</ele><time>2026-04-04T08:17:39.998Z</time></trkpt><trkpt lat="43.12645066455331" lon="10.613030539006996"><ele>412.99999999999994</ele><time>2026-04-04T08:17:41.998Z</time></trkpt><trkpt lat="43.12650466186227" lon="10.612908133359097"><ele>413.0</ele><time>2026-04-04T08:17:42.998Z</time></trkpt><trkpt lat="43.12653188853617" lon="10.612790558097604"><ele>413.0</ele><time>2026-04-04T08:17:43.998Z</time></trkpt><trkpt lat="43.126542648343836" lon="10.612679093903214"><ele>413.0</ele><time>2026-04-04T08:17:44.998Z</time></trkpt><trkpt lat="43.12659000672702" lon="10.612569127217178"><ele>412.99999999999994</ele><time>2026-04-04T08:17:45.998Z</time></trkpt><trkpt lat="43.12661767252267" lon="10.612468059624089"><ele>413.0</ele><time>2026-04-04T08:17:46.998Z</time></trkpt><trkpt lat="43.12662837940442" lon="10.612369635310761"><ele>409.4</ele><time>2026-04-04T08:17:47.998Z</time></trkpt><trkpt lat="43.12664202096332" lon="10.612271165064149"><ele>405.79999999999995</ele><time>2026-04-04T08:17:48.998Z</time></trkpt><trkpt lat="43.12664546578584" lon="10.612118460779971"><ele>402.2</ele><time>2026-04-04T08:17:51.998Z</time></trkpt><trkpt lat="43.12660157366456" lon="10.61204518292654"><ele>398.6</ele><time>2026-04-04T08:17:52.998Z</time></trkpt><trkpt lat="43.126540771475426" lon="10.61198760255222"><ele>395.0</ele><time>2026-04-04T08:17:53.998Z</time></trkpt><trkpt lat="43.12643064721147" lon="10.611855061489255"><ele>394.99999999999994</ele><time>2026-04-04T08:17:55.998Z</time></trkpt><trkpt lat="43.12640308261592" lon="10.6117731525278"><ele>395.0</ele><time>2026-04-04T08:17:57Z</time></trkpt><trkpt lat="43.126380945832466" lon="10.611681053707628"><ele>395.0</ele><time>2026-04-04T08:17:58Z</time></trkpt><trkpt lat="43.126347280417534" lon="10.611569818126771"><ele>395.0</ele><time>2026-04-04T08:17:59Z</time></trkpt><trkpt lat="43.126305190841315" lon="10.61140068088345"><ele>394.99999999999994</ele><time>2026-04-04T08:18:01Z</time></trkpt><trkpt lat="43.126296250686316" lon="10.611293763942825"><ele>395.0</ele><time>2026-04-04T08:18:02Z</time></trkpt><trkpt lat="43.12624446059327" lon="10.611220343915198"><ele>392.6</ele><time>2026-04-04T08:18:03Z</time></trkpt><trkpt lat="43.12621871629278" lon="10.611114304069304"><ele>390.2</ele><time>2026-04-04T08:18:04Z</time></trkpt><trkpt lat="43.12613834910854" lon="10.61096964769848"><ele>387.79999999999995</ele><time>2026-04-04T08:18:06Z</time></trkpt><trkpt lat="43.126068180449785" lon="10.610918464167819"><ele>385.4</ele><time>2026-04-04T08:18:07Z</time></trkpt><trkpt lat="43.12599983159435" lon="10.61084790547471"><ele>383.0</ele><time>2026-04-04T08:18:09Z</time></trkpt><trkpt lat="43.125934683516974" lon="10.610779674211091"><ele>383.0</ele><time>2026-04-04T08:18:11Z</time></trkpt><trkpt lat="43.12586765825479" lon="10.610734597589127"><ele>383.0</ele><time>2026-04-04T08:18:14Z</time></trkpt><trkpt lat="43.12581969196373" lon="10.610674354285813"><ele>383.0</ele><time>2026-04-04T08:19:50.998Z</time></trkpt><trkpt lat="43.12573171027538" lon="10.610624009117574"><ele>383.0</ele><time>2026-04-04T08:19:54.998Z</time></trkpt><trkpt lat="43.12566843631421" lon="10.610615910942343"><ele>383.0</ele><time>2026-04-04T08:19:55.998Z</time></trkpt><trkpt lat="43.12559560043761" lon="10.610622742787559"><ele>383.0</ele><time>2026-04-04T08:19:56.998Z</time></trkpt><trkpt lat="43.12551737675711" lon="10.610643555331709"><ele>382.5</ele><time>2026-04-04T08:19:57.998Z</time></trkpt><trkpt lat="43.1254509512385" lon="10.610653950456502"><ele>382.0</ele><time>2026-04-04T08:19:58.998Z</time></trkpt><trkpt lat="43.1253848333764" lon="10.61067584841055"><ele>381.5</ele><time>2026-04-04T08:19:59.998Z</time></trkpt><trkpt lat="43.12530812260471" lon="10.610660834367692"><ele>381.0</ele><time>2026-04-04T08:20:00.998Z</time></trkpt><trkpt lat="43.125229963361114" lon="10.610651996241252"><ele>380.5</ele><time>2026-04-04T08:20:01.998Z</time></trkpt><trkpt lat="43.12511473524545" lon="10.61068098572786"><ele>380.0</ele><time>2026-04-04T08:20:04Z</time></trkpt><trkpt lat="43.12502746646746" lon="10.610668005318049"><ele>380.0</ele><time>2026-04-04T08:20:05Z</time></trkpt><trkpt lat="43.1249514752242" lon="10.610653210995897"><ele>380.0</ele><time>2026-04-04T08:20:06Z</time></trkpt><trkpt lat="43.12486111083086" lon="10.610632453486389"><ele>380.0</ele><time>2026-04-04T08:20:07Z</time></trkpt><trkpt lat="43.12472434040884" lon="10.610623606629506"><ele>380.0</ele><time>2026-04-04T08:20:08Z</time></trkpt><trkpt lat="43.124591350955654" lon="10.610623888435681"><ele>380.0</ele><time>2026-04-04T08:20:09Z</time></trkpt><trkpt lat="43.12448070265775" lon="10.610649845508702"><ele>380.0</ele><time>2026-04-04T08:20:10Z</time></trkpt><trkpt lat="43.12439510709669" lon="10.610633219978986"><ele>380.0</ele><time>2026-04-04T08:20:11Z</time></trkpt><trkpt lat="43.124326767328824" lon="10.610584435299161"><ele>380.0</ele><time>2026-04-04T08:20:12Z</time></trkpt><trkpt lat="43.12426535634126" lon="10.610519347589502"><ele>380.0</ele><time>2026-04-04T08:20:13Z</time></trkpt><trkpt lat="43.124180743531696" lon="10.610439775937511"><ele>380.0</ele><time>2026-04-04T08:20:14Z</time></trkpt><trkpt lat="43.1241059992148" lon="10.610358174914492"><ele>380.0</ele><time>2026-04-04T08:20:15Z</time></trkpt><trkpt lat="43.124019612276" lon="10.6102081338511"><ele>376.83333333333337</ele><time>2026-04-04T08:20:17Z</time></trkpt><trkpt lat="43.12397499288788" lon="10.610110549637028"><ele>373.6666666666667</ele><time>2026-04-04T08:20:18Z</time></trkpt><trkpt lat="43.12394157520136" lon="10.609993802959861"><ele>370.5</ele><time>2026-04-04T08:20:19Z</time></trkpt><trkpt lat="43.12392523103113" lon="10.60989317639989"><ele>367.3333333333333</ele><time>2026-04-04T08:20:20Z</time></trkpt><trkpt lat="43.12390119061756" lon="10.609808291437952"><ele>364.16666666666663</ele><time>2026-04-04T08:20:21Z</time></trkpt><trkpt lat="43.12389392018232" lon="10.609716036279266"><ele>361.0</ele><time>2026-04-04T08:20:22Z</time></trkpt><trkpt lat="43.123871860372034" lon="10.609590984498858"><ele>361.0</ele><time>2026-04-04T08:20:23Z</time></trkpt><trkpt lat="43.12383289432814" lon="10.609438751452956"><ele>361.0</ele><time>2026-04-04T08:20:24Z</time></trkpt><trkpt lat="43.123788974135095" lon="10.609344852255584"><ele>361.0</ele><time>2026-04-04T08:20:25Z</time></trkpt><trkpt lat="43.12372503704161" lon="10.609427780141633"><ele>361.0</ele><time>2026-04-04T08:20:34Z</time></trkpt><trkpt lat="43.12361430658214" lon="10.609534952578706"><ele>361.0</ele><time>2026-04-04T08:20:36Z</time></trkpt><trkpt lat="43.123564594424" lon="10.60961208632636"><ele>361.0</ele><time>2026-04-04T08:20:37Z</time></trkpt><trkpt lat="43.123474175802784" lon="10.609690797850085"><ele>361.0</ele><time>2026-04-04T08:20:39Z</time></trkpt><trkpt lat="43.12337372563178" lon="10.609645953835017"><ele>361.0</ele><time>2026-04-04T08:20:41Z</time></trkpt><trkpt lat="43.12330667118656" lon="10.60957918877009"><ele>361.0</ele><time>2026-04-04T08:20:42Z</time></trkpt><trkpt lat="43.12322690002528" lon="10.609545725548601"><ele>361.0</ele><time>2026-04-04T08:20:44Z</time></trkpt><trkpt lat="43.12317053279385" lon="10.609586121120566"><ele>361.0</ele><time>2026-04-04T08:20:45Z</time></trkpt><trkpt lat="43.12310829683038" lon="10.609601295123674"><ele>357.20000000000005</ele><time>2026-04-04T08:20:46Z</time></trkpt><trkpt lat="43.123043635267635" lon="10.609594068360739"><ele>353.40000000000003</ele><time>2026-04-04T08:20:46.999Z</time></trkpt><trkpt lat="43.122977939981205" lon="10.609562536610166"><ele>349.6</ele><time>2026-04-04T08:20:47.999Z</time></trkpt><trkpt lat="43.122855070448495" lon="10.609528773028629"><ele>345.8</ele><time>2026-04-04T08:20:49.999Z</time></trkpt><trkpt lat="43.12275782670219" lon="10.609518874139873"><ele>342.0</ele><time>2026-04-04T08:20:51.999Z</time></trkpt><trkpt lat="43.12265066430773" lon="10.609574648378858"><ele>342.0</ele><time>2026-04-04T08:20:53.999Z</time></trkpt><trkpt lat="43.122560161411045" lon="10.609626019342324"><ele>342.0</ele><time>2026-04-04T08:20:55.999Z</time></trkpt><trkpt lat="43.122505802600614" lon="10.609693112614574"><ele>342.0</ele><time>2026-04-04T08:20:57.999Z</time></trkpt><trkpt lat="43.12247609656159" lon="10.609817459297917"><ele>342.0</ele><time>2026-04-04T08:20:59.999Z</time></trkpt><trkpt lat="43.12242733396521" lon="10.609902503297555"><ele>342.0</ele><time>2026-04-04T08:21:01.999Z</time></trkpt><trkpt lat="43.12239804474907" lon="10.61000867578535"><ele>342.0</ele><time>2026-04-04T08:21:03.999Z</time></trkpt><trkpt lat="43.12233410347701" lon="10.610034223304734"><ele>341.40000000000003</ele><time>2026-04-04T08:21:07.999Z</time></trkpt><trkpt lat="43.12227649742111" lon="10.60997325369093"><ele>340.8</ele><time>2026-04-04T08:21:09.999Z</time></trkpt><trkpt lat="43.12221820072959" lon="10.609886407904826"><ele>340.2</ele><time>2026-04-04T08:21:11.999Z</time></trkpt><trkpt lat="43.12211779183262" lon="10.609814203195135"><ele>339.6</ele><time>2026-04-04T08:21:13.999Z</time></trkpt><trkpt lat="43.12200056518273" lon="10.60975672099118"><ele>339.0</ele><time>2026-04-04T08:21:15.999Z</time></trkpt><trkpt lat="43.121922828883626" lon="10.609703230240246"><ele>339.0</ele><time>2026-04-04T08:21:16.999Z</time></trkpt><trkpt lat="43.12185105858039" lon="10.60966384657942"><ele>339.0</ele><time>2026-04-04T08:21:17.999Z</time></trkpt><trkpt lat="43.121724081117826" lon="10.609561363290481"><ele>339.0</ele><time>2026-04-04T08:21:19.999Z</time></trkpt><trkpt lat="43.12164139853644" lon="10.609501255608567"><ele>339.0</ele><time>2026-04-04T08:21:20.999Z</time></trkpt><trkpt lat="43.121570887901406" lon="10.609446969418794"><ele>339.0</ele><time>2026-04-04T08:21:21.999Z</time></trkpt><trkpt lat="43.12146051124605" lon="10.609395785747347"><ele>336.1666666666667</ele><time>2026-04-04T08:21:23.999Z</time></trkpt><trkpt lat="43.12135257351484" lon="10.609413265616755"><ele>333.3333333333333</ele><time>2026-04-04T08:21:25.999Z</time></trkpt><trkpt lat="43.121277637437046" lon="10.609428963814969"><ele>330.5</ele><time>2026-04-04T08:21:26.999Z</time></trkpt><trkpt lat="43.12118210238279" lon="10.60949356377779"><ele>327.66666666666663</ele><time>2026-04-04T08:21:28.999Z</time></trkpt><trkpt lat="43.12113585391509" lon="10.609552475977289"><ele>324.8333333333333</ele><time>2026-04-04T08:21:29.999Z</time></trkpt><trkpt lat="43.121094557176484" lon="10.609629532237486"><ele>322.0</ele><time>2026-04-04T08:21:30.999Z</time></trkpt><trkpt lat="43.12106458729907" lon="10.609709794068777"><ele>322.0</ele><time>2026-04-04T08:21:31.999Z</time></trkpt><trkpt lat="43.121033352404126" lon="10.60978738972455"><ele>322.0</ele><time>2026-04-04T08:21:32.999Z</time></trkpt><trkpt lat="43.12099965524296" lon="10.609866076081936"><ele>322.0</ele><time>2026-04-04T08:21:33.999Z</time></trkpt><trkpt lat="43.12096130697213" lon="10.609948887428184"><ele>322.0</ele><time>2026-04-04T08:21:34.999Z</time></trkpt><trkpt lat="43.12087642288646" lon="10.610094720040069"><ele>322.0</ele><time>2026-04-04T08:21:36.999Z</time></trkpt><trkpt lat="43.12083858041994" lon="10.610203149162109"><ele>322.0</ele><time>2026-04-04T08:21:37.999Z</time></trkpt><trkpt lat="43.1208175411968" lon="10.61029463278008"><ele>322.66666666666663</ele><time>2026-04-04T08:21:38.999Z</time></trkpt><trkpt lat="43.120816568694934" lon="10.61041423547832"><ele>323.3333333333333</ele><time>2026-04-04T08:21:40.999Z</time></trkpt><trkpt lat="43.12078565951761" lon="10.610520878167147"><ele>324.0</ele><time>2026-04-04T08:21:41.998Z</time></trkpt><trkpt lat="43.12076161864693" lon="10.610641481554081"><ele>324.6666666666667</ele><time>2026-04-04T08:21:42.998Z</time></trkpt><trkpt lat="43.120712043145055" lon="10.610718159695805"><ele>325.33333333333337</ele><time>2026-04-04T08:21:43.998Z</time></trkpt><trkpt lat="43.12066016593916" lon="10.610789744906702"><ele>326.0</ele><time>2026-04-04T08:21:44.998Z</time></trkpt><trkpt lat="43.12056203516499" lon="10.61085496569338"><ele>327.0</ele><time>2026-04-04T08:21:46.998Z</time></trkpt><trkpt lat="43.120464356425224" lon="10.61092633192482"><ele>328.0</ele><time>2026-04-04T08:21:48.998Z</time></trkpt><trkpt lat="43.120405066519844" lon="10.610890654988198"><ele>329.0</ele><time>2026-04-04T08:21:50.998Z</time></trkpt><trkpt lat="43.12037735514565" lon="10.610741195617015"><ele>330.0</ele><time>2026-04-04T08:21:52.998Z</time></trkpt><trkpt lat="43.12036050804312" lon="10.6106476330707"><ele>331.0</ele><time>2026-04-04T08:21:53.998Z</time></trkpt><trkpt lat="43.12034999503325" lon="10.610557844975194"><ele>332.0</ele><time>2026-04-04T08:21:54.998Z</time></trkpt><trkpt lat="43.120364478603044" lon="10.610458914179363"><ele>332.0</ele><time>2026-04-04T08:21:55.998Z</time></trkpt><trkpt lat="43.12034837972243" lon="10.610359645312677"><ele>332.0</ele><time>2026-04-04T08:21:56.998Z</time></trkpt><trkpt lat="43.120331457428" lon="10.610243810518474"><ele>332.0</ele><time>2026-04-04T08:21:57.998Z</time></trkpt><trkpt lat="43.12032155840881" lon="10.610109010774453"><ele>332.0</ele><time>2026-04-04T08:21:59.998Z</time></trkpt><trkpt lat="43.12022200857288" lon="10.609997765189041"><ele>332.0</ele><time>2026-04-04T08:22:01.998Z</time></trkpt><trkpt lat="43.120149827554435" lon="10.609930504894042"><ele>330.1428571428571</ele><time>2026-04-04T08:22:02.998Z</time></trkpt><trkpt lat="43.120085034459976" lon="10.609860079145838"><ele>328.28571428571433</ele><time>2026-04-04T08:22:03.998Z</time></trkpt><trkpt lat="43.12001721814248" lon="10.609821895141414"><ele>326.42857142857144</ele><time>2026-04-04T08:22:04.998Z</time></trkpt><trkpt lat="43.11997279954196" lon="10.609744930931262"><ele>324.57142857142856</ele><time>2026-04-04T08:22:05.998Z</time></trkpt><trkpt lat="43.11997192837536" lon="10.609657243641992"><ele>322.71428571428567</ele><time>2026-04-04T08:22:06.998Z</time></trkpt><trkpt lat="43.119969157093884" lon="10.609556057156842"><ele>320.8571428571429</ele><time>2026-04-04T08:22:07.998Z</time></trkpt><trkpt lat="43.119959814939186" lon="10.609467371309329"><ele>319.0</ele><time>2026-04-04T08:22:09Z</time></trkpt><trkpt lat="43.11994265828932" lon="10.609362492090881"><ele>317.66666666666663</ele><time>2026-04-04T08:22:10Z</time></trkpt><trkpt lat="43.11992049693495" lon="10.609256331606575"><ele>316.3333333333333</ele><time>2026-04-04T08:22:12Z</time></trkpt><trkpt lat="43.119906711871195" lon="10.609165787540078"><ele>315.0</ele><time>2026-04-04T08:22:14Z</time></trkpt><trkpt lat="43.11985765957102" lon="10.60908487719525"><ele>313.6666666666667</ele><time>2026-04-04T08:22:15Z</time></trkpt><trkpt lat="43.11981075034046" lon="10.60897305314876"><ele>312.33333333333337</ele><time>2026-04-04T08:22:16Z</time></trkpt><trkpt lat="43.119741491150855" lon="10.608890044488358"><ele>311.0</ele><time>2026-04-04T08:22:18Z</time></trkpt><trkpt lat="43.1197051629356" lon="10.60901475231249"><ele>310.83333333333337</ele><time>2026-04-04T08:22:21Z</time></trkpt><trkpt lat="43.11971853166366" lon="10.609124163799626"><ele>310.6666666666667</ele><time>2026-04-04T08:22:22Z</time></trkpt><trkpt lat="43.11971333288989" lon="10.609231737404734"><ele>310.5</ele><time>2026-04-04T08:22:23Z</time></trkpt><trkpt lat="43.11969074383674" lon="10.609318496616742"><ele>310.3333333333333</ele><time>2026-04-04T08:22:24Z</time></trkpt><trkpt lat="43.11964529809458" lon="10.609396051964662"><ele>310.16666666666663</ele><time>2026-04-04T08:22:25Z</time></trkpt><trkpt lat="43.11957561395515" lon="10.609457590862739"><ele>310.0</ele><time>2026-04-04T08:22:26Z</time></trkpt><trkpt lat="43.11949755377953" lon="10.609522851861183"><ele>311.8</ele><time>2026-04-04T08:22:27Z</time></trkpt><trkpt lat="43.119447261211654" lon="10.609615774081128"><ele>313.6</ele><time>2026-04-04T08:22:28Z</time></trkpt><trkpt lat="43.119402491123346" lon="10.609803049025524"><ele>315.4</ele><time>2026-04-04T08:22:30Z</time></trkpt><trkpt lat="43.11937287440246" lon="10.609916505222607"><ele>317.2</ele><time>2026-04-04T08:22:31Z</time></trkpt><trkpt lat="43.119354664793434" lon="10.610007314282859"><ele>319.0</ele><time>2026-04-04T08:22:32Z</time></trkpt><trkpt lat="43.119312089123696" lon="10.610167299037569"><ele>319.0</ele><time>2026-04-04T08:22:34Z</time></trkpt><trkpt lat="43.11927027208574" lon="10.610234228455521"><ele>319.0</ele><time>2026-04-04T08:22:35Z</time></trkpt><trkpt lat="43.11922579041973" lon="10.610298528343915"><ele>319.0</ele><time>2026-04-04T08:22:36Z</time></trkpt><trkpt lat="43.11917717015238" lon="10.610360137364006"><ele>319.0</ele><time>2026-04-04T08:22:37Z</time></trkpt><trkpt lat="43.11912426405614" lon="10.610407806597376"><ele>319.0</ele><time>2026-04-04T08:22:38Z</time></trkpt><trkpt lat="43.119063952461076" lon="10.610446067127096"><ele>319.0</ele><time>2026-04-04T08:22:39Z</time></trkpt><trkpt lat="43.11900482519781" lon="10.610483769487557"><ele>319.0</ele><time>2026-04-04T08:22:40Z</time></trkpt><trkpt lat="43.11889773041188" lon="10.61054742148694"><ele>318.8</ele><time>2026-04-04T08:22:42Z</time></trkpt><trkpt lat="43.118816175747675" lon="10.610656480917363"><ele>318.59999999999997</ele><time>2026-04-04T08:22:44Z</time></trkpt><trkpt lat="43.118761282010794" lon="10.61073280550977"><ele>318.4</ele><time>2026-04-04T08:22:45Z</time></trkpt><trkpt lat="43.118706164035835" lon="10.610778431733207"><ele>318.2</ele><time>2026-04-04T08:22:46Z</time></trkpt><trkpt lat="43.11864742212072" lon="10.610841406957777"><ele>318.0</ele><time>2026-04-04T08:22:47Z</time></trkpt><trkpt lat="43.11856124735927" lon="10.610977994899027"><ele>318.0</ele><time>2026-04-04T08:22:48.999Z</time></trkpt><trkpt lat="43.118508675430576" lon="10.611048415916647"><ele>318.0</ele><time>2026-04-04T08:22:49.999Z</time></trkpt><trkpt lat="43.118474067881806" lon="10.611130944140609"><ele>318.0</ele><time>2026-04-04T08:22:50.999Z</time></trkpt><trkpt lat="43.11844890030317" lon="10.611225003780039"><ele>318.0</ele><time>2026-04-04T08:22:51.999Z</time></trkpt><trkpt lat="43.11841962746504" lon="10.611311557322772"><ele>318.0</ele><time>2026-04-04T08:22:52.999Z</time></trkpt><trkpt lat="43.11839585976927" lon="10.61140635271241"><ele>318.0</ele><time>2026-04-04T08:22:53.999Z</time></trkpt><trkpt lat="43.11837303656309" lon="10.61154853763582"><ele>319.6666666666667</ele><time>2026-04-04T08:22:54.999Z</time></trkpt><trkpt lat="43.11834953373773" lon="10.611655722977229"><ele>321.3333333333333</ele><time>2026-04-04T08:22:55.999Z</time></trkpt><trkpt lat="43.118325152794114" lon="10.611750025755358"><ele>323.0</ele><time>2026-04-04T08:22:56.999Z</time></trkpt><trkpt lat="43.11828449460792" lon="10.611850568672367"><ele>324.66666666666663</ele><time>2026-04-04T08:22:57.999Z</time></trkpt><trkpt lat="43.11824204742905" lon="10.611955150727045"><ele>326.3333333333333</ele><time>2026-04-04T08:22:58.999Z</time></trkpt><trkpt lat="43.11819395414731" lon="10.612059805546977"><ele>328.0</ele><time>2026-04-04T08:22:59.999Z</time></trkpt><trkpt lat="43.11816461476487" lon="10.61214697840259"><ele>328.0</ele><time>2026-04-04T08:23:00.999Z</time></trkpt><trkpt lat="43.11812329862679" lon="10.612229994677854"><ele>328.0</ele><time>2026-04-04T08:23:01.999Z</time></trkpt><trkpt lat="43.11807769398139" lon="10.61233131535961"><ele>328.0</ele><time>2026-04-04T08:23:02.999Z</time></trkpt><trkpt lat="43.1180201968698" lon="10.612405000067696"><ele>328.0</ele><time>2026-04-04T08:23:03.999Z</time></trkpt><trkpt lat="43.11795776373801" lon="10.612504180753989"><ele>328.0</ele><time>2026-04-04T08:23:05.999Z</time></trkpt><trkpt lat="43.1178782772737" lon="10.612633408336539"><ele>328.0</ele><time>2026-04-04T08:23:07.999Z</time></trkpt><trkpt lat="43.117837124756015" lon="10.612700071594576"><ele>328.0</ele><time>2026-04-04T08:23:08.999Z</time></trkpt><trkpt lat="43.11775429478797" lon="10.612768257828423"><ele>328.0</ele><time>2026-04-04T08:23:10.999Z</time></trkpt><trkpt lat="43.11769374165801" lon="10.612861180633894"><ele>328.0</ele><time>2026-04-04T08:23:12.999Z</time></trkpt><trkpt lat="43.117690070612824" lon="10.613006115366801"><ele>328.0</ele><time>2026-04-04T08:23:14.999Z</time></trkpt><trkpt lat="43.117675502739274" lon="10.613108274723208"><ele>328.0</ele><time>2026-04-04T08:23:15.999Z</time></trkpt><trkpt lat="43.11765923128941" lon="10.613207569204045"><ele>329.3333333333333</ele><time>2026-04-04T08:23:16.999Z</time></trkpt><trkpt lat="43.11766413030143" lon="10.613312039938256"><ele>330.66666666666663</ele><time>2026-04-04T08:23:17.999Z</time></trkpt><trkpt lat="43.11767757966695" lon="10.613428501876331"><ele>332.0</ele><time>2026-04-04T08:23:18.999Z</time></trkpt><trkpt lat="43.11769530274324" lon="10.613514202152974"><ele>333.3333333333333</ele><time>2026-04-04T08:23:19.999Z</time></trkpt><trkpt lat="43.11770831600424" lon="10.61360015857544"><ele>334.6666666666667</ele><time>2026-04-04T08:23:20.999Z</time></trkpt><trkpt lat="43.11773268703662" lon="10.613702504069765"><ele>336.0</ele><time>2026-04-04T08:23:21.999Z</time></trkpt><trkpt lat="43.11775203670547" lon="10.613810740203474"><ele>336.0</ele><time>2026-04-04T08:23:22.999Z</time></trkpt><trkpt lat="43.11778014488938" lon="10.613899916539793"><ele>336.0</ele><time>2026-04-04T08:23:23.999Z</time></trkpt><trkpt lat="43.11780138648237" lon="10.614007572037101"><ele>336.0</ele><time>2026-04-04T08:23:24.999Z</time></trkpt><trkpt lat="43.11782323198845" lon="10.614104133663098"><ele>336.0</ele><time>2026-04-04T08:23:25.999Z</time></trkpt><trkpt lat="43.11783676397619" lon="10.61419549950509"><ele>336.0</ele><time>2026-04-04T08:23:26.999Z</time></trkpt><trkpt lat="43.11782455771406" lon="10.614318201604158"><ele>336.0</ele><time>2026-04-04T08:23:27.999Z</time></trkpt><trkpt lat="43.11782292933032" lon="10.61444445067276"><ele>334.0</ele><time>2026-04-04T08:23:28.999Z</time></trkpt><trkpt lat="43.11784291558903" lon="10.614530990435476"><ele>332.0</ele><time>2026-04-04T08:23:29.999Z</time></trkpt><trkpt lat="43.117870878485576" lon="10.614717931528618"><ele>330.0</ele><time>2026-04-04T08:23:31.999Z</time></trkpt><trkpt lat="43.11788112779483" lon="10.614805944853899"><ele>328.0</ele><time>2026-04-04T08:23:32.999Z</time></trkpt><trkpt lat="43.11791335067329" lon="10.61488531288945"><ele>326.0</ele><time>2026-04-04T08:23:33.999Z</time></trkpt><trkpt lat="43.11800203601286" lon="10.614957966808685"><ele>324.0</ele><time>2026-04-04T08:23:34.999Z</time></trkpt><trkpt lat="43.11806150906052" lon="10.615016554132124"><ele>324.0</ele><time>2026-04-04T08:23:35.999Z</time></trkpt><trkpt lat="43.1181222431084" lon="10.615106279991757"><ele>324.0</ele><time>2026-04-04T08:23:37.999Z</time></trkpt><trkpt lat="43.11814948238119" lon="10.615207051336544"><ele>324.0</ele><time>2026-04-04T08:23:38.999Z</time></trkpt><trkpt lat="43.11816745167884" lon="10.615322015506374"><ele>324.0</ele><time>2026-04-04T08:23:39.999Z</time></trkpt><trkpt lat="43.11821072005835" lon="10.615415670461537"><ele>324.0</ele><time>2026-04-04T08:23:40.999Z</time></trkpt><trkpt lat="43.11828527225532" lon="10.615519751827987"><ele>324.0</ele><time>2026-04-04T08:23:41.999Z</time></trkpt><trkpt lat="43.11829695987997" lon="10.615659207381164"><ele>325.6</ele><time>2026-04-04T08:23:43.998Z</time></trkpt><trkpt lat="43.118266881699775" lon="10.615792469494465"><ele>327.2</ele><time>2026-04-04T08:23:44.998Z</time></trkpt><trkpt lat="43.11826512781356" lon="10.61588814375745"><ele>328.8</ele><time>2026-04-04T08:23:45.998Z</time></trkpt><trkpt lat="43.11828786159254" lon="10.616077974081634"><ele>330.40000000000003</ele><time>2026-04-04T08:23:47.998Z</time></trkpt><trkpt lat="43.118345126685554" lon="10.616162386499338"><ele>332.0</ele><time>2026-04-04T08:23:48.998Z</time></trkpt><trkpt lat="43.118367413137925" lon="10.616291859940583"><ele>332.0</ele><time>2026-04-04T08:23:49.998Z</time></trkpt><trkpt lat="43.118435369089504" lon="10.616391124711928"><ele>332.0</ele><time>2026-04-04T08:23:50.998Z</time></trkpt><trkpt lat="43.11846931376677" lon="10.61648268177717"><ele>332.0</ele><time>2026-04-04T08:23:51.998Z</time></trkpt><trkpt lat="43.11850925721808" lon="10.61655643276845"><ele>332.0</ele><time>2026-04-04T08:23:52.998Z</time></trkpt><trkpt lat="43.11856961651097" lon="10.61662875920496"><ele>332.0</ele><time>2026-04-04T08:23:53.998Z</time></trkpt><trkpt lat="43.118625511631585" lon="10.616689341359429"><ele>332.0</ele><time>2026-04-04T08:23:55.998Z</time></trkpt><trkpt lat="43.118692966503374" lon="10.616706694599399"><ele>332.0</ele><time>2026-04-04T08:23:56.998Z</time></trkpt><trkpt lat="43.11882104340591" lon="10.61669369636633"><ele>332.0</ele><time>2026-04-04T08:23:58.998Z</time></trkpt><trkpt lat="43.118883423087205" lon="10.616789256997189"><ele>332.0</ele><time>2026-04-04T08:24:00.998Z</time></trkpt><trkpt lat="43.118903117928305" lon="10.616873075475652"><ele>332.0</ele><time>2026-04-04T08:24:01.998Z</time></trkpt><trkpt lat="43.11886568765155" lon="10.616998414136434"><ele>332.0</ele><time>2026-04-04T08:24:02.998Z</time></trkpt><trkpt lat="43.11887035860086" lon="10.617096751013849"><ele>328.0</ele><time>2026-04-04T08:24:03.998Z</time></trkpt><trkpt lat="43.118893254025316" lon="10.617188929517905"><ele>324.0</ele><time>2026-04-04T08:24:04.998Z</time></trkpt><trkpt lat="43.11896322905561" lon="10.617404829549162"><ele>320.0</ele><time>2026-04-04T08:24:06.998Z</time></trkpt><trkpt lat="43.11899427928824" lon="10.61756631183614"><ele>316.0</ele><time>2026-04-04T08:24:07.998Z</time></trkpt><trkpt lat="43.118992087152" lon="10.617713638514653"><ele>317.3333333333333</ele><time>2026-04-04T08:24:08.998Z</time></trkpt><trkpt lat="43.118989506485086" lon="10.617819827077914"><ele>318.66666666666663</ele><time>2026-04-04T08:24:09.998Z</time></trkpt><trkpt lat="43.11899296030284" lon="10.61796179616855"><ele>320.0</ele><time>2026-04-04T08:24:11.998Z</time></trkpt><trkpt lat="43.11905860446547" lon="10.61803992"><ele>321.3333333333333</ele><time>2026-04-04T08:24:13.998Z</time></trkpt><trkpt lat="43.11905089221988" lon="10.618138232154964"><ele>322.6666666666667</ele><time>2026-04-04T08:24:15Z</time></trkpt><trkpt lat="43.11904813600147" lon="10.618229048612953"><ele>324.0</ele><time>2026-04-04T08:24:16Z</time></trkpt><trkpt lat="43.119081830001925" lon="10.618330853812644"><ele>329.5</ele><time>2026-04-04T08:24:17Z</time></trkpt><trkpt lat="43.11910559934564" lon="10.618447768803593"><ele>335.0</ele><time>2026-04-04T08:24:18Z</time></trkpt><trkpt lat="43.11912273888128" lon="10.618541365215505"><ele>340.5</ele><time>2026-04-04T08:24:19Z</time></trkpt><trkpt lat="43.119136093032864" lon="10.618660419981905"><ele>346.0</ele><time>2026-04-04T08:24:20Z</time></trkpt><trkpt lat="43.11915048200548" lon="10.618801241960835"><ele>351.5</ele><time>2026-04-04T08:24:21Z</time></trkpt><trkpt lat="43.11913211783868" lon="10.618928973627503"><ele>357.0</ele><time>2026-04-04T08:24:22Z</time></trkpt><trkpt lat="43.1191294533062" lon="10.619022107998292"><ele>357.6</ele><time>2026-04-04T08:24:23Z</time></trkpt><trkpt lat="43.11916927961279" lon="10.619124158513111"><ele>358.20000000000005</ele><time>2026-04-04T08:24:25Z</time></trkpt><trkpt lat="43.11925126123743" lon="10.619164228896897"><ele>358.8</ele><time>2026-04-04T08:24:27Z</time></trkpt><trkpt lat="43.11932195501968" lon="10.619170820854912"><ele>359.4</ele><time>2026-04-04T08:24:28Z</time></trkpt><trkpt lat="43.11938893390271" lon="10.619214816190656"><ele>360.0</ele><time>2026-04-04T08:24:29Z</time></trkpt><trkpt lat="43.11950328266023" lon="10.619337797352099"><ele>360.0</ele><time>2026-04-04T08:24:31Z</time></trkpt><trkpt lat="43.11954415117689" lon="10.619430714450129"><ele>360.0</ele><time>2026-04-04T08:24:32Z</time></trkpt><trkpt lat="43.119603538359556" lon="10.619533234599253"><ele>360.0</ele><time>2026-04-04T08:24:33Z</time></trkpt><trkpt lat="43.11968572508634" lon="10.619655262902636"><ele>360.0</ele><time>2026-04-04T08:24:35Z</time></trkpt><trkpt lat="43.11974977687304" lon="10.61980501651888"><ele>360.0</ele><time>2026-04-04T08:24:37Z</time></trkpt><trkpt lat="43.11982502625439" lon="10.619906101033822"><ele>360.8333333333333</ele><time>2026-04-04T08:24:38Z</time></trkpt><trkpt lat="43.11988869234792" lon="10.61997078436856"><ele>361.6666666666667</ele><time>2026-04-04T08:24:39Z</time></trkpt><trkpt lat="43.11993178694404" lon="10.62004743755991"><ele>362.5</ele><time>2026-04-04T08:24:40Z</time></trkpt><trkpt lat="43.11999692388487" lon="10.62013193316794"><ele>363.33333333333337</ele><time>2026-04-04T08:24:41Z</time></trkpt><trkpt lat="43.12010198848534" lon="10.620209943265161"><ele>364.1666666666667</ele><time>2026-04-04T08:24:43Z</time></trkpt><trkpt lat="43.120159745433064" lon="10.62026271066659"><ele>365.0</ele><time>2026-04-04T08:24:44Z</time></trkpt><trkpt lat="43.120176908615115" lon="10.620374170014209"><ele>365.0</ele><time>2026-04-04T08:24:46Z</time></trkpt><trkpt lat="43.12018003953031" lon="10.620492444831847"><ele>365.0</ele><time>2026-04-04T08:26:24Z</time></trkpt><trkpt lat="43.12013917276754" lon="10.620614597593708"><ele>365.0</ele><time>2026-04-04T08:26:26Z</time></trkpt><trkpt lat="43.12011067642308" lon="10.62074971190908"><ele>365.0</ele><time>2026-04-04T08:26:28Z</time></trkpt><trkpt lat="43.12011870565807" lon="10.620878060680043"><ele>365.0</ele><time>2026-04-04T08:26:30Z</time></trkpt><trkpt lat="43.120178480736506" lon="10.621017089038322"><ele>365.0</ele><time>2026-04-04T08:26:32Z</time></trkpt><trkpt lat="43.120231893118145" lon="10.621079022266054"><ele>365.0</ele><time>2026-04-04T08:26:33Z</time></trkpt><trkpt lat="43.1202177320171" lon="10.621188073569185"><ele>365.0</ele><time>2026-04-04T08:26:35Z</time></trkpt><trkpt lat="43.12011369634111" lon="10.62125278365557"><ele>365.0</ele><time>2026-04-04T08:26:37Z</time></trkpt><trkpt lat="43.12006989482764" lon="10.621350521199057"><ele>365.0</ele><time>2026-04-04T08:26:38Z</time></trkpt><trkpt lat="43.12003949242095" lon="10.62147240275345"><ele>365.0</ele><time>2026-04-04T08:26:39Z</time></trkpt><trkpt lat="43.12001219149724" lon="10.621596773329582"><ele>365.0</ele><time>2026-04-04T08:26:40Z</time></trkpt><trkpt lat="43.11998659660139" lon="10.621719682398071"><ele>365.0</ele><time>2026-04-04T08:26:41Z</time></trkpt><trkpt lat="43.11997377748744" lon="10.621831496105917"><ele>365.0</ele><time>2026-04-04T08:26:42Z</time></trkpt><trkpt lat="43.119959883898936" lon="10.621948696140548"><ele>365.0</ele><time>2026-04-04T08:26:43Z</time></trkpt><trkpt lat="43.11993321892184" lon="10.622055905641533"><ele>365.0</ele><time>2026-04-04T08:26:44Z</time></trkpt><trkpt lat="43.11991370380434" lon="10.622155476677333"><ele>365.0</ele><time>2026-04-04T08:26:45Z</time></trkpt><trkpt lat="43.11991256705212" lon="10.622269124904587"><ele>366.0</ele><time>2026-04-04T08:26:46Z</time></trkpt><trkpt lat="43.11993279879184" lon="10.622398844591045"><ele>367.0</ele><time>2026-04-04T08:26:47Z</time></trkpt><trkpt lat="43.11993811848994" lon="10.622488719932381"><ele>368.0</ele><time>2026-04-04T08:26:48Z</time></trkpt><trkpt lat="43.11994081818061" lon="10.622609097814493"><ele>369.0</ele><time>2026-04-04T08:26:49Z</time></trkpt><trkpt lat="43.119932689589604" lon="10.622712115384973"><ele>370.0</ele><time>2026-04-04T08:26:50Z</time></trkpt><trkpt lat="43.11992142462054" lon="10.622798202073607"><ele>371.0</ele><time>2026-04-04T08:26:51Z</time></trkpt><trkpt lat="43.11991629157148" lon="10.622912575540948"><ele>371.20000000000005</ele><time>2026-04-04T08:26:52Z</time></trkpt><trkpt lat="43.11993621197778" lon="10.623027301535057"><ele>371.40000000000003</ele><time>2026-04-04T08:26:53Z</time></trkpt><trkpt lat="43.11995582181211" lon="10.623115224523211"><ele>371.6</ele><time>2026-04-04T08:26:54Z</time></trkpt><trkpt lat="43.11989724332484" lon="10.623230016415118"><ele>371.8</ele><time>2026-04-04T08:26:56Z</time></trkpt><trkpt lat="43.119905903173844" lon="10.623429392732403"><ele>372.0</ele><time>2026-04-04T08:26:58Z</time></trkpt><trkpt lat="43.119900212794796" lon="10.623615168463079"><ele>370.40000000000003</ele><time>2026-04-04T08:26:59Z</time></trkpt><trkpt lat="43.11988894191101" lon="10.623730379140257"><ele>368.8</ele><time>2026-04-04T08:27:00Z</time></trkpt><trkpt lat="43.11988052523797" lon="10.623827311356628"><ele>367.2</ele><time>2026-04-04T08:27:01Z</time></trkpt><trkpt lat="43.119904070282765" lon="10.623959744851549"><ele>365.6</ele><time>2026-04-04T08:27:02.999Z</time></trkpt><trkpt lat="43.12000204128369" lon="10.624065396656333"><ele>364.0</ele><time>2026-04-04T08:27:04.999Z</time></trkpt><trkpt lat="43.12010440287817" lon="10.624134813686581"><ele>364.0</ele><time>2026-04-04T08:27:06.999Z</time></trkpt><trkpt lat="43.12015981861716" lon="10.624207344293602"><ele>364.0</ele><time>2026-04-04T08:27:07.999Z</time></trkpt><trkpt lat="43.1202186781385" lon="10.624255861654108"><ele>364.0</ele><time>2026-04-04T08:27:08.999Z</time></trkpt><trkpt lat="43.12027357823129" lon="10.624326019666746"><ele>364.0</ele><time>2026-04-04T08:27:09.999Z</time></trkpt><trkpt lat="43.12033245076803" lon="10.624373939213601"><ele>364.0</ele><time>2026-04-04T08:27:10.999Z</time></trkpt><trkpt lat="43.12040367726372" lon="10.624442147331989"><ele>364.0</ele><time>2026-04-04T08:27:11.999Z</time></trkpt><trkpt lat="43.12043476546344" lon="10.624520721482648"><ele>364.0</ele><time>2026-04-04T08:27:12.999Z</time></trkpt><trkpt lat="43.1204705733871" lon="10.624616455936918"><ele>363.3333333333333</ele><time>2026-04-04T08:27:13.999Z</time></trkpt><trkpt lat="43.1204923606448" lon="10.624726738265693"><ele>362.66666666666663</ele><time>2026-04-04T08:27:14.999Z</time></trkpt><trkpt lat="43.12053017739819" lon="10.62480768531435"><ele>362.0</ele><time>2026-04-04T08:27:16.999Z</time></trkpt><trkpt lat="43.1205731476535" lon="10.624895479911615"><ele>361.3333333333333</ele><time>2026-04-04T08:27:17.999Z</time></trkpt><trkpt lat="43.12063546275799" lon="10.624984783556751"><ele>360.6666666666667</ele><time>2026-04-04T08:27:18.999Z</time></trkpt><trkpt lat="43.12069948329392" lon="10.625038452942558"><ele>360.0</ele><time>2026-04-04T08:27:19.999Z</time></trkpt><trkpt lat="43.120761318055294" lon="10.625148833053128"><ele>360.0</ele><time>2026-04-04T08:27:21.999Z</time></trkpt><trkpt lat="43.120750814557326" lon="10.625243385320127"><ele>360.0</ele><time>2026-04-04T08:27:23.999Z</time></trkpt><trkpt lat="43.12068194140376" lon="10.625288290141574"><ele>360.0</ele><time>2026-04-04T08:27:25.999Z</time></trkpt><trkpt lat="43.120619409359925" lon="10.625249130256478"><ele>360.0</ele><time>2026-04-04T08:27:47.999Z</time></trkpt><trkpt lat="43.120480067765556" lon="10.62528279864344"><ele>360.0</ele><time>2026-04-04T08:27:49.999Z</time></trkpt><trkpt lat="43.1203983963196" lon="10.625318692330728"><ele>360.0</ele><time>2026-04-04T08:27:50.999Z</time></trkpt><trkpt lat="43.12034355794375" lon="10.625413731340746"><ele>363.8</ele><time>2026-04-04T08:27:51.999Z</time></trkpt><trkpt lat="43.12022429690639" lon="10.625476726376462"><ele>367.6</ele><time>2026-04-04T08:27:53.999Z</time></trkpt><trkpt lat="43.12010490894347" lon="10.625406644500188"><ele>371.4</ele><time>2026-04-04T08:27:55.998Z</time></trkpt><trkpt lat="43.12003878284952" lon="10.62542884191769"><ele>375.2</ele><time>2026-04-04T08:27:56.998Z</time></trkpt><trkpt lat="43.119970441866364" lon="10.625510691581841"><ele>379.0</ele><time>2026-04-04T08:27:57.998Z</time></trkpt><trkpt lat="43.11988962807327" lon="10.625539826908772"><ele>380.2</ele><time>2026-04-04T08:27:58.998Z</time></trkpt><trkpt lat="43.11981131500517" lon="10.625553854683654"><ele>381.4</ele><time>2026-04-04T08:27:59.998Z</time></trkpt><trkpt lat="43.1197321872757" lon="10.625615979851066"><ele>382.6</ele><time>2026-04-04T08:28:00.998Z</time></trkpt><trkpt lat="43.11961310144813" lon="10.625644467902795"><ele>383.8</ele><time>2026-04-04T08:28:01.998Z</time></trkpt><trkpt lat="43.11949684499953" lon="10.625686184538708"><ele>385.0</ele><time>2026-04-04T08:28:02.998Z</time></trkpt><trkpt lat="43.1194011146045" lon="10.625726898252555"><ele>385.00000000000006</ele><time>2026-04-04T08:28:03.998Z</time></trkpt><trkpt lat="43.11933569404704" lon="10.625733926404456"><ele>385.0</ele><time>2026-04-04T08:28:04.998Z</time></trkpt><trkpt lat="43.11923047003427" lon="10.625756295802294"><ele>385.0</ele><time>2026-04-04T08:28:06.998Z</time></trkpt><trkpt lat="43.11916145721977" lon="10.625686010393665"><ele>385.0</ele><time>2026-04-04T08:28:07.998Z</time></trkpt><trkpt lat="43.119097806324234" lon="10.625632778548182"><ele>385.00000000000006</ele><time>2026-04-04T08:28:08.998Z</time></trkpt><trkpt lat="43.11902355178621" lon="10.625613221919318"><ele>385.0</ele><time>2026-04-04T08:28:09.998Z</time></trkpt><trkpt lat="43.11896062704145" lon="10.625589568002571"><ele>386.33333333333337</ele><time>2026-04-04T08:28:10.998Z</time></trkpt><trkpt lat="43.11890466962909" lon="10.62553896202457"><ele>387.6666666666667</ele><time>2026-04-04T08:28:11.998Z</time></trkpt><trkpt lat="43.118819572957875" lon="10.625483194840166"><ele>389.0</ele><time>2026-04-04T08:28:12.998Z</time></trkpt><trkpt lat="43.11874710795909" lon="10.62541624350598"><ele>390.33333333333337</ele><time>2026-04-04T08:28:13.998Z</time></trkpt><trkpt lat="43.11866910830703" lon="10.625368862932358"><ele>391.6666666666667</ele><time>2026-04-04T08:28:14.998Z</time></trkpt><trkpt lat="43.11855939609432" lon="10.6253402649916"><ele>393.0</ele><time>2026-04-04T08:28:16.998Z</time></trkpt><trkpt lat="43.118452484645935" lon="10.625437451967414"><ele>393.0</ele><time>2026-04-04T08:28:18.998Z</time></trkpt><trkpt lat="43.11839232429381" lon="10.625499757277288"><ele>393.0</ele><time>2026-04-04T08:28:19.998Z</time></trkpt><trkpt lat="43.118339731544516" lon="10.625574810189628"><ele>393.0</ele><time>2026-04-04T08:28:20.998Z</time></trkpt><trkpt lat="43.118297601627496" lon="10.625641988842935"><ele>393.0</ele><time>2026-04-04T08:28:21.998Z</time></trkpt><trkpt lat="43.11821360354264" lon="10.625749796405254"><ele>393.0</ele><time>2026-04-04T08:28:23.998Z</time></trkpt><trkpt lat="43.11815650929222" lon="10.625820040657597"><ele>393.0</ele><time>2026-04-04T08:28:24.998Z</time></trkpt><trkpt lat="43.11809576754061" lon="10.625879163779524"><ele>392.4</ele><time>2026-04-04T08:28:25.998Z</time></trkpt><trkpt lat="43.118014774726355" lon="10.625988086421906"><ele>391.79999999999995</ele><time>2026-04-04T08:28:28Z</time></trkpt><trkpt lat="43.117982934745164" lon="10.626132403472488"><ele>391.2</ele><time>2026-04-04T08:28:30Z</time></trkpt><trkpt lat="43.11797230510086" lon="10.626248479390055"><ele>390.6</ele><time>2026-04-04T08:28:31Z</time></trkpt><trkpt lat="43.117965596145076" lon="10.626369761243232"><ele>390.0</ele><time>2026-04-04T08:28:32Z</time></trkpt><trkpt lat="43.117948422363604" lon="10.626553903157784"><ele>390.0</ele><time>2026-04-04T08:28:33Z</time></trkpt><trkpt lat="43.11791180597777" lon="10.62672383883357"><ele>390.0</ele><time>2026-04-04T08:28:34Z</time></trkpt><trkpt lat="43.11788804190146" lon="10.626864825181551"><ele>390.0</ele><time>2026-04-04T08:28:35Z</time></trkpt><trkpt lat="43.1178867208019" lon="10.626970314153262"><ele>390.0</ele><time>2026-04-04T08:28:36Z</time></trkpt><trkpt lat="43.11784637466093" lon="10.627078733887688"><ele>390.0</ele><time>2026-04-04T08:28:37Z</time></trkpt><trkpt lat="43.117782318458964" lon="10.627151179523288"><ele>390.0</ele><time>2026-04-04T08:28:39Z</time></trkpt><trkpt lat="43.11766171715798" lon="10.627102899366141"><ele>390.0</ele><time>2026-04-04T08:28:41Z</time></trkpt><trkpt lat="43.11758258857364" lon="10.627007880250943"><ele>390.0</ele><time>2026-04-04T08:28:42Z</time></trkpt><trkpt lat="43.117513030940295" lon="10.626929413379903"><ele>390.0</ele><time>2026-04-04T08:28:43Z</time></trkpt><trkpt lat="43.11744645095" lon="10.626879169425315"><ele>390.0</ele><time>2026-04-04T08:28:44Z</time></trkpt><trkpt lat="43.117394855718835" lon="10.626934134537528"><ele>390.0</ele><time>2026-04-04T08:28:45Z</time></trkpt><trkpt lat="43.117261208976764" lon="10.626976363582624"><ele>390.0</ele><time>2026-04-04T08:28:47Z</time></trkpt><trkpt lat="43.11717149732024" lon="10.626997502944928"><ele>390.0</ele><time>2026-04-04T08:28:48Z</time></trkpt><trkpt lat="43.117082242790396" lon="10.62702492391448"><ele>390.0</ele><time>2026-04-04T08:28:49Z</time></trkpt><trkpt lat="43.117014868353245" lon="10.627056745155826"><ele>390.0</ele><time>2026-04-04T08:28:50Z</time></trkpt><trkpt lat="43.116917930882344" lon="10.627067063256064"><ele>394.0</ele><time>2026-04-04T08:28:51Z</time></trkpt><trkpt lat="43.11685215319036" lon="10.6270769109017"><ele>398.0</ele><time>2026-04-04T08:28:52Z</time></trkpt><trkpt lat="43.116736643221905" lon="10.627202880341352"><ele>402.0</ele><time>2026-04-04T08:28:54Z</time></trkpt><trkpt lat="43.11662992471967" lon="10.627300591267785"><ele>406.0</ele><time>2026-04-04T08:28:56Z</time></trkpt><trkpt lat="43.1165543838365" lon="10.627283447253859"><ele>410.0</ele><time>2026-04-04T08:28:58Z</time></trkpt><trkpt lat="43.11649495007643" lon="10.627218737239348"><ele>411.6</ele><time>2026-04-04T08:28:59Z</time></trkpt><trkpt lat="43.11642347395914" lon="10.627126413285403"><ele>413.2</ele><time>2026-04-04T08:29:01Z</time></trkpt><trkpt lat="43.116369828117314" lon="10.626981130631243"><ele>414.79999999999995</ele><time>2026-04-04T08:29:03Z</time></trkpt><trkpt lat="43.11631884361966" lon="10.626878175795259"><ele>416.4</ele><time>2026-04-04T08:29:04Z</time></trkpt><trkpt lat="43.1162925916211" lon="10.62678181455074"><ele>418.0</ele><time>2026-04-04T08:29:05Z</time></trkpt><trkpt lat="43.116276641974935" lon="10.626683364899396"><ele>418.0</ele><time>2026-04-04T08:29:05.999Z</time></trkpt><trkpt lat="43.11626601494107" lon="10.626582250873659"><ele>418.0</ele><time>2026-04-04T08:29:06.999Z</time></trkpt><trkpt lat="43.116249496324315" lon="10.626494601157379"><ele>418.0</ele><time>2026-04-04T08:29:10.999Z</time></trkpt><trkpt lat="43.116181033999744" lon="10.626412136674547"><ele>418.0</ele><time>2026-04-04T08:29:11.999Z</time></trkpt><trkpt lat="43.116089276709964" lon="10.626369392200223"><ele>418.0</ele><time>2026-04-04T08:29:13.999Z</time></trkpt><trkpt lat="43.11597629781211" lon="10.626268763808302"><ele>418.0</ele><time>2026-04-04T08:29:15.999Z</time></trkpt><trkpt lat="43.11583820715403" lon="10.626242370222291"><ele>418.0</ele><time>2026-04-04T08:29:16.999Z</time></trkpt><trkpt lat="43.115730018367195" lon="10.626234214983954"><ele>418.0</ele><time>2026-04-04T08:29:17.999Z</time></trkpt><trkpt lat="43.115631950974134" lon="10.626231756690537"><ele>418.0</ele><time>2026-04-04T08:29:18.999Z</time></trkpt><trkpt lat="43.115542734768546" lon="10.626244518834367"><ele>418.0</ele><time>2026-04-04T08:29:19.999Z</time></trkpt><trkpt lat="43.11547908036776" lon="10.626234111190616"><ele>418.50000000000006</ele><time>2026-04-04T08:29:20.999Z</time></trkpt><trkpt lat="43.115410863438235" lon="10.626217944691877"><ele>419.0</ele><time>2026-04-04T08:29:21.999Z</time></trkpt><trkpt lat="43.11533581008182" lon="10.626218708866977"><ele>419.5</ele><time>2026-04-04T08:29:22.999Z</time></trkpt><trkpt lat="43.11526970507734" lon="10.626193920929495"><ele>420.0</ele><time>2026-04-04T08:29:23.999Z</time></trkpt><trkpt lat="43.11518103948167" lon="10.626059486540171"><ele>420.50000000000006</ele><time>2026-04-04T08:29:25.999Z</time></trkpt><trkpt lat="43.11514111371954" lon="10.625970452429904"><ele>421.0</ele><time>2026-04-04T08:29:26.999Z</time></trkpt><trkpt lat="43.11512037200747" lon="10.625812860332266"><ele>421.00000000000006</ele><time>2026-04-04T08:29:27.999Z</time></trkpt><trkpt lat="43.11511303596201" lon="10.625676452076332"><ele>421.0</ele><time>2026-04-04T08:29:28.999Z</time></trkpt><trkpt lat="43.11509611936453" lon="10.625577609182988"><ele>421.0</ele><time>2026-04-04T08:29:29.999Z</time></trkpt><trkpt lat="43.115068040165674" lon="10.62549306277863"><ele>421.0</ele><time>2026-04-04T08:29:30.999Z</time></trkpt><trkpt lat="43.115056146082985" lon="10.625355563522966"><ele>421.00000000000006</ele><time>2026-04-04T08:29:31.999Z</time></trkpt><trkpt lat="43.1150471312339" lon="10.625267653496667"><ele>421.0</ele><time>2026-04-04T08:29:32.999Z</time></trkpt><trkpt lat="43.115054498873604" lon="10.625159363288663"><ele>419.8</ele><time>2026-04-04T08:29:33.999Z</time></trkpt><trkpt lat="43.115028431475125" lon="10.625000033996049"><ele>418.6</ele><time>2026-04-04T08:29:34.999Z</time></trkpt><trkpt lat="43.11499787163681" lon="10.62486229357608"><ele>417.4</ele><time>2026-04-04T08:29:35.999Z</time></trkpt><trkpt lat="43.11492764979377" lon="10.6247932592539"><ele>416.2</ele><time>2026-04-04T08:29:37.999Z</time></trkpt><trkpt lat="43.11485914722432" lon="10.624717549258651"><ele>415.0</ele><time>2026-04-04T08:29:38.999Z</time></trkpt><trkpt lat="43.114807187932904" lon="10.624648917241458"><ele>419.6</ele><time>2026-04-04T08:29:39.999Z</time></trkpt><trkpt lat="43.11471183164899" lon="10.62452688324428"><ele>424.2</ele><time>2026-04-04T08:29:40.999Z</time></trkpt><trkpt lat="43.1146213421101" lon="10.624491085242987"><ele>428.79999999999995</ele><time>2026-04-04T08:29:41.999Z</time></trkpt><trkpt lat="43.11454149614731" lon="10.624547352414119"><ele>433.4</ele><time>2026-04-04T08:29:42.999Z</time></trkpt><trkpt lat="43.1144255902492" lon="10.62459622897924"><ele>438.0</ele><time>2026-04-04T08:29:43.999Z</time></trkpt><trkpt lat="43.11433411437171" lon="10.624631181831075"><ele>438.0</ele><time>2026-04-04T08:29:44.999Z</time></trkpt><trkpt lat="43.114247974423215" lon="10.624620487511788"><ele>437.99999999999994</ele><time>2026-04-04T08:29:45.999Z</time></trkpt><trkpt lat="43.11417397537109" lon="10.62459134722444"><ele>437.99999999999994</ele><time>2026-04-04T08:29:46.999Z</time></trkpt><trkpt lat="43.114115498133984" lon="10.624500286939687"><ele>438.0</ele><time>2026-04-04T08:29:47.999Z</time></trkpt><trkpt lat="43.1140481222535" lon="10.62442565352128"><ele>438.0</ele><time>2026-04-04T08:29:48.999Z</time></trkpt><trkpt lat="43.11394756104502" lon="10.62424715578806"><ele>438.0</ele><time>2026-04-04T08:29:50.999Z</time></trkpt><trkpt lat="43.11390442391817" lon="10.62412031752078"><ele>437.99999999999994</ele><time>2026-04-04T08:29:51.999Z</time></trkpt><trkpt lat="43.113839980896806" lon="10.624017801096159"><ele>437.99999999999994</ele><time>2026-04-04T08:29:52.999Z</time></trkpt><trkpt lat="43.113777853414085" lon="10.623971178300335"><ele>438.0</ele><time>2026-04-04T08:29:53.999Z</time></trkpt><trkpt lat="43.11366074415578" lon="10.62386012259836"><ele>438.0</ele><time>2026-04-04T08:29:55.999Z</time></trkpt><trkpt lat="43.11359710968095" lon="10.623741718655195"><ele>438.0</ele><time>2026-04-04T08:29:56.999Z</time></trkpt><trkpt lat="43.11350115195234" lon="10.623669514971168"><ele>437.99999999999994</ele><time>2026-04-04T08:29:57.999Z</time></trkpt><trkpt lat="43.11339051624999" lon="10.623539057349682"><ele>437.99999999999994</ele><time>2026-04-04T08:29:58.999Z</time></trkpt><trkpt lat="43.11332530203357" lon="10.623518210983418"><ele>438.0</ele><time>2026-04-04T08:29:59.998Z</time></trkpt><trkpt lat="43.1132501017922" lon="10.62350376627369"><ele>438.0</ele><time>2026-04-04T08:30:00.998Z</time></trkpt><trkpt lat="43.12640308261592" lon="10.6117731525278"><ele>430.8333333333333</ele><time>2026-04-04T08:17:57Z</time></trkpt><trkpt lat="43.126380945832466" lon="10.611681053707628"><ele>423.66666666666663</ele><time>2026-04-04T08:17:58Z</time></trkpt><trkpt lat="43.126347280417534" lon="10.611569818126771"><ele>416.5</ele><time>2026-04-04T08:17:59Z</time></trkpt><trkpt lat="43.126305190841315" lon="10.61140068088345"><ele>409.3333333333333</ele><time>2026-04-04T08:18:01Z</time></trkpt><trkpt lat="43.126296250686316" lon="10.611293763942825"><ele>402.16666666666663</ele><time>2026-04-04T08:18:02Z</time></trkpt><trkpt lat="43.12624446059327" lon="10.611220343915198"><ele>395.0</ele><time>2026-04-04T08:18:03Z</time></trkpt><trkpt lat="43.12621871629278" lon="10.611114304069304"><ele>392.6</ele><time>2026-04-04T08:18:04Z</time></trkpt><trkpt lat="43.12613834910854" lon="10.61096964769848"><ele>390.2</ele><time>2026-04-04T08:18:06Z</time></trkpt><trkpt lat="43.126068180449785" lon="10.610918464167819"><ele>387.79999999999995</ele><time>2026-04-04T08:18:07Z</time></trkpt><trkpt lat="43.12599983159435" lon="10.61084790547471"><ele>385.4</ele><time>2026-04-04T08:18:09Z</time></trkpt><trkpt lat="43.125934683516974" lon="10.610779674211091"><ele>383.0</ele><time>2026-04-04T08:18:11Z</time></trkpt><trkpt lat="43.12586765825479" lon="10.610734597589127"><ele>383.0</ele><time>2026-04-04T08:18:14Z</time></trkpt><trkpt lat="43.12581969196373" lon="10.610674354285813"><ele>383.0</ele><time>2026-04-04T08:19:50.998Z</time></trkpt><trkpt lat="43.12573171027538" lon="10.610624009117574"><ele>383.0</ele><time>2026-04-04T08:19:54.998Z</time></trkpt><trkpt lat="43.12566843631421" lon="10.610615910942343"><ele>383.0</ele><time>2026-04-04T08:19:55.998Z</time></trkpt><trkpt lat="43.12559560043761" lon="10.610622742787559"><ele>383.0</ele><time>2026-04-04T08:19:56.998Z</time></trkpt><trkpt lat="43.12551737675711" lon="10.610643555331709"><ele>383.0</ele><time>2026-04-04T08:19:57.998Z</time></trkpt><trkpt lat="43.1254509512385" lon="10.610653950456502"><ele>383.0</ele><time>2026-04-04T08:19:58.998Z</time></trkpt><trkpt lat="43.1253848333764" lon="10.61067584841055"><ele>382.5</ele><time>2026-04-04T08:19:59.998Z</time></trkpt><trkpt lat="43.12530812260471" lon="10.610660834367692"><ele>382.0</ele><time>2026-04-04T08:20:00.998Z</time></trkpt><trkpt lat="43.125229963361114" lon="10.610651996241252"><ele>381.5</ele><time>2026-04-04T08:20:01.998Z</time></trkpt><trkpt lat="43.12511473524545" lon="10.61068098572786"><ele>381.0</ele><time>2026-04-04T08:20:04Z</time></trkpt><trkpt lat="43.12502746646746" lon="10.610668005318049"><ele>380.5</ele><time>2026-04-04T08:20:05Z</time></trkpt><trkpt lat="43.1249514752242" lon="10.610653210995897"><ele>380.0</ele><time>2026-04-04T08:20:06Z</time></trkpt><trkpt lat="43.12486111083086" lon="10.610632453486389"><ele>380.0</ele><time>2026-04-04T08:20:07Z</time></trkpt><trkpt lat="43.12472434040884" lon="10.610623606629506"><ele>380.0</ele><time>2026-04-04T08:20:08Z</time></trkpt><trkpt lat="43.124591350955654" lon="10.610623888435681"><ele>380.0</ele><time>2026-04-04T08:20:09Z</time></trkpt><trkpt lat="43.12448070265775" lon="10.610649845508702"><ele>380.0</ele><time>2026-04-04T08:20:10Z</time></trkpt><trkpt lat="43.12439510709669" lon="10.610633219978986"><ele>380.0</ele><time>2026-04-04T08:20:11Z</time></trkpt><trkpt lat="43.124326767328824" lon="10.610584435299161"><ele>380.0</ele><time>2026-04-04T08:20:12Z</time></trkpt><trkpt lat="43.12426535634126" lon="10.610519347589502"><ele>380.0</ele><time>2026-04-04T08:20:13Z</time></trkpt><trkpt lat="43.124180743531696" lon="10.610439775937511"><ele>380.0</ele><time>2026-04-04T08:20:14Z</time></trkpt><trkpt lat="43.1241059992148" lon="10.610358174914492"><ele>380.0</ele><time>2026-04-04T08:20:15Z</time></trkpt><trkpt lat="43.124019612276" lon="10.6102081338511"><ele>376.83333333333337</ele><time>2026-04-04T08:20:17Z</time></trkpt><trkpt lat="43.12397499288788" lon="10.610110549637028"><ele>373.6666666666667</ele><time>2026-04-04T08:20:18Z</time></trkpt><trkpt lat="43.12394157520136" lon="10.609993802959861"><ele>370.5</ele><time>2026-04-04T08:20:19Z</time></trkpt><trkpt lat="43.12392523103113" lon="10.60989317639989"><ele>367.3333333333333</ele><time>2026-04-04T08:20:20Z</time></trkpt><trkpt lat="43.12390119061756" lon="10.609808291437952"><ele>364.16666666666663</ele><time>2026-04-04T08:20:21Z</time></trkpt><trkpt lat="43.12389392018232" lon="10.609716036279266"><ele>361.0</ele><time>2026-04-04T08:20:22Z</time></trkpt><trkpt lat="43.123871860372034" lon="10.609590984498858"><ele>361.0</ele><time>2026-04-04T08:20:23Z</time></trkpt><trkpt lat="43.12383289432814" lon="10.609438751452956"><ele>361.0</ele><time>2026-04-04T08:20:24Z</time></trkpt><trkpt lat="43.123788974135095" lon="10.609344852255584"><ele>361.0</ele><time>2026-04-04T08:20:25Z</time></trkpt><trkpt lat="43.12372503704161" lon="10.609427780141633"><ele>361.0</ele><time>2026-04-04T08:20:34Z</time></trkpt><trkpt lat="43.12361430658214" lon="10.609534952578706"><ele>361.0</ele><time>2026-04-04T08:20:36Z</time></trkpt><trkpt lat="43.123564594424" lon="10.60961208632636"><ele>361.0</ele><time>2026-04-04T08:20:37Z</time></trkpt><trkpt lat="43.123474175802784" lon="10.609690797850085"><ele>361.0</ele><time>2026-04-04T08:20:39Z</time></trkpt><trkpt lat="43.12337372563178" lon="10.609645953835017"><ele>361.0</ele><time>2026-04-04T08:20:41Z</time></trkpt><trkpt lat="43.12330667118656" lon="10.60957918877009"><ele>361.0</ele><time>2026-04-04T08:20:42Z</time></trkpt><trkpt lat="43.12322690002528" lon="10.609545725548601"><ele>361.0</ele><time>2026-04-04T08:20:44Z</time></trkpt><trkpt lat="43.12317053279385" lon="10.609586121120566"><ele>361.0</ele><time>2026-04-04T08:20:45Z</time></trkpt><trkpt lat="43.12310829683038" lon="10.609601295123674"><ele>357.20000000000005</ele><time>2026-04-04T08:20:46Z</time></trkpt><trkpt lat="43.123043635267635" lon="10.609594068360739"><ele>353.40000000000003</ele><time>2026-04-04T08:20:46.999Z</time></trkpt><trkpt lat="43.122977939981205" lon="10.609562536610166"><ele>349.6</ele><time>2026-04-04T08:20:47.999Z</time></trkpt><trkpt lat="43.122855070448495" lon="10.609528773028629"><ele>345.8</ele><time>2026-04-04T08:20:49.999Z</time></trkpt><trkpt lat="43.12275782670219" lon="10.609518874139873"><ele>342.0</ele><time>2026-04-04T08:20:51.999Z</time></trkpt><trkpt lat="43.12265066430773" lon="10.609574648378858"><ele>342.0</ele><time>2026-04-04T08:20:53.999Z</time></trkpt><trkpt lat="43.122560161411045" lon="10.609626019342324"><ele>342.0</ele><time>2026-04-04T08:20:55.999Z</time></trkpt><trkpt lat="43.122505802600614" lon="10.609693112614574"><ele>342.0</ele><time>2026-04-04T08:20:57.999Z</time></trkpt><trkpt lat="43.12247609656159" lon="10.609817459297917"><ele>342.0</ele><time>2026-04-04T08:20:59.999Z</time></trkpt><trkpt lat="43.12242733396521" lon="10.609902503297555"><ele>342.0</ele><time>2026-04-04T08:21:01.999Z</time></trkpt><trkpt lat="43.12239804474907" lon="10.61000867578535"><ele>342.0</ele><time>2026-04-04T08:21:03.999Z</time></trkpt><trkpt lat="43.12233410347701" lon="10.610034223304734"><ele>341.40000000000003</ele><time>2026-04-04T08:21:07.999Z</time></trkpt><trkpt lat="43.12227649742111" lon="10.60997325369093"><ele>340.8</ele><time>2026-04-04T08:21:09.999Z</time></trkpt><trkpt lat="43.12221820072959" lon="10.609886407904826"><ele>340.2</ele><time>2026-04-04T08:21:11.999Z</time></trkpt><trkpt lat="43.12211779183262" lon="10.609814203195135"><ele>339.6</ele><time>2026-04-04T08:21:13.999Z</time></trkpt><trkpt lat="43.12200056518273" lon="10.60975672099118"><ele>339.0</ele><time>2026-04-04T08:21:15.999Z</time></trkpt><trkpt lat="43.121922828883626" lon="10.609703230240246"><ele>339.0</ele><time>2026-04-04T08:21:16.999Z</time></trkpt><trkpt lat="43.12185105858039" lon="10.60966384657942"><ele>339.0</ele><time>2026-04-04T08:21:17.999Z</time></trkpt><trkpt lat="43.121724081117826" lon="10.609561363290481"><ele>339.0</ele><time>2026-04-04T08:21:19.999Z</time></trkpt><trkpt lat="43.12164139853644" lon="10.609501255608567"><ele>339.0</ele><time>2026-04-04T08:21:20.999Z</time></trkpt><trkpt lat="43.121570887901406" lon="10.609446969418794"><ele>339.0</ele><time>2026-04-04T08:21:21.999Z</time></trkpt><trkpt lat="43.12146051124605" lon="10.609395785747347"><ele>336.1666666666667</ele><time>2026-04-04T08:21:23.999Z</time></trkpt><trkpt lat="43.12135257351484" lon="10.609413265616755"><ele>333.3333333333333</ele><time>2026-04-04T08:21:25.999Z</time></trkpt><trkpt lat="43.121277637437046" lon="10.609428963814969"><ele>330.5</ele><time>2026-04-04T08:21:26.999Z</time></trkpt><trkpt lat="43.12118210238279" lon="10.60949356377779"><ele>327.66666666666663</ele><time>2026-04-04T08:21:28.999Z</time></trkpt><trkpt lat="43.12113585391509" lon="10.609552475977289"><ele>324.8333333333333</ele><time>2026-04-04T08:21:29.999Z</time></trkpt><trkpt lat="43.121094557176484" lon="10.609629532237486"><ele>322.0</ele><time>2026-04-04T08:21:30.999Z</time></trkpt><trkpt lat="43.12106458729907" lon="10.609709794068777"><ele>322.0</ele><time>2026-04-04T08:21:31.999Z</time></trkpt><trkpt lat="43.121033352404126" lon="10.60978738972455"><ele>322.0</ele><time>2026-04-04T08:21:32.999Z</time></trkpt><trkpt lat="43.12099965524296" lon="10.609866076081936"><ele>322.0</ele><time>2026-04-04T08:21:33.999Z</time></trkpt><trkpt lat="43.12096130697213" lon="10.609948887428184"><ele>322.0</ele><time>2026-04-04T08:21:34.999Z</time></trkpt><trkpt lat="43.12087642288646" lon="10.610094720040069"><ele>322.0</ele><time>2026-04-04T08:21:36.999Z</time></trkpt><trkpt lat="43.12083858041994" lon="10.610203149162109"><ele>322.0</ele><time>2026-04-04T08:21:37.999Z</time></trkpt><trkpt lat="43.1208175411968" lon="10.61029463278008"><ele>322.66666666666663</ele><time>2026-04-04T08:21:38.999Z</time></trkpt><trkpt lat="43.120816568694934" lon="10.61041423547832"><ele>323.3333333333333</ele><time>2026-04-04T08:21:40.999Z</time></trkpt><trkpt lat="43.12078565951761" lon="10.610520878167147"><ele>324.0</ele><time>2026-04-04T08:21:41.998Z</time></trkpt><trkpt lat="43.12076161864693" lon="10.610641481554081"><ele>324.6666666666667</ele><time>2026-04-04T08:21:42.998Z</time></trkpt><trkpt lat="43.120712043145055" lon="10.610718159695805"><ele>325.33333333333337</ele><time>2026-04-04T08:21:43.998Z</time></trkpt><trkpt lat="43.12066016593916" lon="10.610789744906702"><ele>326.0</ele><time>2026-04-04T08:21:44.998Z</time></trkpt><trkpt lat="43.12056203516499" lon="10.61085496569338"><ele>327.0</ele><time>2026-04-04T08:21:46.998Z</time></trkpt><trkpt lat="43.120464356425224" lon="10.61092633192482"><ele>328.0</ele><time>2026-04-04T08:21:48.998Z</time></trkpt><trkpt lat="43.120405066519844" lon="10.610890654988198"><ele>329.0</ele><time>2026-04-04T08:21:50.998Z</time></trkpt><trkpt lat="43.12037735514565" lon="10.610741195617015"><ele>330.0</ele><time>2026-04-04T08:21:52.998Z</time></trkpt><trkpt lat="43.12036050804312" lon="10.6106476330707"><ele>331.0</ele><time>2026-04-04T08:21:53.998Z</time></trkpt><trkpt lat="43.12034999503325" lon="10.610557844975194"><ele>332.0</ele><time>2026-04-04T08:21:54.998Z</time></trkpt><trkpt lat="43.120364478603044" lon="10.610458914179363"><ele>332.0</ele><time>2026-04-04T08:21:55.998Z</time></trkpt><trkpt lat="43.12034837972243" lon="10.610359645312677"><ele>332.0</ele><time>2026-04-04T08:21:56.998Z</time></trkpt><trkpt lat="43.120331457428" lon="10.610243810518474"><ele>332.0</ele><time>2026-04-04T08:21:57.998Z</time></trkpt><trkpt lat="43.12032155840881" lon="10.610109010774453"><ele>332.0</ele><time>2026-04-04T08:21:59.998Z</time></trkpt><trkpt lat="43.12022200857288" lon="10.609997765189041"><ele>332.0</ele><time>2026-04-04T08:22:01.998Z</time></trkpt><trkpt lat="43.120149827554435" lon="10.609930504894042"><ele>330.1428571428571</ele><time>2026-04-04T08:22:02.998Z</time></trkpt><trkpt lat="43.120085034459976" lon="10.609860079145838"><ele>328.28571428571433</ele><time>2026-04-04T08:22:03.998Z</time></trkpt><trkpt lat="43.12001721814248" lon="10.609821895141414"><ele>326.42857142857144</ele><time>2026-04-04T08:22:04.998Z</time></trkpt><trkpt lat="43.11997279954196" lon="10.609744930931262"><ele>324.57142857142856</ele><time>2026-04-04T08:22:05.998Z</time></trkpt><trkpt lat="43.11997192837536" lon="10.609657243641992"><ele>322.71428571428567</ele><time>2026-04-04T08:22:06.998Z</time></trkpt><trkpt lat="43.119969157093884" lon="10.609556057156842"><ele>320.8571428571429</ele><time>2026-04-04T08:22:07.998Z</time></trkpt><trkpt lat="43.119959814939186" lon="10.609467371309329"><ele>319.0</ele><time>2026-04-04T08:22:09Z</time></trkpt><trkpt lat="43.11994265828932" lon="10.609362492090881"><ele>317.66666666666663</ele><time>2026-04-04T08:22:10Z</time></trkpt><trkpt lat="43.11992049693495" lon="10.609256331606575"><ele>316.3333333333333</ele><time>2026-04-04T08:22:12Z</time></trkpt><trkpt lat="43.119906711871195" lon="10.609165787540078"><ele>315.0</ele><time>2026-04-04T08:22:14Z</time></trkpt><trkpt lat="43.11985765957102" lon="10.60908487719525"><ele>313.6666666666667</ele><time>2026-04-04T08:22:15Z</time></trkpt><trkpt lat="43.11981075034046" lon="10.60897305314876"><ele>312.33333333333337</ele><time>2026-04-04T08:22:16Z</time></trkpt><trkpt lat="43.119741491150855" lon="10.608890044488358"><ele>311.0</ele><time>2026-04-04T08:22:18Z</time></trkpt><trkpt lat="43.1197051629356" lon="10.60901475231249"><ele>310.83333333333337</ele><time>2026-04-04T08:22:21Z</time></trkpt><trkpt lat="43.11971853166366" lon="10.609124163799626"><ele>310.6666666666667</ele><time>2026-04-04T08:22:22Z</time></trkpt><trkpt lat="43.11971333288989" lon="10.609231737404734"><ele>310.5</ele><time>2026-04-04T08:22:23Z</time></trkpt><trkpt lat="43.11969074383674" lon="10.609318496616742"><ele>310.3333333333333</ele><time>2026-04-04T08:22:24Z</time></trkpt><trkpt lat="43.11964529809458" lon="10.609396051964662"><ele>310.16666666666663</ele><time>2026-04-04T08:22:25Z</time></trkpt><trkpt lat="43.11957561395515" lon="10.609457590862739"><ele>310.0</ele><time>2026-04-04T08:22:26Z</time></trkpt><trkpt lat="43.11949755377953" lon="10.609522851861183"><ele>311.8</ele><time>2026-04-04T08:22:27Z</time></trkpt><trkpt lat="43.119447261211654" lon="10.609615774081128"><ele>313.6</ele><time>2026-04-04T08:22:28Z</time></trkpt><trkpt lat="43.119402491123346" lon="10.609803049025524"><ele>315.4</ele><time>2026-04-04T08:22:30Z</time></trkpt><trkpt lat="43.11937287440246" lon="10.609916505222607"><ele>317.2</ele><time>2026-04-04T08:22:31Z</time></trkpt><trkpt lat="43.119354664793434" lon="10.610007314282859"><ele>319.0</ele><time>2026-04-04T08:22:32Z</time></trkpt><trkpt lat="43.119312089123696" lon="10.610167299037569"><ele>319.0</ele><time>2026-04-04T08:22:34Z</time></trkpt><trkpt lat="43.11927027208574" lon="10.610234228455521"><ele>319.0</ele><time>2026-04-04T08:22:35Z</time></trkpt><trkpt lat="43.11922579041973" lon="10.610298528343915"><ele>319.0</ele><time>2026-04-04T08:22:36Z</time></trkpt><trkpt lat="43.11917717015238" lon="10.610360137364006"><ele>319.0</ele><time>2026-04-04T08:22:37Z</time></trkpt><trkpt lat="43.11912426405614" lon="10.610407806597376"><ele>319.0</ele><time>2026-04-04T08:22:38Z</time></trkpt><trkpt lat="43.119063952461076" lon="10.610446067127096"><ele>319.0</ele><time>2026-04-04T08:22:39Z</time></trkpt><trkpt lat="43.11900482519781" lon="10.610483769487557"><ele>319.0</ele><time>2026-04-04T08:22:40Z</time></trkpt><trkpt lat="43.11889773041188" lon="10.61054742148694"><ele>318.8</ele><time>2026-04-04T08:22:42Z</time></trkpt><trkpt lat="43.118816175747675" lon="10.610656480917363"><ele>318.59999999999997</ele><time>2026-04-04T08:22:44Z</time></trkpt><trkpt lat="43.118761282010794" lon="10.61073280550977"><ele>318.4</ele><time>2026-04-04T08:22:45Z</time></trkpt><trkpt lat="43.118706164035835" lon="10.610778431733207"><ele>318.2</ele><time>2026-04-04T08:22:46Z</time></trkpt><trkpt lat="43.11864742212072" lon="10.610841406957777"><ele>318.0</ele><time>2026-04-04T08:22:47Z</time></trkpt><trkpt lat="43.11856124735927" lon="10.610977994899027"><ele>318.0</ele><time>2026-04-04T08:22:48.999Z</time></trkpt><trkpt lat="43.118508675430576" lon="10.611048415916647"><ele>318.0</ele><time>2026-04-04T08:22:49.999Z</time></trkpt><trkpt lat="43.118474067881806" lon="10.611130944140609"><ele>318.0</ele><time>2026-04-04T08:22:50.999Z</time></trkpt><trkpt lat="43.11844890030317" lon="10.611225003780039"><ele>318.0</ele><time>2026-04-04T08:22:51.999Z</time></trkpt><trkpt lat="43.11841962746504" lon="10.611311557322772"><ele>318.0</ele><time>2026-04-04T08:22:52.999Z</time></trkpt><trkpt lat="43.11839585976927" lon="10.61140635271241"><ele>318.0</ele><time>2026-04-04T08:22:53.999Z</time></trkpt><trkpt lat="43.11837303656309" lon="10.61154853763582"><ele>319.6666666666667</ele><time>2026-04-04T08:22:54.999Z</time></trkpt><trkpt lat="43.11834953373773" lon="10.611655722977229"><ele>321.3333333333333</ele><time>2026-04-04T08:22:55.999Z</time></trkpt><trkpt lat="43.118325152794114" lon="10.611750025755358"><ele>323.0</ele><time>2026-04-04T08:22:56.999Z</time></trkpt><trkpt lat="43.11828449460792" lon="10.611850568672367"><ele>324.66666666666663</ele><time>2026-04-04T08:22:57.999Z</time></trkpt><trkpt lat="43.11824204742905" lon="10.611955150727045"><ele>326.3333333333333</ele><time>2026-04-04T08:22:58.999Z</time></trkpt><trkpt lat="43.11819395414731" lon="10.612059805546977"><ele>328.0</ele><time>2026-04-04T08:22:59.999Z</time></trkpt><trkpt lat="43.11816461476487" lon="10.61214697840259"><ele>328.0</ele><time>2026-04-04T08:23:00.999Z</time></trkpt><trkpt lat="43.11812329862679" lon="10.612229994677854"><ele>328.0</ele><time>2026-04-04T08:23:01.999Z</time></trkpt><trkpt lat="43.11807769398139" lon="10.61233131535961"><ele>328.0</ele><time>2026-04-04T08:23:02.999Z</time></trkpt><trkpt lat="43.1180201968698" lon="10.612405000067696"><ele>328.0</ele><time>2026-04-04T08:23:03.999Z</time></trkpt><trkpt lat="43.11795776373801" lon="10.612504180753989"><ele>328.0</ele><time>2026-04-04T08:23:05.999Z</time></trkpt><trkpt lat="43.1178782772737" lon="10.612633408336539"><ele>328.0</ele><time>2026-04-04T08:23:07.999Z</time></trkpt><trkpt lat="43.117837124756015" lon="10.612700071594576"><ele>328.0</ele><time>2026-04-04T08:23:08.999Z</time></trkpt><trkpt lat="43.11775429478797" lon="10.612768257828423"><ele>328.0</ele><time>2026-04-04T08:23:10.999Z</time></trkpt><trkpt lat="43.11769374165801" lon="10.612861180633894"><ele>328.0</ele><time>2026-04-04T08:23:12.999Z</time></trkpt><trkpt lat="43.117690070612824" lon="10.613006115366801"><ele>328.0</ele><time>2026-04-04T08:23:14.999Z</time></trkpt><trkpt lat="43.117675502739274" lon="10.613108274723208"><ele>328.0</ele><time>2026-04-04T08:23:15.999Z</time></trkpt><trkpt lat="43.11765923128941" lon="10.613207569204045"><ele>329.3333333333333</ele><time>2026-04-04T08:23:16.999Z</time></trkpt><trkpt lat="43.11766413030143" lon="10.613312039938256"><ele>330.66666666666663</ele><time>2026-04-04T08:23:17.999Z</time></trkpt><trkpt lat="43.11767757966695" lon="10.613428501876331"><ele>332.0</ele><time>2026-04-04T08:23:18.999Z</time></trkpt><trkpt lat="43.11769530274324" lon="10.613514202152974"><ele>333.3333333333333</ele><time>2026-04-04T08:23:19.999Z</time></trkpt><trkpt lat="43.11770831600424" lon="10.61360015857544"><ele>334.6666666666667</ele><time>2026-04-04T08:23:20.999Z</time></trkpt><trkpt lat="43.11773268703662" lon="10.613702504069765"><ele>336.0</ele><time>2026-04-04T08:23:21.999Z</time></trkpt><trkpt lat="43.11775203670547" lon="10.613810740203474"><ele>336.0</ele><time>2026-04-04T08:23:22.999Z</time></trkpt><trkpt lat="43.11778014488938" lon="10.613899916539793"><ele>336.0</ele><time>2026-04-04T08:23:23.999Z</time></trkpt><trkpt lat="43.11780138648237" lon="10.614007572037101"><ele>336.0</ele><time>2026-04-04T08:23:24.999Z</time></trkpt><trkpt lat="43.11782323198845" lon="10.614104133663098"><ele>336.0</ele><time>2026-04-04T08:23:25.999Z</time></trkpt><trkpt lat="43.11783676397619" lon="10.61419549950509"><ele>336.0</ele><time>2026-04-04T08:23:26.999Z</time></trkpt><trkpt lat="43.11782455771406" lon="10.614318201604158"><ele>336.0</ele><time>2026-04-04T08:23:27.999Z</time></trkpt><trkpt lat="43.11782292933032" lon="10.61444445067276"><ele>334.0</ele><time>2026-04-04T08:23:28.999Z</time></trkpt><trkpt lat="43.11784291558903" lon="10.614530990435476"><ele>332.0</ele><time>2026-04-04T08:23:29.999Z</time></trkpt><trkpt lat="43.117870878485576" lon="10.614717931528618"><ele>330.0</ele><time>2026-04-04T08:23:31.999Z</time></trkpt><trkpt lat="43.11788112779483" lon="10.614805944853899"><ele>328.0</ele><time>2026-04-04T08:23:32.999Z</time></trkpt><trkpt lat="43.11791335067329" lon="10.61488531288945"><ele>326.0</ele><time>2026-04-04T08:23:33.999Z</time></trkpt><trkpt lat="43.11800203601286" lon="10.614957966808685"><ele>324.0</ele><time>2026-04-04T08:23:34.999Z</time></trkpt><trkpt lat="43.11806150906052" lon="10.615016554132124"><ele>324.0</ele><time>2026-04-04T08:23:35.999Z</time></trkpt><trkpt lat="43.1181222431084" lon="10.615106279991757"><ele>324.0</ele><time>2026-04-04T08:23:37.999Z</time></trkpt><trkpt lat="43.11814948238119" lon="10.615207051336544"><ele>324.0</ele><time>2026-04-04T08:23:38.999Z</time></trkpt><trkpt lat="43.11816745167884" lon="10.615322015506374"><ele>324.0</ele><time>2026-04-04T08:23:39.999Z</time></trkpt><trkpt lat="43.11821072005835" lon="10.615415670461537"><ele>324.0</ele><time>2026-04-04T08:23:40.999Z</time></trkpt><trkpt lat="43.11828527225532" lon="10.615519751827987"><ele>324.0</ele><time>2026-04-04T08:23:41.999Z</time></trkpt><trkpt lat="43.11829695987997" lon="10.615659207381164"><ele>325.6</ele><time>2026-04-04T08:23:43.998Z</time></trkpt><trkpt lat="43.118266881699775" lon="10.615792469494465"><ele>327.2</ele><time>2026-04-04T08:23:44.998Z</time></trkpt><trkpt lat="43.11826512781356" lon="10.61588814375745"><ele>328.8</ele><time>2026-04-04T08:23:45.998Z</time></trkpt><trkpt lat="43.11828786159254" lon="10.616077974081634"><ele>330.40000000000003</ele><time>2026-04-04T08:23:47.998Z</time></trkpt><trkpt lat="43.118345126685554" lon="10.616162386499338"><ele>332.0</ele><time>2026-04-04T08:23:48.998Z</time></trkpt><trkpt lat="43.118367413137925" lon="10.616291859940583"><ele>332.0</ele><time>2026-04-04T08:23:49.998Z</time></trkpt><trkpt lat="43.118435369089504" lon="10.616391124711928"><ele>332.0</ele><time>2026-04-04T08:23:50.998Z</time></trkpt><trkpt lat="43.11846931376677" lon="10.61648268177717"><ele>332.0</ele><time>2026-04-04T08:23:51.998Z</time></trkpt><trkpt lat="43.11850925721808" lon="10.61655643276845"><ele>332.0</ele><time>2026-04-04T08:23:52.998Z</time></trkpt><trkpt lat="43.11856961651097" lon="10.61662875920496"><ele>332.0</ele><time>2026-04-04T08:23:53.998Z</time></trkpt><trkpt lat="43.118625511631585" lon="10.616689341359429"><ele>332.0</ele><time>2026-04-04T08:23:55.998Z</time></trkpt><trkpt lat="43.118692966503374" lon="10.616706694599399"><ele>332.0</ele><time>2026-04-04T08:23:56.998Z</time></trkpt><trkpt lat="43.11882104340591" lon="10.61669369636633"><ele>332.0</ele><time>2026-04-04T08:23:58.998Z</time></trkpt><trkpt lat="43.118883423087205" lon="10.616789256997189"><ele>332.0</ele><time>2026-04-04T08:24:00.998Z</time></trkpt><trkpt lat="43.118903117928305" lon="10.616873075475652"><ele>332.0</ele><time>2026-04-04T08:24:01.998Z</time></trkpt><trkpt lat="43.11886568765155" lon="10.616998414136434"><ele>332.0</ele><time>2026-04-04T08:24:02.998Z</time></trkpt><trkpt lat="43.11887035860086" lon="10.617096751013849"><ele>328.0</ele><time>2026-04-04T08:24:03.998Z</time></trkpt><trkpt lat="43.118893254025316" lon="10.617188929517905"><ele>324.0</ele><time>2026-04-04T08:24:04.998Z</time></trkpt><trkpt lat="43.11896322905561" lon="10.617404829549162"><ele>320.0</ele><time>2026-04-04T08:24:06.998Z</time></trkpt><trkpt lat="43.11899427928824" lon="10.61756631183614"><ele>316.0</ele><time>2026-04-04T08:24:07.998Z</time></trkpt><trkpt lat="43.118992087152" lon="10.617713638514653"><ele>317.3333333333333</ele><time>2026-04-04T08:24:08.998Z</time></trkpt><trkpt lat="43.118989506485086" lon="10.617819827077914"><ele>318.66666666666663</ele><time>2026-04-04T08:24:09.998Z</time></trkpt><trkpt lat="43.11899296030284" lon="10.61796179616855"><ele>320.0</ele><time>2026-04-04T08:24:11.998Z</time></trkpt><trkpt lat="43.11905860446547" lon="10.61803992"><ele>321.3333333333333</ele><time>2026-04-04T08:24:13.998Z</time></trkpt><trkpt lat="43.11905089221988" lon="10.618138232154964"><ele>322.6666666666667</ele><time>2026-04-04T08:24:15Z</time></trkpt><trkpt lat="43.11904813600147" lon="10.618229048612953"><ele>324.0</ele><time>2026-04-04T08:24:16Z</time></trkpt><trkpt lat="43.119081830001925" lon="10.618330853812644"><ele>329.5</ele><time>2026-04-04T08:24:17Z</time></trkpt><trkpt lat="43.11910559934564" lon="10.618447768803593"><ele>335.0</ele><time>2026-04-04T08:24:18Z</time></trkpt><trkpt lat="43.11912273888128" lon="10.618541365215505"><ele>340.5</ele><time>2026-04-04T08:24:19Z</time></trkpt><trkpt lat="43.119136093032864" lon="10.618660419981905"><ele>346.0</ele><time>2026-04-04T08:24:20Z</time></trkpt><trkpt lat="43.11915048200548" lon="10.618801241960835"><ele>351.5</ele><time>2026-04-04T08:24:21Z</time></trkpt><trkpt lat="43.11913211783868" lon="10.618928973627503"><ele>357.0</ele><time>2026-04-04T08:24:22Z</time></trkpt><trkpt lat="43.1191294533062" lon="10.619022107998292"><ele>357.6</ele><time>2026-04-04T08:24:23Z</time></trkpt><trkpt lat="43.11916927961279" lon="10.619124158513111"><ele>358.20000000000005</ele><time>2026-04-04T08:24:25Z</time></trkpt><trkpt lat="43.11925126123743" lon="10.619164228896897"><ele>358.8</ele><time>2026-04-04T08:24:27Z</time></trkpt><trkpt lat="43.11932195501968" lon="10.619170820854912"><ele>359.4</ele><time>2026-04-04T08:24:28Z</time></trkpt><trkpt lat="43.11938893390271" lon="10.619214816190656"><ele>360.0</ele><time>2026-04-04T08:24:29Z</time></trkpt><trkpt lat="43.11950328266023" lon="10.619337797352099"><ele>360.0</ele><time>2026-04-04T08:24:31Z</time></trkpt><trkpt lat="43.11954415117689" lon="10.619430714450129"><ele>360.0</ele><time>2026-04-04T08:24:32Z</time></trkpt><trkpt lat="43.119603538359556" lon="10.619533234599253"><ele>360.0</ele><time>2026-04-04T08:24:33Z</time></trkpt><trkpt lat="43.11968572508634" lon="10.619655262902636"><ele>360.0</ele><time>2026-04-04T08:24:35Z</time></trkpt><trkpt lat="43.11974977687304" lon="10.61980501651888"><ele>360.0</ele><time>2026-04-04T08:24:37Z</time></trkpt><trkpt lat="43.11982502625439" lon="10.619906101033822"><ele>360.8333333333333</ele><time>2026-04-04T08:24:38Z</time></trkpt><trkpt lat="43.11988869234792" lon="10.61997078436856"><ele>361.6666666666667</ele><time>2026-04-04T08:24:39Z</time></trkpt><trkpt lat="43.11993178694404" lon="10.62004743755991"><ele>362.5</ele><time>2026-04-04T08:24:40Z</time></trkpt><trkpt lat="43.11999692388487" lon="10.62013193316794"><ele>363.33333333333337</ele><time>2026-04-04T08:24:41Z</time></trkpt><trkpt lat="43.12010198848534" lon="10.620209943265161"><ele>364.1666666666667</ele><time>2026-04-04T08:24:43Z</time></trkpt><trkpt lat="43.120159745433064" lon="10.62026271066659"><ele>365.0</ele><time>2026-04-04T08:24:44Z</time></trkpt><trkpt lat="43.120176908615115" lon="10.620374170014209"><ele>365.0</ele><time>2026-04-04T08:24:46Z</time></trkpt><trkpt lat="43.12018003953031" lon="10.620492444831847"><ele>365.0</ele><time>2026-04-04T08:26:24Z</time></trkpt><trkpt lat="43.12013917276754" lon="10.620614597593708"><ele>365.0</ele><time>2026-04-04T08:26:26Z</time></trkpt><trkpt lat="43.12011067642308" lon="10.62074971190908"><ele>365.0</ele><time>2026-04-04T08:26:28Z</time></trkpt><trkpt lat="43.12011870565807" lon="10.620878060680043"><ele>365.0</ele><time>2026-04-04T08:26:30Z</time></trkpt><trkpt lat="43.120178480736506" lon="10.621017089038322"><ele>365.0</ele><time>2026-04-04T08:26:32Z</time></trkpt><trkpt lat="43.120231893118145" lon="10.621079022266054"><ele>365.0</ele><time>2026-04-04T08:26:33Z</time></trkpt><trkpt lat="43.1202177320171" lon="10.621188073569185"><ele>365.0</ele><time>2026-04-04T08:26:35Z</time></trkpt><trkpt lat="43.12011369634111" lon="10.62125278365557"><ele>365.0</ele><time>2026-04-04T08:26:37Z</time></trkpt><trkpt lat="43.12006989482764" lon="10.621350521199057"><ele>365.0</ele><time>2026-04-04T08:26:38Z</time></trkpt><trkpt lat="43.12003949242095" lon="10.62147240275345"><ele>365.0</ele><time>2026-04-04T08:26:39Z</time></trkpt><trkpt lat="43.12001219149724" lon="10.621596773329582"><ele>365.0</ele><time>2026-04-04T08:26:40Z</time></trkpt><trkpt lat="43.11998659660139" lon="10.621719682398071"><ele>365.0</ele><time>2026-04-04T08:26:41Z</time></trkpt><trkpt lat="43.11997377748744" lon="10.621831496105917"><ele>365.0</ele><time>2026-04-04T08:26:42Z</time></trkpt><trkpt lat="43.119959883898936" lon="10.621948696140548"><ele>365.0</ele><time>2026-04-04T08:26:43Z</time></trkpt><trkpt lat="43.11993321892184" lon="10.622055905641533"><ele>365.0</ele><time>2026-04-04T08:26:44Z</time></trkpt><trkpt lat="43.11991370380434" lon="10.622155476677333"><ele>365.0</ele><time>2026-04-04T08:26:45Z</time></trkpt><trkpt lat="43.11991256705212" lon="10.622269124904587"><ele>366.0</ele><time>2026-04-04T08:26:46Z</time></trkpt><trkpt lat="43.11993279879184" lon="10.622398844591045"><ele>367.0</ele><time>2026-04-04T08:26:47Z</time></trkpt><trkpt lat="43.11993811848994" lon="10.622488719932381"><ele>368.0</ele><time>2026-04-04T08:26:48Z</time></trkpt><trkpt lat="43.11994081818061" lon="10.622609097814493"><ele>369.0</ele><time>2026-04-04T08:26:49Z</time></trkpt><trkpt lat="43.119932689589604" lon="10.622712115384973"><ele>370.0</ele><time>2026-04-04T08:26:50Z</time></trkpt><trkpt lat="43.11992142462054" lon="10.622798202073607"><ele>371.0</ele><time>2026-04-04T08:26:51Z</time></trkpt><trkpt lat="43.11991629157148" lon="10.622912575540948"><ele>371.20000000000005</ele><time>2026-04-04T08:26:52Z</time></trkpt><trkpt lat="43.11993621197778" lon="10.623027301535057"><ele>371.40000000000003</ele><time>2026-04-04T08:26:53Z</time></trkpt><trkpt lat="43.11995582181211" lon="10.623115224523211"><ele>371.6</ele><time>2026-04-04T08:26:54Z</time></trkpt><trkpt lat="43.11989724332484" lon="10.623230016415118"><ele>371.8</ele><time>2026-04-04T08:26:56Z</time></trkpt><trkpt lat="43.119905903173844" lon="10.623429392732403"><ele>372.0</ele><time>2026-04-04T08:26:58Z</time></trkpt><trkpt lat="43.119900212794796" lon="10.623615168463079"><ele>370.40000000000003</ele><time>2026-04-04T08:26:59Z</time></trkpt><trkpt lat="43.11988894191101" lon="10.623730379140257"><ele>368.8</ele><time>2026-04-04T08:27:00Z</time></trkpt><trkpt lat="43.11988052523797" lon="10.623827311356628"><ele>367.2</ele><time>2026-04-04T08:27:01Z</time></trkpt><trkpt lat="43.119904070282765" lon="10.623959744851549"><ele>365.6</ele><time>2026-04-04T08:27:02.999Z</time></trkpt><trkpt lat="43.12000204128369" lon="10.624065396656333"><ele>364.0</ele><time>2026-04-04T08:27:04.999Z</time></trkpt><trkpt lat="43.12010440287817" lon="10.624134813686581"><ele>364.0</ele><time>2026-04-04T08:27:06.999Z</time></trkpt><trkpt lat="43.12015981861716" lon="10.624207344293602"><ele>364.0</ele><time>2026-04-04T08:27:07.999Z</time></trkpt><trkpt lat="43.1202186781385" lon="10.624255861654108"><ele>364.0</ele><time>2026-04-04T08:27:08.999Z</time></trkpt><trkpt lat="43.12027357823129" lon="10.624326019666746"><ele>364.0</ele><time>2026-04-04T08:27:09.999Z</time></trkpt><trkpt lat="43.12033245076803" lon="10.624373939213601"><ele>364.0</ele><time>2026-04-04T08:27:10.999Z</time></trkpt><trkpt lat="43.12040367726372" lon="10.624442147331989"><ele>364.0</ele><time>2026-04-04T08:27:11.999Z</time></trkpt><trkpt lat="43.12043476546344" lon="10.624520721482648"><ele>364.0</ele><time>2026-04-04T08:27:12.999Z</time></trkpt><trkpt lat="43.1204705733871" lon="10.624616455936918"><ele>363.3333333333333</ele><time>2026-04-04T08:27:13.999Z</time></trkpt><trkpt lat="43.1204923606448" lon="10.624726738265693"><ele>362.66666666666663</ele><time>2026-04-04T08:27:14.999Z</time></trkpt><trkpt lat="43.12053017739819" lon="10.62480768531435"><ele>362.0</ele><time>2026-04-04T08:27:16.999Z</time></trkpt><trkpt lat="43.1205731476535" lon="10.624895479911615"><ele>361.3333333333333</ele><time>2026-04-04T08:27:17.999Z</time></trkpt><trkpt lat="43.12063546275799" lon="10.624984783556751"><ele>360.6666666666667</ele><time>2026-04-04T08:27:18.999Z</time></trkpt><trkpt lat="43.12069948329392" lon="10.625038452942558"><ele>360.0</ele><time>2026-04-04T08:27:19.999Z</time></trkpt><trkpt lat="43.120761318055294" lon="10.625148833053128"><ele>360.0</ele><time>2026-04-04T08:27:21.999Z</time></trkpt><trkpt lat="43.120750814557326" lon="10.625243385320127"><ele>360.0</ele><time>2026-04-04T08:27:23.999Z</time></trkpt><trkpt lat="43.12068194140376" lon="10.625288290141574"><ele>360.0</ele><time>2026-04-04T08:27:25.999Z</time></trkpt><trkpt lat="43.120619409359925" lon="10.625249130256478"><ele>360.0</ele><time>2026-04-04T08:27:47.999Z</time></trkpt><trkpt lat="43.120480067765556" lon="10.62528279864344"><ele>360.0</ele><time>2026-04-04T08:27:49.999Z</time></trkpt><trkpt lat="43.1203983963196" lon="10.625318692330728"><ele>360.0</ele><time>2026-04-04T08:27:50.999Z</time></trkpt><trkpt lat="43.12034355794375" lon="10.625413731340746"><ele>363.8</ele><time>2026-04-04T08:27:51.999Z</time></trkpt><trkpt lat="43.12022429690639" lon="10.625476726376462"><ele>367.6</ele><time>2026-04-04T08:27:53.999Z</time></trkpt><trkpt lat="43.12010490894347" lon="10.625406644500188"><ele>371.4</ele><time>2026-04-04T08:27:55.998Z</time></trkpt><trkpt lat="43.12003878284952" lon="10.62542884191769"><ele>375.2</ele><time>2026-04-04T08:27:56.998Z</time></trkpt><trkpt lat="43.119970441866364" lon="10.625510691581841"><ele>379.0</ele><time>2026-04-04T08:27:57.998Z</time></trkpt><trkpt lat="43.11988962807327" lon="10.625539826908772"><ele>380.2</ele><time>2026-04-04T08:27:58.998Z</time></trkpt><trkpt lat="43.11981131500517" lon="10.625553854683654"><ele>381.4</ele><time>2026-04-04T08:27:59.998Z</time></trkpt><trkpt lat="43.1197321872757" lon="10.625615979851066"><ele>382.6</ele><time>2026-04-04T08:28:00.998Z</time></trkpt><trkpt lat="43.11961310144813" lon="10.625644467902795"><ele>383.8</ele><time>2026-04-04T08:28:01.998Z</time></trkpt><trkpt lat="43.11949684499953" lon="10.625686184538708"><ele>385.0</ele><time>2026-04-04T08:28:02.998Z</time></trkpt><trkpt lat="43.1194011146045" lon="10.625726898252555"><ele>385.00000000000006</ele><time>2026-04-04T08:28:03.998Z</time></trkpt><trkpt lat="43.11933569404704" lon="10.625733926404456"><ele>385.0</ele><time>2026-04-04T08:28:04.998Z</time></trkpt><trkpt lat="43.11923047003427" lon="10.625756295802294"><ele>385.0</ele><time>2026-04-04T08:28:06.998Z</time></trkpt><trkpt lat="43.11916145721977" lon="10.625686010393665"><ele>385.0</ele><time>2026-04-04T08:28:07.998Z</time></trkpt><trkpt lat="43.119097806324234" lon="10.625632778548182"><ele>385.00000000000006</ele><time>2026-04-04T08:28:08.998Z</time></trkpt><trkpt lat="43.11902355178621" lon="10.625613221919318"><ele>385.0</ele><time>2026-04-04T08:28:09.998Z</time></trkpt><trkpt lat="43.11896062704145" lon="10.625589568002571"><ele>386.33333333333337</ele><time>2026-04-04T08:28:10.998Z</time></trkpt><trkpt lat="43.11890466962909" lon="10.62553896202457"><ele>387.6666666666667</ele><time>2026-04-04T08:28:11.998Z</time></trkpt><trkpt lat="43.118819572957875" lon="10.625483194840166"><ele>389.0</ele><time>2026-04-04T08:28:12.998Z</time></trkpt><trkpt lat="43.11874710795909" lon="10.62541624350598"><ele>390.33333333333337</ele><time>2026-04-04T08:28:13.998Z</time></trkpt><trkpt lat="43.11866910830703" lon="10.625368862932358"><ele>391.6666666666667</ele><time>2026-04-04T08:28:14.998Z</time></trkpt><trkpt lat="43.11855939609432" lon="10.6253402649916"><ele>393.0</ele><time>2026-04-04T08:28:16.998Z</time></trkpt><trkpt lat="43.118452484645935" lon="10.625437451967414"><ele>393.0</ele><time>2026-04-04T08:28:18.998Z</time></trkpt><trkpt lat="43.11839232429381" lon="10.625499757277288"><ele>393.0</ele><time>2026-04-04T08:28:19.998Z</time></trkpt><trkpt lat="43.118339731544516" lon="10.625574810189628"><ele>393.0</ele><time>2026-04-04T08:28:20.998Z</time></trkpt><trkpt lat="43.118297601627496" lon="10.625641988842935"><ele>393.0</ele><time>2026-04-04T08:28:21.998Z</time></trkpt><trkpt lat="43.11821360354264" lon="10.625749796405254"><ele>393.0</ele><time>2026-04-04T08:28:23.998Z</time></trkpt><trkpt lat="43.11815650929222" lon="10.625820040657597"><ele>393.0</ele><time>2026-04-04T08:28:24.998Z</time></trkpt><trkpt lat="43.11809576754061" lon="10.625879163779524"><ele>392.4</ele><time>2026-04-04T08:28:25.998Z</time></trkpt><trkpt lat="43.118014774726355" lon="10.625988086421906"><ele>391.79999999999995</ele><time>2026-04-04T08:28:28Z</time></trkpt><trkpt lat="43.117982934745164" lon="10.626132403472488"><ele>391.2</ele><time>2026-04-04T08:28:30Z</time></trkpt><trkpt lat="43.11797230510086" lon="10.626248479390055"><ele>390.6</ele><time>2026-04-04T08:28:31Z</time></trkpt><trkpt lat="43.117965596145076" lon="10.626369761243232"><ele>390.0</ele><time>2026-04-04T08:28:32Z</time></trkpt><trkpt lat="43.117948422363604" lon="10.626553903157784"><ele>390.0</ele><time>2026-04-04T08:28:33Z</time></trkpt><trkpt lat="43.11791180597777" lon="10.62672383883357"><ele>390.0</ele><time>2026-04-04T08:28:34Z</time></trkpt><trkpt lat="43.11788804190146" lon="10.626864825181551"><ele>390.0</ele><time>2026-04-04T08:28:35Z</time></trkpt><trkpt lat="43.1178867208019" lon="10.626970314153262"><ele>390.0</ele><time>2026-04-04T08:28:36Z</time></trkpt><trkpt lat="43.11784637466093" lon="10.627078733887688"><ele>390.0</ele><time>2026-04-04T08:28:37Z</time></trkpt><trkpt lat="43.117782318458964" lon="10.627151179523288"><ele>390.0</ele><time>2026-04-04T08:28:39Z</time></trkpt><trkpt lat="43.11766171715798" lon="10.627102899366141"><ele>390.0</ele><time>2026-04-04T08:28:41Z</time></trkpt><trkpt lat="43.11758258857364" lon="10.627007880250943"><ele>390.0</ele><time>2026-04-04T08:28:42Z</time></trkpt><trkpt lat="43.117513030940295" lon="10.626929413379903"><ele>390.0</ele><time>2026-04-04T08:28:43Z</time></trkpt><trkpt lat="43.11744645095" lon="10.626879169425315"><ele>390.0</ele><time>2026-04-04T08:28:44Z</time></trkpt><trkpt lat="43.117394855718835" lon="10.626934134537528"><ele>390.0</ele><time>2026-04-04T08:28:45Z</time></trkpt><trkpt lat="43.117261208976764" lon="10.626976363582624"><ele>390.0</ele><time>2026-04-04T08:28:47Z</time></trkpt><trkpt lat="43.11717149732024" lon="10.626997502944928"><ele>390.0</ele><time>2026-04-04T08:28:48Z</time></trkpt><trkpt lat="43.117082242790396" lon="10.62702492391448"><ele>390.0</ele><time>2026-04-04T08:28:49Z</time></trkpt><trkpt lat="43.117014868353245" lon="10.627056745155826"><ele>390.0</ele><time>2026-04-04T08:28:50Z</time></trkpt><trkpt lat="43.116917930882344" lon="10.627067063256064"><ele>394.0</ele><time>2026-04-04T08:28:51Z</time></trkpt><trkpt lat="43.11685215319036" lon="10.6270769109017"><ele>398.0</ele><time>2026-04-04T08:28:52Z</time></trkpt><trkpt lat="43.116736643221905" lon="10.627202880341352"><ele>402.0</ele><time>2026-04-04T08:28:54Z</time></trkpt><trkpt lat="43.11662992471967" lon="10.627300591267785"><ele>406.0</ele><time>2026-04-04T08:28:56Z</time></trkpt><trkpt lat="43.1165543838365" lon="10.627283447253859"><ele>410.0</ele><time>2026-04-04T08:28:58Z</time></trkpt><trkpt lat="43.11649495007643" lon="10.627218737239348"><ele>411.6</ele><time>2026-04-04T08:28:59Z</time></trkpt><trkpt lat="43.11642347395914" lon="10.627126413285403"><ele>413.2</ele><time>2026-04-04T08:29:01Z</time></trkpt><trkpt lat="43.116369828117314" lon="10.626981130631243"><ele>414.79999999999995</ele><time>2026-04-04T08:29:03Z</time></trkpt><trkpt lat="43.11631884361966" lon="10.626878175795259"><ele>416.4</ele><time>2026-04-04T08:29:04Z</time></trkpt><trkpt lat="43.1162925916211" lon="10.62678181455074"><ele>418.0</ele><time>2026-04-04T08:29:05Z</time></trkpt><trkpt lat="43.116276641974935" lon="10.626683364899396"><ele>418.0</ele><time>2026-04-04T08:29:05.999Z</time></trkpt><trkpt lat="43.11626601494107" lon="10.626582250873659"><ele>418.0</ele><time>2026-04-04T08:29:06.999Z</time></trkpt><trkpt lat="43.116249496324315" lon="10.626494601157379"><ele>418.0</ele><time>2026-04-04T08:29:10.999Z</time></trkpt><trkpt lat="43.116181033999744" lon="10.626412136674547"><ele>418.0</ele><time>2026-04-04T08:29:11.999Z</time></trkpt><trkpt lat="43.116089276709964" lon="10.626369392200223"><ele>418.0</ele><time>2026-04-04T08:29:13.999Z</time></trkpt><trkpt lat="43.11597629781211" lon="10.626268763808302"><ele>418.0</ele><time>2026-04-04T08:29:15.999Z</time></trkpt><trkpt lat="43.11583820715403" lon="10.626242370222291"><ele>418.0</ele><time>2026-04-04T08:29:16.999Z</time></trkpt><trkpt lat="43.115730018367195" lon="10.626234214983954"><ele>418.0</ele><time>2026-04-04T08:29:17.999Z</time></trkpt><trkpt lat="43.115631950974134" lon="10.626231756690537"><ele>418.0</ele><time>2026-04-04T08:29:18.999Z</time></trkpt><trkpt lat="43.115542734768546" lon="10.626244518834367"><ele>418.0</ele><time>2026-04-04T08:29:19.999Z</time></trkpt><trkpt lat="43.11547908036776" lon="10.626234111190616"><ele>418.50000000000006</ele><time>2026-04-04T08:29:20.999Z</time></trkpt><trkpt lat="43.115410863438235" lon="10.626217944691877"><ele>419.0</ele><time>2026-04-04T08:29:21.999Z</time></trkpt><trkpt lat="43.11533581008182" lon="10.626218708866977"><ele>419.5</ele><time>2026-04-04T08:29:22.999Z</time></trkpt><trkpt lat="43.11526970507734" lon="10.626193920929495"><ele>420.0</ele><time>2026-04-04T08:29:23.999Z</time></trkpt><trkpt lat="43.11518103948167" lon="10.626059486540171"><ele>420.50000000000006</ele><time>2026-04-04T08:29:25.999Z</time></trkpt><trkpt lat="43.11514111371954" lon="10.625970452429904"><ele>421.0</ele><time>2026-04-04T08:29:26.999Z</time></trkpt><trkpt lat="43.11512037200747" lon="10.625812860332266"><ele>421.00000000000006</ele><time>2026-04-04T08:29:27.999Z</time></trkpt><trkpt lat="43.11511303596201" lon="10.625676452076332"><ele>421.0</ele><time>2026-04-04T08:29:28.999Z</time></trkpt><trkpt lat="43.11509611936453" lon="10.625577609182988"><ele>421.0</ele><time>2026-04-04T08:29:29.999Z</time></trkpt><trkpt lat="43.115068040165674" lon="10.62549306277863"><ele>421.0</ele><time>2026-04-04T08:29:30.999Z</time></trkpt><trkpt lat="43.115056146082985" lon="10.625355563522966"><ele>421.00000000000006</ele><time>2026-04-04T08:29:31.999Z</time></trkpt><trkpt lat="43.1150471312339" lon="10.625267653496667"><ele>421.0</ele><time>2026-04-04T08:29:32.999Z</time></trkpt><trkpt lat="43.115054498873604" lon="10.625159363288663"><ele>419.8</ele><time>2026-04-04T08:29:33.999Z</time></trkpt><trkpt lat="43.115028431475125" lon="10.625000033996049"><ele>418.6</ele><time>2026-04-04T08:29:34.999Z</time></trkpt><trkpt lat="43.11499787163681" lon="10.62486229357608"><ele>417.4</ele><time>2026-04-04T08:29:35.999Z</time></trkpt><trkpt lat="43.11492764979377" lon="10.6247932592539"><ele>416.2</ele><time>2026-04-04T08:29:37.999Z</time></trkpt><trkpt lat="43.11485914722432" lon="10.624717549258651"><ele>415.0</ele><time>2026-04-04T08:29:38.999Z</time></trkpt><trkpt lat="43.114807187932904" lon="10.624648917241458"><ele>419.6</ele><time>2026-04-04T08:29:39.999Z</time></trkpt><trkpt lat="43.11471183164899" lon="10.62452688324428"><ele>424.2</ele><time>2026-04-04T08:29:40.999Z</time></trkpt><trkpt lat="43.1146213421101" lon="10.624491085242987"><ele>428.79999999999995</ele><time>2026-04-04T08:29:41.999Z</time></trkpt><trkpt lat="43.11454149614731" lon="10.624547352414119"><ele>433.4</ele><time>2026-04-04T08:29:42.999Z</time></trkpt><trkpt lat="43.1144255902492" lon="10.62459622897924"><ele>438.0</ele><time>2026-04-04T08:29:43.999Z</time></trkpt><trkpt lat="43.11433411437171" lon="10.624631181831075"><ele>438.0</ele><time>2026-04-04T08:29:44.999Z</time></trkpt><trkpt lat="43.114247974423215" lon="10.624620487511788"><ele>437.99999999999994</ele><time>2026-04-04T08:29:45.999Z</time></trkpt><trkpt lat="43.11417397537109" lon="10.62459134722444"><ele>437.99999999999994</ele><time>2026-04-04T08:29:46.999Z</time></trkpt><trkpt lat="43.114115498133984" lon="10.624500286939687"><ele>438.0</ele><time>2026-04-04T08:29:47.999Z</time></trkpt><trkpt lat="43.1140481222535" lon="10.62442565352128"><ele>438.0</ele><time>2026-04-04T08:29:48.999Z</time></trkpt><trkpt lat="43.11394756104502" lon="10.62424715578806"><ele>438.0</ele><time>2026-04-04T08:29:50.999Z</time></trkpt><trkpt lat="43.11390442391817" lon="10.62412031752078"><ele>437.99999999999994</ele><time>2026-04-04T08:29:51.999Z</time></trkpt><trkpt lat="43.113839980896806" lon="10.624017801096159"><ele>437.99999999999994</ele><time>2026-04-04T08:29:52.999Z</time></trkpt><trkpt lat="43.113777853414085" lon="10.623971178300335"><ele>438.0</ele><time>2026-04-04T08:29:53.999Z</time></trkpt><trkpt lat="43.11366074415578" lon="10.62386012259836"><ele>438.0</ele><time>2026-04-04T08:29:55.999Z</time></trkpt><trkpt lat="43.11359710968095" lon="10.623741718655195"><ele>438.0</ele><time>2026-04-04T08:29:56.999Z</time></trkpt><trkpt lat="43.11350115195234" lon="10.623669514971168"><ele>437.99999999999994</ele><time>2026-04-04T08:29:57.999Z</time></trkpt><trkpt lat="43.11339051624999" lon="10.623539057349682"><ele>437.99999999999994</ele><time>2026-04-04T08:29:58.999Z</time></trkpt><trkpt lat="43.11332530203357" lon="10.623518210983418"><ele>438.0</ele><time>2026-04-04T08:29:59.998Z</time></trkpt><trkpt lat="43.1132501017922" lon="10.62350376627369"><ele>438.0</ele><time>2026-04-04T08:30:00.998Z</time></trkpt><trkpt lat="43.113178986002964" lon="10.623528466405958"><ele>438.0</ele><time>2026-04-04T08:31:43.999Z</time></trkpt><trkpt lat="43.113183324086435" lon="10.623623437307586"><ele>438.0</ele><time>2026-04-04T08:31:44.999Z</time></trkpt><trkpt lat="43.11321389469623" lon="10.623730900372943"><ele>438.0</ele><time>2026-04-04T08:31:45.999Z</time></trkpt><trkpt lat="43.11324090224858" lon="10.623826718002178"><ele>438.0</ele><time>2026-04-04T08:31:46.999Z</time></trkpt><trkpt lat="43.113265994118684" lon="10.623915308896619"><ele>438.0</ele><time>2026-04-04T08:31:47.999Z</time></trkpt><trkpt lat="43.11331358634912" lon="10.624015808229988"><ele>438.0</ele><time>2026-04-04T08:31:48.999Z</time></trkpt><trkpt lat="43.11335034071056" lon="10.624128027140353"><ele>438.0</ele><time>2026-04-04T08:31:49.999Z</time></trkpt><trkpt lat="43.11340015648698" lon="10.624261530649788"><ele>437.99999999999994</ele><time>2026-04-04T08:31:50.999Z</time></trkpt><trkpt lat="43.11343446497306" lon="10.624373510107015"><ele>437.99999999999994</ele><time>2026-04-04T08:31:51.999Z</time></trkpt><trkpt lat="43.11347157237324" lon="10.62448273714969"><ele>438.0</ele><time>2026-04-04T08:31:52.999Z</time></trkpt><trkpt lat="43.11347281780889" lon="10.624637923362558"><ele>438.0</ele><time>2026-04-04T08:31:53.999Z</time></trkpt><trkpt lat="43.113493272783494" lon="10.624761960909199"><ele>438.2</ele><time>2026-04-04T08:31:54.999Z</time></trkpt><trkpt lat="43.11351370316354" lon="10.624856424700878"><ele>438.4</ele><time>2026-04-04T08:31:55.999Z</time></trkpt><trkpt lat="43.11355915912621" lon="10.6249833827033"><ele>438.59999999999997</ele><time>2026-04-04T08:31:56.999Z</time></trkpt><trkpt lat="43.113605122298694" lon="10.6250817777213"><ele>438.79999999999995</ele><time>2026-04-04T08:31:57.999Z</time></trkpt><trkpt lat="43.113650788606265" lon="10.625202168188611"><ele>439.0</ele><time>2026-04-04T08:31:58.999Z</time></trkpt><trkpt lat="43.1136988230733" lon="10.625379146569298"><ele>438.4</ele><time>2026-04-04T08:31:59.999Z</time></trkpt><trkpt lat="43.113722672305855" lon="10.625477340278664"><ele>437.79999999999995</ele><time>2026-04-04T08:32:00.999Z</time></trkpt><trkpt lat="43.113769830744566" lon="10.625591413175636"><ele>437.20000000000005</ele><time>2026-04-04T08:32:01.999Z</time></trkpt><trkpt lat="43.113818159236246" lon="10.625728676423966"><ele>436.6</ele><time>2026-04-04T08:32:02.999Z</time></trkpt><trkpt lat="43.11391898174458" lon="10.625853091265306"><ele>436.0</ele><time>2026-04-04T08:32:03.999Z</time></trkpt><trkpt lat="43.11400716949059" lon="10.626013091583454"><ele>437.0</ele><time>2026-04-04T08:32:04.999Z</time></trkpt><trkpt lat="43.11407096565867" lon="10.62616510780733"><ele>438.0</ele><time>2026-04-04T08:32:05.999Z</time></trkpt><trkpt lat="43.11410663303333" lon="10.626304502329548"><ele>439.0</ele><time>2026-04-04T08:32:06.999Z</time></trkpt><trkpt lat="43.11411854566195" lon="10.626416883010146"><ele>440.0</ele><time>2026-04-04T08:32:07.999Z</time></trkpt><trkpt lat="43.11413851746098" lon="10.626557728801574"><ele>441.0</ele><time>2026-04-04T08:32:08.998Z</time></trkpt><trkpt lat="43.1141286936127" lon="10.626716040971063"><ele>444.0</ele><time>2026-04-04T08:32:09.998Z</time></trkpt><trkpt lat="43.11414496612142" lon="10.626843636129948"><ele>447.0</ele><time>2026-04-04T08:32:10.998Z</time></trkpt><trkpt lat="43.11417947132887" lon="10.626937960119271"><ele>450.0</ele><time>2026-04-04T08:32:11.998Z</time></trkpt><trkpt lat="43.114202944968575" lon="10.627112712891444"><ele>453.0</ele><time>2026-04-04T08:32:12.998Z</time></trkpt><trkpt lat="43.114212658690036" lon="10.627286228972078"><ele>456.0</ele><time>2026-04-04T08:32:13.998Z</time></trkpt><trkpt lat="43.11425291981186" lon="10.62742830754845"><ele>457.6</ele><time>2026-04-04T08:32:14.998Z</time></trkpt><trkpt lat="43.11428672565807" lon="10.627557295726207"><ele>459.20000000000005</ele><time>2026-04-04T08:32:15.998Z</time></trkpt><trkpt lat="43.11432841334711" lon="10.627658911385362"><ele>460.79999999999995</ele><time>2026-04-04T08:32:16.998Z</time></trkpt><trkpt lat="43.114389307293564" lon="10.627750329216545"><ele>462.4</ele><time>2026-04-04T08:32:17.998Z</time></trkpt><trkpt lat="43.11444386528141" lon="10.627847530250428"><ele>464.0</ele><time>2026-04-04T08:32:18.998Z</time></trkpt><trkpt lat="43.114498424170556" lon="10.627972060882655"><ele>464.4</ele><time>2026-04-04T08:32:19.998Z</time></trkpt><trkpt lat="43.114544693515114" lon="10.628122246609655"><ele>464.79999999999995</ele><time>2026-04-04T08:32:20.998Z</time></trkpt><trkpt lat="43.114610982739144" lon="10.628278922010692"><ele>465.20000000000005</ele><time>2026-04-04T08:32:21.998Z</time></trkpt><trkpt lat="43.1146763958255" lon="10.628405225786125"><ele>465.6</ele><time>2026-04-04T08:32:22.998Z</time></trkpt><trkpt lat="43.11473206967343" lon="10.628485422744335"><ele>466.0</ele><time>2026-04-04T08:32:23.998Z</time></trkpt><trkpt lat="43.114784972072314" lon="10.628637810496473"><ele>467.75</ele><time>2026-04-04T08:32:24.998Z</time></trkpt><trkpt lat="43.11486112529678" lon="10.628787944848408"><ele>469.5</ele><time>2026-04-04T08:32:25.998Z</time></trkpt><trkpt lat="43.11490391066248" lon="10.62893661366931"><ele>471.25</ele><time>2026-04-04T08:32:26.998Z</time></trkpt><trkpt lat="43.11493313648286" lon="10.629088407131805"><ele>473.0</ele><time>2026-04-04T08:32:27.998Z</time></trkpt><trkpt lat="43.11496196223693" lon="10.629263962496347"><ele>476.0</ele><time>2026-04-04T08:32:28.998Z</time></trkpt><trkpt lat="43.114964415307334" lon="10.62946489982531"><ele>479.0</ele><time>2026-04-04T08:32:29.998Z</time></trkpt><trkpt lat="43.114988611372326" lon="10.62965077726874"><ele>482.0</ele><time>2026-04-04T08:32:30.998Z</time></trkpt><trkpt lat="43.11501003384637" lon="10.629803945468028"><ele>485.0</ele><time>2026-04-04T08:32:31.998Z</time></trkpt><trkpt lat="43.11503401298443" lon="10.629939662426965"><ele>485.8</ele><time>2026-04-04T08:32:32.998Z</time></trkpt><trkpt lat="43.11506134518615" lon="10.630084212520709"><ele>486.6</ele><time>2026-04-04T08:32:33.998Z</time></trkpt><trkpt lat="43.11510145623581" lon="10.630161079918022"><ele>487.4</ele><time>2026-04-04T08:32:34.998Z</time></trkpt><trkpt lat="43.1151659843345" lon="10.630265265685127"><ele>488.2</ele><time>2026-04-04T08:32:35.998Z</time></trkpt><trkpt lat="43.11521311710912" lon="10.630382946494127"><ele>489.0</ele><time>2026-04-04T08:32:36.998Z</time></trkpt><trkpt lat="43.11523386299747" lon="10.630526902604494"><ele>489.0</ele><time>2026-04-04T08:32:37.998Z</time></trkpt><trkpt lat="43.11524588131987" lon="10.63067290084568"><ele>489.0</ele><time>2026-04-04T08:32:39Z</time></trkpt><trkpt lat="43.11526349039066" lon="10.630810396007547"><ele>489.0</ele><time>2026-04-04T08:32:40Z</time></trkpt><trkpt lat="43.1152931430045" lon="10.630939935289607"><ele>489.0</ele><time>2026-04-04T08:32:41Z</time></trkpt><trkpt lat="43.11534849057776" lon="10.631031436103422"><ele>489.0</ele><time>2026-04-04T08:32:42Z</time></trkpt><trkpt lat="43.115408293963945" lon="10.63114646984308"><ele>489.4</ele><time>2026-04-04T08:32:43Z</time></trkpt><trkpt lat="43.115451077207695" lon="10.631264543683539"><ele>489.79999999999995</ele><time>2026-04-04T08:32:44Z</time></trkpt><trkpt lat="43.115540283036296" lon="10.631342873845973"><ele>490.20000000000005</ele><time>2026-04-04T08:32:45Z</time></trkpt><trkpt lat="43.11563368339483" lon="10.6313872215313"><ele>490.6</ele><time>2026-04-04T08:32:46Z</time></trkpt><trkpt lat="43.115726202233624" lon="10.631439109421796"><ele>491.0</ele><time>2026-04-04T08:32:47Z</time></trkpt><trkpt lat="43.115787948302" lon="10.63151774389621"><ele>491.0</ele><time>2026-04-04T08:32:48Z</time></trkpt><trkpt lat="43.115838651753435" lon="10.631625553694192"><ele>491.0</ele><time>2026-04-04T08:32:49Z</time></trkpt><trkpt lat="43.11587198863381" lon="10.631759508232616"><ele>491.0</ele><time>2026-04-04T08:32:50Z</time></trkpt><trkpt lat="43.11592780061898" lon="10.631908480881444"><ele>491.0</ele><time>2026-04-04T08:32:51Z</time></trkpt><trkpt lat="43.1160105406394" lon="10.632080666025171"><ele>492.0</ele><time>2026-04-04T08:32:52Z</time></trkpt><trkpt lat="43.11606870656924" lon="10.632246325696581"><ele>493.0</ele><time>2026-04-04T08:32:53Z</time></trkpt><trkpt lat="43.11613775525973" lon="10.632383804410933"><ele>494.0</ele><time>2026-04-04T08:32:54Z</time></trkpt><trkpt lat="43.11619597272924" lon="10.632506472783428"><ele>495.0</ele><time>2026-04-04T08:32:55Z</time></trkpt><trkpt lat="43.11624397645719" lon="10.632650695496173"><ele>495.0</ele><time>2026-04-04T08:32:56Z</time></trkpt><trkpt lat="43.1162878434323" lon="10.632770259811098"><ele>495.0</ele><time>2026-04-04T08:32:57Z</time></trkpt><trkpt lat="43.116344785278805" lon="10.632862789965662"><ele>495.0</ele><time>2026-04-04T08:32:58Z</time></trkpt><trkpt lat="43.1164371191595" lon="10.632956636012809"><ele>495.0</ele><time>2026-04-04T08:32:59Z</time></trkpt><trkpt lat="43.1165274860038" lon="10.633036259985316"><ele>495.0</ele><time>2026-04-04T08:33:00Z</time></trkpt><trkpt lat="43.11660501792373" lon="10.6331702530488"><ele>494.75</ele><time>2026-04-04T08:33:01Z</time></trkpt><trkpt lat="43.11665768530916" lon="10.633330865473196"><ele>494.5</ele><time>2026-04-04T08:33:02Z</time></trkpt><trkpt lat="43.116701484323535" lon="10.6335172339224"><ele>494.25</ele><time>2026-04-04T08:33:03Z</time></trkpt><trkpt lat="43.116757138882456" lon="10.633695924945073"><ele>494.0</ele><time>2026-04-04T08:33:04Z</time></trkpt><trkpt lat="43.116812520990834" lon="10.633824995565938"><ele>493.2</ele><time>2026-04-04T08:33:05Z</time></trkpt><trkpt lat="43.116866390709355" lon="10.633937448990837"><ele>492.4</ele><time>2026-04-04T08:33:06Z</time></trkpt><trkpt lat="43.1169327018857" lon="10.634021105692256"><ele>491.6</ele><time>2026-04-04T08:33:07Z</time></trkpt><trkpt lat="43.117010508366974" lon="10.634100478722146"><ele>490.8</ele><time>2026-04-04T08:33:08Z</time></trkpt><trkpt lat="43.11711413343047" lon="10.634182031692141"><ele>490.0</ele><time>2026-04-04T08:33:09Z</time></trkpt><trkpt lat="43.117203992452346" lon="10.634294879507292"><ele>490.0</ele><time>2026-04-04T08:33:10Z</time></trkpt><trkpt lat="43.11727828702724" lon="10.634402943288888"><ele>490.0</ele><time>2026-04-04T08:33:11Z</time></trkpt><trkpt lat="43.11731256498432" lon="10.634530841728695"><ele>490.0</ele><time>2026-04-04T08:33:12Z</time></trkpt><trkpt lat="43.11734774124911" lon="10.634655451614922"><ele>490.0</ele><time>2026-04-04T08:33:13Z</time></trkpt><trkpt lat="43.11739564480739" lon="10.634791310259297"><ele>490.0</ele><time>2026-04-04T08:33:14Z</time></trkpt><trkpt lat="43.11744113935565" lon="10.634922515750004"><ele>493.6</ele><time>2026-04-04T08:33:15Z</time></trkpt><trkpt lat="43.11747280897161" lon="10.635075526370771"><ele>497.2</ele><time>2026-04-04T08:33:16Z</time></trkpt><trkpt lat="43.117485927659466" lon="10.635210332030312"><ele>500.79999999999995</ele><time>2026-04-04T08:33:17Z</time></trkpt><trkpt lat="43.117517511146815" lon="10.635309397986045"><ele>504.4</ele><time>2026-04-04T08:33:18Z</time></trkpt><trkpt lat="43.1175594675527" lon="10.635420408946812"><ele>508.0</ele><time>2026-04-04T08:33:18.999Z</time></trkpt><trkpt lat="43.117635518133746" lon="10.635454430056447"><ele>508.59999999999997</ele><time>2026-04-04T08:33:20.999Z</time></trkpt><trkpt lat="43.11770734802782" lon="10.63547287663791"><ele>509.19999999999993</ele><time>2026-04-04T08:33:23.999Z</time></trkpt><trkpt lat="43.11779222905885" lon="10.635516869788663"><ele>509.8</ele><time>2026-04-04T08:33:26.999Z</time></trkpt><trkpt lat="43.117817896703684" lon="10.63565490200682"><ele>510.4</ele><time>2026-04-04T08:33:28.999Z</time></trkpt><trkpt lat="43.11779636623945" lon="10.635763717491292"><ele>511.0</ele><time>2026-04-04T08:33:30.999Z</time></trkpt><trkpt lat="43.11780317906495" lon="10.635918031946243"><ele>511.00000000000006</ele><time>2026-04-04T08:33:33.999Z</time></trkpt><trkpt lat="43.11774009135745" lon="10.63602157775253"><ele>511.0</ele><time>2026-04-04T08:33:34.999Z</time></trkpt><trkpt lat="43.117667484633344" lon="10.636101857003915"><ele>511.0</ele><time>2026-04-04T08:33:35.999Z</time></trkpt><trkpt lat="43.11759239971409" lon="10.63618761378613"><ele>511.0</ele><time>2026-04-04T08:33:36.999Z</time></trkpt><trkpt lat="43.11754451263055" lon="10.636281460484796"><ele>511.00000000000006</ele><time>2026-04-04T08:33:37.999Z</time></trkpt><trkpt lat="43.11750265636623" lon="10.636367741960782"><ele>511.0</ele><time>2026-04-04T08:33:38.999Z</time></trkpt><trkpt lat="43.11745612366895" lon="10.636460646461506"><ele>511.4</ele><time>2026-04-04T08:33:39.999Z</time></trkpt><trkpt lat="43.11741677386219" lon="10.636544844041708"><ele>511.8</ele><time>2026-04-04T08:33:40.999Z</time></trkpt><trkpt lat="43.117358449032835" lon="10.636638951504409"><ele>512.1999999999999</ele><time>2026-04-04T08:33:41.999Z</time></trkpt><trkpt lat="43.11730458891206" lon="10.636711157071813"><ele>512.6</ele><time>2026-04-04T08:33:42.999Z</time></trkpt><trkpt lat="43.117185754937644" lon="10.636798355484231"><ele>513.0</ele><time>2026-04-04T08:33:44.999Z</time></trkpt><trkpt lat="43.11711135924973" lon="10.636845352040238"><ele>512.1666666666666</ele><time>2026-04-04T08:33:45.999Z</time></trkpt><trkpt lat="43.11703389803387" lon="10.636896629988119"><ele>511.33333333333337</ele><time>2026-04-04T08:33:46.999Z</time></trkpt><trkpt lat="43.116969298764964" lon="10.63694507305453"><ele>510.5</ele><time>2026-04-04T08:33:47.999Z</time></trkpt><trkpt lat="43.11690611037708" lon="10.637015159009943"><ele>509.6666666666667</ele><time>2026-04-04T08:33:48.999Z</time></trkpt><trkpt lat="43.11685004313544" lon="10.637064303091034"><ele>508.83333333333337</ele><time>2026-04-04T08:33:49.999Z</time></trkpt><trkpt lat="43.11677138530834" lon="10.637110734301903"><ele>508.0</ele><time>2026-04-04T08:33:50.999Z</time></trkpt><trkpt lat="43.116701823467196" lon="10.637150404712564"><ele>507.28571428571433</ele><time>2026-04-04T08:33:51.999Z</time></trkpt><trkpt lat="43.1166364317204" lon="10.637178262579829"><ele>506.57142857142856</ele><time>2026-04-04T08:33:52.999Z</time></trkpt><trkpt lat="43.116577478616094" lon="10.637224457476364"><ele>505.8571428571429</ele><time>2026-04-04T08:33:53.999Z</time></trkpt><trkpt lat="43.1165173464259" lon="10.63729521677216"><ele>505.14285714285717</ele><time>2026-04-04T08:33:54.999Z</time></trkpt><trkpt lat="43.1164537390909" lon="10.637360589913785"><ele>504.42857142857144</ele><time>2026-04-04T08:33:55.999Z</time></trkpt><trkpt lat="43.116388917002546" lon="10.637432212744363"><ele>503.7142857142857</ele><time>2026-04-04T08:33:56.999Z</time></trkpt><trkpt lat="43.116334589025776" lon="10.637482354015406"><ele>503.0</ele><time>2026-04-04T08:33:57.999Z</time></trkpt><trkpt lat="43.116291799234865" lon="10.637616663511047"><ele>500.49999999999994</ele><time>2026-04-04T08:33:59.999Z</time></trkpt><trkpt lat="43.116295848421544" lon="10.637704055006164"><ele>498.0</ele><time>2026-04-04T08:34:00.999Z</time></trkpt><trkpt lat="43.11628104516417" lon="10.63782024092403"><ele>495.5</ele><time>2026-04-04T08:34:01.999Z</time></trkpt><trkpt lat="43.11624408189978" lon="10.637941102164774"><ele>493.0</ele><time>2026-04-04T08:34:02.999Z</time></trkpt><trkpt lat="43.11620465590265" lon="10.638059676202785"><ele>490.49999999999994</ele><time>2026-04-04T08:34:03.999Z</time></trkpt><trkpt lat="43.11616831865827" lon="10.638154642675824"><ele>488.0</ele><time>2026-04-04T08:34:04.999Z</time></trkpt><trkpt lat="43.11609433702995" lon="10.638327739702262"><ele>487.99999999999994</ele><time>2026-04-04T08:34:06.999Z</time></trkpt><trkpt lat="43.11607355850381" lon="10.638461044664092"><ele>488.0</ele><time>2026-04-04T08:34:07.999Z</time></trkpt><trkpt lat="43.11605991546514" lon="10.638566333983693"><ele>488.0</ele><time>2026-04-04T08:34:08.999Z</time></trkpt><trkpt lat="43.11603383486499" lon="10.638675408871816"><ele>488.0</ele><time>2026-04-04T08:34:09.999Z</time></trkpt><trkpt lat="43.11599380845701" lon="10.638778816154128"><ele>487.99999999999994</ele><time>2026-04-04T08:34:10.999Z</time></trkpt><trkpt lat="43.11594730903072" lon="10.638862155986216"><ele>488.0</ele><time>2026-04-04T08:34:11.998Z</time></trkpt><trkpt lat="43.11590050835333" lon="10.638978960543202"><ele>487.4</ele><time>2026-04-04T08:34:12.998Z</time></trkpt><trkpt lat="43.11585383487467" lon="10.639077344092222"><ele>486.79999999999995</ele><time>2026-04-04T08:34:13.998Z</time></trkpt><trkpt lat="43.11578396020166" lon="10.639164763471532"><ele>486.2</ele><time>2026-04-04T08:34:14.998Z</time></trkpt><trkpt lat="43.11569790943607" lon="10.639249844540387"><ele>485.6</ele><time>2026-04-04T08:34:15.998Z</time></trkpt><trkpt lat="43.11560977831778" lon="10.639334012546726"><ele>485.0</ele><time>2026-04-04T08:34:16.998Z</time></trkpt><trkpt lat="43.11552940367825" lon="10.639423901096734"><ele>484.0</ele><time>2026-04-04T08:34:17.998Z</time></trkpt><trkpt lat="43.115475352448584" lon="10.639508868771285"><ele>483.0</ele><time>2026-04-04T08:34:18.998Z</time></trkpt><trkpt lat="43.11543796131886" lon="10.63958436016606"><ele>482.0</ele><time>2026-04-04T08:34:19.998Z</time></trkpt><trkpt lat="43.11542307905816" lon="10.63972585292953"><ele>481.0</ele><time>2026-04-04T08:34:21.998Z</time></trkpt><trkpt lat="43.115535180087946" lon="10.639845342016455"><ele>480.0</ele><time>2026-04-04T08:34:23.998Z</time></trkpt><trkpt lat="43.11562014450636" lon="10.639917011372434"><ele>480.0</ele><time>2026-04-04T08:34:24.998Z</time></trkpt><trkpt lat="43.11571790847254" lon="10.640015387339453"><ele>480.0</ele><time>2026-04-04T08:34:25.998Z</time></trkpt><trkpt lat="43.11581380566396" lon="10.640138037440812"><ele>480.0</ele><time>2026-04-04T08:34:26.998Z</time></trkpt><trkpt lat="43.1159053432211" lon="10.64027726200806"><ele>480.0</ele><time>2026-04-04T08:34:27.998Z</time></trkpt><trkpt lat="43.11597361910173" lon="10.640407699180356"><ele>478.6</ele><time>2026-04-04T08:34:28.998Z</time></trkpt><trkpt lat="43.11603387535509" lon="10.640555233756457"><ele>477.2</ele><time>2026-04-04T08:34:29.998Z</time></trkpt><trkpt lat="43.11608366910848" lon="10.640702883626059"><ele>475.79999999999995</ele><time>2026-04-04T08:34:30.998Z</time></trkpt><trkpt lat="43.11612975091377" lon="10.64081972463682"><ele>474.4</ele><time>2026-04-04T08:34:31.998Z</time></trkpt><trkpt lat="43.11618776124141" lon="10.64091298357334"><ele>473.0</ele><time>2026-04-04T08:34:32.998Z</time></trkpt><trkpt lat="43.116245108976834" lon="10.640982041826252"><ele>472.99999999999994</ele><time>2026-04-04T08:34:33.998Z</time></trkpt><trkpt lat="43.11629497160034" lon="10.641056716887226"><ele>473.0</ele><time>2026-04-04T08:34:36.998Z</time></trkpt><trkpt lat="43.11631976585645" lon="10.641164077138166"><ele>473.0</ele><time>2026-04-04T08:34:50Z</time></trkpt><trkpt lat="43.11632832084879" lon="10.641267773583118"><ele>473.0</ele><time>2026-04-04T08:34:52Z</time></trkpt><trkpt lat="43.11639590041824" lon="10.641239147063075"><ele>472.99999999999994</ele><time>2026-04-04T08:34:55Z</time></trkpt><trkpt lat="43.116360910605074" lon="10.641162098477968"><ele>473.0</ele><time>2026-04-04T08:34:58Z</time></trkpt><trkpt lat="43.11630192240314" lon="10.641085536879368"><ele>473.0</ele><time>2026-04-04T08:38:58Z</time></trkpt><trkpt lat="43.11623910801138" lon="10.640979741725786"><ele>472.99999999999994</ele><time>2026-04-04T08:39:00Z</time></trkpt><trkpt lat="43.11615690409135" lon="10.641101179383751"><ele>472.99999999999994</ele><time>2026-04-04T08:39:04Z</time></trkpt><trkpt lat="43.116112085802314" lon="10.64117250365257"><ele>473.0</ele><time>2026-04-04T08:39:05Z</time></trkpt><trkpt lat="43.116062063182724" lon="10.641236640710668"><ele>473.0</ele><time>2026-04-04T08:39:06Z</time></trkpt><trkpt lat="43.116036672091916" lon="10.641366793006707"><ele>472.4</ele><time>2026-04-04T08:39:07Z</time></trkpt><trkpt lat="43.11597449265745" lon="10.641477722140733"><ele>471.79999999999995</ele><time>2026-04-04T08:39:08Z</time></trkpt><trkpt lat="43.1159034729435" lon="10.641587899838067"><ele>471.2</ele><time>2026-04-04T08:39:09Z</time></trkpt><trkpt lat="43.11583553750181" lon="10.641684081636829"><ele>470.6</ele><time>2026-04-04T08:39:10Z</time></trkpt><trkpt lat="43.115765437279634" lon="10.641770314856464"><ele>470.0</ele><time>2026-04-04T08:39:11Z</time></trkpt><trkpt lat="43.115697218000534" lon="10.641851114825162"><ele>468.2</ele><time>2026-04-04T08:39:12Z</time></trkpt><trkpt lat="43.115615601652486" lon="10.641931818909056"><ele>466.4</ele><time>2026-04-04T08:39:13Z</time></trkpt><trkpt lat="43.11552828275697" lon="10.641998053159094"><ele>464.6</ele><time>2026-04-04T08:39:14Z</time></trkpt><trkpt lat="43.1154551781539" lon="10.642052338507606"><ele>462.8</ele><time>2026-04-04T08:39:15Z</time></trkpt><trkpt lat="43.11539002616671" lon="10.64213162200625"><ele>461.0</ele><time>2026-04-04T08:39:16Z</time></trkpt><trkpt lat="43.11530859702353" lon="10.642203842766131"><ele>461.0</ele><time>2026-04-04T08:39:17Z</time></trkpt><trkpt lat="43.11523585861691" lon="10.642332604793285"><ele>461.0</ele><time>2026-04-04T08:39:18Z</time></trkpt><trkpt lat="43.11518895592311" lon="10.642463635151284"><ele>461.0</ele><time>2026-04-04T08:39:19Z</time></trkpt><trkpt lat="43.115143313376755" lon="10.64256297607193"><ele>461.0</ele><time>2026-04-04T08:39:20Z</time></trkpt><trkpt lat="43.11507692304658" lon="10.642694411042044"><ele>461.0</ele><time>2026-04-04T08:39:22Z</time></trkpt><trkpt lat="43.115021547873035" lon="10.642796213335574"><ele>461.16666666666663</ele><time>2026-04-04T08:39:24Z</time></trkpt><trkpt lat="43.11496069948607" lon="10.64293394078378"><ele>461.3333333333333</ele><time>2026-04-04T08:39:26Z</time></trkpt><trkpt lat="43.11493490309124" lon="10.643035047877522"><ele>461.5</ele><time>2026-04-04T08:39:27Z</time></trkpt><trkpt lat="43.11491568282952" lon="10.643155822247753"><ele>461.66666666666663</ele><time>2026-04-04T08:39:28Z</time></trkpt><trkpt lat="43.11492237106497" lon="10.643259001092366"><ele>461.8333333333333</ele><time>2026-04-04T08:39:29Z</time></trkpt><trkpt lat="43.11491224176262" lon="10.643377235210385"><ele>462.0</ele><time>2026-04-04T08:39:30Z</time></trkpt><trkpt lat="43.11489822387537" lon="10.643464464249648"><ele>459.20000000000005</ele><time>2026-04-04T08:39:31Z</time></trkpt><trkpt lat="43.114848714317915" lon="10.64357356067078"><ele>456.40000000000003</ele><time>2026-04-04T08:39:33Z</time></trkpt><trkpt lat="43.11478025668992" lon="10.64357629962044"><ele>453.59999999999997</ele><time>2026-04-04T08:39:35.999Z</time></trkpt><trkpt lat="43.11470079991757" lon="10.643625714029719"><ele>450.79999999999995</ele><time>2026-04-04T08:39:40.999Z</time></trkpt><trkpt lat="43.114614506180445" lon="10.643678667324782"><ele>448.0</ele><time>2026-04-04T08:39:42.999Z</time></trkpt><trkpt lat="43.11472414316342" lon="10.644056894667598"><ele>447.4</ele><time>2026-04-04T08:39:44.999Z</time></trkpt><trkpt lat="43.11480800264553" lon="10.644157638647565"><ele>446.79999999999995</ele><time>2026-04-04T08:39:46.999Z</time></trkpt><trkpt lat="43.11485569376255" lon="10.64432020382841"><ele>446.2</ele><time>2026-04-04T08:39:48.999Z</time></trkpt><trkpt lat="43.114865467820785" lon="10.644411941439234"><ele>445.6</ele><time>2026-04-04T08:39:49.999Z</time></trkpt><trkpt lat="43.11488059178943" lon="10.644508697363992"><ele>445.0</ele><time>2026-04-04T08:39:50.999Z</time></trkpt><trkpt lat="43.114904185551985" lon="10.64460555145457"><ele>444.83333333333337</ele><time>2026-04-04T08:39:51.999Z</time></trkpt><trkpt lat="43.11493252550803" lon="10.644692894127182"><ele>444.6666666666667</ele><time>2026-04-04T08:39:52.999Z</time></trkpt><trkpt lat="43.11497039800188" lon="10.644763432290528"><ele>444.5</ele><time>2026-04-04T08:39:53.999Z</time></trkpt><trkpt lat="43.11502026396795" lon="10.644830214552044"><ele>444.33333333333337</ele><time>2026-04-04T08:39:54.999Z</time></trkpt><trkpt lat="43.11505931672557" lon="10.64489805580223"><ele>444.1666666666667</ele><time>2026-04-04T08:39:55.999Z</time></trkpt><trkpt lat="43.115088053164285" lon="10.644980132580535"><ele>444.0</ele><time>2026-04-04T08:39:56.999Z</time></trkpt><trkpt lat="43.115174650356785" lon="10.645117783204007"><ele>444.0</ele><time>2026-04-04T08:39:58.999Z</time></trkpt><trkpt lat="43.1152260707163" lon="10.645248512289415"><ele>444.0</ele><time>2026-04-04T08:40:00.999Z</time></trkpt><trkpt lat="43.11516901689721" lon="10.645382000267533"><ele>444.0</ele><time>2026-04-04T08:40:02.999Z</time></trkpt><trkpt lat="43.1151848457572" lon="10.645484642076472"><ele>444.0</ele><time>2026-04-04T08:40:04.999Z</time></trkpt><trkpt lat="43.1151849878609" lon="10.64563986379991"><ele>444.0</ele><time>2026-04-04T08:40:06.999Z</time></trkpt><trkpt lat="43.1151110315057" lon="10.645759810676882"><ele>441.2</ele><time>2026-04-04T08:40:08.999Z</time></trkpt><trkpt lat="43.115024780404774" lon="10.645813325986355"><ele>438.4</ele><time>2026-04-04T08:40:10.999Z</time></trkpt><trkpt lat="43.11491630743912" lon="10.645858287725396"><ele>435.6</ele><time>2026-04-04T08:40:12.999Z</time></trkpt><trkpt lat="43.11484741196804" lon="10.645982154915535"><ele>432.8</ele><time>2026-04-04T08:40:14.999Z</time></trkpt><trkpt lat="43.11480776651008" lon="10.646053520174707"><ele>430.0</ele><time>2026-04-04T08:40:15.999Z</time></trkpt><trkpt lat="43.114708213196245" lon="10.646147788281814"><ele>427.00000000000006</ele><time>2026-04-04T08:40:17.999Z</time></trkpt><trkpt lat="43.11467607029812" lon="10.646281272316912"><ele>424.0</ele><time>2026-04-04T08:40:19.999Z</time></trkpt><trkpt lat="43.114725569714736" lon="10.646418685689529"><ele>421.0</ele><time>2026-04-04T08:40:21.999Z</time></trkpt><trkpt lat="43.11474904214016" lon="10.646512950963634"><ele>418.0</ele><time>2026-04-04T08:40:22.999Z</time></trkpt><trkpt lat="43.11475318428626" lon="10.6466087736265"><ele>415.00000000000006</ele><time>2026-04-04T08:40:23.999Z</time></trkpt><trkpt lat="43.11474229725554" lon="10.646724489671373"><ele>412.0</ele><time>2026-04-04T08:40:24.999Z</time></trkpt><trkpt lat="43.11473825712815" lon="10.646832516464965"><ele>412.00000000000006</ele><time>2026-04-04T08:40:25.999Z</time></trkpt><trkpt lat="43.11472218213108" lon="10.646943483889519"><ele>412.0</ele><time>2026-04-04T08:40:26.999Z</time></trkpt><trkpt lat="43.11471674563874" lon="10.64703836035426"><ele>412.0</ele><time>2026-04-04T08:40:27.999Z</time></trkpt><trkpt lat="43.11470967709861" lon="10.647136942172239"><ele>412.0</ele><time>2026-04-04T08:40:28.998Z</time></trkpt><trkpt lat="43.11470388796261" lon="10.647234957773673"><ele>412.00000000000006</ele><time>2026-04-04T08:40:29.998Z</time></trkpt><trkpt lat="43.114723235137475" lon="10.64739820580831"><ele>412.0</ele><time>2026-04-04T08:40:31.998Z</time></trkpt><trkpt lat="43.11474482693182" lon="10.647518807459413"><ele>410.50000000000006</ele><time>2026-04-04T08:40:33.998Z</time></trkpt><trkpt lat="43.114769443832046" lon="10.647631212420722"><ele>409.0</ele><time>2026-04-04T08:40:35.998Z</time></trkpt><trkpt lat="43.11476371333973" lon="10.647769577324341"><ele>407.5</ele><time>2026-04-04T08:40:37.998Z</time></trkpt><trkpt lat="43.11477979315676" lon="10.647859714498196"><ele>406.0</ele><time>2026-04-04T08:40:40.998Z</time></trkpt><trkpt lat="43.114785704191355" lon="10.647952261614085"><ele>404.50000000000006</ele><time>2026-04-04T08:40:44.998Z</time></trkpt><trkpt lat="43.11477973336523" lon="10.64785750864735"><ele>403.0</ele><time>2026-04-04T08:42:15.999Z</time></trkpt><trkpt lat="43.11475837533931" lon="10.647754789177698"><ele>403.0</ele><time>2026-04-04T08:42:18.999Z</time></trkpt><trkpt lat="43.11475686660941" lon="10.647616944832848"><ele>403.0</ele><time>2026-04-04T08:44:34.999Z</time></trkpt><trkpt lat="43.1147332955953" lon="10.647468560648353"><ele>403.0</ele><time>2026-04-04T08:44:36.999Z</time></trkpt><trkpt lat="43.114715205932775" lon="10.64735914042613"><ele>403.0</ele><time>2026-04-04T08:44:38.999Z</time></trkpt><trkpt lat="43.114706406961794" lon="10.647221649334627"><ele>403.0</ele><time>2026-04-04T08:44:40.999Z</time></trkpt><trkpt lat="43.11471432968559" lon="10.64709921306797"><ele>403.00000000000006</ele><time>2026-04-04T08:44:42.998Z</time></trkpt><trkpt lat="43.114721816841936" lon="10.64697496802155"><ele>403.0</ele><time>2026-04-04T08:44:44.998Z</time></trkpt><trkpt lat="43.114749179064546" lon="10.646867973128156"><ele>403.0</ele><time>2026-04-04T08:44:46.998Z</time></trkpt><trkpt lat="43.11472171600352" lon="10.646758120432976"><ele>403.0</ele><time>2026-04-04T08:45:06.998Z</time></trkpt><trkpt lat="43.11472550564467" lon="10.646669258886044"><ele>403.00000000000006</ele><time>2026-04-04T08:45:07.998Z</time></trkpt><trkpt lat="43.114750436379765" lon="10.646549035627286"><ele>403.0</ele><time>2026-04-04T08:45:08.998Z</time></trkpt><trkpt lat="43.11473495982556" lon="10.646412176611538"><ele>404.2857142857143</ele><time>2026-04-04T08:45:09.998Z</time></trkpt><trkpt lat="43.114700337342285" lon="10.646324429784935"><ele>405.57142857142856</ele><time>2026-04-04T08:45:10.998Z</time></trkpt><trkpt lat="43.114670071366945" lon="10.646246445529425"><ele>406.85714285714283</ele><time>2026-04-04T08:45:11.998Z</time></trkpt><trkpt lat="43.11469876162344" lon="10.646129540942365"><ele>408.1428571428571</ele><time>2026-04-04T08:45:13.998Z</time></trkpt><trkpt lat="43.11475298907446" lon="10.64607744233275"><ele>409.42857142857144</ele><time>2026-04-04T08:45:15Z</time></trkpt><trkpt lat="43.11481798245825" lon="10.646035781339535"><ele>410.71428571428567</ele><time>2026-04-04T08:45:16Z</time></trkpt><trkpt lat="43.11486312561267" lon="10.6459692742294"><ele>412.0</ele><time>2026-04-04T08:45:17Z</time></trkpt><trkpt lat="43.11490997122744" lon="10.645879380049807"><ele>415.6</ele><time>2026-04-04T08:45:18Z</time></trkpt><trkpt lat="43.11496203123792" lon="10.645805382982047"><ele>419.20000000000005</ele><time>2026-04-04T08:45:19Z</time></trkpt><trkpt lat="43.11507415149694" lon="10.645779360662983"><ele>422.8</ele><time>2026-04-04T08:45:21Z</time></trkpt><trkpt lat="43.11513118218193" lon="10.645740058725208"><ele>426.4</ele><time>2026-04-04T08:45:22Z</time></trkpt><trkpt lat="43.115167002466094" lon="10.645612112637512"><ele>430.0</ele><time>2026-04-04T08:45:24Z</time></trkpt><trkpt lat="43.115174280733555" lon="10.645468052820751"><ele>430.00000000000006</ele><time>2026-04-04T08:45:26Z</time></trkpt><trkpt lat="43.115170550421524" lon="10.645328251642178"><ele>430.0</ele><time>2026-04-04T08:45:28Z</time></trkpt><trkpt lat="43.115181385261856" lon="10.645240956689559"><ele>430.0</ele><time>2026-04-04T08:45:29Z</time></trkpt><trkpt lat="43.11516008381125" lon="10.645126656571438"><ele>430.0</ele><time>2026-04-04T08:45:31Z</time></trkpt><trkpt lat="43.11508213503973" lon="10.645026271506014"><ele>430.00000000000006</ele><time>2026-04-04T08:45:33Z</time></trkpt><trkpt lat="43.11503185606353" lon="10.644956826732058"><ele>430.0</ele><time>2026-04-04T08:45:34Z</time></trkpt><trkpt lat="43.115019177840324" lon="10.644866051081245"><ele>430.8</ele><time>2026-04-04T08:45:35Z</time></trkpt><trkpt lat="43.114971733707364" lon="10.64478249263011"><ele>431.6</ele><time>2026-04-04T08:45:36Z</time></trkpt><trkpt lat="43.11493275697306" lon="10.644683043332952"><ele>432.4</ele><time>2026-04-04T08:45:37Z</time></trkpt><trkpt lat="43.11490086235895" lon="10.644578712978957"><ele>433.2</ele><time>2026-04-04T08:45:38Z</time></trkpt><trkpt lat="43.11484436100256" lon="10.64439219413131"><ele>434.0</ele><time>2026-04-04T08:45:40Z</time></trkpt><trkpt lat="43.11482546151859" lon="10.644266999057612"><ele>435.8333333333333</ele><time>2026-04-04T08:45:41Z</time></trkpt><trkpt lat="43.11480334404872" lon="10.644156218153755"><ele>437.66666666666663</ele><time>2026-04-04T08:45:42Z</time></trkpt><trkpt lat="43.11476400548269" lon="10.644077202545205"><ele>439.5</ele><time>2026-04-04T08:45:43Z</time></trkpt><trkpt lat="43.1147264597607" lon="10.643959460762698"><ele>441.33333333333337</ele><time>2026-04-04T08:45:45Z</time></trkpt><trkpt lat="43.114737682570095" lon="10.643801482949302"><ele>443.1666666666667</ele><time>2026-04-04T08:45:47Z</time></trkpt><trkpt lat="43.114757553620514" lon="10.643699315257136"><ele>445.0</ele><time>2026-04-04T08:45:49Z</time></trkpt><trkpt lat="43.114693362097654" lon="10.64368955858225"><ele>445.00000000000006</ele><time>2026-04-04T08:45:51Z</time></trkpt><trkpt lat="43.11460933151226" lon="10.64367073233318"><ele>445.0</ele><time>2026-04-04T08:45:52Z</time></trkpt><trkpt lat="43.114514491190064" lon="10.643642910543546"><ele>445.0</ele><time>2026-04-04T08:45:53Z</time></trkpt><trkpt lat="43.11441699196426" lon="10.643619310765082"><ele>445.0</ele><time>2026-04-04T08:45:54Z</time></trkpt><trkpt lat="43.114338833151805" lon="10.643587957826712"><ele>445.00000000000006</ele><time>2026-04-04T08:45:54.999Z</time></trkpt><trkpt lat="43.114265433722984" lon="10.643557486206207"><ele>445.0</ele><time>2026-04-04T08:45:55.999Z</time></trkpt><trkpt lat="43.11417074036527" lon="10.643549125352258"><ele>445.50000000000006</ele><time>2026-04-04T08:45:56.999Z</time></trkpt><trkpt lat="43.1140955115887" lon="10.643560084863632"><ele>446.0</ele><time>2026-04-04T08:45:57.999Z</time></trkpt><trkpt lat="43.114016166197274" lon="10.643598431000928"><ele>446.5</ele><time>2026-04-04T08:45:58.999Z</time></trkpt><trkpt lat="43.11391949799768" lon="10.643621316796569"><ele>447.0</ele><time>2026-04-04T08:45:59.999Z</time></trkpt><trkpt lat="43.113835894666934" lon="10.643601712454258"><ele>447.50000000000006</ele><time>2026-04-04T08:46:00.999Z</time></trkpt><trkpt lat="43.11376082025743" lon="10.643578586170825"><ele>448.0</ele><time>2026-04-04T08:46:01.999Z</time></trkpt><trkpt lat="43.1136812799521" lon="10.643594744839303"><ele>446.50000000000006</ele><time>2026-04-04T08:46:02.999Z</time></trkpt><trkpt lat="43.1136033326266" lon="10.643546952463344"><ele>445.0</ele><time>2026-04-04T08:46:03.999Z</time></trkpt><trkpt lat="43.11354164849929" lon="10.643603442107926"><ele>443.5</ele><time>2026-04-04T08:46:04.999Z</time></trkpt><trkpt lat="43.11348770180433" lon="10.643698622895405"><ele>442.0</ele><time>2026-04-04T08:46:05.999Z</time></trkpt><trkpt lat="43.11343539891025" lon="10.643790905124709"><ele>440.50000000000006</ele><time>2026-04-04T08:46:06.999Z</time></trkpt><trkpt lat="43.11337711927617" lon="10.6439168847262"><ele>439.0</ele><time>2026-04-04T08:46:07.999Z</time></trkpt><trkpt lat="43.113334383077806" lon="10.64403492355979"><ele>438.79999999999995</ele><time>2026-04-04T08:46:08.999Z</time></trkpt><trkpt lat="43.113289118950085" lon="10.64416664220015"><ele>438.59999999999997</ele><time>2026-04-04T08:46:09.999Z</time></trkpt><trkpt lat="43.11324280009253" lon="10.644287906939319"><ele>438.4</ele><time>2026-04-04T08:46:10.999Z</time></trkpt><trkpt lat="43.11319114526479" lon="10.644402071416877"><ele>438.2</ele><time>2026-04-04T08:46:11.999Z</time></trkpt><trkpt lat="43.1131240330575" lon="10.644521015411947"><ele>438.0</ele><time>2026-04-04T08:46:12.999Z</time></trkpt><trkpt lat="43.1130584897797" lon="10.644630489153242"><ele>438.0</ele><time>2026-04-04T08:46:13.999Z</time></trkpt><trkpt lat="43.11300175559917" lon="10.644732626385926"><ele>437.99999999999994</ele><time>2026-04-04T08:46:14.999Z</time></trkpt><trkpt lat="43.11294666167725" lon="10.644825267548626"><ele>437.99999999999994</ele><time>2026-04-04T08:46:15.999Z</time></trkpt><trkpt lat="43.11289116427412" lon="10.644881917037235"><ele>438.0</ele><time>2026-04-04T08:46:16.999Z</time></trkpt><trkpt lat="43.11282288404759" lon="10.645027597485274"><ele>438.0</ele><time>2026-04-04T08:46:18.999Z</time></trkpt><trkpt lat="43.11254603147452" lon="10.64517816722182"><ele>438.0</ele><time>2026-04-04T08:46:19.999Z</time></trkpt><trkpt lat="43.11253679313725" lon="10.64527898561214"><ele>437.99999999999994</ele><time>2026-04-04T08:46:22.999Z</time></trkpt><trkpt lat="43.112496857282984" lon="10.645376171924779"><ele>437.99999999999994</ele><time>2026-04-04T08:46:24.999Z</time></trkpt><trkpt lat="43.11247676792478" lon="10.645461790548707"><ele>438.0</ele><time>2026-04-04T08:46:25.999Z</time></trkpt><trkpt lat="43.11253275405843" lon="10.645584988619856"><ele>438.0</ele><time>2026-04-04T08:46:27.999Z</time></trkpt><trkpt lat="43.11286109362268" lon="10.645659443209363"><ele>438.0</ele><time>2026-04-04T08:46:28.999Z</time></trkpt><trkpt lat="43.11298703132021" lon="10.64566848482137"><ele>437.99999999999994</ele><time>2026-04-04T08:46:30.999Z</time></trkpt><trkpt lat="43.113063711618786" lon="10.645687432448932"><ele>437.99999999999994</ele><time>2026-04-04T08:46:31.999Z</time></trkpt><trkpt lat="43.113173590153984" lon="10.645715526293268"><ele>438.0</ele><time>2026-04-04T08:46:33.999Z</time></trkpt><trkpt lat="43.11325664807559" lon="10.645799279047349"><ele>438.0</ele><time>2026-04-04T08:46:35.999Z</time></trkpt><trkpt lat="43.11331160358716" lon="10.645858695397836"><ele>436.5</ele><time>2026-04-04T08:46:36.999Z</time></trkpt><trkpt lat="43.113363563866706" lon="10.645916376796507"><ele>435.0</ele><time>2026-04-04T08:46:37.999Z</time></trkpt><trkpt lat="43.11347400556862" lon="10.645945590642258"><ele>433.5</ele><time>2026-04-04T08:46:39.999Z</time></trkpt><trkpt lat="43.11354658358521" lon="10.64594185062606"><ele>432.0</ele><time>2026-04-04T08:46:41.999Z</time></trkpt><trkpt lat="43.11362056103647" lon="10.645957515080504"><ele>430.5</ele><time>2026-04-04T08:46:43.999Z</time></trkpt><trkpt lat="43.11368106773038" lon="10.646007854321393"><ele>429.0</ele><time>2026-04-04T08:46:45.999Z</time></trkpt><trkpt lat="43.11373675392038" lon="10.64610180228888"><ele>426.79999999999995</ele><time>2026-04-04T08:46:47.999Z</time></trkpt><trkpt lat="43.11375867148276" lon="10.646258177454866"><ele>424.59999999999997</ele><time>2026-04-04T08:46:49.998Z</time></trkpt><trkpt lat="43.113790841734605" lon="10.646406547034788"><ele>422.4</ele><time>2026-04-04T08:46:51.998Z</time></trkpt><trkpt lat="43.11380292005214" lon="10.646525895875389"><ele>420.2</ele><time>2026-04-04T08:46:53.998Z</time></trkpt><trkpt lat="43.11386223864484" lon="10.646649012608654"><ele>418.0</ele><time>2026-04-04T08:46:55.998Z</time></trkpt><trkpt lat="43.113926941372135" lon="10.646777920853081"><ele>418.0</ele><time>2026-04-04T08:46:57.998Z</time></trkpt><trkpt lat="43.11391215323635" lon="10.64689041566619"><ele>418.0</ele><time>2026-04-04T08:46:59.998Z</time></trkpt><trkpt lat="43.113815456017335" lon="10.646926216947135"><ele>418.0</ele><time>2026-04-04T08:47:01.998Z</time></trkpt><trkpt lat="43.1136954164609" lon="10.646866083631144"><ele>418.0</ele><time>2026-04-04T08:47:03.998Z</time></trkpt><trkpt lat="43.11362820914394" lon="10.646827710310037"><ele>418.0</ele><time>2026-04-04T08:47:04.998Z</time></trkpt><trkpt lat="43.11356553003802" lon="10.646770575598234"><ele>418.0</ele><time>2026-04-04T08:47:05.998Z</time></trkpt><trkpt lat="43.11346705247523" lon="10.646725157934826"><ele>418.0</ele><time>2026-04-04T08:47:07.998Z</time></trkpt><trkpt lat="43.11340525695802" lon="10.646814657350497"><ele>418.0</ele><time>2026-04-04T08:47:09.998Z</time></trkpt><trkpt lat="43.1134381056191" lon="10.646964823146378"><ele>418.0</ele><time>2026-04-04T08:47:11.998Z</time></trkpt><trkpt lat="43.11350580983003" lon="10.647093827754414"><ele>418.0</ele><time>2026-04-04T08:47:13.998Z</time></trkpt><trkpt lat="43.113573819434485" lon="10.647198637773203"><ele>416.0</ele><time>2026-04-04T08:47:15.998Z</time></trkpt><trkpt lat="43.11360648955598" lon="10.647337585555153"><ele>414.0</ele><time>2026-04-04T08:47:17.998Z</time></trkpt><trkpt lat="43.11366643902044" lon="10.647468223027362"><ele>412.0</ele><time>2026-04-04T08:47:19.998Z</time></trkpt><trkpt lat="43.11370166326715" lon="10.647579336473811"><ele>410.0</ele><time>2026-04-04T08:47:22Z</time></trkpt><trkpt lat="43.11378006412395" lon="10.64772849006806"><ele>408.0</ele><time>2026-04-04T08:47:24Z</time></trkpt><trkpt lat="43.113833228668014" lon="10.647802241991833"><ele>406.5</ele><time>2026-04-04T08:47:25Z</time></trkpt><trkpt lat="43.11387240163687" lon="10.647873467174342"><ele>405.0</ele><time>2026-04-04T08:47:26Z</time></trkpt><trkpt lat="43.11387444609037" lon="10.647994748566306"><ele>403.5</ele><time>2026-04-04T08:47:28Z</time></trkpt><trkpt lat="43.113860790728296" lon="10.648122133136347"><ele>402.0</ele><time>2026-04-04T08:47:30Z</time></trkpt><trkpt lat="43.11385640925673" lon="10.648244092972558"><ele>400.5</ele><time>2026-04-04T08:47:32Z</time></trkpt><trkpt lat="43.11385153374222" lon="10.648385109823302"><ele>399.0</ele><time>2026-04-04T08:47:34Z</time></trkpt><trkpt lat="43.113841578644745" lon="10.64847154885446"><ele>399.0</ele><time>2026-04-04T08:47:35Z</time></trkpt><trkpt lat="43.11385714683605" lon="10.64859117541436"><ele>399.0</ele><time>2026-04-04T08:47:36Z</time></trkpt><trkpt lat="43.11388356537043" lon="10.648725680097746"><ele>399.0</ele><time>2026-04-04T08:47:37Z</time></trkpt><trkpt lat="43.113917396789134" lon="10.64882363093469"><ele>399.0</ele><time>2026-04-04T08:47:38Z</time></trkpt><trkpt lat="43.11395554289037" lon="10.648935938074228"><ele>399.0</ele><time>2026-04-04T08:47:39Z</time></trkpt><trkpt lat="43.114005917272245" lon="10.649062383214586"><ele>395.79999999999995</ele><time>2026-04-04T08:47:40Z</time></trkpt><trkpt lat="43.11404769684801" lon="10.649175744019757"><ele>392.59999999999997</ele><time>2026-04-04T08:47:41Z</time></trkpt><trkpt lat="43.11408302549564" lon="10.649270766782626"><ele>389.4</ele><time>2026-04-04T08:47:42Z</time></trkpt><trkpt lat="43.114125357699855" lon="10.649395828142787"><ele>386.2</ele><time>2026-04-04T08:47:44Z</time></trkpt><trkpt lat="43.11423321980221" lon="10.64932883616489"><ele>383.0</ele><time>2026-04-04T08:47:46Z</time></trkpt><trkpt lat="43.11433434603686" lon="10.649321873538229"><ele>383.0</ele><time>2026-04-04T08:47:47Z</time></trkpt><trkpt lat="43.11440258582775" lon="10.649252174420985"><ele>383.0</ele><time>2026-04-04T08:47:48Z</time></trkpt><trkpt lat="43.1144906345292" lon="10.649212043217869"><ele>383.0</ele><time>2026-04-04T08:47:49Z</time></trkpt><trkpt lat="43.11457012291465" lon="10.649225672949816"><ele>383.0</ele><time>2026-04-04T08:47:50Z</time></trkpt><trkpt lat="43.1146437735302" lon="10.649224771183734"><ele>383.0</ele><time>2026-04-04T08:47:52Z</time></trkpt><trkpt lat="43.11474318653154" lon="10.649190120382125"><ele>383.0</ele><time>2026-04-04T08:47:55Z</time></trkpt><trkpt lat="43.114866053512785" lon="10.649157692179271"><ele>382.0</ele><time>2026-04-04T08:47:56.999Z</time></trkpt><trkpt lat="43.11493225403075" lon="10.649137296787798"><ele>381.0</ele><time>2026-04-04T08:47:57.999Z</time></trkpt><trkpt lat="43.114999393047896" lon="10.64911084834525"><ele>380.0</ele><time>2026-04-04T08:47:58.999Z</time></trkpt><trkpt lat="43.11506453728257" lon="10.64910895789112"><ele>379.0</ele><time>2026-04-04T08:47:59.999Z</time></trkpt><trkpt lat="43.115111585577225" lon="10.649050042444118"><ele>378.0</ele><time>2026-04-04T08:48:00.999Z</time></trkpt><trkpt lat="43.1152031900841" lon="10.648945286387205"><ele>377.0</ele><time>2026-04-04T08:48:02.999Z</time></trkpt><trkpt lat="43.1152818023884" lon="10.648889034688798"><ele>377.0</ele><time>2026-04-04T08:48:05.999Z</time></trkpt><trkpt lat="43.115361349291284" lon="10.648935028194696"><ele>377.0</ele><time>2026-04-04T08:48:06.999Z</time></trkpt><trkpt lat="43.11542410230327" lon="10.648912423461216"><ele>377.0</ele><time>2026-04-04T08:48:07.999Z</time></trkpt><trkpt lat="43.11549526945132" lon="10.6488531476351"><ele>377.0</ele><time>2026-04-04T08:48:09.999Z</time></trkpt><trkpt lat="43.11556975305506" lon="10.648774175803526"><ele>377.0</ele><time>2026-04-04T08:48:11.999Z</time></trkpt><trkpt lat="43.115624793141485" lon="10.648657572817614"><ele>377.0</ele><time>2026-04-04T08:48:13.999Z</time></trkpt><trkpt lat="43.115635982359194" lon="10.648561357272028"><ele>375.40000000000003</ele><time>2026-04-04T08:48:14.999Z</time></trkpt><trkpt lat="43.11566270643503" lon="10.648471335024038"><ele>373.8</ele><time>2026-04-04T08:48:15.999Z</time></trkpt><trkpt lat="43.11568330874321" lon="10.648387130003812"><ele>372.2</ele><time>2026-04-04T08:48:16.999Z</time></trkpt><trkpt lat="43.115715989346995" lon="10.648298319395446"><ele>370.6</ele><time>2026-04-04T08:48:18.999Z</time></trkpt><trkpt lat="43.115747903040884" lon="10.648202623114523"><ele>369.0</ele><time>2026-04-04T08:50:06.999Z</time></trkpt><trkpt lat="43.11569844770942" lon="10.64842187245157"><ele>370.3333333333333</ele><time>2026-04-04T08:50:14.999Z</time></trkpt><trkpt lat="43.11567061563146" lon="10.648517291636715"><ele>371.6666666666667</ele><time>2026-04-04T08:50:15.999Z</time></trkpt><trkpt lat="43.11565806597747" lon="10.648619584979155"><ele>373.0</ele><time>2026-04-04T08:50:16.999Z</time></trkpt><trkpt lat="43.115626934354836" lon="10.64871345952978"><ele>374.33333333333337</ele><time>2026-04-04T08:50:17.999Z</time></trkpt><trkpt lat="43.11555054771063" lon="10.648859008549215"><ele>375.6666666666667</ele><time>2026-04-04T08:50:19.999Z</time></trkpt><trkpt lat="43.11549853320023" lon="10.648922403675563"><ele>377.0</ele><time>2026-04-04T08:50:20.999Z</time></trkpt><trkpt lat="43.11543020283302" lon="10.648955635520467"><ele>377.0</ele><time>2026-04-04T08:50:21.999Z</time></trkpt><trkpt lat="43.11535888405158" lon="10.648975114567172"><ele>377.0</ele><time>2026-04-04T08:50:22.999Z</time></trkpt><trkpt lat="43.11528620373469" lon="10.649003393594072"><ele>377.0</ele><time>2026-04-04T08:50:23.999Z</time></trkpt><trkpt lat="43.115212027733726" lon="10.649052201933172"><ele>377.0</ele><time>2026-04-04T08:50:24.999Z</time></trkpt><trkpt lat="43.11512835694271" lon="10.649131285036706"><ele>377.0</ele><time>2026-04-04T08:50:25.999Z</time></trkpt><trkpt lat="43.11505030643967" lon="10.64918253598641"><ele>377.0</ele><time>2026-04-04T08:50:26.999Z</time></trkpt><trkpt lat="43.1149380457826" lon="10.649089010748497"><ele>378.0</ele><time>2026-04-04T08:50:27.999Z</time></trkpt><trkpt lat="43.114853212075055" lon="10.649115045914789"><ele>379.0</ele><time>2026-04-04T08:50:28.999Z</time></trkpt><trkpt lat="43.11477845072199" lon="10.649135288547672"><ele>380.0</ele><time>2026-04-04T08:50:29.999Z</time></trkpt><trkpt lat="43.11470004590495" lon="10.649154510426222"><ele>381.0</ele><time>2026-04-04T08:50:30.999Z</time></trkpt><trkpt lat="43.114631846925924" lon="10.64916064191646"><ele>382.0</ele><time>2026-04-04T08:50:31.999Z</time></trkpt><trkpt lat="43.1145650088101" lon="10.649164569458378"><ele>383.0</ele><time>2026-04-04T08:50:32.999Z</time></trkpt><trkpt lat="43.114484305360335" lon="10.649173338500718"><ele>383.0</ele><time>2026-04-04T08:50:33.999Z</time></trkpt><trkpt lat="43.11441485723559" lon="10.649189980262163"><ele>383.0</ele><time>2026-04-04T08:50:34.999Z</time></trkpt><trkpt lat="43.11434755042566" lon="10.649254804372257"><ele>383.0</ele><time>2026-04-04T08:50:35.999Z</time></trkpt><trkpt lat="43.11423878817466" lon="10.649286512796229"><ele>383.0</ele><time>2026-04-04T08:50:37.999Z</time></trkpt><trkpt lat="43.11417039468043" lon="10.649285629945538"><ele>383.0</ele><time>2026-04-04T08:50:38.999Z</time></trkpt><trkpt lat="43.114103210044824" lon="10.649300282805843"><ele>383.0</ele><time>2026-04-04T08:50:39.999Z</time></trkpt><trkpt lat="43.1140485208569" lon="10.649196187417887"><ele>383.0</ele><time>2026-04-04T08:50:52.999Z</time></trkpt><trkpt lat="43.11399262406327" lon="10.649034337969567"><ele>383.0</ele><time>2026-04-04T08:50:54.999Z</time></trkpt><trkpt lat="43.11395009622911" lon="10.648953613537865"><ele>383.0</ele><time>2026-04-04T08:50:55.999Z</time></trkpt><trkpt lat="43.113915058758025" lon="10.648880442324364"><ele>383.0</ele><time>2026-04-04T08:50:56.999Z</time></trkpt><trkpt lat="43.11388801848908" lon="10.648795785092675"><ele>383.0</ele><time>2026-04-04T08:50:57.999Z</time></trkpt><trkpt lat="43.11386352183921" lon="10.648662493787413"><ele>383.0</ele><time>2026-04-04T08:50:59.999Z</time></trkpt><trkpt lat="43.113832990387394" lon="10.648522535532946"><ele>386.2</ele><time>2026-04-04T08:51:01.998Z</time></trkpt><trkpt lat="43.11382172246708" lon="10.648380636632687"><ele>389.4</ele><time>2026-04-04T08:51:03.998Z</time></trkpt><trkpt lat="43.11383699594553" lon="10.648227725978245"><ele>392.59999999999997</ele><time>2026-04-04T08:51:05.998Z</time></trkpt><trkpt lat="43.11385911347485" lon="10.648115601923934"><ele>395.79999999999995</ele><time>2026-04-04T08:51:07.998Z</time></trkpt><trkpt lat="43.11384101750018" lon="10.647965778840993"><ele>399.0</ele><time>2026-04-04T08:51:09.998Z</time></trkpt><trkpt lat="43.11384986708343" lon="10.647845872324835"><ele>400.79999999999995</ele><time>2026-04-04T08:51:11.998Z</time></trkpt><trkpt lat="43.11379253160425" lon="10.647774325047264"><ele>402.59999999999997</ele><time>2026-04-04T08:51:13.998Z</time></trkpt><trkpt lat="43.11372312559494" lon="10.647656047172214"><ele>404.4</ele><time>2026-04-04T08:51:15.998Z</time></trkpt><trkpt lat="43.11366162679475" lon="10.647551881356602"><ele>406.2</ele><time>2026-04-04T08:51:17.998Z</time></trkpt><trkpt lat="43.11364740939423" lon="10.647461236332857"><ele>408.0</ele><time>2026-04-04T08:51:19.998Z</time></trkpt><trkpt lat="43.11360808781691" lon="10.647322162451106"><ele>408.0</ele><time>2026-04-04T08:51:21.998Z</time></trkpt><trkpt lat="43.113561710665095" lon="10.647196250237684"><ele>408.0</ele><time>2026-04-04T08:51:24.998Z</time></trkpt><trkpt lat="43.11351402890811" lon="10.647105914916839"><ele>408.0</ele><time>2026-04-04T08:51:26.998Z</time></trkpt><trkpt lat="43.11349153838134" lon="10.64701638199889"><ele>408.0</ele><time>2026-04-04T08:51:28.998Z</time></trkpt><trkpt lat="43.113439868908635" lon="10.646917586458445"><ele>408.0</ele><time>2026-04-04T08:51:30.998Z</time></trkpt><trkpt lat="43.11342734184297" lon="10.646797281079479"><ele>408.0</ele><time>2026-04-04T08:51:33Z</time></trkpt><trkpt lat="43.11350709506424" lon="10.64675003104851"><ele>410.0</ele><time>2026-04-04T08:51:35Z</time></trkpt><trkpt lat="43.11360890494378" lon="10.646833662533165"><ele>412.0</ele><time>2026-04-04T08:51:37Z</time></trkpt><trkpt lat="43.113707699153366" lon="10.646903866685864"><ele>414.0</ele><time>2026-04-04T08:51:39Z</time></trkpt><trkpt lat="43.11382122952078" lon="10.64690324744235"><ele>416.0</ele><time>2026-04-04T08:51:41Z</time></trkpt><trkpt lat="43.11389317354508" lon="10.64692416615337"><ele>418.0</ele><time>2026-04-04T08:51:43Z</time></trkpt><trkpt lat="43.11393567782358" lon="10.646832760214119"><ele>418.0</ele><time>2026-04-04T08:51:45Z</time></trkpt><trkpt lat="43.11390281085687" lon="10.646714020924923"><ele>418.0</ele><time>2026-04-04T08:51:47Z</time></trkpt><trkpt lat="43.113836620914405" lon="10.646600590809292"><ele>418.0</ele><time>2026-04-04T08:51:49Z</time></trkpt><trkpt lat="43.11379009873237" lon="10.646472325180412"><ele>418.0</ele><time>2026-04-04T08:51:51Z</time></trkpt><trkpt lat="43.11376014348279" lon="10.64630249052918"><ele>418.0</ele><time>2026-04-04T08:51:53Z</time></trkpt><trkpt lat="43.11372976995004" lon="10.646161362828856"><ele>419.83333333333337</ele><time>2026-04-04T08:51:55Z</time></trkpt><trkpt lat="43.113692126733596" lon="10.646059721626932"><ele>421.6666666666667</ele><time>2026-04-04T08:51:57Z</time></trkpt><trkpt lat="43.11362176733159" lon="10.646011229026863"><ele>423.5</ele><time>2026-04-04T08:51:59Z</time></trkpt><trkpt lat="43.11354750905857" lon="10.645973198358417"><ele>425.33333333333337</ele><time>2026-04-04T08:52:01Z</time></trkpt><trkpt lat="43.11346391182003" lon="10.645973243637723"><ele>427.1666666666667</ele><time>2026-04-04T08:52:03Z</time></trkpt><trkpt lat="43.11338841207963" lon="10.645945243731155"><ele>429.0</ele><time>2026-04-04T08:52:05Z</time></trkpt><trkpt lat="43.113294894578196" lon="10.645881834330515"><ele>430.79999999999995</ele><time>2026-04-04T08:52:07Z</time></trkpt><trkpt lat="43.11321900354562" lon="10.645792751435192"><ele>432.59999999999997</ele><time>2026-04-04T08:52:09Z</time></trkpt><trkpt lat="43.11313934709904" lon="10.645739625128794"><ele>434.4</ele><time>2026-04-04T08:52:11Z</time></trkpt><trkpt lat="43.11305861034828" lon="10.64571790470977"><ele>436.2</ele><time>2026-04-04T08:52:13Z</time></trkpt><trkpt lat="43.11297537776502" lon="10.645722340767312"><ele>438.0</ele><time>2026-04-04T08:52:15Z</time></trkpt><trkpt lat="43.11286688210723" lon="10.645696517753487"><ele>438.0</ele><time>2026-04-04T08:52:16.999Z</time></trkpt><trkpt lat="43.112775681588246" lon="10.64566046759007"><ele>437.99999999999994</ele><time>2026-04-04T08:52:18.999Z</time></trkpt><trkpt lat="43.11274821132981" lon="10.645579869919992"><ele>437.99999999999994</ele><time>2026-04-04T08:52:20.999Z</time></trkpt><trkpt lat="43.11280880314224" lon="10.645448810251812"><ele>438.0</ele><time>2026-04-04T08:52:22.999Z</time></trkpt><trkpt lat="43.11286324663894" lon="10.645332554905046"><ele>438.0</ele><time>2026-04-04T08:52:24.999Z</time></trkpt><trkpt lat="43.11290185677439" lon="10.645221770038104"><ele>438.0</ele><time>2026-04-04T08:52:26.999Z</time></trkpt><trkpt lat="43.11292017515751" lon="10.645107609361425"><ele>438.0</ele><time>2026-04-04T08:52:28.999Z</time></trkpt><trkpt lat="43.11292469293423" lon="10.644985060792791"><ele>438.0</ele><time>2026-04-04T08:52:30.999Z</time></trkpt><trkpt lat="43.112977851887074" lon="10.644884690911635"><ele>438.0</ele><time>2026-04-04T08:52:32.999Z</time></trkpt><trkpt lat="43.113044107391474" lon="10.644762229458186"><ele>438.0</ele><time>2026-04-04T08:52:34.999Z</time></trkpt><trkpt lat="43.113086437360025" lon="10.644684473237469"><ele>438.0</ele><time>2026-04-04T08:52:35.999Z</time></trkpt><trkpt lat="43.113130933376816" lon="10.644603484407035"><ele>438.0</ele><time>2026-04-04T08:52:36.999Z</time></trkpt><trkpt lat="43.11317582052922" lon="10.644526346406883"><ele>438.0</ele><time>2026-04-04T08:52:37.999Z</time></trkpt><trkpt lat="43.11322179877523" lon="10.644448402376575"><ele>438.0</ele><time>2026-04-04T08:52:38.999Z</time></trkpt><trkpt lat="43.11325201854735" lon="10.644358375092683"><ele>438.0</ele><time>2026-04-04T08:52:39.999Z</time></trkpt><trkpt lat="43.113286383062174" lon="10.644265012098336"><ele>438.0</ele><time>2026-04-04T08:52:40.999Z</time></trkpt><trkpt lat="43.11331548660892" lon="10.64418431180695"><ele>438.0</ele><time>2026-04-04T08:52:41.999Z</time></trkpt><trkpt lat="43.113352955958014" lon="10.644090590311594"><ele>438.0</ele><time>2026-04-04T08:52:42.999Z</time></trkpt><trkpt lat="43.113384674926294" lon="10.643989090552328"><ele>438.1666666666667</ele><time>2026-04-04T08:52:43.999Z</time></trkpt><trkpt lat="43.11341641570221" lon="10.643885824360204"><ele>438.33333333333337</ele><time>2026-04-04T08:52:44.999Z</time></trkpt><trkpt lat="43.11345368443323" lon="10.643800113287798"><ele>438.5</ele><time>2026-04-04T08:52:45.999Z</time></trkpt><trkpt lat="43.113512920898465" lon="10.64372869762213"><ele>438.6666666666667</ele><time>2026-04-04T08:52:46.999Z</time></trkpt><trkpt lat="43.113552754122004" lon="10.643642745306476"><ele>438.83333333333337</ele><time>2026-04-04T08:52:47.999Z</time></trkpt><trkpt lat="43.113609271561934" lon="10.643597942898984"><ele>439.0</ele><time>2026-04-04T08:52:48.999Z</time></trkpt><trkpt lat="43.113737299426305" lon="10.64356251491668"><ele>439.0</ele><time>2026-04-04T08:52:50.999Z</time></trkpt><trkpt lat="43.113802098503264" lon="10.643544046268664"><ele>439.0</ele><time>2026-04-04T08:52:51.999Z</time></trkpt><trkpt lat="43.11386813070569" lon="10.643536704261452"><ele>439.0</ele><time>2026-04-04T08:52:52.999Z</time></trkpt><trkpt lat="43.11394341846974" lon="10.643530516103278"><ele>439.0</ele><time>2026-04-04T08:52:53.999Z</time></trkpt><trkpt lat="43.114067476465344" lon="10.643526105689181"><ele>439.0</ele><time>2026-04-04T08:52:55.999Z</time></trkpt><trkpt lat="43.114198738740264" lon="10.643525063106361"><ele>440.00000000000006</ele><time>2026-04-04T08:52:57.999Z</time></trkpt><trkpt lat="43.11426336923164" lon="10.643521392924999"><ele>441.0</ele><time>2026-04-04T08:52:58.999Z</time></trkpt><trkpt lat="43.114329168742394" lon="10.643542121416194"><ele>442.0</ele><time>2026-04-04T08:52:59.999Z</time></trkpt><trkpt lat="43.11439904131998" lon="10.643587337952958"><ele>443.0</ele><time>2026-04-04T08:53:00.999Z</time></trkpt><trkpt lat="43.114462082615724" lon="10.643637549357026"><ele>444.00000000000006</ele><time>2026-04-04T08:53:02.999Z</time></trkpt><trkpt lat="43.114541830278206" lon="10.643624542264167"><ele>445.0</ele><time>2026-04-04T08:53:06.999Z</time></trkpt><trkpt lat="43.11464051489097" lon="10.643676632356025"><ele>445.0</ele><time>2026-04-04T08:53:08.999Z</time></trkpt><trkpt lat="43.114733638706085" lon="10.643667960202007"><ele>445.0</ele><time>2026-04-04T08:53:10.999Z</time></trkpt><trkpt lat="43.11481987746622" lon="10.643625466029713"><ele>445.0</ele><time>2026-04-04T08:53:12.998Z</time></trkpt><trkpt lat="43.11490421575565" lon="10.643510097299572"><ele>445.0</ele><time>2026-04-04T08:53:14.998Z</time></trkpt><trkpt lat="43.11495012828883" lon="10.643372687956512"><ele>445.0</ele><time>2026-04-04T08:53:16.998Z</time></trkpt><trkpt lat="43.11495430847032" lon="10.643279296008313"><ele>448.2</ele><time>2026-04-04T08:53:17.998Z</time></trkpt><trkpt lat="43.1149477488957" lon="10.643124742536031"><ele>451.4</ele><time>2026-04-04T08:53:19.998Z</time></trkpt><trkpt lat="43.11497938342925" lon="10.642965275099268"><ele>454.6</ele><time>2026-04-04T08:53:21.998Z</time></trkpt><trkpt lat="43.115029297229285" lon="10.642844442680158"><ele>457.8</ele><time>2026-04-04T08:53:23.998Z</time></trkpt><trkpt lat="43.11509760096752" lon="10.642726596867721"><ele>461.0</ele><time>2026-04-04T08:53:25.998Z</time></trkpt><trkpt lat="43.11515547818527" lon="10.642590090351282"><ele>461.0</ele><time>2026-04-04T08:53:27.998Z</time></trkpt><trkpt lat="43.11521220917994" lon="10.642467758622908"><ele>461.0</ele><time>2026-04-04T08:53:29.998Z</time></trkpt><trkpt lat="43.115259121768005" lon="10.642339035926293"><ele>461.0</ele><time>2026-04-04T08:53:31.998Z</time></trkpt><trkpt lat="43.11532388092061" lon="10.642250287133184"><ele>461.0</ele><time>2026-04-04T08:53:33.998Z</time></trkpt><trkpt lat="43.115398429391746" lon="10.642154256543833"><ele>461.0</ele><time>2026-04-04T08:53:35.998Z</time></trkpt><trkpt lat="43.1154720995256" lon="10.642091511252552"><ele>460.99999999999994</ele><time>2026-04-04T08:53:37.998Z</time></trkpt><trkpt lat="43.11555794410448" lon="10.642027753891075"><ele>461.0</ele><time>2026-04-04T08:53:41Z</time></trkpt><trkpt lat="43.115635571033785" lon="10.641968431689957"><ele>461.0</ele><time>2026-04-04T08:53:43Z</time></trkpt><trkpt lat="43.115694264150065" lon="10.641914850754304"><ele>461.0</ele><time>2026-04-04T08:53:44Z</time></trkpt><trkpt lat="43.11574522596717" lon="10.641854438813944"><ele>460.99999999999994</ele><time>2026-04-04T08:53:45Z</time></trkpt><trkpt lat="43.11583312006416" lon="10.64174901876722"><ele>461.0</ele><time>2026-04-04T08:53:47Z</time></trkpt><trkpt lat="43.11588812332571" lon="10.641677080669647"><ele>462.8</ele><time>2026-04-04T08:53:48Z</time></trkpt><trkpt lat="43.11593915956661" lon="10.64160229991197"><ele>464.6</ele><time>2026-04-04T08:53:49Z</time></trkpt><trkpt lat="43.11601268968993" lon="10.641483653732399"><ele>466.4</ele><time>2026-04-04T08:53:51Z</time></trkpt><trkpt lat="43.11607861394797" lon="10.641359828329959"><ele>468.2</ele><time>2026-04-04T08:53:53Z</time></trkpt><trkpt lat="43.11615922586455" lon="10.641248681308168"><ele>470.0</ele><time>2026-04-04T08:53:55Z</time></trkpt><trkpt lat="43.116223908552605" lon="10.641204850680348"><ele>469.99999999999994</ele><time>2026-04-04T08:53:57Z</time></trkpt><trkpt lat="43.11630630982452" lon="10.641161594319389"><ele>470.0</ele><time>2026-04-04T08:55:37.998Z</time></trkpt><trkpt lat="43.11623141368759" lon="10.64110176254073"><ele>470.0</ele><time>2026-04-04T08:55:38.998Z</time></trkpt><trkpt lat="43.11630617076528" lon="10.641167219301924"><ele>470.0</ele><time>2026-04-04T08:55:39.998Z</time></trkpt><trkpt lat="43.11627735747461" lon="10.641272459513848"><ele>469.99999999999994</ele><time>2026-04-04T08:55:42.998Z</time></trkpt><trkpt lat="43.11636728035261" lon="10.641305647120324"><ele>470.0</ele><time>2026-04-04T08:55:45Z</time></trkpt><trkpt lat="43.116372619122174" lon="10.64113443545134"><ele>470.0</ele><time>2026-04-04T08:55:49Z</time></trkpt><trkpt lat="43.11629751429155" lon="10.641024245646054"><ele>470.0</ele><time>2026-04-04T08:55:51Z</time></trkpt><trkpt lat="43.11625889091622" lon="10.640954612657339"><ele>470.0</ele><time>2026-04-04T08:55:55Z</time></trkpt><trkpt lat="43.11613600319579" lon="10.641151870516557"><ele>470.0</ele><time>2026-04-04T08:56:03Z</time></trkpt><trkpt lat="43.11608881563673" lon="10.641213983596288"><ele>470.0</ele><time>2026-04-04T08:56:04Z</time></trkpt><trkpt lat="43.116027372360406" lon="10.6412962872657"><ele>470.0</ele><time>2026-04-04T08:56:05Z</time></trkpt><trkpt lat="43.11596689596179" lon="10.641378791391816"><ele>470.0</ele><time>2026-04-04T08:56:06Z</time></trkpt><trkpt lat="43.11590620870151" lon="10.641460097807485"><ele>470.0</ele><time>2026-04-04T08:56:07Z</time></trkpt><trkpt lat="43.11586176063825" lon="10.64153300991101"><ele>470.0</ele><time>2026-04-04T08:56:08Z</time></trkpt><trkpt lat="43.11577905482083" lon="10.641671634972889"><ele>470.0</ele><time>2026-04-04T08:56:10Z</time></trkpt><trkpt lat="43.11569144221705" lon="10.641770413668182"><ele>467.75</ele><time>2026-04-04T08:56:12Z</time></trkpt><trkpt lat="43.11558226557548" lon="10.641828088964727"><ele>465.5</ele><time>2026-04-04T08:56:14Z</time></trkpt><trkpt lat="43.115493014205114" lon="10.641939367248469"><ele>463.25</ele><time>2026-04-04T08:56:16Z</time></trkpt><trkpt lat="43.11543601971824" lon="10.642062151843588"><ele>461.0</ele><time>2026-04-04T08:56:18Z</time></trkpt><trkpt lat="43.11534902978255" lon="10.642186231018997"><ele>460.99999999999994</ele><time>2026-04-04T08:56:20Z</time></trkpt><trkpt lat="43.1153084436502" lon="10.642263308354588"><ele>461.0</ele><time>2026-04-04T08:56:21Z</time></trkpt><trkpt lat="43.11527840022463" lon="10.642341161821342"><ele>461.0</ele><time>2026-04-04T08:56:22Z</time></trkpt><trkpt lat="43.11522978654164" lon="10.642443656617004"><ele>461.0</ele><time>2026-04-04T08:56:23Z</time></trkpt><trkpt lat="43.1151653759955" lon="10.642586076743715"><ele>460.99999999999994</ele><time>2026-04-04T08:56:25Z</time></trkpt><trkpt lat="43.11508756623991" lon="10.642673392857413"><ele>461.0</ele><time>2026-04-04T08:56:26.999Z</time></trkpt><trkpt lat="43.115040485719994" lon="10.642762331128113"><ele>461.20000000000005</ele><time>2026-04-04T08:56:28.999Z</time></trkpt><trkpt lat="43.11498183232212" lon="10.642874378097"><ele>461.40000000000003</ele><time>2026-04-04T08:56:30.999Z</time></trkpt><trkpt lat="43.114937868816504" lon="10.64302384397638"><ele>461.6</ele><time>2026-04-04T08:56:32.999Z</time></trkpt><trkpt lat="43.114921834295075" lon="10.643117013521469"><ele>461.8</ele><time>2026-04-04T08:56:33.999Z</time></trkpt><trkpt lat="43.114919932648625" lon="10.64329104905709"><ele>462.0</ele><time>2026-04-04T08:56:35.999Z</time></trkpt><trkpt lat="43.11491072130428" lon="10.643389788794085"><ele>459.6666666666667</ele><time>2026-04-04T08:56:36.999Z</time></trkpt><trkpt lat="43.11487762736855" lon="10.643523159331986"><ele>457.33333333333337</ele><time>2026-04-04T08:56:38.999Z</time></trkpt><trkpt lat="43.1148017794804" lon="10.643563983158469"><ele>455.0</ele><time>2026-04-04T08:56:40.999Z</time></trkpt><trkpt lat="43.114741787066365" lon="10.643602621054132"><ele>452.6666666666667</ele><time>2026-04-04T08:56:42.999Z</time></trkpt><trkpt lat="43.11469014975508" lon="10.643654052786925"><ele>450.33333333333337</ele><time>2026-04-04T08:56:59.999Z</time></trkpt><trkpt lat="43.11462276478218" lon="10.64367359950504"><ele>448.0</ele><time>2026-04-04T08:57:01.999Z</time></trkpt><trkpt lat="43.11471731384477" lon="10.644062438836107"><ele>447.4</ele><time>2026-04-04T08:57:03.999Z</time></trkpt><trkpt lat="43.11479030061769" lon="10.644139383703513"><ele>446.79999999999995</ele><time>2026-04-04T08:57:05.999Z</time></trkpt><trkpt lat="43.114831775764465" lon="10.644267505388932"><ele>446.2</ele><time>2026-04-04T08:57:07.999Z</time></trkpt><trkpt lat="43.11485369821501" lon="10.644420150428767"><ele>445.6</ele><time>2026-04-04T08:57:09.999Z</time></trkpt><trkpt lat="43.11487599637518" lon="10.6445479493751"><ele>445.0</ele><time>2026-04-04T08:57:11.999Z</time></trkpt><trkpt lat="43.11490584243036" lon="10.644637240621975"><ele>444.8</ele><time>2026-04-04T08:57:13.999Z</time></trkpt><trkpt lat="43.11497998119147" lon="10.644752755943275"><ele>444.6</ele><time>2026-04-04T08:57:57Z</time></trkpt><trkpt lat="43.11503467486281" lon="10.644832699181423"><ele>444.4</ele><time>2026-04-04T08:58:00Z</time></trkpt><trkpt lat="43.11496531059448" lon="10.644719142601154"><ele>444.2</ele><time>2026-04-04T08:58:10Z</time></trkpt><trkpt lat="43.11492563262394" lon="10.644651348252433"><ele>444.0</ele><time>2026-04-04T08:58:11Z</time></trkpt><trkpt lat="43.114877689663686" lon="10.644509538320339"><ele>444.2</ele><time>2026-04-04T08:58:13Z</time></trkpt><trkpt lat="43.11482796107837" lon="10.644338577826424"><ele>444.4</ele><time>2026-04-04T08:58:15Z</time></trkpt><trkpt lat="43.1148122043529" lon="10.644225030721861"><ele>444.6</ele><time>2026-04-04T08:58:16Z</time></trkpt><trkpt lat="43.114781704096735" lon="10.644097782829633"><ele>444.8</ele><time>2026-04-04T08:58:18Z</time></trkpt><trkpt lat="43.1146967782532" lon="10.64401561094445"><ele>445.0</ele><time>2026-04-04T08:58:20Z</time></trkpt><trkpt lat="43.11469472242867" lon="10.643861115944189"><ele>445.00000000000006</ele><time>2026-04-04T08:58:22Z</time></trkpt><trkpt lat="43.11473372723021" lon="10.643786186568487"><ele>445.0</ele><time>2026-04-04T08:58:23Z</time></trkpt><trkpt lat="43.11475530175083" lon="10.643696467812658"><ele>445.0</ele><time>2026-04-04T08:58:27Z</time></trkpt><trkpt lat="43.11483443779745" lon="10.643581003976422"><ele>445.0</ele><time>2026-04-04T08:58:38.999Z</time></trkpt><trkpt lat="43.1149273583221" lon="10.64349309068475"><ele>445.00000000000006</ele><time>2026-04-04T08:58:40.999Z</time></trkpt><trkpt lat="43.11493155740282" lon="10.643383382445721"><ele>445.0</ele><time>2026-04-04T08:58:41.999Z</time></trkpt><trkpt lat="43.114941123307304" lon="10.643274676438674"><ele>447.28571428571433</ele><time>2026-04-04T08:58:42.999Z</time></trkpt><trkpt lat="43.11494972259521" lon="10.643164870128727"><ele>449.57142857142856</ele><time>2026-04-04T08:58:43.999Z</time></trkpt><trkpt lat="43.11495828581615" lon="10.643075275645263"><ele>451.8571428571429</ele><time>2026-04-04T08:58:44.999Z</time></trkpt><trkpt lat="43.114974196331545" lon="10.642980659474636"><ele>454.14285714285717</ele><time>2026-04-04T08:58:45.999Z</time></trkpt><trkpt lat="43.11500038673901" lon="10.642886297565294"><ele>456.42857142857144</ele><time>2026-04-04T08:58:46.999Z</time></trkpt><trkpt lat="43.11503931856746" lon="10.642810545986917"><ele>458.7142857142857</ele><time>2026-04-04T08:58:47.999Z</time></trkpt><trkpt lat="43.11508263044113" lon="10.642742233292516"><ele>461.0</ele><time>2026-04-04T08:58:48.999Z</time></trkpt><trkpt lat="43.11513638679692" lon="10.6426386158172"><ele>460.99999999999994</ele><time>2026-04-04T08:58:49.999Z</time></trkpt><trkpt lat="43.115181849602045" lon="10.642539042069842"><ele>461.0</ele><time>2026-04-04T08:58:50.999Z</time></trkpt><trkpt lat="43.11523655416457" lon="10.642425565076545"><ele>461.0</ele><time>2026-04-04T08:58:51.999Z</time></trkpt><trkpt lat="43.1152890289531" lon="10.64230951976858"><ele>461.0</ele><time>2026-04-04T08:58:52.999Z</time></trkpt><trkpt lat="43.115336220465345" lon="10.642199195900243"><ele>460.99999999999994</ele><time>2026-04-04T08:58:53.999Z</time></trkpt><trkpt lat="43.115396180959316" lon="10.642157133670663"><ele>461.0</ele><time>2026-04-04T08:58:54.999Z</time></trkpt><trkpt lat="43.11545215526761" lon="10.642100902062083"><ele>460.99999999999994</ele><time>2026-04-04T08:58:55.999Z</time></trkpt><trkpt lat="43.115557173037125" lon="10.642028327792033"><ele>461.0</ele><time>2026-04-04T08:58:57.999Z</time></trkpt><trkpt lat="43.11562584685202" lon="10.641979865287626"><ele>461.0</ele><time>2026-04-04T08:58:58.999Z</time></trkpt><trkpt lat="43.11569392196793" lon="10.641915204092639"><ele>461.0</ele><time>2026-04-04T08:58:59.999Z</time></trkpt><trkpt lat="43.11574704535536" lon="10.641852283914321"><ele>460.99999999999994</ele><time>2026-04-04T08:59:00.999Z</time></trkpt><trkpt lat="43.11581181516903" lon="10.641775569511234"><ele>461.0</ele><time>2026-04-04T08:59:01.999Z</time></trkpt><trkpt lat="43.11587760993618" lon="10.641691655396643"><ele>462.49999999999994</ele><time>2026-04-04T08:59:02.999Z</time></trkpt><trkpt lat="43.11595413624662" lon="10.6415804235603"><ele>464.0</ele><time>2026-04-04T08:59:03.999Z</time></trkpt><trkpt lat="43.11601720832799" lon="10.641475641884817"><ele>465.5</ele><time>2026-04-04T08:59:04.999Z</time></trkpt><trkpt lat="43.11606364455205" lon="10.641383320552343"><ele>467.0</ele><time>2026-04-04T08:59:05.999Z</time></trkpt><trkpt lat="43.11610631080426" lon="10.641317230646882"><ele>468.49999999999994</ele><time>2026-04-04T08:59:06.999Z</time></trkpt><trkpt lat="43.11616248012335" lon="10.641244465538106"><ele>470.0</ele><time>2026-04-04T08:59:07.999Z</time></trkpt><trkpt lat="43.116239319810425" lon="10.64119108320224"><ele>470.6</ele><time>2026-04-04T08:59:09.999Z</time></trkpt><trkpt lat="43.116286851161995" lon="10.641001269394861"><ele>471.2</ele><time>2026-04-04T08:59:13.999Z</time></trkpt><trkpt lat="43.116236980090505" lon="10.640919968320146"><ele>471.79999999999995</ele><time>2026-04-04T08:59:15.999Z</time></trkpt><trkpt lat="43.116169620913624" lon="10.64081081967864"><ele>472.4</ele><time>2026-04-04T09:02:21Z</time></trkpt><trkpt lat="43.11613420278052" lon="10.640737025067859"><ele>473.0</ele><time>2026-04-04T09:02:22Z</time></trkpt><trkpt lat="43.11609623618497" lon="10.640655676066748"><ele>472.99999999999994</ele><time>2026-04-04T09:02:23Z</time></trkpt><trkpt lat="43.11603448445633" lon="10.640523083107674"><ele>473.0</ele><time>2026-04-04T09:02:25Z</time></trkpt><trkpt lat="43.1159969851918" lon="10.640444425361025"><ele>473.0</ele><time>2026-04-04T09:02:26Z</time></trkpt><trkpt lat="43.11595532084831" lon="10.64035797018865"><ele>473.0</ele><time>2026-04-04T09:02:27Z</time></trkpt><trkpt lat="43.115912084193184" lon="10.640268330372574"><ele>472.99999999999994</ele><time>2026-04-04T09:02:28Z</time></trkpt><trkpt lat="43.11586974602803" lon="10.640180553328012"><ele>473.0</ele><time>2026-04-04T09:02:29Z</time></trkpt><trkpt lat="43.11581272473716" lon="10.640086329749916"><ele>474.16666666666663</ele><time>2026-04-04T09:02:30Z</time></trkpt><trkpt lat="43.11576257080722" lon="10.640021418075975"><ele>475.3333333333333</ele><time>2026-04-04T09:02:31Z</time></trkpt><trkpt lat="43.115715758436764" lon="10.639962943087781"><ele>476.5</ele><time>2026-04-04T09:02:32Z</time></trkpt><trkpt lat="43.11564927060417" lon="10.639887589910684"><ele>477.66666666666663</ele><time>2026-04-04T09:02:33Z</time></trkpt><trkpt lat="43.115598138208576" lon="10.639833945439532"><ele>478.8333333333333</ele><time>2026-04-04T09:02:34Z</time></trkpt><trkpt lat="43.11552567206311" lon="10.639765135192182"><ele>480.0</ele><time>2026-04-04T09:02:35Z</time></trkpt><trkpt lat="43.11542818555107" lon="10.639677059235655"><ele>479.2</ele><time>2026-04-04T09:02:37Z</time></trkpt><trkpt lat="43.11552212304553" lon="10.639445141063707"><ele>478.4</ele><time>2026-04-04T09:02:40.999Z</time></trkpt><trkpt lat="43.11558209366459" lon="10.639367558771418"><ele>477.6</ele><time>2026-04-04T09:02:41.999Z</time></trkpt><trkpt lat="43.115647008288995" lon="10.639294867999281"><ele>476.8</ele><time>2026-04-04T09:02:42.999Z</time></trkpt><trkpt lat="43.1157166486187" lon="10.639231565632809"><ele>476.0</ele><time>2026-04-04T09:02:43.999Z</time></trkpt><trkpt lat="43.11577784716231" lon="10.639180008994199"><ele>477.49999999999994</ele><time>2026-04-04T09:02:44.999Z</time></trkpt><trkpt lat="43.1158376439939" lon="10.639121226112476"><ele>479.0</ele><time>2026-04-04T09:02:45.999Z</time></trkpt><trkpt lat="43.1158868757051" lon="10.639048544546638"><ele>480.5</ele><time>2026-04-04T09:02:46.999Z</time></trkpt><trkpt lat="43.11592058128647" lon="10.63896300724066"><ele>482.0</ele><time>2026-04-04T09:02:47.999Z</time></trkpt><trkpt lat="43.11595073139657" lon="10.63886584648688"><ele>483.49999999999994</ele><time>2026-04-04T09:02:48.999Z</time></trkpt><trkpt lat="43.11598153858517" lon="10.638781409374413"><ele>485.0</ele><time>2026-04-04T09:02:49.999Z</time></trkpt><trkpt lat="43.11604381848234" lon="10.638605839528847"><ele>485.6</ele><time>2026-04-04T09:02:51.999Z</time></trkpt><trkpt lat="43.11608180361667" lon="10.638465431739325"><ele>486.2</ele><time>2026-04-04T09:02:53.999Z</time></trkpt><trkpt lat="43.11610396301937" lon="10.638300073595104"><ele>486.79999999999995</ele><time>2026-04-04T09:02:55.999Z</time></trkpt><trkpt lat="43.11615574990457" lon="10.638158960664464"><ele>487.4</ele><time>2026-04-04T09:02:57.999Z</time></trkpt><trkpt lat="43.116196431581436" lon="10.638031143907556"><ele>488.0</ele><time>2026-04-04T09:02:59.999Z</time></trkpt><trkpt lat="43.11624104786083" lon="10.637963322007566"><ele>488.0</ele><time>2026-04-04T09:03:05.999Z</time></trkpt><trkpt lat="43.11626383999497" lon="10.637817496743379"><ele>487.99999999999994</ele><time>2026-04-04T09:03:07.999Z</time></trkpt><trkpt lat="43.11630513086813" lon="10.637683965191254"><ele>487.99999999999994</ele><time>2026-04-04T09:03:09.999Z</time></trkpt><trkpt lat="43.116302842418946" lon="10.637563997123703"><ele>488.0</ele><time>2026-04-04T09:03:11.999Z</time></trkpt><trkpt lat="43.11632836382906" lon="10.637484858047193"><ele>488.0</ele><time>2026-04-04T09:03:13.999Z</time></trkpt><trkpt lat="43.11641733808255" lon="10.637405944723254"><ele>487.2</ele><time>2026-04-04T09:03:15.999Z</time></trkpt><trkpt lat="43.11647590442678" lon="10.637346879513286"><ele>486.4</ele><time>2026-04-04T09:03:16.999Z</time></trkpt><trkpt lat="43.1165310109372" lon="10.637296968178534"><ele>485.59999999999997</ele><time>2026-04-04T09:03:17.999Z</time></trkpt><trkpt lat="43.11658022227205" lon="10.637235707293405"><ele>484.79999999999995</ele><time>2026-04-04T09:03:18.999Z</time></trkpt><trkpt lat="43.11669661434769" lon="10.637150573703417"><ele>484.0</ele><time>2026-04-04T09:03:20.999Z</time></trkpt><trkpt lat="43.11682357943984" lon="10.63709067812437"><ele>487.79999999999995</ele><time>2026-04-04T09:03:22.999Z</time></trkpt><trkpt lat="43.11691616984079" lon="10.637007761073313"><ele>491.59999999999997</ele><time>2026-04-04T09:03:24.999Z</time></trkpt><trkpt lat="43.11701902779244" lon="10.63690939311057"><ele>495.4</ele><time>2026-04-04T09:03:26.999Z</time></trkpt><trkpt lat="43.117081875054026" lon="10.63689117932249"><ele>499.2</ele><time>2026-04-04T09:03:27.999Z</time></trkpt><trkpt lat="43.11719336914007" lon="10.636811967610575"><ele>503.0</ele><time>2026-04-04T09:03:29.999Z</time></trkpt><trkpt lat="43.117246194815785" lon="10.63676488335803"><ele>504.0</ele><time>2026-04-04T09:03:30.999Z</time></trkpt><trkpt lat="43.11732893016505" lon="10.636676879442943"><ele>504.99999999999994</ele><time>2026-04-04T09:03:32.999Z</time></trkpt><trkpt lat="43.11738764575327" lon="10.636565607309558"><ele>505.99999999999994</ele><time>2026-04-04T09:03:34.998Z</time></trkpt><trkpt lat="43.11743673656604" lon="10.636503010062855"><ele>507.0</ele><time>2026-04-04T09:03:35.998Z</time></trkpt><trkpt lat="43.117502186429945" lon="10.63636191272096"><ele>508.0</ele><time>2026-04-04T09:03:37.998Z</time></trkpt><trkpt lat="43.117546119203304" lon="10.63628792103185"><ele>508.50000000000006</ele><time>2026-04-04T09:03:38.998Z</time></trkpt><trkpt lat="43.11758816684075" lon="10.636211319765929"><ele>509.0</ele><time>2026-04-04T09:03:39.998Z</time></trkpt><trkpt lat="43.11763507769876" lon="10.636138899664425"><ele>509.5</ele><time>2026-04-04T09:03:40.998Z</time></trkpt><trkpt lat="43.1177120119879" lon="10.636024440480572"><ele>510.0</ele><time>2026-04-04T09:03:42.998Z</time></trkpt><trkpt lat="43.11778329565063" lon="10.63597826278089"><ele>510.50000000000006</ele><time>2026-04-04T09:03:44.998Z</time></trkpt><trkpt lat="43.11780342597294" lon="10.635892360507361"><ele>511.0</ele><time>2026-04-04T09:03:46.998Z</time></trkpt><trkpt lat="43.11780025047428" lon="10.635795181474709"><ele>511.00000000000006</ele><time>2026-04-04T09:03:49.998Z</time></trkpt><trkpt lat="43.117810678573406" lon="10.635698661195075"><ele>511.0</ele><time>2026-04-04T09:03:54.998Z</time></trkpt><trkpt lat="43.11778549126084" lon="10.63558438612854"><ele>511.0</ele><time>2026-04-04T09:03:58.998Z</time></trkpt><trkpt lat="43.11771556219571" lon="10.635563677576162"><ele>511.0</ele><time>2026-04-04T09:04:01.998Z</time></trkpt><trkpt lat="43.11765059574767" lon="10.63558250332182"><ele>511.00000000000006</ele><time>2026-04-04T09:04:03.998Z</time></trkpt><trkpt lat="43.11757065325089" lon="10.63551873887609"><ele>511.0</ele><time>2026-04-04T09:04:05.998Z</time></trkpt><trkpt lat="43.11748860030164" lon="10.635424898353314"><ele>510.4</ele><time>2026-04-04T09:04:07.998Z</time></trkpt><trkpt lat="43.11746998909229" lon="10.635286495214197"><ele>509.8</ele><time>2026-04-04T09:04:10Z</time></trkpt><trkpt lat="43.117457508020024" lon="10.63512174228977"><ele>509.19999999999993</ele><time>2026-04-04T09:04:12Z</time></trkpt><trkpt lat="43.1174180346132" lon="10.634989767591547"><ele>508.59999999999997</ele><time>2026-04-04T09:04:14Z</time></trkpt><trkpt lat="43.11737862882295" lon="10.634875500472612"><ele>508.0</ele><time>2026-04-04T09:04:16Z</time></trkpt><trkpt lat="43.11732176566444" lon="10.634740863334565"><ele>506.28571428571433</ele><time>2026-04-04T09:04:18Z</time></trkpt><trkpt lat="43.11729637328766" lon="10.634601140920516"><ele>504.57142857142856</ele><time>2026-04-04T09:04:20Z</time></trkpt><trkpt lat="43.11727995985749" lon="10.634510049714956"><ele>502.8571428571429</ele><time>2026-04-04T09:04:21Z</time></trkpt><trkpt lat="43.11725258301997" lon="10.634431357018078"><ele>501.14285714285717</ele><time>2026-04-04T09:04:22Z</time></trkpt><trkpt lat="43.11720837274667" lon="10.634358225988239"><ele>499.42857142857144</ele><time>2026-04-04T09:04:23Z</time></trkpt><trkpt lat="43.11715907176814" lon="10.63429211299027"><ele>497.7142857142857</ele><time>2026-04-04T09:04:24Z</time></trkpt><trkpt lat="43.11711283111995" lon="10.634216737548494"><ele>496.0</ele><time>2026-04-04T09:04:25Z</time></trkpt><trkpt lat="43.116992940009006" lon="10.634124513224554"><ele>495.6</ele><time>2026-04-04T09:04:27Z</time></trkpt><trkpt lat="43.116908499338194" lon="10.63403294865429"><ele>495.20000000000005</ele><time>2026-04-04T09:04:29Z</time></trkpt><trkpt lat="43.116833518748805" lon="10.633947386828144"><ele>494.79999999999995</ele><time>2026-04-04T09:04:31Z</time></trkpt><trkpt lat="43.11679444437476" lon="10.633799192189901"><ele>494.4</ele><time>2026-04-04T09:04:33Z</time></trkpt><trkpt lat="43.11677297466228" lon="10.633709981323438"><ele>494.0</ele><time>2026-04-04T09:04:34Z</time></trkpt><trkpt lat="43.116712919440644" lon="10.6335703411778"><ele>494.0</ele><time>2026-04-04T09:04:36Z</time></trkpt><trkpt lat="43.11671822316451" lon="10.633473971164722"><ele>494.0</ele><time>2026-04-04T09:04:38Z</time></trkpt><trkpt lat="43.11665729351332" lon="10.633377095718886"><ele>494.0</ele><time>2026-04-04T09:04:39Z</time></trkpt><trkpt lat="43.11662540861919" lon="10.633295008158074"><ele>494.0</ele><time>2026-04-04T09:04:40Z</time></trkpt><trkpt lat="43.116596750019404" lon="10.633203992745404"><ele>494.0</ele><time>2026-04-04T09:04:41Z</time></trkpt><trkpt lat="43.11656581729716" lon="10.633124544559712"><ele>494.0</ele><time>2026-04-04T09:04:42Z</time></trkpt><trkpt lat="43.11652834002543" lon="10.633054854045689"><ele>494.0</ele><time>2026-04-04T09:04:43Z</time></trkpt><trkpt lat="43.11647008887027" lon="10.632982024174783"><ele>494.0</ele><time>2026-04-04T09:04:44Z</time></trkpt><trkpt lat="43.11638808562305" lon="10.632914745395771"><ele>494.0</ele><time>2026-04-04T09:04:46Z</time></trkpt><trkpt lat="43.116310036386245" lon="10.632849520247547"><ele>494.0</ele><time>2026-04-04T09:04:48Z</time></trkpt><trkpt lat="43.11625222593605" lon="10.632738006979434"><ele>494.0</ele><time>2026-04-04T09:04:50Z</time></trkpt><trkpt lat="43.11620017395066" lon="10.632585546678882"><ele>494.0</ele><time>2026-04-04T09:04:51.999Z</time></trkpt><trkpt lat="43.116177157692476" lon="10.632501601901653"><ele>494.2</ele><time>2026-04-04T09:04:52.999Z</time></trkpt><trkpt lat="43.116147505643426" lon="10.632418559647991"><ele>494.4</ele><time>2026-04-04T09:04:53.999Z</time></trkpt><trkpt lat="43.11607483696771" lon="10.632305974690288"><ele>494.6</ele><time>2026-04-04T09:04:55.999Z</time></trkpt><trkpt lat="43.116018069613986" lon="10.632165262297564"><ele>494.8</ele><time>2026-04-04T09:04:57.999Z</time></trkpt><trkpt lat="43.115964764394505" lon="10.632022748677647"><ele>495.0</ele><time>2026-04-04T09:04:59.999Z</time></trkpt><trkpt lat="43.11590937914648" lon="10.63190305511265"><ele>494.2</ele><time>2026-04-04T09:05:01.999Z</time></trkpt><trkpt lat="43.11586259853097" lon="10.631784154831976"><ele>493.4</ele><time>2026-04-04T09:05:03.999Z</time></trkpt><trkpt lat="43.11582432558044" lon="10.631651582934978"><ele>492.6</ele><time>2026-04-04T09:05:05.999Z</time></trkpt><trkpt lat="43.11578058186263" lon="10.631545848571735"><ele>491.8</ele><time>2026-04-04T09:05:07.999Z</time></trkpt><trkpt lat="43.115697263149876" lon="10.631449489370532"><ele>491.0</ele><time>2026-04-04T09:05:09.999Z</time></trkpt><trkpt lat="43.1156027602974" lon="10.631383162783818"><ele>490.6</ele><time>2026-04-04T09:05:11.999Z</time></trkpt><trkpt lat="43.11550903928619" lon="10.631349456425903"><ele>490.20000000000005</ele><time>2026-04-04T09:05:13.999Z</time></trkpt><trkpt lat="43.115441038365184" lon="10.63124725169273"><ele>489.79999999999995</ele><time>2026-04-04T09:05:15.999Z</time></trkpt><trkpt lat="43.11539149788626" lon="10.631172377120016"><ele>489.4</ele><time>2026-04-04T09:05:16.999Z</time></trkpt><trkpt lat="43.115333720798915" lon="10.631064250723114"><ele>489.0</ele><time>2026-04-04T09:05:18.999Z</time></trkpt><trkpt lat="43.11528198580051" lon="10.63094689161484"><ele>489.0</ele><time>2026-04-04T09:05:21.999Z</time></trkpt><trkpt lat="43.11526317297887" lon="10.630820896867577"><ele>489.0</ele><time>2026-04-04T09:05:23.999Z</time></trkpt><trkpt lat="43.11523620770216" lon="10.630708087288664"><ele>489.0</ele><time>2026-04-04T09:05:25.999Z</time></trkpt><trkpt lat="43.11522859940587" lon="10.630577849688203"><ele>489.0</ele><time>2026-04-04T09:05:27.999Z</time></trkpt><trkpt lat="43.11520598491094" lon="10.630447314911885"><ele>489.0</ele><time>2026-04-04T09:05:29.999Z</time></trkpt><trkpt lat="43.11516712551435" lon="10.630353969567084"><ele>489.0</ele><time>2026-04-04T09:05:31.999Z</time></trkpt><trkpt lat="43.1150919000044" lon="10.630246417992266"><ele>489.0</ele><time>2026-04-04T09:05:33.999Z</time></trkpt><trkpt lat="43.115026466589406" lon="10.630133543319712"><ele>489.0</ele><time>2026-04-04T09:05:35.999Z</time></trkpt><trkpt lat="43.11500482032245" lon="10.629983237877095"><ele>489.0</ele><time>2026-04-04T09:05:37.999Z</time></trkpt><trkpt lat="43.11499511179892" lon="10.629888040005003"><ele>489.0</ele><time>2026-04-04T09:05:39.999Z</time></trkpt><trkpt lat="43.11497730705639" lon="10.629779165041358"><ele>489.0</ele><time>2026-04-04T09:05:40.999Z</time></trkpt><trkpt lat="43.114954585365965" lon="10.629641047026459"><ele>489.0</ele><time>2026-04-04T09:05:42.999Z</time></trkpt><trkpt lat="43.11491771075728" lon="10.629494012119324"><ele>489.0</ele><time>2026-04-04T09:05:44.999Z</time></trkpt><trkpt lat="43.11491016059329" lon="10.629391673692016"><ele>489.0</ele><time>2026-04-04T09:05:46.998Z</time></trkpt><trkpt lat="43.11489774140586" lon="10.629305248811127"><ele>489.0</ele><time>2026-04-04T09:05:47.998Z</time></trkpt><trkpt lat="43.11487501159754" lon="10.629185054614256"><ele>489.0</ele><time>2026-04-04T09:05:49.998Z</time></trkpt><trkpt lat="43.11484742232153" lon="10.629032004840978"><ele>485.79999999999995</ele><time>2026-04-04T09:05:51.998Z</time></trkpt><trkpt lat="43.1148076583862" lon="10.62889591191761"><ele>482.59999999999997</ele><time>2026-04-04T09:05:53.998Z</time></trkpt><trkpt lat="43.11477927286383" lon="10.62879372336668"><ele>479.4</ele><time>2026-04-04T09:05:55.998Z</time></trkpt><trkpt lat="43.11472557331607" lon="10.628688926289318"><ele>476.2</ele><time>2026-04-04T09:05:57.998Z</time></trkpt><trkpt lat="43.114671758891205" lon="10.628578772308654"><ele>473.0</ele><time>2026-04-04T09:05:59.998Z</time></trkpt><trkpt lat="43.11463767708268" lon="10.628490525465333"><ele>471.8333333333333</ele><time>2026-04-04T09:08:15.998Z</time></trkpt><trkpt lat="43.114595349509685" lon="10.628405662037867"><ele>470.66666666666663</ele><time>2026-04-04T09:08:18.998Z</time></trkpt><trkpt lat="43.11456209735024" lon="10.62831665223505"><ele>469.5</ele><time>2026-04-04T09:08:21Z</time></trkpt><trkpt lat="43.114509595576955" lon="10.628215287330685"><ele>468.33333333333337</ele><time>2026-04-04T09:08:23Z</time></trkpt><trkpt lat="43.11456990348126" lon="10.628278550486732"><ele>467.1666666666667</ele><time>2026-04-04T09:08:45Z</time></trkpt><trkpt lat="43.11460840642199" lon="10.62838728853688"><ele>466.0</ele><time>2026-04-04T09:08:47Z</time></trkpt><trkpt lat="43.11465274204864" lon="10.628454063038577"><ele>466.00000000000006</ele><time>2026-04-04T09:08:50Z</time></trkpt><trkpt lat="43.11469174835279" lon="10.62853751319268"><ele>466.0</ele><time>2026-04-04T09:09:02.999Z</time></trkpt><trkpt lat="43.11474027219334" lon="10.628653673521326"><ele>466.0</ele><time>2026-04-04T09:09:04.999Z</time></trkpt><trkpt lat="43.11477074554803" lon="10.628732378032204"><ele>466.0</ele><time>2026-04-04T09:09:05.999Z</time></trkpt><trkpt lat="43.11482418152635" lon="10.628857406022838"><ele>466.00000000000006</ele><time>2026-04-04T09:09:06.999Z</time></trkpt><trkpt lat="43.11486094112385" lon="10.628945643149125"><ele>466.0</ele><time>2026-04-04T09:09:07.999Z</time></trkpt><trkpt lat="43.1148871172667" lon="10.629081971528276"><ele>468.7142857142857</ele><time>2026-04-04T09:09:09.999Z</time></trkpt><trkpt lat="43.11491721840928" lon="10.629160936821703"><ele>471.42857142857144</ele><time>2026-04-04T09:09:10.999Z</time></trkpt><trkpt lat="43.114919499594585" lon="10.629264166004848"><ele>474.14285714285717</ele><time>2026-04-04T09:09:11.999Z</time></trkpt><trkpt lat="43.11491747041809" lon="10.62935069674098"><ele>476.8571428571429</ele><time>2026-04-04T09:09:12.999Z</time></trkpt><trkpt lat="43.114938229769535" lon="10.629442254316816"><ele>479.57142857142856</ele><time>2026-04-04T09:09:13.999Z</time></trkpt><trkpt lat="43.11495947982384" lon="10.629543958531583"><ele>482.28571428571433</ele><time>2026-04-04T09:09:14.999Z</time></trkpt><trkpt lat="43.11496960520771" lon="10.629629957874563"><ele>485.00000000000006</ele><time>2026-04-04T09:09:15.999Z</time></trkpt><trkpt lat="43.114993520991035" lon="10.629791491859924"><ele>485.8</ele><time>2026-04-04T09:09:17.999Z</time></trkpt><trkpt lat="43.114997834629214" lon="10.629924723886322"><ele>486.6</ele><time>2026-04-04T09:09:19.999Z</time></trkpt><trkpt lat="43.115029135548696" lon="10.630062136251087"><ele>487.4</ele><time>2026-04-04T09:09:21.999Z</time></trkpt><trkpt lat="43.11507619708058" lon="10.630146985432178"><ele>488.2</ele><time>2026-04-04T09:09:22.999Z</time></trkpt><trkpt lat="43.11515839194142" lon="10.630249685493798"><ele>489.0</ele><time>2026-04-04T09:09:24.999Z</time></trkpt><trkpt lat="43.11519785639066" lon="10.630347759992159"><ele>489.0</ele><time>2026-04-04T09:09:26.999Z</time></trkpt><trkpt lat="43.11521451222617" lon="10.630517170832988"><ele>489.0</ele><time>2026-04-04T09:09:28.999Z</time></trkpt><trkpt lat="43.115189618201086" lon="10.630597822033803"><ele>489.0</ele><time>2026-04-04T09:09:29.999Z</time></trkpt><trkpt lat="43.11518797436729" lon="10.630700802391887"><ele>489.0</ele><time>2026-04-04T09:09:30.999Z</time></trkpt><trkpt lat="43.115211377240286" lon="10.630806234621588"><ele>489.0</ele><time>2026-04-04T09:09:31.999Z</time></trkpt><trkpt lat="43.1152355518108" lon="10.630900703304762"><ele>489.0</ele><time>2026-04-04T09:09:32.999Z</time></trkpt><trkpt lat="43.11529452534622" lon="10.631009869866569"><ele>489.0</ele><time>2026-04-04T09:09:33.999Z</time></trkpt><trkpt lat="43.11535720823938" lon="10.631083165555587"><ele>489.0</ele><time>2026-04-04T09:09:34.999Z</time></trkpt><trkpt lat="43.11543435642428" lon="10.631191427578688"><ele>489.0</ele><time>2026-04-04T09:09:35.999Z</time></trkpt><trkpt lat="43.11552720146756" lon="10.631295957275473"><ele>489.0</ele><time>2026-04-04T09:09:36.999Z</time></trkpt><trkpt lat="43.115618100818544" lon="10.631355826805622"><ele>489.0</ele><time>2026-04-04T09:09:37.999Z</time></trkpt><trkpt lat="43.115701713472" lon="10.631398628905407"><ele>489.4</ele><time>2026-04-04T09:09:38.999Z</time></trkpt><trkpt lat="43.11577110468183" lon="10.631470379464437"><ele>489.79999999999995</ele><time>2026-04-04T09:09:39.999Z</time></trkpt><trkpt lat="43.11583337366827" lon="10.63157141140678"><ele>490.20000000000005</ele><time>2026-04-04T09:09:40.999Z</time></trkpt><trkpt lat="43.11587021809658" lon="10.631703285049863"><ele>490.6</ele><time>2026-04-04T09:09:41.999Z</time></trkpt><trkpt lat="43.11590789778765" lon="10.631851026181916"><ele>491.0</ele><time>2026-04-04T09:09:42.999Z</time></trkpt><trkpt lat="43.11595597021476" lon="10.631991744476748"><ele>491.8</ele><time>2026-04-04T09:09:43.999Z</time></trkpt><trkpt lat="43.11600912942311" lon="10.632115665727211"><ele>492.6</ele><time>2026-04-04T09:09:44.999Z</time></trkpt><trkpt lat="43.11605716021278" lon="10.632227760134644"><ele>493.4</ele><time>2026-04-04T09:09:45.999Z</time></trkpt><trkpt lat="43.11611314177653" lon="10.63234263308775"><ele>494.2</ele><time>2026-04-04T09:09:46.999Z</time></trkpt><trkpt lat="43.11615093761861" lon="10.632436829226096"><ele>495.0</ele><time>2026-04-04T09:09:47.999Z</time></trkpt><trkpt lat="43.116190880053495" lon="10.632543438313192"><ele>495.0</ele><time>2026-04-04T09:09:48.999Z</time></trkpt><trkpt lat="43.116235343305206" lon="10.632636973758792"><ele>495.0</ele><time>2026-04-04T09:09:49.999Z</time></trkpt><trkpt lat="43.11628097390859" lon="10.632747114354213"><ele>495.0</ele><time>2026-04-04T09:09:50.999Z</time></trkpt><trkpt lat="43.11632054419356" lon="10.632831609950339"><ele>495.0</ele><time>2026-04-04T09:09:51.999Z</time></trkpt><trkpt lat="43.11638124509427" lon="10.632882239937356"><ele>495.0</ele><time>2026-04-04T09:09:52.999Z</time></trkpt><trkpt lat="43.1164597035116" lon="10.632941023101372"><ele>495.0</ele><time>2026-04-04T09:09:53.999Z</time></trkpt><trkpt lat="43.11653036377501" lon="10.633024045219475"><ele>494.75</ele><time>2026-04-04T09:09:54.998Z</time></trkpt><trkpt lat="43.11658889360983" lon="10.633122199222306"><ele>494.5</ele><time>2026-04-04T09:09:55.998Z</time></trkpt><trkpt lat="43.11663119827176" lon="10.633257864789345"><ele>494.25</ele><time>2026-04-04T09:09:56.998Z</time></trkpt><trkpt lat="43.11666448239047" lon="10.633429236911766"><ele>494.0</ele><time>2026-04-04T09:09:57.998Z</time></trkpt><trkpt lat="43.11671883952296" lon="10.633615078045437"><ele>493.0</ele><time>2026-04-04T09:09:58.998Z</time></trkpt><trkpt lat="43.116788401011824" lon="10.63378991678353"><ele>492.0</ele><time>2026-04-04T09:09:59.998Z</time></trkpt><trkpt lat="43.116852628557275" lon="10.63392925087114"><ele>491.0</ele><time>2026-04-04T09:10:00.998Z</time></trkpt><trkpt lat="43.11693647478908" lon="10.634041588608646"><ele>490.0</ele><time>2026-04-04T09:10:01.998Z</time></trkpt><trkpt lat="43.11703985135997" lon="10.634147732782129"><ele>490.0</ele><time>2026-04-04T09:10:02.998Z</time></trkpt><trkpt lat="43.11715697882437" lon="10.634252746218777"><ele>490.0</ele><time>2026-04-04T09:10:03.998Z</time></trkpt><trkpt lat="43.11724963745027" lon="10.634358813105928"><ele>490.0</ele><time>2026-04-04T09:10:04.998Z</time></trkpt><trkpt lat="43.11730128849343" lon="10.634490162235984"><ele>490.0</ele><time>2026-04-04T09:10:05.998Z</time></trkpt><trkpt lat="43.11734184480299" lon="10.634636095339443"><ele>494.5</ele><time>2026-04-04T09:10:06.998Z</time></trkpt><trkpt lat="43.11740510645913" lon="10.63481073686673"><ele>499.0</ele><time>2026-04-04T09:10:07.998Z</time></trkpt><trkpt lat="43.11746283432134" lon="10.63496342178255"><ele>503.5</ele><time>2026-04-04T09:10:08.998Z</time></trkpt><trkpt lat="43.11746747509027" lon="10.635136978084141"><ele>508.0</ele><time>2026-04-04T09:10:09.998Z</time></trkpt><trkpt lat="43.11747928252018" lon="10.635300269683558"><ele>508.50000000000006</ele><time>2026-04-04T09:10:10.998Z</time></trkpt><trkpt lat="43.1174977848214" lon="10.635421347035177"><ele>509.0</ele><time>2026-04-04T09:10:11.998Z</time></trkpt><trkpt lat="43.117547947365004" lon="10.635519318260876"><ele>509.5</ele><time>2026-04-04T09:10:12.998Z</time></trkpt><trkpt lat="43.11765461015479" lon="10.635504514431034"><ele>510.0</ele><time>2026-04-04T09:10:22.998Z</time></trkpt><trkpt lat="43.11770921158168" lon="10.635557495344024"><ele>510.50000000000006</ele><time>2026-04-04T09:10:23.998Z</time></trkpt><trkpt lat="43.1177633589219" lon="10.635612783278114"><ele>511.0</ele><time>2026-04-04T09:10:27Z</time></trkpt><trkpt lat="43.11779355791935" lon="10.635739052965455"><ele>511.00000000000006</ele><time>2026-04-04T09:10:31Z</time></trkpt><trkpt lat="43.11783310586872" lon="10.635806348169329"><ele>511.0</ele><time>2026-04-04T09:10:33Z</time></trkpt><trkpt lat="43.117812764792774" lon="10.63590550652106"><ele>511.0</ele><time>2026-04-04T09:11:04.999Z</time></trkpt><trkpt lat="43.11776671687327" lon="10.63598102124622"><ele>511.0</ele><time>2026-04-04T09:11:05.999Z</time></trkpt><trkpt lat="43.11769715132418" lon="10.6360651194389"><ele>511.00000000000006</ele><time>2026-04-04T09:11:06.999Z</time></trkpt><trkpt lat="43.11761369528005" lon="10.636167485718262"><ele>511.0</ele><time>2026-04-04T09:11:07.999Z</time></trkpt><trkpt lat="43.11756219485141" lon="10.636270819687448"><ele>511.4</ele><time>2026-04-04T09:11:08.999Z</time></trkpt><trkpt lat="43.117522932885876" lon="10.636362156348662"><ele>511.8</ele><time>2026-04-04T09:11:09.999Z</time></trkpt><trkpt lat="43.117475315509864" lon="10.636447163363583"><ele>512.1999999999999</ele><time>2026-04-04T09:11:10.999Z</time></trkpt><trkpt lat="43.1173851748148" lon="10.63661936586815"><ele>512.6</ele><time>2026-04-04T09:11:12.999Z</time></trkpt><trkpt lat="43.11731535052799" lon="10.63670474550118"><ele>513.0</ele><time>2026-04-04T09:11:13.999Z</time></trkpt><trkpt lat="43.11724286332749" lon="10.636763484988723"><ele>512.0</ele><time>2026-04-04T09:11:14.999Z</time></trkpt><trkpt lat="43.117185637927285" lon="10.636804373871078"><ele>510.99999999999994</ele><time>2026-04-04T09:11:15.999Z</time></trkpt><trkpt lat="43.11710202776796" lon="10.636853297162615"><ele>509.99999999999994</ele><time>2026-04-04T09:11:16.999Z</time></trkpt><trkpt lat="43.11703963058431" lon="10.636899899254017"><ele>509.0</ele><time>2026-04-04T09:11:17.999Z</time></trkpt><trkpt lat="43.11692132840355" lon="10.63701455732108"><ele>508.0</ele><time>2026-04-04T09:11:19.999Z</time></trkpt><trkpt lat="43.11684206045343" lon="10.637078469747562"><ele>507.0</ele><time>2026-04-04T09:11:20.999Z</time></trkpt><trkpt lat="43.116778039228855" lon="10.63713209875838"><ele>505.99999999999994</ele><time>2026-04-04T09:11:21.999Z</time></trkpt><trkpt lat="43.11665424753461" lon="10.637178667106278"><ele>504.99999999999994</ele><time>2026-04-04T09:11:23.999Z</time></trkpt><trkpt lat="43.116549034538515" lon="10.63727429553296"><ele>504.0</ele><time>2026-04-04T09:11:25.999Z</time></trkpt><trkpt lat="43.11646882533675" lon="10.637364030988586"><ele>503.0</ele><time>2026-04-04T09:11:26.999Z</time></trkpt><trkpt lat="43.11638934748709" lon="10.637450231119175"><ele>500.0</ele><time>2026-04-04T09:11:27.999Z</time></trkpt><trkpt lat="43.11633006582254" lon="10.63750453221257"><ele>496.99999999999994</ele><time>2026-04-04T09:11:28.999Z</time></trkpt><trkpt lat="43.1163070239068" lon="10.637635895877967"><ele>493.99999999999994</ele><time>2026-04-04T09:11:30.999Z</time></trkpt><trkpt lat="43.11629885317979" lon="10.637764686346854"><ele>491.0</ele><time>2026-04-04T09:11:31.999Z</time></trkpt><trkpt lat="43.11626910798302" lon="10.637910516007198"><ele>488.0</ele><time>2026-04-04T09:11:32.999Z</time></trkpt><trkpt lat="43.116235696558014" lon="10.638017179732351"><ele>487.99999999999994</ele><time>2026-04-04T09:11:33.999Z</time></trkpt><trkpt lat="43.11618095647471" lon="10.638141865127617"><ele>488.0</ele><time>2026-04-04T09:11:35.999Z</time></trkpt><trkpt lat="43.11613747623055" lon="10.638235924763816"><ele>488.0</ele><time>2026-04-04T09:11:36.999Z</time></trkpt><trkpt lat="43.116101078462435" lon="10.638334877026812"><ele>488.0</ele><time>2026-04-04T09:11:37.999Z</time></trkpt><trkpt lat="43.11608826786345" lon="10.63844431277294"><ele>487.99999999999994</ele><time>2026-04-04T09:11:38.999Z</time></trkpt><trkpt lat="43.11607269596236" lon="10.638546231967128"><ele>488.0</ele><time>2026-04-04T09:11:39.999Z</time></trkpt><trkpt lat="43.11603839712126" lon="10.638658227761333"><ele>487.4</ele><time>2026-04-04T09:11:41.999Z</time></trkpt><trkpt lat="43.11599470912385" lon="10.638794756443277"><ele>486.79999999999995</ele><time>2026-04-04T09:11:43.999Z</time></trkpt><trkpt lat="43.11593723847324" lon="10.638932707671108"><ele>486.2</ele><time>2026-04-04T09:11:45.999Z</time></trkpt><trkpt lat="43.11588834649594" lon="10.639029581040248"><ele>485.6</ele><time>2026-04-04T09:11:46.999Z</time></trkpt><trkpt lat="43.115835397228686" lon="10.639129299277517"><ele>485.0</ele><time>2026-04-04T09:11:47.999Z</time></trkpt><trkpt lat="43.11575933904584" lon="10.639221948555974"><ele>484.0</ele><time>2026-04-04T09:11:48.999Z</time></trkpt><trkpt lat="43.115670529279654" lon="10.639293772655941"><ele>483.0</ele><time>2026-04-04T09:11:49.999Z</time></trkpt><trkpt lat="43.11559085119654" lon="10.63936321842341"><ele>482.0</ele><time>2026-04-04T09:11:50.999Z</time></trkpt><trkpt lat="43.115526131297" lon="10.639436297583357"><ele>481.0</ele><time>2026-04-04T09:11:51.999Z</time></trkpt><trkpt lat="43.115477015859504" lon="10.639521331587654"><ele>480.0</ele><time>2026-04-04T09:11:52.999Z</time></trkpt><trkpt lat="43.115425025645266" lon="10.639632245503677"><ele>480.0</ele><time>2026-04-04T09:11:54.999Z</time></trkpt><trkpt lat="43.115451151250404" lon="10.63973565592262"><ele>480.0</ele><time>2026-04-04T09:11:56.998Z</time></trkpt><trkpt lat="43.115543923116334" lon="10.639823367243812"><ele>480.0</ele><time>2026-04-04T09:11:58.998Z</time></trkpt><trkpt lat="43.115600545353864" lon="10.639868800534307"><ele>480.0</ele><time>2026-04-04T09:11:59.998Z</time></trkpt><trkpt lat="43.11566753510155" lon="10.639935315537828"><ele>480.0</ele><time>2026-04-04T09:12:00.998Z</time></trkpt><trkpt lat="43.11573057197976" lon="10.640005718413658"><ele>480.0</ele><time>2026-04-04T09:12:01.998Z</time></trkpt><trkpt lat="43.1157917488669" lon="10.640087382837164"><ele>480.0</ele><time>2026-04-04T09:12:02.998Z</time></trkpt><trkpt lat="43.11585197089195" lon="10.640166171055705"><ele>480.0</ele><time>2026-04-04T09:12:03.998Z</time></trkpt><trkpt lat="43.11587802486924" lon="10.64028038216087"><ele>480.0</ele><time>2026-04-04T09:12:04.998Z</time></trkpt><trkpt lat="43.11591605957958" lon="10.64035923716222"><ele>480.0</ele><time>2026-04-04T09:12:05.998Z</time></trkpt><trkpt lat="43.115954114522644" lon="10.640438181513929"><ele>480.0</ele><time>2026-04-04T09:12:06.998Z</time></trkpt><trkpt lat="43.11599766520349" lon="10.640528552503108"><ele>480.0</ele><time>2026-04-04T09:12:07.998Z</time></trkpt><trkpt lat="43.11603321463137" lon="10.640605089361166"><ele>478.6</ele><time>2026-04-04T09:12:08.998Z</time></trkpt><trkpt lat="43.11610031812095" lon="10.640756126401886"><ele>477.2</ele><time>2026-04-04T09:12:10.998Z</time></trkpt><trkpt lat="43.11613618926118" lon="10.640835407128927"><ele>475.79999999999995</ele><time>2026-04-04T09:12:11.998Z</time></trkpt><trkpt lat="43.1161935599434" lon="10.640937073494232"><ele>474.4</ele><time>2026-04-04T09:12:13.998Z</time></trkpt><trkpt lat="43.116236897673396" lon="10.641026759120825"><ele>473.0</ele><time>2026-04-04T09:12:16.998Z</time></trkpt><trkpt lat="43.116235338216704" lon="10.641159544975972"><ele>472.4</ele><time>2026-04-04T09:12:18.998Z</time></trkpt><trkpt lat="43.11611183752325" lon="10.64124739978442"><ele>471.79999999999995</ele><time>2026-04-04T09:12:19.998Z</time></trkpt><trkpt lat="43.11606344957367" lon="10.641310084457807"><ele>471.2</ele><time>2026-04-04T09:12:20.998Z</time></trkpt><trkpt lat="43.11601755087297" lon="10.641400570098176"><ele>470.6</ele><time>2026-04-04T09:12:21.998Z</time></trkpt><trkpt lat="43.11595454468888" lon="10.641509678618403"><ele>470.0</ele><time>2026-04-04T09:12:22.998Z</time></trkpt><trkpt lat="43.11588932893712" lon="10.641608624316085"><ele>470.0</ele><time>2026-04-04T09:12:23.998Z</time></trkpt><trkpt lat="43.11581772327123" lon="10.641707716442221"><ele>470.0</ele><time>2026-04-04T09:12:24.998Z</time></trkpt><trkpt lat="43.11575383094052" lon="10.641784061568197"><ele>470.0</ele><time>2026-04-04T09:12:25.998Z</time></trkpt><trkpt lat="43.115692033248926" lon="10.641857255719499"><ele>470.0</ele><time>2026-04-04T09:12:26.998Z</time></trkpt><trkpt lat="43.11561738823517" lon="10.641930325857782"><ele>470.0</ele><time>2026-04-04T09:12:27.998Z</time></trkpt><trkpt lat="43.115492878656696" lon="10.642020058005015"><ele>468.2</ele><time>2026-04-04T09:12:29.998Z</time></trkpt><trkpt lat="43.11538392515834" lon="10.642110507196307"><ele>466.4</ele><time>2026-04-04T09:12:31.998Z</time></trkpt><trkpt lat="43.115288075515096" lon="10.642238384018286"><ele>464.6</ele><time>2026-04-04T09:12:34Z</time></trkpt><trkpt lat="43.11523519045555" lon="10.642334145377202"><ele>462.8</ele><time>2026-04-04T09:12:35Z</time></trkpt><trkpt lat="43.11520297049636" lon="10.642430834917251"><ele>461.0</ele><time>2026-04-04T09:12:36Z</time></trkpt><trkpt lat="43.11517645979704" lon="10.642522318484449"><ele>461.0</ele><time>2026-04-04T09:12:37Z</time></trkpt><trkpt lat="43.115123652744856" lon="10.642602129221322"><ele>461.0</ele><time>2026-04-04T09:12:38Z</time></trkpt><trkpt lat="43.11504966794617" lon="10.642745902985652"><ele>461.0</ele><time>2026-04-04T09:12:40Z</time></trkpt><trkpt lat="43.11498687840143" lon="10.642863509582241"><ele>461.0</ele><time>2026-04-04T09:12:42Z</time></trkpt><trkpt lat="43.11493787199237" lon="10.643023831994975"><ele>461.0</ele><time>2026-04-04T09:12:44Z</time></trkpt><trkpt lat="43.11492238637377" lon="10.643113530627632"><ele>461.20000000000005</ele><time>2026-04-04T09:12:45Z</time></trkpt><trkpt lat="43.11493235339586" lon="10.643226084126594"><ele>461.40000000000003</ele><time>2026-04-04T09:12:46Z</time></trkpt><trkpt lat="43.11491747208668" lon="10.6433418071036"><ele>461.6</ele><time>2026-04-04T09:12:47Z</time></trkpt><trkpt lat="43.11491004243983" lon="10.643460926720817"><ele>461.8</ele><time>2026-04-04T09:12:48Z</time></trkpt><trkpt lat="43.11488616452607" lon="10.643548842248094"><ele>462.0</ele><time>2026-04-04T09:12:49Z</time></trkpt><trkpt lat="43.11475948339285" lon="10.643590512999634"><ele>459.20000000000005</ele><time>2026-04-04T09:12:51Z</time></trkpt><trkpt lat="43.11469627572694" lon="10.643628490247295"><ele>456.40000000000003</ele><time>2026-04-04T09:12:52Z</time></trkpt><trkpt lat="43.114585957068776" lon="10.643608846240884"><ele>453.59999999999997</ele><time>2026-04-04T09:12:54Z</time></trkpt><trkpt lat="43.11448417600478" lon="10.64358387779198"><ele>450.79999999999995</ele><time>2026-04-04T09:12:56Z</time></trkpt><trkpt lat="43.114389057135085" lon="10.643532215960615"><ele>448.0</ele><time>2026-04-04T09:12:58Z</time></trkpt><trkpt lat="43.114319930856965" lon="10.643498195587776"><ele>448.00000000000006</ele><time>2026-04-04T09:12:59Z</time></trkpt><trkpt lat="43.11423977253368" lon="10.643477045462825"><ele>448.0</ele><time>2026-04-04T09:13:00Z</time></trkpt><trkpt lat="43.11416838487521" lon="10.643479187650764"><ele>448.0</ele><time>2026-04-04T09:13:01Z</time></trkpt><trkpt lat="43.11405897058911" lon="10.643480767422258"><ele>448.0</ele><time>2026-04-04T09:13:03Z</time></trkpt><trkpt lat="43.11399465818349" lon="10.643482637404212"><ele>448.00000000000006</ele><time>2026-04-04T09:13:04Z</time></trkpt><trkpt lat="43.11391192631755" lon="10.643486502041414"><ele>448.0</ele><time>2026-04-04T09:13:05Z</time></trkpt><trkpt lat="43.113828657473356" lon="10.643495484124266"><ele>446.50000000000006</ele><time>2026-04-04T09:13:06Z</time></trkpt><trkpt lat="43.11374781297492" lon="10.64350447309635"><ele>445.0</ele><time>2026-04-04T09:13:07Z</time></trkpt><trkpt lat="43.11368471826393" lon="10.643518373294974"><ele>443.5</ele><time>2026-04-04T09:13:08Z</time></trkpt><trkpt lat="43.11359563921993" lon="10.643560655021641"><ele>442.0</ele><time>2026-04-04T09:13:09Z</time></trkpt><trkpt lat="43.11352692917835" lon="10.643613832278037"><ele>440.50000000000006</ele><time>2026-04-04T09:13:10Z</time></trkpt><trkpt lat="43.11346071336167" lon="10.643744280571283"><ele>439.0</ele><time>2026-04-04T09:13:11Z</time></trkpt><trkpt lat="43.11340578089742" lon="10.643850747941336"><ele>438.79999999999995</ele><time>2026-04-04T09:13:11.999Z</time></trkpt><trkpt lat="43.11335175211026" lon="10.64398335380571"><ele>438.59999999999997</ele><time>2026-04-04T09:13:12.999Z</time></trkpt><trkpt lat="43.113306955580896" lon="10.644115004360845"><ele>438.4</ele><time>2026-04-04T09:13:13.999Z</time></trkpt><trkpt lat="43.11325889637176" lon="10.644248448530995"><ele>438.2</ele><time>2026-04-04T09:13:14.999Z</time></trkpt><trkpt lat="43.11320723386896" lon="10.64436769086129"><ele>438.0</ele><time>2026-04-04T09:13:15.999Z</time></trkpt><trkpt lat="43.11315007891595" lon="10.6444785026531"><ele>438.0</ele><time>2026-04-04T09:13:16.999Z</time></trkpt><trkpt lat="43.11309329266635" lon="10.644572359650528"><ele>438.0</ele><time>2026-04-04T09:13:17.999Z</time></trkpt><trkpt lat="43.113051997597374" lon="10.644641332734865"><ele>438.0</ele><time>2026-04-04T09:13:18.999Z</time></trkpt><trkpt lat="43.11300436037575" lon="10.64472780580429"><ele>438.0</ele><time>2026-04-04T09:13:20.999Z</time></trkpt><trkpt lat="43.11294460516644" lon="10.644828629159864"><ele>438.0</ele><time>2026-04-04T09:13:23.999Z</time></trkpt><trkpt lat="43.11288675296408" lon="10.644887341164155"><ele>438.0</ele><time>2026-04-04T09:13:25.999Z</time></trkpt><trkpt lat="43.11284300369431" lon="10.644994709415903"><ele>438.0</ele><time>2026-04-04T09:13:27.999Z</time></trkpt><trkpt lat="43.112546154544276" lon="10.645173211907952"><ele>438.0</ele><time>2026-04-04T09:13:29.999Z</time></trkpt><trkpt lat="43.11281272325976" lon="10.645670653676865"><ele>438.0</ele><time>2026-04-04T09:13:40.999Z</time></trkpt><trkpt lat="43.11288771478318" lon="10.645685313173214"><ele>438.0</ele><time>2026-04-04T09:13:42.999Z</time></trkpt><trkpt lat="43.11298938658199" lon="10.645687760825703"><ele>438.0</ele><time>2026-04-04T09:13:45.999Z</time></trkpt><trkpt lat="43.113061783139116" lon="10.645699413059791"><ele>438.0</ele><time>2026-04-04T09:13:48.999Z</time></trkpt><trkpt lat="43.1131290840949" lon="10.645722532029541"><ele>438.0</ele><time>2026-04-04T09:13:51.999Z</time></trkpt><trkpt lat="43.11319352548781" lon="10.645768061313406"><ele>438.0</ele><time>2026-04-04T09:13:53.999Z</time></trkpt><trkpt lat="43.113260795546225" lon="10.645819310820391"><ele>436.5</ele><time>2026-04-04T09:13:55.999Z</time></trkpt><trkpt lat="43.113321324923824" lon="10.645882327231428"><ele>435.0</ele><time>2026-04-04T09:13:57.999Z</time></trkpt><trkpt lat="43.113396033954594" lon="10.64593808813654"><ele>433.5</ele><time>2026-04-04T09:13:59.999Z</time></trkpt><trkpt lat="43.11346772541189" lon="10.645948564099708"><ele>432.0</ele><time>2026-04-04T09:14:01.999Z</time></trkpt><trkpt lat="43.11353678035153" lon="10.645951205471293"><ele>430.5</ele><time>2026-04-04T09:14:04.999Z</time></trkpt><trkpt lat="43.11362004172494" lon="10.64598299861517"><ele>429.0</ele><time>2026-04-04T09:14:08.998Z</time></trkpt><trkpt lat="43.113677345069185" lon="10.646033708114768"><ele>426.79999999999995</ele><time>2026-04-04T09:14:10.998Z</time></trkpt><trkpt lat="43.11372470608731" lon="10.646131136005751"><ele>424.59999999999997</ele><time>2026-04-04T09:14:13.998Z</time></trkpt><trkpt lat="43.113750429776935" lon="10.646259645733299"><ele>422.4</ele><time>2026-04-04T09:14:15.998Z</time></trkpt><trkpt lat="43.113784992893216" lon="10.646381822566578"><ele>420.2</ele><time>2026-04-04T09:14:17.998Z</time></trkpt><trkpt lat="43.113806709176544" lon="10.646501187421027"><ele>418.0</ele><time>2026-04-04T09:14:19.998Z</time></trkpt><trkpt lat="43.113841974748276" lon="10.64660827369965"><ele>418.00000000000006</ele><time>2026-04-04T09:14:21.998Z</time></trkpt><trkpt lat="43.11390049484997" lon="10.646715792132872"><ele>418.0</ele><time>2026-04-04T09:14:23.998Z</time></trkpt><trkpt lat="43.11393397284227" lon="10.646816755812036"><ele>418.0</ele><time>2026-04-04T09:14:25.998Z</time></trkpt><trkpt lat="43.113894557400435" lon="10.646906231681575"><ele>418.0</ele><time>2026-04-04T09:14:27.998Z</time></trkpt><trkpt lat="43.11381111912414" lon="10.646920769769006"><ele>418.00000000000006</ele><time>2026-04-04T09:14:29.998Z</time></trkpt><trkpt lat="43.1137407234196" lon="10.6468707054156"><ele>418.0</ele><time>2026-04-04T09:14:31.998Z</time></trkpt><trkpt lat="43.11367292627782" lon="10.646860757401958"><ele>418.0</ele><time>2026-04-04T09:14:33.998Z</time></trkpt><trkpt lat="43.1135819862776" lon="10.646783593005898"><ele>418.0</ele><time>2026-04-04T09:14:35.998Z</time></trkpt><trkpt lat="43.11349799170044" lon="10.646722130913748"><ele>418.0</ele><time>2026-04-04T09:14:37.998Z</time></trkpt><trkpt lat="43.113434820635455" lon="10.646777951076192"><ele>418.0</ele><time>2026-04-04T09:14:40Z</time></trkpt><trkpt lat="43.113424313493326" lon="10.646885106218559"><ele>418.0</ele><time>2026-04-04T09:14:42Z</time></trkpt><trkpt lat="43.113471443493765" lon="10.646995839528142"><ele>416.33333333333337</ele><time>2026-04-04T09:14:44Z</time></trkpt><trkpt lat="43.1135305787249" lon="10.647089462598277"><ele>414.6666666666667</ele><time>2026-04-04T09:14:48Z</time></trkpt><trkpt lat="43.113575101910186" lon="10.647195135638992"><ele>413.0</ele><time>2026-04-04T09:14:50Z</time></trkpt><trkpt lat="43.11360997650157" lon="10.647277843306512"><ele>411.33333333333337</ele><time>2026-04-04T09:14:52Z</time></trkpt><trkpt lat="43.11364811319605" lon="10.647384462732408"><ele>409.6666666666667</ele><time>2026-04-04T09:14:54Z</time></trkpt><trkpt lat="43.11367528053577" lon="10.647481574490957"><ele>408.0</ele><time>2026-04-04T09:14:56Z</time></trkpt><trkpt lat="43.11370077692037" lon="10.647560569379287"><ele>408.0</ele><time>2026-04-04T09:14:58Z</time></trkpt><trkpt lat="43.113755947623105" lon="10.647646445132349"><ele>408.0</ele><time>2026-04-04T09:15:00Z</time></trkpt><trkpt lat="43.11381928001532" lon="10.647752017117636"><ele>408.0</ele><time>2026-04-04T09:15:02Z</time></trkpt><trkpt lat="43.11387109230744" lon="10.647874248678086"><ele>408.0</ele><time>2026-04-04T09:15:04Z</time></trkpt><trkpt lat="43.113869033991094" lon="10.648007076379463"><ele>408.0</ele><time>2026-04-04T09:15:06Z</time></trkpt><trkpt lat="43.11385891656496" lon="10.648115184003453"><ele>406.5</ele><time>2026-04-04T09:15:08Z</time></trkpt><trkpt lat="43.11384917636765" lon="10.648233563028702"><ele>405.0</ele><time>2026-04-04T09:15:10Z</time></trkpt><trkpt lat="43.11384691379768" lon="10.648325302972008"><ele>403.5</ele><time>2026-04-04T09:15:11Z</time></trkpt><trkpt lat="43.11383983707319" lon="10.648445315869663"><ele>402.0</ele><time>2026-04-04T09:15:13Z</time></trkpt><trkpt lat="43.1138584000518" lon="10.648587489807687"><ele>400.5</ele><time>2026-04-04T09:15:15Z</time></trkpt><trkpt lat="43.113887540179896" lon="10.6487198304778"><ele>399.0</ele><time>2026-04-04T09:15:17Z</time></trkpt><trkpt lat="43.11392932900079" lon="10.648875526300236"><ele>395.79999999999995</ele><time>2026-04-04T09:15:19Z</time></trkpt><trkpt lat="43.113981346597505" lon="10.649010554434943"><ele>392.59999999999997</ele><time>2026-04-04T09:15:20.999Z</time></trkpt><trkpt lat="43.11403142865932" lon="10.649132415640263"><ele>389.4</ele><time>2026-04-04T09:15:22.999Z</time></trkpt><trkpt lat="43.114072909012904" lon="10.649249519448253"><ele>386.2</ele><time>2026-04-04T09:15:24.999Z</time></trkpt><trkpt lat="43.114096474852325" lon="10.649360524842416"><ele>383.0</ele><time>2026-04-04T09:15:26.999Z</time></trkpt><trkpt lat="43.11417230145367" lon="10.649333297646919"><ele>383.0</ele><time>2026-04-04T09:15:31.999Z</time></trkpt><trkpt lat="43.11426153914044" lon="10.649326762155999"><ele>383.0</ele><time>2026-04-04T09:15:33.999Z</time></trkpt><trkpt lat="43.11435679069118" lon="10.649298479497077"><ele>383.0</ele><time>2026-04-04T09:15:35.999Z</time></trkpt><trkpt lat="43.11443828098361" lon="10.649235905125517"><ele>383.0</ele><time>2026-04-04T09:15:37.999Z</time></trkpt><trkpt lat="43.114523521203985" lon="10.649210753667598"><ele>383.0</ele><time>2026-04-04T09:15:39.999Z</time></trkpt><trkpt lat="43.11466025888263" lon="10.64920240822413"><ele>383.0</ele><time>2026-04-04T09:15:41.999Z</time></trkpt><trkpt lat="43.11476843386206" lon="10.649204994523021"><ele>383.0</ele><time>2026-04-04T09:15:42.999Z</time></trkpt><trkpt lat="43.114867172833165" lon="10.649157347335324"><ele>383.0</ele><time>2026-04-04T09:15:43.999Z</time></trkpt><trkpt lat="43.1149661449288" lon="10.649125624329876"><ele>383.0</ele><time>2026-04-04T09:15:44.999Z</time></trkpt><trkpt lat="43.11503929177638" lon="10.649098222516418"><ele>383.0</ele><time>2026-04-04T09:15:45.999Z</time></trkpt><trkpt lat="43.115108628681604" lon="10.649051854071152"><ele>381.79999999999995</ele><time>2026-04-04T09:15:46.999Z</time></trkpt><trkpt lat="43.11518011205006" lon="10.648969492753567"><ele>380.6</ele><time>2026-04-04T09:15:47.999Z</time></trkpt><trkpt lat="43.11526585141144" lon="10.648900448548678"><ele>379.4</ele><time>2026-04-04T09:15:48.999Z</time></trkpt><trkpt lat="43.11538071714624" lon="10.648938849635432"><ele>378.20000000000005</ele><time>2026-04-04T09:15:49.999Z</time></trkpt><trkpt lat="43.11546278149826" lon="10.648901010448295"><ele>377.0</ele><time>2026-04-04T09:15:50.999Z</time></trkpt><trkpt lat="43.11552073982188" lon="10.648852816202655"><ele>377.0</ele><time>2026-04-04T09:15:51.999Z</time></trkpt><trkpt lat="43.11561321464334" lon="10.648770958848305"><ele>377.0</ele><time>2026-04-04T09:15:53.999Z</time></trkpt><trkpt lat="43.11562731318683" lon="10.648630840058459"><ele>377.0</ele><time>2026-04-04T09:15:55.999Z</time></trkpt><trkpt lat="43.11565623912747" lon="10.648515488023934"><ele>377.0</ele><time>2026-04-04T09:15:56.999Z</time></trkpt><trkpt lat="43.1156816188302" lon="10.648415535153852"><ele>377.0</ele><time>2026-04-04T09:15:57.999Z</time></trkpt><trkpt lat="43.1157095997655" lon="10.648311523557734"><ele>375.40000000000003</ele><time>2026-04-04T09:15:58.999Z</time></trkpt><trkpt lat="43.11577364712707" lon="10.64816872371001"><ele>373.8</ele><time>2026-04-04T09:16:00.999Z</time></trkpt><trkpt lat="43.11587430907814" lon="10.648182444480536"><ele>372.2</ele><time>2026-04-04T09:16:02.999Z</time></trkpt><trkpt lat="43.11594018803581" lon="10.648066046402878"><ele>370.6</ele><time>2026-04-04T09:20:05.999Z</time></trkpt><trkpt lat="43.1159765791882" lon="10.647958796734875"><ele>369.0</ele><time>2026-04-04T09:20:06.999Z</time></trkpt><trkpt lat="43.116044978919795" lon="10.647857990800487"><ele>370.6666666666667</ele><time>2026-04-04T09:20:07.999Z</time></trkpt><trkpt lat="43.11612465092335" lon="10.64778520948321"><ele>372.3333333333333</ele><time>2026-04-04T09:20:08.999Z</time></trkpt><trkpt lat="43.1161902336724" lon="10.647711897750018"><ele>374.0</ele><time>2026-04-04T09:20:09.999Z</time></trkpt><trkpt lat="43.116225251804345" lon="10.647620906607116"><ele>375.66666666666663</ele><time>2026-04-04T09:20:10.999Z</time></trkpt><trkpt lat="43.11624380527801" lon="10.647523904010342"><ele>377.3333333333333</ele><time>2026-04-04T09:20:11.999Z</time></trkpt><trkpt lat="43.11627589501495" lon="10.647423212008317"><ele>379.0</ele><time>2026-04-04T09:20:12.999Z</time></trkpt><trkpt lat="43.11632221424105" lon="10.647328881334529"><ele>379.0</ele><time>2026-04-04T09:20:13.999Z</time></trkpt><trkpt lat="43.116370539232676" lon="10.647224850954489"><ele>379.0</ele><time>2026-04-04T09:20:14.999Z</time></trkpt><trkpt lat="43.11642291614954" lon="10.64711381103603"><ele>379.0</ele><time>2026-04-04T09:20:15.999Z</time></trkpt><trkpt lat="43.11642525615422" lon="10.646982754704544"><ele>379.0</ele><time>2026-04-04T09:20:16.999Z</time></trkpt><trkpt lat="43.11646107975956" lon="10.646882420965683"><ele>379.0</ele><time>2026-04-04T09:20:17.999Z</time></trkpt><trkpt lat="43.116511169002045" lon="10.64678736738678"><ele>379.0</ele><time>2026-04-04T09:20:18.999Z</time></trkpt><trkpt lat="43.11656466942598" lon="10.646728378827865"><ele>378.79999999999995</ele><time>2026-04-04T09:20:19.999Z</time></trkpt><trkpt lat="43.116633448204304" lon="10.646681551632856"><ele>378.59999999999997</ele><time>2026-04-04T09:20:20.999Z</time></trkpt><trkpt lat="43.116732007592866" lon="10.646702787931083"><ele>378.4</ele><time>2026-04-04T09:20:21.999Z</time></trkpt><trkpt lat="43.11683568494323" lon="10.646795537163383"><ele>378.2</ele><time>2026-04-04T09:20:22.999Z</time></trkpt><trkpt lat="43.11695207461791" lon="10.646838138197575"><ele>378.0</ele><time>2026-04-04T09:20:23.998Z</time></trkpt><trkpt lat="43.11707380366777" lon="10.646871646666098"><ele>378.0</ele><time>2026-04-04T09:20:24.998Z</time></trkpt><trkpt lat="43.11718099946656" lon="10.646880140694057"><ele>378.0</ele><time>2026-04-04T09:20:25.998Z</time></trkpt><trkpt lat="43.11727433115996" lon="10.646882961194613"><ele>378.0</ele><time>2026-04-04T09:20:26.998Z</time></trkpt><trkpt lat="43.11736022740227" lon="10.646883118467308"><ele>378.0</ele><time>2026-04-04T09:20:27.998Z</time></trkpt><trkpt lat="43.11745159323091" lon="10.646884496272278"><ele>378.0</ele><time>2026-04-04T09:20:28.998Z</time></trkpt><trkpt lat="43.117560154891606" lon="10.646919603626019"><ele>374.59999999999997</ele><time>2026-04-04T09:20:29.998Z</time></trkpt><trkpt lat="43.11765087996691" lon="10.646963741274785"><ele>371.2</ele><time>2026-04-04T09:20:30.998Z</time></trkpt><trkpt lat="43.117732539573126" lon="10.646985583543096"><ele>367.8</ele><time>2026-04-04T09:20:31.998Z</time></trkpt><trkpt lat="43.1178144334592" lon="10.64698578474285"><ele>364.4</ele><time>2026-04-04T09:20:32.998Z</time></trkpt><trkpt lat="43.117899767333526" lon="10.646979626510197"><ele>361.0</ele><time>2026-04-04T09:20:33.998Z</time></trkpt><trkpt lat="43.118014768769676" lon="10.646967925747179"><ele>362.20000000000005</ele><time>2026-04-04T09:20:35.998Z</time></trkpt><trkpt lat="43.118101643156415" lon="10.646913630570738"><ele>363.40000000000003</ele><time>2026-04-04T09:20:37.998Z</time></trkpt><trkpt lat="43.11815596405308" lon="10.646767305501683"><ele>364.6</ele><time>2026-04-04T09:20:39.998Z</time></trkpt><trkpt lat="43.118177410188416" lon="10.64666077006926"><ele>365.8</ele><time>2026-04-04T09:20:40.998Z</time></trkpt><trkpt lat="43.11820426003234" lon="10.64656073865512"><ele>367.0</ele><time>2026-04-04T09:20:41.998Z</time></trkpt><trkpt lat="43.118236021886446" lon="10.64639128857022"><ele>367.0</ele><time>2026-04-04T09:20:43.998Z</time></trkpt><trkpt lat="43.11828678213587" lon="10.646242964909161"><ele>367.0</ele><time>2026-04-04T09:20:45.998Z</time></trkpt><trkpt lat="43.11834474844044" lon="10.646182105048311"><ele>367.0</ele><time>2026-04-04T09:20:46.998Z</time></trkpt><trkpt lat="43.11839211869532" lon="10.64612379425192"><ele>367.0</ele><time>2026-04-04T09:20:47.998Z</time></trkpt><trkpt lat="43.11847257337208" lon="10.646101631176228"><ele>367.0</ele><time>2026-04-04T09:20:48.998Z</time></trkpt><trkpt lat="43.11858001142772" lon="10.646078556930245"><ele>367.0</ele><time>2026-04-04T09:20:50.998Z</time></trkpt><trkpt lat="43.11867972029992" lon="10.646023614955435"><ele>369.8333333333333</ele><time>2026-04-04T09:20:52.998Z</time></trkpt><trkpt lat="43.118746776331825" lon="10.645939648653528"><ele>372.66666666666663</ele><time>2026-04-04T09:20:54.998Z</time></trkpt><trkpt lat="43.118791992655915" lon="10.645838294064902"><ele>375.5</ele><time>2026-04-04T09:20:55.998Z</time></trkpt><trkpt lat="43.11882992920842" lon="10.645751785994527"><ele>378.3333333333333</ele><time>2026-04-04T09:20:57Z</time></trkpt><trkpt lat="43.11887078937382" lon="10.645665457485624"><ele>381.1666666666667</ele><time>2026-04-04T09:20:58Z</time></trkpt><trkpt lat="43.11890379299636" lon="10.645572846374534"><ele>384.0</ele><time>2026-04-04T09:20:59Z</time></trkpt><trkpt lat="43.118995329153684" lon="10.645450733010582"><ele>380.5</ele><time>2026-04-04T09:21:01Z</time></trkpt><trkpt lat="43.119074360919676" lon="10.645492568566828"><ele>377.0</ele><time>2026-04-04T09:21:02Z</time></trkpt><trkpt lat="43.119145074598116" lon="10.645475767712412"><ele>373.5</ele><time>2026-04-04T09:21:03Z</time></trkpt><trkpt lat="43.119225755630836" lon="10.645499232081935"><ele>370.0</ele><time>2026-04-04T09:21:04Z</time></trkpt><trkpt lat="43.119276018512544" lon="10.64560181691306"><ele>366.5</ele><time>2026-04-04T09:21:05Z</time></trkpt><trkpt lat="43.119370523682065" lon="10.645696702372192"><ele>363.0</ele><time>2026-04-04T09:21:07Z</time></trkpt><trkpt lat="43.119462145375266" lon="10.645773347186068"><ele>363.0</ele><time>2026-04-04T09:21:09Z</time></trkpt><trkpt lat="43.11953391163983" lon="10.645813393662328"><ele>363.0</ele><time>2026-04-04T09:21:10Z</time></trkpt><trkpt lat="43.11959819511945" lon="10.645822739079556"><ele>363.0</ele><time>2026-04-04T09:21:11Z</time></trkpt><trkpt lat="43.1196667746752" lon="10.645814356897763"><ele>363.0</ele><time>2026-04-04T09:21:12Z</time></trkpt><trkpt lat="43.11975393612556" lon="10.645807217155593"><ele>363.0</ele><time>2026-04-04T09:21:13Z</time></trkpt><trkpt lat="43.11981719624677" lon="10.645825383612015"><ele>363.0</ele><time>2026-04-04T09:21:14Z</time></trkpt><trkpt lat="43.11990295426202" lon="10.64579512815849"><ele>363.2</ele><time>2026-04-04T09:21:16Z</time></trkpt><trkpt lat="43.12002234195237" lon="10.64576419900858"><ele>363.4</ele><time>2026-04-04T09:21:18Z</time></trkpt><trkpt lat="43.12012772049317" lon="10.64575237893784"><ele>363.59999999999997</ele><time>2026-04-04T09:21:20Z</time></trkpt><trkpt lat="43.12023922187515" lon="10.64573836154481"><ele>363.79999999999995</ele><time>2026-04-04T09:21:22Z</time></trkpt><trkpt lat="43.12033033873512" lon="10.645703296346458"><ele>364.0</ele><time>2026-04-04T09:21:24Z</time></trkpt><trkpt lat="43.12043416650401" lon="10.645648285652126"><ele>364.0</ele><time>2026-04-04T09:21:26Z</time></trkpt><trkpt lat="43.12052579428259" lon="10.645592816905385"><ele>364.0</ele><time>2026-04-04T09:21:27.999Z</time></trkpt><trkpt lat="43.120590580236964" lon="10.645574419386458"><ele>364.0</ele><time>2026-04-04T09:21:29.999Z</time></trkpt><trkpt lat="43.12064090879734" lon="10.645740639669748"><ele>364.0</ele><time>2026-04-04T09:21:31.999Z</time></trkpt><trkpt lat="43.12067293445846" lon="10.64593434126768"><ele>364.0</ele><time>2026-04-04T09:21:33.999Z</time></trkpt><trkpt lat="43.12068096266773" lon="10.64603133326496"><ele>362.6</ele><time>2026-04-04T09:21:34.999Z</time></trkpt><trkpt lat="43.12067811093977" lon="10.64618201230915"><ele>361.2</ele><time>2026-04-04T09:21:36.999Z</time></trkpt><trkpt lat="43.12069232834" lon="10.64628251654728"><ele>359.8</ele><time>2026-04-04T09:21:37.999Z</time></trkpt><trkpt lat="43.120701008390526" lon="10.646468140093289"><ele>358.40000000000003</ele><time>2026-04-04T09:21:39.999Z</time></trkpt><trkpt lat="43.12072815976464" lon="10.64655947184244"><ele>357.0</ele><time>2026-04-04T09:21:40.999Z</time></trkpt><trkpt lat="43.12076029399707" lon="10.646664859832795"><ele>356.6666666666667</ele><time>2026-04-04T09:21:41.999Z</time></trkpt><trkpt lat="43.12078970293703" lon="10.646769809444049"><ele>356.3333333333333</ele><time>2026-04-04T09:21:42.999Z</time></trkpt><trkpt lat="43.12081910350197" lon="10.646883601137565"><ele>356.0</ele><time>2026-04-04T09:21:43.999Z</time></trkpt><trkpt lat="43.12086672663281" lon="10.64700219407269"><ele>355.66666666666663</ele><time>2026-04-04T09:21:44.999Z</time></trkpt><trkpt lat="43.120913471323156" lon="10.64709609333769"><ele>355.3333333333333</ele><time>2026-04-04T09:21:45.999Z</time></trkpt><trkpt lat="43.120973921548" lon="10.647178616801815"><ele>355.0</ele><time>2026-04-04T09:21:46.999Z</time></trkpt><trkpt lat="43.12103272386777" lon="10.647264370917242"><ele>355.66666666666663</ele><time>2026-04-04T09:21:47.999Z</time></trkpt><trkpt lat="43.12115722521377" lon="10.647351196922711"><ele>356.3333333333333</ele><time>2026-04-04T09:21:49.999Z</time></trkpt><trkpt lat="43.12124095623476" lon="10.647353839474903"><ele>357.0</ele><time>2026-04-04T09:21:50.999Z</time></trkpt><trkpt lat="43.12131928827039" lon="10.64736241468842"><ele>357.6666666666667</ele><time>2026-04-04T09:21:51.999Z</time></trkpt><trkpt lat="43.12139018573423" lon="10.64738925545809"><ele>358.33333333333337</ele><time>2026-04-04T09:21:52.999Z</time></trkpt><trkpt lat="43.12145936235936" lon="10.64740659337055"><ele>359.0</ele><time>2026-04-04T09:21:53.999Z</time></trkpt><trkpt lat="43.12153082224766" lon="10.647430421145849"><ele>358.33333333333337</ele><time>2026-04-04T09:21:54.999Z</time></trkpt><trkpt lat="43.1216026563363" lon="10.647467667769504"><ele>357.6666666666667</ele><time>2026-04-04T09:21:55.999Z</time></trkpt><trkpt lat="43.121671673257474" lon="10.647521361010767"><ele>357.0</ele><time>2026-04-04T09:21:56.999Z</time></trkpt><trkpt lat="43.12174032008147" lon="10.64757385612889"><ele>356.3333333333333</ele><time>2026-04-04T09:21:57.999Z</time></trkpt><trkpt lat="43.12180967886159" lon="10.64765768810876"><ele>355.66666666666663</ele><time>2026-04-04T09:21:58.999Z</time></trkpt><trkpt lat="43.121882935794396" lon="10.647747746678832"><ele>355.0</ele><time>2026-04-04T09:21:59.999Z</time></trkpt><trkpt lat="43.12193083986768" lon="10.647805465383472"><ele>358.5</ele><time>2026-04-04T09:22:00.999Z</time></trkpt><trkpt lat="43.121982989747025" lon="10.64786348381582"><ele>362.0</ele><time>2026-04-04T09:22:01.999Z</time></trkpt><trkpt lat="43.12210068794216" lon="10.647968783627471"><ele>365.5</ele><time>2026-04-04T09:22:03.999Z</time></trkpt><trkpt lat="43.12215896636915" lon="10.648050678720244"><ele>369.0</ele><time>2026-04-04T09:22:04.999Z</time></trkpt><trkpt lat="43.12221102100431" lon="10.648128518386716"><ele>372.5</ele><time>2026-04-04T09:22:05.999Z</time></trkpt><trkpt lat="43.12225745193573" lon="10.648193870644661"><ele>376.0</ele><time>2026-04-04T09:22:06.999Z</time></trkpt><trkpt lat="43.12234564278488" lon="10.648327020534305"><ele>376.0</ele><time>2026-04-04T09:22:08.999Z</time></trkpt><trkpt lat="43.122392904393934" lon="10.648410159321344"><ele>376.0</ele><time>2026-04-04T09:22:09.999Z</time></trkpt><trkpt lat="43.12243338023978" lon="10.648484837256484"><ele>376.0</ele><time>2026-04-04T09:22:10.999Z</time></trkpt><trkpt lat="43.12246400787968" lon="10.648560790923723"><ele>376.0</ele><time>2026-04-04T09:22:11.999Z</time></trkpt><trkpt lat="43.12252326202661" lon="10.648654537088225"><ele>376.0</ele><time>2026-04-04T09:22:12.999Z</time></trkpt><trkpt lat="43.1225650345943" lon="10.648743190012512"><ele>376.0</ele><time>2026-04-04T09:22:13.999Z</time></trkpt><trkpt lat="43.122621767718584" lon="10.648812864377597"><ele>372.0</ele><time>2026-04-04T09:22:14.999Z</time></trkpt><trkpt lat="43.12267037690686" lon="10.648885410212467"><ele>368.0</ele><time>2026-04-04T09:22:15.999Z</time></trkpt><trkpt lat="43.1227279775712" lon="10.649040248630756"><ele>364.0</ele><time>2026-04-04T09:22:17.999Z</time></trkpt><trkpt lat="43.122802923405416" lon="10.649176662233629"><ele>360.0</ele><time>2026-04-04T09:22:19.999Z</time></trkpt><trkpt lat="43.122842540242054" lon="10.64924605974111"><ele>356.0</ele><time>2026-04-04T09:22:20.999Z</time></trkpt><trkpt lat="43.12287360084182" lon="10.649322967865679"><ele>356.0</ele><time>2026-04-04T09:22:21.999Z</time></trkpt><trkpt lat="43.12291055303735" lon="10.649404608597807"><ele>356.0</ele><time>2026-04-04T09:22:22.999Z</time></trkpt><trkpt lat="43.122946796408385" lon="10.649479565634628"><ele>356.0</ele><time>2026-04-04T09:22:23.998Z</time></trkpt><trkpt lat="43.12297095315472" lon="10.649583774754024"><ele>356.0</ele><time>2026-04-04T09:22:24.998Z</time></trkpt><trkpt lat="43.12298199922062" lon="10.649690343015115"><ele>356.0</ele><time>2026-04-04T09:22:25.998Z</time></trkpt><trkpt lat="43.122982853676895" lon="10.649825532679046"><ele>356.0</ele><time>2026-04-04T09:22:27.998Z</time></trkpt><trkpt lat="43.12309160850666" lon="10.649942196269832"><ele>354.6</ele><time>2026-04-04T09:22:29.998Z</time></trkpt><trkpt lat="43.12316265732167" lon="10.650064751376952"><ele>353.20000000000005</ele><time>2026-04-04T09:22:31.998Z</time></trkpt><trkpt lat="43.123188314286956" lon="10.650150049066669"><ele>351.79999999999995</ele><time>2026-04-04T09:22:32.998Z</time></trkpt><trkpt lat="43.123124956816866" lon="10.650317257875821"><ele>350.4</ele><time>2026-04-04T09:22:34.998Z</time></trkpt><trkpt lat="43.12308614021539" lon="10.65041076174996"><ele>349.0</ele><time>2026-04-04T09:22:35.998Z</time></trkpt><trkpt lat="43.123057662985815" lon="10.650516452020081"><ele>347.3333333333333</ele><time>2026-04-04T09:22:36.998Z</time></trkpt><trkpt lat="43.12302506790824" lon="10.650620904503807"><ele>345.66666666666663</ele><time>2026-04-04T09:22:37.998Z</time></trkpt><trkpt lat="43.122982265813725" lon="10.650705257501553"><ele>344.0</ele><time>2026-04-04T09:22:38.998Z</time></trkpt><trkpt lat="43.12293513927563" lon="10.650784099495896"><ele>342.3333333333333</ele><time>2026-04-04T09:22:39.998Z</time></trkpt><trkpt lat="43.12288091360397" lon="10.650862876759096"><ele>340.6666666666667</ele><time>2026-04-04T09:22:40.998Z</time></trkpt><trkpt lat="43.12281167806167" lon="10.65094992504275"><ele>339.0</ele><time>2026-04-04T09:22:41.998Z</time></trkpt><trkpt lat="43.12273469472345" lon="10.651045824119054"><ele>335.0</ele><time>2026-04-04T09:22:42.998Z</time></trkpt><trkpt lat="43.122656728076116" lon="10.651150427494372"><ele>331.0</ele><time>2026-04-04T09:22:43.998Z</time></trkpt><trkpt lat="43.1225860863265" lon="10.651249194002936"><ele>327.0</ele><time>2026-04-04T09:22:44.998Z</time></trkpt><trkpt lat="43.1225239070881" lon="10.651347809888458"><ele>323.0</ele><time>2026-04-04T09:22:45.998Z</time></trkpt><trkpt lat="43.122465718718274" lon="10.6514360184085"><ele>319.0</ele><time>2026-04-04T09:22:46.998Z</time></trkpt><trkpt lat="43.12240458561937" lon="10.651512540018532"><ele>320.66666666666663</ele><time>2026-04-04T09:22:47.998Z</time></trkpt><trkpt lat="43.12234522818519" lon="10.651558866307496"><ele>322.3333333333333</ele><time>2026-04-04T09:22:48.998Z</time></trkpt><trkpt lat="43.12225997771908" lon="10.651581071956699"><ele>324.0</ele><time>2026-04-04T09:22:49.998Z</time></trkpt><trkpt lat="43.12219479832475" lon="10.651631430219817"><ele>325.6666666666667</ele><time>2026-04-04T09:22:50.998Z</time></trkpt><trkpt lat="43.122129328493145" lon="10.651656905459795"><ele>327.33333333333337</ele><time>2026-04-04T09:22:51.998Z</time></trkpt><trkpt lat="43.122050442433405" lon="10.651661827552848"><ele>329.0</ele><time>2026-04-04T09:22:52.998Z</time></trkpt><trkpt lat="43.12195727111201" lon="10.651643871704515"><ele>329.0</ele><time>2026-04-04T09:22:53.998Z</time></trkpt><trkpt lat="43.12186992200669" lon="10.65168478584255"><ele>329.0</ele><time>2026-04-04T09:22:54.998Z</time></trkpt><trkpt lat="43.1218082475866" lon="10.651741467242887"><ele>329.0</ele><time>2026-04-04T09:22:55.998Z</time></trkpt><trkpt lat="43.121753646962624" lon="10.65185703034453"><ele>329.0</ele><time>2026-04-04T09:22:56.998Z</time></trkpt><trkpt lat="43.12170480013572" lon="10.651944710527832"><ele>329.0</ele><time>2026-04-04T09:22:57.998Z</time></trkpt><trkpt lat="43.1216823190094" lon="10.652045090993246"><ele>329.0</ele><time>2026-04-04T09:22:58.998Z</time></trkpt><trkpt lat="43.12163884637126" lon="10.652113122087469"><ele>327.0</ele><time>2026-04-04T09:22:59.998Z</time></trkpt><trkpt lat="43.121614021922326" lon="10.652197896812739"><ele>325.0</ele><time>2026-04-04T09:23:00.998Z</time></trkpt><trkpt lat="43.121604027241304" lon="10.652291074572883"><ele>323.0</ele><time>2026-04-04T09:23:01.998Z</time></trkpt><trkpt lat="43.12166430143062" lon="10.65245689772469"><ele>321.0</ele><time>2026-04-04T09:23:04Z</time></trkpt><trkpt lat="43.121713651300695" lon="10.65255508072032"><ele>319.0</ele><time>2026-04-04T09:23:05Z</time></trkpt><trkpt lat="43.12174283559332" lon="10.652648454585988"><ele>317.0</ele><time>2026-04-04T09:23:06Z</time></trkpt><trkpt lat="43.12177888445685" lon="10.652752897995928"><ele>316.33333333333337</ele><time>2026-04-04T09:23:07Z</time></trkpt><trkpt lat="43.121817731233904" lon="10.652854390305453"><ele>315.6666666666667</ele><time>2026-04-04T09:23:08Z</time></trkpt><trkpt lat="43.12185704285192" lon="10.652943995939468"><ele>315.0</ele><time>2026-04-04T09:23:09Z</time></trkpt><trkpt lat="43.12189769570602" lon="10.653018248387884"><ele>314.3333333333333</ele><time>2026-04-04T09:23:10Z</time></trkpt><trkpt lat="43.12193817403924" lon="10.6531069149827"><ele>313.66666666666663</ele><time>2026-04-04T09:23:11Z</time></trkpt><trkpt lat="43.12197152041736" lon="10.653193744127202"><ele>313.0</ele><time>2026-04-04T09:23:12Z</time></trkpt><trkpt lat="43.12196922372389" lon="10.653301990496072"><ele>313.0</ele><time>2026-04-04T09:23:13Z</time></trkpt><trkpt lat="43.12197130946482" lon="10.653399162929547"><ele>313.0</ele><time>2026-04-04T09:23:14Z</time></trkpt><trkpt lat="43.121972742530254" lon="10.653515405609047"><ele>313.0</ele><time>2026-04-04T09:23:15Z</time></trkpt><trkpt lat="43.121971461963184" lon="10.65362377327416"><ele>313.0</ele><time>2026-04-04T09:23:16Z</time></trkpt><trkpt lat="43.121964331494716" lon="10.653720689743704"><ele>313.0</ele><time>2026-04-04T09:23:17Z</time></trkpt><trkpt lat="43.12195248052469" lon="10.653831886421624"><ele>313.0</ele><time>2026-04-04T09:23:18Z</time></trkpt><trkpt lat="43.12194151200284" lon="10.653934803163642"><ele>311.66666666666663</ele><time>2026-04-04T09:23:19Z</time></trkpt><trkpt lat="43.12193117333052" lon="10.65404050707956"><ele>310.3333333333333</ele><time>2026-04-04T09:23:20Z</time></trkpt><trkpt lat="43.121944450027925" lon="10.654149235420666"><ele>309.0</ele><time>2026-04-04T09:23:21Z</time></trkpt><trkpt lat="43.12194555422029" lon="10.654247170794333"><ele>307.6666666666667</ele><time>2026-04-04T09:23:22Z</time></trkpt><trkpt lat="43.12196243229959" lon="10.654373128835442"><ele>306.33333333333337</ele><time>2026-04-04T09:23:23Z</time></trkpt><trkpt lat="43.12199298927423" lon="10.654504633462523"><ele>305.0</ele><time>2026-04-04T09:23:24Z</time></trkpt><trkpt lat="43.12204184070743" lon="10.65461782914289"><ele>303.8</ele><time>2026-04-04T09:23:25Z</time></trkpt><trkpt lat="43.12209198331768" lon="10.654743619860389"><ele>302.6</ele><time>2026-04-04T09:23:26Z</time></trkpt><trkpt lat="43.12215088635586" lon="10.65487650149288"><ele>301.4</ele><time>2026-04-04T09:23:27Z</time></trkpt><trkpt lat="43.12219972634635" lon="10.654999127104745"><ele>300.2</ele><time>2026-04-04T09:23:28Z</time></trkpt><trkpt lat="43.1222205385704" lon="10.655127451168108"><ele>299.0</ele><time>2026-04-04T09:23:29Z</time></trkpt><trkpt lat="43.12225038055517" lon="10.655250007902746"><ele>297.1666666666667</ele><time>2026-04-04T09:23:30Z</time></trkpt><trkpt lat="43.12226148087926" lon="10.655365833862959"><ele>295.33333333333337</ele><time>2026-04-04T09:23:31Z</time></trkpt><trkpt lat="43.12225705150548" lon="10.655477698439874"><ele>293.5</ele><time>2026-04-04T09:23:32Z</time></trkpt><trkpt lat="43.12225274832994" lon="10.655586168147229"><ele>291.6666666666667</ele><time>2026-04-04T09:23:33Z</time></trkpt><trkpt lat="43.12224595134961" lon="10.655678285995885"><ele>289.8333333333333</ele><time>2026-04-04T09:23:34Z</time></trkpt><trkpt lat="43.1222392880442" lon="10.655776470390999"><ele>288.0</ele><time>2026-04-04T09:23:35Z</time></trkpt><trkpt lat="43.122230684415705" lon="10.655881364182077"><ele>288.0</ele><time>2026-04-04T09:23:36Z</time></trkpt><trkpt lat="43.12221663579947" lon="10.65598765860028"><ele>288.0</ele><time>2026-04-04T09:23:37Z</time></trkpt><trkpt lat="43.12219560709951" lon="10.656080211789469"><ele>288.0</ele><time>2026-04-04T09:23:37.999Z</time></trkpt><trkpt lat="43.12214367152282" lon="10.656133983106077"><ele>288.0</ele><time>2026-04-04T09:23:38.999Z</time></trkpt><trkpt lat="43.122112339513485" lon="10.65621994543297"><ele>288.0</ele><time>2026-04-04T09:23:39.999Z</time></trkpt><trkpt lat="43.122065693945146" lon="10.65634792190141"><ele>288.0</ele><time>2026-04-04T09:23:41.999Z</time></trkpt><trkpt lat="43.122063977331166" lon="10.656435015775209"><ele>286.7142857142857</ele><time>2026-04-04T09:23:42.999Z</time></trkpt><trkpt lat="43.12207905866324" lon="10.656520502829466"><ele>285.42857142857144</ele><time>2026-04-04T09:23:43.999Z</time></trkpt><trkpt lat="43.122122512990146" lon="10.656588574297048"><ele>284.1428571428571</ele><time>2026-04-04T09:23:44.999Z</time></trkpt><trkpt lat="43.12218702321234" lon="10.656620459284293"><ele>282.8571428571429</ele><time>2026-04-04T09:23:45.999Z</time></trkpt><trkpt lat="43.12225994034128" lon="10.656577180499694"><ele>281.57142857142856</ele><time>2026-04-04T09:23:46.999Z</time></trkpt><trkpt lat="43.12232584065767" lon="10.656558821194073"><ele>280.2857142857143</ele><time>2026-04-04T09:23:47.999Z</time></trkpt><trkpt lat="43.12239602029769" lon="10.656538395211895"><ele>279.0</ele><time>2026-04-04T09:23:48.999Z</time></trkpt><trkpt lat="43.122467543420434" lon="10.656515853858247"><ele>279.0</ele><time>2026-04-04T09:23:49.999Z</time></trkpt><trkpt lat="43.12252935086734" lon="10.656495373731044"><ele>279.0</ele><time>2026-04-04T09:23:50.999Z</time></trkpt><trkpt lat="43.12265294634019" lon="10.65645965420133"><ele>279.0</ele><time>2026-04-04T09:23:52.999Z</time></trkpt><trkpt lat="43.12270883424229" lon="10.656409160224793"><ele>279.0</ele><time>2026-04-04T09:23:53.999Z</time></trkpt><trkpt lat="43.122769416004495" lon="10.656374923639373"><ele>279.0</ele><time>2026-04-04T09:23:54.999Z</time></trkpt><trkpt lat="43.12286306732159" lon="10.656330612643103"><ele>279.0</ele><time>2026-04-04T09:23:56.999Z</time></trkpt><trkpt lat="43.12293432161436" lon="10.65635212538871"><ele>279.0</ele><time>2026-04-04T09:23:58.999Z</time></trkpt><trkpt lat="43.12295230741206" lon="10.656473513281734"><ele>279.0</ele><time>2026-04-04T09:24:00.999Z</time></trkpt><trkpt lat="43.1229765244757" lon="10.656645845801108"><ele>279.0</ele><time>2026-04-04T09:24:02.999Z</time></trkpt><trkpt lat="43.12300053149725" lon="10.656737015837248"><ele>279.0</ele><time>2026-04-04T09:24:03.999Z</time></trkpt><trkpt lat="43.12303583487213" lon="10.656843022587555"><ele>279.0</ele><time>2026-04-04T09:24:04.999Z</time></trkpt><trkpt lat="43.12306613617737" lon="10.656934144043143"><ele>279.0</ele><time>2026-04-04T09:24:05.999Z</time></trkpt><trkpt lat="43.12310069121626" lon="10.657047823587394"><ele>277.3333333333333</ele><time>2026-04-04T09:24:06.999Z</time></trkpt><trkpt lat="43.12312039652621" lon="10.657161571090509"><ele>275.6666666666667</ele><time>2026-04-04T09:24:07.999Z</time></trkpt><trkpt lat="43.123134799061376" lon="10.65728222379738"><ele>274.0</ele><time>2026-04-04T09:24:08.999Z</time></trkpt><trkpt lat="43.12314040924079" lon="10.657401168857941"><ele>272.33333333333337</ele><time>2026-04-04T09:24:09.999Z</time></trkpt><trkpt lat="43.123116740246736" lon="10.65749870395083"><ele>270.6666666666667</ele><time>2026-04-04T09:24:10.999Z</time></trkpt><trkpt lat="43.12309179949217" lon="10.657617902557057"><ele>269.0</ele><time>2026-04-04T09:24:11.999Z</time></trkpt><trkpt lat="43.123086898726264" lon="10.657741143096851"><ele>266.0</ele><time>2026-04-04T09:24:12.999Z</time></trkpt><trkpt lat="43.1231019086305" lon="10.6578488072692"><ele>263.0</ele><time>2026-04-04T09:24:13.999Z</time></trkpt><trkpt lat="43.12310577441843" lon="10.65795099945948"><ele>260.0</ele><time>2026-04-04T09:24:14.999Z</time></trkpt><trkpt lat="43.12312627586991" lon="10.658048832218885"><ele>257.0</ele><time>2026-04-04T09:24:15.999Z</time></trkpt><trkpt lat="43.123154829847266" lon="10.658128664199289"><ele>254.00000000000003</ele><time>2026-04-04T09:24:16.999Z</time></trkpt><trkpt lat="43.123169162735934" lon="10.658250207813165"><ele>251.0</ele><time>2026-04-04T09:24:18.999Z</time></trkpt><trkpt lat="43.123220926168464" lon="10.658332510521232"><ele>251.8</ele><time>2026-04-04T09:24:21.999Z</time></trkpt><trkpt lat="43.12329120793593" lon="10.658315605920476"><ele>252.60000000000002</ele><time>2026-04-04T09:24:22.999Z</time></trkpt><trkpt lat="43.123332354794236" lon="10.658198654469043"><ele>253.4</ele><time>2026-04-04T09:24:23.999Z</time></trkpt><trkpt lat="43.123316421602226" lon="10.658074036648848"><ele>254.2</ele><time>2026-04-04T09:24:24.999Z</time></trkpt><trkpt lat="43.123335795687694" lon="10.657956621187266"><ele>255.0</ele><time>2026-04-04T09:24:25.999Z</time></trkpt><trkpt lat="43.123368298780306" lon="10.657819692947653"><ele>255.33333333333331</ele><time>2026-04-04T09:24:26.999Z</time></trkpt><trkpt lat="43.12342638010185" lon="10.657676035272905"><ele>255.66666666666666</ele><time>2026-04-04T09:24:27.999Z</time></trkpt><trkpt lat="43.12359927597403" lon="10.65764955068004"><ele>256.0</ele><time>2026-04-04T09:24:28.999Z</time></trkpt><trkpt lat="43.12362455748526" lon="10.657413790657706"><ele>255.99999999999997</ele><time>2026-04-04T09:24:29.999Z</time></trkpt><trkpt lat="43.12360630369769" lon="10.657267828896039"><ele>256.0</ele><time>2026-04-04T09:24:30.999Z</time></trkpt><trkpt lat="43.123595236592806" lon="10.657148589322686"><ele>256.0</ele><time>2026-04-04T09:24:31.999Z</time></trkpt><trkpt lat="43.12358193459789" lon="10.657047261952036"><ele>256.0</ele><time>2026-04-04T09:24:32.999Z</time></trkpt><trkpt lat="43.12361765901933" lon="10.656952464763377"><ele>255.99999999999997</ele><time>2026-04-04T09:24:33.999Z</time></trkpt><trkpt lat="43.12368996958274" lon="10.656886513970779"><ele>256.0</ele><time>2026-04-04T09:24:34.999Z</time></trkpt><trkpt lat="43.123809276731365" lon="10.65691018473288"><ele>257.2</ele><time>2026-04-04T09:24:35.999Z</time></trkpt><trkpt lat="43.12391169792951" lon="10.656871778388737"><ele>258.40000000000003</ele><time>2026-04-04T09:24:36.999Z</time></trkpt><trkpt lat="43.12399443454587" lon="10.656807483303288"><ele>259.6</ele><time>2026-04-04T09:24:37.998Z</time></trkpt><trkpt lat="43.12406633011418" lon="10.656729560332044"><ele>260.8</ele><time>2026-04-04T09:24:38.998Z</time></trkpt><trkpt lat="43.124117851376724" lon="10.656652020686138"><ele>262.0</ele><time>2026-04-04T09:24:39.998Z</time></trkpt><trkpt lat="43.12421129980036" lon="10.65658056528877"><ele>260.8</ele><time>2026-04-04T09:24:41.998Z</time></trkpt><trkpt lat="43.12426707794153" lon="10.656703544109611"><ele>259.6</ele><time>2026-04-04T09:24:43.998Z</time></trkpt><trkpt lat="43.12421894128653" lon="10.656791391759704"><ele>258.40000000000003</ele><time>2026-04-04T09:24:44.998Z</time></trkpt><trkpt lat="43.12416000377493" lon="10.656846249080909"><ele>257.2</ele><time>2026-04-04T09:24:45.998Z</time></trkpt><trkpt lat="43.12409418305759" lon="10.656959641947157"><ele>256.0</ele><time>2026-04-04T09:24:46.998Z</time></trkpt><trkpt lat="43.1240342825129" lon="10.657051674716667"><ele>256.0</ele><time>2026-04-04T09:24:47.998Z</time></trkpt><trkpt lat="43.12398603986516" lon="10.657121869071153"><ele>256.0</ele><time>2026-04-04T09:24:48.998Z</time></trkpt><trkpt lat="43.123943554748344" lon="10.657210616522036"><ele>256.0</ele><time>2026-04-04T09:24:49.998Z</time></trkpt><trkpt lat="43.12393164812955" lon="10.657308566499124"><ele>256.0</ele><time>2026-04-04T09:24:50.998Z</time></trkpt><trkpt lat="43.123985115155584" lon="10.657440018988876"><ele>256.0</ele><time>2026-04-04T09:24:51.998Z</time></trkpt><trkpt lat="43.12411884328099" lon="10.657477867277745"><ele>251.4</ele><time>2026-04-04T09:24:52.998Z</time></trkpt><trkpt lat="43.12420886225617" lon="10.657490761540625"><ele>246.8</ele><time>2026-04-04T09:24:53.998Z</time></trkpt><trkpt lat="43.12432409656787" lon="10.657506350713035"><ele>242.20000000000002</ele><time>2026-04-04T09:24:54.998Z</time></trkpt><trkpt lat="43.12443337039361" lon="10.657508131837256"><ele>237.60000000000002</ele><time>2026-04-04T09:24:55.998Z</time></trkpt><trkpt lat="43.124541559133206" lon="10.65750813184789"><ele>233.0</ele><time>2026-04-04T09:24:56.998Z</time></trkpt><trkpt lat="43.12465578215893" lon="10.657506790497111"><ele>233.0</ele><time>2026-04-04T09:24:57.998Z</time></trkpt><trkpt lat="43.124755225692496" lon="10.657505904522283"><ele>233.0</ele><time>2026-04-04T09:24:58.998Z</time></trkpt><trkpt lat="43.12485618715884" lon="10.657517219899379"><ele>233.0</ele><time>2026-04-04T09:24:59.998Z</time></trkpt><trkpt lat="43.12495884640408" lon="10.657549518984489"><ele>233.0</ele><time>2026-04-04T09:25:00.998Z</time></trkpt><trkpt lat="43.12506052781431" lon="10.657606813636846"><ele>233.0</ele><time>2026-04-04T09:25:01.998Z</time></trkpt><trkpt lat="43.12516436361143" lon="10.657670898716269"><ele>229.8</ele><time>2026-04-04T09:25:02.998Z</time></trkpt><trkpt lat="43.125245518940694" lon="10.657724502062601"><ele>226.60000000000002</ele><time>2026-04-04T09:25:03.998Z</time></trkpt><trkpt lat="43.12534690306823" lon="10.65776130237652"><ele>223.39999999999998</ele><time>2026-04-04T09:25:04.998Z</time></trkpt><trkpt lat="43.125448258093186" lon="10.657798385307197"><ele>220.2</ele><time>2026-04-04T09:25:05.998Z</time></trkpt><trkpt lat="43.12555082871782" lon="10.657819136518293"><ele>217.0</ele><time>2026-04-04T09:25:06.998Z</time></trkpt><trkpt lat="43.12562632854315" lon="10.65787313764823"><ele>217.0</ele><time>2026-04-04T09:25:07.998Z</time></trkpt><trkpt lat="43.12570257345708" lon="10.657926731971035"><ele>217.0</ele><time>2026-04-04T09:25:09Z</time></trkpt><trkpt lat="43.12578646505019" lon="10.65798527200587"><ele>217.0</ele><time>2026-04-04T09:25:10Z</time></trkpt><trkpt lat="43.12589891145217" lon="10.658039339686379"><ele>217.0</ele><time>2026-04-04T09:25:11Z</time></trkpt><trkpt lat="43.12598289620928" lon="10.65808878628038"><ele>217.0</ele><time>2026-04-04T09:25:12Z</time></trkpt><trkpt lat="43.12606405138816" lon="10.658095058347488"><ele>214.2</ele><time>2026-04-04T09:25:13Z</time></trkpt><trkpt lat="43.12615674150746" lon="10.658090308974096"><ele>211.39999999999998</ele><time>2026-04-04T09:25:14Z</time></trkpt><trkpt lat="43.126253445652644" lon="10.658134636082083"><ele>208.60000000000002</ele><time>2026-04-04T09:25:15Z</time></trkpt><trkpt lat="43.12633743196804" lon="10.65815747696517"><ele>205.8</ele><time>2026-04-04T09:25:16Z</time></trkpt><trkpt lat="43.12643924427612" lon="10.658185165780584"><ele>203.0</ele><time>2026-04-04T09:25:17Z</time></trkpt><trkpt lat="43.12653200085772" lon="10.658212746841382"><ele>201.2</ele><time>2026-04-04T09:25:18Z</time></trkpt><trkpt lat="43.1266087148383" lon="10.658239776422592"><ele>199.4</ele><time>2026-04-04T09:25:19Z</time></trkpt><trkpt lat="43.126691693082925" lon="10.658271798772331"><ele>197.6</ele><time>2026-04-04T09:25:20Z</time></trkpt><trkpt lat="43.12678943404961" lon="10.65831967378753"><ele>195.79999999999998</ele><time>2026-04-04T09:25:21Z</time></trkpt><trkpt lat="43.12688890247357" lon="10.65838532005101"><ele>194.0</ele><time>2026-04-04T09:25:22Z</time></trkpt><trkpt lat="43.12699513460877" lon="10.658490245214846"><ele>194.0</ele><time>2026-04-04T09:25:23Z</time></trkpt><trkpt lat="43.12708155757439" lon="10.658555736123494"><ele>194.0</ele><time>2026-04-04T09:25:24Z</time></trkpt><trkpt lat="43.12717854334419" lon="10.658639510455094"><ele>194.0</ele><time>2026-04-04T09:25:25Z</time></trkpt><trkpt lat="43.127267510987316" lon="10.658709818517712"><ele>194.0</ele><time>2026-04-04T09:25:26Z</time></trkpt><trkpt lat="43.12733657802151" lon="10.658780669468173"><ele>194.0</ele><time>2026-04-04T09:25:27Z</time></trkpt><trkpt lat="43.1273935700083" lon="10.658824414030008"><ele>191.79999999999998</ele><time>2026-04-04T09:25:28Z</time></trkpt><trkpt lat="43.127476616935425" lon="10.658956840934362"><ele>189.6</ele><time>2026-04-04T09:25:30Z</time></trkpt><trkpt lat="43.127521515382185" lon="10.65903861517128"><ele>187.4</ele><time>2026-04-04T09:25:31Z</time></trkpt><trkpt lat="43.127605725113575" lon="10.659170925784101"><ele>185.2</ele><time>2026-04-04T09:25:33Z</time></trkpt><trkpt lat="43.12769762856933" lon="10.65925830336367"><ele>183.0</ele><time>2026-04-04T09:25:35Z</time></trkpt><trkpt lat="43.12776684817564" lon="10.659324433707228"><ele>183.0</ele><time>2026-04-04T09:25:37Z</time></trkpt><trkpt lat="43.12781156293505" lon="10.659393265650099"><ele>183.0</ele><time>2026-04-04T09:25:39Z</time></trkpt><trkpt lat="43.12790283607992" lon="10.659515983172877"><ele>183.0</ele><time>2026-04-04T09:25:41Z</time></trkpt><trkpt lat="43.12797550792709" lon="10.659572682507067"><ele>183.0</ele><time>2026-04-04T09:25:42Z</time></trkpt><trkpt lat="43.12805342825802" lon="10.659657078493359"><ele>183.0</ele><time>2026-04-04T09:25:43Z</time></trkpt><trkpt lat="43.12811939659423" lon="10.659737781769195"><ele>180.75</ele><time>2026-04-04T09:25:45Z</time></trkpt><trkpt lat="43.12824406289879" lon="10.65982596050712"><ele>178.5</ele><time>2026-04-04T09:25:47Z</time></trkpt><trkpt lat="43.128311755615314" lon="10.659852002689645"><ele>176.25</ele><time>2026-04-04T09:25:48Z</time></trkpt><trkpt lat="43.12847727752085" lon="10.659857236242328"><ele>174.0</ele><time>2026-04-04T09:25:50Z</time></trkpt><trkpt lat="43.12856540983677" lon="10.659790832157489"><ele>174.0</ele><time>2026-04-04T09:25:50.999Z</time></trkpt><trkpt lat="43.12866249351789" lon="10.65975904527599"><ele>174.0</ele><time>2026-04-04T09:25:51.999Z</time></trkpt><trkpt lat="43.128740048351055" lon="10.659736129352813"><ele>174.0</ele><time>2026-04-04T09:25:52.999Z</time></trkpt><trkpt lat="43.12881286291264" lon="10.659728389983378"><ele>174.0</ele><time>2026-04-04T09:25:53.999Z</time></trkpt><trkpt lat="43.128895274368666" lon="10.659743798665774"><ele>174.0</ele><time>2026-04-04T09:25:54.999Z</time></trkpt><trkpt lat="43.12897804795868" lon="10.65978562278551"><ele>174.0</ele><time>2026-04-04T09:25:55.999Z</time></trkpt><trkpt lat="43.12906999537026" lon="10.659888457144021"><ele>170.33333333333334</ele><time>2026-04-04T09:25:56.999Z</time></trkpt><trkpt lat="43.129153259594425" lon="10.660025914044718"><ele>166.66666666666669</ele><time>2026-04-04T09:25:57.999Z</time></trkpt><trkpt lat="43.12926764236725" lon="10.660191943883914"><ele>163.0</ele><time>2026-04-04T09:25:58.999Z</time></trkpt><trkpt lat="43.12935713958439" lon="10.660363824406954"><ele>163.0</ele><time>2026-04-04T09:25:59.999Z</time></trkpt><trkpt lat="43.129428604354146" lon="10.660494663844693"><ele>163.0</ele><time>2026-04-04T09:26:00.999Z</time></trkpt><trkpt lat="43.129502447073506" lon="10.660612013596428"><ele>163.0</ele><time>2026-04-04T09:26:01.999Z</time></trkpt><trkpt lat="43.1295667973681" lon="10.660721651206883"><ele>163.0</ele><time>2026-04-04T09:26:02.999Z</time></trkpt><trkpt lat="43.129620607767855" lon="10.660833665261485"><ele>163.0</ele><time>2026-04-04T09:26:03.999Z</time></trkpt><trkpt lat="43.12966490627253" lon="10.660947952098592"><ele>163.0</ele><time>2026-04-04T09:26:04.999Z</time></trkpt><trkpt lat="43.12970112934847" lon="10.66108139461941"><ele>163.0</ele><time>2026-04-04T09:26:05.999Z</time></trkpt><trkpt lat="43.12971398586482" lon="10.661215158774269"><ele>163.0</ele><time>2026-04-04T09:26:06.999Z</time></trkpt><trkpt lat="43.12974655443944" lon="10.661310567405346"><ele>163.0</ele><time>2026-04-04T09:26:07.999Z</time></trkpt><trkpt lat="43.129760840812615" lon="10.661447475208655"><ele>163.0</ele><time>2026-04-04T09:26:09.999Z</time></trkpt><trkpt lat="43.12980694986034" lon="10.661508055213552"><ele>163.0</ele><time>2026-04-04T09:26:10.999Z</time></trkpt><trkpt lat="43.12987931274734" lon="10.66155373603671"><ele>160.20000000000002</ele><time>2026-04-04T09:26:11.999Z</time></trkpt><trkpt lat="43.129982807623456" lon="10.6616055583984"><ele>157.4</ele><time>2026-04-04T09:26:12.999Z</time></trkpt><trkpt lat="43.130079747632685" lon="10.66163364918133"><ele>154.60000000000002</ele><time>2026-04-04T09:26:13.999Z</time></trkpt><trkpt lat="43.13018106075295" lon="10.661661436684822"><ele>151.8</ele><time>2026-04-04T09:26:14.999Z</time></trkpt><trkpt lat="43.13027584482944" lon="10.661683100856157"><ele>149.0</ele><time>2026-04-04T09:26:15.999Z</time></trkpt><trkpt lat="43.130374646116245" lon="10.661701781672166"><ele>149.0</ele><time>2026-04-04T09:26:16.999Z</time></trkpt><trkpt lat="43.130464377083314" lon="10.661731364717715"><ele>149.0</ele><time>2026-04-04T09:26:17.999Z</time></trkpt><trkpt lat="43.1305570878208" lon="10.661772585841803"><ele>149.0</ele><time>2026-04-04T09:26:18.999Z</time></trkpt><trkpt lat="43.13064903801674" lon="10.661786815570698"><ele>149.0</ele><time>2026-04-04T09:26:19.999Z</time></trkpt><trkpt lat="43.13073255617132" lon="10.661813185844897"><ele>149.0</ele><time>2026-04-04T09:26:20.999Z</time></trkpt><trkpt lat="43.130807016908825" lon="10.661830648845665"><ele>149.0</ele><time>2026-04-04T09:26:21.999Z</time></trkpt><trkpt lat="43.130901748553946" lon="10.661881232640498"><ele>148.5</ele><time>2026-04-04T09:26:23.999Z</time></trkpt><trkpt lat="43.130883345411476" lon="10.662156596999687"><ele>148.0</ele><time>2026-04-04T09:26:48.999Z</time></trkpt><trkpt lat="43.13086920621489" lon="10.66231592900488"><ele>147.5</ele><time>2026-04-04T09:26:49.999Z</time></trkpt><trkpt lat="43.130837403804" lon="10.662488947784276"><ele>147.0</ele><time>2026-04-04T09:26:50.999Z</time></trkpt><trkpt lat="43.130812697436" lon="10.662659584082673"><ele>145.79999999999998</ele><time>2026-04-04T09:26:51.998Z</time></trkpt><trkpt lat="43.130786559056176" lon="10.66281388293002"><ele>144.6</ele><time>2026-04-04T09:26:52.998Z</time></trkpt><trkpt lat="43.1307596089946" lon="10.662957238139379"><ele>143.39999999999998</ele><time>2026-04-04T09:26:53.998Z</time></trkpt><trkpt lat="43.1307320065067" lon="10.663096805878597"><ele>142.2</ele><time>2026-04-04T09:26:54.998Z</time></trkpt><trkpt lat="43.130718538424176" lon="10.663229008833792"><ele>141.0</ele><time>2026-04-04T09:26:55.998Z</time></trkpt><trkpt lat="43.13067710869108" lon="10.663348306006071"><ele>141.0</ele><time>2026-04-04T09:26:56.998Z</time></trkpt><trkpt lat="43.13063363700774" lon="10.663447196483895"><ele>141.0</ele><time>2026-04-04T09:26:57.998Z</time></trkpt><trkpt lat="43.13057560953905" lon="10.663565694756787"><ele>141.0</ele><time>2026-04-04T09:26:58.998Z</time></trkpt><trkpt lat="43.13050526838307" lon="10.663706219131523"><ele>141.0</ele><time>2026-04-04T09:26:59.998Z</time></trkpt><trkpt lat="43.13042170812446" lon="10.663858355647832"><ele>140.5</ele><time>2026-04-04T09:27:00.998Z</time></trkpt><trkpt lat="43.13033084158301" lon="10.664025202324499"><ele>140.0</ele><time>2026-04-04T09:27:01.998Z</time></trkpt><trkpt lat="43.13027063527933" lon="10.664152359530616"><ele>139.5</ele><time>2026-04-04T09:27:02.998Z</time></trkpt><trkpt lat="43.130216362538135" lon="10.664328777352356"><ele>139.0</ele><time>2026-04-04T09:27:03.998Z</time></trkpt><trkpt lat="43.13016655714192" lon="10.66447625795589"><ele>138.5</ele><time>2026-04-04T09:27:04.998Z</time></trkpt><trkpt lat="43.130116034971714" lon="10.66462585971673"><ele>138.0</ele><time>2026-04-04T09:27:05.998Z</time></trkpt><trkpt lat="43.13007166339848" lon="10.66477339511202"><ele>137.5</ele><time>2026-04-04T09:27:06.998Z</time></trkpt><trkpt lat="43.13003897228557" lon="10.664926935090719"><ele>137.0</ele><time>2026-04-04T09:27:07.998Z</time></trkpt><trkpt lat="43.130029890289116" lon="10.665065887487803"><ele>137.0</ele><time>2026-04-04T09:27:08.998Z</time></trkpt><trkpt lat="43.13003315660718" lon="10.66520433101966"><ele>137.0</ele><time>2026-04-04T09:27:09.998Z</time></trkpt><trkpt lat="43.130050071920714" lon="10.665369255520089"><ele>137.0</ele><time>2026-04-04T09:27:10.998Z</time></trkpt><trkpt lat="43.13004975308655" lon="10.665539853564907"><ele>137.0</ele><time>2026-04-04T09:27:11.998Z</time></trkpt><trkpt lat="43.130043308408474" lon="10.66574205047707"><ele>136.25</ele><time>2026-04-04T09:27:12.998Z</time></trkpt><trkpt lat="43.13003995898944" lon="10.665904049511324"><ele>135.5</ele><time>2026-04-04T09:27:13.998Z</time></trkpt><trkpt lat="43.130008637183494" lon="10.666054659545006"><ele>134.75</ele><time>2026-04-04T09:27:15Z</time></trkpt><trkpt lat="43.12998742802384" lon="10.666205714219036"><ele>134.0</ele><time>2026-04-04T09:27:16Z</time></trkpt><trkpt lat="43.12996590449618" lon="10.666349295913735"><ele>133.75</ele><time>2026-04-04T09:27:17Z</time></trkpt><trkpt lat="43.129960180802165" lon="10.666490740178531"><ele>133.5</ele><time>2026-04-04T09:27:18Z</time></trkpt><trkpt lat="43.12993038935979" lon="10.666642447141497"><ele>133.25</ele><time>2026-04-04T09:27:19Z</time></trkpt><trkpt lat="43.12988867334263" lon="10.666813785306875"><ele>133.0</ele><time>2026-04-04T09:27:20Z</time></trkpt><trkpt lat="43.12985386018311" lon="10.667012034001953"><ele>133.0</ele><time>2026-04-04T09:27:21Z</time></trkpt><trkpt lat="43.1298232385249" lon="10.667193484701775"><ele>133.0</ele><time>2026-04-04T09:27:22Z</time></trkpt><trkpt lat="43.12978869562934" lon="10.66735464975023"><ele>133.0</ele><time>2026-04-04T09:27:23Z</time></trkpt><trkpt lat="43.1297386920509" lon="10.667503818266095"><ele>133.0</ele><time>2026-04-04T09:27:24Z</time></trkpt><trkpt lat="43.12967993617881" lon="10.667617455445143"><ele>133.0</ele><time>2026-04-04T09:27:25Z</time></trkpt><trkpt lat="43.129613775483776" lon="10.667672738540256"><ele>133.0</ele><time>2026-04-04T09:27:26Z</time></trkpt><trkpt lat="43.12953936388432" lon="10.667738992653694"><ele>133.0</ele><time>2026-04-04T09:27:27Z</time></trkpt><trkpt lat="43.129466222568105" lon="10.667821581187981"><ele>133.0</ele><time>2026-04-04T09:27:28Z</time></trkpt><trkpt lat="43.12941998750194" lon="10.667921393911257"><ele>133.0</ele><time>2026-04-04T09:27:29Z</time></trkpt><trkpt lat="43.12937398562044" lon="10.668045478430093"><ele>133.0</ele><time>2026-04-04T09:27:30Z</time></trkpt><trkpt lat="43.12934548643686" lon="10.668216718127853"><ele>132.4</ele><time>2026-04-04T09:27:31Z</time></trkpt><trkpt lat="43.129331714397686" lon="10.668349743411003"><ele>131.8</ele><time>2026-04-04T09:27:32Z</time></trkpt><trkpt lat="43.12937355209587" lon="10.668456779629008"><ele>131.2</ele><time>2026-04-04T09:27:33Z</time></trkpt><trkpt lat="43.12941324388617" lon="10.668578819086049"><ele>130.6</ele><time>2026-04-04T09:27:34Z</time></trkpt><trkpt lat="43.12944223733327" lon="10.668713686124253"><ele>130.0</ele><time>2026-04-04T09:27:35Z</time></trkpt><trkpt lat="43.12946272465703" lon="10.668864329188402"><ele>129.0</ele><time>2026-04-04T09:27:36Z</time></trkpt><trkpt lat="43.12946986690725" lon="10.66900589236455"><ele>128.0</ele><time>2026-04-04T09:27:37Z</time></trkpt><trkpt lat="43.12947210301952" lon="10.669136231623185"><ele>127.0</ele><time>2026-04-04T09:27:38Z</time></trkpt><trkpt lat="43.129471609521474" lon="10.6692894779432"><ele>126.0</ele><time>2026-04-04T09:27:39Z</time></trkpt><trkpt lat="43.129456610271696" lon="10.669436254712549"><ele>125.0</ele><time>2026-04-04T09:27:40Z</time></trkpt><trkpt lat="43.12946168249947" lon="10.669597831089314"><ele>124.8</ele><time>2026-04-04T09:27:41Z</time></trkpt><trkpt lat="43.12945019371572" lon="10.669744581701185"><ele>124.6</ele><time>2026-04-04T09:27:42Z</time></trkpt><trkpt lat="43.129442957844354" lon="10.66988929152102"><ele>124.4</ele><time>2026-04-04T09:27:43Z</time></trkpt><trkpt lat="43.1294192158489" lon="10.670031211694083"><ele>124.2</ele><time>2026-04-04T09:27:44Z</time></trkpt><trkpt lat="43.12937514689166" lon="10.670154090461793"><ele>124.0</ele><time>2026-04-04T09:27:45Z</time></trkpt><trkpt lat="43.1293326485729" lon="10.670284654355413"><ele>123.5</ele><time>2026-04-04T09:27:46Z</time></trkpt><trkpt lat="43.129277064040934" lon="10.670423594211098"><ele>123.0</ele><time>2026-04-04T09:27:47Z</time></trkpt><trkpt lat="43.12921619318799" lon="10.670571461107516"><ele>122.5</ele><time>2026-04-04T09:27:48Z</time></trkpt><trkpt lat="43.12914351229717" lon="10.670713342039372"><ele>122.0</ele><time>2026-04-04T09:27:49Z</time></trkpt><trkpt lat="43.129087247576436" lon="10.670839719792331"><ele>122.19999999999999</ele><time>2026-04-04T09:27:50Z</time></trkpt><trkpt lat="43.1290477596874" lon="10.670954922641236"><ele>122.39999999999999</ele><time>2026-04-04T09:27:51Z</time></trkpt><trkpt lat="43.129016808952166" lon="10.671077051640061"><ele>122.60000000000001</ele><time>2026-04-04T09:27:52Z</time></trkpt><trkpt lat="43.12899938793576" lon="10.671192781926456"><ele>122.80000000000001</ele><time>2026-04-04T09:27:53Z</time></trkpt><trkpt lat="43.1289712895736" lon="10.67132029066701"><ele>123.0</ele><time>2026-04-04T09:27:55Z</time></trkpt><trkpt lat="43.128807789806835" lon="10.67132460666777"><ele>123.0</ele><time>2026-04-04T09:27:59Z</time></trkpt><trkpt lat="43.128704982874375" lon="10.67130947193969"><ele>123.00000000000001</ele><time>2026-04-04T09:27:59.999Z</time></trkpt><trkpt lat="43.12859336498401" lon="10.67129584006211"><ele>123.00000000000001</ele><time>2026-04-04T09:28:00.999Z</time></trkpt><trkpt lat="43.12847209833546" lon="10.671296085391946"><ele>123.0</ele><time>2026-04-04T09:28:01.999Z</time></trkpt><trkpt lat="43.128366345565006" lon="10.671272558759744"><ele>123.0</ele><time>2026-04-04T09:28:02.999Z</time></trkpt><trkpt lat="43.12826519052431" lon="10.671259639450428"><ele>125.80000000000001</ele><time>2026-04-04T09:28:03.999Z</time></trkpt><trkpt lat="43.12817086621283" lon="10.671256527235187"><ele>128.60000000000002</ele><time>2026-04-04T09:28:04.999Z</time></trkpt><trkpt lat="43.12808178085344" lon="10.6712488788512"><ele>131.39999999999998</ele><time>2026-04-04T09:28:05.999Z</time></trkpt><trkpt lat="43.12799599472326" lon="10.671242487084564"><ele>134.2</ele><time>2026-04-04T09:28:06.999Z</time></trkpt><trkpt lat="43.127896434912174" lon="10.671232050347927"><ele>137.0</ele><time>2026-04-04T09:28:07.999Z</time></trkpt><trkpt lat="43.127789154135094" lon="10.671219590201147"><ele>137.0</ele><time>2026-04-04T09:28:08.999Z</time></trkpt><trkpt lat="43.12770524255905" lon="10.671206174559687"><ele>137.0</ele><time>2026-04-04T09:28:09.999Z</time></trkpt><trkpt lat="43.12762926447143" lon="10.671197604804716"><ele>137.0</ele><time>2026-04-04T09:28:10.999Z</time></trkpt><trkpt lat="43.12752946854292" lon="10.671221618720129"><ele>137.0</ele><time>2026-04-04T09:28:12.999Z</time></trkpt><trkpt lat="43.12750078314033" lon="10.671343687214915"><ele>137.0</ele><time>2026-04-04T09:28:14.999Z</time></trkpt><trkpt lat="43.12750513359175" lon="10.67143075410356"><ele>137.0</ele><time>2026-04-04T09:28:15.999Z</time></trkpt><trkpt lat="43.12749586666789" lon="10.671525251242043"><ele>137.0</ele><time>2026-04-04T09:28:16.999Z</time></trkpt><trkpt lat="43.12749817686268" lon="10.671702413788047"><ele>137.0</ele><time>2026-04-04T09:28:18.999Z</time></trkpt><trkpt lat="43.12750589937911" lon="10.671797668194062"><ele>137.0</ele><time>2026-04-04T09:28:19.999Z</time></trkpt><trkpt lat="43.12751581155596" lon="10.671964247133115"><ele>137.0</ele><time>2026-04-04T09:28:21.999Z</time></trkpt><trkpt lat="43.12752480604376" lon="10.672050913755712"><ele>137.0</ele><time>2026-04-04T09:28:22.999Z</time></trkpt><trkpt lat="43.12753805819106" lon="10.672193659515717"><ele>136.5</ele><time>2026-04-04T09:28:24.999Z</time></trkpt><trkpt lat="43.127531642714374" lon="10.672297473199079"><ele>136.0</ele><time>2026-04-04T09:28:26.999Z</time></trkpt><trkpt lat="43.127540360160104" lon="10.672386005856238"><ele>135.5</ele><time>2026-04-04T09:28:28.999Z</time></trkpt><trkpt lat="43.12755555099923" lon="10.672523718737922"><ele>135.0</ele><time>2026-04-04T09:28:31.999Z</time></trkpt><trkpt lat="43.127551786629006" lon="10.672636668344039"><ele>134.5</ele><time>2026-04-04T09:28:34.999Z</time></trkpt><trkpt lat="43.1274726991614" lon="10.672647762157606"><ele>134.0</ele><time>2026-04-04T09:28:37.999Z</time></trkpt><trkpt lat="43.12740508947519" lon="10.672624017855668"><ele>138.2</ele><time>2026-04-04T09:28:39.999Z</time></trkpt><trkpt lat="43.12732164960781" lon="10.672589158981888"><ele>142.4</ele><time>2026-04-04T09:28:41.999Z</time></trkpt><trkpt lat="43.1272266916707" lon="10.672576809740727"><ele>146.6</ele><time>2026-04-04T09:28:43.999Z</time></trkpt><trkpt lat="43.12717089041692" lon="10.672517854399349"><ele>150.8</ele><time>2026-04-04T09:28:45.999Z</time></trkpt><trkpt lat="43.127084143826735" lon="10.672427079005248"><ele>155.0</ele><time>2026-04-04T09:28:47.999Z</time></trkpt><trkpt lat="43.127019814472" lon="10.672342475880479"><ele>155.0</ele><time>2026-04-04T09:28:49.999Z</time></trkpt><trkpt lat="43.126974128646005" lon="10.672263386533599"><ele>155.0</ele><time>2026-04-04T09:28:58.998Z</time></trkpt><trkpt lat="43.12691997875738" lon="10.67221043035395"><ele>155.0</ele><time>2026-04-04T09:29:01.998Z</time></trkpt><trkpt lat="43.12683644319015" lon="10.67216103722784"><ele>155.0</ele><time>2026-04-04T09:29:03.998Z</time></trkpt><trkpt lat="43.12675526471138" lon="10.672083040154089"><ele>155.0</ele><time>2026-04-04T09:29:05.998Z</time></trkpt><trkpt lat="43.12663815261743" lon="10.672057127573703"><ele>155.0</ele><time>2026-04-04T09:29:07.998Z</time></trkpt><trkpt lat="43.126582076976625" lon="10.671998722511356"><ele>158.8</ele><time>2026-04-04T09:29:08.998Z</time></trkpt><trkpt lat="43.12648734165997" lon="10.671925605050816"><ele>162.6</ele><time>2026-04-04T09:29:11.998Z</time></trkpt><trkpt lat="43.12638735896115" lon="10.671841040562178"><ele>166.39999999999998</ele><time>2026-04-04T09:29:13.998Z</time></trkpt><trkpt lat="43.126311104706765" lon="10.671754581879947"><ele>170.2</ele><time>2026-04-04T09:29:15.998Z</time></trkpt><trkpt lat="43.12625146630673" lon="10.671660980478075"><ele>174.0</ele><time>2026-04-04T09:29:17.998Z</time></trkpt><trkpt lat="43.12615162320106" lon="10.671549951964476"><ele>174.0</ele><time>2026-04-04T09:29:19.998Z</time></trkpt><trkpt lat="43.12608023623885" lon="10.671468169975586"><ele>174.0</ele><time>2026-04-04T09:29:21Z</time></trkpt><trkpt lat="43.12601940517448" lon="10.671388947745243"><ele>174.0</ele><time>2026-04-04T09:29:22Z</time></trkpt><trkpt lat="43.1259498011337" lon="10.671320957938482"><ele>174.0</ele><time>2026-04-04T09:29:23Z</time></trkpt><trkpt lat="43.125891248793096" lon="10.671261155066457"><ele>174.0</ele><time>2026-04-04T09:29:24Z</time></trkpt><trkpt lat="43.12583239412973" lon="10.6712051858083"><ele>174.0</ele><time>2026-04-04T09:29:25Z</time></trkpt><trkpt lat="43.12573098081218" lon="10.671138445793154"><ele>174.33333333333334</ele><time>2026-04-04T09:29:27Z</time></trkpt><trkpt lat="43.125659606629725" lon="10.671114912589937"><ele>174.66666666666666</ele><time>2026-04-04T09:29:28Z</time></trkpt><trkpt lat="43.125584615251704" lon="10.671100233753101"><ele>175.0</ele><time>2026-04-04T09:29:29Z</time></trkpt><trkpt lat="43.12545144751216" lon="10.671104664145066"><ele>175.33333333333331</ele><time>2026-04-04T09:29:31Z</time></trkpt><trkpt lat="43.12537797895705" lon="10.671103068728545"><ele>175.66666666666666</ele><time>2026-04-04T09:29:32Z</time></trkpt><trkpt lat="43.125314654443386" lon="10.671100330430841"><ele>176.0</ele><time>2026-04-04T09:29:33Z</time></trkpt><trkpt lat="43.125238386280024" lon="10.67108335303954"><ele>178.20000000000002</ele><time>2026-04-04T09:29:34Z</time></trkpt><trkpt lat="43.125107746640694" lon="10.671064791935187"><ele>180.4</ele><time>2026-04-04T09:29:36Z</time></trkpt><trkpt lat="43.12503813665437" lon="10.671063275538529"><ele>182.6</ele><time>2026-04-04T09:29:37Z</time></trkpt><trkpt lat="43.124940814634876" lon="10.671050071326913"><ele>184.8</ele><time>2026-04-04T09:29:38Z</time></trkpt><trkpt lat="43.124839577443105" lon="10.671033360750018"><ele>187.0</ele><time>2026-04-04T09:29:39Z</time></trkpt><trkpt lat="43.1247459890993" lon="10.671020516918714"><ele>189.0</ele><time>2026-04-04T09:29:40Z</time></trkpt><trkpt lat="43.124653909650995" lon="10.670999911110576"><ele>191.0</ele><time>2026-04-04T09:29:41Z</time></trkpt><trkpt lat="43.12456830686839" lon="10.670992971941228"><ele>193.0</ele><time>2026-04-04T09:29:42Z</time></trkpt><trkpt lat="43.1244925336526" lon="10.670992372844559"><ele>195.0</ele><time>2026-04-04T09:29:43Z</time></trkpt><trkpt lat="43.124412720009055" lon="10.670985938850286"><ele>196.99999999999997</ele><time>2026-04-04T09:29:44Z</time></trkpt><trkpt lat="43.12434338668069" lon="10.67097690145456"><ele>199.0</ele><time>2026-04-04T09:29:45Z</time></trkpt><trkpt lat="43.124244776581534" lon="10.671014313892975"><ele>197.99999999999997</ele><time>2026-04-04T09:29:47Z</time></trkpt><trkpt lat="43.1241876041321" lon="10.671175320762947"><ele>197.0</ele><time>2026-04-04T09:29:49Z</time></trkpt><trkpt lat="43.12416595227967" lon="10.671279365955629"><ele>196.0</ele><time>2026-04-04T09:29:50Z</time></trkpt><trkpt lat="43.12413050863898" lon="10.671403240529484"><ele>195.0</ele><time>2026-04-04T09:29:51Z</time></trkpt><trkpt lat="43.12408258504388" lon="10.671462526876377"><ele>193.99999999999997</ele><time>2026-04-04T09:29:52Z</time></trkpt><trkpt lat="43.124024661455614" lon="10.67152933426031"><ele>193.0</ele><time>2026-04-04T09:29:53Z</time></trkpt><trkpt lat="43.123966914309335" lon="10.671581404251034"><ele>192.99999999999997</ele><time>2026-04-04T09:29:54Z</time></trkpt><trkpt lat="43.12389305881121" lon="10.67162289580867"><ele>193.0</ele><time>2026-04-04T09:29:55Z</time></trkpt><trkpt lat="43.12381943612069" lon="10.671661428343182"><ele>193.0</ele><time>2026-04-04T09:29:56Z</time></trkpt><trkpt lat="43.12375384215231" lon="10.671690762061184"><ele>193.0</ele><time>2026-04-04T09:29:57Z</time></trkpt><trkpt lat="43.123642891825114" lon="10.671727064621258"><ele>192.99999999999997</ele><time>2026-04-04T09:29:58Z</time></trkpt><trkpt lat="43.12354203008983" lon="10.671755173192386"><ele>193.0</ele><time>2026-04-04T09:29:59Z</time></trkpt><trkpt lat="43.12346622087181" lon="10.671784306868815"><ele>192.99999999999997</ele><time>2026-04-04T09:30:00Z</time></trkpt><trkpt lat="43.12340030338701" lon="10.671811016002712"><ele>193.0</ele><time>2026-04-04T09:30:01Z</time></trkpt><trkpt lat="43.12332133880905" lon="10.671830358762758"><ele>193.0</ele><time>2026-04-04T09:30:02Z</time></trkpt><trkpt lat="43.12323056217952" lon="10.67185079226034"><ele>193.0</ele><time>2026-04-04T09:30:03Z</time></trkpt><trkpt lat="43.12315016250792" lon="10.671863136522639"><ele>192.99999999999997</ele><time>2026-04-04T09:30:04Z</time></trkpt><trkpt lat="43.12308048573986" lon="10.671858326376492"><ele>193.0</ele><time>2026-04-04T09:30:04.999Z</time></trkpt><trkpt lat="43.12300959286992" lon="10.671855554974524"><ele>192.8</ele><time>2026-04-04T09:30:05.999Z</time></trkpt><trkpt lat="43.12292377492318" lon="10.671838210971442"><ele>192.60000000000002</ele><time>2026-04-04T09:30:07.999Z</time></trkpt><trkpt lat="43.12291457797551" lon="10.671934497937384"><ele>192.39999999999998</ele><time>2026-04-04T09:33:36Z</time></trkpt><trkpt lat="43.12289226677514" lon="10.672046678044849"><ele>192.2</ele><time>2026-04-04T09:33:38Z</time></trkpt><trkpt lat="43.12279871922514" lon="10.672105985786565"><ele>192.0</ele><time>2026-04-04T09:33:40Z</time></trkpt><trkpt lat="43.12267664048817" lon="10.672086744934308"><ele>190.66666666666666</ele><time>2026-04-04T09:33:42Z</time></trkpt><trkpt lat="43.122600607252615" lon="10.672071275045383"><ele>189.33333333333334</ele><time>2026-04-04T09:33:43Z</time></trkpt><trkpt lat="43.12252030178193" lon="10.67206543212269"><ele>188.0</ele><time>2026-04-04T09:33:44Z</time></trkpt><trkpt lat="43.122431308646966" lon="10.672073556735922"><ele>186.66666666666669</ele><time>2026-04-04T09:33:45Z</time></trkpt><trkpt lat="43.12234239148829" lon="10.672095719277879"><ele>185.33333333333334</ele><time>2026-04-04T09:33:46Z</time></trkpt><trkpt lat="43.122247590348756" lon="10.672113000702076"><ele>184.0</ele><time>2026-04-04T09:33:47Z</time></trkpt><trkpt lat="43.12215128121652" lon="10.672128840549435"><ele>182.6</ele><time>2026-04-04T09:33:48Z</time></trkpt><trkpt lat="43.122050104803556" lon="10.672133910783433"><ele>181.2</ele><time>2026-04-04T09:33:49Z</time></trkpt><trkpt lat="43.12195437386386" lon="10.672141772488233"><ele>179.79999999999998</ele><time>2026-04-04T09:33:50Z</time></trkpt><trkpt lat="43.12185808793845" lon="10.672155014460017"><ele>178.39999999999998</ele><time>2026-04-04T09:33:51Z</time></trkpt><trkpt lat="43.121771039339365" lon="10.672170148694091"><ele>177.0</ele><time>2026-04-04T09:33:52Z</time></trkpt><trkpt lat="43.121680307430054" lon="10.672183215849179"><ele>177.0</ele><time>2026-04-04T09:33:53Z</time></trkpt><trkpt lat="43.12159175267922" lon="10.672194892347717"><ele>177.0</ele><time>2026-04-04T09:33:54Z</time></trkpt><trkpt lat="43.12150720442961" lon="10.672202269813479"><ele>177.0</ele><time>2026-04-04T09:33:55Z</time></trkpt><trkpt lat="43.121407508369" lon="10.67220857820229"><ele>177.0</ele><time>2026-04-04T09:33:56Z</time></trkpt><trkpt lat="43.1213180005686" lon="10.672235119930837"><ele>177.0</ele><time>2026-04-04T09:33:57Z</time></trkpt><trkpt lat="43.12122838771679" lon="10.672283377430123"><ele>174.8</ele><time>2026-04-04T09:33:58Z</time></trkpt><trkpt lat="43.1211457527553" lon="10.67234817259493"><ele>172.6</ele><time>2026-04-04T09:33:59Z</time></trkpt><trkpt lat="43.12106855252349" lon="10.672435912484701"><ele>170.4</ele><time>2026-04-04T09:34:00Z</time></trkpt><trkpt lat="43.12100509651908" lon="10.672542047581203"><ele>168.20000000000002</ele><time>2026-04-04T09:34:01Z</time></trkpt><trkpt lat="43.12092932624226" lon="10.672667609056768"><ele>166.0</ele><time>2026-04-04T09:34:02Z</time></trkpt><trkpt lat="43.12083760652973" lon="10.672843849949343"><ele>165.75</ele><time>2026-04-04T09:34:03Z</time></trkpt><trkpt lat="43.120750650677095" lon="10.673011658235922"><ele>165.5</ele><time>2026-04-04T09:34:04Z</time></trkpt><trkpt lat="43.12067892137227" lon="10.67315275649376"><ele>165.25</ele><time>2026-04-04T09:34:05Z</time></trkpt><trkpt lat="43.120598488528756" lon="10.673291655325567"><ele>165.0</ele><time>2026-04-04T09:34:06Z</time></trkpt><trkpt lat="43.120514217460055" lon="10.673440896169268"><ele>163.5</ele><time>2026-04-04T09:34:07Z</time></trkpt><trkpt lat="43.12042954498322" lon="10.67356372561774"><ele>162.0</ele><time>2026-04-04T09:34:08Z</time></trkpt><trkpt lat="43.12035301964649" lon="10.673695659069248"><ele>160.5</ele><time>2026-04-04T09:34:09Z</time></trkpt><trkpt lat="43.12030439741181" lon="10.67383559047699"><ele>159.0</ele><time>2026-04-04T09:34:10Z</time></trkpt><trkpt lat="43.120261146571934" lon="10.673965177683398"><ele>158.6</ele><time>2026-04-04T09:34:11Z</time></trkpt><trkpt lat="43.120209965663165" lon="10.674083232306229"><ele>158.2</ele><time>2026-04-04T09:34:12Z</time></trkpt><trkpt lat="43.12012409957142" lon="10.674185295163475"><ele>157.79999999999998</ele><time>2026-04-04T09:34:13Z</time></trkpt><trkpt lat="43.12003339394505" lon="10.674284622719902"><ele>157.4</ele><time>2026-04-04T09:34:13.999Z</time></trkpt><trkpt lat="43.119944545738676" lon="10.67438043131474"><ele>157.0</ele><time>2026-04-04T09:34:14.999Z</time></trkpt><trkpt lat="43.119857867367124" lon="10.674475916758585"><ele>157.0</ele><time>2026-04-04T09:34:15.999Z</time></trkpt><trkpt lat="43.11977819555605" lon="10.674533383699732"><ele>157.0</ele><time>2026-04-04T09:34:16.999Z</time></trkpt><trkpt lat="43.11971189160403" lon="10.674625564946925"><ele>157.0</ele><time>2026-04-04T09:34:17.999Z</time></trkpt><trkpt lat="43.11965477714654" lon="10.674729606012773"><ele>157.0</ele><time>2026-04-04T09:34:18.999Z</time></trkpt><trkpt lat="43.119611360513176" lon="10.674852014676686"><ele>157.0</ele><time>2026-04-04T09:34:19.999Z</time></trkpt><trkpt lat="43.11958645046705" lon="10.674970456498826"><ele>157.0</ele><time>2026-04-04T09:34:20.999Z</time></trkpt><trkpt lat="43.119551586335525" lon="10.6750801156422"><ele>157.0</ele><time>2026-04-04T09:34:21.999Z</time></trkpt><trkpt lat="43.11951577638827" lon="10.675197520337807"><ele>157.0</ele><time>2026-04-04T09:34:22.999Z</time></trkpt><trkpt lat="43.11949209249875" lon="10.675330217689739"><ele>157.0</ele><time>2026-04-04T09:34:23.999Z</time></trkpt><trkpt lat="43.11946601321309" lon="10.675481297047185"><ele>157.0</ele><time>2026-04-04T09:34:24.999Z</time></trkpt><trkpt lat="43.11943398611346" lon="10.675616455594367"><ele>156.79999999999998</ele><time>2026-04-04T09:34:25.999Z</time></trkpt><trkpt lat="43.11939068530758" lon="10.675738739901476"><ele>156.6</ele><time>2026-04-04T09:34:26.999Z</time></trkpt><trkpt lat="43.119350670467924" lon="10.675838822142907"><ele>156.39999999999998</ele><time>2026-04-04T09:34:27.999Z</time></trkpt><trkpt lat="43.11930022536989" lon="10.675923133751398"><ele>156.2</ele><time>2026-04-04T09:34:28.999Z</time></trkpt><trkpt lat="43.11921825307944" lon="10.676016866234804"><ele>156.0</ele><time>2026-04-04T09:34:29.999Z</time></trkpt><trkpt lat="43.11914835033106" lon="10.676118048741781"><ele>155.66666666666666</ele><time>2026-04-04T09:34:30.999Z</time></trkpt><trkpt lat="43.1190919692189" lon="10.676190532953516"><ele>155.33333333333334</ele><time>2026-04-04T09:34:31.999Z</time></trkpt><trkpt lat="43.11902955857734" lon="10.676265572898988"><ele>155.0</ele><time>2026-04-04T09:34:33.999Z</time></trkpt><trkpt lat="43.11895743679642" lon="10.676330721314358"><ele>154.66666666666669</ele><time>2026-04-04T09:34:34.999Z</time></trkpt><trkpt lat="43.118851479030226" lon="10.676307749136805"><ele>154.33333333333334</ele><time>2026-04-04T09:34:36.999Z</time></trkpt><trkpt lat="43.11878948063397" lon="10.676284779403952"><ele>154.0</ele><time>2026-04-04T09:34:38.999Z</time></trkpt><trkpt lat="43.118730890819556" lon="10.67639721218124"><ele>157.5</ele><time>2026-04-04T09:34:40.999Z</time></trkpt><trkpt lat="43.11873094244689" lon="10.676497391451083"><ele>161.0</ele><time>2026-04-04T09:34:41.999Z</time></trkpt><trkpt lat="43.11872071600171" lon="10.676646082416097"><ele>164.5</ele><time>2026-04-04T09:34:42.999Z</time></trkpt><trkpt lat="43.118714538156574" lon="10.676768209766356"><ele>168.0</ele><time>2026-04-04T09:34:43.999Z</time></trkpt><trkpt lat="43.118699364638935" lon="10.676879472492363"><ele>171.5</ele><time>2026-04-04T09:34:44.999Z</time></trkpt><trkpt lat="43.11868340958277" lon="10.676985317246732"><ele>175.0</ele><time>2026-04-04T09:34:45.999Z</time></trkpt><trkpt lat="43.11864614794091" lon="10.67706665799524"><ele>175.0</ele><time>2026-04-04T09:34:46.999Z</time></trkpt><trkpt lat="43.118620672527626" lon="10.677151649149202"><ele>175.0</ele><time>2026-04-04T09:34:47.999Z</time></trkpt><trkpt lat="43.118580523726706" lon="10.677232196639936"><ele>175.0</ele><time>2026-04-04T09:34:48.999Z</time></trkpt><trkpt lat="43.11852961243307" lon="10.67731975198387"><ele>175.0</ele><time>2026-04-04T09:34:49.999Z</time></trkpt><trkpt lat="43.11845478917551" lon="10.677425501412403"><ele>175.0</ele><time>2026-04-04T09:34:50.999Z</time></trkpt><trkpt lat="43.11839108447173" lon="10.67750919008267"><ele>175.0</ele><time>2026-04-04T09:34:51.999Z</time></trkpt><trkpt lat="43.11833713868176" lon="10.677597767934893"><ele>175.0</ele><time>2026-04-04T09:34:52.999Z</time></trkpt><trkpt lat="43.118285159780484" lon="10.67766696029217"><ele>175.0</ele><time>2026-04-04T09:34:53.999Z</time></trkpt><trkpt lat="43.11822399499914" lon="10.677716045241791"><ele>175.0</ele><time>2026-04-04T09:34:54.999Z</time></trkpt><trkpt lat="43.11814076876922" lon="10.677730799145042"><ele>175.0</ele><time>2026-04-04T09:34:55.999Z</time></trkpt><trkpt lat="43.11806333369769" lon="10.677746761152239"><ele>175.0</ele><time>2026-04-04T09:34:56.999Z</time></trkpt><trkpt lat="43.117979330444825" lon="10.677765425609904"><ele>175.0</ele><time>2026-04-04T09:34:57.999Z</time></trkpt><trkpt lat="43.117908142935114" lon="10.677773794398574"><ele>176.0</ele><time>2026-04-04T09:34:58.999Z</time></trkpt><trkpt lat="43.11783916206446" lon="10.677776939540497"><ele>177.0</ele><time>2026-04-04T09:34:59.999Z</time></trkpt><trkpt lat="43.117736323195246" lon="10.677756158809515"><ele>178.0</ele><time>2026-04-04T09:35:00.999Z</time></trkpt><trkpt lat="43.11765814027033" lon="10.677751717592354"><ele>179.0</ele><time>2026-04-04T09:35:01.999Z</time></trkpt><trkpt lat="43.11759081898869" lon="10.677750838072228"><ele>180.0</ele><time>2026-04-04T09:35:02.999Z</time></trkpt><trkpt lat="43.11752241100406" lon="10.67775056852397"><ele>181.0</ele><time>2026-04-04T09:35:03.999Z</time></trkpt><trkpt lat="43.1174289800331" lon="10.677757743402099"><ele>180.5</ele><time>2026-04-04T09:35:05.999Z</time></trkpt><trkpt lat="43.117352276544175" lon="10.677779121170163"><ele>180.0</ele><time>2026-04-04T09:35:24.998Z</time></trkpt><trkpt lat="43.117250859535005" lon="10.677806453790442"><ele>179.5</ele><time>2026-04-04T09:35:26.998Z</time></trkpt><trkpt lat="43.11717216476019" lon="10.677856965469129"><ele>179.0</ele><time>2026-04-04T09:35:29.998Z</time></trkpt><trkpt lat="43.11712185732912" lon="10.677946091619962"><ele>178.5</ele><time>2026-04-04T09:35:34.998Z</time></trkpt><trkpt lat="43.1170963918641" lon="10.678069708121916"><ele>178.0</ele><time>2026-04-04T09:35:36.998Z</time></trkpt><trkpt lat="43.11708246532089" lon="10.678154780100035"><ele>178.0</ele><time>2026-04-04T09:35:39Z</time></trkpt><trkpt lat="43.11698774063408" lon="10.678127836843986"><ele>178.0</ele><time>2026-04-04T09:35:42Z</time></trkpt><trkpt lat="43.11718735800638" lon="10.678467724680026"><ele>178.0</ele><time>2026-04-04T09:35:43Z</time></trkpt><trkpt lat="43.11718019393991" lon="10.678563272552832"><ele>179.83333333333334</ele><time>2026-04-04T09:35:44Z</time></trkpt><trkpt lat="43.11718763244755" lon="10.678655809588442"><ele>181.66666666666669</ele><time>2026-04-04T09:35:45Z</time></trkpt><trkpt lat="43.11718372119766" lon="10.678772673040104"><ele>183.5</ele><time>2026-04-04T09:35:47Z</time></trkpt><trkpt lat="43.11717722469211" lon="10.678923728000479"><ele>185.33333333333334</ele><time>2026-04-04T09:35:49Z</time></trkpt><trkpt lat="43.117181863910695" lon="10.679010726763464"><ele>187.16666666666666</ele><time>2026-04-04T09:35:50Z</time></trkpt><trkpt lat="43.117189988195626" lon="10.679102724707976"><ele>189.0</ele><time>2026-04-04T09:35:51Z</time></trkpt><trkpt lat="43.11722820625805" lon="10.679241588364352"><ele>189.0</ele><time>2026-04-04T09:35:53Z</time></trkpt><trkpt lat="43.11726484475216" lon="10.679406471601682"><ele>189.0</ele><time>2026-04-04T09:35:55Z</time></trkpt><trkpt lat="43.1172845404427" lon="10.679499652319855"><ele>189.0</ele><time>2026-04-04T09:35:56Z</time></trkpt><trkpt lat="43.11731671815124" lon="10.679588967594967"><ele>189.0</ele><time>2026-04-04T09:35:57Z</time></trkpt><trkpt lat="43.11734938534824" lon="10.679683793125744"><ele>189.0</ele><time>2026-04-04T09:35:58Z</time></trkpt><trkpt lat="43.11737731199531" lon="10.679763717862457"><ele>189.0</ele><time>2026-04-04T09:35:59Z</time></trkpt><trkpt lat="43.117390845949686" lon="10.679873117352988"><ele>190.2</ele><time>2026-04-04T09:36:01Z</time></trkpt><trkpt lat="43.11742404516037" lon="10.679956628749599"><ele>191.39999999999998</ele><time>2026-04-04T09:36:05Z</time></trkpt><trkpt lat="43.11750104512133" lon="10.680007020472676"><ele>192.6</ele><time>2026-04-04T09:36:07Z</time></trkpt><trkpt lat="43.117575315870305" lon="10.680126680772334"><ele>193.8</ele><time>2026-04-04T09:36:09Z</time></trkpt><trkpt lat="43.11757161609747" lon="10.680257411864924"><ele>195.0</ele><time>2026-04-04T09:36:11Z</time></trkpt><trkpt lat="43.11750257691829" lon="10.680332071060208"><ele>195.6</ele><time>2026-04-04T09:36:13Z</time></trkpt><trkpt lat="43.11745071393039" lon="10.680393382274277"><ele>196.2</ele><time>2026-04-04T09:36:14Z</time></trkpt><trkpt lat="43.11739006012122" lon="10.680505861150131"><ele>196.8</ele><time>2026-04-04T09:36:16Z</time></trkpt><trkpt lat="43.11729217564051" lon="10.68061696262035"><ele>197.4</ele><time>2026-04-04T09:36:18Z</time></trkpt><trkpt lat="43.11724584511238" lon="10.68069148468198"><ele>198.0</ele><time>2026-04-04T09:36:19Z</time></trkpt><trkpt lat="43.11716899008712" lon="10.680791158511447"><ele>198.0</ele><time>2026-04-04T09:36:21Z</time></trkpt><trkpt lat="43.117079493649854" lon="10.680871157704596"><ele>198.0</ele><time>2026-04-04T09:36:22.999Z</time></trkpt><trkpt lat="43.11701574421089" lon="10.68093126543651"><ele>198.0</ele><time>2026-04-04T09:36:23.999Z</time></trkpt><trkpt lat="43.11695158081157" lon="10.681000642287467"><ele>198.0</ele><time>2026-04-04T09:36:24.999Z</time></trkpt><trkpt lat="43.116884400871406" lon="10.681132940193603"><ele>198.0</ele><time>2026-04-04T09:36:26.999Z</time></trkpt><trkpt lat="43.11677956915395" lon="10.681220978141061"><ele>199.16666666666666</ele><time>2026-04-04T09:36:28.999Z</time></trkpt><trkpt lat="43.11677041618903" lon="10.681317181552712"><ele>200.33333333333331</ele><time>2026-04-04T09:36:30.999Z</time></trkpt><trkpt lat="43.11676442096193" lon="10.68146118526508"><ele>201.5</ele><time>2026-04-04T09:36:32.999Z</time></trkpt><trkpt lat="43.116700115179896" lon="10.681451011364198"><ele>202.66666666666666</ele><time>2026-04-04T09:36:35.999Z</time></trkpt><trkpt lat="43.11664638395727" lon="10.681503617318768"><ele>203.83333333333331</ele><time>2026-04-04T09:36:38.999Z</time></trkpt><trkpt lat="43.11658012494122" lon="10.681624423239331"><ele>205.0</ele><time>2026-04-04T09:36:40.999Z</time></trkpt><trkpt lat="43.116556288208024" lon="10.681711232578616"><ele>202.99999999999997</ele><time>2026-04-04T09:36:42.999Z</time></trkpt><trkpt lat="43.11651473553574" lon="10.681801799353686"><ele>201.0</ele><time>2026-04-04T09:36:44.999Z</time></trkpt><trkpt lat="43.11652746427707" lon="10.681886262026378"><ele>199.0</ele><time>2026-04-04T09:36:51.999Z</time></trkpt><trkpt lat="43.116541251161095" lon="10.682024713848694"><ele>197.0</ele><time>2026-04-04T09:36:54.999Z</time></trkpt><trkpt lat="43.1165296252721" lon="10.682161098493806"><ele>194.99999999999997</ele><time>2026-04-04T09:36:56.999Z</time></trkpt><trkpt lat="43.116454874709156" lon="10.68220244742544"><ele>193.0</ele><time>2026-04-04T09:36:58.999Z</time></trkpt><trkpt lat="43.116362257329634" lon="10.682254695297138"><ele>193.00000000000003</ele><time>2026-04-04T09:37:00.999Z</time></trkpt><trkpt lat="43.11633538687408" lon="10.682347223349357"><ele>193.0</ele><time>2026-04-04T09:37:02.999Z</time></trkpt><trkpt lat="43.116354669906784" lon="10.682439708305118"><ele>193.0</ele><time>2026-04-04T09:37:05.999Z</time></trkpt><trkpt lat="43.116371383573025" lon="10.682552222712994"><ele>193.0</ele><time>2026-04-04T09:37:09.999Z</time></trkpt><trkpt lat="43.11642480932993" lon="10.682622244029483"><ele>193.0</ele><time>2026-04-04T09:37:12.999Z</time></trkpt><trkpt lat="43.11642092862334" lon="10.682724654681959"><ele>193.00000000000003</ele><time>2026-04-04T09:37:16.999Z</time></trkpt><trkpt lat="43.116460883405665" lon="10.682793089823098"><ele>193.0</ele><time>2026-04-04T09:37:19.998Z</time></trkpt><trkpt lat="43.116434293542824" lon="10.682895463344208"><ele>192.16666666666666</ele><time>2026-04-04T09:37:21.998Z</time></trkpt><trkpt lat="43.11639432936915" lon="10.683033599690209"><ele>191.33333333333331</ele><time>2026-04-04T09:37:23.998Z</time></trkpt><trkpt lat="43.116399943389474" lon="10.683165129113927"><ele>190.5</ele><time>2026-04-04T09:37:25.998Z</time></trkpt><trkpt lat="43.11640771682407" lon="10.683268874417557"><ele>189.66666666666666</ele><time>2026-04-04T09:37:27.998Z</time></trkpt><trkpt lat="43.1163864101215" lon="10.68338384887487"><ele>188.83333333333331</ele><time>2026-04-04T09:37:29.998Z</time></trkpt><trkpt lat="43.116433947827225" lon="10.683471296274822"><ele>188.0</ele><time>2026-04-04T09:37:38.998Z</time></trkpt><trkpt lat="43.11651179961165" lon="10.683559513524887"><ele>188.0</ele><time>2026-04-04T09:37:48Z</time></trkpt><trkpt lat="43.116598040302286" lon="10.683567516483262"><ele>188.0</ele><time>2026-04-04T09:37:51Z</time></trkpt><trkpt lat="43.11665482784967" lon="10.683616397966977"><ele>188.0</ele><time>2026-04-04T09:37:53Z</time></trkpt><trkpt lat="43.11672362291023" lon="10.683656327944094"><ele>188.0</ele><time>2026-04-04T09:37:55Z</time></trkpt><trkpt lat="43.11680808407932" lon="10.683734546586916"><ele>188.0</ele><time>2026-04-04T09:37:58Z</time></trkpt><trkpt lat="43.11688566149667" lon="10.68376812174178"><ele>188.0</ele><time>2026-04-04T09:38:00Z</time></trkpt><trkpt lat="43.11693202862816" lon="10.683838990896241"><ele>188.0</ele><time>2026-04-04T09:38:02Z</time></trkpt><trkpt lat="43.11698130806486" lon="10.683920304969966"><ele>188.0</ele><time>2026-04-04T09:38:04Z</time></trkpt><trkpt lat="43.117026331719565" lon="10.684017403034973"><ele>188.0</ele><time>2026-04-04T09:38:07Z</time></trkpt><trkpt lat="43.11707839525846" lon="10.684095400176448"><ele>188.0</ele><time>2026-04-04T09:38:09Z</time></trkpt><trkpt lat="43.11711122168162" lon="10.684178286941275"><ele>188.0</ele><time>2026-04-04T09:38:11Z</time></trkpt><trkpt lat="43.11711559694348" lon="10.6842673345174"><ele>188.0</ele><time>2026-04-04T09:38:13Z</time></trkpt><trkpt lat="43.117104820677916" lon="10.684352409559624"><ele>188.0</ele><time>2026-04-04T09:38:20Z</time></trkpt><trkpt lat="43.11713392050819" lon="10.684448560885274"><ele>185.66666666666666</ele><time>2026-04-04T09:38:32.999Z</time></trkpt><trkpt lat="43.117206333425116" lon="10.684489977561507"><ele>183.33333333333331</ele><time>2026-04-04T09:38:35.999Z</time></trkpt><trkpt lat="43.11729252673489" lon="10.68456699247316"><ele>181.0</ele><time>2026-04-04T09:38:37.999Z</time></trkpt><trkpt lat="43.11737688340011" lon="10.684635075457045"><ele>178.66666666666666</ele><time>2026-04-04T09:38:39.999Z</time></trkpt><trkpt lat="43.117437367514974" lon="10.68470719216453"><ele>176.33333333333334</ele><time>2026-04-04T09:38:41.999Z</time></trkpt><trkpt lat="43.11748025607999" lon="10.684812980221876"><ele>174.0</ele><time>2026-04-04T09:38:43.999Z</time></trkpt><trkpt lat="43.11750616746664" lon="10.684939733597918"><ele>172.2</ele><time>2026-04-04T09:38:45.999Z</time></trkpt><trkpt lat="43.11754594874207" lon="10.685089266659883"><ele>170.39999999999998</ele><time>2026-04-04T09:38:47.999Z</time></trkpt><trkpt lat="43.11755828212451" lon="10.685221493029196"><ele>168.6</ele><time>2026-04-04T09:38:49.999Z</time></trkpt><trkpt lat="43.1175942397639" lon="10.685300541530768"><ele>166.8</ele><time>2026-04-04T09:38:53.999Z</time></trkpt><trkpt lat="43.1176847193383" lon="10.68534970617653"><ele>165.0</ele><time>2026-04-04T09:38:56.999Z</time></trkpt><trkpt lat="43.11771929625204" lon="10.685460253673371"><ele>162.5</ele><time>2026-04-04T09:38:59.999Z</time></trkpt><trkpt lat="43.11777164015029" lon="10.685522359517412"><ele>160.0</ele><time>2026-04-04T09:39:01.999Z</time></trkpt><trkpt lat="43.11784227104221" lon="10.68551532859329"><ele>157.5</ele><time>2026-04-04T09:39:03.999Z</time></trkpt><trkpt lat="43.117941638706036" lon="10.685495415357614"><ele>155.0</ele><time>2026-04-04T09:39:05.999Z</time></trkpt><trkpt lat="43.118000378081" lon="10.68554252788557"><ele>152.5</ele><time>2026-04-04T09:39:56Z</time></trkpt><trkpt lat="43.118078859088655" lon="10.685641472841553"><ele>150.0</ele><time>2026-04-04T09:39:58Z</time></trkpt><trkpt lat="43.11813238303108" lon="10.68574188012802"><ele>150.0</ele><time>2026-04-04T09:39:59Z</time></trkpt><trkpt lat="43.11819480006764" lon="10.685844311852719"><ele>150.0</ele><time>2026-04-04T09:40:00Z</time></trkpt><trkpt lat="43.11827100095631" lon="10.685929476310143"><ele>150.0</ele><time>2026-04-04T09:40:01Z</time></trkpt><trkpt lat="43.118345426605636" lon="10.685981846885323"><ele>150.0</ele><time>2026-04-04T09:40:02Z</time></trkpt><trkpt lat="43.11842642442018" lon="10.6860165500205"><ele>150.0</ele><time>2026-04-04T09:40:03Z</time></trkpt><trkpt lat="43.11850394448263" lon="10.68606278221564"><ele>150.0</ele><time>2026-04-04T09:40:04Z</time></trkpt><trkpt lat="43.11857335061259" lon="10.686130709887635"><ele>150.83333333333334</ele><time>2026-04-04T09:40:05Z</time></trkpt><trkpt lat="43.11863193618611" lon="10.686213158547066"><ele>151.66666666666666</ele><time>2026-04-04T09:40:06Z</time></trkpt><trkpt lat="43.118683463364896" lon="10.686314154009725"><ele>152.5</ele><time>2026-04-04T09:40:07Z</time></trkpt><trkpt lat="43.11873067483634" lon="10.686406853744995"><ele>153.33333333333331</ele><time>2026-04-04T09:40:08Z</time></trkpt><trkpt lat="43.11879093727831" lon="10.686490713150521"><ele>154.16666666666666</ele><time>2026-04-04T09:40:09Z</time></trkpt><trkpt lat="43.118860079411405" lon="10.686563741141226"><ele>155.0</ele><time>2026-04-04T09:40:10Z</time></trkpt><trkpt lat="43.11893225703335" lon="10.686620571545959"><ele>155.0</ele><time>2026-04-04T09:40:11Z</time></trkpt><trkpt lat="43.11899858973452" lon="10.686666380531593"><ele>155.0</ele><time>2026-04-04T09:40:12Z</time></trkpt><trkpt lat="43.11907006832287" lon="10.686726796119649"><ele>155.0</ele><time>2026-04-04T09:40:13Z</time></trkpt><trkpt lat="43.11913873058811" lon="10.68680462661126"><ele>155.0</ele><time>2026-04-04T09:40:14Z</time></trkpt><trkpt lat="43.11919523225715" lon="10.686908118672248"><ele>155.0</ele><time>2026-04-04T09:40:15Z</time></trkpt><trkpt lat="43.11925738534991" lon="10.687022617132287"><ele>155.0</ele><time>2026-04-04T09:40:16Z</time></trkpt><trkpt lat="43.1193058042878" lon="10.687149591142122"><ele>155.2</ele><time>2026-04-04T09:40:17Z</time></trkpt><trkpt lat="43.1193427210396" lon="10.68728038058325"><ele>155.4</ele><time>2026-04-04T09:40:18Z</time></trkpt><trkpt lat="43.11937303234405" lon="10.68741653017964"><ele>155.6</ele><time>2026-04-04T09:40:19Z</time></trkpt><trkpt lat="43.11939822206413" lon="10.687564550773288"><ele>155.8</ele><time>2026-04-04T09:40:20Z</time></trkpt><trkpt lat="43.11941761798043" lon="10.687692492447079"><ele>156.0</ele><time>2026-04-04T09:40:21Z</time></trkpt><trkpt lat="43.11945201384915" lon="10.687815837767952"><ele>155.16666666666666</ele><time>2026-04-04T09:40:22Z</time></trkpt><trkpt lat="43.11948024548379" lon="10.68793404205532"><ele>154.33333333333334</ele><time>2026-04-04T09:40:23Z</time></trkpt><trkpt lat="43.11950296939058" lon="10.688040958581174"><ele>153.5</ele><time>2026-04-04T09:40:24Z</time></trkpt><trkpt lat="43.1195245894779" lon="10.688145085170069"><ele>152.66666666666669</ele><time>2026-04-04T09:40:25Z</time></trkpt><trkpt lat="43.11954843765705" lon="10.688242494345806"><ele>151.83333333333334</ele><time>2026-04-04T09:40:26Z</time></trkpt><trkpt lat="43.11959193828018" lon="10.688318925605689"><ele>151.0</ele><time>2026-04-04T09:40:27Z</time></trkpt><trkpt lat="43.119649234621" lon="10.68838734895704"><ele>151.0</ele><time>2026-04-04T09:40:28Z</time></trkpt><trkpt lat="43.11971486885796" lon="10.68844639999308"><ele>151.0</ele><time>2026-04-04T09:40:29Z</time></trkpt><trkpt lat="43.119792511539586" lon="10.688517581468147"><ele>151.0</ele><time>2026-04-04T09:40:30Z</time></trkpt><trkpt lat="43.11986767560595" lon="10.688584203626004"><ele>151.0</ele><time>2026-04-04T09:40:31Z</time></trkpt><trkpt lat="43.11994287547869" lon="10.688669729508018"><ele>151.0</ele><time>2026-04-04T09:40:31.999Z</time></trkpt><trkpt lat="43.1200018816515" lon="10.688764765856877"><ele>150.6</ele><time>2026-04-04T09:40:32.999Z</time></trkpt><trkpt lat="43.120048902469094" lon="10.68888370260173"><ele>150.2</ele><time>2026-04-04T09:40:33.999Z</time></trkpt><trkpt lat="43.12005910235134" lon="10.689010404296244"><ele>149.8</ele><time>2026-04-04T09:40:34.999Z</time></trkpt><trkpt lat="43.1200589691486" lon="10.68912615141573"><ele>149.4</ele><time>2026-04-04T09:40:35.999Z</time></trkpt><trkpt lat="43.120042545580155" lon="10.689272232889191"><ele>149.0</ele><time>2026-04-04T09:40:36.999Z</time></trkpt><trkpt lat="43.119996398850404" lon="10.689437387965667"><ele>148.6</ele><time>2026-04-04T09:40:37.999Z</time></trkpt><trkpt lat="43.11995711950046" lon="10.689565923101956"><ele>148.2</ele><time>2026-04-04T09:40:38.999Z</time></trkpt><trkpt lat="43.11993717732427" lon="10.6896810291516"><ele>147.79999999999998</ele><time>2026-04-04T09:40:39.999Z</time></trkpt><trkpt lat="43.11994401106282" lon="10.689806701242448"><ele>147.4</ele><time>2026-04-04T09:40:40.999Z</time></trkpt><trkpt lat="43.11999661304692" lon="10.6899058924734"><ele>147.0</ele><time>2026-04-04T09:40:41.999Z</time></trkpt><trkpt lat="43.12005584975123" lon="10.690037777679217"><ele>147.0</ele><time>2026-04-04T09:40:42.999Z</time></trkpt><trkpt lat="43.12013047719695" lon="10.690172238080306"><ele>147.0</ele><time>2026-04-04T09:40:43.999Z</time></trkpt><trkpt lat="43.120169374522625" lon="10.690313379990517"><ele>147.0</ele><time>2026-04-04T09:40:44.999Z</time></trkpt><trkpt lat="43.12018750992139" lon="10.690482370567375"><ele>147.0</ele><time>2026-04-04T09:40:45.999Z</time></trkpt><trkpt lat="43.1201766453996" lon="10.690666494581178"><ele>146.75</ele><time>2026-04-04T09:40:46.999Z</time></trkpt><trkpt lat="43.12018444667414" lon="10.690828962528466"><ele>146.5</ele><time>2026-04-04T09:40:47.999Z</time></trkpt><trkpt lat="43.12018896458923" lon="10.690953971145854"><ele>146.25</ele><time>2026-04-04T09:40:48.999Z</time></trkpt><trkpt lat="43.12020927161636" lon="10.691159450163507"><ele>146.0</ele><time>2026-04-04T09:40:49.999Z</time></trkpt><trkpt lat="43.12022124747166" lon="10.691330322334444"><ele>145.0</ele><time>2026-04-04T09:40:50.999Z</time></trkpt><trkpt lat="43.12027219387729" lon="10.691480217095396"><ele>144.0</ele><time>2026-04-04T09:40:51.999Z</time></trkpt><trkpt lat="43.120322588753496" lon="10.691632110248255"><ele>143.0</ele><time>2026-04-04T09:40:52.999Z</time></trkpt><trkpt lat="43.12035989170626" lon="10.691791232228317"><ele>142.0</ele><time>2026-04-04T09:40:53.999Z</time></trkpt><trkpt lat="43.12038183715479" lon="10.691938790527688"><ele>141.25</ele><time>2026-04-04T09:40:54.999Z</time></trkpt><trkpt lat="43.12039448792233" lon="10.692135836440839"><ele>140.5</ele><time>2026-04-04T09:40:55.999Z</time></trkpt><trkpt lat="43.120417785430675" lon="10.692306307648042"><ele>139.75</ele><time>2026-04-04T09:40:56.999Z</time></trkpt><trkpt lat="43.12044149725195" lon="10.692470737474538"><ele>139.0</ele><time>2026-04-04T09:40:57.999Z</time></trkpt><trkpt lat="43.120482174964785" lon="10.69264698384784"><ele>139.5</ele><time>2026-04-04T09:40:58.999Z</time></trkpt><trkpt lat="43.12050257152279" lon="10.692819097686499"><ele>140.0</ele><time>2026-04-04T09:40:59.999Z</time></trkpt><trkpt lat="43.12053202774124" lon="10.692974273725687"><ele>140.5</ele><time>2026-04-04T09:41:00.999Z</time></trkpt><trkpt lat="43.12052840060867" lon="10.693154737712414"><ele>141.0</ele><time>2026-04-04T09:41:01.999Z</time></trkpt><trkpt lat="43.12047240931905" lon="10.693388662982274"><ele>140.33333333333334</ele><time>2026-04-04T09:41:02.999Z</time></trkpt><trkpt lat="43.12040369167991" lon="10.693613163131193"><ele>139.66666666666669</ele><time>2026-04-04T09:41:03.999Z</time></trkpt><trkpt lat="43.12035274965787" lon="10.693802954061784"><ele>139.0</ele><time>2026-04-04T09:41:04.999Z</time></trkpt><trkpt lat="43.120313131992525" lon="10.693983334934831"><ele>139.0</ele><time>2026-04-04T09:41:05.999Z</time></trkpt><trkpt lat="43.120278598753046" lon="10.69415830705655"><ele>139.0</ele><time>2026-04-04T09:41:06.999Z</time></trkpt><trkpt lat="43.12025546243271" lon="10.694329480363278"><ele>139.0</ele><time>2026-04-04T09:41:07.999Z</time></trkpt><trkpt lat="43.120208089710516" lon="10.69447910156179"><ele>139.0</ele><time>2026-04-04T09:41:08.999Z</time></trkpt><trkpt lat="43.12014128991562" lon="10.69461066289286"><ele>138.25</ele><time>2026-04-04T09:41:09.999Z</time></trkpt><trkpt lat="43.12004902967453" lon="10.69472531836774"><ele>137.5</ele><time>2026-04-04T09:41:10.999Z</time></trkpt><trkpt lat="43.119959551919564" lon="10.694844958150497"><ele>136.75</ele><time>2026-04-04T09:41:11.999Z</time></trkpt><trkpt lat="43.119889301359756" lon="10.694972177313387"><ele>136.0</ele><time>2026-04-04T09:41:12.999Z</time></trkpt><trkpt lat="43.11981769031351" lon="10.695090920647552"><ele>133.0</ele><time>2026-04-04T09:41:13.999Z</time></trkpt><trkpt lat="43.119728443434504" lon="10.695206615828015"><ele>130.0</ele><time>2026-04-04T09:41:14.999Z</time></trkpt><trkpt lat="43.11965195131156" lon="10.695302690745306"><ele>127.0</ele><time>2026-04-04T09:41:15.999Z</time></trkpt><trkpt lat="43.11959546557155" lon="10.69543024049342"><ele>124.0</ele><time>2026-04-04T09:41:16.999Z</time></trkpt><trkpt lat="43.11954810201204" lon="10.695575553657832"><ele>124.0</ele><time>2026-04-04T09:41:17.999Z</time></trkpt><trkpt lat="43.119485614718265" lon="10.695714344250375"><ele>124.0</ele><time>2026-04-04T09:41:18.999Z</time></trkpt><trkpt lat="43.119394936231465" lon="10.695846757754042"><ele>124.0</ele><time>2026-04-04T09:41:19.999Z</time></trkpt><trkpt lat="43.11929187004137" lon="10.695955604608866"><ele>124.0</ele><time>2026-04-04T09:41:20.999Z</time></trkpt><trkpt lat="43.11919350753422" lon="10.69605968860702"><ele>123.80000000000001</ele><time>2026-04-04T09:41:21.999Z</time></trkpt><trkpt lat="43.11910294424019" lon="10.696153948229718"><ele>123.60000000000001</ele><time>2026-04-04T09:41:22.999Z</time></trkpt><trkpt lat="43.11901972082431" lon="10.696236312799728"><ele>123.4</ele><time>2026-04-04T09:41:23.999Z</time></trkpt><trkpt lat="43.118949248949335" lon="10.696335552488293"><ele>123.2</ele><time>2026-04-04T09:41:24.999Z</time></trkpt><trkpt lat="43.11890235492219" lon="10.696463050949303"><ele>123.0</ele><time>2026-04-04T09:41:25.999Z</time></trkpt><trkpt lat="43.11887259344747" lon="10.69659656222288"><ele>123.0</ele><time>2026-04-04T09:41:26.999Z</time></trkpt><trkpt lat="43.11884940732359" lon="10.6967176667213"><ele>123.00000000000001</ele><time>2026-04-04T09:41:27.999Z</time></trkpt><trkpt lat="43.118810856229985" lon="10.696858951073166"><ele>123.00000000000001</ele><time>2026-04-04T09:41:28.999Z</time></trkpt><trkpt lat="43.11876270864099" lon="10.697014105263598"><ele>123.0</ele><time>2026-04-04T09:41:29.998Z</time></trkpt><trkpt lat="43.11870040884669" lon="10.697155849162527"><ele>123.0</ele><time>2026-04-04T09:41:30.998Z</time></trkpt><trkpt lat="43.11864006584661" lon="10.69728462250861"><ele>124.80000000000001</ele><time>2026-04-04T09:41:31.998Z</time></trkpt><trkpt lat="43.118564419505326" lon="10.697399588881895"><ele>126.60000000000001</ele><time>2026-04-04T09:41:32.998Z</time></trkpt><trkpt lat="43.118488142260986" lon="10.697488332330419"><ele>128.39999999999998</ele><time>2026-04-04T09:41:33.998Z</time></trkpt><trkpt lat="43.11839939912215" lon="10.697539587667832"><ele>130.2</ele><time>2026-04-04T09:41:34.998Z</time></trkpt><trkpt lat="43.11831870342785" lon="10.697577726343898"><ele>132.0</ele><time>2026-04-04T09:41:35.998Z</time></trkpt><trkpt lat="43.1182692182856" lon="10.697631761721395"><ele>132.0</ele><time>2026-04-04T09:41:36.998Z</time></trkpt><trkpt lat="43.11824276004159" lon="10.697714200439792"><ele>132.0</ele><time>2026-04-04T09:41:37.998Z</time></trkpt><trkpt lat="43.11823185077815" lon="10.697825528772023"><ele>132.0</ele><time>2026-04-04T09:41:38.998Z</time></trkpt><trkpt lat="43.11823809400481" lon="10.697937351648832"><ele>132.0</ele><time>2026-04-04T09:41:39.998Z</time></trkpt><trkpt lat="43.118238382533875" lon="10.698048577645908"><ele>132.0</ele><time>2026-04-04T09:41:40.998Z</time></trkpt><trkpt lat="43.11822754465768" lon="10.698158910163437"><ele>132.0</ele><time>2026-04-04T09:41:41.998Z</time></trkpt><trkpt lat="43.11826864882988" lon="10.698337019396615"><ele>132.4</ele><time>2026-04-04T09:41:43.998Z</time></trkpt><trkpt lat="43.11831590622427" lon="10.698453740629995"><ele>132.79999999999998</ele><time>2026-04-04T09:41:44.998Z</time></trkpt><trkpt lat="43.118385736001976" lon="10.698549345253843"><ele>133.2</ele><time>2026-04-04T09:41:45.998Z</time></trkpt><trkpt lat="43.1184650334203" lon="10.698653069390843"><ele>133.6</ele><time>2026-04-04T09:41:46.998Z</time></trkpt><trkpt lat="43.11854374232379" lon="10.698791503200459"><ele>134.0</ele><time>2026-04-04T09:41:47.998Z</time></trkpt><trkpt lat="43.11862239063706" lon="10.698942635700332"><ele>134.0</ele><time>2026-04-04T09:41:48.998Z</time></trkpt><trkpt lat="43.118697227870285" lon="10.699138836255003"><ele>134.0</ele><time>2026-04-04T09:41:49.998Z</time></trkpt><trkpt lat="43.11877060342743" lon="10.699296088882923"><ele>134.0</ele><time>2026-04-04T09:41:50.998Z</time></trkpt><trkpt lat="43.11883866372345" lon="10.699445280200289"><ele>134.0</ele><time>2026-04-04T09:41:51.998Z</time></trkpt><trkpt lat="43.1189127093228" lon="10.699565787479736"><ele>133.75</ele><time>2026-04-04T09:41:52.998Z</time></trkpt><trkpt lat="43.118989462900004" lon="10.699695886067651"><ele>133.5</ele><time>2026-04-04T09:41:53.998Z</time></trkpt><trkpt lat="43.11906010771499" lon="10.69982659551171"><ele>133.25</ele><time>2026-04-04T09:41:54.998Z</time></trkpt><trkpt lat="43.11911536284306" lon="10.699967952666565"><ele>133.0</ele><time>2026-04-04T09:41:55.998Z</time></trkpt><trkpt lat="43.11915323918481" lon="10.700119857235276"><ele>135.20000000000002</ele><time>2026-04-04T09:41:57Z</time></trkpt><trkpt lat="43.11917669222188" lon="10.70026359804429"><ele>137.4</ele><time>2026-04-04T09:41:58Z</time></trkpt><trkpt lat="43.11920853604385" lon="10.700384991548066"><ele>139.60000000000002</ele><time>2026-04-04T09:41:59Z</time></trkpt><trkpt lat="43.11924120945897" lon="10.700484550216512"><ele>141.8</ele><time>2026-04-04T09:42:00Z</time></trkpt><trkpt lat="43.119269077498835" lon="10.700564285587891"><ele>144.0</ele><time>2026-04-04T09:42:01Z</time></trkpt><trkpt lat="43.11931389918357" lon="10.700692442953091"><ele>144.0</ele><time>2026-04-04T09:42:03Z</time></trkpt><trkpt lat="43.11934691981494" lon="10.700799231518952"><ele>144.0</ele><time>2026-04-04T09:43:58.998Z</time></trkpt><trkpt lat="43.11934598547387" lon="10.700899063659685"><ele>144.0</ele><time>2026-04-04T09:44:01.998Z</time></trkpt><trkpt lat="43.11933279390382" lon="10.701018073389234"><ele>144.0</ele><time>2026-04-04T09:44:05Z</time></trkpt><trkpt lat="43.11937109841558" lon="10.701095832563498"><ele>144.0</ele><time>2026-04-04T09:49:29.999Z</time></trkpt><trkpt lat="43.11941436941538" lon="10.701268460626832"><ele>144.0</ele><time>2026-04-04T09:49:31.999Z</time></trkpt><trkpt lat="43.11942404880968" lon="10.701418080721275"><ele>144.5</ele><time>2026-04-04T09:49:32.999Z</time></trkpt><trkpt lat="43.11943460903226" lon="10.701589384240124"><ele>145.0</ele><time>2026-04-04T09:49:33.999Z</time></trkpt><trkpt lat="43.11946011734667" lon="10.701775128469167"><ele>145.5</ele><time>2026-04-04T09:49:34.999Z</time></trkpt><trkpt lat="43.119488174031495" lon="10.701967513369112"><ele>146.0</ele><time>2026-04-04T09:49:35.999Z</time></trkpt><trkpt lat="43.11952133594665" lon="10.702102124594699"><ele>146.4</ele><time>2026-04-04T09:49:36.999Z</time></trkpt><trkpt lat="43.11957786130432" lon="10.70216388447154"><ele>146.8</ele><time>2026-04-04T09:49:37.999Z</time></trkpt><trkpt lat="43.11971240479924" lon="10.702196583789101"><ele>147.20000000000002</ele><time>2026-04-04T09:49:39.999Z</time></trkpt><trkpt lat="43.11980920266057" lon="10.702231037192888"><ele>147.6</ele><time>2026-04-04T09:49:40.999Z</time></trkpt><trkpt lat="43.11987636969036" lon="10.702291350888592"><ele>148.0</ele><time>2026-04-04T09:49:41.999Z</time></trkpt><trkpt lat="43.1199366452887" lon="10.702401832045572"><ele>148.0</ele><time>2026-04-04T09:49:42.999Z</time></trkpt><trkpt lat="43.11998534248039" lon="10.702539558873287"><ele>148.0</ele><time>2026-04-04T09:49:43.999Z</time></trkpt><trkpt lat="43.12001113393502" lon="10.70271288637636"><ele>148.0</ele><time>2026-04-04T09:49:44.999Z</time></trkpt><trkpt lat="43.12004750625615" lon="10.70285711100074"><ele>148.0</ele><time>2026-04-04T09:49:45.998Z</time></trkpt><trkpt lat="43.120098122750065" lon="10.702967479877168"><ele>148.0</ele><time>2026-04-04T09:49:46.998Z</time></trkpt><trkpt lat="43.12017720448228" lon="10.703111857822972"><ele>148.0</ele><time>2026-04-04T09:49:47.998Z</time></trkpt><trkpt lat="43.12029309063361" lon="10.703287503030154"><ele>148.0</ele><time>2026-04-04T09:49:48.998Z</time></trkpt><trkpt lat="43.120416539313844" lon="10.70345331181943"><ele>148.0</ele><time>2026-04-04T09:49:49.998Z</time></trkpt><trkpt lat="43.120533080065755" lon="10.703593550449272"><ele>146.66666666666669</ele><time>2026-04-04T09:49:50.998Z</time></trkpt><trkpt lat="43.12068829007526" lon="10.703742011719891"><ele>145.33333333333334</ele><time>2026-04-04T09:49:51.998Z</time></trkpt><trkpt lat="43.12082056815208" lon="10.703869878184117"><ele>144.0</ele><time>2026-04-04T09:49:52.998Z</time></trkpt><trkpt lat="43.12091009432069" lon="10.70397528936586"><ele>143.4</ele><time>2026-04-04T09:49:53.998Z</time></trkpt><trkpt lat="43.12095252282555" lon="10.70407775334358"><ele>142.8</ele><time>2026-04-04T09:49:54.998Z</time></trkpt><trkpt lat="43.12096827853653" lon="10.70419308671814"><ele>142.2</ele><time>2026-04-04T09:49:55.998Z</time></trkpt><trkpt lat="43.12096533160656" lon="10.704339229542652"><ele>141.6</ele><time>2026-04-04T09:49:56.998Z</time></trkpt><trkpt lat="43.12096979830702" lon="10.704493062657825"><ele>141.0</ele><time>2026-04-04T09:49:57.998Z</time></trkpt><trkpt lat="43.121030458853426" lon="10.70467079949498"><ele>140.5</ele><time>2026-04-04T09:49:58.998Z</time></trkpt><trkpt lat="43.121088987420464" lon="10.704866835127048"><ele>140.0</ele><time>2026-04-04T09:49:59.998Z</time></trkpt><trkpt lat="43.12110736575644" lon="10.70507401733748"><ele>139.5</ele><time>2026-04-04T09:50:00.998Z</time></trkpt><trkpt lat="43.1211077669549" lon="10.705253479064774"><ele>139.0</ele><time>2026-04-04T09:50:01.998Z</time></trkpt><trkpt lat="43.121090849007594" lon="10.705403128520931"><ele>138.5</ele><time>2026-04-04T09:50:02.998Z</time></trkpt><trkpt lat="43.121064050053164" lon="10.705595871464324"><ele>138.0</ele><time>2026-04-04T09:50:03.998Z</time></trkpt><trkpt lat="43.121039722684884" lon="10.705797236591279"><ele>137.5</ele><time>2026-04-04T09:50:04.998Z</time></trkpt><trkpt lat="43.12101487513964" lon="10.705993371918757"><ele>137.0</ele><time>2026-04-04T09:50:05.998Z</time></trkpt><trkpt lat="43.120970507844724" lon="10.706154426263804"><ele>137.0</ele><time>2026-04-04T09:50:06.998Z</time></trkpt><trkpt lat="43.12090653916268" lon="10.706345906200752"><ele>137.0</ele><time>2026-04-04T09:50:07.998Z</time></trkpt><trkpt lat="43.12085524213262" lon="10.706574517845617"><ele>137.0</ele><time>2026-04-04T09:50:08.998Z</time></trkpt><trkpt lat="43.12081346040624" lon="10.70684003021454"><ele>138.33333333333331</ele><time>2026-04-04T09:50:09.998Z</time></trkpt><trkpt lat="43.120777355072505" lon="10.707076787157199"><ele>139.66666666666666</ele><time>2026-04-04T09:50:10.998Z</time></trkpt><trkpt lat="43.12074536199103" lon="10.70726495227917"><ele>141.0</ele><time>2026-04-04T09:50:11.998Z</time></trkpt><trkpt lat="43.12072801351874" lon="10.707457017990434"><ele>141.33333333333334</ele><time>2026-04-04T09:50:12.998Z</time></trkpt><trkpt lat="43.12071611192218" lon="10.707677083089637"><ele>141.66666666666669</ele><time>2026-04-04T09:50:13.998Z</time></trkpt><trkpt lat="43.1207377401638" lon="10.707908401629592"><ele>142.0</ele><time>2026-04-04T09:50:14.998Z</time></trkpt><trkpt lat="43.12074801560609" lon="10.708070220775404"><ele>142.0</ele><time>2026-04-04T09:50:15.998Z</time></trkpt><trkpt lat="43.12075228868695" lon="10.708220860987561"><ele>142.0</ele><time>2026-04-04T09:50:16.998Z</time></trkpt><trkpt lat="43.12077789447654" lon="10.708344829024162"><ele>142.0</ele><time>2026-04-04T09:50:17.998Z</time></trkpt><trkpt lat="43.12083518291531" lon="10.708441265288588"><ele>142.0</ele><time>2026-04-04T09:50:18.998Z</time></trkpt><trkpt lat="43.120919652942945" lon="10.708570890548575"><ele>142.0</ele><time>2026-04-04T09:50:19.998Z</time></trkpt><trkpt lat="43.120992726291085" lon="10.708737424366761"><ele>142.25</ele><time>2026-04-04T09:50:20.999Z</time></trkpt><trkpt lat="43.12103666590017" lon="10.708939167817944"><ele>142.5</ele><time>2026-04-04T09:50:21.999Z</time></trkpt><trkpt lat="43.12105472441143" lon="10.709144709492124"><ele>142.75</ele><time>2026-04-04T09:50:22.999Z</time></trkpt><trkpt lat="43.121085041387275" lon="10.709334829507082"><ele>143.0</ele><time>2026-04-04T09:50:23.999Z</time></trkpt><trkpt lat="43.12110602729228" lon="10.709464809210608"><ele>141.6</ele><time>2026-04-04T09:50:24.999Z</time></trkpt><trkpt lat="43.12112013816123" lon="10.709609692224701"><ele>140.20000000000002</ele><time>2026-04-04T09:50:25.999Z</time></trkpt><trkpt lat="43.121124519258956" lon="10.70973980197206"><ele>138.8</ele><time>2026-04-04T09:50:26.999Z</time></trkpt><trkpt lat="43.12112161862616" lon="10.709885076723882"><ele>137.4</ele><time>2026-04-04T09:50:27.999Z</time></trkpt><trkpt lat="43.12112717327972" lon="10.71005606112019"><ele>136.0</ele><time>2026-04-04T09:50:28.999Z</time></trkpt><trkpt lat="43.12112956451038" lon="10.710239832673006"><ele>134.5</ele><time>2026-04-04T09:50:29.999Z</time></trkpt><trkpt lat="43.12112401177948" lon="10.710399671353814"><ele>133.0</ele><time>2026-04-04T09:50:30.999Z</time></trkpt><trkpt lat="43.121111931262675" lon="10.710574031388761"><ele>131.5</ele><time>2026-04-04T09:50:31.999Z</time></trkpt><trkpt lat="43.12111126533394" lon="10.710725853123032"><ele>130.0</ele><time>2026-04-04T09:50:32.999Z</time></trkpt><trkpt lat="43.12112402679714" lon="10.710893176504932"><ele>130.0</ele><time>2026-04-04T09:50:33.999Z</time></trkpt><trkpt lat="43.12114408022027" lon="10.711086162397459"><ele>130.0</ele><time>2026-04-04T09:50:34.999Z</time></trkpt><trkpt lat="43.12114952101809" lon="10.711268525787517"><ele>130.0</ele><time>2026-04-04T09:50:35.999Z</time></trkpt><trkpt lat="43.12115417246526" lon="10.71141111994705"><ele>130.0</ele><time>2026-04-04T09:50:36.999Z</time></trkpt><trkpt lat="43.12115836652495" lon="10.711549183737102"><ele>130.0</ele><time>2026-04-04T09:50:37.999Z</time></trkpt><trkpt lat="43.121172882208285" lon="10.711674507414653"><ele>130.0</ele><time>2026-04-04T09:50:38.999Z</time></trkpt><trkpt lat="43.12120829248099" lon="10.711788177260933"><ele>130.0</ele><time>2026-04-04T09:50:39.999Z</time></trkpt><trkpt lat="43.12126370731977" lon="10.711911160312939"><ele>130.0</ele><time>2026-04-04T09:50:40.999Z</time></trkpt><trkpt lat="43.121309476834284" lon="10.712034754939031"><ele>130.0</ele><time>2026-04-04T09:50:41.999Z</time></trkpt><trkpt lat="43.12134223807022" lon="10.712140261411125"><ele>130.2</ele><time>2026-04-04T09:50:42.999Z</time></trkpt><trkpt lat="43.12137324300606" lon="10.712251706843217"><ele>130.4</ele><time>2026-04-04T09:50:43.999Z</time></trkpt><trkpt lat="43.121389912986565" lon="10.712387844062063"><ele>130.6</ele><time>2026-04-04T09:50:44.999Z</time></trkpt><trkpt lat="43.121410597344465" lon="10.712544992092637"><ele>130.8</ele><time>2026-04-04T09:50:45.999Z</time></trkpt><trkpt lat="43.12142575846392" lon="10.712699934317717"><ele>131.0</ele><time>2026-04-04T09:50:46.999Z</time></trkpt><trkpt lat="43.12146473498949" lon="10.7128515026568"><ele>131.0</ele><time>2026-04-04T09:50:47.999Z</time></trkpt><trkpt lat="43.121516216836724" lon="10.71299391088475"><ele>131.0</ele><time>2026-04-04T09:50:48.999Z</time></trkpt><trkpt lat="43.1215932681205" lon="10.713131345240196"><ele>131.0</ele><time>2026-04-04T09:50:49.999Z</time></trkpt><trkpt lat="43.121662664675156" lon="10.713241831858214"><ele>131.0</ele><time>2026-04-04T09:50:50.999Z</time></trkpt><trkpt lat="43.12173016553369" lon="10.713365697892629"><ele>129.4</ele><time>2026-04-04T09:50:51.999Z</time></trkpt><trkpt lat="43.12176252571077" lon="10.713495430478133"><ele>127.8</ele><time>2026-04-04T09:50:52.999Z</time></trkpt><trkpt lat="43.12180585129394" lon="10.713644503333477"><ele>126.20000000000002</ele><time>2026-04-04T09:50:53.999Z</time></trkpt><trkpt lat="43.12184657634143" lon="10.713789798783406"><ele>124.60000000000001</ele><time>2026-04-04T09:50:54.999Z</time></trkpt><trkpt lat="43.12186865407121" lon="10.713939210361755"><ele>123.0</ele><time>2026-04-04T09:50:55.999Z</time></trkpt><trkpt lat="43.12188376218585" lon="10.71412793596247"><ele>122.0</ele><time>2026-04-04T09:50:56.999Z</time></trkpt><trkpt lat="43.1218899366514" lon="10.714308298621322"><ele>121.0</ele><time>2026-04-04T09:50:57.999Z</time></trkpt><trkpt lat="43.121923215319775" lon="10.714488925783739"><ele>120.0</ele><time>2026-04-04T09:50:58.999Z</time></trkpt><trkpt lat="43.12196074631937" lon="10.714663289112245"><ele>119.0</ele><time>2026-04-04T09:50:59.999Z</time></trkpt><trkpt lat="43.12199258463984" lon="10.714832214227304"><ele>116.75</ele><time>2026-04-04T09:51:00.999Z</time></trkpt><trkpt lat="43.122031475825516" lon="10.715003512893807"><ele>114.5</ele><time>2026-04-04T09:51:01.999Z</time></trkpt><trkpt lat="43.122055374336014" lon="10.715183258773148"><ele>112.25</ele><time>2026-04-04T09:51:02.999Z</time></trkpt><trkpt lat="43.12210009190991" lon="10.715359253347014"><ele>110.0</ele><time>2026-04-04T09:51:03.999Z</time></trkpt><trkpt lat="43.122148696831786" lon="10.715505338682185"><ele>107.8</ele><time>2026-04-04T09:51:04.999Z</time></trkpt><trkpt lat="43.122192161730254" lon="10.715645209233067"><ele>105.6</ele><time>2026-04-04T09:51:05.999Z</time></trkpt><trkpt lat="43.12224473253777" lon="10.715777618226605"><ele>103.4</ele><time>2026-04-04T09:51:06.999Z</time></trkpt><trkpt lat="43.12230415195408" lon="10.715869835268506"><ele>101.2</ele><time>2026-04-04T09:51:07.999Z</time></trkpt><trkpt lat="43.122386295923235" lon="10.715951811151813"><ele>99.0</ele><time>2026-04-04T09:51:08.999Z</time></trkpt><trkpt lat="43.12246339764142" lon="10.716018242322887"><ele>98.5</ele><time>2026-04-04T09:51:09.999Z</time></trkpt><trkpt lat="43.122526511293415" lon="10.716041344188"><ele>98.0</ele><time>2026-04-04T09:51:10.999Z</time></trkpt><trkpt lat="43.12260568607389" lon="10.716030240614815"><ele>97.5</ele><time>2026-04-04T09:51:11.999Z</time></trkpt><trkpt lat="43.122682204044104" lon="10.716003193881175"><ele>97.0</ele><time>2026-04-04T09:51:12.999Z</time></trkpt><trkpt lat="43.12278787778974" lon="10.715972042192153"><ele>96.5</ele><time>2026-04-04T09:51:14.999Z</time></trkpt><trkpt lat="43.122841575461514" lon="10.715924431320035"><ele>96.0</ele><time>2026-04-04T09:51:17.999Z</time></trkpt><trkpt lat="43.12284680877234" lon="10.715792084244299"><ele>96.0</ele><time>2026-04-04T09:52:55Z</time></trkpt><trkpt lat="43.12284870431053" lon="10.715611005620296"><ele>96.0</ele><time>2026-04-04T09:52:57Z</time></trkpt><trkpt lat="43.12285006422409" lon="10.715480552369812"><ele>96.0</ele><time>2026-04-04T09:52:58Z</time></trkpt><trkpt lat="43.12285627657147" lon="10.71534063283272"><ele>96.0</ele><time>2026-04-04T09:52:59Z</time></trkpt><trkpt lat="43.12286232306568" lon="10.715202398427815"><ele>96.0</ele><time>2026-04-04T09:53:00Z</time></trkpt><trkpt lat="43.12287152003261" lon="10.715051967429247"><ele>96.6</ele><time>2026-04-04T09:53:01Z</time></trkpt><trkpt lat="43.12287959196396" lon="10.714911275972822"><ele>97.19999999999999</ele><time>2026-04-04T09:53:02Z</time></trkpt><trkpt lat="43.12290023374485" lon="10.71477309559931"><ele>97.80000000000001</ele><time>2026-04-04T09:53:03Z</time></trkpt><trkpt lat="43.12294165913821" lon="10.714657300197814"><ele>98.4</ele><time>2026-04-04T09:53:04Z</time></trkpt><trkpt lat="43.12300504949342" lon="10.71453501016488"><ele>99.0</ele><time>2026-04-04T09:53:05Z</time></trkpt><trkpt lat="43.12306084526257" lon="10.714406878052287"><ele>99.6</ele><time>2026-04-04T09:53:06Z</time></trkpt><trkpt lat="43.123131630638234" lon="10.714305963653754"><ele>100.2</ele><time>2026-04-04T09:53:07Z</time></trkpt><trkpt lat="43.123175173547764" lon="10.7141930967545"><ele>100.8</ele><time>2026-04-04T09:53:08Z</time></trkpt><trkpt lat="43.12322441090521" lon="10.714074693638633"><ele>101.39999999999999</ele><time>2026-04-04T09:53:09Z</time></trkpt><trkpt lat="43.12327268542988" lon="10.713958304638147"><ele>102.0</ele><time>2026-04-04T09:53:10Z</time></trkpt><trkpt lat="43.123344316980244" lon="10.713862555830273"><ele>98.0</ele><time>2026-04-04T09:53:11Z</time></trkpt><trkpt lat="43.123430044619624" lon="10.713766157461926"><ele>94.0</ele><time>2026-04-04T09:53:12Z</time></trkpt><trkpt lat="43.12351477818374" lon="10.713650522612719"><ele>90.0</ele><time>2026-04-04T09:53:13Z</time></trkpt><trkpt lat="43.1235951007155" lon="10.713542340112749"><ele>86.0</ele><time>2026-04-04T09:53:14Z</time></trkpt><trkpt lat="43.123672680519185" lon="10.71344171641512"><ele>86.0</ele><time>2026-04-04T09:53:15Z</time></trkpt><trkpt lat="43.123752331373" lon="10.713351647880454"><ele>86.0</ele><time>2026-04-04T09:53:16Z</time></trkpt><trkpt lat="43.12382514658402" lon="10.713262964185411"><ele>86.0</ele><time>2026-04-04T09:53:17Z</time></trkpt><trkpt lat="43.12389452276777" lon="10.713169079428132"><ele>86.0</ele><time>2026-04-04T09:53:18Z</time></trkpt><trkpt lat="43.1239624900661" lon="10.713080176684205"><ele>86.0</ele><time>2026-04-04T09:53:19Z</time></trkpt><trkpt lat="43.124039319005796" lon="10.713023249853016"><ele>84.8</ele><time>2026-04-04T09:53:20Z</time></trkpt><trkpt lat="43.12411929886581" lon="10.712955086382463"><ele>83.6</ele><time>2026-04-04T09:53:21Z</time></trkpt><trkpt lat="43.12418417610847" lon="10.71288288498594"><ele>82.4</ele><time>2026-04-04T09:53:22Z</time></trkpt><trkpt lat="43.12425378504967" lon="10.712793008172946"><ele>81.2</ele><time>2026-04-04T09:53:23Z</time></trkpt><trkpt lat="43.124307132749124" lon="10.712693635619614"><ele>80.0</ele><time>2026-04-04T09:53:23.999Z</time></trkpt><trkpt lat="43.12434593186668" lon="10.712573320298919"><ele>80.0</ele><time>2026-04-04T09:53:24.999Z</time></trkpt><trkpt lat="43.12437348261321" lon="10.712437786039617"><ele>80.0</ele><time>2026-04-04T09:53:25.999Z</time></trkpt><trkpt lat="43.124383098256565" lon="10.712304313132632"><ele>80.0</ele><time>2026-04-04T09:53:26.999Z</time></trkpt><trkpt lat="43.124413396384405" lon="10.712184398181355"><ele>80.0</ele><time>2026-04-04T09:53:27.999Z</time></trkpt><trkpt lat="43.12444161523798" lon="10.712046868025014"><ele>80.0</ele><time>2026-04-04T09:53:28.999Z</time></trkpt><trkpt lat="43.12449062055971" lon="10.711920132761488"><ele>80.0</ele><time>2026-04-04T09:53:29.999Z</time></trkpt><trkpt lat="43.12452068732262" lon="10.71179746058819"><ele>80.0</ele><time>2026-04-04T09:53:30.999Z</time></trkpt><trkpt lat="43.12453428710953" lon="10.711677809828595"><ele>80.0</ele><time>2026-04-04T09:53:31.999Z</time></trkpt><trkpt lat="43.12455567200279" lon="10.711578242665537"><ele>80.0</ele><time>2026-04-04T09:53:32.999Z</time></trkpt><trkpt lat="43.124577774713224" lon="10.71149417370375"><ele>80.0</ele><time>2026-04-04T09:53:33.999Z</time></trkpt><trkpt lat="43.12464318319383" lon="10.71140331666164"><ele>80.0</ele><time>2026-04-04T09:53:35.999Z</time></trkpt><trkpt lat="43.124706156454394" lon="10.71137958539804"><ele>80.0</ele><time>2026-04-04T09:53:37.999Z</time></trkpt><trkpt lat="43.12474678136338" lon="10.711545483235966"><ele>80.0</ele><time>2026-04-04T09:53:41.999Z</time></trkpt><trkpt lat="43.12474103155359" lon="10.711661395059773"><ele>80.0</ele><time>2026-04-04T09:53:42.999Z</time></trkpt><trkpt lat="43.12474944479828" lon="10.711790762402188"><ele>80.0</ele><time>2026-04-04T09:53:43.999Z</time></trkpt><trkpt lat="43.12474281659067" lon="10.711933102699646"><ele>80.0</ele><time>2026-04-04T09:53:44.999Z</time></trkpt><trkpt lat="43.12473610823435" lon="10.712084300152902"><ele>80.0</ele><time>2026-04-04T09:53:45.999Z</time></trkpt><trkpt lat="43.124742948389525" lon="10.712233459357757"><ele>80.0</ele><time>2026-04-04T09:53:46.999Z</time></trkpt><trkpt lat="43.12474304405602" lon="10.712388170220326"><ele>80.0</ele><time>2026-04-04T09:53:47.999Z</time></trkpt><trkpt lat="43.12474833903609" lon="10.712537917580873"><ele>80.0</ele><time>2026-04-04T09:53:48.999Z</time></trkpt><trkpt lat="43.12475528991325" lon="10.71268603907791"><ele>80.0</ele><time>2026-04-04T09:53:49.999Z</time></trkpt><trkpt lat="43.124764019302006" lon="10.712833783842193"><ele>80.0</ele><time>2026-04-04T09:53:50.999Z</time></trkpt><trkpt lat="43.12477722968448" lon="10.712989450724887"><ele>80.0</ele><time>2026-04-04T09:53:51.999Z</time></trkpt><trkpt lat="43.124788049529165" lon="10.713130447970046"><ele>80.0</ele><time>2026-04-04T09:53:52.999Z</time></trkpt><trkpt lat="43.12480842263702" lon="10.713276889840033"><ele>80.0</ele><time>2026-04-04T09:53:53.999Z</time></trkpt><trkpt lat="43.12482052190272" lon="10.713430187622887"><ele>80.0</ele><time>2026-04-04T09:53:54.999Z</time></trkpt><trkpt lat="43.12484190398323" lon="10.713569056472501"><ele>79.66666666666667</ele><time>2026-04-04T09:53:55.999Z</time></trkpt><trkpt lat="43.12486459252523" lon="10.713690472765437"><ele>79.33333333333334</ele><time>2026-04-04T09:53:56.999Z</time></trkpt><trkpt lat="43.12488571583665" lon="10.713796611317433"><ele>79.0</ele><time>2026-04-04T09:53:57.999Z</time></trkpt><trkpt lat="43.12489887262372" lon="10.713906430586915"><ele>78.66666666666667</ele><time>2026-04-04T09:53:58.999Z</time></trkpt><trkpt lat="43.124917119109725" lon="10.71401740886766"><ele>78.33333333333333</ele><time>2026-04-04T09:53:59.999Z</time></trkpt><trkpt lat="43.124935194929364" lon="10.714121858184862"><ele>78.0</ele><time>2026-04-04T09:54:00.999Z</time></trkpt><trkpt lat="43.1249542686491" lon="10.71424013290705"><ele>78.2</ele><time>2026-04-04T09:54:01.999Z</time></trkpt><trkpt lat="43.12497866871397" lon="10.714368302926406"><ele>78.4</ele><time>2026-04-04T09:54:02.999Z</time></trkpt><trkpt lat="43.125001313580924" lon="10.7145065496302"><ele>78.60000000000001</ele><time>2026-04-04T09:54:03.999Z</time></trkpt><trkpt lat="43.12502684169202" lon="10.714646299745349"><ele>78.8</ele><time>2026-04-04T09:54:04.999Z</time></trkpt><trkpt lat="43.12505207264009" lon="10.714792371964364"><ele>79.0</ele><time>2026-04-04T09:54:05.999Z</time></trkpt><trkpt lat="43.12507585472351" lon="10.714940094408012"><ele>79.0</ele><time>2026-04-04T09:54:06.999Z</time></trkpt><trkpt lat="43.12509943492203" lon="10.715088123814411"><ele>79.0</ele><time>2026-04-04T09:54:07.999Z</time></trkpt><trkpt lat="43.1251250587344" lon="10.715230136888172"><ele>79.0</ele><time>2026-04-04T09:54:08.999Z</time></trkpt><trkpt lat="43.1251501541211" lon="10.715371184463041"><ele>79.0</ele><time>2026-04-04T09:54:09.999Z</time></trkpt><trkpt lat="43.12517367441819" lon="10.715515549505012"><ele>79.0</ele><time>2026-04-04T09:54:10.999Z</time></trkpt><trkpt lat="43.125191836505124" lon="10.715653217951585"><ele>78.60000000000001</ele><time>2026-04-04T09:54:11.999Z</time></trkpt><trkpt lat="43.12521815377267" lon="10.715787485766704"><ele>78.2</ele><time>2026-04-04T09:54:12.999Z</time></trkpt><trkpt lat="43.125241242850706" lon="10.715927293926825"><ele>77.80000000000001</ele><time>2026-04-04T09:54:13.999Z</time></trkpt><trkpt lat="43.12526604891169" lon="10.716065183407887"><ele>77.4</ele><time>2026-04-04T09:54:14.999Z</time></trkpt><trkpt lat="43.12529004365097" lon="10.716203466166817"><ele>77.0</ele><time>2026-04-04T09:54:15.999Z</time></trkpt><trkpt lat="43.12531375581218" lon="10.716336838846305"><ele>77.0</ele><time>2026-04-04T09:54:16.999Z</time></trkpt><trkpt lat="43.12533528854187" lon="10.716474021027533"><ele>77.0</ele><time>2026-04-04T09:54:17.999Z</time></trkpt><trkpt lat="43.12535739737579" lon="10.71660646867269"><ele>77.0</ele><time>2026-04-04T09:54:18.999Z</time></trkpt><trkpt lat="43.125377141639014" lon="10.716743928996985"><ele>77.0</ele><time>2026-04-04T09:54:19.999Z</time></trkpt><trkpt lat="43.12539255551151" lon="10.716887988655946"><ele>77.0</ele><time>2026-04-04T09:54:20.999Z</time></trkpt><trkpt lat="43.12540137879867" lon="10.717040939591978"><ele>76.75</ele><time>2026-04-04T09:54:21.999Z</time></trkpt><trkpt lat="43.125381828129754" lon="10.71720330639006"><ele>76.5</ele><time>2026-04-04T09:54:22.999Z</time></trkpt><trkpt lat="43.12534968068063" lon="10.717356447450618"><ele>76.25</ele><time>2026-04-04T09:54:23.999Z</time></trkpt><trkpt lat="43.12532723857536" lon="10.717512212143228"><ele>76.0</ele><time>2026-04-04T09:54:24.999Z</time></trkpt><trkpt lat="43.12529845911702" lon="10.717658511494399"><ele>76.0</ele><time>2026-04-04T09:54:25.999Z</time></trkpt><trkpt lat="43.12527659164256" lon="10.717802670197827"><ele>76.0</ele><time>2026-04-04T09:54:26.999Z</time></trkpt><trkpt lat="43.12525192825524" lon="10.71794542968948"><ele>76.0</ele><time>2026-04-04T09:54:27.999Z</time></trkpt><trkpt lat="43.125224470154215" lon="10.718092972220477"><ele>76.0</ele><time>2026-04-04T09:54:28.999Z</time></trkpt><trkpt lat="43.12520380041039" lon="10.718233016076098"><ele>76.0</ele><time>2026-04-04T09:54:29.999Z</time></trkpt><trkpt lat="43.12518127509273" lon="10.718377802985268"><ele>76.0</ele><time>2026-04-04T09:54:30.999Z</time></trkpt><trkpt lat="43.12515079414892" lon="10.718522267320145"><ele>76.0</ele><time>2026-04-04T09:54:31.999Z</time></trkpt><trkpt lat="43.12512297820111" lon="10.718661976881542"><ele>76.0</ele><time>2026-04-04T09:54:33.001Z</time></trkpt><trkpt lat="43.12510159482443" lon="10.718824860379456"><ele>76.0</ele><time>2026-04-04T09:54:34.001Z</time></trkpt><trkpt lat="43.12507518012651" lon="10.71897211796227"><ele>76.0</ele><time>2026-04-04T09:54:35Z</time></trkpt><trkpt lat="43.12505033747952" lon="10.719119588250596"><ele>76.0</ele><time>2026-04-04T09:54:36Z</time></trkpt><trkpt lat="43.12502326815963" lon="10.719262735150652"><ele>76.0</ele><time>2026-04-04T09:54:37Z</time></trkpt><trkpt lat="43.12499491971979" lon="10.71940655388527"><ele>76.0</ele><time>2026-04-04T09:54:38Z</time></trkpt><trkpt lat="43.12495741179204" lon="10.719545275979694"><ele>76.0</ele><time>2026-04-04T09:54:39Z</time></trkpt><trkpt lat="43.124904945294034" lon="10.719669954579764"><ele>76.0</ele><time>2026-04-04T09:54:40Z</time></trkpt><trkpt lat="43.12484170392227" lon="10.719796363659707"><ele>76.0</ele><time>2026-04-04T09:54:41Z</time></trkpt><trkpt lat="43.12476246735826" lon="10.719897726696418"><ele>76.0</ele><time>2026-04-04T09:54:42Z</time></trkpt><trkpt lat="43.124678884647416" lon="10.720008626157542"><ele>76.0</ele><time>2026-04-04T09:54:43Z</time></trkpt><trkpt lat="43.12460005039176" lon="10.720127031273874"><ele>76.0</ele><time>2026-04-04T09:54:44Z</time></trkpt><trkpt lat="43.12450699732934" lon="10.720212091348207"><ele>76.75</ele><time>2026-04-04T09:54:45Z</time></trkpt><trkpt lat="43.1243987079389" lon="10.72026609951191"><ele>77.5</ele><time>2026-04-04T09:54:46Z</time></trkpt><trkpt lat="43.12430132600379" lon="10.720352100796584"><ele>78.25</ele><time>2026-04-04T09:54:47Z</time></trkpt><trkpt lat="43.12419668218459" lon="10.720415242486814"><ele>79.0</ele><time>2026-04-04T09:54:48Z</time></trkpt><trkpt lat="43.12409403167757" lon="10.720483661632032"><ele>78.5</ele><time>2026-04-04T09:54:49Z</time></trkpt><trkpt lat="43.12399370762073" lon="10.720550344405147"><ele>78.0</ele><time>2026-04-04T09:54:50Z</time></trkpt><trkpt lat="43.12389342477937" lon="10.720616393114334"><ele>77.5</ele><time>2026-04-04T09:54:51Z</time></trkpt><trkpt lat="43.1237913444466" lon="10.720679906946456"><ele>77.0</ele><time>2026-04-04T09:54:52Z</time></trkpt><trkpt lat="43.123683083654186" lon="10.720751304690921"><ele>77.0</ele><time>2026-04-04T09:54:53Z</time></trkpt><trkpt lat="43.123573420047684" lon="10.720822604352879"><ele>77.0</ele><time>2026-04-04T09:54:54Z</time></trkpt><trkpt lat="43.12347419486814" lon="10.720888016142625"><ele>77.0</ele><time>2026-04-04T09:54:55Z</time></trkpt><trkpt lat="43.12337588669555" lon="10.720949807095556"><ele>77.0</ele><time>2026-04-04T09:54:56Z</time></trkpt><trkpt lat="43.12328450569384" lon="10.721013206994895"><ele>77.0</ele><time>2026-04-04T09:54:57Z</time></trkpt><trkpt lat="43.12318437755201" lon="10.721083274653973"><ele>77.25</ele><time>2026-04-04T09:54:58Z</time></trkpt><trkpt lat="43.12308458186976" lon="10.721145275929198"><ele>77.5</ele><time>2026-04-04T09:54:59Z</time></trkpt><trkpt lat="43.12297601327445" lon="10.721216099628206"><ele>77.75</ele><time>2026-04-04T09:55:00Z</time></trkpt><trkpt lat="43.122875925283715" lon="10.721286372318751"><ele>78.0</ele><time>2026-04-04T09:55:01Z</time></trkpt><trkpt lat="43.122772080828796" lon="10.7213586138169"><ele>78.0</ele><time>2026-04-04T09:55:02Z</time></trkpt><trkpt lat="43.12266893281992" lon="10.721423270853178"><ele>78.0</ele><time>2026-04-04T09:55:03Z</time></trkpt><trkpt lat="43.12256028015825" lon="10.72147984023942"><ele>78.0</ele><time>2026-04-04T09:55:04Z</time></trkpt><trkpt lat="43.12244064522517" lon="10.721524916274056"><ele>78.0</ele><time>2026-04-04T09:55:05Z</time></trkpt><trkpt lat="43.122321372296206" lon="10.721556025463393"><ele>79.25</ele><time>2026-04-04T09:55:06Z</time></trkpt><trkpt lat="43.12219642857296" lon="10.72157085852104"><ele>80.5</ele><time>2026-04-04T09:55:07Z</time></trkpt><trkpt lat="43.12208051867575" lon="10.721563105936468"><ele>81.75</ele><time>2026-04-04T09:55:08Z</time></trkpt><trkpt lat="43.121964525088416" lon="10.721552437690098"><ele>83.0</ele><time>2026-04-04T09:55:09Z</time></trkpt><trkpt lat="43.12184652830764" lon="10.721527526812949"><ele>83.0</ele><time>2026-04-04T09:55:10Z</time></trkpt><trkpt lat="43.121729222923356" lon="10.721502163355906"><ele>83.0</ele><time>2026-04-04T09:55:11Z</time></trkpt><trkpt lat="43.121608825970775" lon="10.72147737586851"><ele>83.0</ele><time>2026-04-04T09:55:12Z</time></trkpt><trkpt lat="43.121487800352654" lon="10.721443980097611"><ele>83.0</ele><time>2026-04-04T09:55:13Z</time></trkpt><trkpt lat="43.121363823806035" lon="10.721417128473508"><ele>85.0</ele><time>2026-04-04T09:55:14Z</time></trkpt><trkpt lat="43.121240146953454" lon="10.7213958623346"><ele>87.0</ele><time>2026-04-04T09:55:15Z</time></trkpt><trkpt lat="43.12111706754929" lon="10.721377397371484"><ele>89.0</ele><time>2026-04-04T09:55:16Z</time></trkpt><trkpt lat="43.120996582887514" lon="10.721353768584923"><ele>91.0</ele><time>2026-04-04T09:55:17Z</time></trkpt><trkpt lat="43.12088117702388" lon="10.721334963753655"><ele>91.0</ele><time>2026-04-04T09:55:18Z</time></trkpt><trkpt lat="43.120767463577586" lon="10.721316941845016"><ele>91.0</ele><time>2026-04-04T09:55:19Z</time></trkpt><trkpt lat="43.12065212800128" lon="10.721289653762426"><ele>91.0</ele><time>2026-04-04T09:55:20Z</time></trkpt><trkpt lat="43.12054719319171" lon="10.721261535702935"><ele>91.0</ele><time>2026-04-04T09:55:21Z</time></trkpt><trkpt lat="43.12044636004068" lon="10.721221386221762"><ele>91.0</ele><time>2026-04-04T09:55:22Z</time></trkpt><trkpt lat="43.120331116558056" lon="10.721169476746235"><ele>92.0</ele><time>2026-04-04T09:55:23Z</time></trkpt><trkpt lat="43.120225620702996" lon="10.721099840579223"><ele>93.0</ele><time>2026-04-04T09:55:24Z</time></trkpt><trkpt lat="43.12011951333286" lon="10.72101584745934"><ele>94.0</ele><time>2026-04-04T09:55:25Z</time></trkpt><trkpt lat="43.120013721266886" lon="10.720929046768026"><ele>95.0</ele><time>2026-04-04T09:55:26Z</time></trkpt><trkpt lat="43.11990597753152" lon="10.720835516144517"><ele>94.25</ele><time>2026-04-04T09:55:27Z</time></trkpt><trkpt lat="43.11980854096441" lon="10.720728448582152"><ele>93.5</ele><time>2026-04-04T09:55:28Z</time></trkpt><trkpt lat="43.1197043710837" lon="10.720643061920393"><ele>92.75</ele><time>2026-04-04T09:55:29Z</time></trkpt><trkpt lat="43.1196049712091" lon="10.720553430209621"><ele>92.0</ele><time>2026-04-04T09:55:30Z</time></trkpt><trkpt lat="43.11950123982916" lon="10.720464689728725"><ele>92.0</ele><time>2026-04-04T09:55:31Z</time></trkpt><trkpt lat="43.119401118894416" lon="10.720371534252576"><ele>92.0</ele><time>2026-04-04T09:55:32Z</time></trkpt><trkpt lat="43.11929573239771" lon="10.720278725176628"><ele>92.0</ele><time>2026-04-04T09:55:33Z</time></trkpt><trkpt lat="43.11919953860506" lon="10.720188694147629"><ele>92.0</ele><time>2026-04-04T09:55:34Z</time></trkpt><trkpt lat="43.11909423156444" lon="10.720099057783877"><ele>91.75</ele><time>2026-04-04T09:55:35Z</time></trkpt><trkpt lat="43.118992432352684" lon="10.720000230248942"><ele>91.5</ele><time>2026-04-04T09:55:36Z</time></trkpt><trkpt lat="43.118887514688595" lon="10.719898958996788"><ele>91.25</ele><time>2026-04-04T09:55:37Z</time></trkpt><trkpt lat="43.11879065502518" lon="10.719804282108928"><ele>91.0</ele><time>2026-04-04T09:55:37.999Z</time></trkpt><trkpt lat="43.118691490894406" lon="10.719715715161135"><ele>91.0</ele><time>2026-04-04T09:55:38.999Z</time></trkpt><trkpt lat="43.11859331086986" lon="10.719627781405247"><ele>91.0</ele><time>2026-04-04T09:55:39.999Z</time></trkpt><trkpt lat="43.11850073784222" lon="10.71954152583933"><ele>91.0</ele><time>2026-04-04T09:55:40.999Z</time></trkpt><trkpt lat="43.118406869393986" lon="10.719456071373157"><ele>91.0</ele><time>2026-04-04T09:55:41.999Z</time></trkpt><trkpt lat="43.11831237011852" lon="10.719370979881006"><ele>88.5</ele><time>2026-04-04T09:55:42.999Z</time></trkpt><trkpt lat="43.11820719921596" lon="10.719283308097138"><ele>86.0</ele><time>2026-04-04T09:55:43.999Z</time></trkpt><trkpt lat="43.118104983855304" lon="10.719202130877912"><ele>83.5</ele><time>2026-04-04T09:55:44.999Z</time></trkpt><trkpt lat="43.1179925815827" lon="10.719140267624013"><ele>81.0</ele><time>2026-04-04T09:55:45.999Z</time></trkpt><trkpt lat="43.11787139498713" lon="10.719109520767095"><ele>81.0</ele><time>2026-04-04T09:55:46.999Z</time></trkpt><trkpt lat="43.11774857889925" lon="10.719111247156404"><ele>81.0</ele><time>2026-04-04T09:55:47.999Z</time></trkpt><trkpt lat="43.11762470325202" lon="10.719140889725058"><ele>81.0</ele><time>2026-04-04T09:55:48.999Z</time></trkpt><trkpt lat="43.11750544605743" lon="10.719190778607665"><ele>81.0</ele><time>2026-04-04T09:55:49.999Z</time></trkpt><trkpt lat="43.117383026694625" lon="10.719252850788092"><ele>80.75</ele><time>2026-04-04T09:55:50.999Z</time></trkpt><trkpt lat="43.11725693052753" lon="10.71932091744098"><ele>80.5</ele><time>2026-04-04T09:55:51.999Z</time></trkpt><trkpt lat="43.11712955198823" lon="10.719391060627219"><ele>80.25</ele><time>2026-04-04T09:55:52.999Z</time></trkpt><trkpt lat="43.116992391548635" lon="10.719461344432974"><ele>80.0</ele><time>2026-04-04T09:55:53.999Z</time></trkpt><trkpt lat="43.116871814786094" lon="10.719525878254892"><ele>80.0</ele><time>2026-04-04T09:55:54.999Z</time></trkpt><trkpt lat="43.116750073851996" lon="10.719584714310379"><ele>80.0</ele><time>2026-04-04T09:55:55.999Z</time></trkpt><trkpt lat="43.11662955282441" lon="10.719645830299129"><ele>80.0</ele><time>2026-04-04T09:55:56.999Z</time></trkpt><trkpt lat="43.11651343581596" lon="10.71969580206207"><ele>80.0</ele><time>2026-04-04T09:55:57.999Z</time></trkpt><trkpt lat="43.11639879794085" lon="10.719747523136546"><ele>79.75</ele><time>2026-04-04T09:55:58.999Z</time></trkpt><trkpt lat="43.1162832898617" lon="10.719788730991787"><ele>79.5</ele><time>2026-04-04T09:55:59.999Z</time></trkpt><trkpt lat="43.11617195762516" lon="10.719830023775398"><ele>79.25</ele><time>2026-04-04T09:56:00.999Z</time></trkpt><trkpt lat="43.11605991437601" lon="10.719870748180567"><ele>79.0</ele><time>2026-04-04T09:56:01.999Z</time></trkpt><trkpt lat="43.115944405039066" lon="10.719913261868628"><ele>79.0</ele><time>2026-04-04T09:56:02.999Z</time></trkpt><trkpt lat="43.115828917259144" lon="10.719952572156917"><ele>79.0</ele><time>2026-04-04T09:56:03.999Z</time></trkpt><trkpt lat="43.11571304974357" lon="10.719993990193304"><ele>79.0</ele><time>2026-04-04T09:56:04.999Z</time></trkpt><trkpt lat="43.11560408928807" lon="10.720035949876882"><ele>79.0</ele><time>2026-04-04T09:56:05.999Z</time></trkpt><trkpt lat="43.115497695021034" lon="10.720070986131814"><ele>78.0</ele><time>2026-04-04T09:56:06.999Z</time></trkpt><trkpt lat="43.115386037476576" lon="10.720109934534372"><ele>77.0</ele><time>2026-04-04T09:56:07.999Z</time></trkpt><trkpt lat="43.11527094671012" lon="10.720147632644153"><ele>76.0</ele><time>2026-04-04T09:56:08.999Z</time></trkpt><trkpt lat="43.11514942276524" lon="10.720182188371847"><ele>75.0</ele><time>2026-04-04T09:56:09.999Z</time></trkpt><trkpt lat="43.11502113689075" lon="10.72021232347954"><ele>78.25</ele><time>2026-04-04T09:56:10.999Z</time></trkpt><trkpt lat="43.114893775289595" lon="10.720234627422522"><ele>81.5</ele><time>2026-04-04T09:56:11.999Z</time></trkpt><trkpt lat="43.11477463224469" lon="10.720253339443115"><ele>84.75</ele><time>2026-04-04T09:56:12.999Z</time></trkpt><trkpt lat="43.11464671282834" lon="10.72026663958925"><ele>88.0</ele><time>2026-04-04T09:56:13.999Z</time></trkpt><trkpt lat="43.1145247752799" lon="10.72027931672986"><ele>88.0</ele><time>2026-04-04T09:56:14.999Z</time></trkpt><trkpt lat="43.11439898386355" lon="10.72029174861731"><ele>88.0</ele><time>2026-04-04T09:56:15.999Z</time></trkpt><trkpt lat="43.114275690567794" lon="10.720304189367138"><ele>88.0</ele><time>2026-04-04T09:56:16.999Z</time></trkpt><trkpt lat="43.11414774266477" lon="10.720313003518536"><ele>88.0</ele><time>2026-04-04T09:56:17.999Z</time></trkpt><trkpt lat="43.11402229543151" lon="10.720332019247488"><ele>85.5</ele><time>2026-04-04T09:56:18.999Z</time></trkpt><trkpt lat="43.113901424536635" lon="10.720355443423701"><ele>83.0</ele><time>2026-04-04T09:56:19.999Z</time></trkpt><trkpt lat="43.11378638558032" lon="10.720387955043366"><ele>80.5</ele><time>2026-04-04T09:56:20.999Z</time></trkpt><trkpt lat="43.11367364053217" lon="10.72042693765552"><ele>78.0</ele><time>2026-04-04T09:56:21.999Z</time></trkpt><trkpt lat="43.11355899170247" lon="10.720470205822364"><ele>78.0</ele><time>2026-04-04T09:56:22.999Z</time></trkpt><trkpt lat="43.11344487283152" lon="10.720522818275544"><ele>78.0</ele><time>2026-04-04T09:56:23.999Z</time></trkpt><trkpt lat="43.11333398311465" lon="10.720586753790592"><ele>78.0</ele><time>2026-04-04T09:56:24.999Z</time></trkpt><trkpt lat="43.11322973985343" lon="10.720659403894786"><ele>78.0</ele><time>2026-04-04T09:56:25.999Z</time></trkpt><trkpt lat="43.11313530368274" lon="10.720743392638651"><ele>77.0</ele><time>2026-04-04T09:56:26.999Z</time></trkpt><trkpt lat="43.113046435709116" lon="10.720835274216096"><ele>76.0</ele><time>2026-04-04T09:56:27.999Z</time></trkpt><trkpt lat="43.11296136490406" lon="10.72094117207764"><ele>75.0</ele><time>2026-04-04T09:56:28.999Z</time></trkpt><trkpt lat="43.11288767946495" lon="10.721063381628651"><ele>74.0</ele><time>2026-04-04T09:56:29.999Z</time></trkpt><trkpt lat="43.11282338540755" lon="10.721193142651915"><ele>74.0</ele><time>2026-04-04T09:56:30.999Z</time></trkpt><trkpt lat="43.112767295924264" lon="10.721332858847285"><ele>74.0</ele><time>2026-04-04T09:56:31.999Z</time></trkpt><trkpt lat="43.11271047640443" lon="10.721476636069367"><ele>74.0</ele><time>2026-04-04T09:56:32.999Z</time></trkpt><trkpt lat="43.11267216592297" lon="10.721639869730714"><ele>74.0</ele><time>2026-04-04T09:56:33.999Z</time></trkpt><trkpt lat="43.112640735978125" lon="10.721814946011058"><ele>73.5</ele><time>2026-04-04T09:56:34.999Z</time></trkpt><trkpt lat="43.11262140074251" lon="10.721994474447364"><ele>73.0</ele><time>2026-04-04T09:56:35.999Z</time></trkpt><trkpt lat="43.1126198152699" lon="10.722173845484665"><ele>72.5</ele><time>2026-04-04T09:56:36.999Z</time></trkpt><trkpt lat="43.11260239216774" lon="10.722355332164726"><ele>72.0</ele><time>2026-04-04T09:56:37.999Z</time></trkpt><trkpt lat="43.11259643968599" lon="10.722508824790445"><ele>72.0</ele><time>2026-04-04T09:56:39.001Z</time></trkpt><trkpt lat="43.11260165328857" lon="10.722687180921795"><ele>72.0</ele><time>2026-04-04T09:56:40.001Z</time></trkpt><trkpt lat="43.11258844613435" lon="10.722850295656816"><ele>72.0</ele><time>2026-04-04T09:56:41Z</time></trkpt><trkpt lat="43.112563123256464" lon="10.722982431980377"><ele>72.0</ele><time>2026-04-04T09:56:42Z</time></trkpt><trkpt lat="43.11253722517655" lon="10.723137929512632"><ele>71.6</ele><time>2026-04-04T09:56:43Z</time></trkpt><trkpt lat="43.1124944277029" lon="10.723279627613598"><ele>71.2</ele><time>2026-04-04T09:56:44Z</time></trkpt><trkpt lat="43.112442161332375" lon="10.723410331008736"><ele>70.8</ele><time>2026-04-04T09:56:45Z</time></trkpt><trkpt lat="43.11237214380783" lon="10.723511860319952"><ele>70.4</ele><time>2026-04-04T09:56:46Z</time></trkpt><trkpt lat="43.11229126750206" lon="10.723608834344029"><ele>70.0</ele><time>2026-04-04T09:56:47Z</time></trkpt><trkpt lat="43.11220154685739" lon="10.723688735230123"><ele>69.4</ele><time>2026-04-04T09:56:48Z</time></trkpt><trkpt lat="43.11210728606171" lon="10.723747139419324"><ele>68.8</ele><time>2026-04-04T09:56:49Z</time></trkpt><trkpt lat="43.11200442230667" lon="10.723804854078665"><ele>68.2</ele><time>2026-04-04T09:56:50Z</time></trkpt><trkpt lat="43.11190867832639" lon="10.723870897743268"><ele>67.6</ele><time>2026-04-04T09:56:51Z</time></trkpt><trkpt lat="43.11180761083833" lon="10.723932873559617"><ele>67.0</ele><time>2026-04-04T09:56:52Z</time></trkpt><trkpt lat="43.11170294524129" lon="10.72398904843073"><ele>67.0</ele><time>2026-04-04T09:56:53Z</time></trkpt><trkpt lat="43.11160350697079" lon="10.724049694144242"><ele>67.0</ele><time>2026-04-04T09:56:54Z</time></trkpt><trkpt lat="43.11150558866486" lon="10.72409615478534"><ele>67.0</ele><time>2026-04-04T09:56:55Z</time></trkpt><trkpt lat="43.111410842565256" lon="10.724152419167813"><ele>67.0</ele><time>2026-04-04T09:56:56Z</time></trkpt><trkpt lat="43.1113007859623" lon="10.724203714736971"><ele>67.0</ele><time>2026-04-04T09:56:57Z</time></trkpt><trkpt lat="43.11120251063535" lon="10.724259003057487"><ele>67.6</ele><time>2026-04-04T09:56:58Z</time></trkpt><trkpt lat="43.111109141841325" lon="10.72433080687841"><ele>68.2</ele><time>2026-04-04T09:56:59Z</time></trkpt><trkpt lat="43.1110078714776" lon="10.724381614863391"><ele>68.8</ele><time>2026-04-04T09:57:00Z</time></trkpt><trkpt lat="43.11090816875345" lon="10.724446161078218"><ele>69.4</ele><time>2026-04-04T09:57:01Z</time></trkpt><trkpt lat="43.11080094237413" lon="10.724501670984571"><ele>70.0</ele><time>2026-04-04T09:57:02Z</time></trkpt><trkpt lat="43.11069559413518" lon="10.724573383214842"><ele>70.0</ele><time>2026-04-04T09:57:03Z</time></trkpt><trkpt lat="43.1105860429757" lon="10.724646893521218"><ele>70.0</ele><time>2026-04-04T09:57:04Z</time></trkpt><trkpt lat="43.110478135978866" lon="10.724724256692927"><ele>70.0</ele><time>2026-04-04T09:57:05Z</time></trkpt><trkpt lat="43.11037407878906" lon="10.7248119020968"><ele>70.0</ele><time>2026-04-04T09:57:06Z</time></trkpt><trkpt lat="43.110272881640164" lon="10.724908318605264"><ele>70.0</ele><time>2026-04-04T09:57:07Z</time></trkpt><trkpt lat="43.11017253423043" lon="10.724994900487847"><ele>70.0</ele><time>2026-04-04T09:57:08Z</time></trkpt><trkpt lat="43.11007216182219" lon="10.725106220357397"><ele>70.0</ele><time>2026-04-04T09:57:09Z</time></trkpt><trkpt lat="43.10998178135238" lon="10.725223147163344"><ele>70.0</ele><time>2026-04-04T09:57:10Z</time></trkpt><trkpt lat="43.10988776981771" lon="10.72533356346626"><ele>69.5</ele><time>2026-04-04T09:57:11Z</time></trkpt><trkpt lat="43.109799933410564" lon="10.72545531429172"><ele>69.0</ele><time>2026-04-04T09:57:12Z</time></trkpt><trkpt lat="43.10970763523464" lon="10.725576322800226"><ele>68.5</ele><time>2026-04-04T09:57:13Z</time></trkpt><trkpt lat="43.10962973639919" lon="10.725711747392037"><ele>68.0</ele><time>2026-04-04T09:57:14Z</time></trkpt><trkpt lat="43.109553565257876" lon="10.725837012549581"><ele>68.0</ele><time>2026-04-04T09:57:15Z</time></trkpt><trkpt lat="43.10947754854507" lon="10.72597273594821"><ele>68.0</ele><time>2026-04-04T09:57:16Z</time></trkpt><trkpt lat="43.10940850240052" lon="10.726101047323942"><ele>68.0</ele><time>2026-04-04T09:57:17Z</time></trkpt><trkpt lat="43.109344223196224" lon="10.726214963006237"><ele>68.0</ele><time>2026-04-04T09:57:18Z</time></trkpt><trkpt lat="43.10928623926935" lon="10.726317584297693"><ele>68.0</ele><time>2026-04-04T09:57:19Z</time></trkpt><trkpt lat="43.109227493310186" lon="10.726419039968949"><ele>68.16666666666667</ele><time>2026-04-04T09:57:20Z</time></trkpt><trkpt lat="43.10917026598943" lon="10.72652084408531"><ele>68.33333333333334</ele><time>2026-04-04T09:57:21Z</time></trkpt><trkpt lat="43.109113083763276" lon="10.726621904926317"><ele>68.5</ele><time>2026-04-04T09:57:22Z</time></trkpt><trkpt lat="43.10906253932492" lon="10.72671660532296"><ele>68.66666666666667</ele><time>2026-04-04T09:57:23Z</time></trkpt><trkpt lat="43.109013891599346" lon="10.726804566931868"><ele>68.83333333333333</ele><time>2026-04-04T09:57:24Z</time></trkpt><trkpt lat="43.10896187661697" lon="10.726885162092076"><ele>69.0</ele><time>2026-04-04T09:57:25Z</time></trkpt><trkpt lat="43.108917736490206" lon="10.726958936453205"><ele>70.16666666666667</ele><time>2026-04-04T09:57:26Z</time></trkpt><trkpt lat="43.108878047833024" lon="10.727033854911285"><ele>71.33333333333333</ele><time>2026-04-04T09:57:27Z</time></trkpt><trkpt lat="43.10884081034668" lon="10.727104713941346"><ele>72.5</ele><time>2026-04-04T09:57:28Z</time></trkpt><trkpt lat="43.10877450854819" lon="10.727210677251046"><ele>73.66666666666666</ele><time>2026-04-04T09:57:30Z</time></trkpt><trkpt lat="43.108733816255175" lon="10.72728888139714"><ele>74.83333333333333</ele><time>2026-04-04T09:57:37.999Z</time></trkpt><trkpt lat="43.108810582103665" lon="10.72742748325086"><ele>76.0</ele><time>2026-04-04T09:57:40.999Z</time></trkpt><trkpt lat="43.10893917591959" lon="10.727534446697055"><ele>76.0</ele><time>2026-04-04T09:57:42.999Z</time></trkpt><trkpt lat="43.10903027721808" lon="10.727594909975545"><ele>76.0</ele><time>2026-04-04T09:57:43.999Z</time></trkpt><trkpt lat="43.10912239064027" lon="10.72768760322818"><ele>76.0</ele><time>2026-04-04T09:57:44.999Z</time></trkpt><trkpt lat="43.109193366538" lon="10.727745888226"><ele>76.0</ele><time>2026-04-04T09:57:45.999Z</time></trkpt><trkpt lat="43.109282868700795" lon="10.727844620287334"><ele>76.0</ele><time>2026-04-04T09:57:46.999Z</time></trkpt><trkpt lat="43.109220787575275" lon="10.727801775284343"><ele>78.25</ele><time>2026-04-04T09:57:47.999Z</time></trkpt><trkpt lat="43.10927751114473" lon="10.727932014257041"><ele>80.5</ele><time>2026-04-04T09:57:49.999Z</time></trkpt><trkpt lat="43.10921014888788" lon="10.728225929525761"><ele>82.75</ele><time>2026-04-04T09:57:54.999Z</time></trkpt><trkpt lat="43.10923991542607" lon="10.72835674021763"><ele>85.0</ele><time>2026-04-04T09:57:55.999Z</time></trkpt><trkpt lat="43.10927877046901" lon="10.728528985063114"><ele>87.8</ele><time>2026-04-04T09:57:56.999Z</time></trkpt><trkpt lat="43.10933067867502" lon="10.728685195612881"><ele>90.6</ele><time>2026-04-04T09:57:57.999Z</time></trkpt><trkpt lat="43.10938586902323" lon="10.728828228937298"><ele>93.4</ele><time>2026-04-04T09:57:58.999Z</time></trkpt><trkpt lat="43.109445291075936" lon="10.728929337288635"><ele>96.2</ele><time>2026-04-04T09:57:59.999Z</time></trkpt><trkpt lat="43.109526068235795" lon="10.728967117273594"><ele>99.0</ele><time>2026-04-04T09:58:00.999Z</time></trkpt><trkpt lat="43.10961949043471" lon="10.728955376571005"><ele>99.0</ele><time>2026-04-04T09:58:01.999Z</time></trkpt><trkpt lat="43.10971937001807" lon="10.728932787647267"><ele>99.0</ele><time>2026-04-04T09:58:02.999Z</time></trkpt><trkpt lat="43.10981044499681" lon="10.728968448125322"><ele>99.0</ele><time>2026-04-04T09:58:03.999Z</time></trkpt><trkpt lat="43.10990772316863" lon="10.729047127254644"><ele>99.0</ele><time>2026-04-04T09:58:04.999Z</time></trkpt><trkpt lat="43.10998028387734" lon="10.729161671722432"><ele>99.0</ele><time>2026-04-04T09:58:05.999Z</time></trkpt><trkpt lat="43.110021233243714" lon="10.729275359477127"><ele>98.0</ele><time>2026-04-04T09:58:06.999Z</time></trkpt><trkpt lat="43.11002500996779" lon="10.729366244678312"><ele>97.0</ele><time>2026-04-04T09:58:07.999Z</time></trkpt><trkpt lat="43.10999068577873" lon="10.729451905168085"><ele>96.0</ele><time>2026-04-04T09:58:08.999Z</time></trkpt><trkpt lat="43.1099369864724" lon="10.729553294719391"><ele>95.0</ele><time>2026-04-04T09:58:09.999Z</time></trkpt><trkpt lat="43.109862396578514" lon="10.72964244784074"><ele>94.0</ele><time>2026-04-04T09:58:10.999Z</time></trkpt><trkpt lat="43.10978230182464" lon="10.729743063964904"><ele>93.0</ele><time>2026-04-04T09:58:11.999Z</time></trkpt><trkpt lat="43.10969079091328" lon="10.729836572895476"><ele>98.0</ele><time>2026-04-04T09:58:12.999Z</time></trkpt><trkpt lat="43.109589530355734" lon="10.72990287632657"><ele>103.0</ele><time>2026-04-04T09:58:13.999Z</time></trkpt><trkpt lat="43.10948308049976" lon="10.729932596732885"><ele>108.0</ele><time>2026-04-04T09:58:14.999Z</time></trkpt><trkpt lat="43.10937746926004" lon="10.7299426978143"><ele>113.0</ele><time>2026-04-04T09:58:15.999Z</time></trkpt><trkpt lat="43.10924874160623" lon="10.729924830794575"><ele>113.0</ele><time>2026-04-04T09:58:16.999Z</time></trkpt><trkpt lat="43.1091168792721" lon="10.72988188942373"><ele>113.00000000000001</ele><time>2026-04-04T09:58:17.999Z</time></trkpt><trkpt lat="43.10901755044298" lon="10.729849794550999"><ele>113.00000000000001</ele><time>2026-04-04T09:58:18.999Z</time></trkpt><trkpt lat="43.108945025629204" lon="10.729836499218326"><ele>113.0</ele><time>2026-04-04T09:58:19.999Z</time></trkpt><trkpt lat="43.10887963748925" lon="10.729853791920307"><ele>113.0</ele><time>2026-04-04T09:58:20.999Z</time></trkpt><trkpt lat="43.108816316893325" lon="10.729972033146646"><ele>113.60000000000001</ele><time>2026-04-04T09:58:22.999Z</time></trkpt><trkpt lat="43.10882441476938" lon="10.730060497549834"><ele>114.20000000000002</ele><time>2026-04-04T09:58:23.999Z</time></trkpt><trkpt lat="43.10885952176719" lon="10.730145874541684"><ele>114.8</ele><time>2026-04-04T09:58:24.999Z</time></trkpt><trkpt lat="43.108917554586746" lon="10.73024856020413"><ele>115.4</ele><time>2026-04-04T09:58:25.999Z</time></trkpt><trkpt lat="43.10897373314285" lon="10.730386698976986"><ele>116.0</ele><time>2026-04-04T09:58:26.999Z</time></trkpt><trkpt lat="43.10904545170572" lon="10.730564543332811"><ele>118.0</ele><time>2026-04-04T09:58:27.999Z</time></trkpt><trkpt lat="43.10910526982026" lon="10.730766598871044"><ele>120.0</ele><time>2026-04-04T09:58:28.999Z</time></trkpt><trkpt lat="43.10915903961255" lon="10.730921337832699"><ele>122.0</ele><time>2026-04-04T09:58:29.999Z</time></trkpt><trkpt lat="43.109183730829315" lon="10.731054169975003"><ele>124.0</ele><time>2026-04-04T09:58:30.999Z</time></trkpt><trkpt lat="43.10919452396422" lon="10.73121591231222"><ele>125.80000000000001</ele><time>2026-04-04T09:58:31.999Z</time></trkpt><trkpt lat="43.109221253938145" lon="10.731376787252575"><ele>127.60000000000001</ele><time>2026-04-04T09:58:32.999Z</time></trkpt><trkpt lat="43.109240186451345" lon="10.731492676645276"><ele>129.4</ele><time>2026-04-04T09:58:33.999Z</time></trkpt><trkpt lat="43.10923825469655" lon="10.731588608760612"><ele>131.20000000000002</ele><time>2026-04-04T09:58:34.999Z</time></trkpt><trkpt lat="43.109196859020585" lon="10.731699382847511"><ele>133.0</ele><time>2026-04-04T09:58:35.999Z</time></trkpt><trkpt lat="43.109158326413755" lon="10.731837487236103"><ele>134.75</ele><time>2026-04-04T09:58:36.999Z</time></trkpt><trkpt lat="43.109153297293446" lon="10.731984449344695"><ele>136.5</ele><time>2026-04-04T09:58:37.999Z</time></trkpt><trkpt lat="43.10914108713029" lon="10.73214835299972"><ele>138.25</ele><time>2026-04-04T09:58:38.999Z</time></trkpt><trkpt lat="43.10908912845199" lon="10.732338470962597"><ele>140.0</ele><time>2026-04-04T09:58:39.999Z</time></trkpt><trkpt lat="43.1090310691026" lon="10.732493379932732"><ele>140.0</ele><time>2026-04-04T09:58:40.998Z</time></trkpt><trkpt lat="43.10902389989305" lon="10.732615538247629"><ele>140.0</ele><time>2026-04-04T09:58:41.998Z</time></trkpt><trkpt lat="43.10904908558682" lon="10.732716008005745"><ele>140.0</ele><time>2026-04-04T09:58:42.998Z</time></trkpt><trkpt lat="43.109095858503316" lon="10.732834156197859"><ele>140.0</ele><time>2026-04-04T09:58:43.998Z</time></trkpt><trkpt lat="43.10916507469383" lon="10.73296190559963"><ele>140.0</ele><time>2026-04-04T09:58:45Z</time></trkpt><trkpt lat="43.10923558540865" lon="10.73310943304437"><ele>143.0</ele><time>2026-04-04T09:58:46Z</time></trkpt><trkpt lat="43.10930053529042" lon="10.7332495240584"><ele>146.0</ele><time>2026-04-04T09:58:47Z</time></trkpt><trkpt lat="43.10936283262023" lon="10.733385615161938"><ele>149.0</ele><time>2026-04-04T09:58:48Z</time></trkpt><trkpt lat="43.10941070035115" lon="10.733511192402812"><ele>152.0</ele><time>2026-04-04T09:58:49Z</time></trkpt><trkpt lat="43.10943033522522" lon="10.73362516807652"><ele>155.0</ele><time>2026-04-04T09:58:50Z</time></trkpt><trkpt lat="43.10942653695549" lon="10.733724314441213"><ele>157.2</ele><time>2026-04-04T09:58:51Z</time></trkpt><trkpt lat="43.10940247804229" lon="10.733835606718113"><ele>159.4</ele><time>2026-04-04T09:58:52Z</time></trkpt><trkpt lat="43.10935721558201" lon="10.733951290137687"><ele>161.60000000000002</ele><time>2026-04-04T09:58:53Z</time></trkpt><trkpt lat="43.10931768270944" lon="10.734082181815552"><ele>163.8</ele><time>2026-04-04T09:58:54Z</time></trkpt><trkpt lat="43.10927888152681" lon="10.734225415229087"><ele>166.0</ele><time>2026-04-04T09:58:55Z</time></trkpt><trkpt lat="43.109232043045274" lon="10.734372761300357"><ele>168.0</ele><time>2026-04-04T09:58:56Z</time></trkpt><trkpt lat="43.10918804768877" lon="10.734494353850495"><ele>170.0</ele><time>2026-04-04T09:58:57Z</time></trkpt><trkpt lat="43.10912178583873" lon="10.734611104841813"><ele>172.0</ele><time>2026-04-04T09:58:58Z</time></trkpt><trkpt lat="43.10906658768684" lon="10.73472804385147"><ele>174.0</ele><time>2026-04-04T09:58:59Z</time></trkpt><trkpt lat="43.109031563270015" lon="10.73483632878135"><ele>176.0</ele><time>2026-04-04T09:59:00Z</time></trkpt><trkpt lat="43.10902006959814" lon="10.73494958849501"><ele>176.0</ele><time>2026-04-04T09:59:01Z</time></trkpt><trkpt lat="43.10902603115119" lon="10.735080193438545"><ele>176.0</ele><time>2026-04-04T09:59:02Z</time></trkpt><trkpt lat="43.10903985182829" lon="10.73524045363541"><ele>176.0</ele><time>2026-04-04T09:59:03Z</time></trkpt><trkpt lat="43.10905146778533" lon="10.735389308596814"><ele>176.0</ele><time>2026-04-04T09:59:04Z</time></trkpt><trkpt lat="43.10904151400852" lon="10.735496123971647"><ele>176.0</ele><time>2026-04-04T09:59:05Z</time></trkpt><trkpt lat="43.10900294454608" lon="10.735602524125476"><ele>178.60000000000002</ele><time>2026-04-04T09:59:06Z</time></trkpt><trkpt lat="43.10893710495797" lon="10.735683101712738"><ele>181.2</ele><time>2026-04-04T09:59:07Z</time></trkpt><trkpt lat="43.10886091849781" lon="10.73577756479878"><ele>183.8</ele><time>2026-04-04T09:59:08Z</time></trkpt><trkpt lat="43.10878223467166" lon="10.735899151630575"><ele>186.39999999999998</ele><time>2026-04-04T09:59:09Z</time></trkpt><trkpt lat="43.10870474784699" lon="10.73602799955195"><ele>189.0</ele><time>2026-04-04T09:59:10Z</time></trkpt><trkpt lat="43.108629090633" lon="10.736129159431206"><ele>189.79999999999998</ele><time>2026-04-04T09:59:11Z</time></trkpt><trkpt lat="43.108546477813825" lon="10.73619161792793"><ele>190.6</ele><time>2026-04-04T09:59:12Z</time></trkpt><trkpt lat="43.10844842836024" lon="10.736226022951854"><ele>191.4</ele><time>2026-04-04T09:59:13Z</time></trkpt><trkpt lat="43.10833572055051" lon="10.736265342171645"><ele>192.2</ele><time>2026-04-04T09:59:14Z</time></trkpt><trkpt lat="43.10823682922426" lon="10.736298667820071"><ele>193.0</ele><time>2026-04-04T09:59:15Z</time></trkpt><trkpt lat="43.10815746646702" lon="10.736335022371359"><ele>193.0</ele><time>2026-04-04T09:59:16Z</time></trkpt><trkpt lat="43.108076943779324" lon="10.736433700551482"><ele>193.0</ele><time>2026-04-04T09:59:18Z</time></trkpt><trkpt lat="43.10806696422417" lon="10.736518879397034"><ele>193.0</ele><time>2026-04-04T09:59:19Z</time></trkpt><trkpt lat="43.10806720043507" lon="10.736623414440633"><ele>193.0</ele><time>2026-04-04T09:59:20Z</time></trkpt><trkpt lat="43.10806020564224" lon="10.736762464395342"><ele>193.0</ele><time>2026-04-04T09:59:21Z</time></trkpt><trkpt lat="43.108037880401" lon="10.736939064219428"><ele>194.75</ele><time>2026-04-04T09:59:22Z</time></trkpt><trkpt lat="43.108010894994926" lon="10.737135797786815"><ele>196.5</ele><time>2026-04-04T09:59:23Z</time></trkpt><trkpt lat="43.10799159818384" lon="10.737313827268334"><ele>198.25</ele><time>2026-04-04T09:59:24Z</time></trkpt><trkpt lat="43.107985057943694" lon="10.737471472495354"><ele>200.0</ele><time>2026-04-04T09:59:25Z</time></trkpt><trkpt lat="43.107945817214926" lon="10.737615378966083"><ele>200.8</ele><time>2026-04-04T09:59:26Z</time></trkpt><trkpt lat="43.10789489995131" lon="10.73774112088387"><ele>201.6</ele><time>2026-04-04T09:59:27Z</time></trkpt><trkpt lat="43.1078434656004" lon="10.737868825547665"><ele>202.39999999999998</ele><time>2026-04-04T09:59:28Z</time></trkpt><trkpt lat="43.107794063430525" lon="10.738002641924126"><ele>203.2</ele><time>2026-04-04T09:59:29Z</time></trkpt><trkpt lat="43.10773717369694" lon="10.738158325278437"><ele>204.0</ele><time>2026-04-04T09:59:30Z</time></trkpt><trkpt lat="43.10767152358265" lon="10.738333035507452"><ele>204.0</ele><time>2026-04-04T09:59:31Z</time></trkpt><trkpt lat="43.10762312465645" lon="10.73850897998057"><ele>204.0</ele><time>2026-04-04T09:59:32Z</time></trkpt><trkpt lat="43.107597114066074" lon="10.738684381082804"><ele>204.0</ele><time>2026-04-04T09:59:33Z</time></trkpt><trkpt lat="43.107584937322216" lon="10.738891674129103"><ele>204.0</ele><time>2026-04-04T09:59:34Z</time></trkpt><trkpt lat="43.107573973089856" lon="10.739142059325248"><ele>205.0</ele><time>2026-04-04T09:59:35Z</time></trkpt><trkpt lat="43.107562393562056" lon="10.739394302208662"><ele>206.0</ele><time>2026-04-04T09:59:36Z</time></trkpt><trkpt lat="43.1075338251046" lon="10.739625052646373"><ele>207.0</ele><time>2026-04-04T09:59:37Z</time></trkpt><trkpt lat="43.10750423324141" lon="10.739841281342509"><ele>207.0</ele><time>2026-04-04T09:59:37.999Z</time></trkpt><trkpt lat="43.10749603563397" lon="10.74002133026822"><ele>207.0</ele><time>2026-04-04T09:59:38.999Z</time></trkpt><trkpt lat="43.10748357150049" lon="10.740189781475324"><ele>207.0</ele><time>2026-04-04T09:59:39.999Z</time></trkpt><trkpt lat="43.10744945956171" lon="10.740352099598942"><ele>207.0</ele><time>2026-04-04T09:59:40.999Z</time></trkpt><trkpt lat="43.10740134401376" lon="10.740527904427653"><ele>207.25</ele><time>2026-04-04T09:59:41.999Z</time></trkpt><trkpt lat="43.1073458360787" lon="10.740697656645619"><ele>207.5</ele><time>2026-04-04T09:59:42.999Z</time></trkpt><trkpt lat="43.10727662488998" lon="10.740823605244929"><ele>207.75</ele><time>2026-04-04T09:59:43.999Z</time></trkpt><trkpt lat="43.10720223784934" lon="10.740949903925282"><ele>208.0</ele><time>2026-04-04T09:59:44.999Z</time></trkpt><trkpt lat="43.10710409669494" lon="10.741100079378834"><ele>209.33333333333331</ele><time>2026-04-04T09:59:45.999Z</time></trkpt><trkpt lat="43.10698591404472" lon="10.741243979026418"><ele>210.66666666666669</ele><time>2026-04-04T09:59:46.999Z</time></trkpt><trkpt lat="43.106876056730066" lon="10.741404119591419"><ele>212.0</ele><time>2026-04-04T09:59:47.999Z</time></trkpt><trkpt lat="43.1067756190449" lon="10.741550920864606"><ele>212.0</ele><time>2026-04-04T09:59:48.999Z</time></trkpt><trkpt lat="43.10668907140921" lon="10.741702543152936"><ele>212.0</ele><time>2026-04-04T09:59:49.999Z</time></trkpt><trkpt lat="43.10662440912575" lon="10.741854253675411"><ele>212.0</ele><time>2026-04-04T09:59:50.999Z</time></trkpt><trkpt lat="43.10658395778734" lon="10.742002777522435"><ele>212.0</ele><time>2026-04-04T09:59:51.999Z</time></trkpt><trkpt lat="43.10655966728499" lon="10.74216131251708"><ele>212.25</ele><time>2026-04-04T09:59:52.999Z</time></trkpt><trkpt lat="43.106549238593395" lon="10.74235796898715"><ele>212.5</ele><time>2026-04-04T09:59:53.999Z</time></trkpt><trkpt lat="43.10653587372637" lon="10.742543460372069"><ele>212.75</ele><time>2026-04-04T09:59:54.999Z</time></trkpt><trkpt lat="43.1065180626916" lon="10.742694316551841"><ele>213.0</ele><time>2026-04-04T09:59:55.999Z</time></trkpt><trkpt lat="43.10647604107349" lon="10.74284401919295"><ele>213.0</ele><time>2026-04-04T09:59:56.999Z</time></trkpt><trkpt lat="43.1064104288978" lon="10.742987858932903"><ele>213.0</ele><time>2026-04-04T09:59:57.999Z</time></trkpt><trkpt lat="43.10634223335769" lon="10.743149771924895"><ele>213.0</ele><time>2026-04-04T09:59:58.999Z</time></trkpt><trkpt lat="43.10626854316185" lon="10.743313322394803"><ele>213.0</ele><time>2026-04-04T09:59:59.999Z</time></trkpt><trkpt lat="43.106215458024025" lon="10.743468245003708"><ele>213.5</ele><time>2026-04-04T10:00:00.999Z</time></trkpt><trkpt lat="43.10618353421715" lon="10.743654496810596"><ele>214.0</ele><time>2026-04-04T10:00:01.999Z</time></trkpt><trkpt lat="43.10615864332196" lon="10.743834976382296"><ele>214.5</ele><time>2026-04-04T10:00:02.999Z</time></trkpt><trkpt lat="43.1061435941416" lon="10.744010132187155"><ele>215.0</ele><time>2026-04-04T10:00:03.999Z</time></trkpt><trkpt lat="43.10610321429044" lon="10.744203630691832"><ele>215.33333333333334</ele><time>2026-04-04T10:00:04.999Z</time></trkpt><trkpt lat="43.1060388480972" lon="10.744381413297239"><ele>215.66666666666669</ele><time>2026-04-04T10:00:05.999Z</time></trkpt><trkpt lat="43.10596603516941" lon="10.744565641604215"><ele>216.0</ele><time>2026-04-04T10:00:06.999Z</time></trkpt><trkpt lat="43.105889798135564" lon="10.74478348726732"><ele>216.0</ele><time>2026-04-04T10:00:07.999Z</time></trkpt><trkpt lat="43.10582445637738" lon="10.744994356124737"><ele>216.0</ele><time>2026-04-04T10:00:08.999Z</time></trkpt><trkpt lat="43.10577243476225" lon="10.745194490260063"><ele>216.0</ele><time>2026-04-04T10:00:09.999Z</time></trkpt><trkpt lat="43.105711861270436" lon="10.745380064959974"><ele>216.0</ele><time>2026-04-04T10:00:10.999Z</time></trkpt><trkpt lat="43.10564896248301" lon="10.745567784798093"><ele>216.0</ele><time>2026-04-04T10:00:11.999Z</time></trkpt><trkpt lat="43.105600655250775" lon="10.745745444118109"><ele>216.0</ele><time>2026-04-04T10:00:12.999Z</time></trkpt><trkpt lat="43.10557727722522" lon="10.745929369936842"><ele>216.0</ele><time>2026-04-04T10:00:13.999Z</time></trkpt><trkpt lat="43.10555852853319" lon="10.74609548821346"><ele>217.25</ele><time>2026-04-04T10:00:14.999Z</time></trkpt><trkpt lat="43.10552996793995" lon="10.746269895684685"><ele>218.5</ele><time>2026-04-04T10:00:15.999Z</time></trkpt><trkpt lat="43.10547646615422" lon="10.746447470887578"><ele>219.75</ele><time>2026-04-04T10:00:16.999Z</time></trkpt><trkpt lat="43.105446783011494" lon="10.746637961798951"><ele>221.0</ele><time>2026-04-04T10:00:17.999Z</time></trkpt><trkpt lat="43.10541629773764" lon="10.74682487775243"><ele>222.5</ele><time>2026-04-04T10:00:18.999Z</time></trkpt><trkpt lat="43.10538536974862" lon="10.747030046596729"><ele>224.0</ele><time>2026-04-04T10:00:19.999Z</time></trkpt><trkpt lat="43.10536775393892" lon="10.747221659191379"><ele>225.5</ele><time>2026-04-04T10:00:20.999Z</time></trkpt><trkpt lat="43.10534554271135" lon="10.747409939326857"><ele>227.0</ele><time>2026-04-04T10:00:21.999Z</time></trkpt><trkpt lat="43.10530600615691" lon="10.747571494609012"><ele>228.0</ele><time>2026-04-04T10:00:22.999Z</time></trkpt><trkpt lat="43.10525512198885" lon="10.747721904355457"><ele>229.0</ele><time>2026-04-04T10:00:23.999Z</time></trkpt><trkpt lat="43.10517987485829" lon="10.747890645808075"><ele>230.0</ele><time>2026-04-04T10:00:24.999Z</time></trkpt><trkpt lat="43.10510477644503" lon="10.748054240296376"><ele>231.0</ele><time>2026-04-04T10:00:25.999Z</time></trkpt><trkpt lat="43.10503810937594" lon="10.748202168019743"><ele>231.0</ele><time>2026-04-04T10:00:26.999Z</time></trkpt><trkpt lat="43.10497467147905" lon="10.748360334565547"><ele>231.0</ele><time>2026-04-04T10:00:27.999Z</time></trkpt><trkpt lat="43.104935381962456" lon="10.748518790600416"><ele>231.0</ele><time>2026-04-04T10:00:28.999Z</time></trkpt><trkpt lat="43.1049119666994" lon="10.748702012993428"><ele>231.0</ele><time>2026-04-04T10:00:29.999Z</time></trkpt><trkpt lat="43.104910891082305" lon="10.748878334469246"><ele>232.75</ele><time>2026-04-04T10:00:30.999Z</time></trkpt><trkpt lat="43.104907802040074" lon="10.749016813867007"><ele>234.5</ele><time>2026-04-04T10:00:31.999Z</time></trkpt><trkpt lat="43.104875440857256" lon="10.749178102201375"><ele>236.25</ele><time>2026-04-04T10:00:32.999Z</time></trkpt><trkpt lat="43.10482222630192" lon="10.749358851850662"><ele>238.0</ele><time>2026-04-04T10:00:33.999Z</time></trkpt><trkpt lat="43.10476314320928" lon="10.749539929739328"><ele>240.75</ele><time>2026-04-04T10:00:34.999Z</time></trkpt><trkpt lat="43.1047086665179" lon="10.749695630296845"><ele>243.5</ele><time>2026-04-04T10:00:35.999Z</time></trkpt><trkpt lat="43.104657846142395" lon="10.749822981434697"><ele>246.25</ele><time>2026-04-04T10:00:36.999Z</time></trkpt><trkpt lat="43.104589549046054" lon="10.749924332468922"><ele>249.0</ele><time>2026-04-04T10:00:37.998Z</time></trkpt><trkpt lat="43.10449254665205" lon="10.750017214752159"><ele>249.0</ele><time>2026-04-04T10:00:38.998Z</time></trkpt><trkpt lat="43.10438621315479" lon="10.750123239851877"><ele>249.0</ele><time>2026-04-04T10:00:39.998Z</time></trkpt><trkpt lat="43.104307774835995" lon="10.750233388865022"><ele>249.0</ele><time>2026-04-04T10:00:40.998Z</time></trkpt><trkpt lat="43.104227566706065" lon="10.750359566854218"><ele>249.0</ele><time>2026-04-04T10:00:41.998Z</time></trkpt><trkpt lat="43.10417114909164" lon="10.75048145860335"><ele>250.79999999999998</ele><time>2026-04-04T10:00:42.998Z</time></trkpt><trkpt lat="43.104146951460606" lon="10.750599476941234"><ele>252.59999999999997</ele><time>2026-04-04T10:00:43.998Z</time></trkpt><trkpt lat="43.104167298656556" lon="10.750682456355891"><ele>254.4</ele><time>2026-04-04T10:00:44.998Z</time></trkpt><trkpt lat="43.10422218600657" lon="10.750763418300899"><ele>256.2</ele><time>2026-04-04T10:00:45.998Z</time></trkpt><trkpt lat="43.104299564748324" lon="10.750864628753497"><ele>258.0</ele><time>2026-04-04T10:00:46.998Z</time></trkpt><trkpt lat="43.10437318596358" lon="10.750977489711659"><ele>259.8</ele><time>2026-04-04T10:00:47.998Z</time></trkpt><trkpt lat="43.1043948710402" lon="10.751076837997676"><ele>261.6</ele><time>2026-04-04T10:00:48.998Z</time></trkpt><trkpt lat="43.10437570620798" lon="10.751200697354916"><ele>263.4</ele><time>2026-04-04T10:00:49.998Z</time></trkpt><trkpt lat="43.104342736233725" lon="10.751362970997956"><ele>265.2</ele><time>2026-04-04T10:00:51Z</time></trkpt><trkpt lat="43.104298273011224" lon="10.751532541336413"><ele>267.0</ele><time>2026-04-04T10:00:52Z</time></trkpt><trkpt lat="43.104274641796785" lon="10.751692496485678"><ele>268.8</ele><time>2026-04-04T10:00:53Z</time></trkpt><trkpt lat="43.10425372416908" lon="10.751886917691326"><ele>270.6</ele><time>2026-04-04T10:00:54Z</time></trkpt><trkpt lat="43.104251659972256" lon="10.751987709927834"><ele>272.40000000000003</ele><time>2026-04-04T10:00:55Z</time></trkpt><trkpt lat="43.104232041147654" lon="10.752100775465482"><ele>274.2</ele><time>2026-04-04T10:00:56Z</time></trkpt><trkpt lat="43.10417583389879" lon="10.752217362295601"><ele>276.0</ele><time>2026-04-04T10:00:57Z</time></trkpt><trkpt lat="43.10410081473866" lon="10.752303182409388"><ele>275.8333333333333</ele><time>2026-04-04T10:00:58Z</time></trkpt><trkpt lat="43.10400512235513" lon="10.752352975086485"><ele>275.6666666666667</ele><time>2026-04-04T10:00:59Z</time></trkpt><trkpt lat="43.10390830108773" lon="10.752379477636618"><ele>275.5</ele><time>2026-04-04T10:01:00Z</time></trkpt><trkpt lat="43.10382525687044" lon="10.752390736889785"><ele>275.33333333333337</ele><time>2026-04-04T10:01:01Z</time></trkpt><trkpt lat="43.103761847661694" lon="10.75242845871241"><ele>275.1666666666667</ele><time>2026-04-04T10:01:02Z</time></trkpt><trkpt lat="43.1037191509748" lon="10.752502809674445"><ele>275.0</ele><time>2026-04-04T10:01:03Z</time></trkpt><trkpt lat="43.103695220882976" lon="10.752603079220311"><ele>275.6</ele><time>2026-04-04T10:01:04Z</time></trkpt><trkpt lat="43.103652736995436" lon="10.752717682403873"><ele>276.2</ele><time>2026-04-04T10:01:05Z</time></trkpt><trkpt lat="43.10362465357249" lon="10.752841509180076"><ele>276.8</ele><time>2026-04-04T10:01:06Z</time></trkpt><trkpt lat="43.1036031987685" lon="10.752950821771387"><ele>277.4</ele><time>2026-04-04T10:01:07Z</time></trkpt><trkpt lat="43.10361428902824" lon="10.753053920397079"><ele>278.0</ele><time>2026-04-04T10:01:08Z</time></trkpt><trkpt lat="43.103637117217104" lon="10.753197065102796"><ele>278.0</ele><time>2026-04-04T10:01:09Z</time></trkpt><trkpt lat="43.10367103921361" lon="10.753348969068606"><ele>278.0</ele><time>2026-04-04T10:01:10Z</time></trkpt><trkpt lat="43.10371341339702" lon="10.75352397893776"><ele>278.0</ele><time>2026-04-04T10:01:11Z</time></trkpt><trkpt lat="43.103764089567754" lon="10.753704228121004"><ele>278.0</ele><time>2026-04-04T10:01:12Z</time></trkpt><trkpt lat="43.10381971302588" lon="10.753875534838214"><ele>276.5</ele><time>2026-04-04T10:01:13Z</time></trkpt><trkpt lat="43.10388690818963" lon="10.754060673348098"><ele>275.0</ele><time>2026-04-04T10:01:14Z</time></trkpt><trkpt lat="43.103921072449666" lon="10.754187179552675"><ele>273.5</ele><time>2026-04-04T10:01:15Z</time></trkpt><trkpt lat="43.103980841786274" lon="10.754304326815268"><ele>272.0</ele><time>2026-04-04T10:01:16Z</time></trkpt><trkpt lat="43.10407011568988" lon="10.754374843158962"><ele>274.25</ele><time>2026-04-04T10:01:17Z</time></trkpt><trkpt lat="43.10417483992499" lon="10.75449694977555"><ele>276.5</ele><time>2026-04-04T10:01:18Z</time></trkpt><trkpt lat="43.104254580760724" lon="10.75459211238423"><ele>278.75</ele><time>2026-04-04T10:01:19Z</time></trkpt><trkpt lat="43.10432824019613" lon="10.75469905013985"><ele>281.0</ele><time>2026-04-04T10:01:20Z</time></trkpt><trkpt lat="43.10438696404017" lon="10.754827965717434"><ele>281.0</ele><time>2026-04-04T10:01:21Z</time></trkpt><trkpt lat="43.10444030517514" lon="10.755005883256601"><ele>281.0</ele><time>2026-04-04T10:01:22Z</time></trkpt><trkpt lat="43.10451630747423" lon="10.755152337810975"><ele>281.0</ele><time>2026-04-04T10:01:23Z</time></trkpt><trkpt lat="43.104575355777676" lon="10.755307116907328"><ele>281.0</ele><time>2026-04-04T10:01:24Z</time></trkpt><trkpt lat="43.104611295717135" lon="10.755459791316786"><ele>279.8</ele><time>2026-04-04T10:01:25Z</time></trkpt><trkpt lat="43.104625337667926" lon="10.755615206483068"><ele>278.6</ele><time>2026-04-04T10:01:26Z</time></trkpt><trkpt lat="43.10463061339064" lon="10.755764349082563"><ele>277.4</ele><time>2026-04-04T10:01:27Z</time></trkpt><trkpt lat="43.10463052789434" lon="10.755918898798125"><ele>276.2</ele><time>2026-04-04T10:01:28Z</time></trkpt><trkpt lat="43.10461107836022" lon="10.756071750897808"><ele>275.0</ele><time>2026-04-04T10:01:29Z</time></trkpt><trkpt lat="43.10459914846059" lon="10.756243462262152"><ele>274.75</ele><time>2026-04-04T10:01:30Z</time></trkpt><trkpt lat="43.10457126563846" lon="10.756442352560912"><ele>274.5</ele><time>2026-04-04T10:01:31Z</time></trkpt><trkpt lat="43.10455280247971" lon="10.75662275455985"><ele>274.25</ele><time>2026-04-04T10:01:32Z</time></trkpt><trkpt lat="43.104542415083905" lon="10.75678089232923"><ele>274.0</ele><time>2026-04-04T10:01:33Z</time></trkpt><trkpt lat="43.10453456447111" lon="10.75693701614522"><ele>274.0</ele><time>2026-04-04T10:01:34Z</time></trkpt><trkpt lat="43.10454984498421" lon="10.757069310797327"><ele>274.0</ele><time>2026-04-04T10:01:35Z</time></trkpt><trkpt lat="43.1045877467508" lon="10.75718660096729"><ele>274.0</ele><time>2026-04-04T10:01:36Z</time></trkpt><trkpt lat="43.104645277240344" lon="10.757305818858708"><ele>274.0</ele><time>2026-04-04T10:01:37Z</time></trkpt><trkpt lat="43.10472406555435" lon="10.757413031842125"><ele>274.0</ele><time>2026-04-04T10:01:37.999Z</time></trkpt><trkpt lat="43.10479910975235" lon="10.757542957247205"><ele>274.0</ele><time>2026-04-04T10:01:38.999Z</time></trkpt><trkpt lat="43.10486579209461" lon="10.757676608675515"><ele>274.0</ele><time>2026-04-04T10:01:39.999Z</time></trkpt><trkpt lat="43.104928946140305" lon="10.757786779135282"><ele>274.0</ele><time>2026-04-04T10:01:40.999Z</time></trkpt><trkpt lat="43.105009635488074" lon="10.757890057600358"><ele>274.0</ele><time>2026-04-04T10:01:41.999Z</time></trkpt><trkpt lat="43.10510755867198" lon="10.758005471692618"><ele>275.0</ele><time>2026-04-04T10:01:42.999Z</time></trkpt><trkpt lat="43.105209029759266" lon="10.758147265665283"><ele>276.0</ele><time>2026-04-04T10:01:43.999Z</time></trkpt><trkpt lat="43.10530272955192" lon="10.758285340269296"><ele>277.0</ele><time>2026-04-04T10:01:44.999Z</time></trkpt><trkpt lat="43.10538987724747" lon="10.758402166050438"><ele>278.0</ele><time>2026-04-04T10:01:45.999Z</time></trkpt><trkpt lat="43.10546409811063" lon="10.758510252871101"><ele>277.8</ele><time>2026-04-04T10:01:46.999Z</time></trkpt><trkpt lat="43.105538282260966" lon="10.758602352557991"><ele>277.6</ele><time>2026-04-04T10:01:47.999Z</time></trkpt><trkpt lat="43.10558292957085" lon="10.758691903958962"><ele>277.4</ele><time>2026-04-04T10:01:48.999Z</time></trkpt><trkpt lat="43.10566301972577" lon="10.758805979083839"><ele>277.2</ele><time>2026-04-04T10:01:50.999Z</time></trkpt><trkpt lat="43.10572999281504" lon="10.758888331372088"><ele>277.0</ele><time>2026-04-04T10:01:52.999Z</time></trkpt><trkpt lat="43.10576909041449" lon="10.758990775854752"><ele>277.0</ele><time>2026-04-04T10:01:54.999Z</time></trkpt><trkpt lat="43.10584165182797" lon="10.758998915335077"><ele>277.0</ele><time>2026-04-04T10:01:56.999Z</time></trkpt><trkpt lat="43.10594248328828" lon="10.758954643003605"><ele>277.0</ele><time>2026-04-04T10:01:58.999Z</time></trkpt><trkpt lat="43.106006249338904" lon="10.758923644791244"><ele>277.0</ele><time>2026-04-04T10:01:59.999Z</time></trkpt><trkpt lat="43.10607399826529" lon="10.758915409708681"><ele>277.0</ele><time>2026-04-04T10:02:00.999Z</time></trkpt><trkpt lat="43.10613704564244" lon="10.758922257696799"><ele>277.0</ele><time>2026-04-04T10:02:01.999Z</time></trkpt><trkpt lat="43.10620488962071" lon="10.758955375915056"><ele>277.0</ele><time>2026-04-04T10:02:02.999Z</time></trkpt><trkpt lat="43.106290968767524" lon="10.758975871084377"><ele>277.0</ele><time>2026-04-04T10:02:03.999Z</time></trkpt><trkpt lat="43.10637045611573" lon="10.758961650755777"><ele>277.0</ele><time>2026-04-04T10:02:04.999Z</time></trkpt><trkpt lat="43.1064603274165" lon="10.758928134859824"><ele>277.0</ele><time>2026-04-04T10:02:05.999Z</time></trkpt><trkpt lat="43.10656928221307" lon="10.758910986704619"><ele>277.0</ele><time>2026-04-04T10:02:06.999Z</time></trkpt><trkpt lat="43.10665801116984" lon="10.75890602434011"><ele>277.8333333333333</ele><time>2026-04-04T10:02:07.999Z</time></trkpt><trkpt lat="43.10672404677788" lon="10.75894123757891"><ele>278.66666666666663</ele><time>2026-04-04T10:02:08.999Z</time></trkpt><trkpt lat="43.10680572695697" lon="10.758983531689534"><ele>279.5</ele><time>2026-04-04T10:02:09.999Z</time></trkpt><trkpt lat="43.106873800693556" lon="10.75903493890548"><ele>280.3333333333333</ele><time>2026-04-04T10:02:10.999Z</time></trkpt><trkpt lat="43.10694692160141" lon="10.759074132811726"><ele>281.1666666666667</ele><time>2026-04-04T10:02:11.999Z</time></trkpt><trkpt lat="43.10700692058484" lon="10.759109746677028"><ele>282.0</ele><time>2026-04-04T10:02:12.999Z</time></trkpt><trkpt lat="43.107057313517004" lon="10.759191562204093"><ele>282.0</ele><time>2026-04-04T10:02:13.999Z</time></trkpt><trkpt lat="43.10706875530857" lon="10.759301115635234"><ele>282.0</ele><time>2026-04-04T10:02:14.999Z</time></trkpt><trkpt lat="43.10706308904053" lon="10.759449218990259"><ele>282.0</ele><time>2026-04-04T10:02:15.999Z</time></trkpt><trkpt lat="43.10706048507664" lon="10.759575076142"><ele>282.0</ele><time>2026-04-04T10:02:16.999Z</time></trkpt><trkpt lat="43.107118761514485" lon="10.759681513944518"><ele>282.0</ele><time>2026-04-04T10:02:17.999Z</time></trkpt><trkpt lat="43.10722077606912" lon="10.759799927375155"><ele>282.0</ele><time>2026-04-04T10:02:18.999Z</time></trkpt><trkpt lat="43.10732874759348" lon="10.759869300456359"><ele>282.0</ele><time>2026-04-04T10:02:19.999Z</time></trkpt><trkpt lat="43.107440255861576" lon="10.759920271853852"><ele>282.0</ele><time>2026-04-04T10:02:20.999Z</time></trkpt><trkpt lat="43.107565411195054" lon="10.759975317468722"><ele>282.0</ele><time>2026-04-04T10:02:21.999Z</time></trkpt><trkpt lat="43.10767664410331" lon="10.760047856232157"><ele>282.0</ele><time>2026-04-04T10:02:22.999Z</time></trkpt><trkpt lat="43.10775522653153" lon="10.760105255644977"><ele>282.0</ele><time>2026-04-04T10:02:23.999Z</time></trkpt><trkpt lat="43.107819990885226" lon="10.760175158745456"><ele>282.0</ele><time>2026-04-04T10:02:24.999Z</time></trkpt><trkpt lat="43.10785535150461" lon="10.760261965891374"><ele>282.0</ele><time>2026-04-04T10:02:26.999Z</time></trkpt><trkpt lat="43.10791510012158" lon="10.760324179089242"><ele>282.0</ele><time>2026-04-04T10:14:00.999Z</time></trkpt><trkpt lat="43.107951457596556" lon="10.760397788716126"><ele>282.0</ele><time>2026-04-04T10:14:01.999Z</time></trkpt><trkpt lat="43.10799322854812" lon="10.760479228926238"><ele>281.6666666666667</ele><time>2026-04-04T10:14:02.999Z</time></trkpt><trkpt lat="43.10805255187089" lon="10.76056176891231"><ele>281.3333333333333</ele><time>2026-04-04T10:14:03.999Z</time></trkpt><trkpt lat="43.10810116848648" lon="10.760620595503726"><ele>281.0</ele><time>2026-04-04T10:14:04.999Z</time></trkpt><trkpt lat="43.10816175339949" lon="10.760718903127021"><ele>280.66666666666663</ele><time>2026-04-04T10:14:05.999Z</time></trkpt><trkpt lat="43.108208548058535" lon="10.76083396252966"><ele>280.3333333333333</ele><time>2026-04-04T10:14:06.999Z</time></trkpt><trkpt lat="43.10824120499768" lon="10.76093878844768"><ele>280.0</ele><time>2026-04-04T10:14:07.999Z</time></trkpt><trkpt lat="43.108294711831256" lon="10.76105213335927"><ele>283.2</ele><time>2026-04-04T10:14:09.999Z</time></trkpt><trkpt lat="43.108352354620926" lon="10.761197679295032"><ele>286.4</ele><time>2026-04-04T10:14:11.999Z</time></trkpt><trkpt lat="43.10837614394656" lon="10.761309115567988"><ele>289.6</ele><time>2026-04-04T10:14:12.999Z</time></trkpt><trkpt lat="43.10840349593112" lon="10.7614457108912"><ele>292.8</ele><time>2026-04-04T10:14:13.999Z</time></trkpt><trkpt lat="43.10841172871345" lon="10.761533369333232"><ele>296.0</ele><time>2026-04-04T10:14:14.999Z</time></trkpt><trkpt lat="43.10846963977497" lon="10.761652440469573"><ele>296.0</ele><time>2026-04-04T10:14:16.999Z</time></trkpt><trkpt lat="43.10854164394759" lon="10.761760285723021"><ele>296.0</ele><time>2026-04-04T10:14:18.999Z</time></trkpt><trkpt lat="43.10858406170124" lon="10.761837102438951"><ele>296.0</ele><time>2026-04-04T10:14:19.999Z</time></trkpt><trkpt lat="43.108658519497276" lon="10.761941971164832"><ele>296.0</ele><time>2026-04-04T10:14:21.999Z</time></trkpt><trkpt lat="43.108723872708794" lon="10.761987582728858"><ele>296.0</ele><time>2026-04-04T10:14:22.999Z</time></trkpt><trkpt lat="43.10878791570031" lon="10.762011547098322"><ele>296.0</ele><time>2026-04-04T10:14:23.999Z</time></trkpt><trkpt lat="43.10893197170271" lon="10.761994280749969"><ele>296.8</ele><time>2026-04-04T10:14:25.999Z</time></trkpt><trkpt lat="43.10900878617003" lon="10.761984143657129"><ele>297.6</ele><time>2026-04-04T10:14:26.999Z</time></trkpt><trkpt lat="43.109085823711" lon="10.76198645869935"><ele>298.4</ele><time>2026-04-04T10:14:27.999Z</time></trkpt><trkpt lat="43.10915216418051" lon="10.761976284864259"><ele>299.2</ele><time>2026-04-04T10:14:28.999Z</time></trkpt><trkpt lat="43.10925727121993" lon="10.761947626623014"><ele>300.0</ele><time>2026-04-04T10:14:30.999Z</time></trkpt><trkpt lat="43.10932322193665" lon="10.762098531291395"><ele>299.99999999999994</ele><time>2026-04-04T10:14:32.999Z</time></trkpt><trkpt lat="43.10933908339321" lon="10.76220310169067"><ele>300.0</ele><time>2026-04-04T10:14:33.999Z</time></trkpt><trkpt lat="43.10933664208706" lon="10.762296106443017"><ele>300.0</ele><time>2026-04-04T10:14:34.999Z</time></trkpt><trkpt lat="43.10933250133071" lon="10.762394810153793"><ele>300.0</ele><time>2026-04-04T10:14:35.999Z</time></trkpt><trkpt lat="43.109341000810204" lon="10.762489465095006"><ele>300.0</ele><time>2026-04-04T10:14:36.999Z</time></trkpt><trkpt lat="43.10934868322118" lon="10.76258680368921"><ele>299.99999999999994</ele><time>2026-04-04T10:14:37.999Z</time></trkpt><trkpt lat="43.10935752333723" lon="10.762681217287042"><ele>300.0</ele><time>2026-04-04T10:14:38.999Z</time></trkpt><trkpt lat="43.109378411096884" lon="10.762765067729969"><ele>298.3333333333333</ele><time>2026-04-04T10:14:39.999Z</time></trkpt><trkpt lat="43.10944979852906" lon="10.762853634314776"><ele>296.6666666666667</ele><time>2026-04-04T10:14:41.999Z</time></trkpt><trkpt lat="43.10953780046276" lon="10.762918644153853"><ele>295.0</ele><time>2026-04-04T10:14:43.999Z</time></trkpt><trkpt lat="43.10958609396459" lon="10.762979861533628"><ele>293.33333333333337</ele><time>2026-04-04T10:14:44.999Z</time></trkpt><trkpt lat="43.10962823409645" lon="10.763060752195637"><ele>291.6666666666667</ele><time>2026-04-04T10:14:45.999Z</time></trkpt><trkpt lat="43.10964671030535" lon="10.76314734316836"><ele>290.0</ele><time>2026-04-04T10:14:46.999Z</time></trkpt><trkpt lat="43.10974559602343" lon="10.763214594086968"><ele>290.0</ele><time>2026-04-04T10:14:48.999Z</time></trkpt><trkpt lat="43.10983175180379" lon="10.76321246549148"><ele>290.0</ele><time>2026-04-04T10:14:49.999Z</time></trkpt><trkpt lat="43.1099294905678" lon="10.763224865983187"><ele>290.0</ele><time>2026-04-04T10:14:50.999Z</time></trkpt><trkpt lat="43.11002597701334" lon="10.763256077124156"><ele>290.0</ele><time>2026-04-04T10:14:51.999Z</time></trkpt><trkpt lat="43.110111685470216" lon="10.763288506369518"><ele>290.0</ele><time>2026-04-04T10:14:52.999Z</time></trkpt><trkpt lat="43.1101830850375" lon="10.763299240455508"><ele>290.0</ele><time>2026-04-04T10:14:53.999Z</time></trkpt><trkpt lat="43.11026977153171" lon="10.763294002367681"><ele>288.6666666666667</ele><time>2026-04-04T10:14:54.999Z</time></trkpt><trkpt lat="43.110346392270905" lon="10.76328227158908"><ele>287.33333333333337</ele><time>2026-04-04T10:14:55.999Z</time></trkpt><trkpt lat="43.11043349301594" lon="10.763277365152138"><ele>286.0</ele><time>2026-04-04T10:14:56.999Z</time></trkpt><trkpt lat="43.110499676603695" lon="10.763272491539876"><ele>284.6666666666667</ele><time>2026-04-04T10:14:57.999Z</time></trkpt><trkpt lat="43.1105663123719" lon="10.763270472326274"><ele>283.3333333333333</ele><time>2026-04-04T10:14:58.999Z</time></trkpt><trkpt lat="43.11062921056761" lon="10.763261336280559"><ele>282.0</ele><time>2026-04-04T10:14:59.999Z</time></trkpt><trkpt lat="43.11072283864892" lon="10.763192195163187"><ele>280.8333333333333</ele><time>2026-04-04T10:15:01.999Z</time></trkpt><trkpt lat="43.1107844636228" lon="10.763129521723638"><ele>279.6666666666667</ele><time>2026-04-04T10:15:03.999Z</time></trkpt><trkpt lat="43.110855288970825" lon="10.76311589784408"><ele>278.5</ele><time>2026-04-04T10:15:05.999Z</time></trkpt><trkpt lat="43.11091705018748" lon="10.7630884375854"><ele>277.33333333333337</ele><time>2026-04-04T10:15:07.999Z</time></trkpt><trkpt lat="43.11099140567285" lon="10.76304425224517"><ele>276.1666666666667</ele><time>2026-04-04T10:15:09.999Z</time></trkpt><trkpt lat="43.111077321355175" lon="10.763040674581546"><ele>275.0</ele><time>2026-04-04T10:15:11.999Z</time></trkpt><trkpt lat="43.11118041716471" lon="10.762999708911037"><ele>275.0</ele><time>2026-04-04T10:15:13.999Z</time></trkpt><trkpt lat="43.111250202738084" lon="10.762912079144414"><ele>275.0</ele><time>2026-04-04T10:15:15.999Z</time></trkpt><trkpt lat="43.111268498374" lon="10.762827986481053"><ele>275.0</ele><time>2026-04-04T10:15:16.999Z</time></trkpt><trkpt lat="43.111349381075954" lon="10.762751626639202"><ele>275.0</ele><time>2026-04-04T10:15:18.999Z</time></trkpt><trkpt lat="43.11141896127732" lon="10.762718286920112"><ele>275.0</ele><time>2026-04-04T10:15:20.999Z</time></trkpt><trkpt lat="43.111522661131694" lon="10.762750822327986"><ele>275.0</ele><time>2026-04-04T10:15:22.999Z</time></trkpt><trkpt lat="43.11161008151131" lon="10.762762911342135"><ele>271.8</ele><time>2026-04-04T10:15:24.998Z</time></trkpt><trkpt lat="43.11169970134153" lon="10.762730838538555"><ele>268.6</ele><time>2026-04-04T10:15:26.998Z</time></trkpt><trkpt lat="43.11176304161503" lon="10.762787852377878"><ele>265.4</ele><time>2026-04-04T10:15:28.998Z</time></trkpt><trkpt lat="43.11187091683373" lon="10.762832225485866"><ele>262.2</ele><time>2026-04-04T10:15:30.998Z</time></trkpt><trkpt lat="43.11197063741382" lon="10.762848449575836"><ele>259.0</ele><time>2026-04-04T10:15:32.999Z</time></trkpt><trkpt lat="43.112046714924" lon="10.762849400689669"><ele>259.0</ele><time>2026-04-04T10:15:33.999Z</time></trkpt><trkpt lat="43.112132869890374" lon="10.762825334316473"><ele>259.0</ele><time>2026-04-04T10:15:34.999Z</time></trkpt><trkpt lat="43.11222691986902" lon="10.76280024244913"><ele>259.0</ele><time>2026-04-04T10:15:35.999Z</time></trkpt><trkpt lat="43.11232509015202" lon="10.762802833931465"><ele>259.0</ele><time>2026-04-04T10:15:36.999Z</time></trkpt><trkpt lat="43.112403498294746" lon="10.762794503930733"><ele>259.0</ele><time>2026-04-04T10:15:37.999Z</time></trkpt><trkpt lat="43.11249311963493" lon="10.762742118282988"><ele>256.8</ele><time>2026-04-04T10:15:39.999Z</time></trkpt><trkpt lat="43.11254511565814" lon="10.762803935539463"><ele>254.59999999999997</ele><time>2026-04-04T10:15:41.999Z</time></trkpt><trkpt lat="43.112600867142774" lon="10.762864425609846"><ele>252.4</ele><time>2026-04-04T10:15:44.999Z</time></trkpt><trkpt lat="43.112677350669024" lon="10.762765945726956"><ele>250.2</ele><time>2026-04-04T10:15:47.999Z</time></trkpt><trkpt lat="43.11278134111349" lon="10.762649057850894"><ele>248.0</ele><time>2026-04-04T10:15:49.999Z</time></trkpt><trkpt lat="43.11285109037385" lon="10.76259068334406"><ele>248.0</ele><time>2026-04-04T10:15:50.999Z</time></trkpt><trkpt lat="43.11291534085791" lon="10.762521502466141"><ele>248.0</ele><time>2026-04-04T10:15:51.999Z</time></trkpt><trkpt lat="43.11297775923781" lon="10.762457601845128"><ele>248.0</ele><time>2026-04-04T10:15:52.999Z</time></trkpt><trkpt lat="43.11305523150576" lon="10.762397015910887"><ele>248.0</ele><time>2026-04-04T10:15:53.999Z</time></trkpt><trkpt lat="43.113177275539044" lon="10.762322191649316"><ele>248.0</ele><time>2026-04-04T10:15:55.999Z</time></trkpt><trkpt lat="43.11323321910185" lon="10.762250931198038"><ele>249.16666666666669</ele><time>2026-04-04T10:15:56.999Z</time></trkpt><trkpt lat="43.113290933007136" lon="10.762181897637383"><ele>250.33333333333334</ele><time>2026-04-04T10:15:57.999Z</time></trkpt><trkpt lat="43.113342399887706" lon="10.76212439475865"><ele>251.5</ele><time>2026-04-04T10:15:58.999Z</time></trkpt><trkpt lat="43.11344133891629" lon="10.762059149694167"><ele>252.66666666666669</ele><time>2026-04-04T10:16:00.999Z</time></trkpt><trkpt lat="43.113540954977886" lon="10.761983720646883"><ele>253.83333333333334</ele><time>2026-04-04T10:16:02.999Z</time></trkpt><trkpt lat="43.1136064446902" lon="10.76193933184555"><ele>255.0</ele><time>2026-04-04T10:16:03.999Z</time></trkpt><trkpt lat="43.11367272283654" lon="10.76189756052562"><ele>254.6</ele><time>2026-04-04T10:16:04.999Z</time></trkpt><trkpt lat="43.11375464047198" lon="10.761789882013192"><ele>254.2</ele><time>2026-04-04T10:16:06.999Z</time></trkpt><trkpt lat="43.113789502022954" lon="10.76169821970273"><ele>253.8</ele><time>2026-04-04T10:16:07.999Z</time></trkpt><trkpt lat="43.11391007494825" lon="10.761612369631893"><ele>253.4</ele><time>2026-04-04T10:16:09.999Z</time></trkpt><trkpt lat="43.11398682414703" lon="10.761579819154147"><ele>253.0</ele><time>2026-04-04T10:16:10.999Z</time></trkpt><trkpt lat="43.11405665053041" lon="10.761527673562322"><ele>253.00000000000003</ele><time>2026-04-04T10:16:11.999Z</time></trkpt><trkpt lat="43.11412576456935" lon="10.761470871251113"><ele>253.0</ele><time>2026-04-04T10:16:12.999Z</time></trkpt><trkpt lat="43.11419767543787" lon="10.7614190450486"><ele>253.00000000000003</ele><time>2026-04-04T10:16:13.999Z</time></trkpt><trkpt lat="43.11426027611246" lon="10.761377456067871"><ele>253.00000000000003</ele><time>2026-04-04T10:16:14.999Z</time></trkpt><trkpt lat="43.11432380535562" lon="10.76132038995993"><ele>253.0</ele><time>2026-04-04T10:16:15.999Z</time></trkpt><trkpt lat="43.11437387382941" lon="10.761261179834069"><ele>253.00000000000003</ele><time>2026-04-04T10:16:16.999Z</time></trkpt><trkpt lat="43.11441688012834" lon="10.761194389166352"><ele>253.00000000000003</ele><time>2026-04-04T10:16:17.999Z</time></trkpt><trkpt lat="43.11451100028649" lon="10.761140438290916"><ele>253.0</ele><time>2026-04-04T10:16:19.999Z</time></trkpt><trkpt lat="43.11464043927505" lon="10.761154152407796"><ele>253.0</ele><time>2026-04-04T10:16:21.999Z</time></trkpt><trkpt lat="43.114754483075686" lon="10.761176487508848"><ele>253.0</ele><time>2026-04-04T10:16:23.999Z</time></trkpt><trkpt lat="43.114828238119806" lon="10.76113051651864"><ele>253.0</ele><time>2026-04-04T10:16:26.999Z</time></trkpt><trkpt lat="43.11486428677039" lon="10.761007817402632"><ele>253.0</ele><time>2026-04-04T10:16:29.999Z</time></trkpt><trkpt lat="43.11493066470342" lon="10.760922068095306"><ele>251.60000000000002</ele><time>2026-04-04T10:16:31.999Z</time></trkpt><trkpt lat="43.11504089897015" lon="10.76093458310948"><ele>250.20000000000002</ele><time>2026-04-04T10:16:33.999Z</time></trkpt><trkpt lat="43.115142124757206" lon="10.760842386603867"><ele>248.8</ele><time>2026-04-04T10:16:35.999Z</time></trkpt><trkpt lat="43.11519615690122" lon="10.760766899632054"><ele>247.4</ele><time>2026-04-04T10:16:36.999Z</time></trkpt><trkpt lat="43.1152492753515" lon="10.760676164186194"><ele>246.0</ele><time>2026-04-04T10:16:37.999Z</time></trkpt><trkpt lat="43.11530147053706" lon="10.76059755907627"><ele>246.0</ele><time>2026-04-04T10:16:38.999Z</time></trkpt><trkpt lat="43.11535262092481" lon="10.760529513141918"><ele>246.00000000000003</ele><time>2026-04-04T10:16:39.999Z</time></trkpt><trkpt lat="43.1154212559914" lon="10.760470314706021"><ele>246.00000000000003</ele><time>2026-04-04T10:16:40.999Z</time></trkpt><trkpt lat="43.11545550799641" lon="10.760557156493661"><ele>246.0</ele><time>2026-04-04T10:16:48.999Z</time></trkpt><trkpt lat="43.11555100937688" lon="10.76063470607437"><ele>246.0</ele><time>2026-04-04T10:16:50.999Z</time></trkpt><trkpt lat="43.11565578257322" lon="10.760568610180384"><ele>246.0</ele><time>2026-04-04T10:16:52.999Z</time></trkpt><trkpt lat="43.115731527866714" lon="10.760419089304412"><ele>246.00000000000003</ele><time>2026-04-04T10:16:54.999Z</time></trkpt><trkpt lat="43.11579313293478" lon="10.760312255573004"><ele>246.00000000000003</ele><time>2026-04-04T10:16:55.999Z</time></trkpt><trkpt lat="43.11585452255685" lon="10.760219872982837"><ele>246.0</ele><time>2026-04-04T10:16:56.999Z</time></trkpt><trkpt lat="43.11591962328022" lon="10.760192009539205"><ele>246.0</ele><time>2026-04-04T10:16:57.999Z</time></trkpt><trkpt lat="43.11598240323662" lon="10.760185452876886"><ele>246.0</ele><time>2026-04-04T10:16:58.999Z</time></trkpt><trkpt lat="43.11607208462358" lon="10.760159733857327"><ele>246.0</ele><time>2026-04-04T10:16:59.999Z</time></trkpt><trkpt lat="43.11615309969179" lon="10.760145470423858"><ele>246.0</ele><time>2026-04-04T10:17:00.999Z</time></trkpt><trkpt lat="43.11622210831468" lon="10.760159338111393"><ele>246.0</ele><time>2026-04-04T10:17:01.999Z</time></trkpt><trkpt lat="43.11631586957861" lon="10.760136682166987"><ele>246.0</ele><time>2026-04-04T10:17:03.999Z</time></trkpt><trkpt lat="43.11638070407955" lon="10.760159918050613"><ele>246.0</ele><time>2026-04-04T10:17:04.999Z</time></trkpt><trkpt lat="43.11646486116363" lon="10.760138199053998"><ele>246.0</ele><time>2026-04-04T10:17:06.999Z</time></trkpt><trkpt lat="43.116537050294525" lon="10.759980295936577"><ele>246.00000000000003</ele><time>2026-04-04T10:17:08.999Z</time></trkpt><trkpt lat="43.1165888367623" lon="10.759896439090108"><ele>246.00000000000003</ele><time>2026-04-04T10:17:09.999Z</time></trkpt><trkpt lat="43.116645653851855" lon="10.759840699559202"><ele>246.0</ele><time>2026-04-04T10:17:10.999Z</time></trkpt><trkpt lat="43.11673196906193" lon="10.759854547141515"><ele>246.0</ele><time>2026-04-04T10:17:12.999Z</time></trkpt><trkpt lat="43.11683055659732" lon="10.759952755978704"><ele>245.60000000000002</ele><time>2026-04-04T10:17:14.999Z</time></trkpt><trkpt lat="43.11691408088509" lon="10.760025359537865"><ele>245.20000000000002</ele><time>2026-04-04T10:17:16.999Z</time></trkpt><trkpt lat="43.11701352435149" lon="10.760002533749487"><ele>244.79999999999998</ele><time>2026-04-04T10:17:18.999Z</time></trkpt><trkpt lat="43.11706936558113" lon="10.759937225671605"><ele>244.39999999999998</ele><time>2026-04-04T10:17:19.999Z</time></trkpt><trkpt lat="43.11715876862862" lon="10.759949975472741"><ele>244.0</ele><time>2026-04-04T10:17:20.999Z</time></trkpt><trkpt lat="43.117266111235494" lon="10.759954499866637"><ele>244.0</ele><time>2026-04-04T10:17:21.999Z</time></trkpt><trkpt lat="43.11738266024805" lon="10.759959569132302"><ele>243.99999999999997</ele><time>2026-04-04T10:17:22.999Z</time></trkpt><trkpt lat="43.117475078016184" lon="10.759997675695917"><ele>243.99999999999997</ele><time>2026-04-04T10:17:23.999Z</time></trkpt><trkpt lat="43.117535751464146" lon="10.76004860688701"><ele>244.0</ele><time>2026-04-04T10:17:24.999Z</time></trkpt><trkpt lat="43.1175751815787" lon="10.760168027370408"><ele>244.0</ele><time>2026-04-04T10:17:25.999Z</time></trkpt><trkpt lat="43.11764473911337" lon="10.760260061862814"><ele>240.39999999999998</ele><time>2026-04-04T10:17:26.999Z</time></trkpt><trkpt lat="43.11772547745914" lon="10.760345933683636"><ele>236.79999999999998</ele><time>2026-04-04T10:17:27.999Z</time></trkpt><trkpt lat="43.117816460310685" lon="10.760396833936099"><ele>233.20000000000002</ele><time>2026-04-04T10:17:28.999Z</time></trkpt><trkpt lat="43.11790714688171" lon="10.76045211777761"><ele>229.60000000000002</ele><time>2026-04-04T10:17:29.999Z</time></trkpt><trkpt lat="43.11799788185471" lon="10.760461035786376"><ele>226.0</ele><time>2026-04-04T10:17:30.999Z</time></trkpt><trkpt lat="43.11808863107054" lon="10.7604346011227"><ele>225.99999999999997</ele><time>2026-04-04T10:17:31.999Z</time></trkpt><trkpt lat="43.11814851359214" lon="10.760386953162154"><ele>226.0</ele><time>2026-04-04T10:17:32.999Z</time></trkpt><trkpt lat="43.11819440340484" lon="10.760312456506123"><ele>226.0</ele><time>2026-04-04T10:17:33.999Z</time></trkpt><trkpt lat="43.11823259779033" lon="10.760216165790837"><ele>226.0</ele><time>2026-04-04T10:17:34.999Z</time></trkpt><trkpt lat="43.11827763580672" lon="10.76010546262175"><ele>225.99999999999997</ele><time>2026-04-04T10:17:35.999Z</time></trkpt><trkpt lat="43.11833355014814" lon="10.760025244479092"><ele>226.0</ele><time>2026-04-04T10:17:36.999Z</time></trkpt><trkpt lat="43.118400991877394" lon="10.759978826189"><ele>225.8</ele><time>2026-04-04T10:17:37.999Z</time></trkpt><trkpt lat="43.11856382722486" lon="10.759967825605642"><ele>225.60000000000002</ele><time>2026-04-04T10:17:40Z</time></trkpt><trkpt lat="43.11865923575035" lon="10.760007175475165"><ele>225.4</ele><time>2026-04-04T10:17:41Z</time></trkpt><trkpt lat="43.11871858480721" lon="10.760071250340717"><ele>225.2</ele><time>2026-04-04T10:17:42Z</time></trkpt><trkpt lat="43.118730510244355" lon="10.760211313858731"><ele>225.0</ele><time>2026-04-04T10:17:44Z</time></trkpt><trkpt lat="43.11868653454414" lon="10.760277011209281"><ele>223.66666666666666</ele><time>2026-04-04T10:17:45Z</time></trkpt><trkpt lat="43.11866552787351" lon="10.760371291201315"><ele>222.33333333333331</ele><time>2026-04-04T10:17:46Z</time></trkpt><trkpt lat="43.11863907802732" lon="10.76047846737984"><ele>221.0</ele><time>2026-04-04T10:17:47Z</time></trkpt><trkpt lat="43.11860855667467" lon="10.76059136397436"><ele>219.66666666666666</ele><time>2026-04-04T10:17:48Z</time></trkpt><trkpt lat="43.11857470704429" lon="10.760705599923476"><ele>218.33333333333331</ele><time>2026-04-04T10:17:49Z</time></trkpt><trkpt lat="43.11854879716222" lon="10.760830945997546"><ele>217.0</ele><time>2026-04-04T10:17:50Z</time></trkpt><trkpt lat="43.1185050133118" lon="10.760949102573653"><ele>214.39999999999998</ele><time>2026-04-04T10:17:51Z</time></trkpt><trkpt lat="43.11844887250821" lon="10.761059860297008"><ele>211.79999999999998</ele><time>2026-04-04T10:17:52Z</time></trkpt><trkpt lat="43.11838772708033" lon="10.761147831483497"><ele>209.2</ele><time>2026-04-04T10:17:53Z</time></trkpt><trkpt lat="43.118311119659424" lon="10.761197100866983"><ele>206.6</ele><time>2026-04-04T10:17:54Z</time></trkpt><trkpt lat="43.1182100577744" lon="10.761258594297008"><ele>204.0</ele><time>2026-04-04T10:17:55Z</time></trkpt><trkpt lat="43.11807510422947" lon="10.76134600527079"><ele>204.0</ele><time>2026-04-04T10:17:56Z</time></trkpt><trkpt lat="43.11795659688484" lon="10.761419629901468"><ele>204.0</ele><time>2026-04-04T10:17:57Z</time></trkpt><trkpt lat="43.11786750004527" lon="10.761474709366217"><ele>204.0</ele><time>2026-04-04T10:17:58Z</time></trkpt><trkpt lat="43.117783166982996" lon="10.761518401045478"><ele>204.0</ele><time>2026-04-04T10:17:59Z</time></trkpt><trkpt lat="43.11767771516802" lon="10.761574217509677"><ele>204.0</ele><time>2026-04-04T10:18:00Z</time></trkpt><trkpt lat="43.117568979611725" lon="10.761646928677552"><ele>204.0</ele><time>2026-04-04T10:18:01Z</time></trkpt><trkpt lat="43.11747054690777" lon="10.761758318013532"><ele>204.0</ele><time>2026-04-04T10:18:02Z</time></trkpt><trkpt lat="43.11736423160519" lon="10.761857692138188"><ele>204.0</ele><time>2026-04-04T10:18:03Z</time></trkpt><trkpt lat="43.11728747494254" lon="10.761948596128304"><ele>204.0</ele><time>2026-04-04T10:18:04Z</time></trkpt><trkpt lat="43.117209556628964" lon="10.762032414828065"><ele>202.0</ele><time>2026-04-04T10:18:05Z</time></trkpt><trkpt lat="43.117140905201815" lon="10.762100171460954"><ele>200.0</ele><time>2026-04-04T10:18:06Z</time></trkpt><trkpt lat="43.11708023593958" lon="10.762193034803405"><ele>198.0</ele><time>2026-04-04T10:18:07Z</time></trkpt><trkpt lat="43.11701739144725" lon="10.762288533816461"><ele>196.0</ele><time>2026-04-04T10:18:08Z</time></trkpt><trkpt lat="43.11693609477137" lon="10.762409404125922"><ele>194.0</ele><time>2026-04-04T10:18:09Z</time></trkpt><trkpt lat="43.116839525305735" lon="10.762460856645056"><ele>194.0</ele><time>2026-04-04T10:18:10Z</time></trkpt><trkpt lat="43.1167586339749" lon="10.762542921552143"><ele>194.0</ele><time>2026-04-04T10:18:11Z</time></trkpt><trkpt lat="43.11669747806714" lon="10.762671186180109"><ele>194.0</ele><time>2026-04-04T10:18:12Z</time></trkpt><trkpt lat="43.116621389860995" lon="10.76282907372243"><ele>194.0</ele><time>2026-04-04T10:18:13Z</time></trkpt><trkpt lat="43.11654192583929" lon="10.76296146110987"><ele>193.0</ele><time>2026-04-04T10:18:14Z</time></trkpt><trkpt lat="43.11644968964495" lon="10.763070980191545"><ele>192.0</ele><time>2026-04-04T10:18:15Z</time></trkpt><trkpt lat="43.116354408500385" lon="10.763166241011827"><ele>191.0</ele><time>2026-04-04T10:18:16Z</time></trkpt><trkpt lat="43.116232828793486" lon="10.76328420976229"><ele>190.0</ele><time>2026-04-04T10:18:17Z</time></trkpt><trkpt lat="43.11611923827075" lon="10.763412782124101"><ele>190.0</ele><time>2026-04-04T10:18:18Z</time></trkpt><trkpt lat="43.116012370571994" lon="10.76351699608844"><ele>190.0</ele><time>2026-04-04T10:18:19Z</time></trkpt><trkpt lat="43.11591425176016" lon="10.763612235736497"><ele>190.0</ele><time>2026-04-04T10:18:20Z</time></trkpt><trkpt lat="43.11583258176717" lon="10.763705736209245"><ele>190.0</ele><time>2026-04-04T10:18:21Z</time></trkpt><trkpt lat="43.11577201743182" lon="10.76379137771496"><ele>190.0</ele><time>2026-04-04T10:18:22Z</time></trkpt><trkpt lat="43.11572062627131" lon="10.76387131350986"><ele>190.16666666666669</ele><time>2026-04-04T10:18:23Z</time></trkpt><trkpt lat="43.11566069257823" lon="10.763933476589195"><ele>190.33333333333334</ele><time>2026-04-04T10:18:24Z</time></trkpt><trkpt lat="43.1156348929226" lon="10.764013844885651"><ele>190.5</ele><time>2026-04-04T10:18:25Z</time></trkpt><trkpt lat="43.11567898037155" lon="10.764139711647879"><ele>190.66666666666666</ele><time>2026-04-04T10:18:26Z</time></trkpt><trkpt lat="43.11572149806126" lon="10.764243628550968"><ele>190.83333333333331</ele><time>2026-04-04T10:18:27Z</time></trkpt><trkpt lat="43.115772041105124" lon="10.764370543591598"><ele>191.0</ele><time>2026-04-04T10:18:28Z</time></trkpt><trkpt lat="43.11580870576701" lon="10.76448548220323"><ele>186.8</ele><time>2026-04-04T10:18:29Z</time></trkpt><trkpt lat="43.1158355896595" lon="10.764611906498498"><ele>182.60000000000002</ele><time>2026-04-04T10:18:30Z</time></trkpt><trkpt lat="43.11588269111972" lon="10.7647370608092"><ele>178.4</ele><time>2026-04-04T10:18:31Z</time></trkpt><trkpt lat="43.115922048131544" lon="10.764858884044296"><ele>174.2</ele><time>2026-04-04T10:18:32Z</time></trkpt><trkpt lat="43.115957669447035" lon="10.764981483702622"><ele>170.0</ele><time>2026-04-04T10:18:33Z</time></trkpt><trkpt lat="43.11599507844819" lon="10.765092925161413"><ele>170.0</ele><time>2026-04-04T10:18:34Z</time></trkpt><trkpt lat="43.116021018124556" lon="10.765192636246377"><ele>170.0</ele><time>2026-04-04T10:18:35Z</time></trkpt><trkpt lat="43.11601373857574" lon="10.765304790440004"><ele>170.0</ele><time>2026-04-04T10:18:36Z</time></trkpt><trkpt lat="43.11600294799777" lon="10.765398466658683"><ele>170.0</ele><time>2026-04-04T10:18:37Z</time></trkpt><trkpt lat="43.11611201037539" lon="10.765542847156697"><ele>170.0</ele><time>2026-04-04T10:18:38.999Z</time></trkpt><trkpt lat="43.116197686565236" lon="10.765618267658668"><ele>169.6</ele><time>2026-04-04T10:18:39.999Z</time></trkpt><trkpt lat="43.11631249443243" lon="10.76563115044442"><ele>169.2</ele><time>2026-04-04T10:18:40.999Z</time></trkpt><trkpt lat="43.116392809405234" lon="10.76568793641321"><ele>168.8</ele><time>2026-04-04T10:18:41.999Z</time></trkpt><trkpt lat="43.116473748447355" lon="10.765760704123531"><ele>168.4</ele><time>2026-04-04T10:18:42.999Z</time></trkpt><trkpt lat="43.116554506430646" lon="10.76582760880017"><ele>168.0</ele><time>2026-04-04T10:18:43.999Z</time></trkpt><trkpt lat="43.11663480232136" lon="10.765892692559317"><ele>166.66666666666666</ele><time>2026-04-04T10:18:44.999Z</time></trkpt><trkpt lat="43.1167137298298" lon="10.765950846092535"><ele>165.33333333333334</ele><time>2026-04-04T10:18:45.999Z</time></trkpt><trkpt lat="43.116784163992314" lon="10.765973102753781"><ele>164.0</ele><time>2026-04-04T10:18:46.999Z</time></trkpt><trkpt lat="43.11688526849341" lon="10.765985247738998"><ele>162.66666666666669</ele><time>2026-04-04T10:18:47.999Z</time></trkpt><trkpt lat="43.1169709439196" lon="10.765959158364618"><ele>161.33333333333334</ele><time>2026-04-04T10:18:48.999Z</time></trkpt><trkpt lat="43.11705375826422" lon="10.765903347631273"><ele>160.0</ele><time>2026-04-04T10:18:49.999Z</time></trkpt><trkpt lat="43.11712711376451" lon="10.765830328608649"><ele>160.0</ele><time>2026-04-04T10:18:50.999Z</time></trkpt><trkpt lat="43.11718768843164" lon="10.765737893015443"><ele>160.0</ele><time>2026-04-04T10:18:51.999Z</time></trkpt><trkpt lat="43.117249361301305" lon="10.765624612649754"><ele>160.0</ele><time>2026-04-04T10:18:52.999Z</time></trkpt><trkpt lat="43.117308213211686" lon="10.765485366472928"><ele>160.0</ele><time>2026-04-04T10:18:53.999Z</time></trkpt><trkpt lat="43.11736552936183" lon="10.765336516234951"><ele>160.0</ele><time>2026-04-04T10:18:54.999Z</time></trkpt><trkpt lat="43.11741662018545" lon="10.76516996099402"><ele>158.25</ele><time>2026-04-04T10:18:55.999Z</time></trkpt><trkpt lat="43.117482026392416" lon="10.765010456019532"><ele>156.5</ele><time>2026-04-04T10:18:56.999Z</time></trkpt><trkpt lat="43.11754819881313" lon="10.76486744386234"><ele>154.75</ele><time>2026-04-04T10:18:57.999Z</time></trkpt><trkpt lat="43.117635107291534" lon="10.764739899142077"><ele>153.0</ele><time>2026-04-04T10:18:58.999Z</time></trkpt><trkpt lat="43.11774438187274" lon="10.764646632515356"><ele>153.0</ele><time>2026-04-04T10:18:59.999Z</time></trkpt><trkpt lat="43.117866027735744" lon="10.764588698361864"><ele>153.0</ele><time>2026-04-04T10:19:00.999Z</time></trkpt><trkpt lat="43.11799216764175" lon="10.764568773157496"><ele>153.0</ele><time>2026-04-04T10:19:01.999Z</time></trkpt><trkpt lat="43.11811023919202" lon="10.764636414207587"><ele>153.0</ele><time>2026-04-04T10:19:02.999Z</time></trkpt><trkpt lat="43.11823442353835" lon="10.764681298362792"><ele>149.5</ele><time>2026-04-04T10:19:03.999Z</time></trkpt><trkpt lat="43.11835121360565" lon="10.764716079707364"><ele>146.0</ele><time>2026-04-04T10:19:04.999Z</time></trkpt><trkpt lat="43.11846857073229" lon="10.764665698871854"><ele>142.5</ele><time>2026-04-04T10:19:05.999Z</time></trkpt><trkpt lat="43.118585332582654" lon="10.764573567314232"><ele>139.0</ele><time>2026-04-04T10:19:06.999Z</time></trkpt><trkpt lat="43.11870810229317" lon="10.764490414481896"><ele>139.0</ele><time>2026-04-04T10:19:07.999Z</time></trkpt><trkpt lat="43.11883440848032" lon="10.764439916308152"><ele>139.0</ele><time>2026-04-04T10:19:08.999Z</time></trkpt><trkpt lat="43.118964087573175" lon="10.764423070530551"><ele>139.0</ele><time>2026-04-04T10:19:09.999Z</time></trkpt><trkpt lat="43.11909927847438" lon="10.764435797024783"><ele>139.0</ele><time>2026-04-04T10:19:10.999Z</time></trkpt><trkpt lat="43.119228087147675" lon="10.764459617787743"><ele>135.75</ele><time>2026-04-04T10:19:11.999Z</time></trkpt><trkpt lat="43.119358069764495" lon="10.764496228827172"><ele>132.5</ele><time>2026-04-04T10:19:12.999Z</time></trkpt><trkpt lat="43.11949110615125" lon="10.764520157457778"><ele>129.25</ele><time>2026-04-04T10:19:13.999Z</time></trkpt><trkpt lat="43.1196256046028" lon="10.764552332828412"><ele>126.0</ele><time>2026-04-04T10:19:14.999Z</time></trkpt><trkpt lat="43.119762223188765" lon="10.764583847021791"><ele>126.0</ele><time>2026-04-04T10:19:15.999Z</time></trkpt><trkpt lat="43.11989331545633" lon="10.764612473346872"><ele>126.0</ele><time>2026-04-04T10:19:16.999Z</time></trkpt><trkpt lat="43.12002401165949" lon="10.764638759985555"><ele>126.0</ele><time>2026-04-04T10:19:17.999Z</time></trkpt><trkpt lat="43.12015248803251" lon="10.764669722514496"><ele>126.0</ele><time>2026-04-04T10:19:18.999Z</time></trkpt><trkpt lat="43.120274824913906" lon="10.764706963295554"><ele>124.25</ele><time>2026-04-04T10:19:19.999Z</time></trkpt><trkpt lat="43.12039176593836" lon="10.764740692402867"><ele>122.5</ele><time>2026-04-04T10:19:20.999Z</time></trkpt><trkpt lat="43.120507611521546" lon="10.76477807032794"><ele>120.75</ele><time>2026-04-04T10:19:21.999Z</time></trkpt><trkpt lat="43.12061113070744" lon="10.7648281262715"><ele>119.0</ele><time>2026-04-04T10:19:22.999Z</time></trkpt><trkpt lat="43.120710578010915" lon="10.764885919503868"><ele>118.0</ele><time>2026-04-04T10:19:23.999Z</time></trkpt><trkpt lat="43.120818352832266" lon="10.764945185192602"><ele>117.0</ele><time>2026-04-04T10:19:24.999Z</time></trkpt><trkpt lat="43.120917614138634" lon="10.765011220625302"><ele>116.0</ele><time>2026-04-04T10:19:25.999Z</time></trkpt><trkpt lat="43.121019428849685" lon="10.76508143945618"><ele>115.0</ele><time>2026-04-04T10:19:26.999Z</time></trkpt><trkpt lat="43.12112657228778" lon="10.765161794857821"><ele>112.5</ele><time>2026-04-04T10:19:27.999Z</time></trkpt><trkpt lat="43.12123361517674" lon="10.765241784297073"><ele>110.0</ele><time>2026-04-04T10:19:28.999Z</time></trkpt><trkpt lat="43.12134690843009" lon="10.765318654107062"><ele>107.5</ele><time>2026-04-04T10:19:29.999Z</time></trkpt><trkpt lat="43.12145481586743" lon="10.765403928500302"><ele>105.0</ele><time>2026-04-04T10:19:30.999Z</time></trkpt><trkpt lat="43.12155323039636" lon="10.765485149091159"><ele>104.5</ele><time>2026-04-04T10:19:31.999Z</time></trkpt><trkpt lat="43.1216342593161" lon="10.765553496901981"><ele>104.0</ele><time>2026-04-04T10:19:32.999Z</time></trkpt><trkpt lat="43.12171288619962" lon="10.76561499641475"><ele>103.5</ele><time>2026-04-04T10:19:33.999Z</time></trkpt><trkpt lat="43.12178755727906" lon="10.765673415234932"><ele>103.0</ele><time>2026-04-04T10:19:34.999Z</time></trkpt><trkpt lat="43.12184950897176" lon="10.765747344865632"><ele>102.5</ele><time>2026-04-04T10:19:36.999Z</time></trkpt><trkpt lat="43.121909939828946" lon="10.765782318491397"><ele>102.0</ele><time>2026-04-04T10:19:39.999Z</time></trkpt><trkpt lat="43.12191002696772" lon="10.765872265239102"><ele>102.0</ele><time>2026-04-04T10:21:41.999Z</time></trkpt><trkpt lat="43.12188826810052" lon="10.765979592096546"><ele>102.0</ele><time>2026-04-04T10:22:14Z</time></trkpt><trkpt lat="43.12183270087495" lon="10.766020273645093"><ele>102.0</ele><time>2026-04-04T10:23:36.999Z</time></trkpt><trkpt lat="43.12184859761025" lon="10.765835835668861"><ele>102.0</ele><time>2026-04-04T10:24:02Z</time></trkpt><trkpt lat="43.12181147256784" lon="10.765936835429333"><ele>102.0</ele><time>2026-04-04T10:24:49Z</time></trkpt><trkpt lat="43.12189788923211" lon="10.765949402714776"><ele>102.0</ele><time>2026-04-04T10:25:11.999Z</time></trkpt><trkpt lat="43.12186651875843" lon="10.765836524899902"><ele>102.0</ele><time>2026-04-04T10:48:09.999Z</time></trkpt><trkpt lat="43.12186139975393" lon="10.765747136291303"><ele>102.0</ele><time>2026-04-04T10:53:23.999Z</time></trkpt><trkpt lat="43.12190847913173" lon="10.765667447895504"><ele>102.0</ele><time>2026-04-04T10:53:27Z</time></trkpt><trkpt lat="43.121854204928475" lon="10.765620125587825"><ele>102.0</ele><time>2026-04-04T10:53:29Z</time></trkpt><trkpt lat="43.12178702100175" lon="10.765628283378986"><ele>102.0</ele><time>2026-04-04T10:53:31Z</time></trkpt><trkpt lat="43.12172038957008" lon="10.76559947494895"><ele>102.0</ele><time>2026-04-04T10:53:33Z</time></trkpt><trkpt lat="43.12175268995714" lon="10.765684924699357"><ele>102.0</ele><time>2026-04-04T10:53:47Z</time></trkpt><trkpt lat="43.12181667553485" lon="10.765718027432667"><ele>102.0</ele><time>2026-04-04T10:53:48.999Z</time></trkpt><trkpt lat="43.12189584540577" lon="10.765746900897604"><ele>102.0</ele><time>2026-04-04T10:53:51.999Z</time></trkpt><trkpt lat="43.121967663072894" lon="10.76568773768074"><ele>102.0</ele><time>2026-04-04T10:53:54.999Z</time></trkpt><trkpt lat="43.122023375994736" lon="10.76557027851452"><ele>102.0</ele><time>2026-04-04T10:53:56.999Z</time></trkpt><trkpt lat="43.122085946390364" lon="10.765423102858822"><ele>102.0</ele><time>2026-04-04T10:53:58.999Z</time></trkpt><trkpt lat="43.12211730431001" lon="10.765346481955293"><ele>102.0</ele><time>2026-04-04T10:53:59.999Z</time></trkpt><trkpt lat="43.122188972048" lon="10.765237173331094"><ele>102.0</ele><time>2026-04-04T10:54:01.999Z</time></trkpt><trkpt lat="43.12226581474954" lon="10.765119644716297"><ele>102.0</ele><time>2026-04-04T10:54:03.999Z</time></trkpt><trkpt lat="43.12231841790007" lon="10.765018783563074"><ele>102.0</ele><time>2026-04-04T10:54:04.999Z</time></trkpt><trkpt lat="43.12239227537488" lon="10.764932103139724"><ele>102.0</ele><time>2026-04-04T10:54:05.999Z</time></trkpt><trkpt lat="43.122471266049956" lon="10.76484014795887"><ele>102.25</ele><time>2026-04-04T10:54:06.999Z</time></trkpt><trkpt lat="43.1225540152439" lon="10.764736073405313"><ele>102.5</ele><time>2026-04-04T10:54:07.999Z</time></trkpt><trkpt lat="43.12264513221165" lon="10.76462666545299"><ele>102.75</ele><time>2026-04-04T10:54:08.999Z</time></trkpt><trkpt lat="43.12273045146682" lon="10.764525999684489"><ele>103.0</ele><time>2026-04-04T10:54:09.999Z</time></trkpt><trkpt lat="43.12282593020321" lon="10.76444145672519"><ele>105.75</ele><time>2026-04-04T10:54:10.999Z</time></trkpt><trkpt lat="43.1229131227412" lon="10.764341782371536"><ele>108.5</ele><time>2026-04-04T10:54:11.999Z</time></trkpt><trkpt lat="43.12299774924578" lon="10.764235486616037"><ele>111.25</ele><time>2026-04-04T10:54:12.999Z</time></trkpt><trkpt lat="43.1230778498759" lon="10.76412773234062"><ele>114.0</ele><time>2026-04-04T10:54:13.999Z</time></trkpt><trkpt lat="43.12315653467393" lon="10.76398742911229"><ele>114.25</ele><time>2026-04-04T10:54:14.999Z</time></trkpt><trkpt lat="43.12325303826186" lon="10.7638565147695"><ele>114.5</ele><time>2026-04-04T10:54:15.999Z</time></trkpt><trkpt lat="43.123350247211825" lon="10.76371063585655"><ele>114.75</ele><time>2026-04-04T10:54:16.999Z</time></trkpt><trkpt lat="43.12344897434776" lon="10.763564095199945"><ele>115.0</ele><time>2026-04-04T10:54:17.999Z</time></trkpt><trkpt lat="43.12353820127061" lon="10.76342985647183"><ele>115.0</ele><time>2026-04-04T10:54:18.999Z</time></trkpt><trkpt lat="43.123626083532415" lon="10.763289396202483"><ele>115.0</ele><time>2026-04-04T10:54:19.999Z</time></trkpt><trkpt lat="43.12371506597825" lon="10.763146871812156"><ele>115.0</ele><time>2026-04-04T10:54:20.999Z</time></trkpt><trkpt lat="43.12380038081501" lon="10.76299539991361"><ele>115.0</ele><time>2026-04-04T10:54:21.999Z</time></trkpt><trkpt lat="43.123883787045315" lon="10.76283583281329"><ele>113.5</ele><time>2026-04-04T10:54:22.999Z</time></trkpt><trkpt lat="43.12396724277219" lon="10.762680159963361"><ele>112.0</ele><time>2026-04-04T10:54:23.999Z</time></trkpt><trkpt lat="43.124050272578" lon="10.762517854876203"><ele>110.5</ele><time>2026-04-04T10:54:24.999Z</time></trkpt><trkpt lat="43.12412854018319" lon="10.762342621844995"><ele>109.0</ele><time>2026-04-04T10:54:25.999Z</time></trkpt><trkpt lat="43.12420642462105" lon="10.762152549929628"><ele>109.0</ele><time>2026-04-04T10:54:26.999Z</time></trkpt><trkpt lat="43.12426900210696" lon="10.761978686267742"><ele>109.0</ele><time>2026-04-04T10:54:27.999Z</time></trkpt><trkpt lat="43.12431934211488" lon="10.761806503618367"><ele>109.0</ele><time>2026-04-04T10:54:28.999Z</time></trkpt><trkpt lat="43.12436441351273" lon="10.761626127441987"><ele>109.0</ele><time>2026-04-04T10:54:29.999Z</time></trkpt><trkpt lat="43.124399649295896" lon="10.761453089862192"><ele>111.0</ele><time>2026-04-04T10:54:30.999Z</time></trkpt><trkpt lat="43.124424339948256" lon="10.761268645143552"><ele>113.0</ele><time>2026-04-04T10:54:31.999Z</time></trkpt><trkpt lat="43.124441660372824" lon="10.761087197810674"><ele>115.0</ele><time>2026-04-04T10:54:32.999Z</time></trkpt><trkpt lat="43.12445343378053" lon="10.760908319750573"><ele>117.0</ele><time>2026-04-04T10:54:33.999Z</time></trkpt><trkpt lat="43.12445589110982" lon="10.760724681644641"><ele>118.25</ele><time>2026-04-04T10:54:34.999Z</time></trkpt><trkpt lat="43.124455934353215" lon="10.760532199354493"><ele>119.5</ele><time>2026-04-04T10:54:35.999Z</time></trkpt><trkpt lat="43.124446223457774" lon="10.760339333949682"><ele>120.75</ele><time>2026-04-04T10:54:36.999Z</time></trkpt><trkpt lat="43.124422055031324" lon="10.760142522146117"><ele>122.0</ele><time>2026-04-04T10:54:37.999Z</time></trkpt><trkpt lat="43.12439377778548" lon="10.759954982089877"><ele>122.75</ele><time>2026-04-04T10:54:38.999Z</time></trkpt><trkpt lat="43.124358573823194" lon="10.759770632842784"><ele>123.5</ele><time>2026-04-04T10:54:39.999Z</time></trkpt><trkpt lat="43.12432000271316" lon="10.7596074748295"><ele>124.25</ele><time>2026-04-04T10:54:40.999Z</time></trkpt><trkpt lat="43.124273730966685" lon="10.75944098608796"><ele>125.0</ele><time>2026-04-04T10:54:41.999Z</time></trkpt><trkpt lat="43.1242194166311" lon="10.759289272513856"><ele>125.0</ele><time>2026-04-04T10:54:42.999Z</time></trkpt><trkpt lat="43.124161351785155" lon="10.759135253935279"><ele>125.0</ele><time>2026-04-04T10:54:43.999Z</time></trkpt><trkpt lat="43.1240989571216" lon="10.758984266080986"><ele>125.0</ele><time>2026-04-04T10:54:44.999Z</time></trkpt><trkpt lat="43.12403035380479" lon="10.758835138936906"><ele>125.0</ele><time>2026-04-04T10:54:45.999Z</time></trkpt><trkpt lat="43.12395032016043" lon="10.758691965018002"><ele>127.0</ele><time>2026-04-04T10:54:46.999Z</time></trkpt><trkpt lat="43.12386472657867" lon="10.758556926311284"><ele>129.0</ele><time>2026-04-04T10:54:47.999Z</time></trkpt><trkpt lat="43.12377667696594" lon="10.758430941957098"><ele>131.0</ele><time>2026-04-04T10:54:48.999Z</time></trkpt><trkpt lat="43.12368411718573" lon="10.758309584552043"><ele>133.0</ele><time>2026-04-04T10:54:49.999Z</time></trkpt><trkpt lat="43.12358612874247" lon="10.7581963214757"><ele>133.0</ele><time>2026-04-04T10:54:50.999Z</time></trkpt><trkpt lat="43.12348535282085" lon="10.75808867856014"><ele>133.0</ele><time>2026-04-04T10:54:51.999Z</time></trkpt><trkpt lat="43.123378499481575" lon="10.757991601773561"><ele>133.0</ele><time>2026-04-04T10:54:52.999Z</time></trkpt><trkpt lat="43.123269148519704" lon="10.757903001924516"><ele>133.0</ele><time>2026-04-04T10:54:53.999Z</time></trkpt><trkpt lat="43.12315231545817" lon="10.757815192885602"><ele>134.5</ele><time>2026-04-04T10:54:54.999Z</time></trkpt><trkpt lat="43.12303303619198" lon="10.757736482843324"><ele>136.0</ele><time>2026-04-04T10:54:55.999Z</time></trkpt><trkpt lat="43.12291868991737" lon="10.757665288266919"><ele>137.5</ele><time>2026-04-04T10:54:56.999Z</time></trkpt><trkpt lat="43.122801628894614" lon="10.757594788009763"><ele>139.0</ele><time>2026-04-04T10:54:57.999Z</time></trkpt><trkpt lat="43.12268270953723" lon="10.757527075988818"><ele>139.0</ele><time>2026-04-04T10:54:58.999Z</time></trkpt><trkpt lat="43.12256950960203" lon="10.757453238574305"><ele>139.0</ele><time>2026-04-04T10:54:59.999Z</time></trkpt><trkpt lat="43.12245619045922" lon="10.757380452832125"><ele>139.0</ele><time>2026-04-04T10:55:00.999Z</time></trkpt><trkpt lat="43.122341638457904" lon="10.75731004433717"><ele>139.0</ele><time>2026-04-04T10:55:01.999Z</time></trkpt><trkpt lat="43.12223062286461" lon="10.757242551968387"><ele>143.25</ele><time>2026-04-04T10:55:02.999Z</time></trkpt><trkpt lat="43.12212576822347" lon="10.757170095905618"><ele>147.5</ele><time>2026-04-04T10:55:03.999Z</time></trkpt><trkpt lat="43.12201986186746" lon="10.75709300164033"><ele>151.75</ele><time>2026-04-04T10:55:04.999Z</time></trkpt><trkpt lat="43.12191513140784" lon="10.75701317724972"><ele>156.0</ele><time>2026-04-04T10:55:05.998Z</time></trkpt><trkpt lat="43.12181224789" lon="10.756925285135466"><ele>157.5</ele><time>2026-04-04T10:55:06.998Z</time></trkpt><trkpt lat="43.12171071967223" lon="10.756830774076391"><ele>159.0</ele><time>2026-04-04T10:55:07.998Z</time></trkpt><trkpt lat="43.12161205543865" lon="10.756728796655008"><ele>160.5</ele><time>2026-04-04T10:55:08.998Z</time></trkpt><trkpt lat="43.1215114016458" lon="10.756620120428904"><ele>162.0</ele><time>2026-04-04T10:55:09.998Z</time></trkpt><trkpt lat="43.121413892059294" lon="10.756506538462416"><ele>162.0</ele><time>2026-04-04T10:55:10.998Z</time></trkpt><trkpt lat="43.121323092458915" lon="10.756386820947029"><ele>162.0</ele><time>2026-04-04T10:55:11.998Z</time></trkpt><trkpt lat="43.121236184278004" lon="10.756259928844887"><ele>162.0</ele><time>2026-04-04T10:55:12.998Z</time></trkpt><trkpt lat="43.12114680378489" lon="10.756135670412894"><ele>162.0</ele><time>2026-04-04T10:55:13.998Z</time></trkpt><trkpt lat="43.12106499982388" lon="10.756012038652958"><ele>159.25</ele><time>2026-04-04T10:55:14.998Z</time></trkpt><trkpt lat="43.120985113621614" lon="10.755881205752338"><ele>156.5</ele><time>2026-04-04T10:55:15.998Z</time></trkpt><trkpt lat="43.12091044352061" lon="10.755741835278139"><ele>153.75</ele><time>2026-04-04T10:55:16.998Z</time></trkpt><trkpt lat="43.12083781764183" lon="10.755601010131793"><ele>151.0</ele><time>2026-04-04T10:55:17.998Z</time></trkpt><trkpt lat="43.12076625972245" lon="10.75545730093741"><ele>152.0</ele><time>2026-04-04T10:55:18.998Z</time></trkpt><trkpt lat="43.120696860636194" lon="10.755309873583416"><ele>153.0</ele><time>2026-04-04T10:55:19.998Z</time></trkpt><trkpt lat="43.12063267282118" lon="10.755157532006796"><ele>154.0</ele><time>2026-04-04T10:55:20.998Z</time></trkpt><trkpt lat="43.12057252533985" lon="10.755000957122265"><ele>155.0</ele><time>2026-04-04T10:55:21.998Z</time></trkpt><trkpt lat="43.12051583820621" lon="10.754845918692201"><ele>151.75</ele><time>2026-04-04T10:55:22.998Z</time></trkpt><trkpt lat="43.12046616698598" lon="10.75468823422874"><ele>148.5</ele><time>2026-04-04T10:55:23.998Z</time></trkpt><trkpt lat="43.12042006870492" lon="10.754529976942342"><ele>145.25</ele><time>2026-04-04T10:55:24.998Z</time></trkpt><trkpt lat="43.12037697613488" lon="10.75436595243214"><ele>142.0</ele><time>2026-04-04T10:55:25.998Z</time></trkpt><trkpt lat="43.120335366074514" lon="10.754196887872908"><ele>140.75</ele><time>2026-04-04T10:55:26.999Z</time></trkpt><trkpt lat="43.12029837460306" lon="10.754018366568745"><ele>139.5</ele><time>2026-04-04T10:55:27.999Z</time></trkpt><trkpt lat="43.12025872470618" lon="10.753831053895347"><ele>138.25</ele><time>2026-04-04T10:55:28.999Z</time></trkpt><trkpt lat="43.12022288450773" lon="10.75363755836388"><ele>137.0</ele><time>2026-04-04T10:55:29.999Z</time></trkpt><trkpt lat="43.12019034100765" lon="10.753455142534664"><ele>136.5</ele><time>2026-04-04T10:55:30.999Z</time></trkpt><trkpt lat="43.12016023581258" lon="10.753271715683596"><ele>136.0</ele><time>2026-04-04T10:55:31.999Z</time></trkpt><trkpt lat="43.120136112789524" lon="10.753088509597365"><ele>135.5</ele><time>2026-04-04T10:55:32.999Z</time></trkpt><trkpt lat="43.120108740026694" lon="10.75289273289946"><ele>135.0</ele><time>2026-04-04T10:55:33.999Z</time></trkpt><trkpt lat="43.12008857403831" lon="10.752704364232361"><ele>134.0</ele><time>2026-04-04T10:55:34.999Z</time></trkpt><trkpt lat="43.12007238430507" lon="10.752528164787927"><ele>133.0</ele><time>2026-04-04T10:55:35.999Z</time></trkpt><trkpt lat="43.12005675352501" lon="10.75233930242383"><ele>132.0</ele><time>2026-04-04T10:55:36.999Z</time></trkpt><trkpt lat="43.12004107773245" lon="10.752148806329926"><ele>131.0</ele><time>2026-04-04T10:55:37.999Z</time></trkpt><trkpt lat="43.120028863031585" lon="10.75195227920039"><ele>130.25</ele><time>2026-04-04T10:55:38.999Z</time></trkpt><trkpt lat="43.12002169537148" lon="10.751754616898337"><ele>129.5</ele><time>2026-04-04T10:55:40Z</time></trkpt><trkpt lat="43.12001701188507" lon="10.751575094797653"><ele>128.75</ele><time>2026-04-04T10:55:41Z</time></trkpt><trkpt lat="43.12001510372177" lon="10.751389824409301"><ele>128.0</ele><time>2026-04-04T10:55:42Z</time></trkpt><trkpt lat="43.120014526201665" lon="10.751215291158783"><ele>128.0</ele><time>2026-04-04T10:55:43Z</time></trkpt><trkpt lat="43.12001702791027" lon="10.751045943497848"><ele>128.0</ele><time>2026-04-04T10:55:44Z</time></trkpt><trkpt lat="43.12002173368053" lon="10.750867253586614"><ele>128.0</ele><time>2026-04-04T10:55:45Z</time></trkpt><trkpt lat="43.12003125383626" lon="10.750682087530647"><ele>128.0</ele><time>2026-04-04T10:55:46Z</time></trkpt><trkpt lat="43.120044076236" lon="10.750497318091035"><ele>128.25</ele><time>2026-04-04T10:55:47Z</time></trkpt><trkpt lat="43.120055676713015" lon="10.750307278236146"><ele>128.5</ele><time>2026-04-04T10:55:47.999Z</time></trkpt><trkpt lat="43.12007021041069" lon="10.750116109627704"><ele>128.75</ele><time>2026-04-04T10:55:48.999Z</time></trkpt><trkpt lat="43.12008970045212" lon="10.749937060453506"><ele>129.0</ele><time>2026-04-04T10:55:49.999Z</time></trkpt><trkpt lat="43.12011063889068" lon="10.749754942677122"><ele>129.25</ele><time>2026-04-04T10:55:50.999Z</time></trkpt><trkpt lat="43.12013324420835" lon="10.74957050141278"><ele>129.5</ele><time>2026-04-04T10:55:51.999Z</time></trkpt><trkpt lat="43.12015874425538" lon="10.749385803798011"><ele>129.75</ele><time>2026-04-04T10:55:52.999Z</time></trkpt><trkpt lat="43.1201857742176" lon="10.74919479650266"><ele>130.0</ele><time>2026-04-04T10:55:53.999Z</time></trkpt><trkpt lat="43.12022100834316" lon="10.749002341168506"><ele>131.0</ele><time>2026-04-04T10:55:54.999Z</time></trkpt><trkpt lat="43.12025920904954" lon="10.748816324963268"><ele>132.0</ele><time>2026-04-04T10:55:55.999Z</time></trkpt><trkpt lat="43.12029918104351" lon="10.748628218272744"><ele>133.0</ele><time>2026-04-04T10:55:56.999Z</time></trkpt><trkpt lat="43.1203380879465" lon="10.748434509304074"><ele>134.0</ele><time>2026-04-04T10:55:57.999Z</time></trkpt><trkpt lat="43.120379254848814" lon="10.748251444732428"><ele>134.25</ele><time>2026-04-04T10:55:58.999Z</time></trkpt><trkpt lat="43.12042132348268" lon="10.748075248894024"><ele>134.5</ele><time>2026-04-04T10:55:59.999Z</time></trkpt><trkpt lat="43.120462511585416" lon="10.747894767218726"><ele>134.75</ele><time>2026-04-04T10:56:00.999Z</time></trkpt><trkpt lat="43.12050450198002" lon="10.747717451988166"><ele>135.0</ele><time>2026-04-04T10:56:01.999Z</time></trkpt><trkpt lat="43.12054702036373" lon="10.747552160850637"><ele>133.5</ele><time>2026-04-04T10:56:02.999Z</time></trkpt><trkpt lat="43.12059385737322" lon="10.747372985051722"><ele>132.0</ele><time>2026-04-04T10:56:03.999Z</time></trkpt><trkpt lat="43.12064043080136" lon="10.74718861080829"><ele>130.5</ele><time>2026-04-04T10:56:04.999Z</time></trkpt><trkpt lat="43.12068430406923" lon="10.746995134230248"><ele>129.0</ele><time>2026-04-04T10:56:05.999Z</time></trkpt><trkpt lat="43.12073297055146" lon="10.746788495970293"><ele>121.0</ele><time>2026-04-04T10:56:06.999Z</time></trkpt><trkpt lat="43.120784310302106" lon="10.746585616545914"><ele>113.0</ele><time>2026-04-04T10:56:07.999Z</time></trkpt><trkpt lat="43.120834323994586" lon="10.746392752481094"><ele>105.0</ele><time>2026-04-04T10:56:08.999Z</time></trkpt><trkpt lat="43.12088271842399" lon="10.746202671364678"><ele>105.75</ele><time>2026-04-04T10:56:09.999Z</time></trkpt><trkpt lat="43.12092622162535" lon="10.746038792192023"><ele>106.5</ele><time>2026-04-04T10:56:10.999Z</time></trkpt><trkpt lat="43.12097223443145" lon="10.745869865187759"><ele>107.25</ele><time>2026-04-04T10:56:11.999Z</time></trkpt><trkpt lat="43.12101290324532" lon="10.745727923539208"><ele>108.0</ele><time>2026-04-04T10:56:12.999Z</time></trkpt><trkpt lat="43.12104864503799" lon="10.74559083737909"><ele>108.0</ele><time>2026-04-04T10:56:13.999Z</time></trkpt><trkpt lat="43.121082846352344" lon="10.74546226184272"><ele>108.00000000000001</ele><time>2026-04-04T10:56:14.999Z</time></trkpt><trkpt lat="43.121113642596555" lon="10.745346291172394"><ele>108.00000000000001</ele><time>2026-04-04T10:56:15.999Z</time></trkpt><trkpt lat="43.12114161435486" lon="10.745239370392781"><ele>108.0</ele><time>2026-04-04T10:56:16.999Z</time></trkpt><trkpt lat="43.1211677476758" lon="10.745141703328809"><ele>108.0</ele><time>2026-04-04T10:56:17.999Z</time></trkpt><trkpt lat="43.12120402849186" lon="10.745010144271042"><ele>108.0</ele><time>2026-04-04T10:56:19.999Z</time></trkpt><trkpt lat="43.12123576548246" lon="10.744922668609597"><ele>108.0</ele><time>2026-04-04T10:56:22.999Z</time></trkpt><trkpt lat="43.12125844785155" lon="10.745039268745805"><ele>108.0</ele><time>2026-04-04T10:56:25.999Z</time></trkpt><trkpt lat="43.121256160449875" lon="10.745132652984333"><ele>108.0</ele><time>2026-04-04T10:56:26.999Z</time></trkpt><trkpt lat="43.12127150104421" lon="10.745244781907191"><ele>108.0</ele><time>2026-04-04T10:56:28.999Z</time></trkpt><trkpt lat="43.12126282397259" lon="10.745421061434774"><ele>108.0</ele><time>2026-04-04T10:56:30.999Z</time></trkpt><trkpt lat="43.1212689076848" lon="10.74557351437638"><ele>108.0</ele><time>2026-04-04T10:56:32.999Z</time></trkpt><trkpt lat="43.12130049472477" lon="10.745726363836495"><ele>108.0</ele><time>2026-04-04T10:56:34.999Z</time></trkpt><trkpt lat="43.12132331532191" lon="10.745811226538347"><ele>108.0</ele><time>2026-04-04T10:56:35.999Z</time></trkpt><trkpt lat="43.121357151053246" lon="10.745895527544489"><ele>108.0</ele><time>2026-04-04T10:56:36.999Z</time></trkpt><trkpt lat="43.12140158675838" lon="10.745981935067997"><ele>108.0</ele><time>2026-04-04T10:56:37.999Z</time></trkpt><trkpt lat="43.12145330525389" lon="10.746071562406044"><ele>108.0</ele><time>2026-04-04T10:56:38.999Z</time></trkpt><trkpt lat="43.1215176578457" lon="10.746157601474273"><ele>104.4</ele><time>2026-04-04T10:56:39.999Z</time></trkpt><trkpt lat="43.121593209683354" lon="10.746239081932437"><ele>100.80000000000001</ele><time>2026-04-04T10:56:40.999Z</time></trkpt><trkpt lat="43.121684072373256" lon="10.746307651461839"><ele>97.2</ele><time>2026-04-04T10:56:41.999Z</time></trkpt><trkpt lat="43.121768475519104" lon="10.7463732864097"><ele>93.6</ele><time>2026-04-04T10:56:42.999Z</time></trkpt><trkpt lat="43.12184980643054" lon="10.746438219362087"><ele>90.0</ele><time>2026-04-04T10:56:43.999Z</time></trkpt><trkpt lat="43.121926185991434" lon="10.746497713005375"><ele>90.0</ele><time>2026-04-04T10:56:44.999Z</time></trkpt><trkpt lat="43.12199633636098" lon="10.746552586364558"><ele>90.0</ele><time>2026-04-04T10:56:45.999Z</time></trkpt><trkpt lat="43.122065698433026" lon="10.746604584858229"><ele>90.0</ele><time>2026-04-04T10:56:46.999Z</time></trkpt><trkpt lat="43.12213471698349" lon="10.746651043740506"><ele>90.0</ele><time>2026-04-04T10:56:47.999Z</time></trkpt><trkpt lat="43.12220363837611" lon="10.746689832996616"><ele>90.0</ele><time>2026-04-04T10:56:48.999Z</time></trkpt><trkpt lat="43.12226911645008" lon="10.746721115568374"><ele>90.0</ele><time>2026-04-04T10:56:49.999Z</time></trkpt><trkpt lat="43.12234105105337" lon="10.746740164449825"><ele>89.0</ele><time>2026-04-04T10:56:50.999Z</time></trkpt><trkpt lat="43.122457600326435" lon="10.74672001313889"><ele>88.0</ele><time>2026-04-04T10:56:52.999Z</time></trkpt><trkpt lat="43.12256171322785" lon="10.746708968243624"><ele>87.0</ele><time>2026-04-04T10:56:54.999Z</time></trkpt><trkpt lat="43.1228737552005" lon="10.746700163209233"><ele>87.0</ele><time>2026-04-04T10:56:55.999Z</time></trkpt><trkpt lat="43.122934963829074" lon="10.746835631713992"><ele>87.0</ele><time>2026-04-04T10:56:57.999Z</time></trkpt><trkpt lat="43.12297855875306" lon="10.74693047853043"><ele>87.0</ele><time>2026-04-04T10:56:59.999Z</time></trkpt><trkpt lat="43.12303778949691" lon="10.747055657877599"><ele>87.0</ele><time>2026-04-04T10:57:01.999Z</time></trkpt><trkpt lat="43.12309912804645" lon="10.747190242654447"><ele>87.0</ele><time>2026-04-04T10:57:03.999Z</time></trkpt><trkpt lat="43.12314760278692" lon="10.747303740447236"><ele>87.0</ele><time>2026-04-04T10:57:06.999Z</time></trkpt><trkpt lat="43.12320179551767" lon="10.74744259981353"><ele>87.0</ele><time>2026-04-04T10:57:08.999Z</time></trkpt><trkpt lat="43.12325747193786" lon="10.747563660456274"><ele>87.0</ele><time>2026-04-04T10:57:10.999Z</time></trkpt><trkpt lat="43.12331158871037" lon="10.74761115391749"><ele>87.0</ele><time>2026-04-04T10:57:11.999Z</time></trkpt><trkpt lat="43.12337563866745" lon="10.747653362330288"><ele>87.0</ele><time>2026-04-04T10:57:12.999Z</time></trkpt><trkpt lat="43.12343788054077" lon="10.747707506670636"><ele>87.0</ele><time>2026-04-04T10:57:13.999Z</time></trkpt><trkpt lat="43.12350786244806" lon="10.747770102394677"><ele>87.0</ele><time>2026-04-04T10:57:14.999Z</time></trkpt><trkpt lat="43.12358753457758" lon="10.747838092957155"><ele>87.0</ele><time>2026-04-04T10:57:15.999Z</time></trkpt><trkpt lat="43.123667670964366" lon="10.747907804759427"><ele>87.0</ele><time>2026-04-04T10:57:16.999Z</time></trkpt><trkpt lat="43.12374968666963" lon="10.747979262597795"><ele>87.0</ele><time>2026-04-04T10:57:17.999Z</time></trkpt><trkpt lat="43.12384092645448" lon="10.748058821940571"><ele>87.0</ele><time>2026-04-04T10:57:18.999Z</time></trkpt><trkpt lat="43.12394216259768" lon="10.748140807408875"><ele>87.0</ele><time>2026-04-04T10:57:19.999Z</time></trkpt><trkpt lat="43.124044625029626" lon="10.748223906933989"><ele>87.0</ele><time>2026-04-04T10:57:20.998Z</time></trkpt><trkpt lat="43.12414848139598" lon="10.748308909737506"><ele>87.0</ele><time>2026-04-04T10:57:21.998Z</time></trkpt><trkpt lat="43.12424738592934" lon="10.748400829648137"><ele>87.0</ele><time>2026-04-04T10:57:22.998Z</time></trkpt><trkpt lat="43.124342709349094" lon="10.748482666663342"><ele>87.19999999999999</ele><time>2026-04-04T10:57:23.998Z</time></trkpt><trkpt lat="43.124432555700814" lon="10.748567563723636"><ele>87.4</ele><time>2026-04-04T10:57:24.998Z</time></trkpt><trkpt lat="43.1245166113447" lon="10.74865187672164"><ele>87.6</ele><time>2026-04-04T10:57:25.998Z</time></trkpt><trkpt lat="43.12459218663229" lon="10.748758352628274"><ele>87.80000000000001</ele><time>2026-04-04T10:57:26.998Z</time></trkpt><trkpt lat="43.12465450112518" lon="10.748881727072973"><ele>88.0</ele><time>2026-04-04T10:57:27.998Z</time></trkpt><trkpt lat="43.12470326825716" lon="10.749006084409489"><ele>88.0</ele><time>2026-04-04T10:57:28.998Z</time></trkpt><trkpt lat="43.12476170055744" lon="10.749134892164424"><ele>88.0</ele><time>2026-04-04T10:57:29.998Z</time></trkpt><trkpt lat="43.12482694663875" lon="10.749272139163665"><ele>88.0</ele><time>2026-04-04T10:57:30.998Z</time></trkpt><trkpt lat="43.124883216314345" lon="10.749420415381637"><ele>88.0</ele><time>2026-04-04T10:57:31.998Z</time></trkpt><trkpt lat="43.12495800310443" lon="10.749550484406944"><ele>88.4</ele><time>2026-04-04T10:57:33Z</time></trkpt><trkpt lat="43.125009434271085" lon="10.749688468635114"><ele>88.80000000000001</ele><time>2026-04-04T10:57:34Z</time></trkpt><trkpt lat="43.12505818349049" lon="10.749818806299931"><ele>89.2</ele><time>2026-04-04T10:57:35Z</time></trkpt><trkpt lat="43.12511131214813" lon="10.749930175538857"><ele>89.6</ele><time>2026-04-04T10:57:36Z</time></trkpt><trkpt lat="43.12515098305514" lon="10.750021935084527"><ele>90.0</ele><time>2026-04-04T10:57:37Z</time></trkpt><trkpt lat="43.12521114255048" lon="10.750134468081363"><ele>90.0</ele><time>2026-04-04T10:57:39Z</time></trkpt><trkpt lat="43.125377282941415" lon="10.750103871908273"><ele>90.0</ele><time>2026-04-04T10:57:42Z</time></trkpt><trkpt lat="43.1254293812755" lon="10.750036919701133"><ele>90.0</ele><time>2026-04-04T10:57:43Z</time></trkpt><trkpt lat="43.125492121820564" lon="10.749975157774024"><ele>90.0</ele><time>2026-04-04T10:57:44Z</time></trkpt><trkpt lat="43.12558411381813" lon="10.74990762094811"><ele>90.0</ele><time>2026-04-04T10:57:45Z</time></trkpt><trkpt lat="43.12566827867303" lon="10.749850977959053"><ele>93.8</ele><time>2026-04-04T10:57:46Z</time></trkpt><trkpt lat="43.12575410761175" lon="10.74983292330642"><ele>97.6</ele><time>2026-04-04T10:57:47Z</time></trkpt><trkpt lat="43.125849094244124" lon="10.749795794450275"><ele>101.4</ele><time>2026-04-04T10:57:48Z</time></trkpt><trkpt lat="43.12593553750258" lon="10.74974771030226"><ele>105.2</ele><time>2026-04-04T10:57:49Z</time></trkpt><trkpt lat="43.126037008458894" lon="10.749682728987361"><ele>109.0</ele><time>2026-04-04T10:57:50Z</time></trkpt><trkpt lat="43.12614885172506" lon="10.749611223278688"><ele>109.0</ele><time>2026-04-04T10:57:51Z</time></trkpt><trkpt lat="43.126236118276296" lon="10.7495429576521"><ele>109.0</ele><time>2026-04-04T10:57:52Z</time></trkpt><trkpt lat="43.1263096945187" lon="10.749472829788305"><ele>109.0</ele><time>2026-04-04T10:57:53Z</time></trkpt><trkpt lat="43.12638068152065" lon="10.749444803373386"><ele>109.0</ele><time>2026-04-04T10:57:54Z</time></trkpt><trkpt lat="43.126450653922284" lon="10.74957902346971"><ele>109.0</ele><time>2026-04-04T10:57:56Z</time></trkpt><trkpt lat="43.126467468082275" lon="10.74967383170963"><ele>109.00000000000001</ele><time>2026-04-04T10:57:57Z</time></trkpt><trkpt lat="43.12646477593102" lon="10.749762910561145"><ele>109.0</ele><time>2026-04-04T10:57:58Z</time></trkpt><trkpt lat="43.126475750156764" lon="10.749892394048778"><ele>109.0</ele><time>2026-04-04T10:57:59Z</time></trkpt><trkpt lat="43.12652779458487" lon="10.7500027891521"><ele>109.0</ele><time>2026-04-04T10:58:00Z</time></trkpt><trkpt lat="43.126598363786584" lon="10.7500931425346"><ele>109.00000000000001</ele><time>2026-04-04T10:58:01Z</time></trkpt><trkpt lat="43.12665096040381" lon="10.750153585630308"><ele>109.0</ele><time>2026-04-04T10:58:02Z</time></trkpt><trkpt lat="43.12671104766117" lon="10.750191904725074"><ele>113.2</ele><time>2026-04-04T10:58:03Z</time></trkpt><trkpt lat="43.126826832539514" lon="10.750162445182672"><ele>117.4</ele><time>2026-04-04T10:58:05Z</time></trkpt><trkpt lat="43.1269009198898" lon="10.750081371569518"><ele>121.6</ele><time>2026-04-04T10:58:06Z</time></trkpt><trkpt lat="43.126991394269474" lon="10.749998475559973"><ele>125.8</ele><time>2026-04-04T10:58:07Z</time></trkpt><trkpt lat="43.1270597250459" lon="10.74994068549157"><ele>130.0</ele><time>2026-04-04T10:58:08Z</time></trkpt><trkpt lat="43.127132317289714" lon="10.749896072400734"><ele>130.0</ele><time>2026-04-04T10:58:09Z</time></trkpt><trkpt lat="43.12719745315425" lon="10.74988981715119"><ele>130.0</ele><time>2026-04-04T10:58:10Z</time></trkpt><trkpt lat="43.127281512362835" lon="10.749882633816162"><ele>130.0</ele><time>2026-04-04T10:58:11Z</time></trkpt><trkpt lat="43.127396703385934" lon="10.749901517217848"><ele>130.0</ele><time>2026-04-04T10:58:12Z</time></trkpt><trkpt lat="43.12751537608447" lon="10.750000929694496"><ele>130.0</ele><time>2026-04-04T10:58:13Z</time></trkpt><trkpt lat="43.127639565095464" lon="10.75010069453624"><ele>131.75</ele><time>2026-04-04T10:58:14Z</time></trkpt><trkpt lat="43.1277515738749" lon="10.750174838008796"><ele>133.5</ele><time>2026-04-04T10:58:15Z</time></trkpt><trkpt lat="43.12784820919661" lon="10.750259780562379"><ele>135.25</ele><time>2026-04-04T10:58:16Z</time></trkpt><trkpt lat="43.127938625175275" lon="10.750342052805156"><ele>137.0</ele><time>2026-04-04T10:58:17Z</time></trkpt><trkpt lat="43.12804429045652" lon="10.75036425465917"><ele>137.5</ele><time>2026-04-04T10:58:18Z</time></trkpt><trkpt lat="43.12815528152862" lon="10.750366025012303"><ele>138.0</ele><time>2026-04-04T10:58:19Z</time></trkpt><trkpt lat="43.12828366736798" lon="10.750353865880522"><ele>138.5</ele><time>2026-04-04T10:58:19.999Z</time></trkpt><trkpt lat="43.12840876446988" lon="10.750337809541435"><ele>139.0</ele><time>2026-04-04T10:58:20.999Z</time></trkpt><trkpt lat="43.128544505295466" lon="10.750368704387737"><ele>139.8</ele><time>2026-04-04T10:58:21.999Z</time></trkpt><trkpt lat="43.12866778692773" lon="10.75039575629305"><ele>140.60000000000002</ele><time>2026-04-04T10:58:22.999Z</time></trkpt><trkpt lat="43.12875935313783" lon="10.750453690735075"><ele>141.4</ele><time>2026-04-04T10:58:23.999Z</time></trkpt><trkpt lat="43.12881897682541" lon="10.750522893132175"><ele>142.20000000000002</ele><time>2026-04-04T10:58:24.999Z</time></trkpt><trkpt lat="43.12887587504528" lon="10.750612879770921"><ele>143.0</ele><time>2026-04-04T10:58:25.999Z</time></trkpt><trkpt lat="43.12892911665706" lon="10.750738470976065"><ele>143.0</ele><time>2026-04-04T10:58:26.999Z</time></trkpt><trkpt lat="43.129007988697445" lon="10.750848729712022"><ele>143.0</ele><time>2026-04-04T10:58:27.999Z</time></trkpt><trkpt lat="43.12913725483295" lon="10.750926474391402"><ele>143.0</ele><time>2026-04-04T10:58:28.999Z</time></trkpt><trkpt lat="43.12927644656506" lon="10.751001866451318"><ele>143.0</ele><time>2026-04-04T10:58:29.999Z</time></trkpt><trkpt lat="43.12941011204737" lon="10.751096856078842"><ele>144.0</ele><time>2026-04-04T10:58:30.999Z</time></trkpt><trkpt lat="43.129560616329215" lon="10.751154660859768"><ele>145.0</ele><time>2026-04-04T10:58:31.999Z</time></trkpt><trkpt lat="43.129741008515914" lon="10.751274671481415"><ele>146.0</ele><time>2026-04-04T10:58:32.999Z</time></trkpt><trkpt lat="43.12989647693992" lon="10.751369993179042"><ele>148.4</ele><time>2026-04-04T10:58:33.999Z</time></trkpt><trkpt lat="43.129995550706774" lon="10.751435699043135"><ele>150.8</ele><time>2026-04-04T10:58:34.999Z</time></trkpt><trkpt lat="43.13005981443008" lon="10.751443941333182"><ele>153.20000000000002</ele><time>2026-04-04T10:58:35.999Z</time></trkpt><trkpt lat="43.130185259471986" lon="10.751355984956957"><ele>155.6</ele><time>2026-04-04T10:58:37.999Z</time></trkpt><trkpt lat="43.13027208687511" lon="10.751293841219953"><ele>158.0</ele><time>2026-04-04T10:58:38.999Z</time></trkpt><trkpt lat="43.130361871376195" lon="10.751238812778855"><ele>158.0</ele><time>2026-04-04T10:58:39.999Z</time></trkpt><trkpt lat="43.13043784575698" lon="10.75120256335596"><ele>158.0</ele><time>2026-04-04T10:58:40.999Z</time></trkpt><trkpt lat="43.130503195831" lon="10.751203202943143"><ele>158.0</ele><time>2026-04-04T10:58:41.999Z</time></trkpt><trkpt lat="43.13059974239967" lon="10.751213746720474"><ele>158.0</ele><time>2026-04-04T10:58:42.999Z</time></trkpt><trkpt lat="43.130694566069124" lon="10.7512198532384"><ele>158.0</ele><time>2026-04-04T10:58:43.999Z</time></trkpt><trkpt lat="43.13079067300882" lon="10.751229327162738"><ele>158.0</ele><time>2026-04-04T10:58:44.999Z</time></trkpt><trkpt lat="43.13083818872396" lon="10.751293069874754"><ele>162.5</ele><time>2026-04-04T10:58:45.999Z</time></trkpt><trkpt lat="43.13086038002738" lon="10.751411124113565"><ele>167.0</ele><time>2026-04-04T10:58:46.999Z</time></trkpt><trkpt lat="43.130929579206025" lon="10.75151810680928"><ele>171.5</ele><time>2026-04-04T10:58:47.999Z</time></trkpt><trkpt lat="43.13102020442216" lon="10.751641876598724"><ele>176.0</ele><time>2026-04-04T10:58:48.999Z</time></trkpt><trkpt lat="43.13111154778179" lon="10.75177221687595"><ele>174.75</ele><time>2026-04-04T10:58:49.999Z</time></trkpt><trkpt lat="43.13118507789385" lon="10.751913507309128"><ele>173.5</ele><time>2026-04-04T10:58:50.999Z</time></trkpt><trkpt lat="43.13123389449618" lon="10.752077762141093"><ele>172.25</ele><time>2026-04-04T10:58:51.999Z</time></trkpt><trkpt lat="43.13132980893863" lon="10.75217019037551"><ele>171.0</ele><time>2026-04-04T10:58:52.999Z</time></trkpt><trkpt lat="43.13143580161664" lon="10.75223115567469"><ele>174.75</ele><time>2026-04-04T10:58:53.999Z</time></trkpt><trkpt lat="43.13156058725581" lon="10.752283944254506"><ele>178.5</ele><time>2026-04-04T10:58:54.999Z</time></trkpt><trkpt lat="43.131680771299486" lon="10.752348849286879"><ele>182.25</ele><time>2026-04-04T10:58:55.999Z</time></trkpt><trkpt lat="43.131830850985175" lon="10.75237190559985"><ele>186.0</ele><time>2026-04-04T10:58:56.999Z</time></trkpt><trkpt lat="43.13197005263349" lon="10.75237603539981"><ele>186.0</ele><time>2026-04-04T10:58:57.999Z</time></trkpt><trkpt lat="43.13207527176677" lon="10.75233012569456"><ele>186.0</ele><time>2026-04-04T10:58:58.999Z</time></trkpt><trkpt lat="43.132171779138325" lon="10.752283902023514"><ele>186.0</ele><time>2026-04-04T10:58:59.999Z</time></trkpt><trkpt lat="43.132290208292034" lon="10.752232926531242"><ele>186.0</ele><time>2026-04-04T10:59:00.999Z</time></trkpt><trkpt lat="43.132409429602504" lon="10.752170921269892"><ele>188.75</ele><time>2026-04-04T10:59:01.999Z</time></trkpt><trkpt lat="43.13252998339" lon="10.752091390274034"><ele>191.5</ele><time>2026-04-04T10:59:02.999Z</time></trkpt><trkpt lat="43.1326458474391" lon="10.752041443262295"><ele>194.25</ele><time>2026-04-04T10:59:03.999Z</time></trkpt><trkpt lat="43.132777194307984" lon="10.751979253867699"><ele>197.0</ele><time>2026-04-04T10:59:04.999Z</time></trkpt><trkpt lat="43.132878108850335" lon="10.751926266891425"><ele>197.0</ele><time>2026-04-04T10:59:05.999Z</time></trkpt><trkpt lat="43.132971758535106" lon="10.75188186017189"><ele>197.0</ele><time>2026-04-04T10:59:06.999Z</time></trkpt><trkpt lat="43.13306228832142" lon="10.751844064935785"><ele>197.0</ele><time>2026-04-04T10:59:07.999Z</time></trkpt><trkpt lat="43.133156271375086" lon="10.75184122255094"><ele>197.0</ele><time>2026-04-04T10:59:08.999Z</time></trkpt><trkpt lat="43.133242607359854" lon="10.751886193622642"><ele>197.0</ele><time>2026-04-04T10:59:09.999Z</time></trkpt><trkpt lat="43.13331465157805" lon="10.752011159513115"><ele>198.75</ele><time>2026-04-04T10:59:10.999Z</time></trkpt><trkpt lat="43.13342927098339" lon="10.752085739737629"><ele>200.5</ele><time>2026-04-04T10:59:11.999Z</time></trkpt><trkpt lat="43.133525175639605" lon="10.752174863693353"><ele>202.25</ele><time>2026-04-04T10:59:12.999Z</time></trkpt><trkpt lat="43.133624318628364" lon="10.752234985195845"><ele>204.0</ele><time>2026-04-04T10:59:13.999Z</time></trkpt><trkpt lat="43.13371847726369" lon="10.752287996260169"><ele>204.0</ele><time>2026-04-04T10:59:14.999Z</time></trkpt><trkpt lat="43.13380584376169" lon="10.752352570564563"><ele>204.0</ele><time>2026-04-04T10:59:15.999Z</time></trkpt><trkpt lat="43.13388615021777" lon="10.752388388230708"><ele>204.0</ele><time>2026-04-04T10:59:16.999Z</time></trkpt><trkpt lat="43.13397143636936" lon="10.752415692269208"><ele>204.0</ele><time>2026-04-04T10:59:17.999Z</time></trkpt><trkpt lat="43.13404775600145" lon="10.752469306418758"><ele>204.0</ele><time>2026-04-04T10:59:18.999Z</time></trkpt><trkpt lat="43.13417135164486" lon="10.752483292906014"><ele>204.39999999999998</ele><time>2026-04-04T10:59:20.999Z</time></trkpt><trkpt lat="43.13423026699586" lon="10.752402912441271"><ele>204.8</ele><time>2026-04-04T10:59:21.999Z</time></trkpt><trkpt lat="43.13431055655993" lon="10.752335607159347"><ele>205.2</ele><time>2026-04-04T10:59:22.999Z</time></trkpt><trkpt lat="43.1343885958047" lon="10.752253216652994"><ele>205.60000000000002</ele><time>2026-04-04T10:59:23.999Z</time></trkpt><trkpt lat="43.134487090870415" lon="10.752158991182283"><ele>206.0</ele><time>2026-04-04T10:59:24.999Z</time></trkpt><trkpt lat="43.134547464986014" lon="10.752005452771893"><ele>207.60000000000002</ele><time>2026-04-04T10:59:25.999Z</time></trkpt><trkpt lat="43.13462984125378" lon="10.751872629197155"><ele>209.2</ele><time>2026-04-04T10:59:26.999Z</time></trkpt><trkpt lat="43.13470787789444" lon="10.751764005942515"><ele>210.79999999999998</ele><time>2026-04-04T10:59:27.999Z</time></trkpt><trkpt lat="43.13475445242667" lon="10.751694255684702"><ele>212.39999999999998</ele><time>2026-04-04T10:59:28.999Z</time></trkpt><trkpt lat="43.134828012815994" lon="10.751691762137662"><ele>214.0</ele><time>2026-04-04T10:59:30.999Z</time></trkpt><trkpt lat="43.13494578035974" lon="10.751729392609702"><ele>215.2</ele><time>2026-04-04T10:59:32.999Z</time></trkpt><trkpt lat="43.13504219894588" lon="10.751770920006367"><ele>216.39999999999998</ele><time>2026-04-04T10:59:33.999Z</time></trkpt><trkpt lat="43.13516086163967" lon="10.751814890704422"><ele>217.6</ele><time>2026-04-04T10:59:34.999Z</time></trkpt><trkpt lat="43.135270256530134" lon="10.751838780620101"><ele>218.8</ele><time>2026-04-04T10:59:35.999Z</time></trkpt><trkpt lat="43.13536145634943" lon="10.751872380210425"><ele>220.0</ele><time>2026-04-04T10:59:36.999Z</time></trkpt><trkpt lat="43.13545746030157" lon="10.751847442835661"><ele>220.0</ele><time>2026-04-04T10:59:37.999Z</time></trkpt><trkpt lat="43.135548721787366" lon="10.75175861177034"><ele>220.0</ele><time>2026-04-04T10:59:39Z</time></trkpt><trkpt lat="43.13565989370715" lon="10.751678698965497"><ele>220.0</ele><time>2026-04-04T10:59:40Z</time></trkpt><trkpt lat="43.13575451169296" lon="10.751512631074299"><ele>220.0</ele><time>2026-04-04T10:59:41Z</time></trkpt><trkpt lat="43.135864719461864" lon="10.751331844989581"><ele>220.0</ele><time>2026-04-04T10:59:42Z</time></trkpt><trkpt lat="43.13600180658816" lon="10.751130364056696"><ele>220.0</ele><time>2026-04-04T10:59:43Z</time></trkpt><trkpt lat="43.13614075596764" lon="10.750982282813085"><ele>220.0</ele><time>2026-04-04T10:59:44Z</time></trkpt><trkpt lat="43.13626079537591" lon="10.750842710222319"><ele>223.33333333333331</ele><time>2026-04-04T10:59:45Z</time></trkpt><trkpt lat="43.13637549431864" lon="10.750725053846255"><ele>226.66666666666669</ele><time>2026-04-04T10:59:46Z</time></trkpt><trkpt lat="43.13650103184784" lon="10.750614778747307"><ele>230.0</ele><time>2026-04-04T10:59:47Z</time></trkpt><trkpt lat="43.13664477652526" lon="10.750495975347954"><ele>230.2</ele><time>2026-04-04T10:59:48Z</time></trkpt><trkpt lat="43.13676722762403" lon="10.750385125528494"><ele>230.4</ele><time>2026-04-04T10:59:49Z</time></trkpt><trkpt lat="43.136859167812794" lon="10.750300416455499"><ele>230.60000000000002</ele><time>2026-04-04T10:59:50Z</time></trkpt><trkpt lat="43.13694694446614" lon="10.750247532988285"><ele>230.8</ele><time>2026-04-04T10:59:51Z</time></trkpt><trkpt lat="43.137025833408565" lon="10.750211393162255"><ele>231.0</ele><time>2026-04-04T10:59:52Z</time></trkpt><trkpt lat="43.137122921483694" lon="10.750191229517752"><ele>230.75</ele><time>2026-04-04T10:59:53Z</time></trkpt><trkpt lat="43.1372399356892" lon="10.75015129227436"><ele>230.5</ele><time>2026-04-04T10:59:54Z</time></trkpt><trkpt lat="43.137375704132694" lon="10.750139622874988"><ele>230.25</ele><time>2026-04-04T10:59:55Z</time></trkpt><trkpt lat="43.13748464155358" lon="10.750175805809533"><ele>230.0</ele><time>2026-04-04T10:59:56Z</time></trkpt><trkpt lat="43.13759680991751" lon="10.750228395652996"><ele>230.0</ele><time>2026-04-04T10:59:57Z</time></trkpt><trkpt lat="43.1377228780291" lon="10.750303302389314"><ele>230.0</ele><time>2026-04-04T10:59:58Z</time></trkpt><trkpt lat="43.137865071358725" lon="10.750374532996341"><ele>230.0</ele><time>2026-04-04T10:59:59Z</time></trkpt><trkpt lat="43.13802899905518" lon="10.750467672148492"><ele>230.0</ele><time>2026-04-04T11:00:00Z</time></trkpt><trkpt lat="43.13814648359743" lon="10.75054515446077"><ele>230.0</ele><time>2026-04-04T11:00:01Z</time></trkpt><trkpt lat="43.13824139301879" lon="10.750592842628196"><ele>230.0</ele><time>2026-04-04T11:00:02Z</time></trkpt><trkpt lat="43.13833538401191" lon="10.750628540451961"><ele>230.0</ele><time>2026-04-04T11:00:03Z</time></trkpt><trkpt lat="43.13842240262366" lon="10.750668876678825"><ele>230.0</ele><time>2026-04-04T11:00:04Z</time></trkpt><trkpt lat="43.13851694814901" lon="10.750727091120178"><ele>231.4</ele><time>2026-04-04T11:00:05Z</time></trkpt><trkpt lat="43.138617173209205" lon="10.750781596801087"><ele>232.8</ele><time>2026-04-04T11:00:06Z</time></trkpt><trkpt lat="43.13871149943574" lon="10.750834488146621"><ele>234.2</ele><time>2026-04-04T11:00:07Z</time></trkpt><trkpt lat="43.13880785678624" lon="10.75089411583373"><ele>235.6</ele><time>2026-04-04T11:00:08Z</time></trkpt><trkpt lat="43.13889299668497" lon="10.75095949962094"><ele>237.0</ele><time>2026-04-04T11:00:09Z</time></trkpt><trkpt lat="43.13897595936194" lon="10.75101406382373"><ele>236.39999999999998</ele><time>2026-04-04T11:00:10Z</time></trkpt><trkpt lat="43.13906640336047" lon="10.751077166079652"><ele>235.79999999999998</ele><time>2026-04-04T11:00:11Z</time></trkpt><trkpt lat="43.13915870113582" lon="10.751137935050357"><ele>235.2</ele><time>2026-04-04T11:00:12Z</time></trkpt><trkpt lat="43.139218737001215" lon="10.75119363372306"><ele>234.6</ele><time>2026-04-04T11:00:13Z</time></trkpt><trkpt lat="43.139286098264265" lon="10.751229674697248"><ele>234.0</ele><time>2026-04-04T11:00:14Z</time></trkpt><trkpt lat="43.139402008378546" lon="10.751278778937248"><ele>234.0</ele><time>2026-04-04T11:00:16Z</time></trkpt><trkpt lat="43.13950770254554" lon="10.751301739664854"><ele>234.0</ele><time>2026-04-04T11:00:18Z</time></trkpt><trkpt lat="43.13963102578922" lon="10.751391035517434"><ele>234.0</ele><time>2026-04-04T11:01:35.999Z</time></trkpt><trkpt lat="43.13973203335194" lon="10.751457821086968"><ele>234.0</ele><time>2026-04-04T11:01:36.999Z</time></trkpt><trkpt lat="43.139824022716944" lon="10.751547093479175"><ele>234.6</ele><time>2026-04-04T11:01:37.999Z</time></trkpt><trkpt lat="43.13992189141639" lon="10.751585527901172"><ele>235.2</ele><time>2026-04-04T11:01:38.999Z</time></trkpt><trkpt lat="43.14001991972412" lon="10.75164797613849"><ele>235.79999999999998</ele><time>2026-04-04T11:01:39.999Z</time></trkpt><trkpt lat="43.14011638391217" lon="10.751711013604249"><ele>236.39999999999998</ele><time>2026-04-04T11:01:40.999Z</time></trkpt><trkpt lat="43.14022891974612" lon="10.751769228505038"><ele>237.0</ele><time>2026-04-04T11:01:41.999Z</time></trkpt><trkpt lat="43.14033757483632" lon="10.75182988108537"><ele>236.5</ele><time>2026-04-04T11:01:42.999Z</time></trkpt><trkpt lat="43.14044110332671" lon="10.751925298495781"><ele>236.0</ele><time>2026-04-04T11:01:43.999Z</time></trkpt><trkpt lat="43.14054605115823" lon="10.75201579685786"><ele>235.5</ele><time>2026-04-04T11:01:45Z</time></trkpt><trkpt lat="43.14066813455398" lon="10.752094226824996"><ele>235.0</ele><time>2026-04-04T11:01:46Z</time></trkpt><trkpt lat="43.14079100480376" lon="10.752183661979752"><ele>235.0</ele><time>2026-04-04T11:01:47Z</time></trkpt><trkpt lat="43.14090777484522" lon="10.752231427440039"><ele>235.0</ele><time>2026-04-04T11:01:48Z</time></trkpt><trkpt lat="43.1410076200436" lon="10.752271249973909"><ele>235.0</ele><time>2026-04-04T11:01:49Z</time></trkpt><trkpt lat="43.14109855077706" lon="10.752323746434495"><ele>235.0</ele><time>2026-04-04T11:01:50Z</time></trkpt><trkpt lat="43.14116925014518" lon="10.752364910085673"><ele>235.0</ele><time>2026-04-04T11:01:51Z</time></trkpt><trkpt lat="43.1412301772479" lon="10.752398847867973"><ele>235.0</ele><time>2026-04-04T11:01:52Z</time></trkpt><trkpt lat="43.141333251907994" lon="10.75245863427935"><ele>235.0</ele><time>2026-04-04T11:01:54Z</time></trkpt><trkpt lat="43.14142620709607" lon="10.752491168764239"><ele>235.0</ele><time>2026-04-04T11:01:55Z</time></trkpt><trkpt lat="43.14151343752532" lon="10.752513207264059"><ele>235.0</ele><time>2026-04-04T11:01:56Z</time></trkpt><trkpt lat="43.14158513701264" lon="10.752527667957526"><ele>235.0</ele><time>2026-04-04T11:01:57Z</time></trkpt><trkpt lat="43.141687252734386" lon="10.752547727129002"><ele>237.6</ele><time>2026-04-04T11:01:58Z</time></trkpt><trkpt lat="43.14178190252193" lon="10.752566319715651"><ele>240.2</ele><time>2026-04-04T11:01:59Z</time></trkpt><trkpt lat="43.14188139358051" lon="10.75258891419291"><ele>242.8</ele><time>2026-04-04T11:02:00Z</time></trkpt><trkpt lat="43.14196541645703" lon="10.752610051835688"><ele>245.4</ele><time>2026-04-04T11:02:01Z</time></trkpt><trkpt lat="43.14204020607832" lon="10.752635300201518"><ele>248.0</ele><time>2026-04-04T11:02:02Z</time></trkpt><trkpt lat="43.142128812992404" lon="10.75266998773672"><ele>248.0</ele><time>2026-04-04T11:02:03Z</time></trkpt><trkpt lat="43.14219764950648" lon="10.752699111466042"><ele>248.0</ele><time>2026-04-04T11:02:04Z</time></trkpt><trkpt lat="43.142298301465004" lon="10.752746501665571"><ele>248.0</ele><time>2026-04-04T11:02:05Z</time></trkpt><trkpt lat="43.14237206937333" lon="10.752786434881973"><ele>248.0</ele><time>2026-04-04T11:02:06Z</time></trkpt><trkpt lat="43.14244693067385" lon="10.75284050983229"><ele>248.0</ele><time>2026-04-04T11:02:07Z</time></trkpt><trkpt lat="43.14253377458015" lon="10.75292728666005"><ele>248.8</ele><time>2026-04-04T11:02:08Z</time></trkpt><trkpt lat="43.14261450195167" lon="10.753012144271647"><ele>249.60000000000002</ele><time>2026-04-04T11:02:09Z</time></trkpt><trkpt lat="43.14270797887008" lon="10.753089839878458"><ele>250.39999999999998</ele><time>2026-04-04T11:02:10Z</time></trkpt><trkpt lat="43.14278710987907" lon="10.753146089979431"><ele>251.2</ele><time>2026-04-04T11:02:11Z</time></trkpt><trkpt lat="43.14288235586717" lon="10.753204506625654"><ele>252.0</ele><time>2026-04-04T11:02:12Z</time></trkpt><trkpt lat="43.14298265281928" lon="10.753240180082734"><ele>252.0</ele><time>2026-04-04T11:02:13Z</time></trkpt><trkpt lat="43.143049661840166" lon="10.75325251610593"><ele>252.0</ele><time>2026-04-04T11:02:14Z</time></trkpt><trkpt lat="43.143151175970054" lon="10.753198157389573"><ele>252.0</ele><time>2026-04-04T11:02:16Z</time></trkpt><trkpt lat="43.14318806092455" lon="10.753100477628077"><ele>252.0</ele><time>2026-04-04T11:02:17Z</time></trkpt><trkpt lat="43.143209926273904" lon="10.752992585826526"><ele>252.0</ele><time>2026-04-04T11:02:18Z</time></trkpt><trkpt lat="43.14325486845754" lon="10.752782528852766"><ele>254.0</ele><time>2026-04-04T11:02:20Z</time></trkpt><trkpt lat="43.14327844273923" lon="10.752654718195991"><ele>256.0</ele><time>2026-04-04T11:02:21Z</time></trkpt><trkpt lat="43.1433131788051" lon="10.752468349018955"><ele>258.0</ele><time>2026-04-04T11:02:23Z</time></trkpt><trkpt lat="43.14334377071711" lon="10.752374941845616"><ele>260.0</ele><time>2026-04-04T11:02:24Z</time></trkpt><trkpt lat="43.14338846964038" lon="10.752261785984132"><ele>262.0</ele><time>2026-04-04T11:02:25Z</time></trkpt><trkpt lat="43.14342865098175" lon="10.752173938024066"><ele>262.0</ele><time>2026-04-04T11:02:26Z</time></trkpt><trkpt lat="43.14348707534753" lon="10.752125038512578"><ele>262.0</ele><time>2026-04-04T11:02:27Z</time></trkpt><trkpt lat="43.14354721144921" lon="10.752159555955611"><ele>262.0</ele><time>2026-04-04T11:02:28Z</time></trkpt><trkpt lat="43.143681254494076" lon="10.752182960679507"><ele>262.0</ele><time>2026-04-04T11:02:30Z</time></trkpt><trkpt lat="43.14379164909221" lon="10.752193604299391"><ele>262.0</ele><time>2026-04-04T11:02:31Z</time></trkpt><trkpt lat="43.14389506186273" lon="10.752198483249881"><ele>262.0</ele><time>2026-04-04T11:02:32Z</time></trkpt><trkpt lat="43.1440017685128" lon="10.752198444695345"><ele>262.0</ele><time>2026-04-04T11:02:33Z</time></trkpt><trkpt lat="43.1440918370649" lon="10.752170187285127"><ele>262.0</ele><time>2026-04-04T11:02:34Z</time></trkpt><trkpt lat="43.144182345867186" lon="10.75208033055022"><ele>262.0</ele><time>2026-04-04T11:02:35Z</time></trkpt><trkpt lat="43.144268598253" lon="10.752020761069105"><ele>262.0</ele><time>2026-04-04T11:02:36Z</time></trkpt><trkpt lat="43.14436235413534" lon="10.751921980148863"><ele>263.25</ele><time>2026-04-04T11:02:37Z</time></trkpt><trkpt lat="43.144462684446395" lon="10.751814550042118"><ele>264.5</ele><time>2026-04-04T11:02:38Z</time></trkpt><trkpt lat="43.14456444608207" lon="10.751701388249147"><ele>265.75</ele><time>2026-04-04T11:02:39Z</time></trkpt><trkpt lat="43.14465688406465" lon="10.751598483277574"><ele>267.0</ele><time>2026-04-04T11:02:40Z</time></trkpt><trkpt lat="43.144737814001495" lon="10.751510861586869"><ele>267.0</ele><time>2026-04-04T11:02:41Z</time></trkpt><trkpt lat="43.14480892364843" lon="10.751429792121739"><ele>267.0</ele><time>2026-04-04T11:02:42Z</time></trkpt><trkpt lat="43.14487841287187" lon="10.751370649077812"><ele>267.0</ele><time>2026-04-04T11:02:43Z</time></trkpt><trkpt lat="43.14497346039991" lon="10.751356776003517"><ele>267.0</ele><time>2026-04-04T11:02:44Z</time></trkpt><trkpt lat="43.145074031474344" lon="10.751352656565034"><ele>267.0</ele><time>2026-04-04T11:02:45Z</time></trkpt><trkpt lat="43.145167789600904" lon="10.751357044364426"><ele>268.4</ele><time>2026-04-04T11:02:46Z</time></trkpt><trkpt lat="43.1452512848547" lon="10.751390910433212"><ele>269.79999999999995</ele><time>2026-04-04T11:02:47Z</time></trkpt><trkpt lat="43.145316181886095" lon="10.751456206768143"><ele>271.2</ele><time>2026-04-04T11:02:48Z</time></trkpt><trkpt lat="43.145364912766546" lon="10.751627236067316"><ele>272.59999999999997</ele><time>2026-04-04T11:02:50Z</time></trkpt><trkpt lat="43.1453891840099" lon="10.751766511636015"><ele>274.0</ele><time>2026-04-04T11:02:50.999Z</time></trkpt><trkpt lat="43.14541260214561" lon="10.751917252538513"><ele>275.2</ele><time>2026-04-04T11:02:51.999Z</time></trkpt><trkpt lat="43.14542659593119" lon="10.752076859939454"><ele>276.4</ele><time>2026-04-04T11:02:52.999Z</time></trkpt><trkpt lat="43.14543468349725" lon="10.752223943921491"><ele>277.6</ele><time>2026-04-04T11:02:53.999Z</time></trkpt><trkpt lat="43.14544366041039" lon="10.75236327121337"><ele>278.8</ele><time>2026-04-04T11:02:54.999Z</time></trkpt><trkpt lat="43.1454533686483" lon="10.752504379328604"><ele>280.0</ele><time>2026-04-04T11:02:55.999Z</time></trkpt><trkpt lat="43.14546041582808" lon="10.75261548836108"><ele>280.4</ele><time>2026-04-04T11:02:56.999Z</time></trkpt><trkpt lat="43.14546643979428" lon="10.752743725613772"><ele>280.8</ele><time>2026-04-04T11:02:57.999Z</time></trkpt><trkpt lat="43.14546683073456" lon="10.752867036589889"><ele>281.2</ele><time>2026-04-04T11:02:58.999Z</time></trkpt><trkpt lat="43.14549211030552" lon="10.753031707558847"><ele>281.6</ele><time>2026-04-04T11:02:59.999Z</time></trkpt><trkpt lat="43.14546921944209" lon="10.753179744617938"><ele>282.0</ele><time>2026-04-04T11:03:00.999Z</time></trkpt><trkpt lat="43.1454488116778" lon="10.753303148109046"><ele>282.0</ele><time>2026-04-04T11:03:01.999Z</time></trkpt><trkpt lat="43.145435226951165" lon="10.753431187080295"><ele>282.0</ele><time>2026-04-04T11:03:02.999Z</time></trkpt><trkpt lat="43.14542550113451" lon="10.753531400269281"><ele>282.0</ele><time>2026-04-04T11:03:03.999Z</time></trkpt><trkpt lat="43.145437327556635" lon="10.753663037725662"><ele>282.0</ele><time>2026-04-04T11:03:04.999Z</time></trkpt><trkpt lat="43.14548033172741" lon="10.753772878580698"><ele>282.0</ele><time>2026-04-04T11:03:05.999Z</time></trkpt><trkpt lat="43.14549350100564" lon="10.753899114620216"><ele>282.0</ele><time>2026-04-04T11:03:06.999Z</time></trkpt><trkpt lat="43.145551068128185" lon="10.754014971934751"><ele>281.0</ele><time>2026-04-04T11:03:07.999Z</time></trkpt><trkpt lat="43.14566804255481" lon="10.754054175396924"><ele>280.0</ele><time>2026-04-04T11:03:08.999Z</time></trkpt><trkpt lat="43.14571817407495" lon="10.754145233674155"><ele>279.0</ele><time>2026-04-04T11:03:09.999Z</time></trkpt><trkpt lat="43.14572044160222" lon="10.754232121213375"><ele>278.0</ele><time>2026-04-04T11:03:10.999Z</time></trkpt><trkpt lat="43.14575582792717" lon="10.754305627003982"><ele>277.0</ele><time>2026-04-04T11:03:11.999Z</time></trkpt><trkpt lat="43.14579171414683" lon="10.754404983727724"><ele>276.0</ele><time>2026-04-04T11:03:12.999Z</time></trkpt><trkpt lat="43.145733706498234" lon="10.754270295726345"><ele>276.0</ele><time>2026-04-04T11:03:23.999Z</time></trkpt><trkpt lat="43.14571336255725" lon="10.754136195035239"><ele>276.0</ele><time>2026-04-04T11:03:25.999Z</time></trkpt><trkpt lat="43.14584155812815" lon="10.754154498522539"><ele>276.0</ele><time>2026-04-04T11:03:30.999Z</time></trkpt><trkpt lat="43.14597263295191" lon="10.754480541944341"><ele>276.0</ele><time>2026-04-04T11:03:31.999Z</time></trkpt><trkpt lat="43.1460118324201" lon="10.753666626382554"><ele>275.5</ele><time>2026-04-04T11:03:33.999Z</time></trkpt><trkpt lat="43.14605644701533" lon="10.753492341650087"><ele>275.0</ele><time>2026-04-04T11:03:34.999Z</time></trkpt><trkpt lat="43.14611182345692" lon="10.753317999193778"><ele>274.5</ele><time>2026-04-04T11:03:35.999Z</time></trkpt><trkpt lat="43.14616384278084" lon="10.753177531388845"><ele>274.0</ele><time>2026-04-04T11:03:36.999Z</time></trkpt><trkpt lat="43.146235974081506" lon="10.753067681390617"><ele>274.0</ele><time>2026-04-04T11:03:37.999Z</time></trkpt><trkpt lat="43.14630998724124" lon="10.753016349409885"><ele>274.0</ele><time>2026-04-04T11:03:38.999Z</time></trkpt><trkpt lat="43.14638409028749" lon="10.753005535270757"><ele>274.0</ele><time>2026-04-04T11:03:39.999Z</time></trkpt><trkpt lat="43.146507402380834" lon="10.753099622323479"><ele>274.0</ele><time>2026-04-04T11:03:41.999Z</time></trkpt><trkpt lat="43.14658917780485" lon="10.753200788211764"><ele>274.0</ele><time>2026-04-04T11:03:42.999Z</time></trkpt><trkpt lat="43.146675425885945" lon="10.753324827312891"><ele>273.59999999999997</ele><time>2026-04-04T11:03:43.999Z</time></trkpt><trkpt lat="43.14674889884188" lon="10.753448702150642"><ele>273.2</ele><time>2026-04-04T11:03:44.999Z</time></trkpt><trkpt lat="43.14682002945085" lon="10.753564530836945"><ele>272.79999999999995</ele><time>2026-04-04T11:03:45.999Z</time></trkpt><trkpt lat="43.14689757974712" lon="10.753677048773506"><ele>272.4</ele><time>2026-04-04T11:03:46.999Z</time></trkpt><trkpt lat="43.14697075957361" lon="10.753777082755851"><ele>272.0</ele><time>2026-04-04T11:03:47.999Z</time></trkpt><trkpt lat="43.14702970349643" lon="10.753897516253158"><ele>272.6</ele><time>2026-04-04T11:03:48.999Z</time></trkpt><trkpt lat="43.14708100246258" lon="10.754021472286407"><ele>273.2</ele><time>2026-04-04T11:03:49.999Z</time></trkpt><trkpt lat="43.14714171975405" lon="10.754148218449545"><ele>273.8</ele><time>2026-04-04T11:03:51Z</time></trkpt><trkpt lat="43.147199420303934" lon="10.754258684338245"><ele>274.4</ele><time>2026-04-04T11:03:52Z</time></trkpt><trkpt lat="43.14725400100413" lon="10.75435670732679"><ele>275.0</ele><time>2026-04-04T11:03:53Z</time></trkpt><trkpt lat="43.147333477694275" lon="10.754444248721276"><ele>275.0</ele><time>2026-04-04T11:03:54Z</time></trkpt><trkpt lat="43.14741811775298" lon="10.754533883969364"><ele>275.0</ele><time>2026-04-04T11:03:55Z</time></trkpt><trkpt lat="43.147513613927295" lon="10.754604429133112"><ele>275.0</ele><time>2026-04-04T11:03:56Z</time></trkpt><trkpt lat="43.14761996388546" lon="10.754670048444492"><ele>275.0</ele><time>2026-04-04T11:03:57Z</time></trkpt><trkpt lat="43.147725642853985" lon="10.754720620618373"><ele>275.0</ele><time>2026-04-04T11:03:58Z</time></trkpt><trkpt lat="43.14782438052344" lon="10.754763947665259"><ele>275.0</ele><time>2026-04-04T11:03:59Z</time></trkpt><trkpt lat="43.1479197064647" lon="10.754790608556316"><ele>275.0</ele><time>2026-04-04T11:04:00Z</time></trkpt><trkpt lat="43.14801894691781" lon="10.754803086963953"><ele>275.0</ele><time>2026-04-04T11:04:01Z</time></trkpt><trkpt lat="43.14812727048012" lon="10.75481515806564"><ele>275.0</ele><time>2026-04-04T11:04:02Z</time></trkpt><trkpt lat="43.14823325056787" lon="10.754828402952205"><ele>275.0</ele><time>2026-04-04T11:04:03Z</time></trkpt><trkpt lat="43.14833065541836" lon="10.754851144543833"><ele>274.8</ele><time>2026-04-04T11:04:04Z</time></trkpt><trkpt lat="43.14843065477036" lon="10.75489686319983"><ele>274.6</ele><time>2026-04-04T11:04:05Z</time></trkpt><trkpt lat="43.14851849002019" lon="10.754959105529995"><ele>274.4</ele><time>2026-04-04T11:04:06Z</time></trkpt><trkpt lat="43.14859252263174" lon="10.75498511947563"><ele>274.2</ele><time>2026-04-04T11:04:07Z</time></trkpt><trkpt lat="43.148690416373874" lon="10.75498126173727"><ele>274.0</ele><time>2026-04-04T11:04:08Z</time></trkpt><trkpt lat="43.14879240964243" lon="10.754946457653887"><ele>274.0</ele><time>2026-04-04T11:04:09Z</time></trkpt><trkpt lat="43.14888936711234" lon="10.754880829303204"><ele>274.0</ele><time>2026-04-04T11:04:10Z</time></trkpt><trkpt lat="43.1489753307314" lon="10.754802378353437"><ele>274.0</ele><time>2026-04-04T11:04:11Z</time></trkpt><trkpt lat="43.1490558166395" lon="10.754752609660498"><ele>274.0</ele><time>2026-04-04T11:04:12Z</time></trkpt><trkpt lat="43.149147152044335" lon="10.754730654151235"><ele>274.0</ele><time>2026-04-04T11:04:13Z</time></trkpt><trkpt lat="43.14925403423197" lon="10.754696179378817"><ele>274.4</ele><time>2026-04-04T11:04:14Z</time></trkpt><trkpt lat="43.149352303105786" lon="10.754672094789163"><ele>274.79999999999995</ele><time>2026-04-04T11:04:15Z</time></trkpt><trkpt lat="43.14947317648212" lon="10.754656665331117"><ele>275.20000000000005</ele><time>2026-04-04T11:04:16Z</time></trkpt><trkpt lat="43.14958029395793" lon="10.754649710425578"><ele>275.6</ele><time>2026-04-04T11:04:17Z</time></trkpt><trkpt lat="43.14968862963178" lon="10.754624481021988"><ele>276.0</ele><time>2026-04-04T11:04:18Z</time></trkpt><trkpt lat="43.14980353462215" lon="10.754572298757937"><ele>276.2</ele><time>2026-04-04T11:04:19Z</time></trkpt><trkpt lat="43.149915968261254" lon="10.75451813146006"><ele>276.40000000000003</ele><time>2026-04-04T11:04:20Z</time></trkpt><trkpt lat="43.150015323284194" lon="10.754465200829449"><ele>276.6</ele><time>2026-04-04T11:04:21Z</time></trkpt><trkpt lat="43.1501036380262" lon="10.754409787654293"><ele>276.8</ele><time>2026-04-04T11:04:22Z</time></trkpt><trkpt lat="43.1501826264366" lon="10.754352862744074"><ele>277.0</ele><time>2026-04-04T11:04:23Z</time></trkpt><trkpt lat="43.150272889983725" lon="10.754310502937058"><ele>274.8</ele><time>2026-04-04T11:04:24Z</time></trkpt><trkpt lat="43.150370174566525" lon="10.75428093619109"><ele>272.6</ele><time>2026-04-04T11:04:25Z</time></trkpt><trkpt lat="43.15045705179692" lon="10.75426151916856"><ele>270.40000000000003</ele><time>2026-04-04T11:04:26Z</time></trkpt><trkpt lat="43.150558115373386" lon="10.754237312931131"><ele>268.2</ele><time>2026-04-04T11:04:27Z</time></trkpt><trkpt lat="43.15064987780403" lon="10.754222535563475"><ele>266.0</ele><time>2026-04-04T11:04:28Z</time></trkpt><trkpt lat="43.150755037762835" lon="10.754219560020863"><ele>265.40000000000003</ele><time>2026-04-04T11:04:29Z</time></trkpt><trkpt lat="43.15084714873798" lon="10.754237596209533"><ele>264.8</ele><time>2026-04-04T11:04:30Z</time></trkpt><trkpt lat="43.15093350621916" lon="10.754253187847473"><ele>264.20000000000005</ele><time>2026-04-04T11:04:31Z</time></trkpt><trkpt lat="43.15103303221699" lon="10.754270373638938"><ele>263.6</ele><time>2026-04-04T11:04:32Z</time></trkpt><trkpt lat="43.151124032940324" lon="10.754309496740598"><ele>263.0</ele><time>2026-04-04T11:04:33Z</time></trkpt><trkpt lat="43.15122949255668" lon="10.754349800946756"><ele>263.8</ele><time>2026-04-04T11:04:34Z</time></trkpt><trkpt lat="43.15131998401136" lon="10.754382468940914"><ele>264.6</ele><time>2026-04-04T11:04:35Z</time></trkpt><trkpt lat="43.15141219338806" lon="10.754431424164343"><ele>265.4</ele><time>2026-04-04T11:04:36Z</time></trkpt><trkpt lat="43.151513189281935" lon="10.754479792124497"><ele>266.2</ele><time>2026-04-04T11:04:37Z</time></trkpt><trkpt lat="43.151596433419094" lon="10.754535823478912"><ele>267.0</ele><time>2026-04-04T11:04:38Z</time></trkpt><trkpt lat="43.151679102667096" lon="10.754577793157386"><ele>265.4</ele><time>2026-04-04T11:04:39Z</time></trkpt><trkpt lat="43.151769117641976" lon="10.75462465508773"><ele>263.79999999999995</ele><time>2026-04-04T11:04:40Z</time></trkpt><trkpt lat="43.151847481378866" lon="10.754683114326697"><ele>262.2</ele><time>2026-04-04T11:04:41Z</time></trkpt><trkpt lat="43.151931258026934" lon="10.75474491033265"><ele>260.59999999999997</ele><time>2026-04-04T11:04:42Z</time></trkpt><trkpt lat="43.15201522852361" lon="10.754817459810395"><ele>259.0</ele><time>2026-04-04T11:04:43Z</time></trkpt><trkpt lat="43.152106004107715" lon="10.754878080468455"><ele>259.0</ele><time>2026-04-04T11:04:44Z</time></trkpt><trkpt lat="43.15219264162237" lon="10.754940218173651"><ele>259.0</ele><time>2026-04-04T11:04:45Z</time></trkpt><trkpt lat="43.15228843643918" lon="10.755012119754419"><ele>259.0</ele><time>2026-04-04T11:04:46Z</time></trkpt><trkpt lat="43.152377672196955" lon="10.755072972637423"><ele>259.0</ele><time>2026-04-04T11:04:47Z</time></trkpt><trkpt lat="43.152461156556" lon="10.755129707067255"><ele>259.0</ele><time>2026-04-04T11:04:48Z</time></trkpt><trkpt lat="43.15254191145521" lon="10.75519601082652"><ele>255.83333333333331</ele><time>2026-04-04T11:04:49Z</time></trkpt><trkpt lat="43.15260425375842" lon="10.755275898672453"><ele>252.66666666666666</ele><time>2026-04-04T11:04:50Z</time></trkpt><trkpt lat="43.152675663960586" lon="10.755373322372666"><ele>249.5</ele><time>2026-04-04T11:04:51Z</time></trkpt><trkpt lat="43.15271343833523" lon="10.755478908903168"><ele>246.33333333333331</ele><time>2026-04-04T11:04:52Z</time></trkpt><trkpt lat="43.152758915457866" lon="10.755579004624767"><ele>243.16666666666666</ele><time>2026-04-04T11:04:53Z</time></trkpt><trkpt lat="43.15281881263423" lon="10.755671836533503"><ele>240.0</ele><time>2026-04-04T11:04:54Z</time></trkpt><trkpt lat="43.152916636633186" lon="10.755775413361334"><ele>240.0</ele><time>2026-04-04T11:04:55Z</time></trkpt><trkpt lat="43.15299966294744" lon="10.755840749471222"><ele>240.0</ele><time>2026-04-04T11:04:56Z</time></trkpt><trkpt lat="43.153091917144444" lon="10.75588728126237"><ele>240.0</ele><time>2026-04-04T11:04:57Z</time></trkpt><trkpt lat="43.15319741950179" lon="10.75591290366748"><ele>240.0</ele><time>2026-04-04T11:04:58Z</time></trkpt><trkpt lat="43.153300732722315" lon="10.75593133177644"><ele>240.0</ele><time>2026-04-04T11:04:58.999Z</time></trkpt><trkpt lat="43.15338355640987" lon="10.755971494858247"><ele>238.6</ele><time>2026-04-04T11:04:59.999Z</time></trkpt><trkpt lat="43.15346044355695" lon="10.756020563377588"><ele>237.2</ele><time>2026-04-04T11:05:00.999Z</time></trkpt><trkpt lat="43.1535531251561" lon="10.756069829705368"><ele>235.8</ele><time>2026-04-04T11:05:01.999Z</time></trkpt><trkpt lat="43.15364111701555" lon="10.756113686696862"><ele>234.4</ele><time>2026-04-04T11:05:02.999Z</time></trkpt><trkpt lat="43.153746938210254" lon="10.756140275076902"><ele>233.0</ele><time>2026-04-04T11:05:03.999Z</time></trkpt><trkpt lat="43.1538434559789" lon="10.756168267412951"><ele>232.2</ele><time>2026-04-04T11:05:04.999Z</time></trkpt><trkpt lat="43.153944631458884" lon="10.75620483817709"><ele>231.4</ele><time>2026-04-04T11:05:05.999Z</time></trkpt><trkpt lat="43.154034663906934" lon="10.756249601194924"><ele>230.59999999999997</ele><time>2026-04-04T11:05:06.999Z</time></trkpt><trkpt lat="43.15412684384021" lon="10.756280876124725"><ele>229.79999999999998</ele><time>2026-04-04T11:05:07.999Z</time></trkpt><trkpt lat="43.15423562082871" lon="10.756312978485537"><ele>229.0</ele><time>2026-04-04T11:05:08.999Z</time></trkpt><trkpt lat="43.15434769779032" lon="10.756344090268271"><ele>228.99999999999997</ele><time>2026-04-04T11:05:09.999Z</time></trkpt><trkpt lat="43.15443427645517" lon="10.756373324310848"><ele>229.0</ele><time>2026-04-04T11:05:10.999Z</time></trkpt><trkpt lat="43.15450888684017" lon="10.756395426593754"><ele>229.0</ele><time>2026-04-04T11:05:11.999Z</time></trkpt><trkpt lat="43.15457476562169" lon="10.756447733762457"><ele>229.0</ele><time>2026-04-04T11:05:12.999Z</time></trkpt><trkpt lat="43.15462490903877" lon="10.756539544284534"><ele>228.99999999999997</ele><time>2026-04-04T11:05:13.999Z</time></trkpt><trkpt lat="43.15467815729778" lon="10.756649032421825"><ele>229.0</ele><time>2026-04-04T11:05:14.999Z</time></trkpt><trkpt lat="43.15472382389032" lon="10.756749957241661"><ele>229.0</ele><time>2026-04-04T11:05:15.999Z</time></trkpt><trkpt lat="43.15477826254269" lon="10.75685522891291"><ele>228.99999999999997</ele><time>2026-04-04T11:05:16.999Z</time></trkpt><trkpt lat="43.15483418260855" lon="10.756951212266157"><ele>228.99999999999997</ele><time>2026-04-04T11:05:17.999Z</time></trkpt><trkpt lat="43.154881501466654" lon="10.757057550154824"><ele>229.0</ele><time>2026-04-04T11:05:18.999Z</time></trkpt><trkpt lat="43.15491263871197" lon="10.757171631052238"><ele>229.0</ele><time>2026-04-04T11:05:19.999Z</time></trkpt><trkpt lat="43.15494896814574" lon="10.757321857245058"><ele>231.2</ele><time>2026-04-04T11:05:20.999Z</time></trkpt><trkpt lat="43.154994236659036" lon="10.757451957714784"><ele>233.39999999999998</ele><time>2026-04-04T11:05:21.999Z</time></trkpt><trkpt lat="43.15503054001444" lon="10.75752438132043"><ele>235.6</ele><time>2026-04-04T11:05:22.999Z</time></trkpt><trkpt lat="43.155060788101885" lon="10.757624243179402"><ele>237.8</ele><time>2026-04-04T11:05:23.999Z</time></trkpt><trkpt lat="43.15510065581726" lon="10.757713788447948"><ele>240.0</ele><time>2026-04-04T11:05:24.999Z</time></trkpt><trkpt lat="43.15521280743666" lon="10.757805818037555"><ele>240.0</ele><time>2026-04-04T11:05:26.999Z</time></trkpt><trkpt lat="43.15528743980661" lon="10.757831770164936"><ele>240.0</ele><time>2026-04-04T11:05:27.999Z</time></trkpt><trkpt lat="43.1553639301949" lon="10.757844142895234"><ele>240.0</ele><time>2026-04-04T11:05:28.999Z</time></trkpt><trkpt lat="43.15545088187758" lon="10.75786250891338"><ele>240.0</ele><time>2026-04-04T11:05:29.999Z</time></trkpt><trkpt lat="43.15552787152759" lon="10.757863020828127"><ele>240.0</ele><time>2026-04-04T11:05:30.999Z</time></trkpt><trkpt lat="43.155627854723946" lon="10.757849620227182"><ele>240.0</ele><time>2026-04-04T11:05:31.999Z</time></trkpt><trkpt lat="43.15571230980514" lon="10.757831142787325"><ele>244.2</ele><time>2026-04-04T11:05:32.999Z</time></trkpt><trkpt lat="43.155799626854225" lon="10.757800675610772"><ele>248.4</ele><time>2026-04-04T11:05:33.999Z</time></trkpt><trkpt lat="43.15588800557059" lon="10.7577695376057"><ele>252.60000000000002</ele><time>2026-04-04T11:05:34.999Z</time></trkpt><trkpt lat="43.155990211676915" lon="10.75774883803261"><ele>256.8</ele><time>2026-04-04T11:05:35.999Z</time></trkpt><trkpt lat="43.1560771470819" lon="10.757732105508031"><ele>261.0</ele><time>2026-04-04T11:05:36.999Z</time></trkpt><trkpt lat="43.156156387691446" lon="10.75774185533996"><ele>261.0</ele><time>2026-04-04T11:05:37.999Z</time></trkpt><trkpt lat="43.156223069370476" lon="10.757769892189174"><ele>261.0</ele><time>2026-04-04T11:05:38.999Z</time></trkpt><trkpt lat="43.15634107525727" lon="10.75793115849925"><ele>261.0</ele><time>2026-04-04T11:05:40.999Z</time></trkpt><trkpt lat="43.156409895579685" lon="10.758049470809771"><ele>261.0</ele><time>2026-04-04T11:05:41.999Z</time></trkpt><trkpt lat="43.15647996954941" lon="10.758156760932255"><ele>264.0</ele><time>2026-04-04T11:05:42.999Z</time></trkpt><trkpt lat="43.15655108371567" lon="10.758275173492002"><ele>267.0</ele><time>2026-04-04T11:05:43.999Z</time></trkpt><trkpt lat="43.15662250788521" lon="10.758427526136273"><ele>270.0</ele><time>2026-04-04T11:05:44.999Z</time></trkpt><trkpt lat="43.15668796676801" lon="10.758574994353763"><ele>273.0</ele><time>2026-04-04T11:05:45.999Z</time></trkpt><trkpt lat="43.15673784066315" lon="10.75870341306974"><ele>273.0</ele><time>2026-04-04T11:05:46.999Z</time></trkpt><trkpt lat="43.156771655690086" lon="10.75884661254905"><ele>273.0</ele><time>2026-04-04T11:05:47.999Z</time></trkpt><trkpt lat="43.15680721522591" lon="10.758986415040633"><ele>273.0</ele><time>2026-04-04T11:05:48.999Z</time></trkpt><trkpt lat="43.15684605382516" lon="10.75913236210443"><ele>273.0</ele><time>2026-04-04T11:05:49.999Z</time></trkpt><trkpt lat="43.1568689700156" lon="10.759270762749704"><ele>273.0</ele><time>2026-04-04T11:05:50.999Z</time></trkpt><trkpt lat="43.1568931185244" lon="10.759397111551424"><ele>273.0</ele><time>2026-04-04T11:05:51.999Z</time></trkpt><trkpt lat="43.15692185471645" lon="10.759518746911693"><ele>273.0</ele><time>2026-04-04T11:05:52.999Z</time></trkpt><trkpt lat="43.15696092684642" lon="10.759621374132617"><ele>273.0</ele><time>2026-04-04T11:05:53.999Z</time></trkpt><trkpt lat="43.15702232271975" lon="10.75969815630257"><ele>273.0</ele><time>2026-04-04T11:05:54.999Z</time></trkpt><trkpt lat="43.15710500736464" lon="10.759759545269935"><ele>273.0</ele><time>2026-04-04T11:05:55.999Z</time></trkpt><trkpt lat="43.15717505253922" lon="10.759783838973611"><ele>273.0</ele><time>2026-04-04T11:05:57.001Z</time></trkpt><trkpt lat="43.157270940917236" lon="10.759786973206884"><ele>274.5</ele><time>2026-04-04T11:05:58.001Z</time></trkpt><trkpt lat="43.157385448548624" lon="10.759780131920957"><ele>276.0</ele><time>2026-04-04T11:05:59.001Z</time></trkpt><trkpt lat="43.157496693353096" lon="10.759769743927308"><ele>277.5</ele><time>2026-04-04T11:06:00.001Z</time></trkpt><trkpt lat="43.15761289453328" lon="10.759778192261262"><ele>279.0</ele><time>2026-04-04T11:06:01.001Z</time></trkpt><trkpt lat="43.15771958997007" lon="10.759816947672743"><ele>279.0</ele><time>2026-04-04T11:06:02.001Z</time></trkpt><trkpt lat="43.15781283236575" lon="10.759866830132296"><ele>279.0</ele><time>2026-04-04T11:06:03Z</time></trkpt><trkpt lat="43.157892610558235" lon="10.759894779663583"><ele>279.0</ele><time>2026-04-04T11:06:04Z</time></trkpt><trkpt lat="43.157970011602515" lon="10.75996718825856"><ele>279.0</ele><time>2026-04-04T11:06:05Z</time></trkpt><trkpt lat="43.15802764230661" lon="10.76006778572401"><ele>279.0</ele><time>2026-04-04T11:06:06Z</time></trkpt><trkpt lat="43.158078946362416" lon="10.76018467481738"><ele>278.5</ele><time>2026-04-04T11:06:07Z</time></trkpt><trkpt lat="43.15812773102577" lon="10.7603223987448"><ele>278.0</ele><time>2026-04-04T11:06:08Z</time></trkpt><trkpt lat="43.15816697209473" lon="10.760448656672981"><ele>277.5</ele><time>2026-04-04T11:06:09Z</time></trkpt><trkpt lat="43.15817927367365" lon="10.76057349378043"><ele>277.0</ele><time>2026-04-04T11:06:10Z</time></trkpt><trkpt lat="43.15820727328767" lon="10.760665306171607"><ele>276.5</ele><time>2026-04-04T11:06:11Z</time></trkpt><trkpt lat="43.15826193630789" lon="10.760720529300807"><ele>276.0</ele><time>2026-04-04T11:06:12Z</time></trkpt><trkpt lat="43.15832513163215" lon="10.760755861717904"><ele>278.0</ele><time>2026-04-04T11:06:13Z</time></trkpt><trkpt lat="43.15840081885678" lon="10.760748295030597"><ele>280.0</ele><time>2026-04-04T11:06:14Z</time></trkpt><trkpt lat="43.15846538577244" lon="10.760707440174421"><ele>282.0</ele><time>2026-04-04T11:06:15Z</time></trkpt><trkpt lat="43.15854738007799" lon="10.760612504748499"><ele>284.0</ele><time>2026-04-04T11:06:16Z</time></trkpt><trkpt lat="43.15863198988812" lon="10.760532834488513"><ele>286.0</ele><time>2026-04-04T11:06:17Z</time></trkpt><trkpt lat="43.15870421202461" lon="10.760453094686616"><ele>286.0</ele><time>2026-04-04T11:06:18Z</time></trkpt><trkpt lat="43.15878660291438" lon="10.760392821435222"><ele>286.0</ele><time>2026-04-04T11:06:19Z</time></trkpt><trkpt lat="43.158874659053176" lon="10.760350134019589"><ele>286.0</ele><time>2026-04-04T11:06:20Z</time></trkpt><trkpt lat="43.158960171972126" lon="10.760335329310768"><ele>286.0</ele><time>2026-04-04T11:06:21Z</time></trkpt><trkpt lat="43.15905094874064" lon="10.760365862866943"><ele>286.0</ele><time>2026-04-04T11:06:22Z</time></trkpt><trkpt lat="43.159140108194485" lon="10.760394848948247"><ele>284.0</ele><time>2026-04-04T11:06:23Z</time></trkpt><trkpt lat="43.15924477781071" lon="10.760429016129587"><ele>282.0</ele><time>2026-04-04T11:06:24Z</time></trkpt><trkpt lat="43.159370109822504" lon="10.760428651526677"><ele>280.0</ele><time>2026-04-04T11:06:25Z</time></trkpt><trkpt lat="43.1595105078026" lon="10.760418022195095"><ele>278.0</ele><time>2026-04-04T11:06:26Z</time></trkpt><trkpt lat="43.159643231609564" lon="10.76039780663284"><ele>278.0</ele><time>2026-04-04T11:06:27Z</time></trkpt><trkpt lat="43.15978125786963" lon="10.76037301485362"><ele>278.0</ele><time>2026-04-04T11:06:28Z</time></trkpt><trkpt lat="43.159888650975226" lon="10.760334691649893"><ele>278.0</ele><time>2026-04-04T11:06:29Z</time></trkpt><trkpt lat="43.16001986041151" lon="10.760291892320557"><ele>278.0</ele><time>2026-04-04T11:06:30Z</time></trkpt><trkpt lat="43.160120874249934" lon="10.760274690168687"><ele>276.0</ele><time>2026-04-04T11:06:31Z</time></trkpt><trkpt lat="43.16021146273406" lon="10.760255613649594"><ele>274.0</ele><time>2026-04-04T11:06:32Z</time></trkpt><trkpt lat="43.16032035964676" lon="10.760249399549547"><ele>272.0</ele><time>2026-04-04T11:06:33Z</time></trkpt><trkpt lat="43.16042239378089" lon="10.760290048570496"><ele>270.0</ele><time>2026-04-04T11:06:34Z</time></trkpt><trkpt lat="43.16052026840557" lon="10.760334013025416"><ele>268.0</ele><time>2026-04-04T11:06:35Z</time></trkpt><trkpt lat="43.16061089119814" lon="10.760380882701195"><ele>267.5</ele><time>2026-04-04T11:06:36Z</time></trkpt><trkpt lat="43.16073176423925" lon="10.760424808500007"><ele>267.0</ele><time>2026-04-04T11:06:37Z</time></trkpt><trkpt lat="43.16086198498267" lon="10.760491841833954"><ele>266.5</ele><time>2026-04-04T11:06:38Z</time></trkpt><trkpt lat="43.16096984779556" lon="10.760567833192026"><ele>266.0</ele><time>2026-04-04T11:06:39Z</time></trkpt><trkpt lat="43.161074758418756" lon="10.760641374969719"><ele>266.0</ele><time>2026-04-04T11:06:40Z</time></trkpt><trkpt lat="43.16115626982011" lon="10.760718909524455"><ele>266.0</ele><time>2026-04-04T11:06:41Z</time></trkpt><trkpt lat="43.16125348940357" lon="10.760802539324493"><ele>266.0</ele><time>2026-04-04T11:06:42Z</time></trkpt><trkpt lat="43.16134712885648" lon="10.760876048396682"><ele>266.0</ele><time>2026-04-04T11:06:43Z</time></trkpt><trkpt lat="43.16143874544132" lon="10.760946755150421"><ele>266.0</ele><time>2026-04-04T11:06:44Z</time></trkpt><trkpt lat="43.1615272348926" lon="10.761007165165234"><ele>266.33333333333337</ele><time>2026-04-04T11:06:45Z</time></trkpt><trkpt lat="43.161600893230876" lon="10.7610505670858"><ele>266.6666666666667</ele><time>2026-04-04T11:06:46Z</time></trkpt><trkpt lat="43.16167323225544" lon="10.761072806498094"><ele>267.0</ele><time>2026-04-04T11:06:47Z</time></trkpt><trkpt lat="43.16176332586029" lon="10.76106099093479"><ele>267.3333333333333</ele><time>2026-04-04T11:06:48Z</time></trkpt><trkpt lat="43.161853877972604" lon="10.761027306110314"><ele>267.66666666666663</ele><time>2026-04-04T11:06:49Z</time></trkpt><trkpt lat="43.161952208619006" lon="10.761009288801917"><ele>268.0</ele><time>2026-04-04T11:06:50Z</time></trkpt><trkpt lat="43.16205329372867" lon="10.76099343949448"><ele>268.0</ele><time>2026-04-04T11:06:51Z</time></trkpt><trkpt lat="43.16213484803851" lon="10.760974430912796"><ele>268.0</ele><time>2026-04-04T11:06:52Z</time></trkpt><trkpt lat="43.16222486215498" lon="10.760975231348178"><ele>268.0</ele><time>2026-04-04T11:06:53Z</time></trkpt><trkpt lat="43.16232065067102" lon="10.761004217736605"><ele>268.0</ele><time>2026-04-04T11:06:53.999Z</time></trkpt><trkpt lat="43.16243112707165" lon="10.761032327313838"><ele>268.0</ele><time>2026-04-04T11:06:54.999Z</time></trkpt><trkpt lat="43.16254735418153" lon="10.761055738994601"><ele>268.0</ele><time>2026-04-04T11:06:55.999Z</time></trkpt><trkpt lat="43.16265971736457" lon="10.761076245501458"><ele>268.0</ele><time>2026-04-04T11:06:56.999Z</time></trkpt><trkpt lat="43.16276828102977" lon="10.761106730950766"><ele>268.0</ele><time>2026-04-04T11:06:57.999Z</time></trkpt><trkpt lat="43.162864036882425" lon="10.761148099729361"><ele>268.0</ele><time>2026-04-04T11:06:58.999Z</time></trkpt><trkpt lat="43.16296528907781" lon="10.7611899042604"><ele>268.0</ele><time>2026-04-04T11:06:59.999Z</time></trkpt><trkpt lat="43.16305449540857" lon="10.761230782952941"><ele>268.0</ele><time>2026-04-04T11:07:00.999Z</time></trkpt><trkpt lat="43.16311405378097" lon="10.761285483155305"><ele>268.0</ele><time>2026-04-04T11:07:01.999Z</time></trkpt><trkpt lat="43.163152454121715" lon="10.761363923313207"><ele>268.0</ele><time>2026-04-04T11:07:03.999Z</time></trkpt><trkpt lat="43.16318624042699" lon="10.761442415936711"><ele>268.0</ele><time>2026-04-04T11:07:04.999Z</time></trkpt><trkpt lat="43.16324149990776" lon="10.761519132038012"><ele>268.0</ele><time>2026-04-04T11:07:05.999Z</time></trkpt><trkpt lat="43.16328942728636" lon="10.761617537558353"><ele>268.0</ele><time>2026-04-04T11:07:06.999Z</time></trkpt><trkpt lat="43.163328569869584" lon="10.761711462530855"><ele>266.8333333333333</ele><time>2026-04-04T11:07:07.999Z</time></trkpt><trkpt lat="43.16335646490277" lon="10.761802518605041"><ele>265.66666666666663</ele><time>2026-04-04T11:07:08.999Z</time></trkpt><trkpt lat="43.16339670361437" lon="10.761928102728755"><ele>264.5</ele><time>2026-04-04T11:07:09.999Z</time></trkpt><trkpt lat="43.16344890520226" lon="10.762023907791088"><ele>263.3333333333333</ele><time>2026-04-04T11:07:10.999Z</time></trkpt><trkpt lat="43.16350866859858" lon="10.76210479246515"><ele>262.1666666666667</ele><time>2026-04-04T11:07:11.999Z</time></trkpt><trkpt lat="43.16356534878766" lon="10.76217550542752"><ele>261.0</ele><time>2026-04-04T11:07:12.999Z</time></trkpt><trkpt lat="43.16364638253653" lon="10.762247238639862"><ele>261.0</ele><time>2026-04-04T11:07:14.999Z</time></trkpt><trkpt lat="43.16371369695043" lon="10.762304244279226"><ele>261.0</ele><time>2026-04-04T11:07:15.999Z</time></trkpt><trkpt lat="43.16377417770942" lon="10.762336410719334"><ele>261.0</ele><time>2026-04-04T11:07:16.999Z</time></trkpt><trkpt lat="43.16386522582246" lon="10.76234653451446"><ele>261.0</ele><time>2026-04-04T11:07:17.999Z</time></trkpt><trkpt lat="43.16397931466342" lon="10.76235098744384"><ele>261.0</ele><time>2026-04-04T11:07:18.999Z</time></trkpt><trkpt lat="43.16408594170092" lon="10.762350727987553"><ele>260.6</ele><time>2026-04-04T11:07:19.999Z</time></trkpt><trkpt lat="43.164197930684004" lon="10.762332651733654"><ele>260.20000000000005</ele><time>2026-04-04T11:07:20.999Z</time></trkpt><trkpt lat="43.1642930044128" lon="10.762295933113483"><ele>259.79999999999995</ele><time>2026-04-04T11:07:21.999Z</time></trkpt><trkpt lat="43.16439273008028" lon="10.762258376555835"><ele>259.4</ele><time>2026-04-04T11:07:22.999Z</time></trkpt><trkpt lat="43.16447212713801" lon="10.762263884219854"><ele>259.0</ele><time>2026-04-04T11:07:23.999Z</time></trkpt><trkpt lat="43.16454886007201" lon="10.762307177358077"><ele>259.0</ele><time>2026-04-04T11:07:24.999Z</time></trkpt><trkpt lat="43.16462666217346" lon="10.762369198857655"><ele>259.0</ele><time>2026-04-04T11:07:25.999Z</time></trkpt><trkpt lat="43.164726770650546" lon="10.762463503893056"><ele>259.0</ele><time>2026-04-04T11:07:26.999Z</time></trkpt><trkpt lat="43.16484043534297" lon="10.762562828443034"><ele>259.0</ele><time>2026-04-04T11:07:27.999Z</time></trkpt><trkpt lat="43.16496549044751" lon="10.762651174822249"><ele>261.5</ele><time>2026-04-04T11:07:28.999Z</time></trkpt><trkpt lat="43.16507768645729" lon="10.76270288359609"><ele>264.0</ele><time>2026-04-04T11:07:29.999Z</time></trkpt><trkpt lat="43.16518214565308" lon="10.762764806658643"><ele>266.5</ele><time>2026-04-04T11:07:30.999Z</time></trkpt><trkpt lat="43.16530248288909" lon="10.7628105997293"><ele>269.0</ele><time>2026-04-04T11:07:31.999Z</time></trkpt><trkpt lat="43.165423192454575" lon="10.762826953428476"><ele>269.0</ele><time>2026-04-04T11:07:32.999Z</time></trkpt><trkpt lat="43.16555141563457" lon="10.762828207279853"><ele>269.0</ele><time>2026-04-04T11:07:33.999Z</time></trkpt><trkpt lat="43.165670354177806" lon="10.762831513241693"><ele>269.0</ele><time>2026-04-04T11:07:34.999Z</time></trkpt><trkpt lat="43.16579119346651" lon="10.762838597448846"><ele>269.0</ele><time>2026-04-04T11:07:35.999Z</time></trkpt><trkpt lat="43.16592045464802" lon="10.762840963335444"><ele>271.25</ele><time>2026-04-04T11:07:36.999Z</time></trkpt><trkpt lat="43.16607294908206" lon="10.762839266750014"><ele>273.5</ele><time>2026-04-04T11:07:37.999Z</time></trkpt><trkpt lat="43.16619261195399" lon="10.762801625067697"><ele>275.75</ele><time>2026-04-04T11:07:38.999Z</time></trkpt><trkpt lat="43.166287860914764" lon="10.762777805688993"><ele>278.0</ele><time>2026-04-04T11:07:39.999Z</time></trkpt><trkpt lat="43.16638460832708" lon="10.762771648222909"><ele>278.0</ele><time>2026-04-04T11:07:40.999Z</time></trkpt><trkpt lat="43.16646627719827" lon="10.762802482204766"><ele>278.0</ele><time>2026-04-04T11:07:41.999Z</time></trkpt><trkpt lat="43.16655544110581" lon="10.76287009817577"><ele>278.0</ele><time>2026-04-04T11:07:42.999Z</time></trkpt><trkpt lat="43.16664466608799" lon="10.762967923668578"><ele>278.0</ele><time>2026-04-04T11:07:43.999Z</time></trkpt><trkpt lat="43.1667286079189" lon="10.76309445719664"><ele>278.0</ele><time>2026-04-04T11:07:44.999Z</time></trkpt><trkpt lat="43.16682210577342" lon="10.763225125326981"><ele>280.0</ele><time>2026-04-04T11:07:45.999Z</time></trkpt><trkpt lat="43.166883158065616" lon="10.763324990781015"><ele>282.0</ele><time>2026-04-04T11:07:46.999Z</time></trkpt><trkpt lat="43.166942521091514" lon="10.763412469199169"><ele>284.0</ele><time>2026-04-04T11:07:47.999Z</time></trkpt><trkpt lat="43.167009274883206" lon="10.763470614659376"><ele>286.0</ele><time>2026-04-04T11:07:48.999Z</time></trkpt><trkpt lat="43.1671114805435" lon="10.763524344547767"><ele>288.0</ele><time>2026-04-04T11:07:49.999Z</time></trkpt><trkpt lat="43.16723460793603" lon="10.763565567771067"><ele>291.3333333333333</ele><time>2026-04-04T11:07:50.999Z</time></trkpt><trkpt lat="43.16737885450545" lon="10.76358540762603"><ele>294.66666666666663</ele><time>2026-04-04T11:07:51.999Z</time></trkpt><trkpt lat="43.16753503834171" lon="10.763617385212273"><ele>298.0</ele><time>2026-04-04T11:07:52.999Z</time></trkpt><trkpt lat="43.167705853895995" lon="10.763653986440818"><ele>298.0</ele><time>2026-04-04T11:07:53.999Z</time></trkpt><trkpt lat="43.167853637973444" lon="10.763682457962508"><ele>298.0</ele><time>2026-04-04T11:07:54.999Z</time></trkpt><trkpt lat="43.16801812181545" lon="10.763684293474137"><ele>298.0</ele><time>2026-04-04T11:07:55.999Z</time></trkpt><trkpt lat="43.16818487940575" lon="10.763690608863547"><ele>299.0</ele><time>2026-04-04T11:07:56.999Z</time></trkpt><trkpt lat="43.16832054004704" lon="10.763703127196651"><ele>300.0</ele><time>2026-04-04T11:07:57.999Z</time></trkpt><trkpt lat="43.1684641589899" lon="10.763738814792069"><ele>301.0</ele><time>2026-04-04T11:07:58.998Z</time></trkpt><trkpt lat="43.16858323910647" lon="10.763764216616634"><ele>302.0</ele><time>2026-04-04T11:07:59.998Z</time></trkpt><trkpt lat="43.16867716772898" lon="10.76377249841795"><ele>302.0</ele><time>2026-04-04T11:08:00.998Z</time></trkpt><trkpt lat="43.16877193809311" lon="10.76379783919782"><ele>302.0</ele><time>2026-04-04T11:08:01.998Z</time></trkpt><trkpt lat="43.16887419201666" lon="10.763816446845038"><ele>302.0</ele><time>2026-04-04T11:08:03Z</time></trkpt><trkpt lat="43.16896887566691" lon="10.763812569994691"><ele>302.0</ele><time>2026-04-04T11:08:04Z</time></trkpt><trkpt lat="43.16906312841602" lon="10.76379331851145"><ele>302.0</ele><time>2026-04-04T11:08:05Z</time></trkpt><trkpt lat="43.169151901208465" lon="10.763779774369182"><ele>303.4</ele><time>2026-04-04T11:08:06Z</time></trkpt><trkpt lat="43.16924848124389" lon="10.763751479475445"><ele>304.79999999999995</ele><time>2026-04-04T11:08:07Z</time></trkpt><trkpt lat="43.16933349071323" lon="10.763744640087396"><ele>306.2</ele><time>2026-04-04T11:08:08Z</time></trkpt><trkpt lat="43.169435753401814" lon="10.763714121163577"><ele>307.59999999999997</ele><time>2026-04-04T11:08:09Z</time></trkpt><trkpt lat="43.16952188797131" lon="10.763709349100715"><ele>309.0</ele><time>2026-04-04T11:08:10Z</time></trkpt><trkpt lat="43.16961097619627" lon="10.7636923527406"><ele>309.0</ele><time>2026-04-04T11:08:11Z</time></trkpt><trkpt lat="43.169679499260674" lon="10.76366518536965"><ele>309.0</ele><time>2026-04-04T11:08:12Z</time></trkpt><trkpt lat="43.16976779255639" lon="10.763637159094714"><ele>309.0</ele><time>2026-04-04T11:08:13Z</time></trkpt><trkpt lat="43.16984070542351" lon="10.763649884097381"><ele>309.0</ele><time>2026-04-04T11:08:14Z</time></trkpt><trkpt lat="43.16992523498657" lon="10.76365079757706"><ele>309.0</ele><time>2026-04-04T11:08:15Z</time></trkpt><trkpt lat="43.170015527292385" lon="10.76364393972186"><ele>309.0</ele><time>2026-04-04T11:08:16Z</time></trkpt><trkpt lat="43.17009713329127" lon="10.763648212262035"><ele>309.3333333333333</ele><time>2026-04-04T11:08:17Z</time></trkpt><trkpt lat="43.170189947570655" lon="10.763651392900941"><ele>309.6666666666667</ele><time>2026-04-04T11:08:18Z</time></trkpt><trkpt lat="43.17028456084059" lon="10.76367818874236"><ele>310.0</ele><time>2026-04-04T11:08:19Z</time></trkpt><trkpt lat="43.17037113984068" lon="10.763699571944045"><ele>310.33333333333337</ele><time>2026-04-04T11:08:20Z</time></trkpt><trkpt lat="43.17046005023891" lon="10.763724855554734"><ele>310.6666666666667</ele><time>2026-04-04T11:08:21Z</time></trkpt><trkpt lat="43.17053490939292" lon="10.763753830862173"><ele>311.0</ele><time>2026-04-04T11:08:22Z</time></trkpt><trkpt lat="43.17061561668025" lon="10.763763244270377"><ele>311.2</ele><time>2026-04-04T11:08:23Z</time></trkpt><trkpt lat="43.170717104146085" lon="10.763761561824117"><ele>311.40000000000003</ele><time>2026-04-04T11:08:24Z</time></trkpt><trkpt lat="43.1708138855411" lon="10.763761761789079"><ele>311.6</ele><time>2026-04-04T11:08:25Z</time></trkpt><trkpt lat="43.17088742646095" lon="10.763746946073068"><ele>311.8</ele><time>2026-04-04T11:08:26Z</time></trkpt><trkpt lat="43.17098928179925" lon="10.763732433067943"><ele>312.0</ele><time>2026-04-04T11:08:27Z</time></trkpt><trkpt lat="43.171087526464476" lon="10.763709230991656"><ele>312.0</ele><time>2026-04-04T11:08:28Z</time></trkpt><trkpt lat="43.17119016148144" lon="10.763681212672207"><ele>312.0</ele><time>2026-04-04T11:08:29Z</time></trkpt><trkpt lat="43.17128635441404" lon="10.763655219170692"><ele>312.0</ele><time>2026-04-04T11:08:30Z</time></trkpt><trkpt lat="43.171372811287846" lon="10.763619044541134"><ele>312.0</ele><time>2026-04-04T11:08:31Z</time></trkpt><trkpt lat="43.17146720114211" lon="10.763565764000164"><ele>312.0</ele><time>2026-04-04T11:08:32Z</time></trkpt><trkpt lat="43.17157048332997" lon="10.763506135464391"><ele>312.5</ele><time>2026-04-04T11:08:33Z</time></trkpt><trkpt lat="43.17167592415405" lon="10.763438826272829"><ele>313.0</ele><time>2026-04-04T11:08:34Z</time></trkpt><trkpt lat="43.17178819316487" lon="10.763369819098939"><ele>313.5</ele><time>2026-04-04T11:08:35Z</time></trkpt><trkpt lat="43.17189073681554" lon="10.763293312416762"><ele>314.0</ele><time>2026-04-04T11:08:36Z</time></trkpt><trkpt lat="43.17199136479336" lon="10.763214744219367"><ele>314.0</ele><time>2026-04-04T11:08:37Z</time></trkpt><trkpt lat="43.17210444180897" lon="10.763137661940679"><ele>314.0</ele><time>2026-04-04T11:08:38Z</time></trkpt><trkpt lat="43.172220148597596" lon="10.763067385550992"><ele>314.0</ele><time>2026-04-04T11:08:39Z</time></trkpt><trkpt lat="43.172339837836475" lon="10.763030759208421"><ele>314.0</ele><time>2026-04-04T11:08:40Z</time></trkpt><trkpt lat="43.17247096800617" lon="10.763012089812609"><ele>314.5</ele><time>2026-04-04T11:08:41Z</time></trkpt><trkpt lat="43.17258726308352" lon="10.762982225870038"><ele>315.0</ele><time>2026-04-04T11:08:42Z</time></trkpt><trkpt lat="43.17271101198397" lon="10.762935453930682"><ele>315.5</ele><time>2026-04-04T11:08:43Z</time></trkpt><trkpt lat="43.172833045949304" lon="10.762918083540253"><ele>316.0</ele><time>2026-04-04T11:08:44Z</time></trkpt><trkpt lat="43.1729475037317" lon="10.762900769980703"><ele>316.0</ele><time>2026-04-04T11:08:45Z</time></trkpt><trkpt lat="43.17306895276704" lon="10.762880760106771"><ele>316.0</ele><time>2026-04-04T11:08:45.999Z</time></trkpt><trkpt lat="43.173184642734356" lon="10.762859756636306"><ele>316.0</ele><time>2026-04-04T11:08:46.999Z</time></trkpt><trkpt lat="43.173279976232386" lon="10.762849380667367"><ele>316.0</ele><time>2026-04-04T11:08:47.999Z</time></trkpt><trkpt lat="43.173398665739164" lon="10.762860925768242"><ele>317.6</ele><time>2026-04-04T11:08:48.999Z</time></trkpt><trkpt lat="43.17351197141927" lon="10.762866755005875"><ele>319.20000000000005</ele><time>2026-04-04T11:08:49.999Z</time></trkpt><trkpt lat="43.173614539532444" lon="10.762904693059221"><ele>320.79999999999995</ele><time>2026-04-04T11:08:50.999Z</time></trkpt><trkpt lat="43.17370292843772" lon="10.762939773035821"><ele>322.4</ele><time>2026-04-04T11:08:51.999Z</time></trkpt><trkpt lat="43.17376764732848" lon="10.762961720189658"><ele>324.0</ele><time>2026-04-04T11:08:52.999Z</time></trkpt><trkpt lat="43.173889233811444" lon="10.763018698570821"><ele>324.0</ele><time>2026-04-04T11:08:54.999Z</time></trkpt><trkpt lat="43.17395135758117" lon="10.763061984112346"><ele>324.0</ele><time>2026-04-04T11:08:55.999Z</time></trkpt><trkpt lat="43.17402582456477" lon="10.76315060196469"><ele>324.0</ele><time>2026-04-04T11:08:57.999Z</time></trkpt><trkpt lat="43.174079821067735" lon="10.7632146598171"><ele>324.0</ele><time>2026-04-04T11:09:00.999Z</time></trkpt><trkpt lat="43.17413589527982" lon="10.763281276749511"><ele>324.0</ele><time>2026-04-04T11:09:17.999Z</time></trkpt><trkpt lat="43.17423988344284" lon="10.763360472997048"><ele>324.0</ele><time>2026-04-04T11:09:19.999Z</time></trkpt><trkpt lat="43.17431010835834" lon="10.763441328024978"><ele>324.79999999999995</ele><time>2026-04-04T11:09:20.999Z</time></trkpt><trkpt lat="43.174391007484346" lon="10.763545852656264"><ele>325.59999999999997</ele><time>2026-04-04T11:09:21.999Z</time></trkpt><trkpt lat="43.174481269762936" lon="10.763627522699778"><ele>326.4</ele><time>2026-04-04T11:09:22.999Z</time></trkpt><trkpt lat="43.174581757467436" lon="10.763691593601449"><ele>327.2</ele><time>2026-04-04T11:09:23.999Z</time></trkpt><trkpt lat="43.17469185796625" lon="10.763752810836797"><ele>328.0</ele><time>2026-04-04T11:09:24.999Z</time></trkpt><trkpt lat="43.174797485762944" lon="10.763817216886466"><ele>331.0</ele><time>2026-04-04T11:09:25.999Z</time></trkpt><trkpt lat="43.174884930154526" lon="10.763885812322263"><ele>334.0</ele><time>2026-04-04T11:09:26.999Z</time></trkpt><trkpt lat="43.174976044067" lon="10.763944020574119"><ele>337.0</ele><time>2026-04-04T11:09:27.999Z</time></trkpt><trkpt lat="43.17509690178226" lon="10.764016145552045"><ele>340.0</ele><time>2026-04-04T11:09:28.999Z</time></trkpt><trkpt lat="43.17521634001069" lon="10.764080037147432"><ele>340.0</ele><time>2026-04-04T11:09:29.999Z</time></trkpt><trkpt lat="43.175324414238226" lon="10.764139216595007"><ele>340.0</ele><time>2026-04-04T11:09:30.999Z</time></trkpt><trkpt lat="43.175436461625054" lon="10.764205894754541"><ele>340.0</ele><time>2026-04-04T11:09:31.999Z</time></trkpt><trkpt lat="43.175531333559526" lon="10.76426168806894"><ele>340.0</ele><time>2026-04-04T11:09:32.999Z</time></trkpt><trkpt lat="43.17562606772666" lon="10.76433650737147"><ele>340.25</ele><time>2026-04-04T11:09:33.999Z</time></trkpt><trkpt lat="43.17573830321758" lon="10.764403808552666"><ele>340.5</ele><time>2026-04-04T11:09:34.999Z</time></trkpt><trkpt lat="43.17586530383388" lon="10.764471202572642"><ele>340.75</ele><time>2026-04-04T11:09:35.999Z</time></trkpt><trkpt lat="43.17599330384823" lon="10.764532973663261"><ele>341.0</ele><time>2026-04-04T11:09:36.999Z</time></trkpt><trkpt lat="43.176124938517255" lon="10.764578237912396"><ele>341.0</ele><time>2026-04-04T11:09:37.999Z</time></trkpt><trkpt lat="43.176253216824776" lon="10.764619279522027"><ele>341.0</ele><time>2026-04-04T11:09:38.999Z</time></trkpt><trkpt lat="43.17639696936397" lon="10.764664492463423"><ele>341.0</ele><time>2026-04-04T11:09:39.999Z</time></trkpt><trkpt lat="43.17654093233098" lon="10.764695034818564"><ele>341.0</ele><time>2026-04-04T11:09:40.999Z</time></trkpt><trkpt lat="43.17667560024298" lon="10.764722864889722"><ele>343.75</ele><time>2026-04-04T11:09:41.999Z</time></trkpt><trkpt lat="43.17679330709618" lon="10.76474530969487"><ele>346.5</ele><time>2026-04-04T11:09:42.998Z</time></trkpt><trkpt lat="43.176886263042725" lon="10.764751187014838"><ele>349.25</ele><time>2026-04-04T11:09:43.998Z</time></trkpt><trkpt lat="43.17698375560244" lon="10.7647611843904"><ele>352.0</ele><time>2026-04-04T11:09:44.998Z</time></trkpt><trkpt lat="43.17710319079913" lon="10.764884859967932"><ele>352.0</ele><time>2026-04-04T11:09:46.998Z</time></trkpt><trkpt lat="43.177180143575086" lon="10.764973312196277"><ele>352.0</ele><time>2026-04-04T11:09:47.998Z</time></trkpt><trkpt lat="43.177263594416466" lon="10.765084538822844"><ele>352.0</ele><time>2026-04-04T11:09:48.998Z</time></trkpt><trkpt lat="43.17735244052009" lon="10.765185576782947"><ele>352.0</ele><time>2026-04-04T11:09:49.998Z</time></trkpt><trkpt lat="43.17744430401721" lon="10.765295708450886"><ele>354.0</ele><time>2026-04-04T11:09:50.998Z</time></trkpt><trkpt lat="43.17754684188156" lon="10.765396590980812"><ele>356.0</ele><time>2026-04-04T11:09:51.998Z</time></trkpt><trkpt lat="43.177645156093554" lon="10.765499341465338"><ele>358.0</ele><time>2026-04-04T11:09:52.998Z</time></trkpt><trkpt lat="43.17774290457565" lon="10.765582217062073"><ele>360.0</ele><time>2026-04-04T11:09:53.998Z</time></trkpt><trkpt lat="43.177820848050175" lon="10.765644762592148"><ele>360.0</ele><time>2026-04-04T11:09:54.998Z</time></trkpt><trkpt lat="43.17788507131918" lon="10.765712884712654"><ele>360.0</ele><time>2026-04-04T11:09:55.998Z</time></trkpt><trkpt lat="43.17793402187335" lon="10.765798397290942"><ele>360.0</ele><time>2026-04-04T11:09:56.998Z</time></trkpt><trkpt lat="43.177983338815174" lon="10.76587053994521"><ele>360.0</ele><time>2026-04-04T11:09:57.998Z</time></trkpt><trkpt lat="43.1780505484075" lon="10.765946106271805"><ele>360.0</ele><time>2026-04-04T11:09:58.998Z</time></trkpt><trkpt lat="43.17812554029754" lon="10.766015780558115"><ele>360.0</ele><time>2026-04-04T11:09:59.998Z</time></trkpt><trkpt lat="43.178218057838414" lon="10.766075978592855"><ele>360.75</ele><time>2026-04-04T11:10:00.998Z</time></trkpt><trkpt lat="43.178342915017524" lon="10.76612974014078"><ele>361.5</ele><time>2026-04-04T11:10:01.998Z</time></trkpt><trkpt lat="43.17847206292433" lon="10.766184935940387"><ele>362.25</ele><time>2026-04-04T11:10:02.998Z</time></trkpt><trkpt lat="43.178616647503674" lon="10.766248027120291"><ele>363.0</ele><time>2026-04-04T11:10:03.998Z</time></trkpt><trkpt lat="43.17875738578099" lon="10.766332580157405"><ele>363.0</ele><time>2026-04-04T11:10:04.998Z</time></trkpt><trkpt lat="43.178894724867476" lon="10.766425764017134"><ele>363.0</ele><time>2026-04-04T11:10:05.998Z</time></trkpt><trkpt lat="43.17902561099872" lon="10.766521455788027"><ele>363.0</ele><time>2026-04-04T11:10:06.998Z</time></trkpt><trkpt lat="43.179141620159136" lon="10.766599014965955"><ele>363.0</ele><time>2026-04-04T11:10:07.998Z</time></trkpt><trkpt lat="43.17925851174067" lon="10.766662678589995"><ele>364.5</ele><time>2026-04-04T11:10:09Z</time></trkpt><trkpt lat="43.17937436606673" lon="10.766745378569212"><ele>366.0</ele><time>2026-04-04T11:10:10Z</time></trkpt><trkpt lat="43.17947689767946" lon="10.766842730609413"><ele>367.5</ele><time>2026-04-04T11:10:11Z</time></trkpt><trkpt lat="43.179571235420475" lon="10.766963359515952"><ele>369.0</ele><time>2026-04-04T11:10:12Z</time></trkpt><trkpt lat="43.17965605270604" lon="10.767112678822944"><ele>369.0</ele><time>2026-04-04T11:10:13Z</time></trkpt><trkpt lat="43.179750881067655" lon="10.767300888995328"><ele>369.0</ele><time>2026-04-04T11:10:14Z</time></trkpt><trkpt lat="43.179832360613744" lon="10.767506987229387"><ele>369.0</ele><time>2026-04-04T11:10:15Z</time></trkpt><trkpt lat="43.17989779925746" lon="10.767731898658031"><ele>373.6666666666667</ele><time>2026-04-04T11:10:16Z</time></trkpt><trkpt lat="43.17994996349502" lon="10.767941399036676"><ele>378.33333333333337</ele><time>2026-04-04T11:10:17Z</time></trkpt><trkpt lat="43.18000581942797" lon="10.768126918339993"><ele>383.0</ele><time>2026-04-04T11:10:18Z</time></trkpt><trkpt lat="43.18007769661487" lon="10.768317945605844"><ele>383.0</ele><time>2026-04-04T11:10:19Z</time></trkpt><trkpt lat="43.18014312276705" lon="10.768472391543563"><ele>383.0</ele><time>2026-04-04T11:10:20Z</time></trkpt><trkpt lat="43.18020077315509" lon="10.76859436487189"><ele>383.0</ele><time>2026-04-04T11:10:21Z</time></trkpt><trkpt lat="43.18024949765767" lon="10.768709499842414"><ele>383.0</ele><time>2026-04-04T11:10:22Z</time></trkpt><trkpt lat="43.18028372585465" lon="10.768798090218567"><ele>383.0</ele><time>2026-04-04T11:10:23Z</time></trkpt><trkpt lat="43.18031887022417" lon="10.768908284619272"><ele>381.6666666666667</ele><time>2026-04-04T11:10:25Z</time></trkpt><trkpt lat="43.18039535928977" lon="10.768928130557665"><ele>380.33333333333337</ele><time>2026-04-04T11:12:12.998Z</time></trkpt><trkpt lat="43.180439876362406" lon="10.768865463007577"><ele>379.0</ele><time>2026-04-04T11:12:13.998Z</time></trkpt><trkpt lat="43.18047254298397" lon="10.768766854518118"><ele>377.6666666666667</ele><time>2026-04-04T11:12:16Z</time></trkpt><trkpt lat="43.18055429278657" lon="10.768692702651633"><ele>376.3333333333333</ele><time>2026-04-04T11:12:18Z</time></trkpt><trkpt lat="43.18061485185449" lon="10.768615617066175"><ele>375.0</ele><time>2026-04-04T11:12:20Z</time></trkpt><trkpt lat="43.180680217546985" lon="10.768574500119623"><ele>378.5</ele><time>2026-04-04T11:12:21Z</time></trkpt><trkpt lat="43.180727711039935" lon="10.768514183344337"><ele>382.0</ele><time>2026-04-04T11:12:22Z</time></trkpt><trkpt lat="43.18077526523492" lon="10.76844305679371"><ele>385.5</ele><time>2026-04-04T11:12:23Z</time></trkpt><trkpt lat="43.18081895540565" lon="10.768293358419433"><ele>389.0</ele><time>2026-04-04T11:12:25Z</time></trkpt><trkpt lat="43.180850663336756" lon="10.768190054814863"><ele>392.5</ele><time>2026-04-04T11:12:26Z</time></trkpt><trkpt lat="43.180899096108675" lon="10.768094725630013"><ele>396.0</ele><time>2026-04-04T11:12:28Z</time></trkpt><trkpt lat="43.18088351636219" lon="10.767947344574933"><ele>396.0</ele><time>2026-04-04T11:12:30Z</time></trkpt><trkpt lat="43.18090279542138" lon="10.767859906238423"><ele>396.0</ele><time>2026-04-04T11:12:31Z</time></trkpt><trkpt lat="43.18096906139029" lon="10.767734020570723"><ele>396.0</ele><time>2026-04-04T11:12:33Z</time></trkpt><trkpt lat="43.18102041249662" lon="10.767673401200245"><ele>396.0</ele><time>2026-04-04T11:12:34Z</time></trkpt><trkpt lat="43.181057885883995" lon="10.767596610975332"><ele>396.0</ele><time>2026-04-04T11:12:35Z</time></trkpt><trkpt lat="43.18109795395864" lon="10.76744751821643"><ele>396.0</ele><time>2026-04-04T11:12:37Z</time></trkpt><trkpt lat="43.18115068648211" lon="10.767332157356062"><ele>395.5714285714286</ele><time>2026-04-04T11:12:39Z</time></trkpt><trkpt lat="43.18119581960747" lon="10.76726709157682"><ele>395.1428571428571</ele><time>2026-04-04T11:12:40Z</time></trkpt><trkpt lat="43.18127143784711" lon="10.76721235013916"><ele>394.7142857142857</ele><time>2026-04-04T11:12:43Z</time></trkpt><trkpt lat="43.1813371972041" lon="10.767218598088087"><ele>394.28571428571433</ele><time>2026-04-04T11:12:44Z</time></trkpt><trkpt lat="43.181409241234654" lon="10.767223896531819"><ele>393.8571428571429</ele><time>2026-04-04T11:12:45Z</time></trkpt><trkpt lat="43.18148543576929" lon="10.767233885744979"><ele>393.42857142857144</ele><time>2026-04-04T11:12:46Z</time></trkpt><trkpt lat="43.18155708154749" lon="10.767225794724782"><ele>393.0</ele><time>2026-04-04T11:12:47Z</time></trkpt><trkpt lat="43.18164608082532" lon="10.7672673592831"><ele>392.6666666666667</ele><time>2026-04-04T11:12:48Z</time></trkpt><trkpt lat="43.18170997365451" lon="10.767314683241379"><ele>392.33333333333337</ele><time>2026-04-04T11:12:49Z</time></trkpt><trkpt lat="43.18176429172229" lon="10.767359174823804"><ele>392.0</ele><time>2026-04-04T11:12:50Z</time></trkpt><trkpt lat="43.18183768991762" lon="10.767410882543935"><ele>391.6666666666667</ele><time>2026-04-04T11:12:51Z</time></trkpt><trkpt lat="43.18192752848155" lon="10.767451013706431"><ele>391.33333333333337</ele><time>2026-04-04T11:12:53Z</time></trkpt><trkpt lat="43.18199351231213" lon="10.767461332269352"><ele>391.0</ele><time>2026-04-04T11:12:56Z</time></trkpt><trkpt lat="43.18208772404608" lon="10.767452949459438"><ele>391.0</ele><time>2026-04-04T11:12:58.999Z</time></trkpt><trkpt lat="43.18219355594119" lon="10.767422174428338"><ele>391.0</ele><time>2026-04-04T11:13:00.999Z</time></trkpt><trkpt lat="43.18227085451488" lon="10.767426745519433"><ele>391.0</ele><time>2026-04-04T11:13:01.999Z</time></trkpt><trkpt lat="43.18234074242134" lon="10.767444581855106"><ele>391.0</ele><time>2026-04-04T11:13:02.999Z</time></trkpt><trkpt lat="43.18242689382142" lon="10.767439391635948"><ele>391.0</ele><time>2026-04-04T11:13:04.999Z</time></trkpt><trkpt lat="43.18248275595989" lon="10.7673037256666"><ele>391.50000000000006</ele><time>2026-04-04T11:13:06.999Z</time></trkpt><trkpt lat="43.18258700856027" lon="10.767282128085409"><ele>392.0</ele><time>2026-04-04T11:13:08.999Z</time></trkpt><trkpt lat="43.18265727349129" lon="10.767294103109997"><ele>392.5</ele><time>2026-04-04T11:13:09.999Z</time></trkpt><trkpt lat="43.182722721158505" lon="10.76725980899335"><ele>393.0</ele><time>2026-04-04T11:13:10.999Z</time></trkpt><trkpt lat="43.18278409432459" lon="10.767222746911349"><ele>393.50000000000006</ele><time>2026-04-04T11:13:11.999Z</time></trkpt><trkpt lat="43.1828702077413" lon="10.76709135547426"><ele>394.0</ele><time>2026-04-04T11:13:13.999Z</time></trkpt><trkpt lat="43.18293027186595" lon="10.767034867775013"><ele>394.00000000000006</ele><time>2026-04-04T11:13:14.999Z</time></trkpt><trkpt lat="43.183009315045865" lon="10.766977467142475"><ele>394.0</ele><time>2026-04-04T11:13:15.999Z</time></trkpt><trkpt lat="43.183082295964276" lon="10.766910673681961"><ele>394.0</ele><time>2026-04-04T11:13:16.999Z</time></trkpt><trkpt lat="43.18315190881974" lon="10.766852340114038"><ele>394.0</ele><time>2026-04-04T11:13:17.999Z</time></trkpt><trkpt lat="43.18324002936745" lon="10.766797105800052"><ele>394.00000000000006</ele><time>2026-04-04T11:13:18.999Z</time></trkpt><trkpt lat="43.183316091083256" lon="10.766768907693194"><ele>394.0</ele><time>2026-04-04T11:13:19.999Z</time></trkpt><trkpt lat="43.183390487492396" lon="10.766739223567225"><ele>392.0</ele><time>2026-04-04T11:13:20.999Z</time></trkpt><trkpt lat="43.18346896434052" lon="10.766708627241057"><ele>390.0</ele><time>2026-04-04T11:13:21.999Z</time></trkpt><trkpt lat="43.183545976381644" lon="10.766667235601261"><ele>388.0</ele><time>2026-04-04T11:13:22.999Z</time></trkpt><trkpt lat="43.1836146720326" lon="10.766606866203901"><ele>386.0</ele><time>2026-04-04T11:13:23.999Z</time></trkpt><trkpt lat="43.1837123465745" lon="10.766496371941434"><ele>384.0</ele><time>2026-04-04T11:13:25.999Z</time></trkpt><trkpt lat="43.18379565739636" lon="10.766443846682114"><ele>384.0</ele><time>2026-04-04T11:13:27.999Z</time></trkpt><trkpt lat="43.183934308659325" lon="10.766453791889644"><ele>384.0</ele><time>2026-04-04T11:13:29.999Z</time></trkpt><trkpt lat="43.18400404164399" lon="10.766457762054193"><ele>384.0</ele><time>2026-04-04T11:13:30.999Z</time></trkpt><trkpt lat="43.184070395540424" lon="10.76648440458859"><ele>384.0</ele><time>2026-04-04T11:13:31.999Z</time></trkpt><trkpt lat="43.18411965511723" lon="10.766612919269136"><ele>384.0</ele><time>2026-04-04T11:13:34.999Z</time></trkpt><trkpt lat="43.184098308747856" lon="10.766730937942537"><ele>386.2</ele><time>2026-04-04T11:13:36.999Z</time></trkpt><trkpt lat="43.18407798643244" lon="10.766882292678666"><ele>388.4</ele><time>2026-04-04T11:13:38.999Z</time></trkpt><trkpt lat="43.18406352514275" lon="10.766974749681234"><ele>390.6</ele><time>2026-04-04T11:13:39.999Z</time></trkpt><trkpt lat="43.18410458551225" lon="10.767065777854787"><ele>392.8</ele><time>2026-04-04T11:13:41.999Z</time></trkpt><trkpt lat="43.184223810128664" lon="10.767149220479848"><ele>395.0</ele><time>2026-04-04T11:13:43.999Z</time></trkpt><trkpt lat="43.18429153996702" lon="10.767226366868236"><ele>394.99999999999994</ele><time>2026-04-04T11:13:44.999Z</time></trkpt><trkpt lat="43.18434610862249" lon="10.767335590226825"><ele>395.0</ele><time>2026-04-04T11:13:46.999Z</time></trkpt><trkpt lat="43.1843484924485" lon="10.767430830728044"><ele>395.0</ele><time>2026-04-04T11:13:47.999Z</time></trkpt><trkpt lat="43.18436336695649" lon="10.767563772750234"><ele>395.0</ele><time>2026-04-04T11:13:49.999Z</time></trkpt><trkpt lat="43.1843862114546" lon="10.767675662578235"><ele>394.99999999999994</ele><time>2026-04-04T11:13:50.999Z</time></trkpt><trkpt lat="43.1844222970907" lon="10.767752505179478"><ele>395.0</ele><time>2026-04-04T11:13:51.999Z</time></trkpt><trkpt lat="43.18446979146537" lon="10.767858125034692"><ele>396.8</ele><time>2026-04-04T11:13:52.999Z</time></trkpt><trkpt lat="43.18450874058389" lon="10.767933073272824"><ele>398.6</ele><time>2026-04-04T11:13:53.999Z</time></trkpt><trkpt lat="43.18454351257272" lon="10.768023987783135"><ele>400.4</ele><time>2026-04-04T11:13:54.998Z</time></trkpt><trkpt lat="43.1845460094937" lon="10.768128312261103"><ele>402.2</ele><time>2026-04-04T11:13:55.998Z</time></trkpt><trkpt lat="43.18452017436301" lon="10.768267636029623"><ele>404.0</ele><time>2026-04-04T11:13:57.998Z</time></trkpt><trkpt lat="43.18444969427143" lon="10.768434435213898"><ele>407.6</ele><time>2026-04-04T11:13:59.998Z</time></trkpt><trkpt lat="43.18443675715848" lon="10.768583220226772"><ele>411.2</ele><time>2026-04-04T11:14:01.998Z</time></trkpt><trkpt lat="43.18447957229359" lon="10.768693008425696"><ele>414.8</ele><time>2026-04-04T11:14:03.998Z</time></trkpt><trkpt lat="43.18457325556486" lon="10.768736777224944"><ele>418.40000000000003</ele><time>2026-04-04T11:14:05.998Z</time></trkpt><trkpt lat="43.184698080615114" lon="10.768813988869304"><ele>422.0</ele><time>2026-04-04T11:14:07.998Z</time></trkpt><trkpt lat="43.184755530994124" lon="10.76887254268952"><ele>422.0</ele><time>2026-04-04T11:14:08.998Z</time></trkpt><trkpt lat="43.18482039350164" lon="10.76894334082422"><ele>422.0</ele><time>2026-04-04T11:14:09.998Z</time></trkpt><trkpt lat="43.18488651844962" lon="10.769030925833535"><ele>422.0</ele><time>2026-04-04T11:14:10.998Z</time></trkpt><trkpt lat="43.18498556162665" lon="10.769122653128338"><ele>422.0</ele><time>2026-04-04T11:14:11.998Z</time></trkpt><trkpt lat="43.18507643412798" lon="10.769195684215426"><ele>422.0</ele><time>2026-04-04T11:14:12.998Z</time></trkpt><trkpt lat="43.1851370824712" lon="10.769290632152286"><ele>421.40000000000003</ele><time>2026-04-04T11:14:13.998Z</time></trkpt><trkpt lat="43.185268777340525" lon="10.769354822527326"><ele>420.8</ele><time>2026-04-04T11:14:15.998Z</time></trkpt><trkpt lat="43.18535144351802" lon="10.76941256805441"><ele>420.2</ele><time>2026-04-04T11:14:16.998Z</time></trkpt><trkpt lat="43.185422475321445" lon="10.769512450321836"><ele>419.6</ele><time>2026-04-04T11:14:17.998Z</time></trkpt><trkpt lat="43.18549494923699" lon="10.769625246498629"><ele>419.0</ele><time>2026-04-04T11:14:18.998Z</time></trkpt><trkpt lat="43.185570674329654" lon="10.769726635409167"><ele>420.2</ele><time>2026-04-04T11:14:19.998Z</time></trkpt><trkpt lat="43.185635703889965" lon="10.769825017090346"><ele>421.4</ele><time>2026-04-04T11:14:21Z</time></trkpt><trkpt lat="43.185688566927425" lon="10.769887648282296"><ele>422.6</ele><time>2026-04-04T11:14:22Z</time></trkpt><trkpt lat="43.185776821123724" lon="10.769943550241592"><ele>423.8</ele><time>2026-04-04T11:14:23Z</time></trkpt><trkpt lat="43.18588639610469" lon="10.77001349807611"><ele>425.0</ele><time>2026-04-04T11:14:24Z</time></trkpt><trkpt lat="43.1859785344706" lon="10.770088675478066"><ele>424.99999999999994</ele><time>2026-04-04T11:14:25Z</time></trkpt><trkpt lat="43.186039662149" lon="10.770143724447935"><ele>425.0</ele><time>2026-04-04T11:14:26Z</time></trkpt><trkpt lat="43.186114801996766" lon="10.770178591458953"><ele>425.0</ele><time>2026-04-04T11:14:28Z</time></trkpt><trkpt lat="43.18618494534899" lon="10.770156880567205"><ele>425.0</ele><time>2026-04-04T11:14:30Z</time></trkpt><trkpt lat="43.18616891625983" lon="10.770293176632975"><ele>424.99999999999994</ele><time>2026-04-04T11:14:37Z</time></trkpt><trkpt lat="43.18615583189358" lon="10.770457394262095"><ele>425.0</ele><time>2026-04-04T11:14:39Z</time></trkpt><trkpt lat="43.1861713948926" lon="10.770586983528101"><ele>425.0</ele><time>2026-04-04T11:14:41Z</time></trkpt><trkpt lat="43.18617476132008" lon="10.77048128609795"><ele>425.0</ele><time>2026-04-04T11:17:10.999Z</time></trkpt><trkpt lat="43.186179286049914" lon="10.770381305802193"><ele>425.0</ele><time>2026-04-04T11:17:11.999Z</time></trkpt><trkpt lat="43.186194578106836" lon="10.770266981061138"><ele>425.0</ele><time>2026-04-04T11:17:12.999Z</time></trkpt><trkpt lat="43.186245248522674" lon="10.770132091040136"><ele>425.0</ele><time>2026-04-04T11:17:14.999Z</time></trkpt><trkpt lat="43.186352208325154" lon="10.770034231692424"><ele>425.0</ele><time>2026-04-04T11:17:16.999Z</time></trkpt><trkpt lat="43.18641082471632" lon="10.769988674156743"><ele>425.0</ele><time>2026-04-04T11:17:17.999Z</time></trkpt><trkpt lat="43.186523626071576" lon="10.7699545574921"><ele>425.0</ele><time>2026-04-04T11:17:18.999Z</time></trkpt><trkpt lat="43.18662167594143" lon="10.769894309424728"><ele>425.0</ele><time>2026-04-04T11:17:19.999Z</time></trkpt><trkpt lat="43.18673076226069" lon="10.769840343381487"><ele>425.0</ele><time>2026-04-04T11:17:20.999Z</time></trkpt><trkpt lat="43.186821002390055" lon="10.769787997320059"><ele>425.8</ele><time>2026-04-04T11:17:21.999Z</time></trkpt><trkpt lat="43.186915696899156" lon="10.769714074544464"><ele>426.6</ele><time>2026-04-04T11:17:22.999Z</time></trkpt><trkpt lat="43.18700860891337" lon="10.769652813439427"><ele>427.4</ele><time>2026-04-04T11:17:23.999Z</time></trkpt><trkpt lat="43.187087934513904" lon="10.769591745998763"><ele>428.2</ele><time>2026-04-04T11:17:24.999Z</time></trkpt><trkpt lat="43.18714659077944" lon="10.769525097596166"><ele>429.0</ele><time>2026-04-04T11:17:25.999Z</time></trkpt><trkpt lat="43.18719252347215" lon="10.76944369272879"><ele>429.4</ele><time>2026-04-04T11:17:26.999Z</time></trkpt><trkpt lat="43.18720815804684" lon="10.76934874098211"><ele>429.79999999999995</ele><time>2026-04-04T11:17:27.999Z</time></trkpt><trkpt lat="43.18725330528645" lon="10.769262728786078"><ele>430.20000000000005</ele><time>2026-04-04T11:17:28.999Z</time></trkpt><trkpt lat="43.18730240827851" lon="10.769149432994194"><ele>430.6</ele><time>2026-04-04T11:17:29.999Z</time></trkpt><trkpt lat="43.1873214026376" lon="10.769057933770581"><ele>431.0</ele><time>2026-04-04T11:17:30.999Z</time></trkpt><trkpt lat="43.18734437822543" lon="10.768850731240171"><ele>429.0</ele><time>2026-04-04T11:17:32.999Z</time></trkpt><trkpt lat="43.187337043614455" lon="10.768733375392738"><ele>427.0</ele><time>2026-04-04T11:17:34.999Z</time></trkpt><trkpt lat="43.187229980182664" lon="10.768664793382754"><ele>425.0</ele><time>2026-04-04T11:17:42.999Z</time></trkpt><trkpt lat="43.18712414612603" lon="10.768615066632242"><ele>423.0</ele><time>2026-04-04T11:17:44.999Z</time></trkpt><trkpt lat="43.187068676211936" lon="10.768567559273306"><ele>421.0</ele><time>2026-04-04T11:17:45.999Z</time></trkpt><trkpt lat="43.187009673125175" lon="10.76847372099364"><ele>421.4</ele><time>2026-04-04T11:17:47.999Z</time></trkpt><trkpt lat="43.187135658636315" lon="10.768402473857252"><ele>421.8</ele><time>2026-04-04T11:17:50.999Z</time></trkpt><trkpt lat="43.18717472755217" lon="10.768311974465352"><ele>422.2</ele><time>2026-04-04T11:17:51.999Z</time></trkpt><trkpt lat="43.18724181171291" lon="10.768194845447688"><ele>422.59999999999997</ele><time>2026-04-04T11:17:52.999Z</time></trkpt><trkpt lat="43.187292649151885" lon="10.768096913766156"><ele>423.0</ele><time>2026-04-04T11:17:53.999Z</time></trkpt><trkpt lat="43.18734423041014" lon="10.768024811428514"><ele>423.0</ele><time>2026-04-04T11:17:54.999Z</time></trkpt><trkpt lat="43.18745494120843" lon="10.767937785803918"><ele>423.0</ele><time>2026-04-04T11:17:56.999Z</time></trkpt><trkpt lat="43.18755729428242" lon="10.767878990938648"><ele>423.0</ele><time>2026-04-04T11:17:58.999Z</time></trkpt><trkpt lat="43.18761973180322" lon="10.767749404394449"><ele>423.0</ele><time>2026-04-04T11:18:00.999Z</time></trkpt><trkpt lat="43.187667217172375" lon="10.767665197152745"><ele>423.0</ele><time>2026-04-04T11:18:02.999Z</time></trkpt><trkpt lat="43.18770531608307" lon="10.767588311969199"><ele>421.59999999999997</ele><time>2026-04-04T11:18:05.998Z</time></trkpt><trkpt lat="43.18776335448183" lon="10.767484019853596"><ele>420.2</ele><time>2026-04-04T11:18:11.998Z</time></trkpt><trkpt lat="43.18781484846907" lon="10.767340666173833"><ele>418.8</ele><time>2026-04-04T11:18:13.998Z</time></trkpt><trkpt lat="43.18787063409789" lon="10.767267554731344"><ele>417.4</ele><time>2026-04-04T11:18:14.998Z</time></trkpt><trkpt lat="43.18794947669864" lon="10.767176514000742"><ele>416.0</ele><time>2026-04-04T11:18:16.998Z</time></trkpt><trkpt lat="43.18802252672434" lon="10.767169040138828"><ele>415.99999999999994</ele><time>2026-04-04T11:18:17.998Z</time></trkpt><trkpt lat="43.18809088582317" lon="10.767150012695092"><ele>416.0</ele><time>2026-04-04T11:18:18.998Z</time></trkpt><trkpt lat="43.18816106234529" lon="10.767153267889384"><ele>416.0</ele><time>2026-04-04T11:18:19.998Z</time></trkpt><trkpt lat="43.18823395501577" lon="10.76714571982791"><ele>416.0</ele><time>2026-04-04T11:18:20.998Z</time></trkpt><trkpt lat="43.188299013940586" lon="10.76714527631854"><ele>415.99999999999994</ele><time>2026-04-04T11:18:21.998Z</time></trkpt><trkpt lat="43.18836941956944" lon="10.767150074728562"><ele>416.0</ele><time>2026-04-04T11:18:22.998Z</time></trkpt><trkpt lat="43.18848853128152" lon="10.767134412334919"><ele>417.49999999999994</ele><time>2026-04-04T11:18:24.998Z</time></trkpt><trkpt lat="43.188558161693905" lon="10.767135071858192"><ele>419.0</ele><time>2026-04-04T11:18:25.998Z</time></trkpt><trkpt lat="43.18862266660422" lon="10.767120434848911"><ele>420.5</ele><time>2026-04-04T11:18:26.998Z</time></trkpt><trkpt lat="43.18873125768387" lon="10.767075883250085"><ele>422.0</ele><time>2026-04-04T11:18:28.998Z</time></trkpt><trkpt lat="43.18882641291124" lon="10.767000466728712"><ele>423.49999999999994</ele><time>2026-04-04T11:18:30.998Z</time></trkpt><trkpt lat="43.188868273986444" lon="10.766930906443461"><ele>425.0</ele><time>2026-04-04T11:18:31.998Z</time></trkpt><trkpt lat="43.18892136406301" lon="10.766881630962443"><ele>423.0</ele><time>2026-04-04T11:18:33Z</time></trkpt><trkpt lat="43.188987717441655" lon="10.766809628905584"><ele>421.0</ele><time>2026-04-04T11:18:35Z</time></trkpt><trkpt lat="43.189069048455686" lon="10.7667267011719"><ele>419.0</ele><time>2026-04-04T11:18:37Z</time></trkpt><trkpt lat="43.189192865684724" lon="10.766626473591677"><ele>417.0</ele><time>2026-04-04T11:18:39Z</time></trkpt><trkpt lat="43.18924784444723" lon="10.76658121701087"><ele>415.0</ele><time>2026-04-04T11:18:40Z</time></trkpt><trkpt lat="43.1893110419541" lon="10.766563004492282"><ele>415.00000000000006</ele><time>2026-04-04T11:18:41Z</time></trkpt><trkpt lat="43.18936659453474" lon="10.766520565337562"><ele>415.0</ele><time>2026-04-04T11:18:42Z</time></trkpt><trkpt lat="43.189423297920435" lon="10.766477246746744"><ele>415.0</ele><time>2026-04-04T11:18:43Z</time></trkpt><trkpt lat="43.18947697149206" lon="10.766408931105369"><ele>415.0</ele><time>2026-04-04T11:18:44Z</time></trkpt><trkpt lat="43.189544756073055" lon="10.76635891788948"><ele>415.00000000000006</ele><time>2026-04-04T11:18:45Z</time></trkpt><trkpt lat="43.189618937643736" lon="10.76628973037693"><ele>415.0</ele><time>2026-04-04T11:18:46Z</time></trkpt><trkpt lat="43.18969623380856" lon="10.766214963012908"><ele>415.0</ele><time>2026-04-04T11:18:47Z</time></trkpt><trkpt lat="43.1897655172053" lon="10.766148293397393"><ele>415.0</ele><time>2026-04-04T11:18:48Z</time></trkpt><trkpt lat="43.189830354705855" lon="10.766087976055436"><ele>415.0</ele><time>2026-04-04T11:18:49Z</time></trkpt><trkpt lat="43.189888677937205" lon="10.766033438898534"><ele>415.0</ele><time>2026-04-04T11:18:50Z</time></trkpt><trkpt lat="43.18994653002251" lon="10.765976836755016"><ele>415.0</ele><time>2026-04-04T11:18:51Z</time></trkpt><trkpt lat="43.190007056988456" lon="10.76592035577728"><ele>415.0</ele><time>2026-04-04T11:18:52Z</time></trkpt><trkpt lat="43.190062428196846" lon="10.765867440962724"><ele>415.0</ele><time>2026-04-04T11:18:53Z</time></trkpt><trkpt lat="43.190155278549064" lon="10.765797451278967"><ele>414.4</ele><time>2026-04-04T11:18:55Z</time></trkpt><trkpt lat="43.19024429443606" lon="10.76571117022559"><ele>413.8</ele><time>2026-04-04T11:18:57Z</time></trkpt><trkpt lat="43.19026316392553" lon="10.765563244658805"><ele>413.20000000000005</ele><time>2026-04-04T11:18:58Z</time></trkpt><trkpt lat="43.190300915384434" lon="10.765450814368938"><ele>412.6</ele><time>2026-04-04T11:18:59Z</time></trkpt><trkpt lat="43.19032136012903" lon="10.765358483895856"><ele>412.0</ele><time>2026-04-04T11:19:00Z</time></trkpt><trkpt lat="43.190356467326644" lon="10.765192796092864"><ele>411.00000000000006</ele><time>2026-04-04T11:19:02Z</time></trkpt><trkpt lat="43.19037633751854" lon="10.765103139726063"><ele>410.0</ele><time>2026-04-04T11:19:03Z</time></trkpt><trkpt lat="43.19041014510638" lon="10.764959552872758"><ele>409.0</ele><time>2026-04-04T11:19:05Z</time></trkpt><trkpt lat="43.19043441774934" lon="10.764875793888445"><ele>408.0</ele><time>2026-04-04T11:19:06Z</time></trkpt><trkpt lat="43.19046583437399" lon="10.764785306278753"><ele>407.00000000000006</ele><time>2026-04-04T11:19:07Z</time></trkpt><trkpt lat="43.19049972521245" lon="10.764695888238197"><ele>406.0</ele><time>2026-04-04T11:19:08Z</time></trkpt><trkpt lat="43.19054250032262" lon="10.764598043459115"><ele>406.0</ele><time>2026-04-04T11:19:09Z</time></trkpt><trkpt lat="43.190591492077665" lon="10.764496183590872"><ele>406.0</ele><time>2026-04-04T11:19:10Z</time></trkpt><trkpt lat="43.19063861720149" lon="10.764391829401216"><ele>406.0</ele><time>2026-04-04T11:19:11Z</time></trkpt><trkpt lat="43.19069031308396" lon="10.764277327575524"><ele>406.0</ele><time>2026-04-04T11:19:11.999Z</time></trkpt><trkpt lat="43.19073891476952" lon="10.764154380102491"><ele>406.0</ele><time>2026-04-04T11:19:12.999Z</time></trkpt><trkpt lat="43.19078029636171" lon="10.764023086464988"><ele>406.6</ele><time>2026-04-04T11:19:13.999Z</time></trkpt><trkpt lat="43.19081001185082" lon="10.763892552210066"><ele>407.20000000000005</ele><time>2026-04-04T11:19:14.999Z</time></trkpt><trkpt lat="43.19081840499206" lon="10.763759663819656"><ele>407.79999999999995</ele><time>2026-04-04T11:19:15.999Z</time></trkpt><trkpt lat="43.190810250375954" lon="10.763606887340368"><ele>408.4</ele><time>2026-04-04T11:19:16.999Z</time></trkpt><trkpt lat="43.19080061840912" lon="10.763456864643643"><ele>409.0</ele><time>2026-04-04T11:19:17.999Z</time></trkpt><trkpt lat="43.190815636706155" lon="10.763321111745924"><ele>409.2</ele><time>2026-04-04T11:19:18.999Z</time></trkpt><trkpt lat="43.19082882482063" lon="10.763189566590537"><ele>409.4</ele><time>2026-04-04T11:19:19.999Z</time></trkpt><trkpt lat="43.19085130847359" lon="10.763081971214516"><ele>409.6</ele><time>2026-04-04T11:19:20.999Z</time></trkpt><trkpt lat="43.190918811711356" lon="10.762991085793333"><ele>409.8</ele><time>2026-04-04T11:19:21.999Z</time></trkpt><trkpt lat="43.191007639495446" lon="10.762924958917402"><ele>410.0</ele><time>2026-04-04T11:19:22.999Z</time></trkpt><trkpt lat="43.19108226632316" lon="10.76282162001751"><ele>408.25</ele><time>2026-04-04T11:19:23.999Z</time></trkpt><trkpt lat="43.19114537361382" lon="10.762687911496757"><ele>406.5</ele><time>2026-04-04T11:19:24.999Z</time></trkpt><trkpt lat="43.19117378620225" lon="10.762533569742034"><ele>404.75</ele><time>2026-04-04T11:19:25.999Z</time></trkpt><trkpt lat="43.19120461032137" lon="10.762377509467564"><ele>403.0</ele><time>2026-04-04T11:19:26.999Z</time></trkpt><trkpt lat="43.19123139303039" lon="10.762221465241003"><ele>403.0</ele><time>2026-04-04T11:19:27.999Z</time></trkpt><trkpt lat="43.19126584321827" lon="10.76207509315151"><ele>403.0</ele><time>2026-04-04T11:19:28.999Z</time></trkpt><trkpt lat="43.191310963308766" lon="10.76194086125894"><ele>403.0</ele><time>2026-04-04T11:19:29.999Z</time></trkpt><trkpt lat="43.19137685906818" lon="10.761825954614306"><ele>403.0</ele><time>2026-04-04T11:19:30.999Z</time></trkpt><trkpt lat="43.191470234940574" lon="10.76173758333639"><ele>403.0</ele><time>2026-04-04T11:19:31.999Z</time></trkpt><trkpt lat="43.19157721797424" lon="10.761665459890136"><ele>404.5</ele><time>2026-04-04T11:19:32.999Z</time></trkpt><trkpt lat="43.19168821429694" lon="10.761603025990931"><ele>406.0</ele><time>2026-04-04T11:19:33.999Z</time></trkpt><trkpt lat="43.191808207654574" lon="10.761534017028032"><ele>407.5</ele><time>2026-04-04T11:19:34.999Z</time></trkpt><trkpt lat="43.19192327088742" lon="10.761455182809371"><ele>409.0</ele><time>2026-04-04T11:19:35.999Z</time></trkpt><trkpt lat="43.19203575078465" lon="10.761381367615279"><ele>409.0</ele><time>2026-04-04T11:19:36.999Z</time></trkpt><trkpt lat="43.19213796272923" lon="10.761303652125159"><ele>409.0</ele><time>2026-04-04T11:19:37.999Z</time></trkpt><trkpt lat="43.192228637479765" lon="10.761203439344392"><ele>409.0</ele><time>2026-04-04T11:19:38.999Z</time></trkpt><trkpt lat="43.19229748196905" lon="10.761077266233764"><ele>409.0</ele><time>2026-04-04T11:19:39.999Z</time></trkpt><trkpt lat="43.19233604686062" lon="10.760930499975055"><ele>408.25</ele><time>2026-04-04T11:19:40.999Z</time></trkpt><trkpt lat="43.19234520523751" lon="10.760770827389214"><ele>407.5</ele><time>2026-04-04T11:19:41.999Z</time></trkpt><trkpt lat="43.1923492049205" lon="10.760608997445674"><ele>406.75</ele><time>2026-04-04T11:19:42.999Z</time></trkpt><trkpt lat="43.19235540053904" lon="10.760468504451024"><ele>406.0</ele><time>2026-04-04T11:19:43.999Z</time></trkpt><trkpt lat="43.19238774784872" lon="10.760320421625451"><ele>404.6</ele><time>2026-04-04T11:19:44.999Z</time></trkpt><trkpt lat="43.192445604007794" lon="10.760170330372688"><ele>403.20000000000005</ele><time>2026-04-04T11:19:45.999Z</time></trkpt><trkpt lat="43.192509451306094" lon="10.760060136953589"><ele>401.79999999999995</ele><time>2026-04-04T11:19:46.999Z</time></trkpt><trkpt lat="43.19255763678455" lon="10.759929978203045"><ele>400.4</ele><time>2026-04-04T11:19:47.999Z</time></trkpt><trkpt lat="43.19261396911875" lon="10.759805223839065"><ele>399.0</ele><time>2026-04-04T11:19:48.999Z</time></trkpt><trkpt lat="43.19267688612259" lon="10.759678373444032"><ele>399.0</ele><time>2026-04-04T11:19:49.999Z</time></trkpt><trkpt lat="43.19274080062534" lon="10.759545898286788"><ele>399.0</ele><time>2026-04-04T11:19:50.999Z</time></trkpt><trkpt lat="43.19279869436403" lon="10.75940414801697"><ele>399.0</ele><time>2026-04-04T11:19:51.999Z</time></trkpt><trkpt lat="43.19283602174738" lon="10.759256891443105"><ele>399.0</ele><time>2026-04-04T11:19:52.999Z</time></trkpt><trkpt lat="43.19283506273621" lon="10.759084197447441"><ele>396.5</ele><time>2026-04-04T11:19:53.999Z</time></trkpt><trkpt lat="43.19280588425475" lon="10.758888697235127"><ele>394.0</ele><time>2026-04-04T11:19:54.999Z</time></trkpt><trkpt lat="43.192770589178316" lon="10.758679659083931"><ele>391.5</ele><time>2026-04-04T11:19:55.999Z</time></trkpt><trkpt lat="43.19276329703113" lon="10.758481034624536"><ele>389.0</ele><time>2026-04-04T11:19:56.999Z</time></trkpt><trkpt lat="43.19277309771008" lon="10.758302153515345"><ele>388.0</ele><time>2026-04-04T11:19:57.999Z</time></trkpt><trkpt lat="43.19281465389244" lon="10.758140586015678"><ele>387.0</ele><time>2026-04-04T11:19:58.999Z</time></trkpt><trkpt lat="43.19288309946387" lon="10.757972295727475"><ele>386.0</ele><time>2026-04-04T11:19:59.999Z</time></trkpt><trkpt lat="43.192950708077255" lon="10.757783551913745"><ele>385.0</ele><time>2026-04-04T11:20:00.999Z</time></trkpt><trkpt lat="43.19298383433698" lon="10.757584243544738"><ele>382.33333333333337</ele><time>2026-04-04T11:20:01.999Z</time></trkpt><trkpt lat="43.19297243556011" lon="10.75735883112571"><ele>379.6666666666667</ele><time>2026-04-04T11:20:02.999Z</time></trkpt><trkpt lat="43.19294632593081" lon="10.757118686699167"><ele>377.0</ele><time>2026-04-04T11:20:03.999Z</time></trkpt><trkpt lat="43.19290115605913" lon="10.756855000101357"><ele>376.33333333333337</ele><time>2026-04-04T11:20:04.999Z</time></trkpt><trkpt lat="43.19285747590419" lon="10.756600596747049"><ele>375.6666666666667</ele><time>2026-04-04T11:20:05.999Z</time></trkpt><trkpt lat="43.19284379390777" lon="10.75636758957251"><ele>375.0</ele><time>2026-04-04T11:20:06.999Z</time></trkpt><trkpt lat="43.19281882982645" lon="10.756140691795146"><ele>375.0</ele><time>2026-04-04T11:20:07.999Z</time></trkpt><trkpt lat="43.19280679309292" lon="10.755930358223091"><ele>375.0</ele><time>2026-04-04T11:20:08.999Z</time></trkpt><trkpt lat="43.19281382557879" lon="10.755723452859032"><ele>375.0</ele><time>2026-04-04T11:20:09.999Z</time></trkpt><trkpt lat="43.19281587702924" lon="10.755532929725105"><ele>375.0</ele><time>2026-04-04T11:20:10.999Z</time></trkpt><trkpt lat="43.19279837438658" lon="10.755359135579114"><ele>375.0</ele><time>2026-04-04T11:20:11.998Z</time></trkpt><trkpt lat="43.19273738068986" lon="10.755219880084674"><ele>375.0</ele><time>2026-04-04T11:20:12.998Z</time></trkpt><trkpt lat="43.19265262294091" lon="10.755107378292351"><ele>375.0</ele><time>2026-04-04T11:20:13.998Z</time></trkpt><trkpt lat="43.19253089587241" lon="10.755094690722988"><ele>375.0</ele><time>2026-04-04T11:20:14.998Z</time></trkpt><trkpt lat="43.1924077419905" lon="10.755031521719337"><ele>371.5</ele><time>2026-04-04T11:20:15.998Z</time></trkpt><trkpt lat="43.192270688187634" lon="10.755000842578625"><ele>368.0</ele><time>2026-04-04T11:20:16.998Z</time></trkpt><trkpt lat="43.19215979174594" lon="10.754925281632293"><ele>364.5</ele><time>2026-04-04T11:20:17.998Z</time></trkpt><trkpt lat="43.19206519835292" lon="10.754825836362427"><ele>361.0</ele><time>2026-04-04T11:20:18.998Z</time></trkpt><trkpt lat="43.19199384189468" lon="10.754690507947188"><ele>361.0</ele><time>2026-04-04T11:20:19.998Z</time></trkpt><trkpt lat="43.191952959119014" lon="10.754511821718888"><ele>361.0</ele><time>2026-04-04T11:20:20.998Z</time></trkpt><trkpt lat="43.1919644286137" lon="10.75436271929357"><ele>361.0</ele><time>2026-04-04T11:20:21.998Z</time></trkpt><trkpt lat="43.192015579525744" lon="10.754228181862466"><ele>361.0</ele><time>2026-04-04T11:20:22.998Z</time></trkpt><trkpt lat="43.19209369720049" lon="10.75407621630183"><ele>359.66666666666663</ele><time>2026-04-04T11:20:23.998Z</time></trkpt><trkpt lat="43.19217839397365" lon="10.753883177501914"><ele>358.3333333333333</ele><time>2026-04-04T11:20:24.998Z</time></trkpt><trkpt lat="43.19225551784545" lon="10.753671593969525"><ele>357.0</ele><time>2026-04-04T11:20:25.998Z</time></trkpt><trkpt lat="43.192311898305014" lon="10.753402446796416"><ele>359.6666666666667</ele><time>2026-04-04T11:20:26.998Z</time></trkpt><trkpt lat="43.19240706425036" lon="10.753193849873508"><ele>362.33333333333337</ele><time>2026-04-04T11:20:27.998Z</time></trkpt><trkpt lat="43.19249435260312" lon="10.753010302924565"><ele>365.0</ele><time>2026-04-04T11:20:28.998Z</time></trkpt><trkpt lat="43.192543339182556" lon="10.75279100239752"><ele>362.33333333333337</ele><time>2026-04-04T11:20:29.998Z</time></trkpt><trkpt lat="43.19259337537509" lon="10.752561737127616"><ele>359.6666666666667</ele><time>2026-04-04T11:20:30.998Z</time></trkpt><trkpt lat="43.19261623142004" lon="10.752334815362827"><ele>357.0</ele><time>2026-04-04T11:20:31.998Z</time></trkpt><trkpt lat="43.19260460571348" lon="10.752144124083854"><ele>357.0</ele><time>2026-04-04T11:20:32.998Z</time></trkpt><trkpt lat="43.1926073936531" lon="10.751984683939641"><ele>357.0</ele><time>2026-04-04T11:20:33.998Z</time></trkpt><trkpt lat="43.192627958000635" lon="10.751863178467561"><ele>357.0</ele><time>2026-04-04T11:20:34.998Z</time></trkpt><trkpt lat="43.19269121157615" lon="10.751762627668247"><ele>357.0</ele><time>2026-04-04T11:20:35.998Z</time></trkpt><trkpt lat="43.192781590977916" lon="10.75170959597305"><ele>357.0</ele><time>2026-04-04T11:20:36.998Z</time></trkpt><trkpt lat="43.19289319524754" lon="10.751721182652938"><ele>357.3333333333333</ele><time>2026-04-04T11:20:37.998Z</time></trkpt><trkpt lat="43.19302687339697" lon="10.751708177956829"><ele>357.66666666666663</ele><time>2026-04-04T11:20:39Z</time></trkpt><trkpt lat="43.193156665054" lon="10.751607617729084"><ele>358.0</ele><time>2026-04-04T11:20:40Z</time></trkpt><trkpt lat="43.19325141592831" lon="10.751417844103832"><ele>358.0</ele><time>2026-04-04T11:20:41Z</time></trkpt><trkpt lat="43.193342411110265" lon="10.751207830630095"><ele>358.0</ele><time>2026-04-04T11:20:42Z</time></trkpt><trkpt lat="43.193424658542924" lon="10.751039107983747"><ele>358.0</ele><time>2026-04-04T11:20:43Z</time></trkpt><trkpt lat="43.193484986276324" lon="10.750893636722793"><ele>358.0</ele><time>2026-04-04T11:20:44Z</time></trkpt><trkpt lat="43.19352289532484" lon="10.750749760156637"><ele>355.75</ele><time>2026-04-04T11:20:45Z</time></trkpt><trkpt lat="43.19349867307559" lon="10.750584262262919"><ele>353.5</ele><time>2026-04-04T11:20:46Z</time></trkpt><trkpt lat="43.193413882425574" lon="10.75045199129916"><ele>351.25</ele><time>2026-04-04T11:20:47Z</time></trkpt><trkpt lat="43.19331423872437" lon="10.750335218124448"><ele>349.0</ele><time>2026-04-04T11:20:48Z</time></trkpt><trkpt lat="43.1931920918709" lon="10.750223581317236"><ele>347.3333333333333</ele><time>2026-04-04T11:20:49Z</time></trkpt><trkpt lat="43.19306313110345" lon="10.750093440812392"><ele>345.6666666666667</ele><time>2026-04-04T11:20:50Z</time></trkpt><trkpt lat="43.19292946891509" lon="10.749934116578565"><ele>344.0</ele><time>2026-04-04T11:20:51Z</time></trkpt><trkpt lat="43.192807196757265" lon="10.749805286086175"><ele>344.0</ele><time>2026-04-04T11:20:52Z</time></trkpt><trkpt lat="43.1926990895144" lon="10.74968415961723"><ele>344.0</ele><time>2026-04-04T11:20:53Z</time></trkpt><trkpt lat="43.19262085321474" lon="10.7495439570236"><ele>344.0</ele><time>2026-04-04T11:20:54Z</time></trkpt><trkpt lat="43.19255078540202" lon="10.749404610199148"><ele>344.0</ele><time>2026-04-04T11:20:55Z</time></trkpt><trkpt lat="43.19254879682571" lon="10.74925313841207"><ele>342.75</ele><time>2026-04-04T11:20:56Z</time></trkpt><trkpt lat="43.19254842239629" lon="10.749079496831994"><ele>341.5</ele><time>2026-04-04T11:20:57Z</time></trkpt><trkpt lat="43.192527628179384" lon="10.748890698555108"><ele>340.25</ele><time>2026-04-04T11:20:58Z</time></trkpt><trkpt lat="43.19252253198999" lon="10.748694619804688"><ele>339.0</ele><time>2026-04-04T11:20:59Z</time></trkpt><trkpt lat="43.19252094244044" lon="10.7485029909086"><ele>338.75</ele><time>2026-04-04T11:21:00Z</time></trkpt><trkpt lat="43.19253919126894" lon="10.748310790743222"><ele>338.5</ele><time>2026-04-04T11:21:01Z</time></trkpt><trkpt lat="43.19255460702382" lon="10.748131994571526"><ele>338.25</ele><time>2026-04-04T11:21:02Z</time></trkpt><trkpt lat="43.192566198551944" lon="10.74795142721446"><ele>338.0</ele><time>2026-04-04T11:21:03Z</time></trkpt><trkpt lat="43.19262781492144" lon="10.747811149911723"><ele>338.0</ele><time>2026-04-04T11:21:04Z</time></trkpt><trkpt lat="43.19270141610319" lon="10.74772068538897"><ele>338.0</ele><time>2026-04-04T11:21:05Z</time></trkpt><trkpt lat="43.192781115023465" lon="10.747657698715015"><ele>338.0</ele><time>2026-04-04T11:21:06Z</time></trkpt><trkpt lat="43.192897477625095" lon="10.747688257421956"><ele>338.0</ele><time>2026-04-04T11:21:07Z</time></trkpt><trkpt lat="43.193033117362205" lon="10.747685017870559"><ele>338.0</ele><time>2026-04-04T11:21:08Z</time></trkpt><trkpt lat="43.193177640518606" lon="10.747713604027561"><ele>339.0</ele><time>2026-04-04T11:21:09Z</time></trkpt><trkpt lat="43.19334103370893" lon="10.747729303698117"><ele>340.0</ele><time>2026-04-04T11:21:10Z</time></trkpt><trkpt lat="43.193481188023576" lon="10.747748461140425"><ele>341.0</ele><time>2026-04-04T11:21:11Z</time></trkpt><trkpt lat="43.19361199645094" lon="10.747757707485464"><ele>342.0</ele><time>2026-04-04T11:21:12Z</time></trkpt><trkpt lat="43.1937313563688" lon="10.747744798319697"><ele>339.3333333333333</ele><time>2026-04-04T11:21:13Z</time></trkpt><trkpt lat="43.19384651852089" lon="10.747652588452816"><ele>336.66666666666663</ele><time>2026-04-04T11:21:14Z</time></trkpt><trkpt lat="43.193952651513335" lon="10.747502218755479"><ele>334.0</ele><time>2026-04-04T11:21:15Z</time></trkpt><trkpt lat="43.19403364743554" lon="10.74730266563658"><ele>333.66666666666663</ele><time>2026-04-04T11:21:16Z</time></trkpt><trkpt lat="43.19408930185051" lon="10.747081310590962"><ele>333.3333333333333</ele><time>2026-04-04T11:21:17Z</time></trkpt><trkpt lat="43.1941452820626" lon="10.746862425819897"><ele>333.0</ele><time>2026-04-04T11:21:18Z</time></trkpt><trkpt lat="43.19420361009865" lon="10.746668422736159"><ele>331.6666666666667</ele><time>2026-04-04T11:21:19Z</time></trkpt><trkpt lat="43.19427948082816" lon="10.746476705665868"><ele>330.33333333333337</ele><time>2026-04-04T11:21:20Z</time></trkpt><trkpt lat="43.194321984495815" lon="10.74627716734812"><ele>329.0</ele><time>2026-04-04T11:21:20.999Z</time></trkpt><trkpt lat="43.194398803116826" lon="10.746088484904057"><ele>328.5</ele><time>2026-04-04T11:21:21.999Z</time></trkpt><trkpt lat="43.19444447164205" lon="10.745877500162218"><ele>328.0</ele><time>2026-04-04T11:21:22.999Z</time></trkpt><trkpt lat="43.19447773808881" lon="10.74569881971924"><ele>327.5</ele><time>2026-04-04T11:21:23.999Z</time></trkpt><trkpt lat="43.19448819784779" lon="10.74552214389251"><ele>327.0</ele><time>2026-04-04T11:21:24.999Z</time></trkpt><trkpt lat="43.194481177565734" lon="10.745343008592352"><ele>326.25</ele><time>2026-04-04T11:21:25.999Z</time></trkpt><trkpt lat="43.19449319864643" lon="10.745171342740639"><ele>325.5</ele><time>2026-04-04T11:21:26.999Z</time></trkpt><trkpt lat="43.194491919459956" lon="10.745007368007894"><ele>324.75</ele><time>2026-04-04T11:21:27.999Z</time></trkpt><trkpt lat="43.194498324626196" lon="10.744843362699513"><ele>324.0</ele><time>2026-04-04T11:21:28.999Z</time></trkpt><trkpt lat="43.19453349752337" lon="10.744702264218304"><ele>324.0</ele><time>2026-04-04T11:21:29.999Z</time></trkpt><trkpt lat="43.19461512884605" lon="10.744577381203106"><ele>324.0</ele><time>2026-04-04T11:21:30.999Z</time></trkpt><trkpt lat="43.19473867238503" lon="10.74447908046125"><ele>324.0</ele><time>2026-04-04T11:21:31.999Z</time></trkpt><trkpt lat="43.1948565892709" lon="10.744332496353481"><ele>324.0</ele><time>2026-04-04T11:21:32.999Z</time></trkpt><trkpt lat="43.19496569322177" lon="10.744170675467133"><ele>325.0</ele><time>2026-04-04T11:21:33.999Z</time></trkpt><trkpt lat="43.1950497677584" lon="10.743956265118715"><ele>326.0</ele><time>2026-04-04T11:21:34.999Z</time></trkpt><trkpt lat="43.195113365769885" lon="10.743746055331059"><ele>327.0</ele><time>2026-04-04T11:21:35.999Z</time></trkpt><trkpt lat="43.19518906974431" lon="10.743553492805052"><ele>325.0</ele><time>2026-04-04T11:21:36.999Z</time></trkpt><trkpt lat="43.195263739152175" lon="10.743380695372936"><ele>323.0</ele><time>2026-04-04T11:21:37.999Z</time></trkpt><trkpt lat="43.195341296462686" lon="10.743204395405177"><ele>321.0</ele><time>2026-04-04T11:21:38.999Z</time></trkpt><trkpt lat="43.195400665776376" lon="10.74304705782693"><ele>319.0</ele><time>2026-04-04T11:21:39.999Z</time></trkpt><trkpt lat="43.19543776283167" lon="10.742876385947058"><ele>317.0</ele><time>2026-04-04T11:21:40.999Z</time></trkpt><trkpt lat="43.19543895312695" lon="10.74266758152779"><ele>315.0</ele><time>2026-04-04T11:21:41.999Z</time></trkpt><trkpt lat="43.195438128419" lon="10.74242807166532"><ele>313.0</ele><time>2026-04-04T11:21:42.999Z</time></trkpt><trkpt lat="43.19543524071587" lon="10.74219296173053"><ele>313.0</ele><time>2026-04-04T11:21:43.999Z</time></trkpt><trkpt lat="43.19542681587336" lon="10.741964143481127"><ele>313.0</ele><time>2026-04-04T11:21:44.999Z</time></trkpt><trkpt lat="43.195407445872554" lon="10.741744930306783"><ele>313.0</ele><time>2026-04-04T11:21:45.999Z</time></trkpt><trkpt lat="43.19540376450224" lon="10.741545116396422"><ele>311.5</ele><time>2026-04-04T11:21:46.999Z</time></trkpt><trkpt lat="43.19538422265782" lon="10.7413413803399"><ele>310.0</ele><time>2026-04-04T11:21:47.999Z</time></trkpt><trkpt lat="43.1953336334914" lon="10.741152192678518"><ele>308.5</ele><time>2026-04-04T11:21:48.999Z</time></trkpt><trkpt lat="43.195281212227435" lon="10.74097099666867"><ele>307.0</ele><time>2026-04-04T11:21:49.999Z</time></trkpt><trkpt lat="43.195223636814966" lon="10.740810081275162"><ele>307.0</ele><time>2026-04-04T11:21:50.999Z</time></trkpt><trkpt lat="43.19517372400325" lon="10.740660531756545"><ele>307.0</ele><time>2026-04-04T11:21:51.999Z</time></trkpt><trkpt lat="43.19514399597211" lon="10.740512798124644"><ele>307.0</ele><time>2026-04-04T11:21:52.999Z</time></trkpt><trkpt lat="43.19511732352354" lon="10.740391944807445"><ele>307.0</ele><time>2026-04-04T11:21:53.999Z</time></trkpt><trkpt lat="43.195093821160455" lon="10.740302144718564"><ele>307.0</ele><time>2026-04-04T11:21:54.999Z</time></trkpt><trkpt lat="43.19513471077319" lon="10.740229837584698"><ele>307.0</ele><time>2026-04-04T11:21:55.999Z</time></trkpt><trkpt lat="43.19521657220855" lon="10.74020495548457"><ele>307.0</ele><time>2026-04-04T11:21:56.999Z</time></trkpt><trkpt lat="43.1953102666912" lon="10.740228585933457"><ele>307.0</ele><time>2026-04-04T11:21:57.999Z</time></trkpt><trkpt lat="43.195412952959806" lon="10.740286663663703"><ele>307.0</ele><time>2026-04-04T11:21:58.999Z</time></trkpt><trkpt lat="43.19552784557974" lon="10.74036406324616"><ele>307.0</ele><time>2026-04-04T11:21:59.999Z</time></trkpt><trkpt lat="43.19565335168779" lon="10.740460071406162"><ele>308.25</ele><time>2026-04-04T11:22:00.999Z</time></trkpt><trkpt lat="43.19578078495885" lon="10.740539755055341"><ele>309.5</ele><time>2026-04-04T11:22:01.999Z</time></trkpt><trkpt lat="43.195918801076246" lon="10.740590914862361"><ele>310.75</ele><time>2026-04-04T11:22:02.999Z</time></trkpt><trkpt lat="43.196076321137774" lon="10.740600925023681"><ele>312.0</ele><time>2026-04-04T11:22:03.999Z</time></trkpt><trkpt lat="43.196244440256756" lon="10.740577652206852"><ele>312.0</ele><time>2026-04-04T11:22:04.999Z</time></trkpt><trkpt lat="43.1964020566915" lon="10.740552397878414"><ele>312.0</ele><time>2026-04-04T11:22:05.999Z</time></trkpt><trkpt lat="43.196546374920565" lon="10.740533140046006"><ele>312.0</ele><time>2026-04-04T11:22:06.999Z</time></trkpt><trkpt lat="43.19668545822551" lon="10.740515556901274"><ele>312.0</ele><time>2026-04-04T11:22:07.999Z</time></trkpt><trkpt lat="43.19681713723399" lon="10.740493528154678"><ele>311.0</ele><time>2026-04-04T11:22:08.999Z</time></trkpt><trkpt lat="43.196934506117316" lon="10.740458380688894"><ele>310.0</ele><time>2026-04-04T11:22:09.999Z</time></trkpt><trkpt lat="43.19704510966283" lon="10.740385740923882"><ele>309.0</ele><time>2026-04-04T11:22:10.999Z</time></trkpt><trkpt lat="43.197133710180225" lon="10.740272640127575"><ele>308.0</ele><time>2026-04-04T11:22:11.999Z</time></trkpt><trkpt lat="43.197203261156126" lon="10.740136900736047"><ele>306.0</ele><time>2026-04-04T11:22:12.999Z</time></trkpt><trkpt lat="43.197264997341165" lon="10.740008657437569"><ele>304.0</ele><time>2026-04-04T11:22:13.999Z</time></trkpt><trkpt lat="43.197326545610686" lon="10.739880030832976"><ele>302.0</ele><time>2026-04-04T11:22:14.999Z</time></trkpt><trkpt lat="43.197371657336234" lon="10.739760125948749"><ele>300.0</ele><time>2026-04-04T11:22:15.999Z</time></trkpt><trkpt lat="43.19740993035965" lon="10.739640285544208"><ele>298.0</ele><time>2026-04-04T11:22:16.999Z</time></trkpt><trkpt lat="43.19746843479839" lon="10.739552527167737"><ele>298.0</ele><time>2026-04-04T11:22:17.999Z</time></trkpt><trkpt lat="43.19755878371834" lon="10.739509107036072"><ele>298.0</ele><time>2026-04-04T11:22:18.999Z</time></trkpt><trkpt lat="43.19766951936438" lon="10.739475341020341"><ele>298.0</ele><time>2026-04-04T11:22:19.999Z</time></trkpt><trkpt lat="43.19778874619235" lon="10.739421547745946"><ele>298.0</ele><time>2026-04-04T11:22:20.999Z</time></trkpt><trkpt lat="43.197905852245555" lon="10.739313747409469"><ele>297.5</ele><time>2026-04-04T11:22:21.998Z</time></trkpt><trkpt lat="43.19799682085405" lon="10.739168529426008"><ele>297.0</ele><time>2026-04-04T11:22:22.998Z</time></trkpt><trkpt lat="43.198072811745746" lon="10.739015441048581"><ele>296.5</ele><time>2026-04-04T11:22:23.998Z</time></trkpt><trkpt lat="43.198164441772306" lon="10.73889239016851"><ele>296.0</ele><time>2026-04-04T11:22:24.998Z</time></trkpt><trkpt lat="43.19823187943752" lon="10.738752216925949"><ele>296.0</ele><time>2026-04-04T11:22:25.998Z</time></trkpt><trkpt lat="43.198314940356696" lon="10.738626022873827"><ele>296.0</ele><time>2026-04-04T11:22:26.998Z</time></trkpt><trkpt lat="43.198407283123174" lon="10.738502783991065"><ele>296.0</ele><time>2026-04-04T11:22:27.998Z</time></trkpt><trkpt lat="43.19853104496703" lon="10.73843468291212"><ele>296.0</ele><time>2026-04-04T11:22:28.998Z</time></trkpt><trkpt lat="43.19864578432199" lon="10.738343519198606"><ele>293.83333333333337</ele><time>2026-04-04T11:22:29.998Z</time></trkpt><trkpt lat="43.198748985116566" lon="10.738284084985738"><ele>291.6666666666667</ele><time>2026-04-04T11:22:30.998Z</time></trkpt><trkpt lat="43.19883001906745" lon="10.738220700777724"><ele>289.5</ele><time>2026-04-04T11:22:31.998Z</time></trkpt><trkpt lat="43.19888516744268" lon="10.738142909702367"><ele>287.3333333333333</ele><time>2026-04-04T11:22:32.998Z</time></trkpt><trkpt lat="43.1989159393088" lon="10.738058316116001"><ele>285.16666666666663</ele><time>2026-04-04T11:22:33.998Z</time></trkpt><trkpt lat="43.198911624092624" lon="10.737953661201004"><ele>283.0</ele><time>2026-04-04T11:22:34.998Z</time></trkpt><trkpt lat="43.19886502481126" lon="10.737864726678367"><ele>283.0</ele><time>2026-04-04T11:22:35.998Z</time></trkpt><trkpt lat="43.19879963817166" lon="10.737800047942647"><ele>283.0</ele><time>2026-04-04T11:22:36.998Z</time></trkpt><trkpt lat="43.19869739354487" lon="10.737826625244844"><ele>283.0</ele><time>2026-04-04T11:22:37.998Z</time></trkpt><trkpt lat="43.19861558090049" lon="10.737833802100925"><ele>283.0</ele><time>2026-04-04T11:22:38.998Z</time></trkpt><trkpt lat="43.19850499269208" lon="10.737838441759218"><ele>283.0</ele><time>2026-04-04T11:22:39.998Z</time></trkpt><trkpt lat="43.19840522194408" lon="10.737837579921946"><ele>283.0</ele><time>2026-04-04T11:22:40.998Z</time></trkpt><trkpt lat="43.19830101611229" lon="10.737838819172847"><ele>283.0</ele><time>2026-04-04T11:22:41.998Z</time></trkpt><trkpt lat="43.198189950591065" lon="10.737835819556032"><ele>283.0</ele><time>2026-04-04T11:22:42.998Z</time></trkpt><trkpt lat="43.198081658582815" lon="10.737842714704758"><ele>283.0</ele><time>2026-04-04T11:22:43.998Z</time></trkpt><trkpt lat="43.19796724244529" lon="10.737872328931465"><ele>283.0</ele><time>2026-04-04T11:22:45Z</time></trkpt><trkpt lat="43.197835962095226" lon="10.737894443654977"><ele>282.0</ele><time>2026-04-04T11:22:46Z</time></trkpt><trkpt lat="43.19770080198216" lon="10.73792156475706"><ele>281.0</ele><time>2026-04-04T11:22:47Z</time></trkpt><trkpt lat="43.19755737611423" lon="10.737934693941643"><ele>280.0</ele><time>2026-04-04T11:22:48Z</time></trkpt><trkpt lat="43.19740571319745" lon="10.737926902429146"><ele>279.0</ele><time>2026-04-04T11:22:49Z</time></trkpt><trkpt lat="43.197250157056935" lon="10.737899269575829"><ele>279.0</ele><time>2026-04-04T11:22:50Z</time></trkpt><trkpt lat="43.197103446350525" lon="10.737869849849767"><ele>279.0</ele><time>2026-04-04T11:22:51Z</time></trkpt><trkpt lat="43.1969762572813" lon="10.73784995444965"><ele>279.0</ele><time>2026-04-04T11:22:52Z</time></trkpt><trkpt lat="43.19685787742793" lon="10.737813967719418"><ele>279.0</ele><time>2026-04-04T11:22:53Z</time></trkpt><trkpt lat="43.196774317077036" lon="10.737697964145015"><ele>278.2</ele><time>2026-04-04T11:22:54Z</time></trkpt><trkpt lat="43.19674926824256" lon="10.73755661962438"><ele>277.4</ele><time>2026-04-04T11:22:55Z</time></trkpt><trkpt lat="43.19673729658296" lon="10.737418582958128"><ele>276.6</ele><time>2026-04-04T11:22:56Z</time></trkpt><trkpt lat="43.19671096109112" lon="10.737254822366378"><ele>275.8</ele><time>2026-04-04T11:22:57Z</time></trkpt><trkpt lat="43.19666913683092" lon="10.7371144216283"><ele>275.0</ele><time>2026-04-04T11:22:58Z</time></trkpt><trkpt lat="43.19659806374007" lon="10.737006452546122"><ele>275.8</ele><time>2026-04-04T11:22:59Z</time></trkpt><trkpt lat="43.196501105245964" lon="10.736920701833599"><ele>276.6</ele><time>2026-04-04T11:23:00Z</time></trkpt><trkpt lat="43.196398740312404" lon="10.736898664428141"><ele>277.4</ele><time>2026-04-04T11:23:01Z</time></trkpt><trkpt lat="43.196328561541485" lon="10.73685489521407"><ele>278.2</ele><time>2026-04-04T11:23:02Z</time></trkpt><trkpt lat="43.196250320507005" lon="10.736823193631103"><ele>279.0</ele><time>2026-04-04T11:23:03Z</time></trkpt><trkpt lat="43.19616145961009" lon="10.73678718902804"><ele>278.0</ele><time>2026-04-04T11:23:04Z</time></trkpt><trkpt lat="43.19606273592557" lon="10.736747188263266"><ele>277.0</ele><time>2026-04-04T11:23:05Z</time></trkpt><trkpt lat="43.19595612858384" lon="10.73670399318959"><ele>276.0</ele><time>2026-04-04T11:23:06Z</time></trkpt><trkpt lat="43.195855166665815" lon="10.736663085504494"><ele>275.0</ele><time>2026-04-04T11:23:07Z</time></trkpt><trkpt lat="43.19574584963783" lon="10.73661879249022"><ele>274.0</ele><time>2026-04-04T11:23:08Z</time></trkpt><trkpt lat="43.195642928128215" lon="10.736576418856856"><ele>274.0</ele><time>2026-04-04T11:23:09Z</time></trkpt><trkpt lat="43.1955418573726" lon="10.736533585924496"><ele>274.0</ele><time>2026-04-04T11:23:10Z</time></trkpt><trkpt lat="43.19544343176104" lon="10.73648977871347"><ele>274.0</ele><time>2026-04-04T11:23:11Z</time></trkpt><trkpt lat="43.19535526479424" lon="10.736429863339135"><ele>274.0</ele><time>2026-04-04T11:23:12Z</time></trkpt><trkpt lat="43.19527319445429" lon="10.736340411585209"><ele>274.0</ele><time>2026-04-04T11:23:13Z</time></trkpt><trkpt lat="43.19521491598208" lon="10.736207368398192"><ele>274.0</ele><time>2026-04-04T11:23:14Z</time></trkpt><trkpt lat="43.195153599239916" lon="10.73606586844425"><ele>274.0</ele><time>2026-04-04T11:23:15Z</time></trkpt><trkpt lat="43.19509439752507" lon="10.735950925366787"><ele>274.0</ele><time>2026-04-04T11:23:16Z</time></trkpt><trkpt lat="43.19503601792016" lon="10.735821133314905"><ele>274.0</ele><time>2026-04-04T11:23:17Z</time></trkpt><trkpt lat="43.19498099216645" lon="10.735681376761127"><ele>272.5</ele><time>2026-04-04T11:23:18Z</time></trkpt><trkpt lat="43.194928683373135" lon="10.735521081911449"><ele>271.0</ele><time>2026-04-04T11:23:19Z</time></trkpt><trkpt lat="43.19488730713505" lon="10.735354970787135"><ele>269.5</ele><time>2026-04-04T11:23:20Z</time></trkpt><trkpt lat="43.194859050929885" lon="10.735195504136007"><ele>268.0</ele><time>2026-04-04T11:23:21Z</time></trkpt><trkpt lat="43.194853463178504" lon="10.735036659378128"><ele>266.8</ele><time>2026-04-04T11:23:22Z</time></trkpt><trkpt lat="43.19490632238109" lon="10.734890614418491"><ele>265.6</ele><time>2026-04-04T11:23:23Z</time></trkpt><trkpt lat="43.19493418770586" lon="10.734738490806341"><ele>264.4</ele><time>2026-04-04T11:23:24Z</time></trkpt><trkpt lat="43.19495841636445" lon="10.734607137614129"><ele>263.2</ele><time>2026-04-04T11:23:25Z</time></trkpt><trkpt lat="43.1949404167271" lon="10.734467313610486"><ele>262.0</ele><time>2026-04-04T11:23:26Z</time></trkpt><trkpt lat="43.194880439644045" lon="10.73434803645401"><ele>262.25</ele><time>2026-04-04T11:23:27Z</time></trkpt><trkpt lat="43.194788693991896" lon="10.734244500659136"><ele>262.5</ele><time>2026-04-04T11:23:27.999Z</time></trkpt><trkpt lat="43.19468053048704" lon="10.734151223579872"><ele>262.75</ele><time>2026-04-04T11:23:28.999Z</time></trkpt><trkpt lat="43.19456532895068" lon="10.734049760293924"><ele>263.0</ele><time>2026-04-04T11:23:29.999Z</time></trkpt><trkpt lat="43.1944425000013" lon="10.733939875947575"><ele>263.0</ele><time>2026-04-04T11:23:30.999Z</time></trkpt><trkpt lat="43.194315693629804" lon="10.733829661399529"><ele>263.0</ele><time>2026-04-04T11:23:31.999Z</time></trkpt><trkpt lat="43.194197699392475" lon="10.733727295345052"><ele>263.0</ele><time>2026-04-04T11:23:32.999Z</time></trkpt><trkpt lat="43.19408724364682" lon="10.733615127272612"><ele>263.0</ele><time>2026-04-04T11:23:33.999Z</time></trkpt><trkpt lat="43.19398696131175" lon="10.733501716889684"><ele>261.5</ele><time>2026-04-04T11:23:34.999Z</time></trkpt><trkpt lat="43.19389820567538" lon="10.733380467498714"><ele>260.0</ele><time>2026-04-04T11:23:35.999Z</time></trkpt><trkpt lat="43.19381394530168" lon="10.733250463545515"><ele>258.5</ele><time>2026-04-04T11:23:36.999Z</time></trkpt><trkpt lat="43.19371744685917" lon="10.733130396985928"><ele>257.0</ele><time>2026-04-04T11:23:37.999Z</time></trkpt><trkpt lat="43.19362648922697" lon="10.733021545164402"><ele>257.0</ele><time>2026-04-04T11:23:38.999Z</time></trkpt><trkpt lat="43.193540572955726" lon="10.732907066100415"><ele>257.0</ele><time>2026-04-04T11:23:39.999Z</time></trkpt><trkpt lat="43.19345618422114" lon="10.732794053699228"><ele>257.0</ele><time>2026-04-04T11:23:40.999Z</time></trkpt><trkpt lat="43.19337181552293" lon="10.732691044405904"><ele>257.0</ele><time>2026-04-04T11:23:41.999Z</time></trkpt><trkpt lat="43.19328836693153" lon="10.732580926137826"><ele>256.25</ele><time>2026-04-04T11:23:42.999Z</time></trkpt><trkpt lat="43.19322408589662" lon="10.732450397335915"><ele>255.5</ele><time>2026-04-04T11:23:43.999Z</time></trkpt><trkpt lat="43.19316338864268" lon="10.732331007058828"><ele>254.75</ele><time>2026-04-04T11:23:44.999Z</time></trkpt><trkpt lat="43.19310028595232" lon="10.732201267665573"><ele>254.0</ele><time>2026-04-04T11:23:45.999Z</time></trkpt><trkpt lat="43.19302776131991" lon="10.732063893678525"><ele>254.0</ele><time>2026-04-04T11:23:46.999Z</time></trkpt><trkpt lat="43.19296622250378" lon="10.731907098687376"><ele>254.0</ele><time>2026-04-04T11:23:47.999Z</time></trkpt><trkpt lat="43.19290793869163" lon="10.731741088228569"><ele>254.0</ele><time>2026-04-04T11:23:48.999Z</time></trkpt><trkpt lat="43.19284477688257" lon="10.731577677873094"><ele>254.0</ele><time>2026-04-04T11:23:49.999Z</time></trkpt><trkpt lat="43.192789038024046" lon="10.731409178496842"><ele>254.75</ele><time>2026-04-04T11:23:50.999Z</time></trkpt><trkpt lat="43.19272321594706" lon="10.731242697115928"><ele>255.5</ele><time>2026-04-04T11:23:51.999Z</time></trkpt><trkpt lat="43.19267800828057" lon="10.731051439473068"><ele>256.25</ele><time>2026-04-04T11:23:52.999Z</time></trkpt><trkpt lat="43.19261960728315" lon="10.730864859155364"><ele>257.0</ele><time>2026-04-04T11:23:53.999Z</time></trkpt><trkpt lat="43.192569880130044" lon="10.730664836442207"><ele>260.0</ele><time>2026-04-04T11:23:54.999Z</time></trkpt><trkpt lat="43.192526045252265" lon="10.730458936316877"><ele>263.0</ele><time>2026-04-04T11:23:55.999Z</time></trkpt><trkpt lat="43.192484026234425" lon="10.730244044333723"><ele>266.0</ele><time>2026-04-04T11:23:56.999Z</time></trkpt><trkpt lat="43.19244089151531" lon="10.730041751913763"><ele>267.6666666666667</ele><time>2026-04-04T11:23:57.999Z</time></trkpt><trkpt lat="43.192411335154816" lon="10.729826982439063"><ele>269.3333333333333</ele><time>2026-04-04T11:23:58.999Z</time></trkpt><trkpt lat="43.19236859707503" lon="10.729624828770906"><ele>271.0</ele><time>2026-04-04T11:23:59.999Z</time></trkpt><trkpt lat="43.19230871222196" lon="10.729449144802816"><ele>269.40000000000003</ele><time>2026-04-04T11:24:00.999Z</time></trkpt><trkpt lat="43.19226366831743" lon="10.729292335572662"><ele>267.8</ele><time>2026-04-04T11:24:01.999Z</time></trkpt><trkpt lat="43.19220905336411" lon="10.729145808103464"><ele>266.20000000000005</ele><time>2026-04-04T11:24:02.999Z</time></trkpt><trkpt lat="43.19216205261141" lon="10.729039063139078"><ele>264.6</ele><time>2026-04-04T11:24:03.999Z</time></trkpt><trkpt lat="43.19212615433045" lon="10.728947101288908"><ele>263.0</ele><time>2026-04-04T11:24:04.999Z</time></trkpt><trkpt lat="43.192069691843834" lon="10.728836508676507"><ele>263.0</ele><time>2026-04-04T11:24:06.999Z</time></trkpt><trkpt lat="43.192026315026254" lon="10.728762957543564"><ele>263.0</ele><time>2026-04-04T11:24:08.999Z</time></trkpt><trkpt lat="43.192135384573085" lon="10.728673047457953"><ele>263.0</ele><time>2026-04-04T11:25:38.999Z</time></trkpt><trkpt lat="43.19220701753041" lon="10.72860708191117"><ele>263.0</ele><time>2026-04-04T11:25:40.999Z</time></trkpt><trkpt lat="43.19223683666409" lon="10.728521106539564"><ele>263.0</ele><time>2026-04-04T11:25:42.999Z</time></trkpt><trkpt lat="43.192177466785196" lon="10.728485269061716"><ele>263.0</ele><time>2026-04-04T11:25:43.999Z</time></trkpt><trkpt lat="43.192108136515635" lon="10.72842954740428"><ele>265.0</ele><time>2026-04-04T11:25:45.999Z</time></trkpt><trkpt lat="43.19205760499916" lon="10.728339904650069"><ele>267.0</ele><time>2026-04-04T11:25:48.999Z</time></trkpt><trkpt lat="43.19199464631058" lon="10.728292022946952"><ele>269.0</ele><time>2026-04-04T11:26:13.999Z</time></trkpt><trkpt lat="43.19191922740594" lon="10.728170577619675"><ele>271.0</ele><time>2026-04-04T11:26:15.999Z</time></trkpt><trkpt lat="43.191871965960345" lon="10.728084312570102"><ele>273.0</ele><time>2026-04-04T11:26:16.999Z</time></trkpt><trkpt lat="43.19181543415332" lon="10.72798389899641"><ele>275.0</ele><time>2026-04-04T11:26:17.999Z</time></trkpt><trkpt lat="43.19176605657544" lon="10.727913151438504"><ele>275.0</ele><time>2026-04-04T11:26:18.999Z</time></trkpt><trkpt lat="43.191715129962525" lon="10.727840351457145"><ele>275.0</ele><time>2026-04-04T11:26:19.999Z</time></trkpt><trkpt lat="43.19168492743097" lon="10.727760494524329"><ele>275.0</ele><time>2026-04-04T11:26:20.999Z</time></trkpt><trkpt lat="43.19166233955393" lon="10.727660915703872"><ele>275.0</ele><time>2026-04-04T11:26:21.999Z</time></trkpt><trkpt lat="43.191650847199185" lon="10.72756079393264"><ele>275.0</ele><time>2026-04-04T11:26:22.999Z</time></trkpt><trkpt lat="43.19160513417424" lon="10.727467772659034"><ele>275.0</ele><time>2026-04-04T11:26:23.999Z</time></trkpt><trkpt lat="43.191516185845366" lon="10.727326866072342"><ele>277.8</ele><time>2026-04-04T11:26:25.999Z</time></trkpt><trkpt lat="43.19145980595589" lon="10.727164411686921"><ele>280.6</ele><time>2026-04-04T11:26:27.999Z</time></trkpt><trkpt lat="43.191438555300415" lon="10.727065207319011"><ele>283.4</ele><time>2026-04-04T11:26:28.999Z</time></trkpt><trkpt lat="43.191412859497106" lon="10.726961326899657"><ele>286.2</ele><time>2026-04-04T11:26:29.999Z</time></trkpt><trkpt lat="43.1913821538359" lon="10.72685708138763"><ele>289.0</ele><time>2026-04-04T11:26:30.999Z</time></trkpt><trkpt lat="43.19135900736075" lon="10.72670905971814"><ele>291.66666666666663</ele><time>2026-04-04T11:26:31.999Z</time></trkpt><trkpt lat="43.19134202786437" lon="10.726600772543355"><ele>294.3333333333333</ele><time>2026-04-04T11:26:32.999Z</time></trkpt><trkpt lat="43.191327281078415" lon="10.726467474430212"><ele>297.0</ele><time>2026-04-04T11:26:33.999Z</time></trkpt><trkpt lat="43.191319897081144" lon="10.726328040645134"><ele>299.6666666666667</ele><time>2026-04-04T11:26:34.999Z</time></trkpt><trkpt lat="43.19131125844458" lon="10.72618796896849"><ele>302.33333333333337</ele><time>2026-04-04T11:26:35.999Z</time></trkpt><trkpt lat="43.19130938113533" lon="10.726100589253214"><ele>305.0</ele><time>2026-04-04T11:26:36.998Z</time></trkpt><trkpt lat="43.1912936359015" lon="10.725962581431338"><ele>307.33333333333337</ele><time>2026-04-04T11:26:38.998Z</time></trkpt><trkpt lat="43.19126921631751" lon="10.725839345963793"><ele>309.6666666666667</ele><time>2026-04-04T11:26:42.998Z</time></trkpt><trkpt lat="43.19123306095001" lon="10.72572294444124"><ele>312.0</ele><time>2026-04-04T11:26:45.998Z</time></trkpt><trkpt lat="43.19117351089219" lon="10.725633134594853"><ele>314.3333333333333</ele><time>2026-04-04T11:26:47.998Z</time></trkpt><trkpt lat="43.19110579351948" lon="10.725605141062845"><ele>316.66666666666663</ele><time>2026-04-04T11:26:48.998Z</time></trkpt><trkpt lat="43.191015686624894" lon="10.725579305449573"><ele>319.0</ele><time>2026-04-04T11:26:49.998Z</time></trkpt><trkpt lat="43.190949491108974" lon="10.725559205019852"><ele>319.0</ele><time>2026-04-04T11:26:50.998Z</time></trkpt><trkpt lat="43.19085696067141" lon="10.725570141534003"><ele>319.0</ele><time>2026-04-04T11:26:52.998Z</time></trkpt><trkpt lat="43.190781249503964" lon="10.725627862475092"><ele>319.0</ele><time>2026-04-04T11:26:54.998Z</time></trkpt><trkpt lat="43.19071509149189" lon="10.725706817273664"><ele>319.0</ele><time>2026-04-04T11:26:57Z</time></trkpt><trkpt lat="43.190648524287596" lon="10.725697642067223"><ele>319.0</ele><time>2026-04-04T11:26:59Z</time></trkpt><trkpt lat="43.19063307939969" lon="10.725577280131203"><ele>319.0</ele><time>2026-04-04T11:27:03Z</time></trkpt><trkpt lat="43.19063628347535" lon="10.725487380486445"><ele>322.0</ele><time>2026-04-04T11:27:25Z</time></trkpt><trkpt lat="43.19063571100242" lon="10.725357281841516"><ele>325.0</ele><time>2026-04-04T11:27:28Z</time></trkpt><trkpt lat="43.19064268352116" lon="10.725268818970397"><ele>328.0</ele><time>2026-04-04T11:27:30Z</time></trkpt><trkpt lat="43.19070896688592" lon="10.725096657968148"><ele>331.0</ele><time>2026-04-04T11:27:32Z</time></trkpt><trkpt lat="43.190739312134085" lon="10.725013421426196"><ele>334.0</ele><time>2026-04-04T11:27:33Z</time></trkpt><trkpt lat="43.19080524875444" lon="10.724904011588219"><ele>334.0</ele><time>2026-04-04T11:27:35Z</time></trkpt><trkpt lat="43.19086896377856" lon="10.724854497007883"><ele>334.0</ele><time>2026-04-04T11:27:36Z</time></trkpt><trkpt lat="43.19097161909917" lon="10.724795975251975"><ele>334.0</ele><time>2026-04-04T11:27:38Z</time></trkpt><trkpt lat="43.19106448361439" lon="10.724746751087208"><ele>334.0</ele><time>2026-04-04T11:27:39.999Z</time></trkpt><trkpt lat="43.19113787530269" lon="10.724723816365726"><ele>334.0</ele><time>2026-04-04T11:27:41.999Z</time></trkpt><trkpt lat="43.191196568166404" lon="10.724662109025086"><ele>334.0</ele><time>2026-04-04T11:27:43.999Z</time></trkpt><trkpt lat="43.191213498220435" lon="10.724544290056723"><ele>334.0</ele><time>2026-04-04T11:27:45.999Z</time></trkpt><trkpt lat="43.19118057337193" lon="10.724439398132073"><ele>334.0</ele><time>2026-04-04T11:27:47.999Z</time></trkpt><trkpt lat="43.191096335980745" lon="10.724323898392116"><ele>334.0</ele><time>2026-04-04T11:27:49.999Z</time></trkpt><trkpt lat="43.19100894925666" lon="10.72417430873214"><ele>334.0</ele><time>2026-04-04T11:27:51.999Z</time></trkpt><trkpt lat="43.1909810972124" lon="10.724089020307165"><ele>334.0</ele><time>2026-04-04T11:27:52.999Z</time></trkpt><trkpt lat="43.190977781012414" lon="10.724002123239131"><ele>336.6</ele><time>2026-04-04T11:27:53.999Z</time></trkpt><trkpt lat="43.19099868101863" lon="10.723916781190047"><ele>339.2</ele><time>2026-04-04T11:27:54.999Z</time></trkpt><trkpt lat="43.190997848400066" lon="10.72376189876052"><ele>341.8</ele><time>2026-04-04T11:27:56.999Z</time></trkpt><trkpt lat="43.19099267328765" lon="10.723583606514017"><ele>344.40000000000003</ele><time>2026-04-04T11:27:58.999Z</time></trkpt><trkpt lat="43.190998916418955" lon="10.723494373970322"><ele>347.0</ele><time>2026-04-04T11:27:59.999Z</time></trkpt><trkpt lat="43.191027028673595" lon="10.72335378675253"><ele>348.20000000000005</ele><time>2026-04-04T11:28:01.999Z</time></trkpt><trkpt lat="43.191068835237864" lon="10.72323241016299"><ele>349.4</ele><time>2026-04-04T11:28:03.999Z</time></trkpt><trkpt lat="43.191030673174645" lon="10.723088146237856"><ele>350.6</ele><time>2026-04-04T11:28:05.999Z</time></trkpt><trkpt lat="43.19096788226426" lon="10.722961812028847"><ele>351.79999999999995</ele><time>2026-04-04T11:28:07.999Z</time></trkpt><trkpt lat="43.190917654769834" lon="10.722883459213294"><ele>353.0</ele><time>2026-04-04T11:28:08.999Z</time></trkpt><trkpt lat="43.190886581816734" lon="10.722795735602036"><ele>354.0</ele><time>2026-04-04T11:28:09.999Z</time></trkpt><trkpt lat="43.190855059240626" lon="10.722668920169182"><ele>355.0</ele><time>2026-04-04T11:28:11.999Z</time></trkpt><trkpt lat="43.19083120335675" lon="10.722585972053624"><ele>356.0</ele><time>2026-04-04T11:28:12.999Z</time></trkpt><trkpt lat="43.190793170637974" lon="10.722472969033625"><ele>357.0</ele><time>2026-04-04T11:28:13.999Z</time></trkpt><trkpt lat="43.19070436456564" lon="10.72228098010507"><ele>358.0</ele><time>2026-04-04T11:28:15.999Z</time></trkpt><trkpt lat="43.19065758136256" lon="10.72218634209999"><ele>360.0</ele><time>2026-04-04T11:28:16.999Z</time></trkpt><trkpt lat="43.190602202658184" lon="10.722050108034745"><ele>362.0</ele><time>2026-04-04T11:28:18.999Z</time></trkpt><trkpt lat="43.1905715082185" lon="10.721917934624068"><ele>364.0</ele><time>2026-04-04T11:28:20.999Z</time></trkpt><trkpt lat="43.19056003823827" lon="10.721807523295722"><ele>366.0</ele><time>2026-04-04T11:28:22.999Z</time></trkpt><trkpt lat="43.19054207547228" lon="10.72169103599603"><ele>368.0</ele><time>2026-04-04T11:28:24.999Z</time></trkpt><trkpt lat="43.19053094786602" lon="10.721551849207625"><ele>369.5</ele><time>2026-04-04T11:28:26.999Z</time></trkpt><trkpt lat="43.19050916739919" lon="10.721432632628595"><ele>371.0</ele><time>2026-04-04T11:28:28.999Z</time></trkpt><trkpt lat="43.19047643371845" lon="10.72130103919773"><ele>372.5</ele><time>2026-04-04T11:28:30.999Z</time></trkpt><trkpt lat="43.19046459638179" lon="10.72119295620153"><ele>374.0</ele><time>2026-04-04T11:28:31.999Z</time></trkpt><trkpt lat="43.190457648853375" lon="10.721100567013773"><ele>375.5</ele><time>2026-04-04T11:28:32.999Z</time></trkpt><trkpt lat="43.19043292234926" lon="10.720989849290342"><ele>377.0</ele><time>2026-04-04T11:28:33.999Z</time></trkpt><trkpt lat="43.190394832596056" lon="10.720816922111315"><ele>377.5</ele><time>2026-04-04T11:28:35.999Z</time></trkpt><trkpt lat="43.19037131034195" lon="10.720701230295433"><ele>378.0</ele><time>2026-04-04T11:28:36.999Z</time></trkpt><trkpt lat="43.19036793448213" lon="10.720583484377592"><ele>378.5</ele><time>2026-04-04T11:28:37.999Z</time></trkpt><trkpt lat="43.19034493535915" lon="10.720485496757876"><ele>379.0</ele><time>2026-04-04T11:28:38.999Z</time></trkpt><trkpt lat="43.19031869213736" lon="10.720369128550136"><ele>379.5</ele><time>2026-04-04T11:28:39.998Z</time></trkpt><trkpt lat="43.190296653277485" lon="10.720285610156905"><ele>380.0</ele><time>2026-04-04T11:28:40.998Z</time></trkpt><trkpt lat="43.190249775309546" lon="10.720221798842582"><ele>380.6</ele><time>2026-04-04T11:28:41.998Z</time></trkpt><trkpt lat="43.19017894288256" lon="10.720151776108805"><ele>381.2</ele><time>2026-04-04T11:28:42.998Z</time></trkpt><trkpt lat="43.19011910892511" lon="10.720071671719687"><ele>381.79999999999995</ele><time>2026-04-04T11:28:43.998Z</time></trkpt><trkpt lat="43.1900392349474" lon="10.719987361822014"><ele>382.4</ele><time>2026-04-04T11:28:44.998Z</time></trkpt><trkpt lat="43.189955527821034" lon="10.719901768677271"><ele>383.0</ele><time>2026-04-04T11:28:45.998Z</time></trkpt><trkpt lat="43.18985235572158" lon="10.71980878891945"><ele>383.4</ele><time>2026-04-04T11:28:46.998Z</time></trkpt><trkpt lat="43.18976669338924" lon="10.71972701735132"><ele>383.79999999999995</ele><time>2026-04-04T11:28:47.998Z</time></trkpt><trkpt lat="43.18967842927697" lon="10.71964796463948"><ele>384.2</ele><time>2026-04-04T11:28:48.998Z</time></trkpt><trkpt lat="43.189601329698824" lon="10.719562175630502"><ele>384.6</ele><time>2026-04-04T11:28:49.998Z</time></trkpt><trkpt lat="43.18953396631404" lon="10.719471721151006"><ele>385.0</ele><time>2026-04-04T11:28:50.998Z</time></trkpt><trkpt lat="43.189457094076595" lon="10.719354901077207"><ele>387.25</ele><time>2026-04-04T11:28:51.998Z</time></trkpt><trkpt lat="43.189374125677745" lon="10.719217444898122"><ele>389.5</ele><time>2026-04-04T11:28:52.998Z</time></trkpt><trkpt lat="43.18928832354629" lon="10.719078216657932"><ele>391.75</ele><time>2026-04-04T11:28:53.998Z</time></trkpt><trkpt lat="43.189212980172364" lon="10.718964263330482"><ele>394.0</ele><time>2026-04-04T11:28:54.998Z</time></trkpt><trkpt lat="43.18913150363626" lon="10.718849420007823"><ele>394.0</ele><time>2026-04-04T11:28:55.998Z</time></trkpt><trkpt lat="43.189053456005794" lon="10.718749355906715"><ele>394.0</ele><time>2026-04-04T11:28:56.998Z</time></trkpt><trkpt lat="43.18897154636095" lon="10.718628343150929"><ele>394.0</ele><time>2026-04-04T11:28:57.998Z</time></trkpt><trkpt lat="43.18889486087894" lon="10.718510066629834"><ele>394.0</ele><time>2026-04-04T11:28:58.998Z</time></trkpt><trkpt lat="43.188819658652164" lon="10.718384369623827"><ele>394.79999999999995</ele><time>2026-04-04T11:28:59.998Z</time></trkpt><trkpt lat="43.18873778414275" lon="10.71827285257828"><ele>395.59999999999997</ele><time>2026-04-04T11:29:00.998Z</time></trkpt><trkpt lat="43.18866889502852" lon="10.71817544420858"><ele>396.4</ele><time>2026-04-04T11:29:01.998Z</time></trkpt><trkpt lat="43.18861315112223" lon="10.71806387467815"><ele>397.2</ele><time>2026-04-04T11:29:03Z</time></trkpt><trkpt lat="43.18855839896566" lon="10.71792923595069"><ele>398.0</ele><time>2026-04-04T11:29:04Z</time></trkpt><trkpt lat="43.188493748288415" lon="10.717811756326052"><ele>397.5</ele><time>2026-04-04T11:29:05Z</time></trkpt><trkpt lat="43.18842588751693" lon="10.717688068566996"><ele>397.0</ele><time>2026-04-04T11:29:06Z</time></trkpt><trkpt lat="43.188346381677434" lon="10.717564743221486"><ele>396.5</ele><time>2026-04-04T11:29:07Z</time></trkpt><trkpt lat="43.18826820100798" lon="10.717451951851961"><ele>396.0</ele><time>2026-04-04T11:29:08Z</time></trkpt><trkpt lat="43.18817546610884" lon="10.717333041285684"><ele>396.0</ele><time>2026-04-04T11:29:09Z</time></trkpt><trkpt lat="43.18807480458373" lon="10.717216362853964"><ele>396.0</ele><time>2026-04-04T11:29:10Z</time></trkpt><trkpt lat="43.18799010581906" lon="10.71710800518733"><ele>396.0</ele><time>2026-04-04T11:29:11Z</time></trkpt><trkpt lat="43.187914191932194" lon="10.716980547939464"><ele>396.0</ele><time>2026-04-04T11:29:12Z</time></trkpt><trkpt lat="43.18783209671964" lon="10.71687743422188"><ele>399.0</ele><time>2026-04-04T11:29:13Z</time></trkpt><trkpt lat="43.18773508586148" lon="10.716755791198137"><ele>402.0</ele><time>2026-04-04T11:29:14Z</time></trkpt><trkpt lat="43.18764272229114" lon="10.716643783906372"><ele>405.0</ele><time>2026-04-04T11:29:15Z</time></trkpt><trkpt lat="43.18756558484388" lon="10.716529149336754"><ele>408.0</ele><time>2026-04-04T11:29:16Z</time></trkpt><trkpt lat="43.18749444299097" lon="10.716422041391672"><ele>408.0</ele><time>2026-04-04T11:29:17Z</time></trkpt><trkpt lat="43.187412535921304" lon="10.716309477028696"><ele>408.0</ele><time>2026-04-04T11:29:18Z</time></trkpt><trkpt lat="43.18732779876551" lon="10.716191145185508"><ele>408.0</ele><time>2026-04-04T11:29:19Z</time></trkpt><trkpt lat="43.18724553705138" lon="10.716082966932737"><ele>408.0</ele><time>2026-04-04T11:29:20Z</time></trkpt><trkpt lat="43.18717098616417" lon="10.71597539175032"><ele>410.4</ele><time>2026-04-04T11:29:21Z</time></trkpt><trkpt lat="43.187114017366596" lon="10.715870887021795"><ele>412.79999999999995</ele><time>2026-04-04T11:29:22Z</time></trkpt><trkpt lat="43.18706605536707" lon="10.715743746622843"><ele>415.2</ele><time>2026-04-04T11:29:23Z</time></trkpt><trkpt lat="43.18704327853614" lon="10.715652360680197"><ele>417.6</ele><time>2026-04-04T11:29:24Z</time></trkpt><trkpt lat="43.18701338654603" lon="10.71553040494795"><ele>420.0</ele><time>2026-04-04T11:29:25Z</time></trkpt><trkpt lat="43.18696316104039" lon="10.715401086872596"><ele>420.0</ele><time>2026-04-04T11:29:26Z</time></trkpt><trkpt lat="43.18690585318837" lon="10.715294721176019"><ele>420.0</ele><time>2026-04-04T11:29:27Z</time></trkpt><trkpt lat="43.186851067647076" lon="10.71524785990437"><ele>420.0</ele><time>2026-04-04T11:29:28Z</time></trkpt><trkpt lat="43.18676566033907" lon="10.715209225882067"><ele>420.0</ele><time>2026-04-04T11:29:29Z</time></trkpt><trkpt lat="43.18669379806694" lon="10.715209414244304"><ele>420.0</ele><time>2026-04-04T11:29:30Z</time></trkpt><trkpt lat="43.186589011913014" lon="10.715194744396745"><ele>420.0</ele><time>2026-04-04T11:29:31Z</time></trkpt><trkpt lat="43.18648504938497" lon="10.715165340396704"><ele>420.8333333333333</ele><time>2026-04-04T11:29:32Z</time></trkpt><trkpt lat="43.18639757202393" lon="10.715126683198218"><ele>421.66666666666663</ele><time>2026-04-04T11:29:33Z</time></trkpt><trkpt lat="43.18631781155037" lon="10.71509187512979"><ele>422.5</ele><time>2026-04-04T11:29:34Z</time></trkpt><trkpt lat="43.18624662585626" lon="10.715045503654258"><ele>423.3333333333333</ele><time>2026-04-04T11:29:35Z</time></trkpt><trkpt lat="43.1861735031641" lon="10.714965299112292"><ele>424.16666666666663</ele><time>2026-04-04T11:29:36Z</time></trkpt><trkpt lat="43.186109113698826" lon="10.71485786858469"><ele>425.0</ele><time>2026-04-04T11:29:37Z</time></trkpt><trkpt lat="43.186064831477886" lon="10.714687670120375"><ele>425.0</ele><time>2026-04-04T11:29:38Z</time></trkpt><trkpt lat="43.18598687639612" lon="10.714579337972504"><ele>425.0</ele><time>2026-04-04T11:29:39Z</time></trkpt><trkpt lat="43.18590743958921" lon="10.714488398524768"><ele>425.0</ele><time>2026-04-04T11:29:40Z</time></trkpt><trkpt lat="43.185823891607235" lon="10.714424966015947"><ele>425.0</ele><time>2026-04-04T11:29:41Z</time></trkpt><trkpt lat="43.18574309755003" lon="10.714386694159616"><ele>425.0</ele><time>2026-04-04T11:29:42Z</time></trkpt><trkpt lat="43.18565669899729" lon="10.71437253708465"><ele>427.4</ele><time>2026-04-04T11:29:43Z</time></trkpt><trkpt lat="43.18556045082894" lon="10.714372909893864"><ele>429.8</ele><time>2026-04-04T11:29:44Z</time></trkpt><trkpt lat="43.18545493818052" lon="10.714357449464655"><ele>432.20000000000005</ele><time>2026-04-04T11:29:44.999Z</time></trkpt><trkpt lat="43.185354550552674" lon="10.714342430834362"><ele>434.6</ele><time>2026-04-04T11:29:45.999Z</time></trkpt><trkpt lat="43.1852129767884" lon="10.714303507313671"><ele>437.0</ele><time>2026-04-04T11:29:46.999Z</time></trkpt><trkpt lat="43.185081827268725" lon="10.71423247653783"><ele>437.0</ele><time>2026-04-04T11:29:47.999Z</time></trkpt><trkpt lat="43.18496490449521" lon="10.714186411540476"><ele>437.00000000000006</ele><time>2026-04-04T11:29:48.999Z</time></trkpt><trkpt lat="43.18487045632826" lon="10.714172933665214"><ele>437.00000000000006</ele><time>2026-04-04T11:29:49.999Z</time></trkpt><trkpt lat="43.18477731145299" lon="10.71413684565118"><ele>437.0</ele><time>2026-04-04T11:29:50.999Z</time></trkpt><trkpt lat="43.18468371830134" lon="10.714124436892702"><ele>437.0</ele><time>2026-04-04T11:29:51.999Z</time></trkpt><trkpt lat="43.18458946525184" lon="10.714143424527316"><ele>438.0</ele><time>2026-04-04T11:29:52.999Z</time></trkpt><trkpt lat="43.18447139457917" lon="10.714177776754331"><ele>439.00000000000006</ele><time>2026-04-04T11:29:53.999Z</time></trkpt><trkpt lat="43.18436552817213" lon="10.714226220618233"><ele>440.00000000000006</ele><time>2026-04-04T11:29:54.999Z</time></trkpt><trkpt lat="43.184272378789075" lon="10.714249508128491"><ele>441.0</ele><time>2026-04-04T11:29:55.999Z</time></trkpt><trkpt lat="43.18420845366327" lon="10.71430098824804"><ele>442.0</ele><time>2026-04-04T11:29:56.999Z</time></trkpt><trkpt lat="43.18414606914228" lon="10.714353206175861"><ele>442.00000000000006</ele><time>2026-04-04T11:29:57.999Z</time></trkpt><trkpt lat="43.1840610382041" lon="10.714386046020511"><ele>442.0</ele><time>2026-04-04T11:29:59.999Z</time></trkpt><trkpt lat="43.1841036596024" lon="10.714292092622863"><ele>442.0</ele><time>2026-04-04T11:32:32.999Z</time></trkpt><trkpt lat="43.184171505733765" lon="10.714195735408309"><ele>442.0</ele><time>2026-04-04T11:32:33.999Z</time></trkpt><trkpt lat="43.18423105788248" lon="10.71410509229224"><ele>442.00000000000006</ele><time>2026-04-04T11:32:34.999Z</time></trkpt><trkpt lat="43.184274993419635" lon="10.713996794579119"><ele>442.0</ele><time>2026-04-04T11:32:35.999Z</time></trkpt><trkpt lat="43.18432878401298" lon="10.713892918116917"><ele>442.00000000000006</ele><time>2026-04-04T11:32:36.999Z</time></trkpt><trkpt lat="43.18437508021384" lon="10.713782117280394"><ele>442.0</ele><time>2026-04-04T11:32:37.999Z</time></trkpt><trkpt lat="43.18442055263569" lon="10.713676583554438"><ele>442.0</ele><time>2026-04-04T11:32:38.999Z</time></trkpt><trkpt lat="43.18445419195919" lon="10.71358004913544"><ele>442.0</ele><time>2026-04-04T11:32:39.999Z</time></trkpt><trkpt lat="43.18450712907184" lon="10.713475089384207"><ele>442.00000000000006</ele><time>2026-04-04T11:32:40.999Z</time></trkpt><trkpt lat="43.18454604369234" lon="10.713390563274396"><ele>442.0</ele><time>2026-04-04T11:32:41.999Z</time></trkpt><trkpt lat="43.18457434051378" lon="10.713218159716012"><ele>443.40000000000003</ele><time>2026-04-04T11:32:43.999Z</time></trkpt><trkpt lat="43.184517109808816" lon="10.713112566340824"><ele>444.80000000000007</ele><time>2026-04-04T11:32:44.999Z</time></trkpt><trkpt lat="43.18446108455472" lon="10.713013547529235"><ele>446.2</ele><time>2026-04-04T11:32:45.999Z</time></trkpt><trkpt lat="43.184377076356725" lon="10.712916773622519"><ele>447.6</ele><time>2026-04-04T11:32:46.999Z</time></trkpt><trkpt lat="43.1842984095006" lon="10.712819405626433"><ele>449.0</ele><time>2026-04-04T11:32:47.999Z</time></trkpt><trkpt lat="43.184238326338196" lon="10.712695539380837"><ele>449.5</ele><time>2026-04-04T11:32:48.999Z</time></trkpt><trkpt lat="43.18421544296097" lon="10.712546975177968"><ele>450.0</ele><time>2026-04-04T11:32:49.999Z</time></trkpt><trkpt lat="43.18419107842572" lon="10.712366182570916"><ele>450.5</ele><time>2026-04-04T11:32:50.999Z</time></trkpt><trkpt lat="43.184162172139885" lon="10.712183328719323"><ele>451.0</ele><time>2026-04-04T11:32:51.999Z</time></trkpt><trkpt lat="43.184125096791746" lon="10.711996416997744"><ele>450.0</ele><time>2026-04-04T11:32:52.999Z</time></trkpt><trkpt lat="43.184076625657404" lon="10.711805260205741"><ele>449.0</ele><time>2026-04-04T11:32:53.999Z</time></trkpt><trkpt lat="43.18402000544652" lon="10.7115962532263"><ele>448.0</ele><time>2026-04-04T11:32:54.998Z</time></trkpt><trkpt lat="43.18395043263315" lon="10.711393161116932"><ele>449.5</ele><time>2026-04-04T11:32:55.998Z</time></trkpt><trkpt lat="43.183888341208274" lon="10.711220196764035"><ele>451.0</ele><time>2026-04-04T11:32:56.998Z</time></trkpt><trkpt lat="43.18384800601334" lon="10.711049331553998"><ele>452.5</ele><time>2026-04-04T11:32:57.998Z</time></trkpt><trkpt lat="43.18381174019694" lon="10.710877102662947"><ele>454.0</ele><time>2026-04-04T11:32:58.998Z</time></trkpt><trkpt lat="43.18375692173487" lon="10.710707966915335"><ele>454.0</ele><time>2026-04-04T11:32:59.998Z</time></trkpt><trkpt lat="43.18370497076774" lon="10.710561166874625"><ele>454.0</ele><time>2026-04-04T11:33:00.998Z</time></trkpt><trkpt lat="43.18368411279602" lon="10.71043393506913"><ele>454.0</ele><time>2026-04-04T11:33:01.998Z</time></trkpt><trkpt lat="43.183699917118716" lon="10.710329180837993"><ele>454.0</ele><time>2026-04-04T11:33:02.998Z</time></trkpt><trkpt lat="43.183715179126295" lon="10.710232707323856"><ele>454.0</ele><time>2026-04-04T11:33:03.998Z</time></trkpt><trkpt lat="43.18378086557299" lon="10.71007552670681"><ele>453.83333333333337</ele><time>2026-04-04T11:33:05.998Z</time></trkpt><trkpt lat="43.18383725167841" lon="10.7100358398576"><ele>453.6666666666667</ele><time>2026-04-04T11:33:06.998Z</time></trkpt><trkpt lat="43.18395238769231" lon="10.709959514108796"><ele>453.5</ele><time>2026-04-04T11:33:08.998Z</time></trkpt><trkpt lat="43.18402132220607" lon="10.709910214166083"><ele>453.33333333333337</ele><time>2026-04-04T11:33:09.998Z</time></trkpt><trkpt lat="43.18408195140472" lon="10.709850833249073"><ele>453.1666666666667</ele><time>2026-04-04T11:33:10.998Z</time></trkpt><trkpt lat="43.18416466773135" lon="10.70980173117225"><ele>453.0</ele><time>2026-04-04T11:33:11.998Z</time></trkpt><trkpt lat="43.184251422412444" lon="10.709723796410346"><ele>452.75</ele><time>2026-04-04T11:33:12.998Z</time></trkpt><trkpt lat="43.184311256885096" lon="10.709662349572081"><ele>452.5</ele><time>2026-04-04T11:33:13.998Z</time></trkpt><trkpt lat="43.18436605747931" lon="10.709583722232363"><ele>452.25</ele><time>2026-04-04T11:33:15Z</time></trkpt><trkpt lat="43.18440909364659" lon="10.709513162216199"><ele>452.0</ele><time>2026-04-04T11:33:16Z</time></trkpt><trkpt lat="43.18408790280332" lon="10.708782698918412"><ele>452.0</ele><time>2026-04-04T11:33:18Z</time></trkpt><trkpt lat="43.1840547171326" lon="10.70864119383229"><ele>452.00000000000006</ele><time>2026-04-04T11:33:20Z</time></trkpt><trkpt lat="43.18403626281674" lon="10.708549955194945"><ele>452.00000000000006</ele><time>2026-04-04T11:33:21Z</time></trkpt><trkpt lat="43.18403897134661" lon="10.708393421041439"><ele>452.0</ele><time>2026-04-04T11:33:23Z</time></trkpt><trkpt lat="43.18402827978347" lon="10.708301789435252"><ele>452.0</ele><time>2026-04-04T11:33:24Z</time></trkpt><trkpt lat="43.18398878689796" lon="10.708133329333043"><ele>451.66666666666663</ele><time>2026-04-04T11:33:26Z</time></trkpt><trkpt lat="43.18395155262147" lon="10.708018790437174"><ele>451.3333333333333</ele><time>2026-04-04T11:33:27Z</time></trkpt><trkpt lat="43.183935485054604" lon="10.707912847039676"><ele>451.0</ele><time>2026-04-04T11:33:28Z</time></trkpt><trkpt lat="43.18392449494733" lon="10.707800040969905"><ele>450.66666666666663</ele><time>2026-04-04T11:33:29Z</time></trkpt><trkpt lat="43.1839002546242" lon="10.707679951604048"><ele>450.3333333333333</ele><time>2026-04-04T11:33:30Z</time></trkpt><trkpt lat="43.183879916518585" lon="10.707557136145818"><ele>450.0</ele><time>2026-04-04T11:33:31Z</time></trkpt><trkpt lat="43.183866215092905" lon="10.707425742622524"><ele>449.5</ele><time>2026-04-04T11:33:32Z</time></trkpt><trkpt lat="43.18384690157434" lon="10.707307163216749"><ele>449.0</ele><time>2026-04-04T11:33:33Z</time></trkpt><trkpt lat="43.18381853465006" lon="10.707186668618565"><ele>448.5</ele><time>2026-04-04T11:33:34Z</time></trkpt><trkpt lat="43.183778470563695" lon="10.707086308945659"><ele>448.0</ele><time>2026-04-04T11:33:35Z</time></trkpt><trkpt lat="43.18372308252196" lon="10.7069939060682"><ele>447.5</ele><time>2026-04-04T11:33:36Z</time></trkpt><trkpt lat="43.18367669499985" lon="10.706905417247187"><ele>447.0</ele><time>2026-04-04T11:33:37Z</time></trkpt><trkpt lat="43.18364482791306" lon="10.70681978967009"><ele>447.0</ele><time>2026-04-04T11:33:38Z</time></trkpt><trkpt lat="43.18362418034109" lon="10.70669104254892"><ele>447.00000000000006</ele><time>2026-04-04T11:33:39Z</time></trkpt><trkpt lat="43.18358722979395" lon="10.706551255187536"><ele>447.00000000000006</ele><time>2026-04-04T11:33:40Z</time></trkpt><trkpt lat="43.18352335544014" lon="10.70640424449216"><ele>447.0</ele><time>2026-04-04T11:33:41Z</time></trkpt><trkpt lat="43.1834636217018" lon="10.706272320128331"><ele>447.0</ele><time>2026-04-04T11:33:42Z</time></trkpt><trkpt lat="43.183435609475474" lon="10.706138377701826"><ele>447.6</ele><time>2026-04-04T11:33:43Z</time></trkpt><trkpt lat="43.183433259137814" lon="10.706009168250151"><ele>448.20000000000005</ele><time>2026-04-04T11:33:44Z</time></trkpt><trkpt lat="43.183440330148585" lon="10.70585905622508"><ele>448.8</ele><time>2026-04-04T11:33:45Z</time></trkpt><trkpt lat="43.18343179714828" lon="10.705708159506305"><ele>449.4</ele><time>2026-04-04T11:33:46Z</time></trkpt><trkpt lat="43.183428624017225" lon="10.705541788057975"><ele>450.0</ele><time>2026-04-04T11:33:47Z</time></trkpt><trkpt lat="43.18342229971702" lon="10.70537144355616"><ele>449.6</ele><time>2026-04-04T11:33:48Z</time></trkpt><trkpt lat="43.183413919374836" lon="10.705225834721299"><ele>449.2</ele><time>2026-04-04T11:33:48.999Z</time></trkpt><trkpt lat="43.183405275754" lon="10.705077539435493"><ele>448.79999999999995</ele><time>2026-04-04T11:33:49.999Z</time></trkpt><trkpt lat="43.183394489872185" lon="10.704932241487443"><ele>448.4</ele><time>2026-04-04T11:33:50.999Z</time></trkpt><trkpt lat="43.183380723806465" lon="10.704785499919412"><ele>448.0</ele><time>2026-04-04T11:33:51.999Z</time></trkpt><trkpt lat="43.18335779990727" lon="10.704643358216916"><ele>448.0</ele><time>2026-04-04T11:33:52.999Z</time></trkpt><trkpt lat="43.18332605208611" lon="10.704513469654264"><ele>447.99999999999994</ele><time>2026-04-04T11:33:53.999Z</time></trkpt><trkpt lat="43.183270459641456" lon="10.704401839680395"><ele>447.99999999999994</ele><time>2026-04-04T11:33:54.999Z</time></trkpt><trkpt lat="43.183228729854584" lon="10.704308836586817"><ele>448.0</ele><time>2026-04-04T11:33:55.999Z</time></trkpt><trkpt lat="43.183195201368875" lon="10.704173705595837"><ele>448.0</ele><time>2026-04-04T11:33:56.999Z</time></trkpt><trkpt lat="43.1831877091075" lon="10.704033854658228"><ele>444.59999999999997</ele><time>2026-04-04T11:33:57.999Z</time></trkpt><trkpt lat="43.1831530737419" lon="10.703903929266865"><ele>441.19999999999993</ele><time>2026-04-04T11:33:58.999Z</time></trkpt><trkpt lat="43.18311603314653" lon="10.703794804201884"><ele>437.8</ele><time>2026-04-04T11:33:59.999Z</time></trkpt><trkpt lat="43.183071532202696" lon="10.703671037149537"><ele>434.4</ele><time>2026-04-04T11:34:00.999Z</time></trkpt><trkpt lat="43.183029231824214" lon="10.703568461715017"><ele>431.0</ele><time>2026-04-04T11:34:01.999Z</time></trkpt><trkpt lat="43.1829936787182" lon="10.703471079164474"><ele>431.0</ele><time>2026-04-04T11:34:02.999Z</time></trkpt><trkpt lat="43.182943506933896" lon="10.703357092334757"><ele>431.0</ele><time>2026-04-04T11:34:03.999Z</time></trkpt><trkpt lat="43.18287841366638" lon="10.703277108244936"><ele>431.0</ele><time>2026-04-04T11:34:04.999Z</time></trkpt><trkpt lat="43.18279534301054" lon="10.703198024010382"><ele>431.0</ele><time>2026-04-04T11:34:05.999Z</time></trkpt><trkpt lat="43.18275045469128" lon="10.703082809520042"><ele>431.0</ele><time>2026-04-04T11:34:06.999Z</time></trkpt><trkpt lat="43.18272790614606" lon="10.702968160006902"><ele>431.0</ele><time>2026-04-04T11:34:07.999Z</time></trkpt><trkpt lat="43.182599687229455" lon="10.702840655103637"><ele>431.0</ele><time>2026-04-04T11:34:09.999Z</time></trkpt><trkpt lat="43.18251435366279" lon="10.702779336912156"><ele>431.0</ele><time>2026-04-04T11:34:10.999Z</time></trkpt><trkpt lat="43.18244173199046" lon="10.702665698412277"><ele>431.0</ele><time>2026-04-04T11:34:11.999Z</time></trkpt><trkpt lat="43.182373301384985" lon="10.702550388302548"><ele>431.6</ele><time>2026-04-04T11:34:12.999Z</time></trkpt><trkpt lat="43.182302225466195" lon="10.702436563519809"><ele>432.20000000000005</ele><time>2026-04-04T11:34:13.999Z</time></trkpt><trkpt lat="43.18221645529098" lon="10.702310382680702"><ele>432.79999999999995</ele><time>2026-04-04T11:34:14.999Z</time></trkpt><trkpt lat="43.182143877874616" lon="10.7021868733384"><ele>433.4</ele><time>2026-04-04T11:34:15.999Z</time></trkpt><trkpt lat="43.182094604536246" lon="10.702072630258733"><ele>434.0</ele><time>2026-04-04T11:34:16.999Z</time></trkpt><trkpt lat="43.182070532099395" lon="10.701937682171407"><ele>435.0</ele><time>2026-04-04T11:34:17.999Z</time></trkpt><trkpt lat="43.18206843472881" lon="10.70179103530947"><ele>436.0</ele><time>2026-04-04T11:34:18.999Z</time></trkpt><trkpt lat="43.182038341788925" lon="10.701653147997426"><ele>437.0</ele><time>2026-04-04T11:34:19.999Z</time></trkpt><trkpt lat="43.18199776490173" lon="10.701516291190668"><ele>438.0</ele><time>2026-04-04T11:34:20.999Z</time></trkpt><trkpt lat="43.18193382159281" lon="10.701383473758389"><ele>439.0</ele><time>2026-04-04T11:34:21.999Z</time></trkpt><trkpt lat="43.181885092086716" lon="10.70125445522407"><ele>439.0</ele><time>2026-04-04T11:34:22.999Z</time></trkpt><trkpt lat="43.18185427108559" lon="10.701115593190965"><ele>439.0</ele><time>2026-04-04T11:34:23.999Z</time></trkpt><trkpt lat="43.18183813526084" lon="10.700982759365182"><ele>439.0</ele><time>2026-04-04T11:34:24.999Z</time></trkpt><trkpt lat="43.181823194186705" lon="10.700846156482484"><ele>439.0</ele><time>2026-04-04T11:34:25.999Z</time></trkpt><trkpt lat="43.18179144948678" lon="10.700726316887595"><ele>439.0</ele><time>2026-04-04T11:34:26.999Z</time></trkpt><trkpt lat="43.181725291551416" lon="10.700615491545648"><ele>439.2</ele><time>2026-04-04T11:34:27.999Z</time></trkpt><trkpt lat="43.18165550807719" lon="10.700501053886418"><ele>439.4</ele><time>2026-04-04T11:34:28.999Z</time></trkpt><trkpt lat="43.181598792318425" lon="10.700389068277984"><ele>439.6</ele><time>2026-04-04T11:34:29.999Z</time></trkpt><trkpt lat="43.18157709064346" lon="10.700250978454305"><ele>439.8</ele><time>2026-04-04T11:34:30.999Z</time></trkpt><trkpt lat="43.18156214277355" lon="10.700106708089061"><ele>440.0</ele><time>2026-04-04T11:34:31.999Z</time></trkpt><trkpt lat="43.18153063166958" lon="10.69999049884703"><ele>439.0</ele><time>2026-04-04T11:34:32.999Z</time></trkpt><trkpt lat="43.18146909108994" lon="10.699901687112222"><ele>438.0</ele><time>2026-04-04T11:34:33.999Z</time></trkpt><trkpt lat="43.18138736049904" lon="10.699820555173527"><ele>437.0</ele><time>2026-04-04T11:34:34.999Z</time></trkpt><trkpt lat="43.18131099387806" lon="10.69972462150321"><ele>436.0</ele><time>2026-04-04T11:34:35.999Z</time></trkpt><trkpt lat="43.181239746857216" lon="10.699654953495207"><ele>435.0</ele><time>2026-04-04T11:34:36.999Z</time></trkpt><trkpt lat="43.18114320330745" lon="10.69957741737739"><ele>435.0</ele><time>2026-04-04T11:34:37.999Z</time></trkpt><trkpt lat="43.18105714821231" lon="10.699519697437179"><ele>435.0</ele><time>2026-04-04T11:34:38.999Z</time></trkpt><trkpt lat="43.18096196375244" lon="10.699417783637431"><ele>435.0</ele><time>2026-04-04T11:34:39.999Z</time></trkpt><trkpt lat="43.18087191662325" lon="10.699310545431116"><ele>435.0</ele><time>2026-04-04T11:34:40.999Z</time></trkpt><trkpt lat="43.180775859061384" lon="10.699189552031534"><ele>434.75</ele><time>2026-04-04T11:34:41.999Z</time></trkpt><trkpt lat="43.18068980416685" lon="10.699066369211742"><ele>434.5</ele><time>2026-04-04T11:34:42.999Z</time></trkpt><trkpt lat="43.180612705955824" lon="10.698928424279776"><ele>434.25</ele><time>2026-04-04T11:34:43.999Z</time></trkpt><trkpt lat="43.18052652339401" lon="10.69880484035962"><ele>434.0</ele><time>2026-04-04T11:34:44.999Z</time></trkpt><trkpt lat="43.18041932329651" lon="10.698687173813084"><ele>435.0</ele><time>2026-04-04T11:34:45.999Z</time></trkpt><trkpt lat="43.18030974851274" lon="10.6985572114319"><ele>436.0</ele><time>2026-04-04T11:34:46.999Z</time></trkpt><trkpt lat="43.18021931260371" lon="10.698462838152476"><ele>437.0</ele><time>2026-04-04T11:34:47.999Z</time></trkpt><trkpt lat="43.180156893631384" lon="10.698353984583802"><ele>438.0</ele><time>2026-04-04T11:34:48.999Z</time></trkpt><trkpt lat="43.1801149878091" lon="10.698219449042867"><ele>438.0</ele><time>2026-04-04T11:34:49.999Z</time></trkpt><trkpt lat="43.180078177986246" lon="10.69806142269641"><ele>437.99999999999994</ele><time>2026-04-04T11:34:50.999Z</time></trkpt><trkpt lat="43.18002709958548" lon="10.697935347197726"><ele>437.99999999999994</ele><time>2026-04-04T11:34:51.999Z</time></trkpt><trkpt lat="43.179954261523" lon="10.697821021965824"><ele>438.0</ele><time>2026-04-04T11:34:52.999Z</time></trkpt><trkpt lat="43.17987102772181" lon="10.697729033346615"><ele>438.0</ele><time>2026-04-04T11:34:53.999Z</time></trkpt><trkpt lat="43.1797775370342" lon="10.697657969642984"><ele>437.5</ele><time>2026-04-04T11:34:54.998Z</time></trkpt><trkpt lat="43.17968187369623" lon="10.69760913936315"><ele>437.0</ele><time>2026-04-04T11:34:55.998Z</time></trkpt><trkpt lat="43.179568599544986" lon="10.69754580639074"><ele>436.5</ele><time>2026-04-04T11:34:56.998Z</time></trkpt><trkpt lat="43.17945435032522" lon="10.697479726442888"><ele>436.0</ele><time>2026-04-04T11:34:57.998Z</time></trkpt><trkpt lat="43.17934509479044" lon="10.697409411758775"><ele>436.0</ele><time>2026-04-04T11:34:58.998Z</time></trkpt><trkpt lat="43.179237529713966" lon="10.697364627769462"><ele>436.0</ele><time>2026-04-04T11:34:59.998Z</time></trkpt><trkpt lat="43.17914087595156" lon="10.697332045310434"><ele>436.0</ele><time>2026-04-04T11:35:00.998Z</time></trkpt><trkpt lat="43.17904968080905" lon="10.697255693086957"><ele>436.0</ele><time>2026-04-04T11:35:01.998Z</time></trkpt><trkpt lat="43.17898028909469" lon="10.697166876371835"><ele>436.0</ele><time>2026-04-04T11:35:02.998Z</time></trkpt><trkpt lat="43.17888679572912" lon="10.69711018386137"><ele>434.8</ele><time>2026-04-04T11:35:03.998Z</time></trkpt><trkpt lat="43.178772550234136" lon="10.697092474771575"><ele>433.6</ele><time>2026-04-04T11:35:04.998Z</time></trkpt><trkpt lat="43.17864821878314" lon="10.697095868807152"><ele>432.4</ele><time>2026-04-04T11:35:05.998Z</time></trkpt><trkpt lat="43.1785376570433" lon="10.697088735214033"><ele>431.2</ele><time>2026-04-04T11:35:06.998Z</time></trkpt><trkpt lat="43.17847024907606" lon="10.69708064132973"><ele>430.0</ele><time>2026-04-04T11:35:07.998Z</time></trkpt><trkpt lat="43.17839537743226" lon="10.697071955831891"><ele>430.0</ele><time>2026-04-04T11:35:08.998Z</time></trkpt><trkpt lat="43.17831121587658" lon="10.69704836835831"><ele>430.0</ele><time>2026-04-04T11:35:09.998Z</time></trkpt><trkpt lat="43.17821983741039" lon="10.696976911930161"><ele>430.0</ele><time>2026-04-04T11:35:10.998Z</time></trkpt><trkpt lat="43.17808987509232" lon="10.696897021989184"><ele>430.0</ele><time>2026-04-04T11:35:11.998Z</time></trkpt><trkpt lat="43.177971587867646" lon="10.696814824877334"><ele>428.25</ele><time>2026-04-04T11:35:12.998Z</time></trkpt><trkpt lat="43.177867293805576" lon="10.696725770291676"><ele>426.5</ele><time>2026-04-04T11:35:13.998Z</time></trkpt><trkpt lat="43.177775466860865" lon="10.696634570103978"><ele>424.75</ele><time>2026-04-04T11:35:14.998Z</time></trkpt><trkpt lat="43.17769080272808" lon="10.696533610977895"><ele>423.0</ele><time>2026-04-04T11:35:15.998Z</time></trkpt><trkpt lat="43.177613370293436" lon="10.696432966683119"><ele>423.0</ele><time>2026-04-04T11:35:16.998Z</time></trkpt><trkpt lat="43.1775299983916" lon="10.696344347225986"><ele>423.0</ele><time>2026-04-04T11:35:17.998Z</time></trkpt><trkpt lat="43.177445371520655" lon="10.696253918731655"><ele>423.0</ele><time>2026-04-04T11:35:18.998Z</time></trkpt><trkpt lat="43.17737356666123" lon="10.696162798702735"><ele>423.0</ele><time>2026-04-04T11:35:19.998Z</time></trkpt><trkpt lat="43.17732193483671" lon="10.696042281009282"><ele>423.0</ele><time>2026-04-04T11:35:21Z</time></trkpt><trkpt lat="43.17728115666779" lon="10.69590965168533"><ele>421.0</ele><time>2026-04-04T11:35:22Z</time></trkpt><trkpt lat="43.17724492952104" lon="10.69577214485595"><ele>419.0</ele><time>2026-04-04T11:35:23Z</time></trkpt><trkpt lat="43.177193789562224" lon="10.69562270673508"><ele>417.0</ele><time>2026-04-04T11:35:24Z</time></trkpt><trkpt lat="43.177133819417094" lon="10.695484101404032"><ele>415.0</ele><time>2026-04-04T11:35:25Z</time></trkpt><trkpt lat="43.17707036063795" lon="10.695352837465744"><ele>414.8</ele><time>2026-04-04T11:35:26Z</time></trkpt><trkpt lat="43.17701544951909" lon="10.69523856699099"><ele>414.6</ele><time>2026-04-04T11:35:27Z</time></trkpt><trkpt lat="43.17696341549197" lon="10.695126856850285"><ele>414.4</ele><time>2026-04-04T11:35:28Z</time></trkpt><trkpt lat="43.17690288633044" lon="10.69502124567471"><ele>414.2</ele><time>2026-04-04T11:35:29Z</time></trkpt><trkpt lat="43.17683816750091" lon="10.69492501109793"><ele>414.0</ele><time>2026-04-04T11:35:30Z</time></trkpt><trkpt lat="43.17678590791746" lon="10.694828186210987"><ele>414.0</ele><time>2026-04-04T11:35:31Z</time></trkpt><trkpt lat="43.17674132516917" lon="10.694712206985885"><ele>414.0</ele><time>2026-04-04T11:35:32Z</time></trkpt><trkpt lat="43.176699806986306" lon="10.694589344984665"><ele>414.0</ele><time>2026-04-04T11:35:33Z</time></trkpt><trkpt lat="43.17668034049822" lon="10.694440852764092"><ele>414.0</ele><time>2026-04-04T11:35:34Z</time></trkpt><trkpt lat="43.17668133997598" lon="10.694293154346488"><ele>414.0</ele><time>2026-04-04T11:35:35Z</time></trkpt><trkpt lat="43.176678805447075" lon="10.69415260615641"><ele>413.2</ele><time>2026-04-04T11:35:36Z</time></trkpt><trkpt lat="43.176661840756786" lon="10.694019532772975"><ele>412.4</ele><time>2026-04-04T11:35:37Z</time></trkpt><trkpt lat="43.176624372599925" lon="10.69389722561173"><ele>411.6</ele><time>2026-04-04T11:35:38Z</time></trkpt><trkpt lat="43.176560118300856" lon="10.693800310404612"><ele>410.8</ele><time>2026-04-04T11:35:39Z</time></trkpt><trkpt lat="43.176487145450096" lon="10.693747774928312"><ele>410.0</ele><time>2026-04-04T11:35:40Z</time></trkpt><trkpt lat="43.176412631806485" lon="10.693724337066556"><ele>407.6</ele><time>2026-04-04T11:35:41Z</time></trkpt><trkpt lat="43.17632947932204" lon="10.693698399869424"><ele>405.2</ele><time>2026-04-04T11:35:42Z</time></trkpt><trkpt lat="43.17628288609803" lon="10.693634024222273"><ele>402.79999999999995</ele><time>2026-04-04T11:35:43Z</time></trkpt><trkpt lat="43.17622690163755" lon="10.693518263289905"><ele>400.4</ele><time>2026-04-04T11:35:44Z</time></trkpt><trkpt lat="43.176167039511235" lon="10.693380710506183"><ele>398.0</ele><time>2026-04-04T11:35:45Z</time></trkpt><trkpt lat="43.176105630959434" lon="10.693277490086265"><ele>398.0</ele><time>2026-04-04T11:35:46Z</time></trkpt><trkpt lat="43.176062969240434" lon="10.693202908720266"><ele>398.0</ele><time>2026-04-04T11:35:47Z</time></trkpt><trkpt lat="43.17602932459322" lon="10.69304494677314"><ele>398.0</ele><time>2026-04-04T11:35:49Z</time></trkpt><trkpt lat="43.17602299066448" lon="10.69293246668664"><ele>398.0</ele><time>2026-04-04T11:35:50Z</time></trkpt><trkpt lat="43.17600996642793" lon="10.69280533561541"><ele>398.0</ele><time>2026-04-04T11:35:51Z</time></trkpt><trkpt lat="43.175961982884125" lon="10.692703539288047"><ele>397.59999999999997</ele><time>2026-04-04T11:35:52Z</time></trkpt><trkpt lat="43.17589574446723" lon="10.692603480191991"><ele>397.2</ele><time>2026-04-04T11:35:53Z</time></trkpt><trkpt lat="43.1758106591403" lon="10.692509971081542"><ele>396.8</ele><time>2026-04-04T11:35:54Z</time></trkpt><trkpt lat="43.17571448562842" lon="10.692420854763567"><ele>396.4</ele><time>2026-04-04T11:35:55Z</time></trkpt><trkpt lat="43.17562457048556" lon="10.692349598507151"><ele>396.0</ele><time>2026-04-04T11:35:56Z</time></trkpt><trkpt lat="43.17552376317213" lon="10.692284274465292"><ele>394.4</ele><time>2026-04-04T11:35:57Z</time></trkpt><trkpt lat="43.17542286829235" lon="10.692213953355974"><ele>392.8</ele><time>2026-04-04T11:35:58Z</time></trkpt><trkpt lat="43.175331544329" lon="10.692144092794182"><ele>391.2</ele><time>2026-04-04T11:35:59Z</time></trkpt><trkpt lat="43.17524598279668" lon="10.692093092550955"><ele>389.59999999999997</ele><time>2026-04-04T11:36:00Z</time></trkpt><trkpt lat="43.175148817935316" lon="10.692037783362307"><ele>388.0</ele><time>2026-04-04T11:36:01Z</time></trkpt><trkpt lat="43.175062721439836" lon="10.691947501737753"><ele>386.25</ele><time>2026-04-04T11:36:02Z</time></trkpt><trkpt lat="43.174963941385506" lon="10.691855402739899"><ele>384.5</ele><time>2026-04-04T11:36:03Z</time></trkpt><trkpt lat="43.17486526800127" lon="10.691756593671824"><ele>382.75</ele><time>2026-04-04T11:36:04Z</time></trkpt><trkpt lat="43.17476180110891" lon="10.69166760630979"><ele>381.0</ele><time>2026-04-04T11:36:05Z</time></trkpt><trkpt lat="43.17465908742" lon="10.691582100878296"><ele>380.20000000000005</ele><time>2026-04-04T11:36:05.999Z</time></trkpt><trkpt lat="43.174579820491466" lon="10.691500218442949"><ele>379.40000000000003</ele><time>2026-04-04T11:36:06.999Z</time></trkpt><trkpt lat="43.1744862724694" lon="10.6914196261634"><ele>378.6</ele><time>2026-04-04T11:36:07.999Z</time></trkpt><trkpt lat="43.174383587644755" lon="10.691344957524736"><ele>377.8</ele><time>2026-04-04T11:36:08.999Z</time></trkpt><trkpt lat="43.17427561060493" lon="10.69128196404524"><ele>377.0</ele><time>2026-04-04T11:36:09.999Z</time></trkpt><trkpt lat="43.174152402006804" lon="10.691231530291258"><ele>374.33333333333337</ele><time>2026-04-04T11:36:10.999Z</time></trkpt><trkpt lat="43.17401324017884" lon="10.691173589458666"><ele>371.6666666666667</ele><time>2026-04-04T11:36:11.999Z</time></trkpt><trkpt lat="43.17385993278372" lon="10.691129722522302"><ele>369.0</ele><time>2026-04-04T11:36:12.999Z</time></trkpt><trkpt lat="43.17371457347929" lon="10.691085721158235"><ele>369.0</ele><time>2026-04-04T11:36:13.999Z</time></trkpt><trkpt lat="43.17358351770865" lon="10.691043230964713"><ele>369.0</ele><time>2026-04-04T11:36:14.999Z</time></trkpt><trkpt lat="43.1734587540615" lon="10.691002017981264"><ele>369.0</ele><time>2026-04-04T11:36:15.999Z</time></trkpt><trkpt lat="43.17334330983671" lon="10.690972583981877"><ele>369.0</ele><time>2026-04-04T11:36:16.999Z</time></trkpt><trkpt lat="43.17322656379277" lon="10.6909570130294"><ele>367.79999999999995</ele><time>2026-04-04T11:36:17.999Z</time></trkpt><trkpt lat="43.17311768946924" lon="10.690921522944267"><ele>366.59999999999997</ele><time>2026-04-04T11:36:18.999Z</time></trkpt><trkpt lat="43.17299830249536" lon="10.690935949960126"><ele>365.4</ele><time>2026-04-04T11:36:19.999Z</time></trkpt><trkpt lat="43.17290295594022" lon="10.690876121859905"><ele>364.2</ele><time>2026-04-04T11:36:20.999Z</time></trkpt><trkpt lat="43.172805760628144" lon="10.690814657349861"><ele>363.0</ele><time>2026-04-04T11:36:21.999Z</time></trkpt><trkpt lat="43.1727065147243" lon="10.690751838760946"><ele>363.0</ele><time>2026-04-04T11:36:22.999Z</time></trkpt><trkpt lat="43.172630707386" lon="10.690621581349319"><ele>363.0</ele><time>2026-04-04T11:36:23.999Z</time></trkpt><trkpt lat="43.17251901566502" lon="10.690551304916985"><ele>363.0</ele><time>2026-04-04T11:36:24.999Z</time></trkpt><trkpt lat="43.172420806524144" lon="10.690489307614436"><ele>363.0</ele><time>2026-04-04T11:36:25.999Z</time></trkpt><trkpt lat="43.1723167623884" lon="10.690432491212894"><ele>362.59999999999997</ele><time>2026-04-04T11:36:26.999Z</time></trkpt><trkpt lat="43.17221284886238" lon="10.69037737094056"><ele>362.2</ele><time>2026-04-04T11:36:27.999Z</time></trkpt><trkpt lat="43.17210874231139" lon="10.69032908265357"><ele>361.8</ele><time>2026-04-04T11:36:28.999Z</time></trkpt><trkpt lat="43.17201741899956" lon="10.6902887579106"><ele>361.4</ele><time>2026-04-04T11:36:29.999Z</time></trkpt><trkpt lat="43.1719281439049" lon="10.690253051436382"><ele>361.0</ele><time>2026-04-04T11:36:30.999Z</time></trkpt><trkpt lat="43.17179747005328" lon="10.69019640476713"><ele>361.0</ele><time>2026-04-04T11:36:32.999Z</time></trkpt><trkpt lat="43.17170815565199" lon="10.690155366068307"><ele>361.0</ele><time>2026-04-04T11:36:34.999Z</time></trkpt><trkpt lat="43.171644480906366" lon="10.690124514910446"><ele>361.0</ele><time>2026-04-04T11:36:35.999Z</time></trkpt><trkpt lat="43.17158542570008" lon="10.69004665768323"><ele>361.0</ele><time>2026-04-04T11:36:36.999Z</time></trkpt><trkpt lat="43.17152914095858" lon="10.689960543599792"><ele>361.0</ele><time>2026-04-04T11:36:37.999Z</time></trkpt><trkpt lat="43.17146874191704" lon="10.689874687685641"><ele>361.0</ele><time>2026-04-04T11:36:38.999Z</time></trkpt><trkpt lat="43.171409753517416" lon="10.689791421953124"><ele>361.4</ele><time>2026-04-04T11:36:39.999Z</time></trkpt><trkpt lat="43.17133638043108" lon="10.689719323565438"><ele>361.8</ele><time>2026-04-04T11:36:40.999Z</time></trkpt><trkpt lat="43.171276384147575" lon="10.689624458102243"><ele>362.2</ele><time>2026-04-04T11:36:41.999Z</time></trkpt><trkpt lat="43.171209318374046" lon="10.689522836056197"><ele>362.59999999999997</ele><time>2026-04-04T11:36:42.999Z</time></trkpt><trkpt lat="43.1711342316749" lon="10.689416833436209"><ele>363.0</ele><time>2026-04-04T11:36:43.999Z</time></trkpt><trkpt lat="43.171055649780584" lon="10.689316373165678"><ele>363.0</ele><time>2026-04-04T11:36:44.999Z</time></trkpt><trkpt lat="43.170959048847585" lon="10.689231334890305"><ele>363.0</ele><time>2026-04-04T11:36:45.999Z</time></trkpt><trkpt lat="43.17084800691071" lon="10.689170413869311"><ele>363.0</ele><time>2026-04-04T11:36:46.999Z</time></trkpt><trkpt lat="43.17073023736131" lon="10.68911415554489"><ele>363.0</ele><time>2026-04-04T11:36:47.999Z</time></trkpt><trkpt lat="43.17060821947738" lon="10.689057429929125"><ele>363.0</ele><time>2026-04-04T11:36:48.999Z</time></trkpt><trkpt lat="43.17049144676123" lon="10.688994123753504"><ele>363.0</ele><time>2026-04-04T11:36:49.999Z</time></trkpt><trkpt lat="43.17037870323291" lon="10.688923781582226"><ele>363.0</ele><time>2026-04-04T11:36:50.999Z</time></trkpt><trkpt lat="43.17027843885246" lon="10.688837976102096"><ele>363.0</ele><time>2026-04-04T11:36:51.999Z</time></trkpt><trkpt lat="43.1702092501439" lon="10.68870510299328"><ele>361.25</ele><time>2026-04-04T11:36:52.999Z</time></trkpt><trkpt lat="43.170138090686365" lon="10.688574585229555"><ele>359.5</ele><time>2026-04-04T11:36:53.999Z</time></trkpt><trkpt lat="43.17010425788537" lon="10.688400946304773"><ele>357.75</ele><time>2026-04-04T11:36:54.999Z</time></trkpt><trkpt lat="43.17009054434292" lon="10.688222242905058"><ele>356.0</ele><time>2026-04-04T11:36:55.999Z</time></trkpt><trkpt lat="43.170079519729626" lon="10.688045180307823"><ele>356.0</ele><time>2026-04-04T11:36:56.999Z</time></trkpt><trkpt lat="43.17006446487604" lon="10.68788521860712"><ele>356.0</ele><time>2026-04-04T11:36:57.999Z</time></trkpt><trkpt lat="43.17004754205607" lon="10.687725652028202"><ele>356.0</ele><time>2026-04-04T11:36:58.999Z</time></trkpt><trkpt lat="43.17003109359991" lon="10.687567488186586"><ele>356.0</ele><time>2026-04-04T11:36:59.999Z</time></trkpt><trkpt lat="43.170015430194866" lon="10.687410906375671"><ele>354.4</ele><time>2026-04-04T11:37:00.999Z</time></trkpt><trkpt lat="43.17000390279469" lon="10.687257385504333"><ele>352.8</ele><time>2026-04-04T11:37:01.999Z</time></trkpt><trkpt lat="43.16999496319703" lon="10.687104180787035"><ele>351.2</ele><time>2026-04-04T11:37:02.999Z</time></trkpt><trkpt lat="43.16998152989529" lon="10.686961520994517"><ele>349.59999999999997</ele><time>2026-04-04T11:37:03.999Z</time></trkpt><trkpt lat="43.16996761373723" lon="10.686829265354396"><ele>348.0</ele><time>2026-04-04T11:37:04.999Z</time></trkpt><trkpt lat="43.16995546650478" lon="10.686701168340834"><ele>348.3333333333333</ele><time>2026-04-04T11:37:05.999Z</time></trkpt><trkpt lat="43.1699447332518" lon="10.686587607995945"><ele>348.6666666666667</ele><time>2026-04-04T11:37:06.999Z</time></trkpt><trkpt lat="43.169939743896094" lon="10.68649931360341"><ele>349.0</ele><time>2026-04-04T11:37:07.999Z</time></trkpt><trkpt lat="43.16993777010371" lon="10.686353929995086"><ele>349.33333333333337</ele><time>2026-04-04T11:37:09.998Z</time></trkpt><trkpt lat="43.16996772074455" lon="10.686235293098873"><ele>349.6666666666667</ele><time>2026-04-04T11:37:11.998Z</time></trkpt><trkpt lat="43.17003966996075" lon="10.686133077948318"><ele>350.0</ele><time>2026-04-04T11:37:14.998Z</time></trkpt><trkpt lat="43.16991997397343" lon="10.6858919409208"><ele>350.0</ele><time>2026-04-04T11:38:41.999Z</time></trkpt><trkpt lat="43.1698949023279" lon="10.68571657258968"><ele>350.0</ele><time>2026-04-04T11:38:43.999Z</time></trkpt><trkpt lat="43.16987468722226" lon="10.685625753686763"><ele>350.0</ele><time>2026-04-04T11:38:44.999Z</time></trkpt><trkpt lat="43.16984185910158" lon="10.685518913451347"><ele>350.0</ele><time>2026-04-04T11:38:45.999Z</time></trkpt><trkpt lat="43.169770851099464" lon="10.68538807229631"><ele>350.0</ele><time>2026-04-04T11:38:47.999Z</time></trkpt><trkpt lat="43.16970709137854" lon="10.6853042933995"><ele>350.33333333333337</ele><time>2026-04-04T11:38:48.999Z</time></trkpt><trkpt lat="43.16963460408643" lon="10.68523028359503"><ele>350.6666666666667</ele><time>2026-04-04T11:38:49.999Z</time></trkpt><trkpt lat="43.1695742992156" lon="10.685188378322056"><ele>351.0</ele><time>2026-04-04T11:38:50.999Z</time></trkpt><trkpt lat="43.16951146093803" lon="10.685154536326552"><ele>351.3333333333333</ele><time>2026-04-04T11:38:51.999Z</time></trkpt><trkpt lat="43.1694438989781" lon="10.685111436427892"><ele>351.66666666666663</ele><time>2026-04-04T11:38:52.999Z</time></trkpt><trkpt lat="43.169381316048046" lon="10.685071512667268"><ele>352.0</ele><time>2026-04-04T11:38:53.999Z</time></trkpt><trkpt lat="43.16929491175483" lon="10.685020987066682"><ele>352.0</ele><time>2026-04-04T11:38:55.999Z</time></trkpt><trkpt lat="43.169192283615885" lon="10.684959686449275"><ele>352.0</ele><time>2026-04-04T11:38:57.999Z</time></trkpt><trkpt lat="43.169124821857075" lon="10.684919390981568"><ele>352.0</ele><time>2026-04-04T11:38:58.999Z</time></trkpt><trkpt lat="43.16921967598453" lon="10.684380916549445"><ele>352.5</ele><time>2026-04-04T11:38:59.999Z</time></trkpt><trkpt lat="43.16916948734222" lon="10.684309523718753"><ele>353.0</ele><time>2026-04-04T11:39:00.999Z</time></trkpt><trkpt lat="43.16911196529538" lon="10.684241238899999"><ele>353.5</ele><time>2026-04-04T11:39:01.999Z</time></trkpt><trkpt lat="43.16905440360425" lon="10.684203329327195"><ele>354.0</ele><time>2026-04-04T11:39:02.999Z</time></trkpt><trkpt lat="43.16895054420509" lon="10.68413463601465"><ele>354.5</ele><time>2026-04-04T11:39:04.999Z</time></trkpt><trkpt lat="43.16886663111833" lon="10.684030545219224"><ele>355.0</ele><time>2026-04-04T11:39:06.999Z</time></trkpt><trkpt lat="43.168819995388056" lon="10.68390921925789"><ele>355.0</ele><time>2026-04-04T11:39:08.999Z</time></trkpt><trkpt lat="43.16879367708427" lon="10.68378180392582"><ele>355.0</ele><time>2026-04-04T11:39:10.999Z</time></trkpt><trkpt lat="43.16877573641179" lon="10.683691759256268"><ele>355.0</ele><time>2026-04-04T11:39:11.999Z</time></trkpt><trkpt lat="43.1687532293186" lon="10.683603768640927"><ele>355.0</ele><time>2026-04-04T11:39:12.999Z</time></trkpt><trkpt lat="43.16871749714676" lon="10.68351329718794"><ele>355.0</ele><time>2026-04-04T11:39:13.999Z</time></trkpt><trkpt lat="43.16869770403192" lon="10.683386063976059"><ele>355.0</ele><time>2026-04-04T11:39:15.999Z</time></trkpt><trkpt lat="43.168649500577956" lon="10.683268054837729"><ele>358.0</ele><time>2026-04-04T11:39:17.999Z</time></trkpt><trkpt lat="43.168596706567186" lon="10.683153751831908"><ele>361.0</ele><time>2026-04-04T11:39:19.998Z</time></trkpt><trkpt lat="43.16853234642203" lon="10.683089312739876"><ele>364.0</ele><time>2026-04-04T11:39:21.998Z</time></trkpt><trkpt lat="43.16846086394104" lon="10.68294054711317"><ele>367.0</ele><time>2026-04-04T11:39:23.998Z</time></trkpt><trkpt lat="43.168406957203906" lon="10.682879091670381"><ele>370.0</ele><time>2026-04-04T11:39:24.998Z</time></trkpt><trkpt lat="43.16828506465353" lon="10.682747408463767"><ele>369.2</ele><time>2026-04-04T11:39:26.998Z</time></trkpt><trkpt lat="43.16821776571957" lon="10.682682402135883"><ele>368.4</ele><time>2026-04-04T11:39:27.998Z</time></trkpt><trkpt lat="43.16811951821956" lon="10.682565404086883"><ele>367.6</ele><time>2026-04-04T11:39:29.998Z</time></trkpt><trkpt lat="43.16806351335846" lon="10.68250149881431"><ele>366.8</ele><time>2026-04-04T11:39:30.998Z</time></trkpt><trkpt lat="43.168002859067066" lon="10.682440045756742"><ele>366.0</ele><time>2026-04-04T11:39:31.998Z</time></trkpt><trkpt lat="43.167900989170214" lon="10.682329057614274"><ele>366.0</ele><time>2026-04-04T11:39:34Z</time></trkpt><trkpt lat="43.16785434529568" lon="10.682252897529157"><ele>366.0</ele><time>2026-04-04T11:39:35Z</time></trkpt><trkpt lat="43.16780885157577" lon="10.682170741864418"><ele>366.0</ele><time>2026-04-04T11:39:36Z</time></trkpt><trkpt lat="43.167754458681515" lon="10.682096932710815"><ele>366.0</ele><time>2026-04-04T11:39:37Z</time></trkpt><trkpt lat="43.16766764143056" lon="10.681992613412977"><ele>366.0</ele><time>2026-04-04T11:39:39Z</time></trkpt><trkpt lat="43.16763913344407" lon="10.681890449433972"><ele>366.0</ele><time>2026-04-04T11:39:41Z</time></trkpt><trkpt lat="43.16759185378175" lon="10.681817127503031"><ele>366.8571428571429</ele><time>2026-04-04T11:39:43Z</time></trkpt><trkpt lat="43.167540467054536" lon="10.681715802580925"><ele>367.7142857142857</ele><time>2026-04-04T11:39:44Z</time></trkpt><trkpt lat="43.167507574630264" lon="10.6816283024613"><ele>368.57142857142856</ele><time>2026-04-04T11:39:45Z</time></trkpt><trkpt lat="43.1674712406709" lon="10.681557412549173"><ele>369.42857142857144</ele><time>2026-04-04T11:39:46Z</time></trkpt><trkpt lat="43.167425611378825" lon="10.681490312260898"><ele>370.2857142857143</ele><time>2026-04-04T11:39:47Z</time></trkpt><trkpt lat="43.167378972297136" lon="10.681422041738527"><ele>371.14285714285717</ele><time>2026-04-04T11:39:48Z</time></trkpt><trkpt lat="43.16732997721545" lon="10.681344600625813"><ele>372.0</ele><time>2026-04-04T11:39:49Z</time></trkpt><trkpt lat="43.16728057779005" lon="10.681263504304633"><ele>369.8</ele><time>2026-04-04T11:39:50Z</time></trkpt><trkpt lat="43.167199775601084" lon="10.681159863548787"><ele>367.6</ele><time>2026-04-04T11:39:52Z</time></trkpt><trkpt lat="43.167126781362754" lon="10.681047980984863"><ele>365.40000000000003</ele><time>2026-04-04T11:39:54Z</time></trkpt><trkpt lat="43.16707734453812" lon="10.680913697558752"><ele>363.20000000000005</ele><time>2026-04-04T11:39:56Z</time></trkpt><trkpt lat="43.167041822845505" lon="10.680809380979106"><ele>361.0</ele><time>2026-04-04T11:39:58Z</time></trkpt><trkpt lat="43.16699332280556" lon="10.680703491604204"><ele>361.0</ele><time>2026-04-04T11:40:00Z</time></trkpt><trkpt lat="43.166954529556776" lon="10.680605477063622"><ele>361.0</ele><time>2026-04-04T11:40:01Z</time></trkpt><trkpt lat="43.166929649382745" lon="10.680502368745627"><ele>361.0</ele><time>2026-04-04T11:40:02Z</time></trkpt><trkpt lat="43.16691019299443" lon="10.680350292195952"><ele>361.0</ele><time>2026-04-04T11:40:04Z</time></trkpt><trkpt lat="43.166872965978875" lon="10.680202015968748"><ele>361.0</ele><time>2026-04-04T11:40:06Z</time></trkpt><trkpt lat="43.166846745732805" lon="10.680051991692805"><ele>361.8</ele><time>2026-04-04T11:40:08Z</time></trkpt><trkpt lat="43.166822018601124" lon="10.679915636391891"><ele>362.6</ele><time>2026-04-04T11:40:10Z</time></trkpt><trkpt lat="43.166821905688494" lon="10.67977257376771"><ele>363.4</ele><time>2026-04-04T11:40:12Z</time></trkpt><trkpt lat="43.1668125678175" lon="10.67964786911107"><ele>364.2</ele><time>2026-04-04T11:40:14Z</time></trkpt><trkpt lat="43.16680875076711" lon="10.679553863558848"><ele>365.0</ele><time>2026-04-04T11:40:15Z</time></trkpt><trkpt lat="43.16676095308358" lon="10.679415474782369"><ele>365.42857142857144</ele><time>2026-04-04T11:40:17Z</time></trkpt><trkpt lat="43.16672052370732" lon="10.679322256744058"><ele>365.8571428571429</ele><time>2026-04-04T11:40:18Z</time></trkpt><trkpt lat="43.166670470731866" lon="10.679222428275713"><ele>366.28571428571433</ele><time>2026-04-04T11:40:19Z</time></trkpt><trkpt lat="43.16663308083198" lon="10.679121920054229"><ele>366.7142857142857</ele><time>2026-04-04T11:40:20Z</time></trkpt><trkpt lat="43.16659460993382" lon="10.679048692465587"><ele>367.1428571428571</ele><time>2026-04-04T11:40:20.999Z</time></trkpt><trkpt lat="43.16655936888012" lon="10.678972496601999"><ele>367.5714285714286</ele><time>2026-04-04T11:40:21.999Z</time></trkpt><trkpt lat="43.16652981321501" lon="10.6788909660589"><ele>368.0</ele><time>2026-04-04T11:40:22.999Z</time></trkpt><trkpt lat="43.166495318656956" lon="10.678806548345229"><ele>366.0</ele><time>2026-04-04T11:40:23.999Z</time></trkpt><trkpt lat="43.16645414559344" lon="10.678717920746209"><ele>364.0</ele><time>2026-04-04T11:40:24.999Z</time></trkpt><trkpt lat="43.16640951694752" lon="10.678641097410006"><ele>362.0</ele><time>2026-04-04T11:40:25.999Z</time></trkpt><trkpt lat="43.166366410636904" lon="10.678564883612143"><ele>360.0</ele><time>2026-04-04T11:40:26.999Z</time></trkpt><trkpt lat="43.16628565251425" lon="10.678452754351214"><ele>358.0</ele><time>2026-04-04T11:40:28.999Z</time></trkpt><trkpt lat="43.16623244286473" lon="10.67839417855631"><ele>356.0</ele><time>2026-04-04T11:40:29.999Z</time></trkpt><trkpt lat="43.16616245301769" lon="10.678271611868858"><ele>355.99999999999994</ele><time>2026-04-04T11:40:31.999Z</time></trkpt><trkpt lat="43.16613263189044" lon="10.678187530509387"><ele>356.0</ele><time>2026-04-04T11:40:32.999Z</time></trkpt><trkpt lat="43.1661089394806" lon="10.678088359639471"><ele>356.0</ele><time>2026-04-04T11:40:33.999Z</time></trkpt><trkpt lat="43.16608425214456" lon="10.677999646896467"><ele>356.0</ele><time>2026-04-04T11:40:34.999Z</time></trkpt><trkpt lat="43.16606373463577" lon="10.677912336316579"><ele>356.0</ele><time>2026-04-04T11:40:35.999Z</time></trkpt><trkpt lat="43.16603926495171" lon="10.677831553730343"><ele>355.99999999999994</ele><time>2026-04-04T11:40:36.999Z</time></trkpt><trkpt lat="43.16598037214395" lon="10.677718513451529"><ele>356.0</ele><time>2026-04-04T11:40:37.999Z</time></trkpt><trkpt lat="43.165931174728335" lon="10.677622076229444"><ele>357.5</ele><time>2026-04-04T11:40:38.999Z</time></trkpt><trkpt lat="43.165886807618335" lon="10.677541352131659"><ele>359.0</ele><time>2026-04-04T11:40:39.999Z</time></trkpt><trkpt lat="43.165849218401846" lon="10.677464173584422"><ele>360.5</ele><time>2026-04-04T11:40:40.999Z</time></trkpt><trkpt lat="43.16580663785828" lon="10.677386475643763"><ele>362.0</ele><time>2026-04-04T11:40:41.999Z</time></trkpt><trkpt lat="43.16578917492939" lon="10.677283276999926"><ele>363.5</ele><time>2026-04-04T11:40:42.999Z</time></trkpt><trkpt lat="43.165760581400555" lon="10.677186101727083"><ele>365.0</ele><time>2026-04-04T11:40:43.999Z</time></trkpt><trkpt lat="43.16572314379944" lon="10.677071060547926"><ele>364.5</ele><time>2026-04-04T11:40:44.999Z</time></trkpt><trkpt lat="43.165676630353644" lon="10.676942723276284"><ele>364.0</ele><time>2026-04-04T11:40:45.999Z</time></trkpt><trkpt lat="43.16559711171816" lon="10.676817546139892"><ele>363.5</ele><time>2026-04-04T11:40:46.999Z</time></trkpt><trkpt lat="43.165505635528305" lon="10.676721922811716"><ele>363.0</ele><time>2026-04-04T11:40:47.999Z</time></trkpt><trkpt lat="43.165418368035475" lon="10.676618155927764"><ele>363.0</ele><time>2026-04-04T11:40:48.999Z</time></trkpt><trkpt lat="43.16533553669377" lon="10.67649531043406"><ele>363.0</ele><time>2026-04-04T11:40:49.999Z</time></trkpt><trkpt lat="43.16525647879898" lon="10.676375037497"><ele>363.0</ele><time>2026-04-04T11:40:50.999Z</time></trkpt><trkpt lat="43.165165612365755" lon="10.676292147426267"><ele>363.0</ele><time>2026-04-04T11:40:51.999Z</time></trkpt><trkpt lat="43.16505650979543" lon="10.676231846553717"><ele>363.0</ele><time>2026-04-04T11:40:52.999Z</time></trkpt><trkpt lat="43.16493876671964" lon="10.676177819403192"><ele>363.0</ele><time>2026-04-04T11:40:53.999Z</time></trkpt><trkpt lat="43.16483198681951" lon="10.676134757409306"><ele>363.0</ele><time>2026-04-04T11:40:54.999Z</time></trkpt><trkpt lat="43.164731425142264" lon="10.676088636710968"><ele>363.0</ele><time>2026-04-04T11:40:55.999Z</time></trkpt><trkpt lat="43.16463155950457" lon="10.675994110767567"><ele>365.0</ele><time>2026-04-04T11:40:56.999Z</time></trkpt><trkpt lat="43.16451766536241" lon="10.675923297102575"><ele>367.0</ele><time>2026-04-04T11:40:57.999Z</time></trkpt><trkpt lat="43.16440037063382" lon="10.675848590120678"><ele>369.0</ele><time>2026-04-04T11:40:58.999Z</time></trkpt><trkpt lat="43.164279541606135" lon="10.675772878572657"><ele>371.0</ele><time>2026-04-04T11:40:59.999Z</time></trkpt><trkpt lat="43.164166284338634" lon="10.675705443436428"><ele>371.0</ele><time>2026-04-04T11:41:00.999Z</time></trkpt><trkpt lat="43.164041552588884" lon="10.675661089467683"><ele>371.0</ele><time>2026-04-04T11:41:01.999Z</time></trkpt><trkpt lat="43.16392930893521" lon="10.675637470583506"><ele>371.0</ele><time>2026-04-04T11:41:02.999Z</time></trkpt><trkpt lat="43.16381822774085" lon="10.675606142623167"><ele>371.0</ele><time>2026-04-04T11:41:03.999Z</time></trkpt><trkpt lat="43.16371867773234" lon="10.67556443199693"><ele>371.4</ele><time>2026-04-04T11:41:04.999Z</time></trkpt><trkpt lat="43.16361714184089" lon="10.675538331557643"><ele>371.8</ele><time>2026-04-04T11:41:05.999Z</time></trkpt><trkpt lat="43.16353052361238" lon="10.675506046682674"><ele>372.2</ele><time>2026-04-04T11:41:06.999Z</time></trkpt><trkpt lat="43.16346612188926" lon="10.675463750356185"><ele>372.59999999999997</ele><time>2026-04-04T11:41:07.999Z</time></trkpt><trkpt lat="43.16335874895419" lon="10.675436243305617"><ele>373.0</ele><time>2026-04-04T11:41:09.999Z</time></trkpt><trkpt lat="43.16325329682891" lon="10.675408550749221"><ele>373.2</ele><time>2026-04-04T11:41:11.999Z</time></trkpt><trkpt lat="43.16315272536421" lon="10.675367005000654"><ele>373.4</ele><time>2026-04-04T11:41:13.999Z</time></trkpt><trkpt lat="43.163079839983915" lon="10.675362999497782"><ele>373.59999999999997</ele><time>2026-04-04T11:41:14.999Z</time></trkpt><trkpt lat="43.162992091239246" lon="10.67529577662075"><ele>373.79999999999995</ele><time>2026-04-04T11:41:15.999Z</time></trkpt><trkpt lat="43.162888866998024" lon="10.675254892306487"><ele>374.0</ele><time>2026-04-04T11:41:16.999Z</time></trkpt><trkpt lat="43.16276853629995" lon="10.675211018645733"><ele>375.0</ele><time>2026-04-04T11:41:17.999Z</time></trkpt><trkpt lat="43.16265654325041" lon="10.675154466798334"><ele>376.0</ele><time>2026-04-04T11:41:18.999Z</time></trkpt><trkpt lat="43.16253233741633" lon="10.675076918073403"><ele>377.0</ele><time>2026-04-04T11:41:19.998Z</time></trkpt><trkpt lat="43.162402872755855" lon="10.675030802356535"><ele>378.0</ele><time>2026-04-04T11:41:20.998Z</time></trkpt><trkpt lat="43.16228031059619" lon="10.674998804634166"><ele>378.0</ele><time>2026-04-04T11:41:21.998Z</time></trkpt><trkpt lat="43.16217104824285" lon="10.67497781081951"><ele>378.0</ele><time>2026-04-04T11:41:22.998Z</time></trkpt><trkpt lat="43.16207027931417" lon="10.674946264854933"><ele>378.0</ele><time>2026-04-04T11:41:23.998Z</time></trkpt><trkpt lat="43.16198163099411" lon="10.674884394716234"><ele>378.0</ele><time>2026-04-04T11:41:24.998Z</time></trkpt><trkpt lat="43.16190361752831" lon="10.67479578836838"><ele>378.0</ele><time>2026-04-04T11:41:25.998Z</time></trkpt><trkpt lat="43.161803325860845" lon="10.674671975502957"><ele>378.0</ele><time>2026-04-04T11:41:26.998Z</time></trkpt><trkpt lat="43.16169954466437" lon="10.674585155491748"><ele>378.0</ele><time>2026-04-04T11:41:27.998Z</time></trkpt><trkpt lat="43.16156888248647" lon="10.674497849133608"><ele>378.0</ele><time>2026-04-04T11:41:28.998Z</time></trkpt><trkpt lat="43.161423461637426" lon="10.674409438880037"><ele>378.0</ele><time>2026-04-04T11:41:29.998Z</time></trkpt><trkpt lat="43.16126369025031" lon="10.674316771061156"><ele>379.25</ele><time>2026-04-04T11:41:30.998Z</time></trkpt><trkpt lat="43.1611326244358" lon="10.674243116812388"><ele>380.5</ele><time>2026-04-04T11:41:31.998Z</time></trkpt><trkpt lat="43.1610236374122" lon="10.674171696414023"><ele>381.75</ele><time>2026-04-04T11:41:32.998Z</time></trkpt><trkpt lat="43.16090939906233" lon="10.674077577443201"><ele>383.0</ele><time>2026-04-04T11:41:33.998Z</time></trkpt><trkpt lat="43.16079126472956" lon="10.673997355016425"><ele>382.5</ele><time>2026-04-04T11:41:34.998Z</time></trkpt><trkpt lat="43.16066388967919" lon="10.673923268917491"><ele>382.0</ele><time>2026-04-04T11:41:35.998Z</time></trkpt><trkpt lat="43.16054936611738" lon="10.673856381694911"><ele>381.5</ele><time>2026-04-04T11:41:36.998Z</time></trkpt><trkpt lat="43.16043550812625" lon="10.673792723672614"><ele>381.0</ele><time>2026-04-04T11:41:37.998Z</time></trkpt><trkpt lat="43.160330965086786" lon="10.673730215570659"><ele>381.0</ele><time>2026-04-04T11:41:39Z</time></trkpt><trkpt lat="43.16022717823274" lon="10.673642439303654"><ele>381.0</ele><time>2026-04-04T11:41:40Z</time></trkpt><trkpt lat="43.16011829130163" lon="10.673545860293753"><ele>381.0</ele><time>2026-04-04T11:41:41Z</time></trkpt><trkpt lat="43.15999623501064" lon="10.67344985759837"><ele>381.0</ele><time>2026-04-04T11:41:42Z</time></trkpt><trkpt lat="43.159879085969045" lon="10.673354597879127"><ele>381.6</ele><time>2026-04-04T11:41:43Z</time></trkpt><trkpt lat="43.159778343004724" lon="10.673255602615203"><ele>382.20000000000005</ele><time>2026-04-04T11:41:44Z</time></trkpt><trkpt lat="43.15969038180058" lon="10.673158669435331"><ele>382.79999999999995</ele><time>2026-04-04T11:41:45Z</time></trkpt><trkpt lat="43.15960613348455" lon="10.673058076781993"><ele>383.4</ele><time>2026-04-04T11:41:46Z</time></trkpt><trkpt lat="43.15952293807919" lon="10.672979924508427"><ele>384.0</ele><time>2026-04-04T11:41:47Z</time></trkpt><trkpt lat="43.15941930416714" lon="10.672915315966653"><ele>384.0</ele><time>2026-04-04T11:41:48Z</time></trkpt><trkpt lat="43.15931658928778" lon="10.672838178151116"><ele>384.0</ele><time>2026-04-04T11:41:49Z</time></trkpt><trkpt lat="43.15923534766421" lon="10.672764915233401"><ele>384.0</ele><time>2026-04-04T11:41:50Z</time></trkpt><trkpt lat="43.15916007786502" lon="10.672686820859813"><ele>384.0</ele><time>2026-04-04T11:41:51Z</time></trkpt><trkpt lat="43.15910180148075" lon="10.672607759014824"><ele>384.0</ele><time>2026-04-04T11:41:52Z</time></trkpt><trkpt lat="43.15905709957981" lon="10.672543148170037"><ele>385.0</ele><time>2026-04-04T11:41:53Z</time></trkpt><trkpt lat="43.159001002171024" lon="10.672433325673518"><ele>386.0</ele><time>2026-04-04T11:41:55Z</time></trkpt><trkpt lat="43.15894022869928" lon="10.672388057233064"><ele>387.0</ele><time>2026-04-04T11:44:40.999Z</time></trkpt><trkpt lat="43.15886184628851" lon="10.672316519069573"><ele>388.0</ele><time>2026-04-04T11:44:42.999Z</time></trkpt><trkpt lat="43.15879324386663" lon="10.67225449711778"><ele>389.0</ele><time>2026-04-04T11:44:43.999Z</time></trkpt><trkpt lat="43.15871637602391" lon="10.672218443134529"><ele>390.0</ele><time>2026-04-04T11:44:44.999Z</time></trkpt><trkpt lat="43.15861763370075" lon="10.672205303781237"><ele>390.0</ele><time>2026-04-04T11:44:45.999Z</time></trkpt><trkpt lat="43.158521897057504" lon="10.672178065920809"><ele>390.0</ele><time>2026-04-04T11:44:46.999Z</time></trkpt><trkpt lat="43.158436018755104" lon="10.67205729499811"><ele>390.0</ele><time>2026-04-04T11:44:48.999Z</time></trkpt><trkpt lat="43.15835718944173" lon="10.671979944193671"><ele>390.0</ele><time>2026-04-04T11:44:49.999Z</time></trkpt><trkpt lat="43.15830148557992" lon="10.671916893878901"><ele>390.0</ele><time>2026-04-04T11:44:50.999Z</time></trkpt><trkpt lat="43.15822361763616" lon="10.67188447544519"><ele>392.0</ele><time>2026-04-04T11:44:51.999Z</time></trkpt><trkpt lat="43.158132438313274" lon="10.671854504714794"><ele>394.0</ele><time>2026-04-04T11:44:52.999Z</time></trkpt><trkpt lat="43.15797377509042" lon="10.671846191033577"><ele>396.0</ele><time>2026-04-04T11:44:54.999Z</time></trkpt><trkpt lat="43.15784733579563" lon="10.671846918475447"><ele>398.0</ele><time>2026-04-04T11:44:55.999Z</time></trkpt><trkpt lat="43.15771375425897" lon="10.671846579561622"><ele>398.0</ele><time>2026-04-04T11:44:56.999Z</time></trkpt><trkpt lat="43.157605077059245" lon="10.671836593361526"><ele>398.0</ele><time>2026-04-04T11:44:57.999Z</time></trkpt><trkpt lat="43.15751357206501" lon="10.67181189864426"><ele>398.0</ele><time>2026-04-04T11:44:58.999Z</time></trkpt><trkpt lat="43.15744836858031" lon="10.67181506433451"><ele>398.0</ele><time>2026-04-04T11:44:59.999Z</time></trkpt><trkpt lat="43.1574050766128" lon="10.67175113720447"><ele>398.0</ele><time>2026-04-04T11:45:00.999Z</time></trkpt><trkpt lat="43.15733034230822" lon="10.671588822614423"><ele>398.4</ele><time>2026-04-04T11:45:02.999Z</time></trkpt><trkpt lat="43.15731966941679" lon="10.671493767337696"><ele>398.79999999999995</ele><time>2026-04-04T11:45:03.999Z</time></trkpt><trkpt lat="43.15728846295845" lon="10.671374624787454"><ele>399.2</ele><time>2026-04-04T11:45:04.999Z</time></trkpt><trkpt lat="43.15727205138057" lon="10.671265056113908"><ele>399.6</ele><time>2026-04-04T11:45:05.999Z</time></trkpt><trkpt lat="43.15725376471797" lon="10.671127629432496"><ele>400.0</ele><time>2026-04-04T11:45:06.999Z</time></trkpt><trkpt lat="43.1572168582603" lon="10.670976936024857"><ele>401.00000000000006</ele><time>2026-04-04T11:45:07.999Z</time></trkpt><trkpt lat="43.157197008486314" lon="10.670866084477495"><ele>402.0</ele><time>2026-04-04T11:45:08.999Z</time></trkpt><trkpt lat="43.15715460881463" lon="10.670740709592922"><ele>403.0</ele><time>2026-04-04T11:45:09.999Z</time></trkpt><trkpt lat="43.15711885044671" lon="10.670646704988407"><ele>404.0</ele><time>2026-04-04T11:45:10.999Z</time></trkpt><trkpt lat="43.15704791940451" lon="10.670530624851446"><ele>405.00000000000006</ele><time>2026-04-04T11:45:11.999Z</time></trkpt><trkpt lat="43.15699772012625" lon="10.670457704526049"><ele>406.0</ele><time>2026-04-04T11:45:12.999Z</time></trkpt><trkpt lat="43.15694920397521" lon="10.670395932510818"><ele>406.00000000000006</ele><time>2026-04-04T11:45:13.999Z</time></trkpt><trkpt lat="43.15689830162584" lon="10.670322932317568"><ele>406.0</ele><time>2026-04-04T11:45:14.999Z</time></trkpt><trkpt lat="43.15683915921884" lon="10.670265206327999"><ele>406.0</ele><time>2026-04-04T11:45:15.999Z</time></trkpt><trkpt lat="43.156805873968416" lon="10.670185604689822"><ele>406.0</ele><time>2026-04-04T11:45:16.999Z</time></trkpt><trkpt lat="43.156750948086284" lon="10.670083402275605"><ele>406.00000000000006</ele><time>2026-04-04T11:45:17.999Z</time></trkpt><trkpt lat="43.15670922812861" lon="10.670003222621753"><ele>406.0</ele><time>2026-04-04T11:45:18.999Z</time></trkpt><trkpt lat="43.15664817910578" lon="10.669896245101441"><ele>405.83333333333337</ele><time>2026-04-04T11:45:19.999Z</time></trkpt><trkpt lat="43.15660237158754" lon="10.669809345581166"><ele>405.6666666666667</ele><time>2026-04-04T11:45:20.999Z</time></trkpt><trkpt lat="43.15654779035254" lon="10.669725315677624"><ele>405.5</ele><time>2026-04-04T11:45:21.999Z</time></trkpt><trkpt lat="43.15649411479926" lon="10.669674968249232"><ele>405.33333333333337</ele><time>2026-04-04T11:45:22.999Z</time></trkpt><trkpt lat="43.15642610545853" lon="10.669648539916002"><ele>405.1666666666667</ele><time>2026-04-04T11:45:24.999Z</time></trkpt><trkpt lat="43.15632312507205" lon="10.669666064421495"><ele>405.0</ele><time>2026-04-04T11:45:26.998Z</time></trkpt><trkpt lat="43.1562516980825" lon="10.669693024145767"><ele>405.0</ele><time>2026-04-04T11:45:27.998Z</time></trkpt><trkpt lat="43.15609138722365" lon="10.6696736620449"><ele>405.0</ele><time>2026-04-04T11:45:29.998Z</time></trkpt><trkpt lat="43.155980483752586" lon="10.669675366335508"><ele>405.0</ele><time>2026-04-04T11:45:30.998Z</time></trkpt><trkpt lat="43.15584248794429" lon="10.669687382976903"><ele>405.0</ele><time>2026-04-04T11:45:31.998Z</time></trkpt><trkpt lat="43.15571488768536" lon="10.669712617242144"><ele>406.0</ele><time>2026-04-04T11:45:32.998Z</time></trkpt><trkpt lat="43.15561406442843" lon="10.669730243454786"><ele>407.0</ele><time>2026-04-04T11:45:33.998Z</time></trkpt><trkpt lat="43.15552765989417" lon="10.669749894054341"><ele>408.0</ele><time>2026-04-04T11:45:34.998Z</time></trkpt><trkpt lat="43.1554550203794" lon="10.669751329825614"><ele>409.0</ele><time>2026-04-04T11:45:35.998Z</time></trkpt><trkpt lat="43.155367274527094" lon="10.669760250705197"><ele>410.0</ele><time>2026-04-04T11:45:36.998Z</time></trkpt><trkpt lat="43.155262830628175" lon="10.669756830227985"><ele>409.99999999999994</ele><time>2026-04-04T11:45:37.998Z</time></trkpt><trkpt lat="43.15519436692398" lon="10.669744135175446"><ele>410.0</ele><time>2026-04-04T11:45:38.998Z</time></trkpt><trkpt lat="43.15510573466891" lon="10.66974966748043"><ele>410.0</ele><time>2026-04-04T11:45:58Z</time></trkpt><trkpt lat="43.155018875565524" lon="10.669760841228033"><ele>410.0</ele><time>2026-04-04T11:45:59Z</time></trkpt><trkpt lat="43.15493426566238" lon="10.669752378888592"><ele>409.99999999999994</ele><time>2026-04-04T11:46:00Z</time></trkpt><trkpt lat="43.15483560105523" lon="10.669730422350368"><ele>410.0</ele><time>2026-04-04T11:46:01Z</time></trkpt><trkpt lat="43.15474748241218" lon="10.669703656337965"><ele>412.3333333333333</ele><time>2026-04-04T11:46:02Z</time></trkpt><trkpt lat="43.15467334767095" lon="10.669651399750288"><ele>414.66666666666663</ele><time>2026-04-04T11:46:03Z</time></trkpt><trkpt lat="43.154629087452655" lon="10.669576975853662"><ele>417.0</ele><time>2026-04-04T11:46:04Z</time></trkpt><trkpt lat="43.154603746695095" lon="10.669494031544717"><ele>419.33333333333337</ele><time>2026-04-04T11:46:05Z</time></trkpt><trkpt lat="43.15458915201514" lon="10.669397688139938"><ele>421.6666666666667</ele><time>2026-04-04T11:46:06Z</time></trkpt><trkpt lat="43.154561682658425" lon="10.669230695167387"><ele>424.0</ele><time>2026-04-04T11:46:07Z</time></trkpt><trkpt lat="43.15452787799689" lon="10.669077068999824"><ele>424.0</ele><time>2026-04-04T11:46:08Z</time></trkpt><trkpt lat="43.154497174302264" lon="10.668943785597037"><ele>424.0</ele><time>2026-04-04T11:46:09Z</time></trkpt><trkpt lat="43.154457758878905" lon="10.668846794943567"><ele>424.0</ele><time>2026-04-04T11:46:10Z</time></trkpt><trkpt lat="43.154405740862614" lon="10.66876979037505"><ele>424.0</ele><time>2026-04-04T11:46:11Z</time></trkpt><trkpt lat="43.154333751342044" lon="10.668712879608021"><ele>424.0</ele><time>2026-04-04T11:46:12Z</time></trkpt><trkpt lat="43.15424046494482" lon="10.66862149354957"><ele>425.5</ele><time>2026-04-04T11:46:13Z</time></trkpt><trkpt lat="43.15414396807489" lon="10.668538886792573"><ele>427.0</ele><time>2026-04-04T11:46:14Z</time></trkpt><trkpt lat="43.154061166246244" lon="10.668430734064897"><ele>428.5</ele><time>2026-04-04T11:46:15Z</time></trkpt><trkpt lat="43.15398963547012" lon="10.668305572264277"><ele>430.0</ele><time>2026-04-04T11:46:16Z</time></trkpt><trkpt lat="43.15391250068059" lon="10.668191465070334"><ele>430.0</ele><time>2026-04-04T11:46:17Z</time></trkpt><trkpt lat="43.15384822147893" lon="10.668052775621904"><ele>430.0</ele><time>2026-04-04T11:46:18Z</time></trkpt><trkpt lat="43.153794033027765" lon="10.667939297630232"><ele>430.0</ele><time>2026-04-04T11:46:19Z</time></trkpt><trkpt lat="43.15374327803805" lon="10.66785335893847"><ele>430.0</ele><time>2026-04-04T11:46:20Z</time></trkpt><trkpt lat="43.15367280700847" lon="10.6677897140372"><ele>430.0</ele><time>2026-04-04T11:46:21Z</time></trkpt><trkpt lat="43.15359258369743" lon="10.667740150269953"><ele>428.75</ele><time>2026-04-04T11:46:22Z</time></trkpt><trkpt lat="43.153487479387934" lon="10.66770186834448"><ele>427.5</ele><time>2026-04-04T11:46:23Z</time></trkpt><trkpt lat="43.15338586997051" lon="10.667670955191584"><ele>426.25</ele><time>2026-04-04T11:46:24Z</time></trkpt><trkpt lat="43.15327580485358" lon="10.667605848269277"><ele>425.0</ele><time>2026-04-04T11:46:25Z</time></trkpt><trkpt lat="43.15313043301139" lon="10.667568438622277"><ele>425.0</ele><time>2026-04-04T11:46:26Z</time></trkpt><trkpt lat="43.152992058108964" lon="10.667507972170151"><ele>425.0</ele><time>2026-04-04T11:46:26.999Z</time></trkpt><trkpt lat="43.152911808238834" lon="10.667465351825019"><ele>425.0</ele><time>2026-04-04T11:46:27.999Z</time></trkpt><trkpt lat="43.15280866352863" lon="10.667385344002206"><ele>425.0</ele><time>2026-04-04T11:46:28.999Z</time></trkpt><trkpt lat="43.15271997225979" lon="10.667306678861593"><ele>425.0</ele><time>2026-04-04T11:46:29.999Z</time></trkpt><trkpt lat="43.15264247660879" lon="10.667221383726492"><ele>425.0</ele><time>2026-04-04T11:46:30.999Z</time></trkpt><trkpt lat="43.15258080200166" lon="10.667140842325537"><ele>425.0</ele><time>2026-04-04T11:46:31.999Z</time></trkpt><trkpt lat="43.152489019484584" lon="10.667074282605432"><ele>425.0</ele><time>2026-04-04T11:46:32.999Z</time></trkpt><trkpt lat="43.152374790098776" lon="10.666978929735356"><ele>425.0</ele><time>2026-04-04T11:46:33.999Z</time></trkpt><trkpt lat="43.152277606024256" lon="10.666913423279242"><ele>424.49999999999994</ele><time>2026-04-04T11:46:34.999Z</time></trkpt><trkpt lat="43.15219673816484" lon="10.666884101810167"><ele>424.0</ele><time>2026-04-04T11:46:35.999Z</time></trkpt><trkpt lat="43.1521198961035" lon="10.666893406252873"><ele>423.5</ele><time>2026-04-04T11:46:36.999Z</time></trkpt><trkpt lat="43.152042624490036" lon="10.666925816542925"><ele>423.0</ele><time>2026-04-04T11:46:37.999Z</time></trkpt><trkpt lat="43.151950840696884" lon="10.666952920252"><ele>422.49999999999994</ele><time>2026-04-04T11:46:38.999Z</time></trkpt><trkpt lat="43.151854734704024" lon="10.666993072954282"><ele>422.0</ele><time>2026-04-04T11:46:39.999Z</time></trkpt><trkpt lat="43.1517671833099" lon="10.666981197924763"><ele>422.0</ele><time>2026-04-04T11:46:40.999Z</time></trkpt><trkpt lat="43.15168212413902" lon="10.666949362514265"><ele>422.0</ele><time>2026-04-04T11:46:41.999Z</time></trkpt><trkpt lat="43.151623778093935" lon="10.666856833172623"><ele>422.0</ele><time>2026-04-04T11:46:42.999Z</time></trkpt><trkpt lat="43.15156379920604" lon="10.666737345066188"><ele>422.0</ele><time>2026-04-04T11:46:43.999Z</time></trkpt><trkpt lat="43.15151277791556" lon="10.666611828500201"><ele>422.0</ele><time>2026-04-04T11:46:44.999Z</time></trkpt><trkpt lat="43.151423621191505" lon="10.666514066671265"><ele>422.25</ele><time>2026-04-04T11:46:45.999Z</time></trkpt><trkpt lat="43.15134915532556" lon="10.666389430497057"><ele>422.5</ele><time>2026-04-04T11:46:46.999Z</time></trkpt><trkpt lat="43.151292720080136" lon="10.666228185000541"><ele>422.75</ele><time>2026-04-04T11:46:47.999Z</time></trkpt><trkpt lat="43.151246245878696" lon="10.666082775955719"><ele>423.0</ele><time>2026-04-04T11:46:48.999Z</time></trkpt><trkpt lat="43.15120306585624" lon="10.665962706004146"><ele>424.0</ele><time>2026-04-04T11:46:49.999Z</time></trkpt><trkpt lat="43.15114731088639" lon="10.665806523827765"><ele>425.0</ele><time>2026-04-04T11:46:50.999Z</time></trkpt><trkpt lat="43.151089051560106" lon="10.665649452042517"><ele>426.0</ele><time>2026-04-04T11:46:51.999Z</time></trkpt><trkpt lat="43.15103895508922" lon="10.66549719944983"><ele>427.0</ele><time>2026-04-04T11:46:52.999Z</time></trkpt><trkpt lat="43.15099622319996" lon="10.665352760316111"><ele>426.5</ele><time>2026-04-04T11:46:53.999Z</time></trkpt><trkpt lat="43.15093391320546" lon="10.665214160047185"><ele>426.0</ele><time>2026-04-04T11:46:54.999Z</time></trkpt><trkpt lat="43.15085680491353" lon="10.665061182708905"><ele>425.5</ele><time>2026-04-04T11:46:55.999Z</time></trkpt><trkpt lat="43.15079192554615" lon="10.664930320750234"><ele>425.0</ele><time>2026-04-04T11:46:56.999Z</time></trkpt><trkpt lat="43.15073943766147" lon="10.664807909449692"><ele>424.8</ele><time>2026-04-04T11:46:57.999Z</time></trkpt><trkpt lat="43.15070067242224" lon="10.664705921272573"><ele>424.6</ele><time>2026-04-04T11:46:58.999Z</time></trkpt><trkpt lat="43.15064694464556" lon="10.664614006519633"><ele>424.4</ele><time>2026-04-04T11:46:59.999Z</time></trkpt><trkpt lat="43.15058404084198" lon="10.66453923995534"><ele>424.2</ele><time>2026-04-04T11:47:00.999Z</time></trkpt><trkpt lat="43.15053648785186" lon="10.664469407901493"><ele>424.0</ele><time>2026-04-04T11:47:01.999Z</time></trkpt><trkpt lat="43.150420133052364" lon="10.66438650417436"><ele>424.0</ele><time>2026-04-04T11:47:03.999Z</time></trkpt><trkpt lat="43.150293023269924" lon="10.664311520189155"><ele>424.0</ele><time>2026-04-04T11:47:05.999Z</time></trkpt><trkpt lat="43.15021742392001" lon="10.664258587757173"><ele>424.0</ele><time>2026-04-04T11:47:06.999Z</time></trkpt><trkpt lat="43.15015624746971" lon="10.66418910658174"><ele>424.0</ele><time>2026-04-04T11:47:07.999Z</time></trkpt><trkpt lat="43.1500921301104" lon="10.664112949103323"><ele>424.0</ele><time>2026-04-04T11:47:08.999Z</time></trkpt><trkpt lat="43.1500275819952" lon="10.664072069833601"><ele>424.0</ele><time>2026-04-04T11:47:09.999Z</time></trkpt><trkpt lat="43.14994343374975" lon="10.66400010876791"><ele>424.0</ele><time>2026-04-04T11:47:11.999Z</time></trkpt><trkpt lat="43.14985098836184" lon="10.664018941852252"><ele>424.0</ele><time>2026-04-04T11:47:16.999Z</time></trkpt><trkpt lat="43.149774645345225" lon="10.664039510885223"><ele>424.0</ele><time>2026-04-04T11:47:18.999Z</time></trkpt><trkpt lat="43.14969034335626" lon="10.664080216965566"><ele>424.0</ele><time>2026-04-04T11:47:20.999Z</time></trkpt><trkpt lat="43.149601521644485" lon="10.664111823619608"><ele>421.79999999999995</ele><time>2026-04-04T11:47:22.999Z</time></trkpt><trkpt lat="43.14949279219141" lon="10.664120347935505"><ele>419.59999999999997</ele><time>2026-04-04T11:47:24.999Z</time></trkpt><trkpt lat="43.14942888533534" lon="10.664092856305734"><ele>417.4</ele><time>2026-04-04T11:47:25.998Z</time></trkpt><trkpt lat="43.14933252009847" lon="10.66408865143758"><ele>415.2</ele><time>2026-04-04T11:47:27.998Z</time></trkpt><trkpt lat="43.14926194233727" lon="10.66401140067494"><ele>413.0</ele><time>2026-04-04T11:47:29.998Z</time></trkpt><trkpt lat="43.14916625984847" lon="10.66404702493515"><ele>413.0</ele><time>2026-04-04T11:47:31.998Z</time></trkpt><trkpt lat="43.14908105842773" lon="10.664059042774161"><ele>413.0</ele><time>2026-04-04T11:47:33.998Z</time></trkpt><trkpt lat="43.14899122888262" lon="10.664081020237578"><ele>413.0</ele><time>2026-04-04T11:47:36.998Z</time></trkpt><trkpt lat="43.14891233990069" lon="10.664091101168014"><ele>413.0</ele><time>2026-04-04T11:47:43.998Z</time></trkpt><trkpt lat="43.14879687627169" lon="10.664070023023712"><ele>413.0</ele><time>2026-04-04T11:47:46.998Z</time></trkpt><trkpt lat="43.14871105664606" lon="10.66413243600619"><ele>410.2</ele><time>2026-04-04T11:47:48.998Z</time></trkpt><trkpt lat="43.14864064094811" lon="10.66420592144768"><ele>407.4</ele><time>2026-04-04T11:47:50.998Z</time></trkpt><trkpt lat="43.148543559700926" lon="10.664235190435646"><ele>404.59999999999997</ele><time>2026-04-04T11:47:52.998Z</time></trkpt><trkpt lat="43.14843078373047" lon="10.664225857682348"><ele>401.79999999999995</ele><time>2026-04-04T11:47:54.998Z</time></trkpt><trkpt lat="43.148351596894045" lon="10.664152441492414"><ele>399.0</ele><time>2026-04-04T11:47:57Z</time></trkpt><trkpt lat="43.14827053873331" lon="10.664085998564962"><ele>395.79999999999995</ele><time>2026-04-04T11:47:59Z</time></trkpt><trkpt lat="43.148137701494875" lon="10.664043049400245"><ele>392.59999999999997</ele><time>2026-04-04T11:48:01Z</time></trkpt><trkpt lat="43.14806226344611" lon="10.664030742088581"><ele>389.4</ele><time>2026-04-04T11:48:02Z</time></trkpt><trkpt lat="43.14799606123227" lon="10.664029665410718"><ele>386.2</ele><time>2026-04-04T11:48:03Z</time></trkpt><trkpt lat="43.14789910081387" lon="10.664089008414019"><ele>383.0</ele><time>2026-04-04T11:48:05Z</time></trkpt><trkpt lat="43.14783097937753" lon="10.664224439068343"><ele>383.0</ele><time>2026-04-04T11:48:07Z</time></trkpt><trkpt lat="43.14774609208338" lon="10.664318549867652"><ele>383.0</ele><time>2026-04-04T11:48:09Z</time></trkpt><trkpt lat="43.14765267051757" lon="10.664304777888514"><ele>383.0</ele><time>2026-04-04T11:48:11Z</time></trkpt><trkpt lat="43.14754365675813" lon="10.664341852702151"><ele>383.0</ele><time>2026-04-04T11:48:13Z</time></trkpt><trkpt lat="43.147451979964735" lon="10.664347144828206"><ele>383.0</ele><time>2026-04-04T11:48:15Z</time></trkpt><trkpt lat="43.1473467084353" lon="10.664278253636594"><ele>379.83333333333337</ele><time>2026-04-04T11:48:17Z</time></trkpt><trkpt lat="43.147264408256476" lon="10.664203074223668"><ele>376.6666666666667</ele><time>2026-04-04T11:48:19Z</time></trkpt><trkpt lat="43.147181966939414" lon="10.664151859508925"><ele>373.5</ele><time>2026-04-04T11:48:21Z</time></trkpt><trkpt lat="43.147109786747514" lon="10.664218954585941"><ele>370.3333333333333</ele><time>2026-04-04T11:48:23Z</time></trkpt><trkpt lat="43.14704820988076" lon="10.664173912739003"><ele>367.16666666666663</ele><time>2026-04-04T11:48:25Z</time></trkpt><trkpt lat="43.14699284850785" lon="10.66409647459456"><ele>364.0</ele><time>2026-04-04T11:48:27Z</time></trkpt><trkpt lat="43.14688269184865" lon="10.664038160455213"><ele>364.0</ele><time>2026-04-04T11:48:29Z</time></trkpt><trkpt lat="43.14676926136818" lon="10.6640011236551"><ele>364.0</ele><time>2026-04-04T11:48:31Z</time></trkpt><trkpt lat="43.146655474252306" lon="10.663948440470866"><ele>364.0</ele><time>2026-04-04T11:48:33Z</time></trkpt><trkpt lat="43.146570181764886" lon="10.663895809646336"><ele>364.0</ele><time>2026-04-04T11:48:35Z</time></trkpt><trkpt lat="43.14649448191884" lon="10.663906972261323"><ele>364.0</ele><time>2026-04-04T11:48:36.999Z</time></trkpt><trkpt lat="43.14643156593699" lon="10.663926625265496"><ele>360.4</ele><time>2026-04-04T11:48:37.999Z</time></trkpt><trkpt lat="43.146306309923254" lon="10.663902809981932"><ele>356.79999999999995</ele><time>2026-04-04T11:48:39.999Z</time></trkpt><trkpt lat="43.146200085832575" lon="10.663816972146076"><ele>353.20000000000005</ele><time>2026-04-04T11:48:41.999Z</time></trkpt><trkpt lat="43.14613855596553" lon="10.663792942022154"><ele>349.6</ele><time>2026-04-04T11:48:42.999Z</time></trkpt><trkpt lat="43.146069662108665" lon="10.663756011965836"><ele>346.0</ele><time>2026-04-04T11:48:44.999Z</time></trkpt><trkpt lat="43.14598965658549" lon="10.663800027003655"><ele>346.0</ele><time>2026-04-04T11:48:46.999Z</time></trkpt><trkpt lat="43.14593078200803" lon="10.663905989626558"><ele>346.0</ele><time>2026-04-04T11:48:48.999Z</time></trkpt><trkpt lat="43.14589511122518" lon="10.66400889638753"><ele>346.0</ele><time>2026-04-04T11:48:50.999Z</time></trkpt><trkpt lat="43.145845238173784" lon="10.66407624497779"><ele>346.0</ele><time>2026-04-04T11:48:51.999Z</time></trkpt><trkpt lat="43.14582383491568" lon="10.66416233514318"><ele>346.0</ele><time>2026-04-04T11:48:52.999Z</time></trkpt><trkpt lat="43.1457676570292" lon="10.664214991126213"><ele>346.0</ele><time>2026-04-04T11:48:54.999Z</time></trkpt><trkpt lat="43.145676664101764" lon="10.664186149861571"><ele>344.0</ele><time>2026-04-04T11:48:57.999Z</time></trkpt><trkpt lat="43.14561840294121" lon="10.664128788762955"><ele>342.0</ele><time>2026-04-04T11:48:59.999Z</time></trkpt><trkpt lat="43.14556557637331" lon="10.664035092597345"><ele>340.0</ele><time>2026-04-04T11:49:01.999Z</time></trkpt><trkpt lat="43.145531320823174" lon="10.663955941001825"><ele>338.0</ele><time>2026-04-04T11:49:03.999Z</time></trkpt><trkpt lat="43.14549294850108" lon="10.663869812163943"><ele>336.0</ele><time>2026-04-04T11:49:04.999Z</time></trkpt><trkpt lat="43.14543888600422" lon="10.663765363839072"><ele>334.0</ele><time>2026-04-04T11:49:06.999Z</time></trkpt><trkpt lat="43.14534243771957" lon="10.66370283006377"><ele>334.0</ele><time>2026-04-04T11:49:08.999Z</time></trkpt><trkpt lat="43.14528117307069" lon="10.663653923027022"><ele>334.0</ele><time>2026-04-04T11:49:10.999Z</time></trkpt><trkpt lat="43.145179776886366" lon="10.663660858819988"><ele>334.0</ele><time>2026-04-04T11:51:08.999Z</time></trkpt><trkpt lat="43.14510969300663" lon="10.663640539930721"><ele>334.0</ele><time>2026-04-04T11:51:09.999Z</time></trkpt><trkpt lat="43.145023962537586" lon="10.663640811953773"><ele>334.0</ele><time>2026-04-04T11:51:10.999Z</time></trkpt><trkpt lat="43.14493479252266" lon="10.66363179060342"><ele>334.0</ele><time>2026-04-04T11:51:11.999Z</time></trkpt><trkpt lat="43.144867712307295" lon="10.663646073617945"><ele>330.5</ele><time>2026-04-04T11:51:12.999Z</time></trkpt><trkpt lat="43.14478915612346" lon="10.663706272783166"><ele>327.0</ele><time>2026-04-04T11:51:14.999Z</time></trkpt><trkpt lat="43.14474560966772" lon="10.66389902652147"><ele>323.5</ele><time>2026-04-04T11:51:16.999Z</time></trkpt><trkpt lat="43.144710947000014" lon="10.664042136055253"><ele>320.0</ele><time>2026-04-04T11:51:17.999Z</time></trkpt><trkpt lat="43.144677697241825" lon="10.664184538141752"><ele>320.0</ele><time>2026-04-04T11:51:18.999Z</time></trkpt><trkpt lat="43.144662377465956" lon="10.66433946856098"><ele>320.0</ele><time>2026-04-04T11:51:19.999Z</time></trkpt><trkpt lat="43.14464723948783" lon="10.664502595173934"><ele>320.0</ele><time>2026-04-04T11:51:20.999Z</time></trkpt><trkpt lat="43.14463277342469" lon="10.664654145487505"><ele>320.0</ele><time>2026-04-04T11:51:21.999Z</time></trkpt><trkpt lat="43.14461829064204" lon="10.66479130758731"><ele>320.0</ele><time>2026-04-04T11:51:22.999Z</time></trkpt><trkpt lat="43.14460448770602" lon="10.664918646064041"><ele>320.4</ele><time>2026-04-04T11:51:23.999Z</time></trkpt><trkpt lat="43.14457060420403" lon="10.665028687891798"><ele>320.8</ele><time>2026-04-04T11:51:24.999Z</time></trkpt><trkpt lat="43.144517161103465" lon="10.665123425644483"><ele>321.20000000000005</ele><time>2026-04-04T11:51:25.999Z</time></trkpt><trkpt lat="43.144449281508656" lon="10.665206304336092"><ele>321.6</ele><time>2026-04-04T11:51:26.999Z</time></trkpt><trkpt lat="43.144367230020634" lon="10.665283030040538"><ele>322.0</ele><time>2026-04-04T11:51:27.999Z</time></trkpt><trkpt lat="43.14428175584545" lon="10.665358535439804"><ele>322.16666666666663</ele><time>2026-04-04T11:51:28.999Z</time></trkpt><trkpt lat="43.14421365068524" lon="10.6654250599876"><ele>322.3333333333333</ele><time>2026-04-04T11:51:29.999Z</time></trkpt><trkpt lat="43.14415560429869" lon="10.665495353600086"><ele>322.5</ele><time>2026-04-04T11:51:30.999Z</time></trkpt><trkpt lat="43.144134369663405" lon="10.665609156446903"><ele>322.6666666666667</ele><time>2026-04-04T11:51:31.999Z</time></trkpt><trkpt lat="43.14412699066735" lon="10.66570332880595"><ele>322.83333333333337</ele><time>2026-04-04T11:51:32.999Z</time></trkpt><trkpt lat="43.14411637366095" lon="10.665863954992096"><ele>323.0</ele><time>2026-04-04T11:51:33.999Z</time></trkpt><trkpt lat="43.14409896539249" lon="10.666039961168945"><ele>322.79999999999995</ele><time>2026-04-04T11:51:34.999Z</time></trkpt><trkpt lat="43.14408419282984" lon="10.666189607348338"><ele>322.6</ele><time>2026-04-04T11:51:35.999Z</time></trkpt><trkpt lat="43.144056374782814" lon="10.666322505034508"><ele>322.4</ele><time>2026-04-04T11:51:36.999Z</time></trkpt><trkpt lat="43.144001957359066" lon="10.666437171383693"><ele>322.20000000000005</ele><time>2026-04-04T11:51:37.999Z</time></trkpt><trkpt lat="43.143924427472086" lon="10.66650897872396"><ele>322.0</ele><time>2026-04-04T11:51:38.999Z</time></trkpt><trkpt lat="43.1438441793578" lon="10.666559750267364"><ele>321.0</ele><time>2026-04-04T11:51:39.999Z</time></trkpt><trkpt lat="43.143760947100674" lon="10.666611751584487"><ele>320.0</ele><time>2026-04-04T11:51:40.999Z</time></trkpt><trkpt lat="43.143674419623906" lon="10.66665879714"><ele>319.0</ele><time>2026-04-04T11:51:41.998Z</time></trkpt><trkpt lat="43.143604484408975" lon="10.666710561073005"><ele>318.0</ele><time>2026-04-04T11:51:42.998Z</time></trkpt><trkpt lat="43.14355024431839" lon="10.666797633259213"><ele>317.0</ele><time>2026-04-04T11:51:43.998Z</time></trkpt><trkpt lat="43.143497353920054" lon="10.66691546186796"><ele>316.0</ele><time>2026-04-04T11:51:44.998Z</time></trkpt><trkpt lat="43.143467160432444" lon="10.667045917926751"><ele>316.0</ele><time>2026-04-04T11:51:45.998Z</time></trkpt><trkpt lat="43.1434446002435" lon="10.667185955253016"><ele>316.0</ele><time>2026-04-04T11:51:46.998Z</time></trkpt><trkpt lat="43.14342812456284" lon="10.667329085363729"><ele>316.0</ele><time>2026-04-04T11:51:47.998Z</time></trkpt><trkpt lat="43.14340943657337" lon="10.667476646970822"><ele>316.0</ele><time>2026-04-04T11:51:48.998Z</time></trkpt><trkpt lat="43.14338445577356" lon="10.667604640558443"><ele>316.0</ele><time>2026-04-04T11:51:49.998Z</time></trkpt><trkpt lat="43.143360859872885" lon="10.667737042477704"><ele>314.8</ele><time>2026-04-04T11:51:50.998Z</time></trkpt><trkpt lat="43.14333648272377" lon="10.667878019939076"><ele>313.6</ele><time>2026-04-04T11:51:51.998Z</time></trkpt><trkpt lat="43.143319625952095" lon="10.668009302306167"><ele>312.4</ele><time>2026-04-04T11:51:52.998Z</time></trkpt><trkpt lat="43.143283723341916" lon="10.668135122083731"><ele>311.2</ele><time>2026-04-04T11:51:53.998Z</time></trkpt><trkpt lat="43.14325586499201" lon="10.668273932010651"><ele>310.0</ele><time>2026-04-04T11:51:54.998Z</time></trkpt><trkpt lat="43.1432429200399" lon="10.668396308516506"><ele>310.0</ele><time>2026-04-04T11:51:55.998Z</time></trkpt><trkpt lat="43.14323879310967" lon="10.668501423850179"><ele>310.0</ele><time>2026-04-04T11:51:56.998Z</time></trkpt><trkpt lat="43.14322623296203" lon="10.668637883168392"><ele>310.0</ele><time>2026-04-04T11:51:58.998Z</time></trkpt><trkpt lat="43.14329058958762" lon="10.668722886218724"><ele>310.0</ele><time>2026-04-04T11:52:03.998Z</time></trkpt><trkpt lat="43.143421861769426" lon="10.6686726529536"><ele>310.0</ele><time>2026-04-04T11:52:05.998Z</time></trkpt><trkpt lat="43.14352574851814" lon="10.668734267415143"><ele>308.4</ele><time>2026-04-04T11:52:07.998Z</time></trkpt><trkpt lat="43.14362206716794" lon="10.668788227280958"><ele>306.8</ele><time>2026-04-04T11:52:10Z</time></trkpt><trkpt lat="43.14373156982666" lon="10.668868674172971"><ele>305.2</ele><time>2026-04-04T11:52:12Z</time></trkpt><trkpt lat="43.14380406027388" lon="10.668993594309805"><ele>303.6</ele><time>2026-04-04T11:52:14Z</time></trkpt><trkpt lat="43.14382739840975" lon="10.669076422650232"><ele>302.0</ele><time>2026-04-04T11:52:15Z</time></trkpt><trkpt lat="43.143903776294025" lon="10.669182080844896"><ele>302.0</ele><time>2026-04-04T11:52:17Z</time></trkpt><trkpt lat="43.14396774690521" lon="10.669288184214391"><ele>302.0</ele><time>2026-04-04T11:52:19Z</time></trkpt><trkpt lat="43.14403619514915" lon="10.669369996782523"><ele>302.0</ele><time>2026-04-04T11:52:21Z</time></trkpt><trkpt lat="43.1440564640872" lon="10.669506129727292"><ele>302.0</ele><time>2026-04-04T11:52:23Z</time></trkpt><trkpt lat="43.1440411464948" lon="10.669627433823345"><ele>302.0</ele><time>2026-04-04T11:52:25Z</time></trkpt><trkpt lat="43.1440710734995" lon="10.669746559780522"><ele>299.6666666666667</ele><time>2026-04-04T11:52:27Z</time></trkpt><trkpt lat="43.14413042202487" lon="10.669780528698947"><ele>297.33333333333337</ele><time>2026-04-04T11:52:28Z</time></trkpt><trkpt lat="43.144179429675745" lon="10.669843092831849"><ele>295.0</ele><time>2026-04-04T11:52:29Z</time></trkpt><trkpt lat="43.14423200155704" lon="10.669903178976323"><ele>292.6666666666667</ele><time>2026-04-04T11:52:30Z</time></trkpt><trkpt lat="43.14427980493048" lon="10.669992434131368"><ele>290.3333333333333</ele><time>2026-04-04T11:52:32Z</time></trkpt><trkpt lat="43.14437232220432" lon="10.67003270681578"><ele>288.0</ele><time>2026-04-04T11:52:35Z</time></trkpt><trkpt lat="43.144449631556085" lon="10.670004635178127"><ele>288.0</ele><time>2026-04-04T11:52:37Z</time></trkpt><trkpt lat="43.14455187756987" lon="10.669979520658352"><ele>288.0</ele><time>2026-04-04T11:52:39Z</time></trkpt><trkpt lat="43.14464168972227" lon="10.670059975209423"><ele>288.0</ele><time>2026-04-04T11:52:41Z</time></trkpt><trkpt lat="43.144677553061754" lon="10.670141217149554"><ele>288.0</ele><time>2026-04-04T11:52:42Z</time></trkpt><trkpt lat="43.144719518577816" lon="10.670208087966664"><ele>288.0</ele><time>2026-04-04T11:52:43Z</time></trkpt><trkpt lat="43.144767230448615" lon="10.670313300302146"><ele>288.0</ele><time>2026-04-04T11:52:45Z</time></trkpt><trkpt lat="43.144855205331034" lon="10.670404890240357"><ele>283.5</ele><time>2026-04-04T11:52:47Z</time></trkpt><trkpt lat="43.1449130524966" lon="10.670488517858114"><ele>279.0</ele><time>2026-04-04T11:52:49Z</time></trkpt><trkpt lat="43.144993951115595" lon="10.670560460370366"><ele>274.5</ele><time>2026-04-04T11:52:51Z</time></trkpt><trkpt lat="43.14509237400815" lon="10.670564264484463"><ele>270.0</ele><time>2026-04-04T11:52:53Z</time></trkpt><trkpt lat="43.14517063747194" lon="10.670545655736264"><ele>265.5</ele><time>2026-04-04T11:52:54.999Z</time></trkpt><trkpt lat="43.14523275290337" lon="10.670567069465505"><ele>261.0</ele><time>2026-04-04T11:52:57.999Z</time></trkpt><trkpt lat="43.14525099503289" lon="10.670664580870596"><ele>261.0</ele><time>2026-04-04T11:53:00.999Z</time></trkpt><trkpt lat="43.145256493992136" lon="10.670756228156366"><ele>261.0</ele><time>2026-04-04T11:53:02.999Z</time></trkpt><trkpt lat="43.14527100898606" lon="10.670885546904028"><ele>261.0</ele><time>2026-04-04T11:53:04.999Z</time></trkpt><trkpt lat="43.14527652691392" lon="10.670985753183217"><ele>261.0</ele><time>2026-04-04T11:53:06.999Z</time></trkpt><trkpt lat="43.145353027641086" lon="10.671040846601631"><ele>261.0</ele><time>2026-04-04T11:53:09.999Z</time></trkpt><trkpt lat="43.14542574015243" lon="10.671157496422648"><ele>261.0</ele><time>2026-04-04T11:53:11.999Z</time></trkpt><trkpt lat="43.14546313031462" lon="10.671230925743451"><ele>260.1666666666667</ele><time>2026-04-04T11:53:12.999Z</time></trkpt><trkpt lat="43.14555357121139" lon="10.671354342999415"><ele>259.3333333333333</ele><time>2026-04-04T11:53:14.999Z</time></trkpt><trkpt lat="43.14560782627764" lon="10.67140492028621"><ele>258.5</ele><time>2026-04-04T11:53:15.999Z</time></trkpt><trkpt lat="43.14566906994055" lon="10.671449599291428"><ele>257.66666666666663</ele><time>2026-04-04T11:53:16.999Z</time></trkpt><trkpt lat="43.14574815767156" lon="10.671515625538492"><ele>256.8333333333333</ele><time>2026-04-04T11:53:17.999Z</time></trkpt><trkpt lat="43.145817065676056" lon="10.671562386199746"><ele>256.0</ele><time>2026-04-04T11:53:18.999Z</time></trkpt><trkpt lat="43.145913227811526" lon="10.671567865246027"><ele>254.4</ele><time>2026-04-04T11:53:20.999Z</time></trkpt><trkpt lat="43.14598943481909" lon="10.67155676813139"><ele>252.8</ele><time>2026-04-04T11:53:21.999Z</time></trkpt><trkpt lat="43.14607338863319" lon="10.671513902288384"><ele>251.20000000000002</ele><time>2026-04-04T11:53:22.999Z</time></trkpt><trkpt lat="43.14615986449472" lon="10.671503311665495"><ele>249.60000000000002</ele><time>2026-04-04T11:53:23.999Z</time></trkpt><trkpt lat="43.14626204402608" lon="10.671504172912561"><ele>248.0</ele><time>2026-04-04T11:53:24.999Z</time></trkpt><trkpt lat="43.146369469929866" lon="10.671442684124242"><ele>248.0</ele><time>2026-04-04T11:53:26.999Z</time></trkpt><trkpt lat="43.14639871875449" lon="10.671287737819883"><ele>248.0</ele><time>2026-04-04T11:53:28.999Z</time></trkpt><trkpt lat="43.1464553231995" lon="10.67115894580041"><ele>248.0</ele><time>2026-04-04T11:53:30.999Z</time></trkpt><trkpt lat="43.14651379912879" lon="10.671124684131676"><ele>248.0</ele><time>2026-04-04T11:53:31.999Z</time></trkpt><trkpt lat="43.1465867644315" lon="10.671180870626227"><ele>248.0</ele><time>2026-04-04T11:53:33.999Z</time></trkpt><trkpt lat="43.14665294427786" lon="10.671247669598705"><ele>248.0</ele><time>2026-04-04T11:53:35.999Z</time></trkpt><trkpt lat="43.146726220387784" lon="10.671299303351018"><ele>248.0</ele><time>2026-04-04T11:53:37.999Z</time></trkpt><trkpt lat="43.14670359324274" lon="10.671385413648807"><ele>248.0</ele><time>2026-04-04T11:53:39.999Z</time></trkpt><trkpt lat="43.14663348971245" lon="10.671531411897345"><ele>248.0</ele><time>2026-04-04T11:53:41.999Z</time></trkpt><trkpt lat="43.14659531931443" lon="10.671656859090414"><ele>248.0</ele><time>2026-04-04T11:53:43.999Z</time></trkpt><trkpt lat="43.1465346503681" lon="10.67179837405849"><ele>246.8</ele><time>2026-04-04T11:53:45.999Z</time></trkpt><trkpt lat="43.146463084139434" lon="10.671982698253114"><ele>245.60000000000002</ele><time>2026-04-04T11:53:47.999Z</time></trkpt><trkpt lat="43.146459056286" lon="10.672134395281594"><ele>244.39999999999998</ele><time>2026-04-04T11:53:49.999Z</time></trkpt><trkpt lat="43.14647949766979" lon="10.672232288041634"><ele>243.2</ele><time>2026-04-04T11:53:50.999Z</time></trkpt><trkpt lat="43.14649452484654" lon="10.672327395350289"><ele>242.0</ele><time>2026-04-04T11:53:51.999Z</time></trkpt><trkpt lat="43.146478215571186" lon="10.672464422879365"><ele>242.0</ele><time>2026-04-04T11:53:53.998Z</time></trkpt><trkpt lat="43.14641850292174" lon="10.672609694870562"><ele>242.0</ele><time>2026-04-04T11:53:55.998Z</time></trkpt><trkpt lat="43.14642444706136" lon="10.672770796021567"><ele>242.0</ele><time>2026-04-04T11:53:57.998Z</time></trkpt><trkpt lat="43.14645270341023" lon="10.672911498555967"><ele>242.0</ele><time>2026-04-04T11:53:59.998Z</time></trkpt><trkpt lat="43.14645090751533" lon="10.67304356988968"><ele>242.0</ele><time>2026-04-04T11:55:16.999Z</time></trkpt><trkpt lat="43.146455038776274" lon="10.67313991691837"><ele>242.0</ele><time>2026-04-04T11:55:17.999Z</time></trkpt><trkpt lat="43.14646517710668" lon="10.673267533978363"><ele>241.99999999999997</ele><time>2026-04-04T11:55:18.999Z</time></trkpt><trkpt lat="43.14647434081503" lon="10.673375073145765"><ele>242.0</ele><time>2026-04-04T11:55:19.999Z</time></trkpt><trkpt lat="43.1464775061334" lon="10.673473581125137"><ele>242.0</ele><time>2026-04-04T11:55:20.999Z</time></trkpt><trkpt lat="43.14647503790938" lon="10.673561365774988"><ele>241.99999999999997</ele><time>2026-04-04T11:55:21.999Z</time></trkpt><trkpt lat="43.1464818700901" lon="10.673654831531813"><ele>242.0</ele><time>2026-04-04T11:55:22.999Z</time></trkpt><trkpt lat="43.14648640967408" lon="10.67374213228039"><ele>242.0</ele><time>2026-04-04T11:55:23.999Z</time></trkpt><trkpt lat="43.14649036079984" lon="10.673837150534435"><ele>241.0</ele><time>2026-04-04T11:55:24.999Z</time></trkpt><trkpt lat="43.14649695858075" lon="10.673987192961809"><ele>240.0</ele><time>2026-04-04T11:55:26.999Z</time></trkpt><trkpt lat="43.14648435951771" lon="10.674130828126396"><ele>239.0</ele><time>2026-04-04T11:55:28.999Z</time></trkpt><trkpt lat="43.14648795717962" lon="10.67425126568508"><ele>238.0</ele><time>2026-04-04T11:55:30.999Z</time></trkpt><trkpt lat="43.1464818674153" lon="10.67433905525911"><ele>237.0</ele><time>2026-04-04T11:55:31.999Z</time></trkpt><trkpt lat="43.146487569290564" lon="10.674511362571845"><ele>235.6</ele><time>2026-04-04T11:55:33.999Z</time></trkpt><trkpt lat="43.146516391453936" lon="10.674589810840645"><ele>234.2</ele><time>2026-04-04T11:55:34.999Z</time></trkpt><trkpt lat="43.146572216013894" lon="10.674727615499075"><ele>232.8</ele><time>2026-04-04T11:55:36.999Z</time></trkpt><trkpt lat="43.14660594991923" lon="10.674821710394319"><ele>231.4</ele><time>2026-04-04T11:55:37.999Z</time></trkpt><trkpt lat="43.14664445542636" lon="10.674995573487639"><ele>230.0</ele><time>2026-04-04T11:55:39.999Z</time></trkpt><trkpt lat="43.14663354513518" lon="10.675092496089114"><ele>231.50000000000003</ele><time>2026-04-04T11:55:40.999Z</time></trkpt><trkpt lat="43.14661532656038" lon="10.675195290661568"><ele>233.0</ele><time>2026-04-04T11:55:41.999Z</time></trkpt><trkpt lat="43.14660156669375" lon="10.67529387405281"><ele>234.5</ele><time>2026-04-04T11:55:42.999Z</time></trkpt><trkpt lat="43.1466039669911" lon="10.675425082484274"><ele>236.0</ele><time>2026-04-04T11:55:43.999Z</time></trkpt><trkpt lat="43.14660448536009" lon="10.67553988157294"><ele>237.50000000000003</ele><time>2026-04-04T11:55:44.999Z</time></trkpt><trkpt lat="43.14661008072315" lon="10.675643771406728"><ele>239.0</ele><time>2026-04-04T11:55:45.999Z</time></trkpt><trkpt lat="43.146636090425304" lon="10.6757450107231"><ele>239.00000000000003</ele><time>2026-04-04T11:55:46.999Z</time></trkpt><trkpt lat="43.146672560872034" lon="10.675826782928638"><ele>239.0</ele><time>2026-04-04T11:55:47.999Z</time></trkpt><trkpt lat="43.14673006006959" lon="10.675878155850551"><ele>239.0</ele><time>2026-04-04T11:55:48.999Z</time></trkpt><trkpt lat="43.14679399458532" lon="10.675930184528745"><ele>239.0</ele><time>2026-04-04T11:55:49.999Z</time></trkpt><trkpt lat="43.14686664646613" lon="10.675953652218825"><ele>239.00000000000003</ele><time>2026-04-04T11:55:50.999Z</time></trkpt><trkpt lat="43.14693597054328" lon="10.675969255245723"><ele>239.0</ele><time>2026-04-04T11:55:51.999Z</time></trkpt><trkpt lat="43.14704522410166" lon="10.676070410377527"><ele>238.2</ele><time>2026-04-04T11:55:53.999Z</time></trkpt><trkpt lat="43.14703083675322" lon="10.676172942473475"><ele>237.39999999999998</ele><time>2026-04-04T11:55:55.999Z</time></trkpt><trkpt lat="43.147011222006135" lon="10.676337584345907"><ele>236.6</ele><time>2026-04-04T11:55:57.998Z</time></trkpt><trkpt lat="43.14700934742668" lon="10.676466200326013"><ele>235.8</ele><time>2026-04-04T11:55:58.998Z</time></trkpt><trkpt lat="43.14701850426502" lon="10.676582490073294"><ele>235.0</ele><time>2026-04-04T11:55:59.998Z</time></trkpt><trkpt lat="43.147021349539436" lon="10.676716738431923"><ele>235.0</ele><time>2026-04-04T11:56:00.998Z</time></trkpt><trkpt lat="43.14701593220188" lon="10.676869982206814"><ele>235.0</ele><time>2026-04-04T11:56:01.998Z</time></trkpt><trkpt lat="43.147015846143326" lon="10.677024473528084"><ele>235.0</ele><time>2026-04-04T11:56:02.998Z</time></trkpt><trkpt lat="43.14700731261793" lon="10.677168343263924"><ele>235.0</ele><time>2026-04-04T11:56:03.998Z</time></trkpt><trkpt lat="43.14700035757879" lon="10.677301775537433"><ele>235.0</ele><time>2026-04-04T11:56:04.998Z</time></trkpt><trkpt lat="43.14698416866584" lon="10.677450222800593"><ele>234.6</ele><time>2026-04-04T11:56:05.998Z</time></trkpt><trkpt lat="43.146970448396154" lon="10.677594741006041"><ele>234.2</ele><time>2026-04-04T11:56:06.998Z</time></trkpt><trkpt lat="43.146960452630516" lon="10.67771747880258"><ele>233.8</ele><time>2026-04-04T11:56:07.998Z</time></trkpt><trkpt lat="43.1469528314383" lon="10.677828439551721"><ele>233.4</ele><time>2026-04-04T11:56:08.998Z</time></trkpt><trkpt lat="43.14694793489372" lon="10.677957368997072"><ele>233.0</ele><time>2026-04-04T11:56:09.998Z</time></trkpt><trkpt lat="43.14693952208799" lon="10.678071158559575"><ele>232.66666666666669</ele><time>2026-04-04T11:56:10.998Z</time></trkpt><trkpt lat="43.14695197545027" lon="10.678192175650489"><ele>232.33333333333334</ele><time>2026-04-04T11:56:11.998Z</time></trkpt><trkpt lat="43.14697592170231" lon="10.678304710580301"><ele>232.0</ele><time>2026-04-04T11:56:12.998Z</time></trkpt><trkpt lat="43.14698619996997" lon="10.67842488689092"><ele>231.66666666666669</ele><time>2026-04-04T11:56:13.998Z</time></trkpt><trkpt lat="43.14700099944457" lon="10.678536230551138"><ele>231.33333333333334</ele><time>2026-04-04T11:56:14.998Z</time></trkpt><trkpt lat="43.147023106008525" lon="10.678638435580288"><ele>231.0</ele><time>2026-04-04T11:56:15.998Z</time></trkpt><trkpt lat="43.14707235551753" lon="10.678757595390762"><ele>230.60000000000002</ele><time>2026-04-04T11:56:16.998Z</time></trkpt><trkpt lat="43.147152555616735" lon="10.678836360704919"><ele>230.20000000000002</ele><time>2026-04-04T11:56:17.998Z</time></trkpt><trkpt lat="43.147232061232614" lon="10.67884837112053"><ele>229.79999999999998</ele><time>2026-04-04T11:56:18.998Z</time></trkpt><trkpt lat="43.14731097279259" lon="10.678818474731129"><ele>229.39999999999998</ele><time>2026-04-04T11:56:19.998Z</time></trkpt><trkpt lat="43.147426658635645" lon="10.678781215008033"><ele>229.0</ele><time>2026-04-04T11:56:21Z</time></trkpt><trkpt lat="43.147569675943735" lon="10.67875326822466"><ele>229.0</ele><time>2026-04-04T11:56:22Z</time></trkpt><trkpt lat="43.14769863062692" lon="10.678737652484152"><ele>228.99999999999997</ele><time>2026-04-04T11:56:23Z</time></trkpt><trkpt lat="43.14781526285683" lon="10.678744569381301"><ele>228.99999999999997</ele><time>2026-04-04T11:56:24Z</time></trkpt><trkpt lat="43.14792059369889" lon="10.678768129078085"><ele>229.0</ele><time>2026-04-04T11:56:25Z</time></trkpt><trkpt lat="43.14800373125642" lon="10.678810524445378"><ele>229.0</ele><time>2026-04-04T11:56:26Z</time></trkpt><trkpt lat="43.14808587937516" lon="10.678882819427374"><ele>229.0</ele><time>2026-04-04T11:56:27Z</time></trkpt><trkpt lat="43.148166988166274" lon="10.678958597655505"><ele>228.99999999999997</ele><time>2026-04-04T11:56:28Z</time></trkpt><trkpt lat="43.148242172217" lon="10.679050487606046"><ele>228.99999999999997</ele><time>2026-04-04T11:56:29Z</time></trkpt><trkpt lat="43.14830277570225" lon="10.679120055361246"><ele>229.0</ele><time>2026-04-04T11:56:30Z</time></trkpt><trkpt lat="43.14837069671644" lon="10.679221234307562"><ele>229.0</ele><time>2026-04-04T11:56:32Z</time></trkpt><trkpt lat="43.14834551155663" lon="10.67932400318931"><ele>231.0</ele><time>2026-04-04T11:56:34Z</time></trkpt><trkpt lat="43.14829178452202" lon="10.67949924227954"><ele>233.0</ele><time>2026-04-04T11:56:36Z</time></trkpt><trkpt lat="43.14826881014138" lon="10.679669391181733"><ele>235.0</ele><time>2026-04-04T11:56:37Z</time></trkpt><trkpt lat="43.14823193113141" lon="10.679862713560091"><ele>237.0</ele><time>2026-04-04T11:56:38Z</time></trkpt><trkpt lat="43.148191392467474" lon="10.680047672966875"><ele>231.66666666666669</ele><time>2026-04-04T11:56:39Z</time></trkpt><trkpt lat="43.14814489652925" lon="10.680242940528734"><ele>226.33333333333334</ele><time>2026-04-04T11:56:40Z</time></trkpt><trkpt lat="43.14809665026167" lon="10.680458043742128"><ele>221.0</ele><time>2026-04-04T11:56:41Z</time></trkpt><trkpt lat="43.14805561389665" lon="10.680645502150231"><ele>220.20000000000002</ele><time>2026-04-04T11:56:42Z</time></trkpt><trkpt lat="43.14802216950754" lon="10.680796741204906"><ele>219.40000000000003</ele><time>2026-04-04T11:56:43Z</time></trkpt><trkpt lat="43.14799389405772" lon="10.680934887602186"><ele>218.6</ele><time>2026-04-04T11:56:44Z</time></trkpt><trkpt lat="43.147982290517255" lon="10.681053218915908"><ele>217.8</ele><time>2026-04-04T11:56:45Z</time></trkpt><trkpt lat="43.14798468646644" lon="10.681164847637044"><ele>217.0</ele><time>2026-04-04T11:56:46Z</time></trkpt><trkpt lat="43.147997209495706" lon="10.68126512610804"><ele>215.6</ele><time>2026-04-04T11:56:47Z</time></trkpt><trkpt lat="43.14803354858294" lon="10.681377873948719"><ele>214.2</ele><time>2026-04-04T11:56:48Z</time></trkpt><trkpt lat="43.14807636215645" lon="10.681474589062752"><ele>212.8</ele><time>2026-04-04T11:56:49Z</time></trkpt><trkpt lat="43.148130224111156" lon="10.681595371489605"><ele>211.4</ele><time>2026-04-04T11:56:50Z</time></trkpt><trkpt lat="43.14818903732394" lon="10.681743438710626"><ele>210.0</ele><time>2026-04-04T11:56:51Z</time></trkpt><trkpt lat="43.14823584024691" lon="10.681866644538275"><ele>213.4</ele><time>2026-04-04T11:56:52Z</time></trkpt><trkpt lat="43.14827750085098" lon="10.681965262760428"><ele>216.8</ele><time>2026-04-04T11:56:53Z</time></trkpt><trkpt lat="43.1483297402228" lon="10.682065942326936"><ele>220.2</ele><time>2026-04-04T11:56:54Z</time></trkpt><trkpt lat="43.14843314924056" lon="10.682105651661761"><ele>223.6</ele><time>2026-04-04T11:56:56Z</time></trkpt><trkpt lat="43.14850448498224" lon="10.682090877823176"><ele>227.0</ele><time>2026-04-04T11:56:57Z</time></trkpt><trkpt lat="43.1486044696835" lon="10.682075268274346"><ele>227.0</ele><time>2026-04-04T11:56:58Z</time></trkpt><trkpt lat="43.14872125818367" lon="10.682058081448321"><ele>227.0</ele><time>2026-04-04T11:56:59Z</time></trkpt><trkpt lat="43.14882400374856" lon="10.682049540645117"><ele>227.0</ele><time>2026-04-04T11:57:00Z</time></trkpt><trkpt lat="43.14890009242398" lon="10.682131867480235"><ele>227.0</ele><time>2026-04-04T11:57:02Z</time></trkpt><trkpt lat="43.148860314866965" lon="10.6822962744744"><ele>227.0</ele><time>2026-04-04T11:57:03.999Z</time></trkpt><trkpt lat="43.14881540833084" lon="10.682403091216134"><ele>227.0</ele><time>2026-04-04T11:57:04.999Z</time></trkpt><trkpt lat="43.148752282500574" lon="10.682552496673589"><ele>227.0</ele><time>2026-04-04T11:57:05.999Z</time></trkpt><trkpt lat="43.148711944509344" lon="10.682680882196506"><ele>227.0</ele><time>2026-04-04T11:57:06.999Z</time></trkpt><trkpt lat="43.148684964847405" lon="10.682808507892583"><ele>227.0</ele><time>2026-04-04T11:57:07.999Z</time></trkpt><trkpt lat="43.14868013396132" lon="10.682918935649221"><ele>227.0</ele><time>2026-04-04T11:57:08.999Z</time></trkpt><trkpt lat="43.148710008559085" lon="10.683048744507753"><ele>227.0</ele><time>2026-04-04T11:57:09.999Z</time></trkpt><trkpt lat="43.14871661934088" lon="10.683204353165202"><ele>227.0</ele><time>2026-04-04T11:57:10.999Z</time></trkpt><trkpt lat="43.1487266421258" lon="10.683372500004996"><ele>227.0</ele><time>2026-04-04T11:57:11.999Z</time></trkpt><trkpt lat="43.14870698285134" lon="10.683494851694016"><ele>227.0</ele><time>2026-04-04T11:57:12.999Z</time></trkpt><trkpt lat="43.14866366288861" lon="10.683604907392136"><ele>227.0</ele><time>2026-04-04T11:57:13.999Z</time></trkpt><trkpt lat="43.14859185907521" lon="10.683729588148896"><ele>227.0</ele><time>2026-04-04T11:57:14.999Z</time></trkpt><trkpt lat="43.14853752927464" lon="10.68388342987151"><ele>227.0</ele><time>2026-04-04T11:57:15.999Z</time></trkpt><trkpt lat="43.148496353710094" lon="10.684012383380933"><ele>227.0</ele><time>2026-04-04T11:57:16.999Z</time></trkpt><trkpt lat="43.148471945580525" lon="10.684160577642995"><ele>227.0</ele><time>2026-04-04T11:57:17.999Z</time></trkpt><trkpt lat="43.148455691552655" lon="10.684298614336551"><ele>227.0</ele><time>2026-04-04T11:57:18.999Z</time></trkpt><trkpt lat="43.14842611632793" lon="10.684470515674816"><ele>228.25</ele><time>2026-04-04T11:57:19.999Z</time></trkpt><trkpt lat="43.148396673159006" lon="10.68463876599314"><ele>229.5</ele><time>2026-04-04T11:57:20.999Z</time></trkpt><trkpt lat="43.14836388730891" lon="10.6847850095452"><ele>230.75</ele><time>2026-04-04T11:57:21.999Z</time></trkpt><trkpt lat="43.14831233734303" lon="10.684938374369226"><ele>232.0</ele><time>2026-04-04T11:57:22.999Z</time></trkpt><trkpt lat="43.14825229324311" lon="10.685094539772413"><ele>231.2</ele><time>2026-04-04T11:57:23.999Z</time></trkpt><trkpt lat="43.148209060068574" lon="10.685245212436586"><ele>230.39999999999998</ele><time>2026-04-04T11:57:24.999Z</time></trkpt><trkpt lat="43.1481865463102" lon="10.685347156765664"><ele>229.60000000000002</ele><time>2026-04-04T11:57:25.999Z</time></trkpt><trkpt lat="43.148184188518265" lon="10.685454909761548"><ele>228.8</ele><time>2026-04-04T11:57:26.999Z</time></trkpt><trkpt lat="43.14822635454738" lon="10.685576097890847"><ele>228.0</ele><time>2026-04-04T11:57:27.999Z</time></trkpt><trkpt lat="43.14829702687788" lon="10.685696438825735"><ele>228.0</ele><time>2026-04-04T11:57:28.999Z</time></trkpt><trkpt lat="43.148388388350355" lon="10.685790413990937"><ele>228.0</ele><time>2026-04-04T11:57:29.999Z</time></trkpt><trkpt lat="43.14850551595574" lon="10.685860806946222"><ele>228.0</ele><time>2026-04-04T11:57:30.999Z</time></trkpt><trkpt lat="43.14862599007261" lon="10.685917707522615"><ele>228.0</ele><time>2026-04-04T11:57:31.999Z</time></trkpt><trkpt lat="43.148754015413985" lon="10.685958158056465"><ele>228.0</ele><time>2026-04-04T11:57:32.999Z</time></trkpt><trkpt lat="43.14886402825552" lon="10.685983122632637"><ele>228.0</ele><time>2026-04-04T11:57:33.999Z</time></trkpt><trkpt lat="43.1489387584151" lon="10.68599079194246"><ele>228.0</ele><time>2026-04-04T11:57:34.999Z</time></trkpt><trkpt lat="43.14900034119477" lon="10.686020366739848"><ele>228.0</ele><time>2026-04-04T11:57:36.999Z</time></trkpt><trkpt lat="43.148923068027514" lon="10.686290531876558"><ele>226.2</ele><time>2026-04-04T12:01:54.999Z</time></trkpt><trkpt lat="43.148903797928824" lon="10.686436101850695"><ele>224.4</ele><time>2026-04-04T12:01:55.999Z</time></trkpt><trkpt lat="43.1488791911831" lon="10.686529644969099"><ele>222.59999999999997</ele><time>2026-04-04T12:01:56.999Z</time></trkpt><trkpt lat="43.14883220877868" lon="10.686602484780083"><ele>220.79999999999998</ele><time>2026-04-04T12:01:57.999Z</time></trkpt><trkpt lat="43.14875842885832" lon="10.686670679242726"><ele>219.0</ele><time>2026-04-04T12:01:58.999Z</time></trkpt><trkpt lat="43.14868433203361" lon="10.68679027755856"><ele>218.79999999999998</ele><time>2026-04-04T12:01:59.999Z</time></trkpt><trkpt lat="43.14864836258414" lon="10.686930266231908"><ele>218.59999999999997</ele><time>2026-04-04T12:02:00.999Z</time></trkpt><trkpt lat="43.14857888276732" lon="10.687054475939812"><ele>218.4</ele><time>2026-04-04T12:02:01.999Z</time></trkpt><trkpt lat="43.14850062181237" lon="10.687167648565943"><ele>218.2</ele><time>2026-04-04T12:02:02.999Z</time></trkpt><trkpt lat="43.148428965978155" lon="10.687268903826222"><ele>218.0</ele><time>2026-04-04T12:02:03.999Z</time></trkpt><trkpt lat="43.14836987446608" lon="10.687384760441871"><ele>218.0</ele><time>2026-04-04T12:02:04.998Z</time></trkpt><trkpt lat="43.148375105410764" lon="10.687509934780145"><ele>218.0</ele><time>2026-04-04T12:02:05.998Z</time></trkpt><trkpt lat="43.14834801179417" lon="10.687632394294974"><ele>218.0</ele><time>2026-04-04T12:02:06.998Z</time></trkpt><trkpt lat="43.148306677517766" lon="10.6877472303462"><ele>218.0</ele><time>2026-04-04T12:02:07.998Z</time></trkpt><trkpt lat="43.148247578092196" lon="10.687857141573087"><ele>218.0</ele><time>2026-04-04T12:02:08.998Z</time></trkpt><trkpt lat="43.14819076795245" lon="10.687954910772156"><ele>216.8</ele><time>2026-04-04T12:02:09.998Z</time></trkpt><trkpt lat="43.148160768112405" lon="10.688044565757036"><ele>215.60000000000002</ele><time>2026-04-04T12:02:10.998Z</time></trkpt><trkpt lat="43.14810986285406" lon="10.688159065189813"><ele>214.39999999999998</ele><time>2026-04-04T12:02:12.998Z</time></trkpt><trkpt lat="43.14800992811525" lon="10.68823194747206"><ele>213.2</ele><time>2026-04-04T12:02:14.998Z</time></trkpt><trkpt lat="43.14792699053628" lon="10.688301630195808"><ele>212.0</ele><time>2026-04-04T12:02:15.998Z</time></trkpt><trkpt lat="43.14784358500451" lon="10.688386833418479"><ele>212.0</ele><time>2026-04-04T12:02:16.998Z</time></trkpt><trkpt lat="43.1477431671323" lon="10.688463368590515"><ele>212.0</ele><time>2026-04-04T12:02:17.998Z</time></trkpt><trkpt lat="43.14766604343253" lon="10.68855000053204"><ele>212.0</ele><time>2026-04-04T12:02:18.998Z</time></trkpt><trkpt lat="43.147598105885834" lon="10.688599971415426"><ele>212.0</ele><time>2026-04-04T12:02:19.998Z</time></trkpt><trkpt lat="43.14752063895186" lon="10.688654933912336"><ele>212.0</ele><time>2026-04-04T12:02:20.998Z</time></trkpt><trkpt lat="43.147449178724735" lon="10.688698012642158"><ele>211.33333333333334</ele><time>2026-04-04T12:02:21.998Z</time></trkpt><trkpt lat="43.147376441260974" lon="10.68875138901987"><ele>210.66666666666669</ele><time>2026-04-04T12:02:22.998Z</time></trkpt><trkpt lat="43.14729642131368" lon="10.688794092862004"><ele>210.0</ele><time>2026-04-04T12:02:25.998Z</time></trkpt><trkpt lat="43.147231480665425" lon="10.688831523844739"><ele>209.33333333333331</ele><time>2026-04-04T12:02:26.998Z</time></trkpt><trkpt lat="43.147152202221626" lon="10.688834874918399"><ele>208.66666666666666</ele><time>2026-04-04T12:02:27.998Z</time></trkpt><trkpt lat="43.14708536776961" lon="10.688922322431418"><ele>208.0</ele><time>2026-04-04T12:02:29.998Z</time></trkpt><trkpt lat="43.14703755928875" lon="10.689041509704307"><ele>207.99999999999997</ele><time>2026-04-04T12:02:31.998Z</time></trkpt><trkpt lat="43.14700882379726" lon="10.689123238818919"><ele>208.0</ele><time>2026-04-04T12:02:32.998Z</time></trkpt><trkpt lat="43.14697380412497" lon="10.689260246903121"><ele>208.0</ele><time>2026-04-04T12:02:34.998Z</time></trkpt><trkpt lat="43.14694549739044" lon="10.68934010000868"><ele>208.0</ele><time>2026-04-04T12:02:35.998Z</time></trkpt><trkpt lat="43.14691198739218" lon="10.689454587529887"><ele>207.99999999999997</ele><time>2026-04-04T12:02:37.998Z</time></trkpt><trkpt lat="43.146873305598845" lon="10.689554264427365"><ele>208.0</ele><time>2026-04-04T12:02:39Z</time></trkpt><trkpt lat="43.14680018875909" lon="10.689640411714699"><ele>206.8</ele><time>2026-04-04T12:02:40Z</time></trkpt><trkpt lat="43.1467352792522" lon="10.68970893397566"><ele>205.60000000000002</ele><time>2026-04-04T12:02:41Z</time></trkpt><trkpt lat="43.146676772996116" lon="10.689794067994308"><ele>204.39999999999998</ele><time>2026-04-04T12:02:42Z</time></trkpt><trkpt lat="43.14663425149565" lon="10.689858973874921"><ele>203.2</ele><time>2026-04-04T12:02:43Z</time></trkpt><trkpt lat="43.14658507832145" lon="10.689984333893367"><ele>202.0</ele><time>2026-04-04T12:02:45Z</time></trkpt><trkpt lat="43.14660166515083" lon="10.690171084470181"><ele>202.49999999999997</ele><time>2026-04-04T12:02:47Z</time></trkpt><trkpt lat="43.14660694306473" lon="10.690302105313064"><ele>203.0</ele><time>2026-04-04T12:02:48Z</time></trkpt><trkpt lat="43.146609890085166" lon="10.690416915233726"><ele>203.5</ele><time>2026-04-04T12:02:49Z</time></trkpt><trkpt lat="43.14661728455244" lon="10.690518311321215"><ele>204.0</ele><time>2026-04-04T12:02:50Z</time></trkpt><trkpt lat="43.146615101723874" lon="10.690658171537757"><ele>204.49999999999997</ele><time>2026-04-04T12:02:52Z</time></trkpt><trkpt lat="43.14660947529177" lon="10.690780429058533"><ele>205.0</ele><time>2026-04-04T12:02:54Z</time></trkpt><trkpt lat="43.1466099507195" lon="10.690930139942424"><ele>204.99999999999997</ele><time>2026-04-04T12:02:56Z</time></trkpt><trkpt lat="43.146636625690896" lon="10.691037577040271"><ele>205.0</ele><time>2026-04-04T12:02:58Z</time></trkpt><trkpt lat="43.146691073195946" lon="10.691159081380173"><ele>205.0</ele><time>2026-04-04T12:03:00Z</time></trkpt><trkpt lat="43.146755155631745" lon="10.691227479469987"><ele>205.0</ele><time>2026-04-04T12:03:02Z</time></trkpt><trkpt lat="43.14679084237524" lon="10.691323808848777"><ele>204.99999999999997</ele><time>2026-04-04T12:03:04Z</time></trkpt><trkpt lat="43.14673144025012" lon="10.69142541005788"><ele>205.0</ele><time>2026-04-04T12:03:07Z</time></trkpt><trkpt lat="43.146669262807485" lon="10.691559676664065"><ele>205.33333333333331</ele><time>2026-04-04T12:03:09Z</time></trkpt><trkpt lat="43.14667150404226" lon="10.69168346983382"><ele>205.66666666666666</ele><time>2026-04-04T12:03:11Z</time></trkpt><trkpt lat="43.14664011061272" lon="10.691768674461821"><ele>206.0</ele><time>2026-04-04T12:03:13Z</time></trkpt><trkpt lat="43.1465884745027" lon="10.69189896054665"><ele>206.33333333333331</ele><time>2026-04-04T12:03:15Z</time></trkpt><trkpt lat="43.146551394548396" lon="10.691969887108911"><ele>206.66666666666666</ele><time>2026-04-04T12:03:17Z</time></trkpt><trkpt lat="43.14652183675155" lon="10.692051823178018"><ele>207.0</ele><time>2026-04-04T12:03:19Z</time></trkpt><trkpt lat="43.146478867637576" lon="10.692146193061065"><ele>209.0</ele><time>2026-04-04T12:03:20.999Z</time></trkpt><trkpt lat="43.14642142337123" lon="10.692282077041328"><ele>211.0</ele><time>2026-04-04T12:03:22.999Z</time></trkpt><trkpt lat="43.14637610783488" lon="10.692353704888903"><ele>213.0</ele><time>2026-04-04T12:03:23.999Z</time></trkpt><trkpt lat="43.146301159626645" lon="10.69243342702051"><ele>215.0</ele><time>2026-04-04T12:03:25.999Z</time></trkpt><trkpt lat="43.1461909187954" lon="10.692521764781416"><ele>217.0</ele><time>2026-04-04T12:03:27.999Z</time></trkpt><trkpt lat="43.146131790858924" lon="10.692564363472796"><ele>217.0</ele><time>2026-04-04T12:03:28.999Z</time></trkpt><trkpt lat="43.14603610142057" lon="10.692596863322933"><ele>217.0</ele><time>2026-04-04T12:03:30.999Z</time></trkpt><trkpt lat="43.145952327074035" lon="10.692661351629095"><ele>217.0</ele><time>2026-04-04T12:03:32.999Z</time></trkpt><trkpt lat="43.145900199811024" lon="10.692793693241764"><ele>217.0</ele><time>2026-04-04T12:03:34.999Z</time></trkpt><trkpt lat="43.14583621092015" lon="10.692943249338455"><ele>217.0</ele><time>2026-04-04T12:03:37.999Z</time></trkpt><trkpt lat="43.145758601555386" lon="10.692989635115024"><ele>216.99999999999997</ele><time>2026-04-04T12:03:39.999Z</time></trkpt><trkpt lat="43.14569173068354" lon="10.692963134017154"><ele>217.0</ele><time>2026-04-04T12:03:41.999Z</time></trkpt><trkpt lat="43.14559569934122" lon="10.692965881447872"><ele>217.0</ele><time>2026-04-04T12:03:43.999Z</time></trkpt><trkpt lat="43.14551334827351" lon="10.69300414611372"><ele>217.0</ele><time>2026-04-04T12:03:45.999Z</time></trkpt><trkpt lat="43.1454398123498" lon="10.693061248934255"><ele>216.99999999999997</ele><time>2026-04-04T12:03:47.999Z</time></trkpt><trkpt lat="43.145376697715115" lon="10.69309684274444"><ele>217.0</ele><time>2026-04-04T12:03:49.999Z</time></trkpt><trkpt lat="43.14531526284856" lon="10.693168329002813"><ele>217.0</ele><time>2026-04-04T12:03:52.999Z</time></trkpt><trkpt lat="43.145259422385784" lon="10.693250548858483"><ele>217.0</ele><time>2026-04-04T12:03:53.999Z</time></trkpt><trkpt lat="43.14519114101332" lon="10.693342668858893"><ele>217.0</ele><time>2026-04-04T12:03:55.999Z</time></trkpt><trkpt lat="43.14511897933465" lon="10.693375505018869"><ele>217.0</ele><time>2026-04-04T12:03:56.999Z</time></trkpt><trkpt lat="43.145025181023115" lon="10.693420207280536"><ele>217.0</ele><time>2026-04-04T12:03:57.999Z</time></trkpt><trkpt lat="43.144940824508296" lon="10.693484714676643"><ele>217.16666666666666</ele><time>2026-04-04T12:03:59.999Z</time></trkpt><trkpt lat="43.144874646450205" lon="10.69346516115293"><ele>217.33333333333331</ele><time>2026-04-04T12:04:00.999Z</time></trkpt><trkpt lat="43.14479002136156" lon="10.693467340061172"><ele>217.5</ele><time>2026-04-04T12:04:01.999Z</time></trkpt><trkpt lat="43.14468466529195" lon="10.693525514517788"><ele>217.66666666666669</ele><time>2026-04-04T12:04:03.999Z</time></trkpt><trkpt lat="43.144614106908335" lon="10.693576229320001"><ele>217.83333333333334</ele><time>2026-04-04T12:04:04.999Z</time></trkpt><trkpt lat="43.144533927463215" lon="10.693637556799745"><ele>218.0</ele><time>2026-04-04T12:04:05.999Z</time></trkpt><trkpt lat="43.14446411337806" lon="10.693648978479613"><ele>218.00000000000003</ele><time>2026-04-04T12:04:06.999Z</time></trkpt><trkpt lat="43.14437930217138" lon="10.693662578893555"><ele>218.0</ele><time>2026-04-04T12:04:07.999Z</time></trkpt><trkpt lat="43.144304397593324" lon="10.69365051651012"><ele>218.0</ele><time>2026-04-04T12:04:08.999Z</time></trkpt><trkpt lat="43.14422520084312" lon="10.693674191187041"><ele>218.0</ele><time>2026-04-04T12:04:09.999Z</time></trkpt><trkpt lat="43.14415002893235" lon="10.693699458930505"><ele>218.00000000000003</ele><time>2026-04-04T12:04:10.999Z</time></trkpt><trkpt lat="43.14403257291511" lon="10.693710874911348"><ele>218.0</ele><time>2026-04-04T12:04:12.999Z</time></trkpt><trkpt lat="43.143973565383355" lon="10.69374108655784"><ele>218.0</ele><time>2026-04-04T12:04:14.999Z</time></trkpt><trkpt lat="43.143933763771514" lon="10.693827564399507"><ele>218.0</ele><time>2026-04-04T12:04:16.998Z</time></trkpt><trkpt lat="43.14385536590434" lon="10.6938926704779"><ele>218.0</ele><time>2026-04-04T12:04:18.998Z</time></trkpt><trkpt lat="43.14378290581765" lon="10.693939106877766"><ele>218.0</ele><time>2026-04-04T12:04:19.998Z</time></trkpt><trkpt lat="43.143655076462586" lon="10.693981144080704"><ele>218.0</ele><time>2026-04-04T12:04:21.998Z</time></trkpt><trkpt lat="43.14357715102409" lon="10.694017253804635"><ele>218.0</ele><time>2026-04-04T12:04:22.998Z</time></trkpt><trkpt lat="43.143507345876095" lon="10.694039315813239"><ele>218.0</ele><time>2026-04-04T12:04:23.998Z</time></trkpt><trkpt lat="43.143398251830774" lon="10.694082549711101"><ele>218.0</ele><time>2026-04-04T12:04:25.998Z</time></trkpt><trkpt lat="43.143285024129625" lon="10.69403122387549"><ele>218.0</ele><time>2026-04-04T12:04:27.998Z</time></trkpt><trkpt lat="43.14317064785213" lon="10.693946389036897"><ele>218.0</ele><time>2026-04-04T12:04:29.998Z</time></trkpt><trkpt lat="43.14309541623215" lon="10.69387300592013"><ele>218.00000000000003</ele><time>2026-04-04T12:04:31.998Z</time></trkpt><trkpt lat="43.14302412821387" lon="10.693869919068081"><ele>218.0</ele><time>2026-04-04T12:04:32.998Z</time></trkpt><trkpt lat="43.14294301668508" lon="10.693867074072045"><ele>218.0</ele><time>2026-04-04T12:04:33.998Z</time></trkpt><trkpt lat="43.14287401249236" lon="10.693851532316737"><ele>218.0</ele><time>2026-04-04T12:04:34.998Z</time></trkpt><trkpt lat="43.14280473449722" lon="10.69390133705639"><ele>218.00000000000003</ele><time>2026-04-04T12:04:35.998Z</time></trkpt><trkpt lat="43.14272096851437" lon="10.693959145431013"><ele>218.0</ele><time>2026-04-04T12:04:36.998Z</time></trkpt><trkpt lat="43.142620048233496" lon="10.693904810170421"><ele>218.00000000000003</ele><time>2026-04-04T12:04:38.998Z</time></trkpt><trkpt lat="43.14255265510267" lon="10.693852252896159"><ele>218.0</ele><time>2026-04-04T12:04:39.998Z</time></trkpt><trkpt lat="43.142486033770105" lon="10.693810995602982"><ele>218.0</ele><time>2026-04-04T12:04:40.998Z</time></trkpt><trkpt lat="43.14240328801735" lon="10.693762165937745"><ele>218.0</ele><time>2026-04-04T12:04:41.998Z</time></trkpt><trkpt lat="43.14234011630676" lon="10.693757875426522"><ele>218.00000000000003</ele><time>2026-04-04T12:04:42.998Z</time></trkpt><trkpt lat="43.14220605747007" lon="10.693747109164276"><ele>218.0</ele><time>2026-04-04T12:04:45Z</time></trkpt><trkpt lat="43.14213290703384" lon="10.693726178059554"><ele>217.83333333333334</ele><time>2026-04-04T12:04:46Z</time></trkpt><trkpt lat="43.14205817725678" lon="10.693725416765634"><ele>217.66666666666669</ele><time>2026-04-04T12:04:48Z</time></trkpt><trkpt lat="43.141956103186445" lon="10.693782447668816"><ele>217.5</ele><time>2026-04-04T12:04:50Z</time></trkpt><trkpt lat="43.1418613663238" lon="10.693834744691841"><ele>217.33333333333331</ele><time>2026-04-04T12:04:52Z</time></trkpt><trkpt lat="43.14179565437603" lon="10.693818532503686"><ele>217.16666666666666</ele><time>2026-04-04T12:04:54Z</time></trkpt><trkpt lat="43.141747922543324" lon="10.693905414669132"><ele>217.0</ele><time>2026-04-04T12:04:56Z</time></trkpt><trkpt lat="43.14168554659085" lon="10.693982955100266"><ele>216.99999999999997</ele><time>2026-04-04T12:04:58Z</time></trkpt><trkpt lat="43.14161918959698" lon="10.69400388186817"><ele>217.0</ele><time>2026-04-04T12:04:59Z</time></trkpt><trkpt lat="43.14153092834939" lon="10.694023835223513"><ele>217.0</ele><time>2026-04-04T12:05:01Z</time></trkpt><trkpt lat="43.14146124419314" lon="10.694039777611138"><ele>217.0</ele><time>2026-04-04T12:05:04Z</time></trkpt><trkpt lat="43.14136985974417" lon="10.69403799764838"><ele>216.99999999999997</ele><time>2026-04-04T12:05:07Z</time></trkpt><trkpt lat="43.14130423273946" lon="10.694030452065796"><ele>217.0</ele><time>2026-04-04T12:05:12Z</time></trkpt><trkpt lat="43.141240815256886" lon="10.694015545605755"><ele>215.49999999999997</ele><time>2026-04-04T12:05:17Z</time></trkpt><trkpt lat="43.14117698709645" lon="10.694041941210338"><ele>214.0</ele><time>2026-04-04T12:05:24Z</time></trkpt><trkpt lat="43.141087608534804" lon="10.694055629451563"><ele>212.5</ele><time>2026-04-04T12:05:31.999Z</time></trkpt><trkpt lat="43.141013076147914" lon="10.694076594244939"><ele>211.0</ele><time>2026-04-04T12:05:33.999Z</time></trkpt><trkpt lat="43.14091863518368" lon="10.694056750661554"><ele>209.49999999999997</ele><time>2026-04-04T12:05:36.999Z</time></trkpt><trkpt lat="43.14083637134307" lon="10.694016180459867"><ele>208.0</ele><time>2026-04-04T12:05:41.999Z</time></trkpt><trkpt lat="43.14073491221949" lon="10.693962504815175"><ele>207.2</ele><time>2026-04-04T12:05:43.999Z</time></trkpt><trkpt lat="43.14063448329522" lon="10.693967303586264"><ele>206.4</ele><time>2026-04-04T12:05:45.999Z</time></trkpt><trkpt lat="43.14056050932602" lon="10.693949148260574"><ele>205.6</ele><time>2026-04-04T12:05:48.999Z</time></trkpt><trkpt lat="43.140470314969136" lon="10.69395227214698"><ele>204.79999999999998</ele><time>2026-04-04T12:05:51.999Z</time></trkpt><trkpt lat="43.140364975435695" lon="10.693967150901843"><ele>204.0</ele><time>2026-04-04T12:05:53.999Z</time></trkpt><trkpt lat="43.14025913892971" lon="10.693990624620975"><ele>204.0</ele><time>2026-04-04T12:05:55.999Z</time></trkpt><trkpt lat="43.14019226936637" lon="10.693992307141217"><ele>204.0</ele><time>2026-04-04T12:05:56.999Z</time></trkpt><trkpt lat="43.14009613814345" lon="10.693991375920511"><ele>204.0</ele><time>2026-04-04T12:05:57.999Z</time></trkpt><trkpt lat="43.13997573309949" lon="10.694022596352735"><ele>204.0</ele><time>2026-04-04T12:05:59.999Z</time></trkpt><trkpt lat="43.139844760029" lon="10.69400800925685"><ele>204.0</ele><time>2026-04-04T12:06:01.999Z</time></trkpt><trkpt lat="43.13977363242475" lon="10.694005990953356"><ele>202.39999999999998</ele><time>2026-04-04T12:06:02.999Z</time></trkpt><trkpt lat="43.139703977974506" lon="10.693998597728681"><ele>200.8</ele><time>2026-04-04T12:06:04.999Z</time></trkpt><trkpt lat="43.13962395383299" lon="10.69397577586062"><ele>199.2</ele><time>2026-04-04T12:06:08.999Z</time></trkpt><trkpt lat="43.13952739308594" lon="10.69391991689"><ele>197.60000000000002</ele><time>2026-04-04T12:06:10.999Z</time></trkpt><trkpt lat="43.139427539506144" lon="10.69388478736802"><ele>196.0</ele><time>2026-04-04T12:06:12.999Z</time></trkpt><trkpt lat="43.13933675093892" lon="10.69387982160411"><ele>196.0</ele><time>2026-04-04T12:06:14.999Z</time></trkpt><trkpt lat="43.1392703083245" lon="10.693916321050345"><ele>196.0</ele><time>2026-04-04T12:06:16.999Z</time></trkpt><trkpt lat="43.139183156227546" lon="10.693975856614532"><ele>196.0</ele><time>2026-04-04T12:06:18.999Z</time></trkpt><trkpt lat="43.1390718228628" lon="10.694011997933346"><ele>196.0</ele><time>2026-04-04T12:06:19.999Z</time></trkpt><trkpt lat="43.13897409011182" lon="10.694036005801866"><ele>196.0</ele><time>2026-04-04T12:06:20.999Z</time></trkpt><trkpt lat="43.13890337224312" lon="10.694043027082921"><ele>194.4</ele><time>2026-04-04T12:06:21.999Z</time></trkpt><trkpt lat="43.138808705516844" lon="10.694044382757514"><ele>192.8</ele><time>2026-04-04T12:06:23.999Z</time></trkpt><trkpt lat="43.138677242635495" lon="10.69400230514626"><ele>191.20000000000002</ele><time>2026-04-04T12:06:25.998Z</time></trkpt><trkpt lat="43.13859600271528" lon="10.69401261191491"><ele>189.60000000000002</ele><time>2026-04-04T12:06:26.998Z</time></trkpt><trkpt lat="43.13850233098381" lon="10.69399504265443"><ele>188.0</ele><time>2026-04-04T12:06:27.998Z</time></trkpt><trkpt lat="43.13842639286523" lon="10.693983106539953"><ele>188.0</ele><time>2026-04-04T12:06:28.998Z</time></trkpt><trkpt lat="43.13831273732212" lon="10.693999373768426"><ele>188.0</ele><time>2026-04-04T12:06:30.998Z</time></trkpt><trkpt lat="43.13819108275106" lon="10.694032862146791"><ele>188.0</ele><time>2026-04-04T12:06:32.998Z</time></trkpt><trkpt lat="43.1381240125612" lon="10.694033330550498"><ele>188.0</ele><time>2026-04-04T12:06:33.998Z</time></trkpt><trkpt lat="43.138008535593485" lon="10.694052427891446"><ele>188.0</ele><time>2026-04-04T12:06:35.998Z</time></trkpt><trkpt lat="43.1379221065106" lon="10.694064399584054"><ele>186.33333333333331</ele><time>2026-04-04T12:06:37.998Z</time></trkpt><trkpt lat="43.13782752305436" lon="10.694108778661997"><ele>184.66666666666666</ele><time>2026-04-04T12:06:39.998Z</time></trkpt><trkpt lat="43.1377503159078" lon="10.694156266257485"><ele>183.0</ele><time>2026-04-04T12:06:40.998Z</time></trkpt><trkpt lat="43.13769241621719" lon="10.694209986838121"><ele>181.33333333333334</ele><time>2026-04-04T12:06:41.998Z</time></trkpt><trkpt lat="43.137622885240575" lon="10.694227308580643"><ele>179.66666666666669</ele><time>2026-04-04T12:06:42.998Z</time></trkpt><trkpt lat="43.13754739537511" lon="10.694240945969543"><ele>178.0</ele><time>2026-04-04T12:06:43.998Z</time></trkpt><trkpt lat="43.137462069501105" lon="10.69425634741098"><ele>178.0</ele><time>2026-04-04T12:06:44.998Z</time></trkpt><trkpt lat="43.1373930584905" lon="10.694277324526507"><ele>178.0</ele><time>2026-04-04T12:06:45.998Z</time></trkpt><trkpt lat="43.1373220730389" lon="10.694304742529706"><ele>178.0</ele><time>2026-04-04T12:06:46.998Z</time></trkpt><trkpt lat="43.1372554247569" lon="10.694347524269885"><ele>178.0</ele><time>2026-04-04T12:06:47.998Z</time></trkpt><trkpt lat="43.13718277635399" lon="10.694401307530251"><ele>178.0</ele><time>2026-04-04T12:06:48.998Z</time></trkpt><trkpt lat="43.13710188609142" lon="10.69443368799973"><ele>178.0</ele><time>2026-04-04T12:06:49.998Z</time></trkpt><trkpt lat="43.136993611999976" lon="10.694452856370695"><ele>176.60000000000002</ele><time>2026-04-04T12:06:51Z</time></trkpt><trkpt lat="43.136885012729614" lon="10.694479721341564"><ele>175.20000000000002</ele><time>2026-04-04T12:06:52Z</time></trkpt><trkpt lat="43.13679098984441" lon="10.694512863035996"><ele>173.8</ele><time>2026-04-04T12:06:53Z</time></trkpt><trkpt lat="43.13671949932113" lon="10.69453099071195"><ele>172.4</ele><time>2026-04-04T12:06:54Z</time></trkpt><trkpt lat="43.13663600183017" lon="10.694450471304329"><ele>171.0</ele><time>2026-04-04T12:06:56Z</time></trkpt><trkpt lat="43.13655608907459" lon="10.694395743540229"><ele>168.8</ele><time>2026-04-04T12:06:58Z</time></trkpt><trkpt lat="43.13649059282401" lon="10.694397697528931"><ele>166.60000000000002</ele><time>2026-04-04T12:06:59Z</time></trkpt><trkpt lat="43.13642784241084" lon="10.694303816515903"><ele>164.4</ele><time>2026-04-04T12:07:01Z</time></trkpt><trkpt lat="43.13641910402459" lon="10.694130144736842"><ele>162.2</ele><time>2026-04-04T12:07:03Z</time></trkpt><trkpt lat="43.13640003978668" lon="10.693964301009379"><ele>160.0</ele><time>2026-04-04T12:07:05Z</time></trkpt><trkpt lat="43.13633635243672" lon="10.69385571321851"><ele>160.0</ele><time>2026-04-04T12:07:07Z</time></trkpt><trkpt lat="43.136247762011514" lon="10.693783137912227"><ele>160.0</ele><time>2026-04-04T12:07:09Z</time></trkpt><trkpt lat="43.13615688932576" lon="10.69369876133736"><ele>160.0</ele><time>2026-04-04T12:07:11Z</time></trkpt><trkpt lat="43.136076598672965" lon="10.693635838380548"><ele>160.0</ele><time>2026-04-04T12:07:13Z</time></trkpt><trkpt lat="43.13602189305786" lon="10.693591194396923"><ele>160.0</ele><time>2026-04-04T12:07:14Z</time></trkpt><trkpt lat="43.135915379451625" lon="10.693531991027154"><ele>158.2</ele><time>2026-04-04T12:07:16Z</time></trkpt><trkpt lat="43.13582007505509" lon="10.6934993706711"><ele>156.4</ele><time>2026-04-04T12:07:18Z</time></trkpt><trkpt lat="43.13572108409027" lon="10.693583351486962"><ele>154.6</ele><time>2026-04-04T12:07:20Z</time></trkpt><trkpt lat="43.1356542313605" lon="10.693625871072861"><ele>152.8</ele><time>2026-04-04T12:07:21Z</time></trkpt><trkpt lat="43.13554248693188" lon="10.693654889933754"><ele>151.0</ele><time>2026-04-04T12:07:23Z</time></trkpt><trkpt lat="43.13547923542306" lon="10.693645752273646"><ele>149.83333333333334</ele><time>2026-04-04T12:07:24Z</time></trkpt><trkpt lat="43.13539925838696" lon="10.693624909795213"><ele>148.66666666666669</ele><time>2026-04-04T12:07:25Z</time></trkpt><trkpt lat="43.1353322426567" lon="10.693615614626777"><ele>147.5</ele><time>2026-04-04T12:07:26Z</time></trkpt><trkpt lat="43.13525304565093" lon="10.693612010426225"><ele>146.33333333333334</ele><time>2026-04-04T12:07:27Z</time></trkpt><trkpt lat="43.13515301945112" lon="10.69358052696393"><ele>145.16666666666666</ele><time>2026-04-04T12:07:28Z</time></trkpt><trkpt lat="43.13507319220754" lon="10.693561485661041"><ele>144.0</ele><time>2026-04-04T12:07:29Z</time></trkpt><trkpt lat="43.134995315036825" lon="10.693541515341762"><ele>142.33333333333334</ele><time>2026-04-04T12:07:30Z</time></trkpt><trkpt lat="43.13492406664196" lon="10.693531460049348"><ele>140.66666666666666</ele><time>2026-04-04T12:07:31Z</time></trkpt><trkpt lat="43.134853699796956" lon="10.693528196101806"><ele>139.0</ele><time>2026-04-04T12:07:32Z</time></trkpt><trkpt lat="43.134736465118735" lon="10.693588926682041"><ele>137.33333333333331</ele><time>2026-04-04T12:07:33.999Z</time></trkpt><trkpt lat="43.134680294730735" lon="10.693628739173466"><ele>135.66666666666666</ele><time>2026-04-04T12:07:34.999Z</time></trkpt><trkpt lat="43.13462196503513" lon="10.69368842402746"><ele>134.0</ele><time>2026-04-04T12:07:35.999Z</time></trkpt><trkpt lat="43.13456281246706" lon="10.69375647933439"><ele>132.4</ele><time>2026-04-04T12:07:36.999Z</time></trkpt><trkpt lat="43.134468229726075" lon="10.693909045095708"><ele>130.8</ele><time>2026-04-04T12:07:38.999Z</time></trkpt><trkpt lat="43.13437182253773" lon="10.694017767620512"><ele>129.2</ele><time>2026-04-04T12:07:40.999Z</time></trkpt><trkpt lat="43.13431650341231" lon="10.694080776099474"><ele>127.6</ele><time>2026-04-04T12:07:41.999Z</time></trkpt><trkpt lat="43.13425761182283" lon="10.694131717494791"><ele>126.0</ele><time>2026-04-04T12:07:42.999Z</time></trkpt><trkpt lat="43.134167005094724" lon="10.694092077115018"><ele>126.0</ele><time>2026-04-04T12:07:44.999Z</time></trkpt><trkpt lat="43.13412717679955" lon="10.69400473659632"><ele>126.0</ele><time>2026-04-04T12:07:45.999Z</time></trkpt><trkpt lat="43.13410101256163" lon="10.693924156193537"><ele>126.0</ele><time>2026-04-04T12:07:46.999Z</time></trkpt><trkpt lat="43.13404175860452" lon="10.693829079425615"><ele>126.0</ele><time>2026-04-04T12:07:47.999Z</time></trkpt><trkpt lat="43.13398346161444" lon="10.693774965935889"><ele>126.0</ele><time>2026-04-04T12:07:48.999Z</time></trkpt><trkpt lat="43.133914690335395" lon="10.693747816691406"><ele>126.0</ele><time>2026-04-04T12:07:49.999Z</time></trkpt><trkpt lat="43.1338524275474" lon="10.693764023825702"><ele>126.0</ele><time>2026-04-04T12:07:50.999Z</time></trkpt><trkpt lat="43.13379866865263" lon="10.693823595425423"><ele>124.33333333333333</ele><time>2026-04-04T12:07:51.999Z</time></trkpt><trkpt lat="43.13374861494799" lon="10.693885194727185"><ele>122.66666666666666</ele><time>2026-04-04T12:07:52.999Z</time></trkpt><trkpt lat="43.13369436422543" lon="10.693950797833606"><ele>121.0</ele><time>2026-04-04T12:07:53.999Z</time></trkpt><trkpt lat="43.13364448335752" lon="10.694012919757437"><ele>119.33333333333333</ele><time>2026-04-04T12:07:54.999Z</time></trkpt><trkpt lat="43.13356281059651" lon="10.694073550839267"><ele>117.66666666666666</ele><time>2026-04-04T12:07:57.999Z</time></trkpt><trkpt lat="43.13345795583385" lon="10.694119285677864"><ele>116.0</ele><time>2026-04-04T12:07:59.999Z</time></trkpt><trkpt lat="43.13334366634169" lon="10.694060046659708"><ele>116.0</ele><time>2026-04-04T12:08:01.999Z</time></trkpt><trkpt lat="43.13326093468981" lon="10.694035427244195"><ele>116.0</ele><time>2026-04-04T12:08:02.999Z</time></trkpt><trkpt lat="43.133191604961766" lon="10.69402085827182"><ele>116.0</ele><time>2026-04-04T12:08:03.999Z</time></trkpt><trkpt lat="43.13305400201635" lon="10.694090455740461"><ele>116.0</ele><time>2026-04-04T12:08:05.999Z</time></trkpt><trkpt lat="43.13297330567241" lon="10.694174998906162"><ele>116.0</ele><time>2026-04-04T12:08:06.999Z</time></trkpt><trkpt lat="43.13289341667706" lon="10.694239924073651"><ele>116.4</ele><time>2026-04-04T12:08:07.999Z</time></trkpt><trkpt lat="43.13277222313361" lon="10.694327149314969"><ele>116.8</ele><time>2026-04-04T12:08:09.999Z</time></trkpt><trkpt lat="43.13267606531405" lon="10.694388831968723"><ele>117.20000000000002</ele><time>2026-04-04T12:08:10.999Z</time></trkpt><trkpt lat="43.13259697959149" lon="10.6944149684815"><ele>117.60000000000001</ele><time>2026-04-04T12:08:11.999Z</time></trkpt><trkpt lat="43.132512218535524" lon="10.694429967690427"><ele>118.0</ele><time>2026-04-04T12:08:12.999Z</time></trkpt><trkpt lat="43.132432493459795" lon="10.694434224521407"><ele>117.60000000000001</ele><time>2026-04-04T12:08:13.999Z</time></trkpt><trkpt lat="43.132346968227374" lon="10.694426658537276"><ele>117.20000000000002</ele><time>2026-04-04T12:08:14.999Z</time></trkpt><trkpt lat="43.13225555397729" lon="10.694405436379585"><ele>116.8</ele><time>2026-04-04T12:08:15.999Z</time></trkpt><trkpt lat="43.13217666305023" lon="10.694368165073007"><ele>116.4</ele><time>2026-04-04T12:08:16.999Z</time></trkpt><trkpt lat="43.13209287233082" lon="10.694336397041392"><ele>116.0</ele><time>2026-04-04T12:08:17.999Z</time></trkpt><trkpt lat="43.131991655003695" lon="10.69431385044977"><ele>116.0</ele><time>2026-04-04T12:08:18.999Z</time></trkpt><trkpt lat="43.1318882560542" lon="10.694297821024369"><ele>116.0</ele><time>2026-04-04T12:08:19.999Z</time></trkpt><trkpt lat="43.131790993091506" lon="10.69428318790226"><ele>116.0</ele><time>2026-04-04T12:08:20.999Z</time></trkpt><trkpt lat="43.13169689483828" lon="10.69427127833342"><ele>116.0</ele><time>2026-04-04T12:08:21.999Z</time></trkpt><trkpt lat="43.13158044769774" lon="10.694253147521861"><ele>116.0</ele><time>2026-04-04T12:08:22.999Z</time></trkpt><trkpt lat="43.13145086715848" lon="10.694217042594927"><ele>115.19999999999999</ele><time>2026-04-04T12:08:23.999Z</time></trkpt><trkpt lat="43.13134357907937" lon="10.69418123902701"><ele>114.39999999999999</ele><time>2026-04-04T12:08:24.999Z</time></trkpt><trkpt lat="43.13124575050829" lon="10.69414847194653"><ele>113.6</ele><time>2026-04-04T12:08:25.999Z</time></trkpt><trkpt lat="43.13115306666962" lon="10.694111052860674"><ele>112.8</ele><time>2026-04-04T12:08:26.999Z</time></trkpt><trkpt lat="43.13104599423771" lon="10.694070675401019"><ele>112.0</ele><time>2026-04-04T12:08:27.999Z</time></trkpt><trkpt lat="43.13094758818482" lon="10.694053302843633"><ele>112.0</ele><time>2026-04-04T12:08:28.999Z</time></trkpt><trkpt lat="43.13083737276909" lon="10.69405454548892"><ele>111.99999999999999</ele><time>2026-04-04T12:08:29.998Z</time></trkpt><trkpt lat="43.130729873099924" lon="10.694052065230185"><ele>111.99999999999999</ele><time>2026-04-04T12:08:30.998Z</time></trkpt><trkpt lat="43.13061813003323" lon="10.69404065631586"><ele>112.0</ele><time>2026-04-04T12:08:31.998Z</time></trkpt><trkpt lat="43.13050595454761" lon="10.6940440710579"><ele>112.0</ele><time>2026-04-04T12:08:32.998Z</time></trkpt><trkpt lat="43.13040410012073" lon="10.69402999995583"><ele>110.39999999999999</ele><time>2026-04-04T12:08:33.998Z</time></trkpt><trkpt lat="43.13030503685125" lon="10.693996649182248"><ele>108.79999999999998</ele><time>2026-04-04T12:08:34.998Z</time></trkpt><trkpt lat="43.13022320125569" lon="10.693936928683074"><ele>107.2</ele><time>2026-04-04T12:08:35.998Z</time></trkpt><trkpt lat="43.13013518971396" lon="10.693858873219638"><ele>105.6</ele><time>2026-04-04T12:08:36.998Z</time></trkpt><trkpt lat="43.13007874675121" lon="10.693776834913898"><ele>104.0</ele><time>2026-04-04T12:08:37.998Z</time></trkpt><trkpt lat="43.130027568994244" lon="10.693659650816528"><ele>104.80000000000001</ele><time>2026-04-04T12:08:38.998Z</time></trkpt><trkpt lat="43.12999176955018" lon="10.693546006344691"><ele>105.60000000000001</ele><time>2026-04-04T12:08:39.998Z</time></trkpt><trkpt lat="43.12992862532791" lon="10.69340737572433"><ele>106.4</ele><time>2026-04-04T12:08:40.998Z</time></trkpt><trkpt lat="43.12985807017352" lon="10.693297702344232"><ele>107.2</ele><time>2026-04-04T12:08:41.998Z</time></trkpt><trkpt lat="43.12980077500401" lon="10.69319857131928"><ele>108.0</ele><time>2026-04-04T12:08:42.998Z</time></trkpt><trkpt lat="43.12975081307334" lon="10.693114832618607"><ele>108.0</ele><time>2026-04-04T12:08:43.998Z</time></trkpt><trkpt lat="43.12970789897692" lon="10.69303429261826"><ele>108.0</ele><time>2026-04-04T12:08:44.998Z</time></trkpt><trkpt lat="43.129681174923704" lon="10.692923858160636"><ele>108.0</ele><time>2026-04-04T12:08:46.998Z</time></trkpt><trkpt lat="43.129667880295294" lon="10.692796417852682"><ele>108.0</ele><time>2026-04-04T12:13:09Z</time></trkpt><trkpt lat="43.12969565791557" lon="10.692634970347994"><ele>108.0</ele><time>2026-04-04T12:13:11Z</time></trkpt><trkpt lat="43.129718004448584" lon="10.692547664819383"><ele>108.0</ele><time>2026-04-04T12:13:12Z</time></trkpt><trkpt lat="43.12974832379047" lon="10.692405395157813"><ele>108.60000000000001</ele><time>2026-04-04T12:13:14Z</time></trkpt><trkpt lat="43.12981303997458" lon="10.692332643084978"><ele>109.20000000000002</ele><time>2026-04-04T12:13:16Z</time></trkpt><trkpt lat="43.129812720853685" lon="10.692175581428847"><ele>109.8</ele><time>2026-04-04T12:13:19Z</time></trkpt><trkpt lat="43.129742653372034" lon="10.692069087347553"><ele>110.4</ele><time>2026-04-04T12:13:21Z</time></trkpt><trkpt lat="43.12969744406275" lon="10.691931772103281"><ele>111.0</ele><time>2026-04-04T12:13:23Z</time></trkpt><trkpt lat="43.1296537233219" lon="10.691846769368183"><ele>112.0</ele><time>2026-04-04T12:13:24Z</time></trkpt><trkpt lat="43.12962121847091" lon="10.691772532790491"><ele>113.0</ele><time>2026-04-04T12:13:25Z</time></trkpt><trkpt lat="43.12960421212733" lon="10.691676449228442"><ele>114.0</ele><time>2026-04-04T12:13:26Z</time></trkpt><trkpt lat="43.129591862014706" lon="10.691532905500575"><ele>115.0</ele><time>2026-04-04T12:13:29Z</time></trkpt><trkpt lat="43.12960011713725" lon="10.691435702294314"><ele>116.0</ele><time>2026-04-04T12:13:30Z</time></trkpt><trkpt lat="43.1296194103042" lon="10.691308666973052"><ele>117.0</ele><time>2026-04-04T12:13:32Z</time></trkpt><trkpt lat="43.12968624987883" lon="10.691248358821193"><ele>117.0</ele><time>2026-04-04T12:13:35Z</time></trkpt><trkpt lat="43.129768865421546" lon="10.691168078781491"><ele>117.0</ele><time>2026-04-04T12:13:37Z</time></trkpt><trkpt lat="43.1298518894735" lon="10.691177109347981"><ele>117.0</ele><time>2026-04-04T12:13:39Z</time></trkpt><trkpt lat="43.12992716018985" lon="10.6911729362114"><ele>117.0</ele><time>2026-04-04T12:13:42Z</time></trkpt><trkpt lat="43.12999631079421" lon="10.691164467946422"><ele>117.0</ele><time>2026-04-04T12:13:44Z</time></trkpt><trkpt lat="43.130087723964714" lon="10.691190890880542"><ele>117.0</ele><time>2026-04-04T12:13:46Z</time></trkpt><trkpt lat="43.13019408913212" lon="10.691313219296187"><ele>120.6</ele><time>2026-04-04T12:13:48Z</time></trkpt><trkpt lat="43.130278600293416" lon="10.691425206319833"><ele>124.19999999999999</ele><time>2026-04-04T12:13:49.999Z</time></trkpt><trkpt lat="43.13038132170073" lon="10.691486355823363"><ele>127.8</ele><time>2026-04-04T12:13:51.999Z</time></trkpt><trkpt lat="43.130492755466015" lon="10.691513065384179"><ele>131.4</ele><time>2026-04-04T12:13:53.999Z</time></trkpt><trkpt lat="43.1305777928119" lon="10.691535758091444"><ele>135.0</ele><time>2026-04-04T12:13:55.999Z</time></trkpt><trkpt lat="43.13066075136618" lon="10.69158722301132"><ele>135.0</ele><time>2026-04-04T12:13:57.999Z</time></trkpt><trkpt lat="43.13072436960729" lon="10.691604176457597"><ele>135.0</ele><time>2026-04-04T12:13:58.999Z</time></trkpt><trkpt lat="43.1308028602734" lon="10.691618100398493"><ele>135.0</ele><time>2026-04-04T12:13:59.999Z</time></trkpt><trkpt lat="43.13089777938676" lon="10.691633462192344"><ele>135.0</ele><time>2026-04-04T12:14:01.999Z</time></trkpt><trkpt lat="43.13098957421121" lon="10.6916703265731"><ele>135.0</ele><time>2026-04-04T12:14:03.999Z</time></trkpt><trkpt lat="43.131097737666074" lon="10.691696490088516"><ele>135.0</ele><time>2026-04-04T12:14:05.999Z</time></trkpt><trkpt lat="43.13116250392677" lon="10.691698232274048"><ele>137.0</ele><time>2026-04-04T12:14:07.999Z</time></trkpt><trkpt lat="43.13123857661324" lon="10.691718714363514"><ele>139.0</ele><time>2026-04-04T12:14:08.999Z</time></trkpt><trkpt lat="43.13135549122494" lon="10.691729458205284"><ele>141.0</ele><time>2026-04-04T12:14:10.999Z</time></trkpt><trkpt lat="43.131464443001576" lon="10.691705292017096"><ele>143.0</ele><time>2026-04-04T12:14:12.999Z</time></trkpt><trkpt lat="43.13155961730228" lon="10.691687044328686"><ele>145.0</ele><time>2026-04-04T12:14:14.999Z</time></trkpt><trkpt lat="43.13166535132974" lon="10.69165036405603"><ele>147.6</ele><time>2026-04-04T12:14:16.999Z</time></trkpt><trkpt lat="43.13176559027941" lon="10.691616263018757"><ele>150.2</ele><time>2026-04-04T12:14:18.999Z</time></trkpt><trkpt lat="43.131846604742755" lon="10.691548075196911"><ele>152.8</ele><time>2026-04-04T12:14:20.999Z</time></trkpt><trkpt lat="43.131901446191904" lon="10.69147003792612"><ele>155.4</ele><time>2026-04-04T12:14:22.999Z</time></trkpt><trkpt lat="43.13199082947657" lon="10.691414469333749"><ele>158.0</ele><time>2026-04-04T12:14:24.999Z</time></trkpt><trkpt lat="43.13208106139923" lon="10.69129286039938"><ele>158.0</ele><time>2026-04-04T12:14:26.999Z</time></trkpt><trkpt lat="43.13213347711569" lon="10.691225799504878"><ele>158.0</ele><time>2026-04-04T12:14:27.999Z</time></trkpt><trkpt lat="43.13224167533397" lon="10.691125955121455"><ele>158.0</ele><time>2026-04-04T12:14:29.999Z</time></trkpt><trkpt lat="43.13231958753208" lon="10.690976296227985"><ele>158.0</ele><time>2026-04-04T12:14:31.999Z</time></trkpt><trkpt lat="43.13238299986795" lon="10.69087415287105"><ele>158.0</ele><time>2026-04-04T12:14:32.999Z</time></trkpt><trkpt lat="43.13242918402633" lon="10.690806745927604"><ele>158.5</ele><time>2026-04-04T12:14:33.999Z</time></trkpt><trkpt lat="43.13247072048348" lon="10.690721007677524"><ele>159.0</ele><time>2026-04-04T12:14:36.999Z</time></trkpt><trkpt lat="43.1325119663716" lon="10.690648420540697"><ele>159.5</ele><time>2026-04-04T12:14:39.999Z</time></trkpt><trkpt lat="43.13255277805012" lon="10.69052360748727"><ele>160.0</ele><time>2026-04-04T12:14:41.999Z</time></trkpt><trkpt lat="43.13258850410934" lon="10.690435742435472"><ele>160.5</ele><time>2026-04-04T12:14:43.999Z</time></trkpt><trkpt lat="43.13261407911806" lon="10.690352738157113"><ele>161.0</ele><time>2026-04-04T12:14:45.999Z</time></trkpt><trkpt lat="43.132663458641105" lon="10.690231729418251"><ele>161.0</ele><time>2026-04-04T12:14:47.998Z</time></trkpt><trkpt lat="43.132708864690365" lon="10.690119630921055"><ele>161.0</ele><time>2026-04-04T12:14:49.998Z</time></trkpt><trkpt lat="43.13273714393923" lon="10.690013418863781"><ele>161.0</ele><time>2026-04-04T12:14:51.998Z</time></trkpt><trkpt lat="43.13278000107042" lon="10.68991255531218"><ele>161.0</ele><time>2026-04-04T12:14:53.998Z</time></trkpt><trkpt lat="43.13276498557357" lon="10.689799819574743"><ele>161.0</ele><time>2026-04-04T12:14:56.998Z</time></trkpt><trkpt lat="43.132767325046814" lon="10.68966720314609"><ele>161.0</ele><time>2026-04-04T12:14:58.998Z</time></trkpt><trkpt lat="43.13278494073097" lon="10.689541734377455"><ele>161.0</ele><time>2026-04-04T12:15:00.998Z</time></trkpt><trkpt lat="43.132767084254546" lon="10.689438661707976"><ele>161.0</ele><time>2026-04-04T12:15:02.998Z</time></trkpt><trkpt lat="43.13272636128241" lon="10.689329362584104"><ele>161.0</ele><time>2026-04-04T12:15:04.998Z</time></trkpt><trkpt lat="43.13268322972035" lon="10.689258623542317"><ele>161.0</ele><time>2026-04-04T12:15:05.998Z</time></trkpt><trkpt lat="43.1326156939181" lon="10.689158529953291"><ele>161.0</ele><time>2026-04-04T12:15:07.998Z</time></trkpt><trkpt lat="43.1325580323246" lon="10.689070591363052"><ele>161.0</ele><time>2026-04-04T12:15:09.998Z</time></trkpt><trkpt lat="43.132526368419406" lon="10.688971646008845"><ele>160.60000000000002</ele><time>2026-04-04T12:15:11.998Z</time></trkpt><trkpt lat="43.132545526031784" lon="10.68880940093651"><ele>160.20000000000002</ele><time>2026-04-04T12:15:13.998Z</time></trkpt><trkpt lat="43.13257008763815" lon="10.688729896438034"><ele>159.8</ele><time>2026-04-04T12:15:15Z</time></trkpt><trkpt lat="43.13260006353626" lon="10.68862038788656"><ele>159.4</ele><time>2026-04-04T12:15:17Z</time></trkpt><trkpt lat="43.13262232096566" lon="10.688507573363513"><ele>159.0</ele><time>2026-04-04T12:15:19Z</time></trkpt><trkpt lat="43.132656214256386" lon="10.68834650168613"><ele>158.6</ele><time>2026-04-04T12:15:21Z</time></trkpt><trkpt lat="43.13268682212636" lon="10.688207297745919"><ele>158.2</ele><time>2026-04-04T12:15:23Z</time></trkpt><trkpt lat="43.132693134031726" lon="10.688103851399228"><ele>157.79999999999998</ele><time>2026-04-04T12:15:25Z</time></trkpt><trkpt lat="43.13267667332187" lon="10.687974194062948"><ele>157.4</ele><time>2026-04-04T12:15:27Z</time></trkpt><trkpt lat="43.132588144235356" lon="10.687903750022059"><ele>157.0</ele><time>2026-04-04T12:15:29Z</time></trkpt><trkpt lat="43.13248063198901" lon="10.687945010338444"><ele>157.0</ele><time>2026-04-04T12:15:31Z</time></trkpt><trkpt lat="43.132414556621306" lon="10.687936239736132"><ele>157.0</ele><time>2026-04-04T12:15:32Z</time></trkpt><trkpt lat="43.13230010733334" lon="10.68795048460518"><ele>157.0</ele><time>2026-04-04T12:15:34Z</time></trkpt><trkpt lat="43.13219138574055" lon="10.687955685997839"><ele>157.0</ele><time>2026-04-04T12:15:36Z</time></trkpt><trkpt lat="43.132128838153996" lon="10.687981583849734"><ele>157.0</ele><time>2026-04-04T12:15:37Z</time></trkpt><trkpt lat="43.13204334793652" lon="10.687965716048664"><ele>157.0</ele><time>2026-04-04T12:15:38Z</time></trkpt><trkpt lat="43.131925268318355" lon="10.687944179614107"><ele>155.0</ele><time>2026-04-04T12:15:40Z</time></trkpt><trkpt lat="43.13182680942297" lon="10.687939325875664"><ele>153.0</ele><time>2026-04-04T12:15:42Z</time></trkpt><trkpt lat="43.13175912297155" lon="10.687969613242998"><ele>151.0</ele><time>2026-04-04T12:15:45Z</time></trkpt><trkpt lat="43.13170659559256" lon="10.687899322236047"><ele>149.0</ele><time>2026-04-04T12:15:47Z</time></trkpt><trkpt lat="43.13162774049863" lon="10.687869902792198"><ele>147.0</ele><time>2026-04-04T12:15:48.999Z</time></trkpt><trkpt lat="43.1314994734292" lon="10.68791954655519"><ele>144.2</ele><time>2026-04-04T12:15:50.999Z</time></trkpt><trkpt lat="43.13139180515755" lon="10.687958931960909"><ele>141.39999999999998</ele><time>2026-04-04T12:15:52.999Z</time></trkpt><trkpt lat="43.13127056830732" lon="10.687946529033047"><ele>138.60000000000002</ele><time>2026-04-04T12:15:54.999Z</time></trkpt><trkpt lat="43.13119026101704" lon="10.687948605493553"><ele>135.8</ele><time>2026-04-04T12:15:55.999Z</time></trkpt><trkpt lat="43.13109600995319" lon="10.687953903712447"><ele>133.0</ele><time>2026-04-04T12:15:56.999Z</time></trkpt><trkpt lat="43.13101638808162" lon="10.687966202873454"><ele>133.0</ele><time>2026-04-04T12:15:57.999Z</time></trkpt><trkpt lat="43.13092905749027" lon="10.687978493171714"><ele>133.0</ele><time>2026-04-04T12:15:58.999Z</time></trkpt><trkpt lat="43.13080992434771" lon="10.687959138802633"><ele>133.0</ele><time>2026-04-04T12:16:00.999Z</time></trkpt><trkpt lat="43.13067173645444" lon="10.687919584262884"><ele>133.0</ele><time>2026-04-04T12:16:02.999Z</time></trkpt><trkpt lat="43.13059992614313" lon="10.687898147658862"><ele>133.0</ele><time>2026-04-04T12:16:03.999Z</time></trkpt><trkpt lat="43.13052070442546" lon="10.687878368643704"><ele>131.4</ele><time>2026-04-04T12:16:04.999Z</time></trkpt><trkpt lat="43.13045294751303" lon="10.687859211176319"><ele>129.8</ele><time>2026-04-04T12:16:05.999Z</time></trkpt><trkpt lat="43.1303328253126" lon="10.68778271379776"><ele>128.2</ele><time>2026-04-04T12:16:07.999Z</time></trkpt><trkpt lat="43.13026003973113" lon="10.687721843949863"><ele>126.6</ele><time>2026-04-04T12:16:08.999Z</time></trkpt><trkpt lat="43.13018686902467" lon="10.68767521647959"><ele>125.0</ele><time>2026-04-04T12:16:09.999Z</time></trkpt><trkpt lat="43.13010339192042" lon="10.687634081209197"><ele>124.0</ele><time>2026-04-04T12:16:10.999Z</time></trkpt><trkpt lat="43.12999247518436" lon="10.687591716126828"><ele>123.0</ele><time>2026-04-04T12:16:11.999Z</time></trkpt><trkpt lat="43.12991179299886" lon="10.687586906445466"><ele>122.0</ele><time>2026-04-04T12:16:12.999Z</time></trkpt><trkpt lat="43.129814345300765" lon="10.687538436128511"><ele>121.0</ele><time>2026-04-04T12:16:13.999Z</time></trkpt><trkpt lat="43.12971917851511" lon="10.687516052872358"><ele>120.0</ele><time>2026-04-04T12:16:14.999Z</time></trkpt><trkpt lat="43.129622019307305" lon="10.68749211227864"><ele>118.66666666666667</ele><time>2026-04-04T12:16:15.999Z</time></trkpt><trkpt lat="43.129524368878265" lon="10.687477707652475"><ele>117.33333333333334</ele><time>2026-04-04T12:16:16.999Z</time></trkpt><trkpt lat="43.12943899597325" lon="10.687427495139195"><ele>116.0</ele><time>2026-04-04T12:16:17.999Z</time></trkpt><trkpt lat="43.1293705555323" lon="10.68740048522221"><ele>114.66666666666667</ele><time>2026-04-04T12:16:18.999Z</time></trkpt><trkpt lat="43.12931242826657" lon="10.687363439522203"><ele>113.33333333333334</ele><time>2026-04-04T12:16:19.999Z</time></trkpt><trkpt lat="43.129213642415905" lon="10.687309075698458"><ele>112.0</ele><time>2026-04-04T12:16:21.999Z</time></trkpt><trkpt lat="43.129101209301936" lon="10.687262830365047"><ele>110.8</ele><time>2026-04-04T12:16:23.999Z</time></trkpt><trkpt lat="43.12898542954345" lon="10.68722260888103"><ele>109.6</ele><time>2026-04-04T12:16:25.999Z</time></trkpt><trkpt lat="43.128932810609456" lon="10.687169281253011"><ele>108.39999999999999</ele><time>2026-04-04T12:17:40Z</time></trkpt><trkpt lat="43.128916896719744" lon="10.686964019465874"><ele>107.19999999999999</ele><time>2026-04-04T12:17:42Z</time></trkpt><trkpt lat="43.12890929868625" lon="10.686821313557141"><ele>106.0</ele><time>2026-04-04T12:17:43Z</time></trkpt><trkpt lat="43.12890384434155" lon="10.68667292973446"><ele>106.0</ele><time>2026-04-04T12:17:44Z</time></trkpt><trkpt lat="43.12889419540381" lon="10.686546508018687"><ele>106.0</ele><time>2026-04-04T12:17:45Z</time></trkpt><trkpt lat="43.128899032441645" lon="10.68645970865948"><ele>106.0</ele><time>2026-04-04T12:17:46Z</time></trkpt><trkpt lat="43.128895144596456" lon="10.686360700250331"><ele>106.0</ele><time>2026-04-04T12:17:48Z</time></trkpt><trkpt lat="43.1287341613724" lon="10.68637163662123"><ele>106.0</ele><time>2026-04-04T12:17:49Z</time></trkpt><trkpt lat="43.12863789818983" lon="10.686380667604691"><ele>106.0</ele><time>2026-04-04T12:17:50Z</time></trkpt><trkpt lat="43.12853114079111" lon="10.6863589483417"><ele>106.0</ele><time>2026-04-04T12:17:51Z</time></trkpt><trkpt lat="43.12841612947106" lon="10.686347113296621"><ele>106.0</ele><time>2026-04-04T12:17:52Z</time></trkpt><trkpt lat="43.12831764631668" lon="10.68636515568948"><ele>106.0</ele><time>2026-04-04T12:17:53Z</time></trkpt><trkpt lat="43.12823418136895" lon="10.686430063978927"><ele>106.0</ele><time>2026-04-04T12:17:54Z</time></trkpt><trkpt lat="43.128163308611626" lon="10.686503313326497"><ele>106.33333333333334</ele><time>2026-04-04T12:17:55Z</time></trkpt><trkpt lat="43.128104116309316" lon="10.686584262288175"><ele>106.66666666666667</ele><time>2026-04-04T12:17:56Z</time></trkpt><trkpt lat="43.12805802920163" lon="10.686670871769646"><ele>107.0</ele><time>2026-04-04T12:17:57Z</time></trkpt><trkpt lat="43.128006553166074" lon="10.686722140659814"><ele>107.33333333333334</ele><time>2026-04-04T12:17:58Z</time></trkpt><trkpt lat="43.127941050291575" lon="10.686748896213253"><ele>107.66666666666667</ele><time>2026-04-04T12:17:59Z</time></trkpt><trkpt lat="43.1278484511474" lon="10.6867716867516"><ele>108.0</ele><time>2026-04-04T12:17:59.999Z</time></trkpt><trkpt lat="43.12774014773014" lon="10.68679686804773"><ele>108.0</ele><time>2026-04-04T12:18:00.999Z</time></trkpt><trkpt lat="43.12762235162169" lon="10.686820256404596"><ele>108.00000000000001</ele><time>2026-04-04T12:18:01.999Z</time></trkpt><trkpt lat="43.12755021848039" lon="10.686843648992333"><ele>108.00000000000001</ele><time>2026-04-04T12:18:02.999Z</time></trkpt><trkpt lat="43.12745415824762" lon="10.686886075056364"><ele>108.0</ele><time>2026-04-04T12:18:03.999Z</time></trkpt><trkpt lat="43.127360571926715" lon="10.686942842975913"><ele>108.0</ele><time>2026-04-04T12:18:04.999Z</time></trkpt><trkpt lat="43.127251425952004" lon="10.687020160818197"><ele>109.83333333333333</ele><time>2026-04-04T12:18:05.999Z</time></trkpt><trkpt lat="43.12717863128908" lon="10.68708279862359"><ele>111.66666666666666</ele><time>2026-04-04T12:18:06.999Z</time></trkpt><trkpt lat="43.127100096389604" lon="10.687175315907984"><ele>113.5</ele><time>2026-04-04T12:18:08.999Z</time></trkpt><trkpt lat="43.12704755807396" lon="10.687261700218219"><ele>115.33333333333333</ele><time>2026-04-04T12:18:09.999Z</time></trkpt><trkpt lat="43.12700906112865" lon="10.687344757213369"><ele>117.16666666666666</ele><time>2026-04-04T12:18:10.999Z</time></trkpt><trkpt lat="43.1269648293052" lon="10.687449890739837"><ele>119.0</ele><time>2026-04-04T12:18:11.999Z</time></trkpt><trkpt lat="43.12691394306189" lon="10.687573747672218"><ele>119.0</ele><time>2026-04-04T12:18:12.999Z</time></trkpt><trkpt lat="43.12686805991537" lon="10.687704308422296"><ele>119.0</ele><time>2026-04-04T12:18:13.999Z</time></trkpt><trkpt lat="43.126815014963555" lon="10.687844507741165"><ele>119.0</ele><time>2026-04-04T12:18:14.999Z</time></trkpt><trkpt lat="43.12676853910617" lon="10.687967421905299"><ele>119.0</ele><time>2026-04-04T12:18:15.999Z</time></trkpt><trkpt lat="43.126723810197184" lon="10.688098286964594"><ele>119.0</ele><time>2026-04-04T12:18:16.999Z</time></trkpt><trkpt lat="43.12669778880973" lon="10.688231855909489"><ele>118.80000000000001</ele><time>2026-04-04T12:18:17.999Z</time></trkpt><trkpt lat="43.12664963947347" lon="10.688331078977958"><ele>118.60000000000001</ele><time>2026-04-04T12:18:19.999Z</time></trkpt><trkpt lat="43.12656479724529" lon="10.688259405697075"><ele>118.4</ele><time>2026-04-04T12:18:21.999Z</time></trkpt><trkpt lat="43.12650362292918" lon="10.68809991751165"><ele>118.2</ele><time>2026-04-04T12:18:23.999Z</time></trkpt><trkpt lat="43.12644531585494" lon="10.688005582511103"><ele>118.0</ele><time>2026-04-04T12:18:24.999Z</time></trkpt><trkpt lat="43.12637930651758" lon="10.687940740308658"><ele>117.80000000000001</ele><time>2026-04-04T12:18:25.999Z</time></trkpt><trkpt lat="43.12622573129191" lon="10.687910136015924"><ele>117.60000000000001</ele><time>2026-04-04T12:18:27.999Z</time></trkpt><trkpt lat="43.12615199977891" lon="10.687872517841358"><ele>117.39999999999999</ele><time>2026-04-04T12:18:28.999Z</time></trkpt><trkpt lat="43.126062025759744" lon="10.687802341523799"><ele>117.19999999999999</ele><time>2026-04-04T12:18:29.999Z</time></trkpt><trkpt lat="43.12600463632309" lon="10.687743007007652"><ele>117.0</ele><time>2026-04-04T12:18:30.999Z</time></trkpt><trkpt lat="43.125948748449716" lon="10.687678644930312"><ele>118.83333333333333</ele><time>2026-04-04T12:18:31.999Z</time></trkpt><trkpt lat="43.12588860170258" lon="10.687623647291666"><ele>120.66666666666666</ele><time>2026-04-04T12:18:32.999Z</time></trkpt><trkpt lat="43.125811135950286" lon="10.687523433326735"><ele>122.5</ele><time>2026-04-04T12:18:34.999Z</time></trkpt><trkpt lat="43.12579958282876" lon="10.687432577364232"><ele>124.33333333333333</ele><time>2026-04-04T12:18:35.999Z</time></trkpt><trkpt lat="43.12579550272319" lon="10.687335874006031"><ele>126.16666666666666</ele><time>2026-04-04T12:18:36.999Z</time></trkpt><trkpt lat="43.12581734685323" lon="10.687245211465322"><ele>128.0</ele><time>2026-04-04T12:18:37.999Z</time></trkpt><trkpt lat="43.125847921652046" lon="10.68715499297039"><ele>127.99999999999999</ele><time>2026-04-04T12:18:38.999Z</time></trkpt><trkpt lat="43.12587216854016" lon="10.687071652846964"><ele>128.0</ele><time>2026-04-04T12:18:39.999Z</time></trkpt><trkpt lat="43.12590357812181" lon="10.686850417173373"><ele>128.0</ele><time>2026-04-04T12:18:41.999Z</time></trkpt><trkpt lat="43.12591112704478" lon="10.686736980684405"><ele>128.0</ele><time>2026-04-04T12:18:42.999Z</time></trkpt><trkpt lat="43.125896441145095" lon="10.68664319117905"><ele>127.99999999999999</ele><time>2026-04-04T12:18:43.999Z</time></trkpt><trkpt lat="43.12586774082447" lon="10.686561318760985"><ele>128.0</ele><time>2026-04-04T12:18:44.999Z</time></trkpt><trkpt lat="43.12582138905659" lon="10.686492832710353"><ele>128.4</ele><time>2026-04-04T12:18:45.999Z</time></trkpt><trkpt lat="43.12577810343957" lon="10.686421492677807"><ele>128.8</ele><time>2026-04-04T12:18:46.999Z</time></trkpt><trkpt lat="43.1257787718743" lon="10.68624830320714"><ele>129.2</ele><time>2026-04-04T12:18:48.999Z</time></trkpt><trkpt lat="43.12576599525015" lon="10.686126973226777"><ele>129.6</ele><time>2026-04-04T12:18:49.999Z</time></trkpt><trkpt lat="43.12576064918239" lon="10.685999075561377"><ele>130.0</ele><time>2026-04-04T12:18:50.999Z</time></trkpt><trkpt lat="43.12576792989685" lon="10.685882920260207"><ele>130.66666666666669</ele><time>2026-04-04T12:18:51.999Z</time></trkpt><trkpt lat="43.12578329303213" lon="10.685785381626351"><ele>131.33333333333334</ele><time>2026-04-04T12:18:52.999Z</time></trkpt><trkpt lat="43.1257910899726" lon="10.685682982758648"><ele>132.0</ele><time>2026-04-04T12:18:53.999Z</time></trkpt><trkpt lat="43.12579270008746" lon="10.68555135213032"><ele>132.66666666666666</ele><time>2026-04-04T12:18:54.999Z</time></trkpt><trkpt lat="43.1258029952371" lon="10.685410906294367"><ele>133.33333333333331</ele><time>2026-04-04T12:18:55.999Z</time></trkpt><trkpt lat="43.12581970661185" lon="10.685305028531408"><ele>134.0</ele><time>2026-04-04T12:18:56.999Z</time></trkpt><trkpt lat="43.12583622838346" lon="10.685168342568543"><ele>135.0</ele><time>2026-04-04T12:18:57.998Z</time></trkpt><trkpt lat="43.12586159233722" lon="10.685067650385841"><ele>136.0</ele><time>2026-04-04T12:18:58.998Z</time></trkpt><trkpt lat="43.125877238818816" lon="10.684940847028376"><ele>137.0</ele><time>2026-04-04T12:18:59.998Z</time></trkpt><trkpt lat="43.12588697560216" lon="10.68481746879723"><ele>138.0</ele><time>2026-04-04T12:19:00.998Z</time></trkpt><trkpt lat="43.12589527311508" lon="10.684695744691918"><ele>139.0</ele><time>2026-04-04T12:19:01.998Z</time></trkpt><trkpt lat="43.12589520876342" lon="10.684565405538374"><ele>140.0</ele><time>2026-04-04T12:19:02.998Z</time></trkpt><trkpt lat="43.12588831636851" lon="10.684464684451921"><ele>141.33333333333331</ele><time>2026-04-04T12:19:03.998Z</time></trkpt><trkpt lat="43.12585601356969" lon="10.684369618841476"><ele>142.66666666666666</ele><time>2026-04-04T12:19:04.998Z</time></trkpt><trkpt lat="43.125830131694514" lon="10.684251680265064"><ele>144.0</ele><time>2026-04-04T12:19:05.998Z</time></trkpt><trkpt lat="43.1258187699182" lon="10.684143161441646"><ele>145.33333333333334</ele><time>2026-04-04T12:19:06.998Z</time></trkpt><trkpt lat="43.12582353135532" lon="10.684045037612476"><ele>146.66666666666669</ele><time>2026-04-04T12:19:07.998Z</time></trkpt><trkpt lat="43.12582160144848" lon="10.683936272202336"><ele>148.0</ele><time>2026-04-04T12:19:08.998Z</time></trkpt><trkpt lat="43.12580754276575" lon="10.683836130663444"><ele>148.0</ele><time>2026-04-04T12:19:09.998Z</time></trkpt><trkpt lat="43.12580414467182" lon="10.683715246004006"><ele>148.0</ele><time>2026-04-04T12:19:10.998Z</time></trkpt><trkpt lat="43.1258000440045" lon="10.683622454402807"><ele>148.0</ele><time>2026-04-04T12:19:11.998Z</time></trkpt><trkpt lat="43.12579500772887" lon="10.68352893551849"><ele>148.0</ele><time>2026-04-04T12:19:12.998Z</time></trkpt><trkpt lat="43.125788788917106" lon="10.683329839041328"><ele>148.0</ele><time>2026-04-04T12:19:14.998Z</time></trkpt><trkpt lat="43.12574198230101" lon="10.683135858663785"><ele>151.5</ele><time>2026-04-04T12:19:16.998Z</time></trkpt><trkpt lat="43.125722971198456" lon="10.683037882688215"><ele>155.0</ele><time>2026-04-04T12:19:17.998Z</time></trkpt><trkpt lat="43.12569759404314" lon="10.682925474588682"><ele>158.5</ele><time>2026-04-04T12:19:18.998Z</time></trkpt><trkpt lat="43.12567374191596" lon="10.682803368534591"><ele>162.0</ele><time>2026-04-04T12:19:19.998Z</time></trkpt><trkpt lat="43.12566130153103" lon="10.6826934774989"><ele>165.5</ele><time>2026-04-04T12:19:20.998Z</time></trkpt><trkpt lat="43.12565040127313" lon="10.682580536508379"><ele>169.0</ele><time>2026-04-04T12:19:21.998Z</time></trkpt><trkpt lat="43.12565300548578" lon="10.682489412155789"><ele>171.2</ele><time>2026-04-04T12:19:22.998Z</time></trkpt><trkpt lat="43.12562082639072" lon="10.682396913505592"><ele>173.39999999999998</ele><time>2026-04-04T12:19:23.998Z</time></trkpt><trkpt lat="43.12557824703824" lon="10.682296172048263"><ele>175.6</ele><time>2026-04-04T12:19:24.998Z</time></trkpt><trkpt lat="43.12552740062315" lon="10.682214368181828"><ele>177.8</ele><time>2026-04-04T12:19:25.998Z</time></trkpt><trkpt lat="43.125432748618906" lon="10.682101573891227"><ele>180.0</ele><time>2026-04-04T12:19:28Z</time></trkpt><trkpt lat="43.125363980439786" lon="10.68198387552918"><ele>181.5</ele><time>2026-04-04T12:19:30Z</time></trkpt><trkpt lat="43.12531938959391" lon="10.681917726841453"><ele>183.0</ele><time>2026-04-04T12:19:31Z</time></trkpt><trkpt lat="43.12523951003634" lon="10.681875619801895"><ele>184.5</ele><time>2026-04-04T12:19:32Z</time></trkpt><trkpt lat="43.12514616048582" lon="10.68180396987797"><ele>186.0</ele><time>2026-04-04T12:19:33Z</time></trkpt><trkpt lat="43.12510341725974" lon="10.681733400297771"><ele>187.5</ele><time>2026-04-04T12:19:34Z</time></trkpt><trkpt lat="43.125039490818935" lon="10.681651418585888"><ele>189.0</ele><time>2026-04-04T12:19:36Z</time></trkpt><trkpt lat="43.12498710763598" lon="10.681537173806566"><ele>189.0</ele><time>2026-04-04T12:19:38Z</time></trkpt><trkpt lat="43.12494345896291" lon="10.681411066092965"><ele>189.0</ele><time>2026-04-04T12:19:40Z</time></trkpt><trkpt lat="43.124870078226905" lon="10.681290037507388"><ele>189.0</ele><time>2026-04-04T12:19:42Z</time></trkpt><trkpt lat="43.12481337432628" lon="10.681185392391944"><ele>189.0</ele><time>2026-04-04T12:19:43Z</time></trkpt><trkpt lat="43.124718915047524" lon="10.681103856597296"><ele>189.0</ele><time>2026-04-04T12:19:44Z</time></trkpt><trkpt lat="43.124652736489" lon="10.681092274310073"><ele>193.25</ele><time>2026-04-04T12:19:45Z</time></trkpt><trkpt lat="43.12456312758167" lon="10.681100701692612"><ele>197.5</ele><time>2026-04-04T12:19:46Z</time></trkpt><trkpt lat="43.124425621620226" lon="10.681188244240051"><ele>201.75</ele><time>2026-04-04T12:19:48Z</time></trkpt><trkpt lat="43.12433040782905" lon="10.68127645104679"><ele>206.0</ele><time>2026-04-04T12:19:49Z</time></trkpt><trkpt lat="43.12423865418513" lon="10.681353571983822"><ele>206.00000000000003</ele><time>2026-04-04T12:19:50Z</time></trkpt><trkpt lat="43.12417897416353" lon="10.681398573163618"><ele>206.0</ele><time>2026-04-04T12:19:51Z</time></trkpt><trkpt lat="43.124080136608974" lon="10.681363161721178"><ele>206.0</ele><time>2026-04-04T12:19:53Z</time></trkpt><trkpt lat="43.12402199767002" lon="10.68130613993281"><ele>206.0</ele><time>2026-04-04T12:19:54Z</time></trkpt><trkpt lat="43.12398124771534" lon="10.681232176590774"><ele>206.00000000000003</ele><time>2026-04-04T12:19:55Z</time></trkpt><trkpt lat="43.12393781923416" lon="10.681135124908316"><ele>206.0</ele><time>2026-04-04T12:19:56Z</time></trkpt><trkpt lat="43.12389274083909" lon="10.681004995574769"><ele>209.75</ele><time>2026-04-04T12:19:57Z</time></trkpt><trkpt lat="43.123854504670895" lon="10.680846739619371"><ele>213.5</ele><time>2026-04-04T12:19:58Z</time></trkpt><trkpt lat="43.12381007091773" lon="10.680664724245005"><ele>217.25</ele><time>2026-04-04T12:19:59Z</time></trkpt><trkpt lat="43.123770363872204" lon="10.680509450503417"><ele>221.0</ele><time>2026-04-04T12:20:00Z</time></trkpt><trkpt lat="43.123726412348496" lon="10.680361899625268"><ele>222.60000000000002</ele><time>2026-04-04T12:20:01Z</time></trkpt><trkpt lat="43.1236948523027" lon="10.680236385610144"><ele>224.20000000000002</ele><time>2026-04-04T12:20:01.999Z</time></trkpt><trkpt lat="43.12366657561128" lon="10.680100816620131"><ele>225.79999999999998</ele><time>2026-04-04T12:20:02.999Z</time></trkpt><trkpt lat="43.12364556289467" lon="10.679976328507843"><ele>227.39999999999998</ele><time>2026-04-04T12:20:03.999Z</time></trkpt><trkpt lat="43.12362148318316" lon="10.679864373348742"><ele>229.0</ele><time>2026-04-04T12:20:04.999Z</time></trkpt><trkpt lat="43.123599278959325" lon="10.679765532087805"><ele>229.0</ele><time>2026-04-04T12:20:05.999Z</time></trkpt><trkpt lat="43.123572653247855" lon="10.679639508286252"><ele>228.99999999999997</ele><time>2026-04-04T12:20:06.999Z</time></trkpt><trkpt lat="43.123547846857825" lon="10.679534600913676"><ele>228.99999999999997</ele><time>2026-04-04T12:20:07.999Z</time></trkpt><trkpt lat="43.123519121003305" lon="10.67941777260434"><ele>229.0</ele><time>2026-04-04T12:20:08.999Z</time></trkpt><trkpt lat="43.12349418346126" lon="10.679304806630189"><ele>229.0</ele><time>2026-04-04T12:20:09.999Z</time></trkpt><trkpt lat="43.123475358028195" lon="10.679138331411336"><ele>227.79999999999998</ele><time>2026-04-04T12:20:11.999Z</time></trkpt><trkpt lat="43.12347991501389" lon="10.678931278688218"><ele>226.59999999999997</ele><time>2026-04-04T12:20:13.999Z</time></trkpt><trkpt lat="43.123478485962394" lon="10.678821915443624"><ele>225.4</ele><time>2026-04-04T12:20:14.999Z</time></trkpt><trkpt lat="43.12346558357896" lon="10.67866837224029"><ele>224.2</ele><time>2026-04-04T12:20:15.999Z</time></trkpt><trkpt lat="43.123474516569466" lon="10.67853495474286"><ele>223.0</ele><time>2026-04-04T12:20:16.999Z</time></trkpt><trkpt lat="43.12349062798321" lon="10.67839525977293"><ele>220.5</ele><time>2026-04-04T12:20:17.999Z</time></trkpt><trkpt lat="43.12351836852368" lon="10.678232757492664"><ele>218.0</ele><time>2026-04-04T12:20:18.999Z</time></trkpt><trkpt lat="43.12354811854449" lon="10.678051605013117"><ele>215.5</ele><time>2026-04-04T12:20:19.999Z</time></trkpt><trkpt lat="43.12357750255463" lon="10.677873458972424"><ele>213.0</ele><time>2026-04-04T12:20:20.999Z</time></trkpt><trkpt lat="43.12360008090243" lon="10.677683921298431"><ele>210.75</ele><time>2026-04-04T12:20:21.999Z</time></trkpt><trkpt lat="43.12361908386889" lon="10.677509969077178"><ele>208.5</ele><time>2026-04-04T12:20:22.999Z</time></trkpt><trkpt lat="43.123623144813635" lon="10.677355382736108"><ele>206.25</ele><time>2026-04-04T12:20:23.999Z</time></trkpt><trkpt lat="43.123626961753345" lon="10.677209799400629"><ele>204.0</ele><time>2026-04-04T12:20:24.999Z</time></trkpt><trkpt lat="43.12362564299005" lon="10.67699888781107"><ele>203.75</ele><time>2026-04-04T12:20:26.999Z</time></trkpt><trkpt lat="43.12362147774214" lon="10.676822063525602"><ele>203.5</ele><time>2026-04-04T12:20:27.999Z</time></trkpt><trkpt lat="43.123601759386005" lon="10.676631172494607"><ele>203.25</ele><time>2026-04-04T12:20:28.999Z</time></trkpt><trkpt lat="43.12357885086053" lon="10.6764728952353"><ele>203.0</ele><time>2026-04-04T12:20:29.999Z</time></trkpt><trkpt lat="43.12357075624324" lon="10.676310133329745"><ele>203.0</ele><time>2026-04-04T12:20:30.999Z</time></trkpt><trkpt lat="43.12357481181127" lon="10.67617053378204"><ele>203.0</ele><time>2026-04-04T12:20:31.999Z</time></trkpt><trkpt lat="43.12358227720897" lon="10.676017924497986"><ele>203.0</ele><time>2026-04-04T12:20:32.999Z</time></trkpt><trkpt lat="43.12357422134007" lon="10.675849010394323"><ele>203.0</ele><time>2026-04-04T12:20:33.999Z</time></trkpt><trkpt lat="43.123543920629274" lon="10.675637847520004"><ele>203.0</ele><time>2026-04-04T12:20:34.999Z</time></trkpt><trkpt lat="43.12350860120111" lon="10.675392003595116"><ele>203.0</ele><time>2026-04-04T12:20:35.999Z</time></trkpt><trkpt lat="43.12349493695917" lon="10.675158949504334"><ele>203.0</ele><time>2026-04-04T12:20:36.999Z</time></trkpt><trkpt lat="43.12348780526585" lon="10.674967262000216"><ele>202.25</ele><time>2026-04-04T12:20:37.999Z</time></trkpt><trkpt lat="43.123467030083205" lon="10.67476769309"><ele>201.5</ele><time>2026-04-04T12:20:38.999Z</time></trkpt><trkpt lat="43.12344243494328" lon="10.674574279657888"><ele>200.75</ele><time>2026-04-04T12:20:39.999Z</time></trkpt><trkpt lat="43.12341093624499" lon="10.67439962982521"><ele>200.0</ele><time>2026-04-04T12:20:40.999Z</time></trkpt><trkpt lat="43.12336205976073" lon="10.674213927267283"><ele>200.0</ele><time>2026-04-04T12:20:41.999Z</time></trkpt><trkpt lat="43.123312154048946" lon="10.674064733154257"><ele>200.0</ele><time>2026-04-04T12:20:42.999Z</time></trkpt><trkpt lat="43.123253193869964" lon="10.673956324004495"><ele>200.0</ele><time>2026-04-04T12:20:43.999Z</time></trkpt><trkpt lat="43.12318605521461" lon="10.673876097409797"><ele>200.0</ele><time>2026-04-04T12:20:44.999Z</time></trkpt><trkpt lat="43.12312732192483" lon="10.673811696865279"><ele>200.0</ele><time>2026-04-04T12:20:45.999Z</time></trkpt><trkpt lat="43.12314478807505" lon="10.673694398202255"><ele>197.25</ele><time>2026-04-04T12:20:47.999Z</time></trkpt><trkpt lat="43.12316076772568" lon="10.673539161874087"><ele>194.5</ele><time>2026-04-04T12:20:49.999Z</time></trkpt><trkpt lat="43.12313042180968" lon="10.673435811549531"><ele>191.75</ele><time>2026-04-04T12:20:50.999Z</time></trkpt><trkpt lat="43.1230715516833" lon="10.673286014758439"><ele>189.0</ele><time>2026-04-04T12:20:51.999Z</time></trkpt><trkpt lat="43.122996361273024" lon="10.673080879750543"><ele>189.0</ele><time>2026-04-04T12:20:52.999Z</time></trkpt><trkpt lat="43.12294361897487" lon="10.672893590094146"><ele>189.0</ele><time>2026-04-04T12:20:53.999Z</time></trkpt><trkpt lat="43.12291437717424" lon="10.672736351568679"><ele>189.0</ele><time>2026-04-04T12:20:54.999Z</time></trkpt><trkpt lat="43.12289451329241" lon="10.672632964672362"><ele>189.0</ele><time>2026-04-04T12:20:55.999Z</time></trkpt><trkpt lat="43.122882039597826" lon="10.672477161049118"><ele>189.5</ele><time>2026-04-04T12:20:57.999Z</time></trkpt><trkpt lat="43.122874120525275" lon="10.672366552817696"><ele>190.0</ele><time>2026-04-04T12:20:58.999Z</time></trkpt><trkpt lat="43.12286332079811" lon="10.672217518525938"><ele>190.5</ele><time>2026-04-04T12:21:00.999Z</time></trkpt><trkpt lat="43.12289932486384" lon="10.672126228881716"><ele>191.0</ele><time>2026-04-04T12:21:02.999Z</time></trkpt><trkpt lat="43.12291374492207" lon="10.672004896895853"><ele>191.5</ele><time>2026-04-04T12:23:17.999Z</time></trkpt><trkpt lat="43.122920595637744" lon="10.67190374061894"><ele>192.0</ele><time>2026-04-04T12:23:18.998Z</time></trkpt><trkpt lat="43.122926603014776" lon="10.671797311478098"><ele>192.0</ele><time>2026-04-04T12:23:19.998Z</time></trkpt><trkpt lat="43.12292957749378" lon="10.671656927223916"><ele>192.0</ele><time>2026-04-04T12:23:20.998Z</time></trkpt><trkpt lat="43.122937295473434" lon="10.671517148510503"><ele>192.0</ele><time>2026-04-04T12:23:21.998Z</time></trkpt><trkpt lat="43.12295176909881" lon="10.671367714316146"><ele>192.0</ele><time>2026-04-04T12:23:22.998Z</time></trkpt><trkpt lat="43.1229574739018" lon="10.671212348939374"><ele>192.0</ele><time>2026-04-04T12:23:23.998Z</time></trkpt><trkpt lat="43.12295630254393" lon="10.671078215063433"><ele>194.0</ele><time>2026-04-04T12:23:24.998Z</time></trkpt><trkpt lat="43.122953996814694" lon="10.670935557632587"><ele>196.0</ele><time>2026-04-04T12:23:25.998Z</time></trkpt><trkpt lat="43.122960639905536" lon="10.670793432819158"><ele>198.0</ele><time>2026-04-04T12:23:26.998Z</time></trkpt><trkpt lat="43.12296343321085" lon="10.67065882338756"><ele>200.0</ele><time>2026-04-04T12:23:27.998Z</time></trkpt><trkpt lat="43.122974127212025" lon="10.67053904102227"><ele>202.0</ele><time>2026-04-04T12:23:28.998Z</time></trkpt><trkpt lat="43.12298796768188" lon="10.670421648782751"><ele>201.99999999999997</ele><time>2026-04-04T12:23:29.998Z</time></trkpt><trkpt lat="43.12299770091569" lon="10.670290081675923"><ele>202.0</ele><time>2026-04-04T12:23:30.998Z</time></trkpt><trkpt lat="43.12299884521926" lon="10.670182444483615"><ele>202.0</ele><time>2026-04-04T12:23:31.998Z</time></trkpt><trkpt lat="43.12299635393658" lon="10.670060827523866"><ele>202.0</ele><time>2026-04-04T12:23:32.998Z</time></trkpt><trkpt lat="43.12298475833345" lon="10.669957113139404"><ele>201.99999999999997</ele><time>2026-04-04T12:23:33.998Z</time></trkpt><trkpt lat="43.122970648110126" lon="10.669833853900014"><ele>202.0</ele><time>2026-04-04T12:23:34.998Z</time></trkpt><trkpt lat="43.122963808497936" lon="10.669737582873168"><ele>202.83333333333331</ele><time>2026-04-04T12:23:35.998Z</time></trkpt><trkpt lat="43.12295812668332" lon="10.669642990699591"><ele>203.66666666666666</ele><time>2026-04-04T12:23:36.998Z</time></trkpt><trkpt lat="43.122976459090516" lon="10.66955236168547"><ele>204.5</ele><time>2026-04-04T12:23:37.998Z</time></trkpt><trkpt lat="43.123025071160725" lon="10.669464117730534"><ele>205.33333333333331</ele><time>2026-04-04T12:23:39Z</time></trkpt><trkpt lat="43.123085753547265" lon="10.669374688763419"><ele>206.16666666666666</ele><time>2026-04-04T12:23:40Z</time></trkpt><trkpt lat="43.12314023430164" lon="10.669310149929593"><ele>207.0</ele><time>2026-04-04T12:23:41Z</time></trkpt><trkpt lat="43.123204053216185" lon="10.66922932055438"><ele>210.6</ele><time>2026-04-04T12:23:42Z</time></trkpt><trkpt lat="43.12327046027608" lon="10.669134353183605"><ele>214.2</ele><time>2026-04-04T12:23:43Z</time></trkpt><trkpt lat="43.12331029680172" lon="10.669030552926358"><ele>217.8</ele><time>2026-04-04T12:23:44Z</time></trkpt><trkpt lat="43.12333675238002" lon="10.668914793039754"><ele>221.4</ele><time>2026-04-04T12:23:45Z</time></trkpt><trkpt lat="43.12334733177207" lon="10.668785548485056"><ele>225.0</ele><time>2026-04-04T12:23:46Z</time></trkpt><trkpt lat="43.12337537853601" lon="10.668664347138364"><ele>225.2</ele><time>2026-04-04T12:23:47Z</time></trkpt><trkpt lat="43.12341433106997" lon="10.668554725200636"><ele>225.4</ele><time>2026-04-04T12:23:48Z</time></trkpt><trkpt lat="43.1234580107755" lon="10.668418853566529"><ele>225.60000000000002</ele><time>2026-04-04T12:23:49Z</time></trkpt><trkpt lat="43.123509350503646" lon="10.66829848800174"><ele>225.8</ele><time>2026-04-04T12:23:50Z</time></trkpt><trkpt lat="43.12355589231035" lon="10.668195111166325"><ele>226.0</ele><time>2026-04-04T12:23:51Z</time></trkpt><trkpt lat="43.12359724487581" lon="10.668095980294567"><ele>226.0</ele><time>2026-04-04T12:23:52Z</time></trkpt><trkpt lat="43.12363287347079" lon="10.667984864553972"><ele>226.00000000000003</ele><time>2026-04-04T12:23:53Z</time></trkpt><trkpt lat="43.12365367060368" lon="10.6678512456879"><ele>226.00000000000003</ele><time>2026-04-04T12:23:54Z</time></trkpt><trkpt lat="43.12367302542701" lon="10.667694488467678"><ele>226.0</ele><time>2026-04-04T12:23:55Z</time></trkpt><trkpt lat="43.12367630078717" lon="10.667544992232333"><ele>226.0</ele><time>2026-04-04T12:23:56Z</time></trkpt><trkpt lat="43.12368250757738" lon="10.66742218940554"><ele>225.8</ele><time>2026-04-04T12:23:57Z</time></trkpt><trkpt lat="43.123695977621665" lon="10.667304431066146"><ele>225.60000000000002</ele><time>2026-04-04T12:23:58Z</time></trkpt><trkpt lat="43.12372080726571" lon="10.667189110784147"><ele>225.4</ele><time>2026-04-04T12:23:59Z</time></trkpt><trkpt lat="43.12376349819808" lon="10.667083771006606"><ele>225.2</ele><time>2026-04-04T12:24:00Z</time></trkpt><trkpt lat="43.123858239098084" lon="10.666959379414138"><ele>225.0</ele><time>2026-04-04T12:24:02Z</time></trkpt><trkpt lat="43.12392335169597" lon="10.666912419145648"><ele>225.8</ele><time>2026-04-04T12:24:03Z</time></trkpt><trkpt lat="43.12395789440584" lon="10.6667827420746"><ele>226.6</ele><time>2026-04-04T12:24:05Z</time></trkpt><trkpt lat="43.12388346985196" lon="10.66666198039456"><ele>227.39999999999998</ele><time>2026-04-04T12:24:07Z</time></trkpt><trkpt lat="43.12383485330204" lon="10.66654399702349"><ele>228.2</ele><time>2026-04-04T12:24:09Z</time></trkpt><trkpt lat="43.1238719311637" lon="10.666444223384113"><ele>229.0</ele><time>2026-04-04T12:24:11Z</time></trkpt><trkpt lat="43.12391833876803" lon="10.666382643096995"><ele>228.99999999999997</ele><time>2026-04-04T12:24:12Z</time></trkpt><trkpt lat="43.123966414821844" lon="10.666313438624696"><ele>229.0</ele><time>2026-04-04T12:24:13Z</time></trkpt><trkpt lat="43.12402410997345" lon="10.666179582540524"><ele>229.0</ele><time>2026-04-04T12:24:15Z</time></trkpt><trkpt lat="43.12404355246" lon="10.666091572893363"><ele>229.0</ele><time>2026-04-04T12:24:16Z</time></trkpt><trkpt lat="43.124043538671394" lon="10.665990102807456"><ele>228.99999999999997</ele><time>2026-04-04T12:24:17Z</time></trkpt><trkpt lat="43.12403561673496" lon="10.665898460972118"><ele>229.0</ele><time>2026-04-04T12:24:18Z</time></trkpt><trkpt lat="43.12397080695206" lon="10.665725134926491"><ele>229.66666666666666</ele><time>2026-04-04T12:24:20Z</time></trkpt><trkpt lat="43.12392293652804" lon="10.665619462134323"><ele>230.33333333333331</ele><time>2026-04-04T12:24:21Z</time></trkpt><trkpt lat="43.123882776221656" lon="10.665528304632042"><ele>231.0</ele><time>2026-04-04T12:24:22Z</time></trkpt><trkpt lat="43.123832569528204" lon="10.665441946738515"><ele>231.66666666666669</ele><time>2026-04-04T12:24:22.999Z</time></trkpt><trkpt lat="43.12378668027638" lon="10.665364324499972"><ele>232.33333333333334</ele><time>2026-04-04T12:24:23.999Z</time></trkpt><trkpt lat="43.123727967568655" lon="10.665261883841021"><ele>233.0</ele><time>2026-04-04T12:24:24.999Z</time></trkpt><trkpt lat="43.12368515552569" lon="10.665159128647154"><ele>233.4</ele><time>2026-04-04T12:24:25.999Z</time></trkpt><trkpt lat="43.123654914468354" lon="10.665050401344713"><ele>233.8</ele><time>2026-04-04T12:24:26.999Z</time></trkpt><trkpt lat="43.123632163916" lon="10.664915180811576"><ele>234.2</ele><time>2026-04-04T12:24:27.999Z</time></trkpt><trkpt lat="43.12361878315304" lon="10.66475156142503"><ele>234.6</ele><time>2026-04-04T12:24:28.999Z</time></trkpt><trkpt lat="43.12360338298317" lon="10.664596900090826"><ele>235.0</ele><time>2026-04-04T12:24:29.999Z</time></trkpt><trkpt lat="43.12357555073068" lon="10.664466866112278"><ele>235.4</ele><time>2026-04-04T12:24:30.999Z</time></trkpt><trkpt lat="43.12355322610614" lon="10.664330985403215"><ele>235.8</ele><time>2026-04-04T12:24:31.999Z</time></trkpt><trkpt lat="43.12354049985082" lon="10.664195804487921"><ele>236.2</ele><time>2026-04-04T12:24:32.999Z</time></trkpt><trkpt lat="43.123525531642144" lon="10.664046349363305"><ele>236.6</ele><time>2026-04-04T12:24:33.999Z</time></trkpt><trkpt lat="43.12350962614925" lon="10.663897648333814"><ele>237.0</ele><time>2026-04-04T12:24:34.999Z</time></trkpt><trkpt lat="43.12349602508717" lon="10.663761972441835"><ele>237.0</ele><time>2026-04-04T12:24:35.999Z</time></trkpt><trkpt lat="43.12347904188999" lon="10.663633811871359"><ele>237.0</ele><time>2026-04-04T12:24:36.999Z</time></trkpt><trkpt lat="43.12346085014741" lon="10.663509309625262"><ele>237.0</ele><time>2026-04-04T12:24:37.999Z</time></trkpt><trkpt lat="43.1234454480341" lon="10.663388833711135"><ele>237.0</ele><time>2026-04-04T12:24:38.999Z</time></trkpt><trkpt lat="43.12342233724057" lon="10.663266557935415"><ele>237.0</ele><time>2026-04-04T12:24:39.999Z</time></trkpt><trkpt lat="43.12339056963077" lon="10.663152254247677"><ele>237.16666666666666</ele><time>2026-04-04T12:24:40.999Z</time></trkpt><trkpt lat="43.12334100762324" lon="10.663046897552178"><ele>237.33333333333331</ele><time>2026-04-04T12:24:41.999Z</time></trkpt><trkpt lat="43.12328999749338" lon="10.662951751428652"><ele>237.5</ele><time>2026-04-04T12:24:42.999Z</time></trkpt><trkpt lat="43.12324427500123" lon="10.662850322392725"><ele>237.66666666666666</ele><time>2026-04-04T12:24:43.999Z</time></trkpt><trkpt lat="43.12321348405006" lon="10.662742646725166"><ele>237.83333333333331</ele><time>2026-04-04T12:24:44.999Z</time></trkpt><trkpt lat="43.12320292237839" lon="10.662623520481484"><ele>238.0</ele><time>2026-04-04T12:24:45.999Z</time></trkpt><trkpt lat="43.12320634285374" lon="10.662478443691967"><ele>235.2</ele><time>2026-04-04T12:24:46.999Z</time></trkpt><trkpt lat="43.123210742665535" lon="10.662327812560637"><ele>232.4</ele><time>2026-04-04T12:24:47.999Z</time></trkpt><trkpt lat="43.123211112560064" lon="10.66218212400743"><ele>229.59999999999997</ele><time>2026-04-04T12:24:48.999Z</time></trkpt><trkpt lat="43.12320331497828" lon="10.662025777084061"><ele>226.79999999999998</ele><time>2026-04-04T12:24:49.999Z</time></trkpt><trkpt lat="43.1231825751023" lon="10.661870464034338"><ele>224.0</ele><time>2026-04-04T12:24:50.999Z</time></trkpt><trkpt lat="43.123164629171825" lon="10.661714286538986"><ele>224.0</ele><time>2026-04-04T12:24:51.999Z</time></trkpt><trkpt lat="43.12315178170872" lon="10.661570090648729"><ele>223.99999999999997</ele><time>2026-04-04T12:24:52.999Z</time></trkpt><trkpt lat="43.12313673334814" lon="10.661436173964132"><ele>223.99999999999997</ele><time>2026-04-04T12:24:53.999Z</time></trkpt><trkpt lat="43.123138310157124" lon="10.66130372161131"><ele>224.0</ele><time>2026-04-04T12:24:54.999Z</time></trkpt><trkpt lat="43.123148326849496" lon="10.661171589001023"><ele>224.0</ele><time>2026-04-04T12:24:55.999Z</time></trkpt><trkpt lat="43.12314900262603" lon="10.661059177088587"><ele>225.79999999999998</ele><time>2026-04-04T12:24:56.999Z</time></trkpt><trkpt lat="43.12313388058505" lon="10.660932377065427"><ele>227.59999999999997</ele><time>2026-04-04T12:24:57.999Z</time></trkpt><trkpt lat="43.123092798749134" lon="10.660814905529284"><ele>229.4</ele><time>2026-04-04T12:24:58.999Z</time></trkpt><trkpt lat="43.12302770928779" lon="10.660686220586836"><ele>231.2</ele><time>2026-04-04T12:24:59.999Z</time></trkpt><trkpt lat="43.12295719046938" lon="10.660592765511161"><ele>233.0</ele><time>2026-04-04T12:25:00.999Z</time></trkpt><trkpt lat="43.12289481796581" lon="10.660485262236099"><ele>233.0</ele><time>2026-04-04T12:25:01.999Z</time></trkpt><trkpt lat="43.122831199150625" lon="10.660393295238137"><ele>233.0</ele><time>2026-04-04T12:25:02.999Z</time></trkpt><trkpt lat="43.12276973527" lon="10.66029353714261"><ele>233.0</ele><time>2026-04-04T12:25:03.999Z</time></trkpt><trkpt lat="43.122694039624776" lon="10.660220659270617"><ele>233.0</ele><time>2026-04-04T12:25:04.999Z</time></trkpt><trkpt lat="43.122614178007765" lon="10.660157872442348"><ele>233.0</ele><time>2026-04-04T12:25:05.999Z</time></trkpt><trkpt lat="43.12253490028335" lon="10.660100077030613"><ele>234.8</ele><time>2026-04-04T12:25:06.999Z</time></trkpt><trkpt lat="43.1224592924042" lon="10.660027690465343"><ele>236.60000000000002</ele><time>2026-04-04T12:25:07.999Z</time></trkpt><trkpt lat="43.122412120294236" lon="10.65995155307128"><ele>238.39999999999998</ele><time>2026-04-04T12:25:08.999Z</time></trkpt><trkpt lat="43.122397526474096" lon="10.659847103369458"><ele>240.2</ele><time>2026-04-04T12:25:09.999Z</time></trkpt><trkpt lat="43.1224521915462" lon="10.65973060622299"><ele>242.0</ele><time>2026-04-04T12:25:11.999Z</time></trkpt><trkpt lat="43.12258475045287" lon="10.659668118649238"><ele>242.0</ele><time>2026-04-04T12:25:13.999Z</time></trkpt><trkpt lat="43.1226755526119" lon="10.659657837590022"><ele>242.0</ele><time>2026-04-04T12:25:14.999Z</time></trkpt><trkpt lat="43.122764528615185" lon="10.659650685738312"><ele>242.0</ele><time>2026-04-04T12:25:15.999Z</time></trkpt><trkpt lat="43.12283407052485" lon="10.659626820261012"><ele>242.0</ele><time>2026-04-04T12:25:16.999Z</time></trkpt><trkpt lat="43.12294329368313" lon="10.659523359915173"><ele>242.0</ele><time>2026-04-04T12:25:18.999Z</time></trkpt><trkpt lat="43.12297471574848" lon="10.659428821254442"><ele>241.83333333333334</ele><time>2026-04-04T12:25:19.999Z</time></trkpt><trkpt lat="43.12300187736705" lon="10.659337268619815"><ele>241.66666666666669</ele><time>2026-04-04T12:25:20.999Z</time></trkpt><trkpt lat="43.12303018707678" lon="10.659225646205826"><ele>241.5</ele><time>2026-04-04T12:25:21.999Z</time></trkpt><trkpt lat="43.12305832205053" lon="10.659120480722981"><ele>241.33333333333331</ele><time>2026-04-04T12:25:22.998Z</time></trkpt><trkpt lat="43.123095364904785" lon="10.658989592054478"><ele>241.16666666666666</ele><time>2026-04-04T12:25:23.998Z</time></trkpt><trkpt lat="43.123132766230526" lon="10.658881355968257"><ele>241.0</ele><time>2026-04-04T12:25:24.998Z</time></trkpt><trkpt lat="43.12316985847225" lon="10.658780468358298"><ele>241.0</ele><time>2026-04-04T12:25:25.998Z</time></trkpt><trkpt lat="43.12320127994707" lon="10.658660758320929"><ele>241.00000000000003</ele><time>2026-04-04T12:25:26.998Z</time></trkpt><trkpt lat="43.12320702468705" lon="10.65853042700851"><ele>241.00000000000003</ele><time>2026-04-04T12:25:27.998Z</time></trkpt><trkpt lat="43.12320311201067" lon="10.658408392708894"><ele>241.0</ele><time>2026-04-04T12:25:28.998Z</time></trkpt><trkpt lat="43.1231894425951" lon="10.658287301085249"><ele>241.0</ele><time>2026-04-04T12:25:29.998Z</time></trkpt><trkpt lat="43.12320044389437" lon="10.658162797339772"><ele>243.0</ele><time>2026-04-04T12:25:30.998Z</time></trkpt><trkpt lat="43.12316774090102" lon="10.658043499974708"><ele>245.00000000000003</ele><time>2026-04-04T12:25:31.998Z</time></trkpt><trkpt lat="43.12313993559305" lon="10.657926192531141"><ele>247.00000000000003</ele><time>2026-04-04T12:25:32.998Z</time></trkpt><trkpt lat="43.12312611927415" lon="10.657793638537727"><ele>249.0</ele><time>2026-04-04T12:25:33.998Z</time></trkpt><trkpt lat="43.12311342014127" lon="10.65766599967631"><ele>251.0</ele><time>2026-04-04T12:25:34.998Z</time></trkpt><trkpt lat="43.12313826560662" lon="10.657547737863673"><ele>254.00000000000003</ele><time>2026-04-04T12:25:35.998Z</time></trkpt><trkpt lat="43.123163108103576" lon="10.657443992730803"><ele>257.0</ele><time>2026-04-04T12:25:36.998Z</time></trkpt><trkpt lat="43.12317539957943" lon="10.657335132050365"><ele>260.0</ele><time>2026-04-04T12:25:37.998Z</time></trkpt><trkpt lat="43.1231664678488" lon="10.657227747303967"><ele>263.0</ele><time>2026-04-04T12:25:38.998Z</time></trkpt><trkpt lat="43.12313828276687" lon="10.657110734254493"><ele>266.0</ele><time>2026-04-04T12:25:39.998Z</time></trkpt><trkpt lat="43.1231056625324" lon="10.65697895802674"><ele>269.0</ele><time>2026-04-04T12:25:40.998Z</time></trkpt><trkpt lat="43.123074688728444" lon="10.656846905173213"><ele>270.6666666666667</ele><time>2026-04-04T12:25:41.998Z</time></trkpt><trkpt lat="43.12303156616056" lon="10.656745377653246"><ele>272.33333333333337</ele><time>2026-04-04T12:25:42.998Z</time></trkpt><trkpt lat="43.12300095269409" lon="10.656644376919857"><ele>274.0</ele><time>2026-04-04T12:25:43.998Z</time></trkpt><trkpt lat="43.12298710292892" lon="10.656547623052512"><ele>275.6666666666667</ele><time>2026-04-04T12:25:45Z</time></trkpt><trkpt lat="43.12296553314524" lon="10.656404674288153"><ele>277.3333333333333</ele><time>2026-04-04T12:25:47Z</time></trkpt><trkpt lat="43.12291436903134" lon="10.656298704543254"><ele>279.0</ele><time>2026-04-04T12:25:49Z</time></trkpt><trkpt lat="43.122847808332345" lon="10.656263149685458"><ele>279.0</ele><time>2026-04-04T12:25:50Z</time></trkpt><trkpt lat="43.12274716936136" lon="10.656313687627922"><ele>279.0</ele><time>2026-04-04T12:25:51Z</time></trkpt><trkpt lat="43.12265875367046" lon="10.656365146065072"><ele>279.0</ele><time>2026-04-04T12:25:52Z</time></trkpt><trkpt lat="43.12258150918173" lon="10.656411369770678"><ele>279.0</ele><time>2026-04-04T12:25:53Z</time></trkpt><trkpt lat="43.12252203251727" lon="10.656443836162715"><ele>279.0</ele><time>2026-04-04T12:25:54Z</time></trkpt><trkpt lat="43.122439879946384" lon="10.65645817365579"><ele>279.0</ele><time>2026-04-04T12:25:55Z</time></trkpt><trkpt lat="43.12235659274725" lon="10.656480502696622"><ele>278.59999999999997</ele><time>2026-04-04T12:25:56Z</time></trkpt><trkpt lat="43.122286495756406" lon="10.656501185564103"><ele>278.2</ele><time>2026-04-04T12:25:57Z</time></trkpt><trkpt lat="43.122182519784005" lon="10.656525067656299"><ele>277.79999999999995</ele><time>2026-04-04T12:25:59Z</time></trkpt><trkpt lat="43.1221212891765" lon="10.656465754987726"><ele>277.4</ele><time>2026-04-04T12:26:01Z</time></trkpt><trkpt lat="43.12213437899185" lon="10.656324931884162"><ele>277.0</ele><time>2026-04-04T12:26:03Z</time></trkpt><trkpt lat="43.12219796946625" lon="10.656165356566506"><ele>278.8333333333333</ele><time>2026-04-04T12:26:05Z</time></trkpt><trkpt lat="43.12224473611342" lon="10.656066248611813"><ele>280.66666666666663</ele><time>2026-04-04T12:26:06Z</time></trkpt><trkpt lat="43.122272400209525" lon="10.6559603176519"><ele>282.5</ele><time>2026-04-04T12:26:07Z</time></trkpt><trkpt lat="43.12229424470177" lon="10.655859263592728"><ele>284.3333333333333</ele><time>2026-04-04T12:26:08Z</time></trkpt><trkpt lat="43.12231241786185" lon="10.65574574693886"><ele>286.1666666666667</ele><time>2026-04-04T12:26:09Z</time></trkpt><trkpt lat="43.122312469433105" lon="10.655651048162605"><ele>288.0</ele><time>2026-04-04T12:26:10Z</time></trkpt><trkpt lat="43.12231472535789" lon="10.65554964923432"><ele>288.0</ele><time>2026-04-04T12:26:11Z</time></trkpt><trkpt lat="43.12231208087332" lon="10.655424957022909"><ele>288.0</ele><time>2026-04-04T12:26:12Z</time></trkpt><trkpt lat="43.12231106803333" lon="10.655301411284135"><ele>288.0</ele><time>2026-04-04T12:26:13Z</time></trkpt><trkpt lat="43.12228490098568" lon="10.65517771184475"><ele>288.0</ele><time>2026-04-04T12:26:14Z</time></trkpt><trkpt lat="43.122250172987805" lon="10.655054967495978"><ele>288.0</ele><time>2026-04-04T12:26:15Z</time></trkpt><trkpt lat="43.12220401727175" lon="10.654926113145269"><ele>290.2</ele><time>2026-04-04T12:26:16Z</time></trkpt><trkpt lat="43.12215126327333" lon="10.65480000508468"><ele>292.4</ele><time>2026-04-04T12:26:17Z</time></trkpt><trkpt lat="43.122096042777656" lon="10.654671819295682"><ele>294.59999999999997</ele><time>2026-04-04T12:26:18Z</time></trkpt><trkpt lat="43.12204959244397" lon="10.654566113786387"><ele>296.8</ele><time>2026-04-04T12:26:19Z</time></trkpt><trkpt lat="43.12200972545625" lon="10.654440777047318"><ele>299.0</ele><time>2026-04-04T12:26:20Z</time></trkpt><trkpt lat="43.121976632838916" lon="10.654327384223057"><ele>300.0</ele><time>2026-04-04T12:26:21Z</time></trkpt><trkpt lat="43.12196125860134" lon="10.654210485044414"><ele>301.0</ele><time>2026-04-04T12:26:22Z</time></trkpt><trkpt lat="43.121963414278405" lon="10.654083892226094"><ele>302.0</ele><time>2026-04-04T12:26:23Z</time></trkpt><trkpt lat="43.12196845078571" lon="10.65397175404689"><ele>303.0</ele><time>2026-04-04T12:26:24Z</time></trkpt><trkpt lat="43.12198750296827" lon="10.653855276809427"><ele>304.0</ele><time>2026-04-04T12:26:25Z</time></trkpt><trkpt lat="43.12201338409282" lon="10.653730496000295"><ele>305.0</ele><time>2026-04-04T12:26:26Z</time></trkpt><trkpt lat="43.12202185968135" lon="10.653617487753175"><ele>306.33333333333337</ele><time>2026-04-04T12:26:27Z</time></trkpt><trkpt lat="43.12203178422666" lon="10.653506050298256"><ele>307.6666666666667</ele><time>2026-04-04T12:26:28Z</time></trkpt><trkpt lat="43.1220286732482" lon="10.653410447493073"><ele>309.0</ele><time>2026-04-04T12:26:29Z</time></trkpt><trkpt lat="43.12201422125304" lon="10.653289082556025"><ele>310.3333333333333</ele><time>2026-04-04T12:26:29.999Z</time></trkpt><trkpt lat="43.1219945100836" lon="10.653178166401814"><ele>311.66666666666663</ele><time>2026-04-04T12:26:30.999Z</time></trkpt><trkpt lat="43.12196251488156" lon="10.653078758892207"><ele>313.0</ele><time>2026-04-04T12:26:31.999Z</time></trkpt><trkpt lat="43.121920414375246" lon="10.652975668711859"><ele>313.0</ele><time>2026-04-04T12:26:32.999Z</time></trkpt><trkpt lat="43.12187063819156" lon="10.652891512582018"><ele>313.0</ele><time>2026-04-04T12:26:33.999Z</time></trkpt><trkpt lat="43.12183919827113" lon="10.652777454067971"><ele>313.0</ele><time>2026-04-04T12:26:34.999Z</time></trkpt><trkpt lat="43.121778878357624" lon="10.65267992955058"><ele>313.0</ele><time>2026-04-04T12:26:35.999Z</time></trkpt><trkpt lat="43.12175552434126" lon="10.6525769551826"><ele>313.0</ele><time>2026-04-04T12:26:36.999Z</time></trkpt><trkpt lat="43.12170131890269" lon="10.652469090492229"><ele>313.0</ele><time>2026-04-04T12:26:37.999Z</time></trkpt><trkpt lat="43.12167717654373" lon="10.652364050848664"><ele>313.66666666666663</ele><time>2026-04-04T12:26:38.999Z</time></trkpt><trkpt lat="43.12165835408672" lon="10.652276542229874"><ele>314.3333333333333</ele><time>2026-04-04T12:26:39.999Z</time></trkpt><trkpt lat="43.121682470320195" lon="10.652100632646931"><ele>315.0</ele><time>2026-04-04T12:26:41.999Z</time></trkpt><trkpt lat="43.12173619178365" lon="10.65202823987726"><ele>315.6666666666667</ele><time>2026-04-04T12:26:42.999Z</time></trkpt><trkpt lat="43.121777475839245" lon="10.651925990084862"><ele>316.33333333333337</ele><time>2026-04-04T12:26:43.999Z</time></trkpt><trkpt lat="43.12183531054818" lon="10.65183404249357"><ele>317.0</ele><time>2026-04-04T12:26:44.999Z</time></trkpt><trkpt lat="43.12190644375932" lon="10.651743853359466"><ele>319.4</ele><time>2026-04-04T12:26:45.999Z</time></trkpt><trkpt lat="43.12197838411472" lon="10.651685026150483"><ele>321.79999999999995</ele><time>2026-04-04T12:26:46.999Z</time></trkpt><trkpt lat="43.12208857512604" lon="10.651705832142245"><ele>324.2</ele><time>2026-04-04T12:26:47.999Z</time></trkpt><trkpt lat="43.12218232283283" lon="10.651687712915445"><ele>326.59999999999997</ele><time>2026-04-04T12:26:48.999Z</time></trkpt><trkpt lat="43.122278749883854" lon="10.651666345057615"><ele>329.0</ele><time>2026-04-04T12:26:49.999Z</time></trkpt><trkpt lat="43.12235413320739" lon="10.651609401439352"><ele>327.0</ele><time>2026-04-04T12:26:50.999Z</time></trkpt><trkpt lat="43.122425701199944" lon="10.651570385849565"><ele>325.0</ele><time>2026-04-04T12:26:51.999Z</time></trkpt><trkpt lat="43.12250599698711" lon="10.651521529494042"><ele>323.0</ele><time>2026-04-04T12:26:52.999Z</time></trkpt><trkpt lat="43.122555021110166" lon="10.651405597234758"><ele>321.0</ele><time>2026-04-04T12:26:53.999Z</time></trkpt><trkpt lat="43.12262325826762" lon="10.651294821437206"><ele>319.0</ele><time>2026-04-04T12:26:54.999Z</time></trkpt><trkpt lat="43.1227051568267" lon="10.651180918518566"><ele>323.0</ele><time>2026-04-04T12:26:55.999Z</time></trkpt><trkpt lat="43.12278438875312" lon="10.651075769199306"><ele>327.0</ele><time>2026-04-04T12:26:56.999Z</time></trkpt><trkpt lat="43.12286314252384" lon="10.650983135468044"><ele>331.0</ele><time>2026-04-04T12:26:57.999Z</time></trkpt><trkpt lat="43.12293930156677" lon="10.650883848848038"><ele>335.0</ele><time>2026-04-04T12:26:58.999Z</time></trkpt><trkpt lat="43.12299672746291" lon="10.65076568834989"><ele>339.0</ele><time>2026-04-04T12:26:59.999Z</time></trkpt><trkpt lat="43.12305518852076" lon="10.650644098769328"><ele>339.0</ele><time>2026-04-04T12:27:00.999Z</time></trkpt><trkpt lat="43.12310060210066" lon="10.650531742380444"><ele>339.0</ele><time>2026-04-04T12:27:01.999Z</time></trkpt><trkpt lat="43.12313835359077" lon="10.650415588424105"><ele>339.0</ele><time>2026-04-04T12:27:02.999Z</time></trkpt><trkpt lat="43.12317544558293" lon="10.650304251330233"><ele>339.0</ele><time>2026-04-04T12:27:03.999Z</time></trkpt><trkpt lat="43.1232077444685" lon="10.650213685715128"><ele>339.0</ele><time>2026-04-04T12:27:04.999Z</time></trkpt><trkpt lat="43.12321445738583" lon="10.650087278891112"><ele>339.0</ele><time>2026-04-04T12:27:06.999Z</time></trkpt><trkpt lat="43.123145926420825" lon="10.649942421495817"><ele>341.0</ele><time>2026-04-04T12:27:08.999Z</time></trkpt><trkpt lat="43.12309255206166" lon="10.649862604655645"><ele>343.0</ele><time>2026-04-04T12:27:09.999Z</time></trkpt><trkpt lat="43.12301788840992" lon="10.649777409060725"><ele>345.0</ele><time>2026-04-04T12:27:11.999Z</time></trkpt><trkpt lat="43.12298306076036" lon="10.649590382903149"><ele>347.0</ele><time>2026-04-04T12:27:13.999Z</time></trkpt><trkpt lat="43.12297843520475" lon="10.649440930441072"><ele>349.0</ele><time>2026-04-04T12:27:14.999Z</time></trkpt><trkpt lat="43.12295602991281" lon="10.649332356979157"><ele>350.4</ele><time>2026-04-04T12:27:15.999Z</time></trkpt><trkpt lat="43.122941019500395" lon="10.649232321531716"><ele>351.79999999999995</ele><time>2026-04-04T12:27:16.999Z</time></trkpt><trkpt lat="43.12292992263402" lon="10.6491449604623"><ele>353.20000000000005</ele><time>2026-04-04T12:27:17.999Z</time></trkpt><trkpt lat="43.12291780978214" lon="10.649048553342597"><ele>354.6</ele><time>2026-04-04T12:27:18.999Z</time></trkpt><trkpt lat="43.12290401963693" lon="10.648853064146518"><ele>356.0</ele><time>2026-04-04T12:27:19.999Z</time></trkpt><trkpt lat="43.12284935560366" lon="10.64870155158667"><ele>355.4</ele><time>2026-04-04T12:27:20.999Z</time></trkpt><trkpt lat="43.122754811090495" lon="10.648548330750904"><ele>354.8</ele><time>2026-04-04T12:27:21.999Z</time></trkpt><trkpt lat="43.12267078153201" lon="10.648428706784648"><ele>354.2</ele><time>2026-04-04T12:27:22.999Z</time></trkpt><trkpt lat="43.12262384164842" lon="10.648351196795636"><ele>353.59999999999997</ele><time>2026-04-04T12:27:23.999Z</time></trkpt><trkpt lat="43.12260101926973" lon="10.648206240502695"><ele>353.0</ele><time>2026-04-04T12:27:25.999Z</time></trkpt><trkpt lat="43.12254295215673" lon="10.64802657776421"><ele>353.0</ele><time>2026-04-04T12:27:26.999Z</time></trkpt><trkpt lat="43.122448860243026" lon="10.647891430023646"><ele>353.0</ele><time>2026-04-04T12:27:27.999Z</time></trkpt><trkpt lat="43.12239615369934" lon="10.647833867023888"><ele>353.0</ele><time>2026-04-04T12:27:28.998Z</time></trkpt><trkpt lat="43.12229869020427" lon="10.647738591157715"><ele>353.0</ele><time>2026-04-04T12:27:29.998Z</time></trkpt><trkpt lat="43.122206029994146" lon="10.647653850107345"><ele>353.0</ele><time>2026-04-04T12:27:30.998Z</time></trkpt><trkpt lat="43.12213216222755" lon="10.64760610637995"><ele>353.4</ele><time>2026-04-04T12:27:31.998Z</time></trkpt><trkpt lat="43.122076731234046" lon="10.647552471799859"><ele>353.79999999999995</ele><time>2026-04-04T12:27:32.998Z</time></trkpt><trkpt lat="43.12201394180227" lon="10.647475332074862"><ele>354.2</ele><time>2026-04-04T12:27:33.998Z</time></trkpt><trkpt lat="43.12196030138301" lon="10.647361817159952"><ele>354.6</ele><time>2026-04-04T12:27:35.998Z</time></trkpt><trkpt lat="43.12186337806584" lon="10.6471768515338"><ele>355.0</ele><time>2026-04-04T12:27:36.998Z</time></trkpt><trkpt lat="43.121745929279676" lon="10.647076736593721"><ele>355.0</ele><time>2026-04-04T12:27:37.998Z</time></trkpt><trkpt lat="43.12158961372713" lon="10.646974520149685"><ele>355.0</ele><time>2026-04-04T12:27:38.998Z</time></trkpt><trkpt lat="43.121470314443954" lon="10.646949023062314"><ele>355.0</ele><time>2026-04-04T12:27:39.998Z</time></trkpt><trkpt lat="43.121380413641496" lon="10.646922468237797"><ele>355.0</ele><time>2026-04-04T12:27:40.998Z</time></trkpt><trkpt lat="43.12125167395815" lon="10.646858196213186"><ele>356.3333333333333</ele><time>2026-04-04T12:27:42.998Z</time></trkpt><trkpt lat="43.12100607129368" lon="10.647225537868556"><ele>357.6666666666667</ele><time>2026-04-04T12:27:44.998Z</time></trkpt><trkpt lat="43.12097055206076" lon="10.647152431391603"><ele>359.0</ele><time>2026-04-04T12:27:45.998Z</time></trkpt><trkpt lat="43.12093477707371" lon="10.64707863924046"><ele>358.2</ele><time>2026-04-04T12:27:46.998Z</time></trkpt><trkpt lat="43.120870874453665" lon="10.646953749948146"><ele>357.4</ele><time>2026-04-04T12:27:48.998Z</time></trkpt><trkpt lat="43.12083339942184" lon="10.64680695476474"><ele>356.6</ele><time>2026-04-04T12:27:51Z</time></trkpt><trkpt lat="43.12080217011371" lon="10.646730752913053"><ele>355.8</ele><time>2026-04-04T12:27:52Z</time></trkpt><trkpt lat="43.12076228439572" lon="10.646552347943905"><ele>355.0</ele><time>2026-04-04T12:27:54Z</time></trkpt><trkpt lat="43.12073994010503" lon="10.646471647218345"><ele>355.4</ele><time>2026-04-04T12:27:55Z</time></trkpt><trkpt lat="43.12070029228378" lon="10.646310720883262"><ele>355.8</ele><time>2026-04-04T12:27:57Z</time></trkpt><trkpt lat="43.12069221907013" lon="10.646213950324167"><ele>356.20000000000005</ele><time>2026-04-04T12:27:58Z</time></trkpt><trkpt lat="43.12068805621313" lon="10.646110919350322"><ele>356.6</ele><time>2026-04-04T12:27:59Z</time></trkpt><trkpt lat="43.12067880576812" lon="10.645962746883225"><ele>357.0</ele><time>2026-04-04T12:28:01Z</time></trkpt><trkpt lat="43.12066596593368" lon="10.64583822229538"><ele>358.0</ele><time>2026-04-04T12:28:03Z</time></trkpt><trkpt lat="43.12065141435293" lon="10.64574941336254"><ele>359.0</ele><time>2026-04-04T12:28:04Z</time></trkpt><trkpt lat="43.12062443026717" lon="10.645640281705312"><ele>360.0</ele><time>2026-04-04T12:28:06Z</time></trkpt><trkpt lat="43.120583958745435" lon="10.645570557421422"><ele>361.0</ele><time>2026-04-04T12:28:08Z</time></trkpt><trkpt lat="43.12049327145656" lon="10.645575487103715"><ele>362.0</ele><time>2026-04-04T12:28:10Z</time></trkpt><trkpt lat="43.120435654812326" lon="10.645616804549833"><ele>363.0</ele><time>2026-04-04T12:28:11Z</time></trkpt><trkpt lat="43.1203722277575" lon="10.645658489565106"><ele>364.0</ele><time>2026-04-04T12:28:12Z</time></trkpt><trkpt lat="43.120266458370494" lon="10.645700432663226"><ele>364.0</ele><time>2026-04-04T12:28:14Z</time></trkpt><trkpt lat="43.120163990231795" lon="10.6457366184962"><ele>364.0</ele><time>2026-04-04T12:28:16Z</time></trkpt><trkpt lat="43.12008014832529" lon="10.645743890591238"><ele>364.0</ele><time>2026-04-04T12:28:17Z</time></trkpt><trkpt lat="43.11998555367013" lon="10.64575986794571"><ele>364.0</ele><time>2026-04-04T12:28:18Z</time></trkpt><trkpt lat="43.11989962275796" lon="10.645785554122861"><ele>364.0</ele><time>2026-04-04T12:28:19Z</time></trkpt><trkpt lat="43.119824589039524" lon="10.645825208473306"><ele>363.75</ele><time>2026-04-04T12:28:20Z</time></trkpt><trkpt lat="43.11968466667119" lon="10.645867343976567"><ele>363.5</ele><time>2026-04-04T12:28:22Z</time></trkpt><trkpt lat="43.11956820705275" lon="10.64586535211735"><ele>363.25</ele><time>2026-04-04T12:28:24Z</time></trkpt><trkpt lat="43.11945768159925" lon="10.645774841345961"><ele>363.0</ele><time>2026-04-04T12:28:26Z</time></trkpt><trkpt lat="43.119401856073345" lon="10.645733475783805"><ele>363.0</ele><time>2026-04-04T12:28:27Z</time></trkpt><trkpt lat="43.119343760765354" lon="10.645674471649015"><ele>363.0</ele><time>2026-04-04T12:28:28Z</time></trkpt><trkpt lat="43.11932058230316" lon="10.645557220417416"><ele>363.0</ele><time>2026-04-04T12:28:29Z</time></trkpt><trkpt lat="43.11927055140714" lon="10.645483878769786"><ele>363.0</ele><time>2026-04-04T12:28:30Z</time></trkpt><trkpt lat="43.119219498415525" lon="10.645413631491692"><ele>363.0</ele><time>2026-04-04T12:28:31Z</time></trkpt><trkpt lat="43.119114457555604" lon="10.645414790374609"><ele>363.0</ele><time>2026-04-04T12:28:32Z</time></trkpt><trkpt lat="43.11904818922516" lon="10.645394138753518"><ele>367.2</ele><time>2026-04-04T12:28:33Z</time></trkpt><trkpt lat="43.11890694602125" lon="10.6454251215442"><ele>371.4</ele><time>2026-04-04T12:28:35Z</time></trkpt><trkpt lat="43.11887807317419" lon="10.645571430602036"><ele>375.59999999999997</ele><time>2026-04-04T12:28:35.999Z</time></trkpt><trkpt lat="43.11884041709262" lon="10.645663046623646"><ele>379.79999999999995</ele><time>2026-04-04T12:28:36.999Z</time></trkpt><trkpt lat="43.11879367538842" lon="10.645743913193863"><ele>384.0</ele><time>2026-04-04T12:28:37.999Z</time></trkpt><trkpt lat="43.118746340249274" lon="10.645830986038122"><ele>384.0</ele><time>2026-04-04T12:28:38.999Z</time></trkpt><trkpt lat="43.11869631277886" lon="10.645911978772087"><ele>384.0</ele><time>2026-04-04T12:28:39.999Z</time></trkpt><trkpt lat="43.118615470947766" lon="10.64600557934032"><ele>384.0</ele><time>2026-04-04T12:28:41.999Z</time></trkpt><trkpt lat="43.118515936012656" lon="10.646024923889929"><ele>384.0</ele><time>2026-04-04T12:28:43.999Z</time></trkpt><trkpt lat="43.118438158953936" lon="10.646039164238763"><ele>384.0</ele><time>2026-04-04T12:28:44.999Z</time></trkpt><trkpt lat="43.11834840375909" lon="10.646073357657503"><ele>384.0</ele><time>2026-04-04T12:28:45.999Z</time></trkpt><trkpt lat="43.11828575616764" lon="10.646124578896899"><ele>384.0</ele><time>2026-04-04T12:28:46.999Z</time></trkpt><trkpt lat="43.118234586754376" lon="10.646237504475137"><ele>384.0</ele><time>2026-04-04T12:28:47.999Z</time></trkpt><trkpt lat="43.118252301919874" lon="10.646393722884321"><ele>384.0</ele><time>2026-04-04T12:28:48.999Z</time></trkpt><trkpt lat="43.118235973923895" lon="10.646503573011042"><ele>384.0</ele><time>2026-04-04T12:28:49.999Z</time></trkpt><trkpt lat="43.11822593594814" lon="10.646606823202152"><ele>384.0</ele><time>2026-04-04T12:28:50.999Z</time></trkpt><trkpt lat="43.118184741921795" lon="10.646711984012514"><ele>383.2</ele><time>2026-04-04T12:28:51.999Z</time></trkpt><trkpt lat="43.11815917769553" lon="10.646805324413444"><ele>382.4</ele><time>2026-04-04T12:28:52.999Z</time></trkpt><trkpt lat="43.11809903244192" lon="10.646929194259991"><ele>381.6</ele><time>2026-04-04T12:28:54.999Z</time></trkpt><trkpt lat="43.11802137417952" lon="10.646984654369694"><ele>380.8</ele><time>2026-04-04T12:28:56.999Z</time></trkpt><trkpt lat="43.11788341326848" lon="10.646975439680258"><ele>380.0</ele><time>2026-04-04T12:28:58.999Z</time></trkpt><trkpt lat="43.11778741472448" lon="10.646962290393255"><ele>380.0</ele><time>2026-04-04T12:28:59.999Z</time></trkpt><trkpt lat="43.11770687206328" lon="10.646965694353351"><ele>380.0</ele><time>2026-04-04T12:29:00.999Z</time></trkpt><trkpt lat="43.11762788042568" lon="10.646978739590923"><ele>380.0</ele><time>2026-04-04T12:29:01.999Z</time></trkpt><trkpt lat="43.11757287255839" lon="10.64687731172409"><ele>380.0</ele><time>2026-04-04T12:29:02.999Z</time></trkpt><trkpt lat="43.11749078231922" lon="10.64684601532839"><ele>380.0</ele><time>2026-04-04T12:29:03.999Z</time></trkpt><trkpt lat="43.11739686220486" lon="10.646836972072844"><ele>380.0</ele><time>2026-04-04T12:29:04.999Z</time></trkpt><trkpt lat="43.11730286221505" lon="10.646838392765947"><ele>379.6</ele><time>2026-04-04T12:29:05.999Z</time></trkpt><trkpt lat="43.117210487038356" lon="10.646835467196691"><ele>379.2</ele><time>2026-04-04T12:29:06.999Z</time></trkpt><trkpt lat="43.11713132573449" lon="10.646830691253331"><ele>378.79999999999995</ele><time>2026-04-04T12:29:07.999Z</time></trkpt><trkpt lat="43.11705959726715" lon="10.64682503954748"><ele>378.4</ele><time>2026-04-04T12:29:08.999Z</time></trkpt><trkpt lat="43.11693145958747" lon="10.64678469593228"><ele>378.0</ele><time>2026-04-04T12:29:10.999Z</time></trkpt><trkpt lat="43.116853164647736" lon="10.646756493164109"><ele>378.0</ele><time>2026-04-04T12:29:11.999Z</time></trkpt><trkpt lat="43.11678003279528" lon="10.646722160407544"><ele>378.0</ele><time>2026-04-04T12:29:12.999Z</time></trkpt><trkpt lat="43.116718680786896" lon="10.646675558515954"><ele>378.0</ele><time>2026-04-04T12:29:13.999Z</time></trkpt><trkpt lat="43.11665322639676" lon="10.64665056108582"><ele>378.0</ele><time>2026-04-04T12:29:14.999Z</time></trkpt><trkpt lat="43.116572755542244" lon="10.646669140193037"><ele>378.0</ele><time>2026-04-04T12:29:15.999Z</time></trkpt><trkpt lat="43.11649336421662" lon="10.64675773204882"><ele>378.0</ele><time>2026-04-04T12:29:16.999Z</time></trkpt><trkpt lat="43.11643000260807" lon="10.646865420952373"><ele>378.2</ele><time>2026-04-04T12:29:17.999Z</time></trkpt><trkpt lat="43.11638417960097" lon="10.646995910630883"><ele>378.4</ele><time>2026-04-04T12:29:18.999Z</time></trkpt><trkpt lat="43.11636341221116" lon="10.64714329564745"><ele>378.59999999999997</ele><time>2026-04-04T12:29:19.999Z</time></trkpt><trkpt lat="43.1163134085716" lon="10.647268488884729"><ele>378.79999999999995</ele><time>2026-04-04T12:29:20.999Z</time></trkpt><trkpt lat="43.116268055520045" lon="10.647371425916473"><ele>379.0</ele><time>2026-04-04T12:29:21.999Z</time></trkpt><trkpt lat="43.11623207459096" lon="10.647460022136048"><ele>379.0</ele><time>2026-04-04T12:29:22.999Z</time></trkpt><trkpt lat="43.11620110378338" lon="10.64763157384745"><ele>379.0</ele><time>2026-04-04T12:29:24.999Z</time></trkpt><trkpt lat="43.116154890289536" lon="10.647699244586326"><ele>379.0</ele><time>2026-04-04T12:29:26.999Z</time></trkpt><trkpt lat="43.11608453151091" lon="10.647783904491357"><ele>379.0</ele><time>2026-04-04T12:29:28.999Z</time></trkpt><trkpt lat="43.116026412451255" lon="10.647846982182445"><ele>379.0</ele><time>2026-04-04T12:29:29.999Z</time></trkpt><trkpt lat="43.11597774187796" lon="10.647902116545565"><ele>379.0</ele><time>2026-04-04T12:29:30.999Z</time></trkpt><trkpt lat="43.11592968092907" lon="10.647984614780189"><ele>377.0</ele><time>2026-04-04T12:29:31.999Z</time></trkpt><trkpt lat="43.11589783484525" lon="10.648091537781648"><ele>375.0</ele><time>2026-04-04T12:29:33.998Z</time></trkpt><trkpt lat="43.11576231339839" lon="10.648142901084142"><ele>373.0</ele><time>2026-04-04T12:29:36.998Z</time></trkpt><trkpt lat="43.115684179738025" lon="10.648251380294363"><ele>371.0</ele><time>2026-04-04T12:29:37.998Z</time></trkpt><trkpt lat="43.115653377994086" lon="10.648388259753803"><ele>369.0</ele><time>2026-04-04T12:29:38.998Z</time></trkpt><trkpt lat="43.11562450596376" lon="10.648501654084923"><ele>370.6</ele><time>2026-04-04T12:29:39.998Z</time></trkpt><trkpt lat="43.11559321379172" lon="10.648626647412033"><ele>372.2</ele><time>2026-04-04T12:29:40.998Z</time></trkpt><trkpt lat="43.115550973402165" lon="10.648763735152619"><ele>373.8</ele><time>2026-04-04T12:29:42.998Z</time></trkpt><trkpt lat="43.115458122541106" lon="10.64884716097881"><ele>375.40000000000003</ele><time>2026-04-04T12:29:44.998Z</time></trkpt><trkpt lat="43.1153928275515" lon="10.648876673330637"><ele>377.0</ele><time>2026-04-04T12:29:45.998Z</time></trkpt><trkpt lat="43.11530125214248" lon="10.648850448833695"><ele>377.0</ele><time>2026-04-04T12:29:46.998Z</time></trkpt><trkpt lat="43.115185429823335" lon="10.648906668423702"><ele>377.0</ele><time>2026-04-04T12:29:47.998Z</time></trkpt><trkpt lat="43.115100389141205" lon="10.648986106173597"><ele>377.0</ele><time>2026-04-04T12:29:48.998Z</time></trkpt><trkpt lat="43.115044206968406" lon="10.649041495119993"><ele>377.0</ele><time>2026-04-04T12:29:49.998Z</time></trkpt><trkpt lat="43.114946901998415" lon="10.649085692443803"><ele>377.0</ele><time>2026-04-04T12:29:50.998Z</time></trkpt><trkpt lat="43.114839225045344" lon="10.649119354375538"><ele>378.5</ele><time>2026-04-04T12:29:51.998Z</time></trkpt><trkpt lat="43.11472178994716" lon="10.6491491789752"><ele>380.0</ele><time>2026-04-04T12:29:52.998Z</time></trkpt><trkpt lat="43.114612583633836" lon="10.649163302458144"><ele>381.5</ele><time>2026-04-04T12:29:53.998Z</time></trkpt><trkpt lat="43.11451108931554" lon="10.649169254455561"><ele>383.0</ele><time>2026-04-04T12:29:54.998Z</time></trkpt><trkpt lat="43.11439235664326" lon="10.64920891033862"><ele>383.0</ele><time>2026-04-04T12:29:55.998Z</time></trkpt><trkpt lat="43.11429650785952" lon="10.649275405417862"><ele>383.0</ele><time>2026-04-04T12:29:57Z</time></trkpt><trkpt lat="43.11421218373121" lon="10.649292084128042"><ele>383.0</ele><time>2026-04-04T12:29:58Z</time></trkpt><trkpt lat="43.11412739362689" lon="10.649295007729384"><ele>383.0</ele><time>2026-04-04T12:29:59Z</time></trkpt><trkpt lat="43.114076567952736" lon="10.649195243021987"><ele>383.0</ele><time>2026-04-04T12:30:09Z</time></trkpt><trkpt lat="43.11403561122434" lon="10.64909722790237"><ele>383.0</ele><time>2026-04-04T12:30:10Z</time></trkpt><trkpt lat="43.1139847704055" lon="10.648969708022157"><ele>383.0</ele><time>2026-04-04T12:30:11Z</time></trkpt><trkpt lat="43.11393233287581" lon="10.648847426147295"><ele>383.0</ele><time>2026-04-04T12:30:12Z</time></trkpt><trkpt lat="43.11389813361531" lon="10.648730296346335"><ele>383.0</ele><time>2026-04-04T12:30:13Z</time></trkpt><trkpt lat="43.113863415282474" lon="10.648604765089843"><ele>383.0</ele><time>2026-04-04T12:30:14Z</time></trkpt><trkpt lat="43.11384292428399" lon="10.648476891687137"><ele>383.0</ele><time>2026-04-04T12:30:15Z</time></trkpt><trkpt lat="43.11383921233835" lon="10.648360291283836"><ele>385.6666666666667</ele><time>2026-04-04T12:30:16Z</time></trkpt><trkpt lat="43.11384157303341" lon="10.648264843060986"><ele>388.33333333333337</ele><time>2026-04-04T12:30:17Z</time></trkpt><trkpt lat="43.113850347234255" lon="10.648157289306617"><ele>391.0</ele><time>2026-04-04T12:30:18Z</time></trkpt><trkpt lat="43.11385693754257" lon="10.648070060220462"><ele>393.6666666666667</ele><time>2026-04-04T12:30:19Z</time></trkpt><trkpt lat="43.113857931609886" lon="10.647965169139095"><ele>396.3333333333333</ele><time>2026-04-04T12:30:20Z</time></trkpt><trkpt lat="43.113872173957404" lon="10.64786261950996"><ele>399.0</ele><time>2026-04-04T12:30:21Z</time></trkpt><trkpt lat="43.11380197054792" lon="10.647742630342483"><ele>400.79999999999995</ele><time>2026-04-04T12:30:23Z</time></trkpt><trkpt lat="43.11374169771765" lon="10.647664032181183"><ele>402.59999999999997</ele><time>2026-04-04T12:30:24Z</time></trkpt><trkpt lat="43.11369187057131" lon="10.647588743463809"><ele>404.4</ele><time>2026-04-04T12:30:25Z</time></trkpt><trkpt lat="43.113647488403224" lon="10.647494079984714"><ele>406.2</ele><time>2026-04-04T12:30:26Z</time></trkpt><trkpt lat="43.11361830163014" lon="10.647341280121134"><ele>408.0</ele><time>2026-04-04T12:30:28Z</time></trkpt><trkpt lat="43.11354587852475" lon="10.647203170613794"><ele>408.0</ele><time>2026-04-04T12:30:30Z</time></trkpt><trkpt lat="43.11349481684871" lon="10.64707459020286"><ele>408.0</ele><time>2026-04-04T12:30:32Z</time></trkpt><trkpt lat="43.1134232566207" lon="10.64698654382229"><ele>408.0</ele><time>2026-04-04T12:30:34Z</time></trkpt><trkpt lat="43.11340535475355" lon="10.646895722770935"><ele>408.0</ele><time>2026-04-04T12:30:35Z</time></trkpt><trkpt lat="43.11340656897361" lon="10.646752670582421"><ele>408.0</ele><time>2026-04-04T12:30:37Z</time></trkpt><trkpt lat="43.113468797371254" lon="10.646712224456687"><ele>408.0</ele><time>2026-04-04T12:30:38Z</time></trkpt><trkpt lat="43.1135441703033" lon="10.64674183982658"><ele>409.6666666666667</ele><time>2026-04-04T12:30:39Z</time></trkpt><trkpt lat="43.11361699492625" lon="10.646788346162879"><ele>411.33333333333337</ele><time>2026-04-04T12:30:40Z</time></trkpt><trkpt lat="43.11368084105864" lon="10.646842734019389"><ele>413.0</ele><time>2026-04-04T12:30:40.999Z</time></trkpt><trkpt lat="43.11374644682332" lon="10.646900740464488"><ele>414.6666666666667</ele><time>2026-04-04T12:30:41.999Z</time></trkpt><trkpt lat="43.113869991180096" lon="10.646897323251922"><ele>416.33333333333337</ele><time>2026-04-04T12:30:43.999Z</time></trkpt><trkpt lat="43.11393495335213" lon="10.646850691914436"><ele>418.0</ele><time>2026-04-04T12:30:45.999Z</time></trkpt><trkpt lat="43.113906639855955" lon="10.64669702890667"><ele>418.00000000000006</ele><time>2026-04-04T12:30:47.999Z</time></trkpt><trkpt lat="43.11386649589633" lon="10.64662168092981"><ele>418.0</ele><time>2026-04-04T12:30:48.999Z</time></trkpt><trkpt lat="43.11381978192449" lon="10.646525899483715"><ele>418.0</ele><time>2026-04-04T12:30:49.999Z</time></trkpt><trkpt lat="43.11379529483791" lon="10.646432139412603"><ele>418.0</ele><time>2026-04-04T12:30:50.999Z</time></trkpt><trkpt lat="43.11376696100699" lon="10.646329602640618"><ele>418.00000000000006</ele><time>2026-04-04T12:30:51.999Z</time></trkpt><trkpt lat="43.1137465227475" lon="10.64619564212062"><ele>418.0</ele><time>2026-04-04T12:30:52.999Z</time></trkpt><trkpt lat="43.11372738983381" lon="10.646087323646517"><ele>420.2</ele><time>2026-04-04T12:30:53.999Z</time></trkpt><trkpt lat="43.11366140894356" lon="10.645992762612277"><ele>422.4</ele><time>2026-04-04T12:30:56.999Z</time></trkpt><trkpt lat="43.113577806322546" lon="10.645952617321184"><ele>424.59999999999997</ele><time>2026-04-04T12:30:58.999Z</time></trkpt><trkpt lat="43.11348097514869" lon="10.645938339908263"><ele>426.79999999999995</ele><time>2026-04-04T12:31:00.999Z</time></trkpt><trkpt lat="43.113361299772635" lon="10.645910757440843"><ele>429.0</ele><time>2026-04-04T12:31:02.999Z</time></trkpt><trkpt lat="43.11329767941013" lon="10.645854034163362"><ele>430.79999999999995</ele><time>2026-04-04T12:31:03.999Z</time></trkpt><trkpt lat="43.11323358509007" lon="10.645766181194157"><ele>432.59999999999997</ele><time>2026-04-04T12:31:04.999Z</time></trkpt><trkpt lat="43.11315733997483" lon="10.645713061873144"><ele>434.4</ele><time>2026-04-04T12:31:05.999Z</time></trkpt><trkpt lat="43.11303000382645" lon="10.645679169079397"><ele>436.2</ele><time>2026-04-04T12:31:07.999Z</time></trkpt><trkpt lat="43.11295988030433" lon="10.645685667452149"><ele>438.0</ele><time>2026-04-04T12:31:08.999Z</time></trkpt><trkpt lat="43.112879722964024" lon="10.645666104742205"><ele>438.0</ele><time>2026-04-04T12:31:09.999Z</time></trkpt><trkpt lat="43.112808806050374" lon="10.645646540874223"><ele>438.0</ele><time>2026-04-04T12:31:10.999Z</time></trkpt><trkpt lat="43.11276360083015" lon="10.64555114639497"><ele>438.0</ele><time>2026-04-04T12:31:12.999Z</time></trkpt><trkpt lat="43.11280382824505" lon="10.645462463472404"><ele>438.0</ele><time>2026-04-04T12:31:13.999Z</time></trkpt><trkpt lat="43.112861268542936" lon="10.64535733190591"><ele>438.0</ele><time>2026-04-04T12:31:14.999Z</time></trkpt><trkpt lat="43.11291432251788" lon="10.645252957621498"><ele>438.0</ele><time>2026-04-04T12:31:15.999Z</time></trkpt><trkpt lat="43.112948689396966" lon="10.645149677323163"><ele>438.0</ele><time>2026-04-04T12:31:16.999Z</time></trkpt><trkpt lat="43.11296250827461" lon="10.645050301494953"><ele>437.99999999999994</ele><time>2026-04-04T12:31:17.999Z</time></trkpt><trkpt lat="43.11296681810368" lon="10.64494530264155"><ele>437.99999999999994</ele><time>2026-04-04T12:31:18.999Z</time></trkpt><trkpt lat="43.11299712211647" lon="10.644855912125367"><ele>438.0</ele><time>2026-04-04T12:31:19.999Z</time></trkpt><trkpt lat="43.11306504692782" lon="10.644741289730868"><ele>438.0</ele><time>2026-04-04T12:31:20.999Z</time></trkpt><trkpt lat="43.11313420958624" lon="10.644575853861918"><ele>437.25</ele><time>2026-04-04T12:31:21.999Z</time></trkpt><trkpt lat="43.113223759996586" lon="10.644415824271928"><ele>436.5</ele><time>2026-04-04T12:31:22.999Z</time></trkpt><trkpt lat="43.11329096569019" lon="10.64426290153873"><ele>435.75</ele><time>2026-04-04T12:31:23.999Z</time></trkpt><trkpt lat="43.11336139025512" lon="10.644115732045224"><ele>435.0</ele><time>2026-04-04T12:31:24.999Z</time></trkpt><trkpt lat="43.11340872407106" lon="10.643932959566031"><ele>435.0</ele><time>2026-04-04T12:31:25.999Z</time></trkpt><trkpt lat="43.11346921883635" lon="10.6438226960044"><ele>435.0</ele><time>2026-04-04T12:31:26.999Z</time></trkpt><trkpt lat="43.11352502733158" lon="10.643723479713083"><ele>435.0</ele><time>2026-04-04T12:31:27.999Z</time></trkpt><trkpt lat="43.11359421657767" lon="10.64362624410927"><ele>435.0</ele><time>2026-04-04T12:31:28.999Z</time></trkpt><trkpt lat="43.11366029542643" lon="10.643596304022488"><ele>435.0</ele><time>2026-04-04T12:31:29.999Z</time></trkpt><trkpt lat="43.11373521779886" lon="10.643558564602179"><ele>435.0</ele><time>2026-04-04T12:31:30.999Z</time></trkpt><trkpt lat="43.11381401363051" lon="10.643560597966488"><ele>435.8</ele><time>2026-04-04T12:31:31.999Z</time></trkpt><trkpt lat="43.11391218152585" lon="10.6435319740878"><ele>436.6</ele><time>2026-04-04T12:31:32.999Z</time></trkpt><trkpt lat="43.11401155869824" lon="10.643527331902332"><ele>437.4</ele><time>2026-04-04T12:31:33.999Z</time></trkpt><trkpt lat="43.114102968800935" lon="10.643577531740167"><ele>438.2</ele><time>2026-04-04T12:31:34.999Z</time></trkpt><trkpt lat="43.11421670211759" lon="10.643534408750165"><ele>439.0</ele><time>2026-04-04T12:31:35.999Z</time></trkpt><trkpt lat="43.11430169482304" lon="10.643514565384718"><ele>440.2</ele><time>2026-04-04T12:31:36.998Z</time></trkpt><trkpt lat="43.11438129960979" lon="10.64354084948956"><ele>441.4</ele><time>2026-04-04T12:31:37.998Z</time></trkpt><trkpt lat="43.114476674184075" lon="10.643605820186453"><ele>442.6</ele><time>2026-04-04T12:31:38.998Z</time></trkpt><trkpt lat="43.11457425372721" lon="10.643647255290665"><ele>443.8</ele><time>2026-04-04T12:31:39.998Z</time></trkpt><trkpt lat="43.11467569007103" lon="10.643664094438867"><ele>445.0</ele><time>2026-04-04T12:31:40.998Z</time></trkpt><trkpt lat="43.11477045655534" lon="10.643661828202024"><ele>445.6</ele><time>2026-04-04T12:31:41.998Z</time></trkpt><trkpt lat="43.11485562720334" lon="10.643619619800003"><ele>446.2</ele><time>2026-04-04T12:31:42.998Z</time></trkpt><trkpt lat="43.11491562560794" lon="10.643536120974167"><ele>446.79999999999995</ele><time>2026-04-04T12:31:43.998Z</time></trkpt><trkpt lat="43.11494476940726" lon="10.643439092089809"><ele>447.4</ele><time>2026-04-04T12:31:44.998Z</time></trkpt><trkpt lat="43.11496149232437" lon="10.643306518132663"><ele>448.0</ele><time>2026-04-04T12:31:45.998Z</time></trkpt><trkpt lat="43.11496639256619" lon="10.643136027636793"><ele>450.59999999999997</ele><time>2026-04-04T12:31:46.998Z</time></trkpt><trkpt lat="43.11499560952216" lon="10.643015669226113"><ele>453.19999999999993</ele><time>2026-04-04T12:31:47.998Z</time></trkpt><trkpt lat="43.11502146402649" lon="10.64288430140871"><ele>455.8</ele><time>2026-04-04T12:31:48.998Z</time></trkpt><trkpt lat="43.115060404778966" lon="10.642807672147445"><ele>458.4</ele><time>2026-04-04T12:31:49.998Z</time></trkpt><trkpt lat="43.11511852112422" lon="10.64271359206628"><ele>461.0</ele><time>2026-04-04T12:31:50.998Z</time></trkpt><trkpt lat="43.11517383091203" lon="10.642587107535206"><ele>461.0</ele><time>2026-04-04T12:31:51.998Z</time></trkpt><trkpt lat="43.11523580704959" lon="10.642453892066065"><ele>461.0</ele><time>2026-04-04T12:31:52.998Z</time></trkpt><trkpt lat="43.11530463597707" lon="10.642290624420824"><ele>461.0</ele><time>2026-04-04T12:31:53.998Z</time></trkpt><trkpt lat="43.11535707162729" lon="10.642176808571039"><ele>461.0</ele><time>2026-04-04T12:31:54.998Z</time></trkpt><trkpt lat="43.11543114912331" lon="10.64211239049732"><ele>461.0</ele><time>2026-04-04T12:31:55.998Z</time></trkpt><trkpt lat="43.11556607719451" lon="10.642021699784603"><ele>460.6</ele><time>2026-04-04T12:31:57.998Z</time></trkpt><trkpt lat="43.11566580840483" lon="10.641948499500764"><ele>460.20000000000005</ele><time>2026-04-04T12:31:58.998Z</time></trkpt><trkpt lat="43.11573290878598" lon="10.64186902659408"><ele>459.79999999999995</ele><time>2026-04-04T12:31:59.998Z</time></trkpt><trkpt lat="43.11581918254355" lon="10.641766843130108"><ele>459.4</ele><time>2026-04-04T12:32:00.998Z</time></trkpt><trkpt lat="43.115893041775074" lon="10.641671181652828"><ele>459.0</ele><time>2026-04-04T12:32:01.998Z</time></trkpt><trkpt lat="43.11598089183865" lon="10.641537560494344"><ele>461.2</ele><time>2026-04-04T12:32:03Z</time></trkpt><trkpt lat="43.11607433004141" lon="10.64137180946912"><ele>463.4</ele><time>2026-04-04T12:32:04Z</time></trkpt><trkpt lat="43.11614799507284" lon="10.641263231708535"><ele>465.6</ele><time>2026-04-04T12:32:05Z</time></trkpt><trkpt lat="43.116230911463326" lon="10.641198596926442"><ele>467.8</ele><time>2026-04-04T12:32:06Z</time></trkpt><trkpt lat="43.11630435225291" lon="10.641176340521902"><ele>470.0</ele><time>2026-04-04T12:32:08Z</time></trkpt><trkpt lat="43.116286851168425" lon="10.64093341159358"><ele>470.49999999999994</ele><time>2026-04-04T12:32:09Z</time></trkpt><trkpt lat="43.116225150211875" lon="10.640901264961292"><ele>471.0</ele><time>2026-04-04T12:32:10Z</time></trkpt><trkpt lat="43.11616310332224" lon="10.640861761816975"><ele>471.5</ele><time>2026-04-04T12:35:13.999Z</time></trkpt><trkpt lat="43.116092343412724" lon="10.640708521055872"><ele>472.0</ele><time>2026-04-04T12:35:15.999Z</time></trkpt><trkpt lat="43.116059464872414" lon="10.64060332896456"><ele>472.49999999999994</ele><time>2026-04-04T12:35:16.999Z</time></trkpt><trkpt lat="43.11601415530794" lon="10.640486803313443"><ele>473.0</ele><time>2026-04-04T12:35:17.999Z</time></trkpt><trkpt lat="43.11596008110831" lon="10.640358915712126"><ele>474.75</ele><time>2026-04-04T12:35:18.999Z</time></trkpt><trkpt lat="43.11588950846762" lon="10.640229819493817"><ele>476.5</ele><time>2026-04-04T12:35:19.999Z</time></trkpt><trkpt lat="43.11581750756741" lon="10.64011306983105"><ele>478.25</ele><time>2026-04-04T12:35:20.999Z</time></trkpt><trkpt lat="43.11573282724998" lon="10.639990801337953"><ele>480.0</ele><time>2026-04-04T12:35:21.999Z</time></trkpt><trkpt lat="43.115633382374654" lon="10.6398850201834"><ele>480.0</ele><time>2026-04-04T12:35:22.999Z</time></trkpt><trkpt lat="43.11554824695283" lon="10.639803305486499"><ele>480.0</ele><time>2026-04-04T12:35:23.999Z</time></trkpt><trkpt lat="43.11547321945" lon="10.639739429083345"><ele>480.0</ele><time>2026-04-04T12:35:24.999Z</time></trkpt><trkpt lat="43.11541896074999" lon="10.639631239207972"><ele>480.0</ele><time>2026-04-04T12:35:26.999Z</time></trkpt><trkpt lat="43.11552720272366" lon="10.639445811471806"><ele>479.2</ele><time>2026-04-04T12:35:29.999Z</time></trkpt><trkpt lat="43.11558544901823" lon="10.639368575563886"><ele>478.4</ele><time>2026-04-04T12:35:30.999Z</time></trkpt><trkpt lat="43.115667517496256" lon="10.639269626798095"><ele>477.6</ele><time>2026-04-04T12:35:31.999Z</time></trkpt><trkpt lat="43.11576188943947" lon="10.63918570372701"><ele>476.8</ele><time>2026-04-04T12:35:32.999Z</time></trkpt><trkpt lat="43.11584778506079" lon="10.63911446347173"><ele>476.0</ele><time>2026-04-04T12:35:33.999Z</time></trkpt><trkpt lat="43.11591170587283" lon="10.639030303759526"><ele>477.49999999999994</ele><time>2026-04-04T12:35:34.999Z</time></trkpt><trkpt lat="43.115957782481466" lon="10.638924052888056"><ele>479.0</ele><time>2026-04-04T12:35:35.999Z</time></trkpt><trkpt lat="43.11599449518163" lon="10.638811240401674"><ele>480.5</ele><time>2026-04-04T12:35:36.999Z</time></trkpt><trkpt lat="43.11603555263986" lon="10.638707475542166"><ele>482.0</ele><time>2026-04-04T12:35:37.999Z</time></trkpt><trkpt lat="43.116060518258195" lon="10.638618149324714"><ele>483.49999999999994</ele><time>2026-04-04T12:35:38.999Z</time></trkpt><trkpt lat="43.11608709828554" lon="10.638522644095746"><ele>485.0</ele><time>2026-04-04T12:35:39.999Z</time></trkpt><trkpt lat="43.11611296118747" lon="10.638405595076135"><ele>485.49999999999994</ele><time>2026-04-04T12:35:40.999Z</time></trkpt><trkpt lat="43.11613595465643" lon="10.638273436123317"><ele>486.0</ele><time>2026-04-04T12:35:41.999Z</time></trkpt><trkpt lat="43.11615592502937" lon="10.6381696897547"><ele>486.5</ele><time>2026-04-04T12:35:42.999Z</time></trkpt><trkpt lat="43.11622852675487" lon="10.638052381167373"><ele>487.0</ele><time>2026-04-04T12:35:44.999Z</time></trkpt><trkpt lat="43.11628606356097" lon="10.638009022295526"><ele>487.49999999999994</ele><time>2026-04-04T12:35:45.999Z</time></trkpt><trkpt lat="43.116352153435095" lon="10.637965566803196"><ele>488.0</ele><time>2026-04-04T12:35:46.999Z</time></trkpt><trkpt lat="43.116438439265714" lon="10.637899785608118"><ele>488.0</ele><time>2026-04-04T12:35:47.999Z</time></trkpt><trkpt lat="43.11651892307069" lon="10.637813813771027"><ele>487.99999999999994</ele><time>2026-04-04T12:35:48.999Z</time></trkpt><trkpt lat="43.11658084349808" lon="10.63771111717975"><ele>487.99999999999994</ele><time>2026-04-04T12:35:49.999Z</time></trkpt><trkpt lat="43.11664949128548" lon="10.637606309930309"><ele>488.0</ele><time>2026-04-04T12:35:50.998Z</time></trkpt><trkpt lat="43.11672340768215" lon="10.63748298700936"><ele>488.0</ele><time>2026-04-04T12:35:51.998Z</time></trkpt><trkpt lat="43.116805329913284" lon="10.637358762254163"><ele>491.0</ele><time>2026-04-04T12:35:52.998Z</time></trkpt><trkpt lat="43.11688242044555" lon="10.637269052219835"><ele>493.99999999999994</ele><time>2026-04-04T12:35:53.998Z</time></trkpt><trkpt lat="43.11695927604541" lon="10.63720787628464"><ele>496.99999999999994</ele><time>2026-04-04T12:35:54.998Z</time></trkpt><trkpt lat="43.11705022561111" lon="10.63715443187116"><ele>500.0</ele><time>2026-04-04T12:35:55.998Z</time></trkpt><trkpt lat="43.11711930365555" lon="10.637088637811882"><ele>503.0</ele><time>2026-04-04T12:35:56.998Z</time></trkpt><trkpt lat="43.117167143590244" lon="10.637003944252461"><ele>503.8333333333333</ele><time>2026-04-04T12:35:57.998Z</time></trkpt><trkpt lat="43.117183597403766" lon="10.636911665262168"><ele>504.66666666666663</ele><time>2026-04-04T12:35:58.998Z</time></trkpt><trkpt lat="43.11719372184587" lon="10.636815232060572"><ele>505.5</ele><time>2026-04-04T12:35:59.998Z</time></trkpt><trkpt lat="43.117310679500726" lon="10.63670809573814"><ele>506.33333333333337</ele><time>2026-04-04T12:36:01.998Z</time></trkpt><trkpt lat="43.11738249236708" lon="10.636640236579309"><ele>507.1666666666667</ele><time>2026-04-04T12:36:02.998Z</time></trkpt><trkpt lat="43.117421107710975" lon="10.636556018842944"><ele>508.0</ele><time>2026-04-04T12:36:03.998Z</time></trkpt><trkpt lat="43.11748778292721" lon="10.636437939379034"><ele>508.59999999999997</ele><time>2026-04-04T12:36:04.998Z</time></trkpt><trkpt lat="43.117539900987836" lon="10.636329622789866"><ele>509.19999999999993</ele><time>2026-04-04T12:36:05.998Z</time></trkpt><trkpt lat="43.11759382794014" lon="10.63622431269657"><ele>509.8</ele><time>2026-04-04T12:36:06.998Z</time></trkpt><trkpt lat="43.11766083892774" lon="10.636118731633934"><ele>510.4</ele><time>2026-04-04T12:36:07.998Z</time></trkpt><trkpt lat="43.11772807279175" lon="10.636013868808769"><ele>511.0</ele><time>2026-04-04T12:36:08.998Z</time></trkpt><trkpt lat="43.11781053625158" lon="10.635919128641655"><ele>511.0</ele><time>2026-04-04T12:36:09.998Z</time></trkpt><trkpt lat="43.11786832214183" lon="10.63585649685402"><ele>511.0</ele><time>2026-04-04T12:36:10.998Z</time></trkpt><trkpt lat="43.117954622814416" lon="10.635753045459303"><ele>511.0</ele><time>2026-04-04T12:36:12.998Z</time></trkpt><trkpt lat="43.11802008345758" lon="10.635672244070756"><ele>511.0</ele><time>2026-04-04T12:36:13.998Z</time></trkpt><trkpt lat="43.118087693570786" lon="10.635589067862378"><ele>511.0</ele><time>2026-04-04T12:36:15Z</time></trkpt><trkpt lat="43.118175398754445" lon="10.63554906141185"><ele>510.20000000000005</ele><time>2026-04-04T12:36:16Z</time></trkpt><trkpt lat="43.11826343868845" lon="10.635526121770711"><ele>509.40000000000003</ele><time>2026-04-04T12:36:17Z</time></trkpt><trkpt lat="43.11836455488111" lon="10.635479065226901"><ele>508.6</ele><time>2026-04-04T12:36:18Z</time></trkpt><trkpt lat="43.1184529665181" lon="10.635390016157258"><ele>507.8</ele><time>2026-04-04T12:36:19Z</time></trkpt><trkpt lat="43.11854540936426" lon="10.635350428134577"><ele>507.0</ele><time>2026-04-04T12:36:20Z</time></trkpt><trkpt lat="43.11862902136952" lon="10.635339232655776"><ele>507.0</ele><time>2026-04-04T12:36:21Z</time></trkpt><trkpt lat="43.11872342391484" lon="10.635351588072407"><ele>507.00000000000006</ele><time>2026-04-04T12:36:22Z</time></trkpt><trkpt lat="43.11882101726459" lon="10.635370538743611"><ele>507.00000000000006</ele><time>2026-04-04T12:36:23Z</time></trkpt><trkpt lat="43.11890658127155" lon="10.635372313595896"><ele>507.0</ele><time>2026-04-04T12:36:24Z</time></trkpt><trkpt lat="43.11897462550732" lon="10.635347733039252"><ele>507.0</ele><time>2026-04-04T12:36:25Z</time></trkpt><trkpt lat="43.11906639443731" lon="10.635256332510947"><ele>509.6</ele><time>2026-04-04T12:36:27Z</time></trkpt><trkpt lat="43.119130771941386" lon="10.635168913030169"><ele>512.2</ele><time>2026-04-04T12:36:28Z</time></trkpt><trkpt lat="43.119209773251896" lon="10.635063384682246"><ele>514.8</ele><time>2026-04-04T12:36:29Z</time></trkpt><trkpt lat="43.11929322928968" lon="10.63495305195584"><ele>517.4</ele><time>2026-04-04T12:36:30Z</time></trkpt><trkpt lat="43.11937070605684" lon="10.63485108281274"><ele>520.0</ele><time>2026-04-04T12:36:31Z</time></trkpt><trkpt lat="43.11945918719969" lon="10.634765649342512"><ele>520.0</ele><time>2026-04-04T12:36:32Z</time></trkpt><trkpt lat="43.119536977845" lon="10.634718167195244"><ele>520.0</ele><time>2026-04-04T12:36:33Z</time></trkpt><trkpt lat="43.119638652931215" lon="10.634659164662837"><ele>520.0</ele><time>2026-04-04T12:36:34Z</time></trkpt><trkpt lat="43.119743734567756" lon="10.634639178973902"><ele>520.0</ele><time>2026-04-04T12:36:35Z</time></trkpt><trkpt lat="43.11983987762954" lon="10.634644512016868"><ele>520.0</ele><time>2026-04-04T12:36:36Z</time></trkpt><trkpt lat="43.11994289346024" lon="10.634633900479852"><ele>520.3333333333334</ele><time>2026-04-04T12:36:37Z</time></trkpt><trkpt lat="43.12001066006236" lon="10.634620348877357"><ele>520.6666666666667</ele><time>2026-04-04T12:36:38Z</time></trkpt><trkpt lat="43.12008220728759" lon="10.634581403846502"><ele>521.0</ele><time>2026-04-04T12:36:39Z</time></trkpt><trkpt lat="43.12016943603509" lon="10.634516500154454"><ele>521.3333333333334</ele><time>2026-04-04T12:36:40Z</time></trkpt><trkpt lat="43.12023744655579" lon="10.634458092844165"><ele>521.6666666666666</ele><time>2026-04-04T12:36:41Z</time></trkpt><trkpt lat="43.12031913434205" lon="10.634366044313976"><ele>522.0</ele><time>2026-04-04T12:36:42Z</time></trkpt><trkpt lat="43.120387473808" lon="10.6342727063047"><ele>522.0</ele><time>2026-04-04T12:36:43Z</time></trkpt><trkpt lat="43.120475511711184" lon="10.634177523270994"><ele>522.0</ele><time>2026-04-04T12:36:44Z</time></trkpt><trkpt lat="43.120556296188546" lon="10.63410701559592"><ele>522.0</ele><time>2026-04-04T12:36:45Z</time></trkpt><trkpt lat="43.120646565740806" lon="10.634028439648548"><ele>522.0</ele><time>2026-04-04T12:36:46Z</time></trkpt><trkpt lat="43.12073181623499" lon="10.633957670573867"><ele>522.0</ele><time>2026-04-04T12:36:47Z</time></trkpt><trkpt lat="43.120813070446" lon="10.633891052026554"><ele>521.3333333333334</ele><time>2026-04-04T12:36:48Z</time></trkpt><trkpt lat="43.1209007978856" lon="10.633830310630534"><ele>520.6666666666666</ele><time>2026-04-04T12:36:49Z</time></trkpt><trkpt lat="43.12098787401906" lon="10.633770579540224"><ele>520.0</ele><time>2026-04-04T12:36:50Z</time></trkpt><trkpt lat="43.12105594541812" lon="10.63372966036514"><ele>519.3333333333333</ele><time>2026-04-04T12:36:51Z</time></trkpt><trkpt lat="43.121147286628855" lon="10.63370098916735"><ele>518.6666666666666</ele><time>2026-04-04T12:36:52Z</time></trkpt><trkpt lat="43.12121828107289" lon="10.633653333354664"><ele>518.0</ele><time>2026-04-04T12:36:53Z</time></trkpt><trkpt lat="43.1213057245925" lon="10.63357585519828"><ele>518.0</ele><time>2026-04-04T12:36:54Z</time></trkpt><trkpt lat="43.12140568013204" lon="10.633492248097191"><ele>518.0</ele><time>2026-04-04T12:36:55Z</time></trkpt><trkpt lat="43.12150302320403" lon="10.633424350506802"><ele>518.0</ele><time>2026-04-04T12:36:55.999Z</time></trkpt><trkpt lat="43.121590975644466" lon="10.633349283018402"><ele>518.0</ele><time>2026-04-04T12:36:56.999Z</time></trkpt><trkpt lat="43.12167833883488" lon="10.633267076973603"><ele>518.0</ele><time>2026-04-04T12:36:57.999Z</time></trkpt><trkpt lat="43.12177844968433" lon="10.633194244921892"><ele>519.0</ele><time>2026-04-04T12:36:58.999Z</time></trkpt><trkpt lat="43.12188404884661" lon="10.633141311056011"><ele>520.0</ele><time>2026-04-04T12:36:59.999Z</time></trkpt><trkpt lat="43.12198352992841" lon="10.633086682534193"><ele>521.0</ele><time>2026-04-04T12:37:00.999Z</time></trkpt><trkpt lat="43.122086505616146" lon="10.633014103460743"><ele>522.0</ele><time>2026-04-04T12:37:01.999Z</time></trkpt><trkpt lat="43.12216451746347" lon="10.63296378375351"><ele>523.0</ele><time>2026-04-04T12:37:02.999Z</time></trkpt><trkpt lat="43.12223494839307" lon="10.63292400281971"><ele>523.0</ele><time>2026-04-04T12:37:03.999Z</time></trkpt><trkpt lat="43.12230156471524" lon="10.632865232442539"><ele>523.0</ele><time>2026-04-04T12:37:04.999Z</time></trkpt><trkpt lat="43.12234848549579" lon="10.632790596139744"><ele>523.0</ele><time>2026-04-04T12:37:05.999Z</time></trkpt><trkpt lat="43.12250080327169" lon="10.632664432849277"><ele>523.0</ele><time>2026-04-04T12:37:07.999Z</time></trkpt><trkpt lat="43.122607716568254" lon="10.632596529020939"><ele>523.0</ele><time>2026-04-04T12:37:08.999Z</time></trkpt><trkpt lat="43.12270680613771" lon="10.632517707601924"><ele>524.1999999999999</ele><time>2026-04-04T12:37:09.999Z</time></trkpt><trkpt lat="43.12279629441264" lon="10.6324364229671"><ele>525.4</ele><time>2026-04-04T12:37:10.999Z</time></trkpt><trkpt lat="43.12288019978254" lon="10.632359473789734"><ele>526.5999999999999</ele><time>2026-04-04T12:37:11.999Z</time></trkpt><trkpt lat="43.12298203249905" lon="10.632309506224514"><ele>527.8</ele><time>2026-04-04T12:37:12.999Z</time></trkpt><trkpt lat="43.12309066719385" lon="10.632283533424374"><ele>529.0</ele><time>2026-04-04T12:37:13.999Z</time></trkpt><trkpt lat="43.12320517896202" lon="10.632271189302733"><ele>527.6</ele><time>2026-04-04T12:37:14.999Z</time></trkpt><trkpt lat="43.12332170640231" lon="10.632274363542587"><ele>526.2</ele><time>2026-04-04T12:37:15.999Z</time></trkpt><trkpt lat="43.12343998107749" lon="10.632285798258778"><ele>524.8000000000001</ele><time>2026-04-04T12:37:16.999Z</time></trkpt><trkpt lat="43.123537136556564" lon="10.632275997292513"><ele>523.4</ele><time>2026-04-04T12:37:17.999Z</time></trkpt><trkpt lat="43.12362233261051" lon="10.632250106453258"><ele>522.0</ele><time>2026-04-04T12:37:18.999Z</time></trkpt><trkpt lat="43.12370501042597" lon="10.632198637225075"><ele>522.0</ele><time>2026-04-04T12:37:19.999Z</time></trkpt><trkpt lat="43.123781787723125" lon="10.632123105701986"><ele>522.0</ele><time>2026-04-04T12:37:20.999Z</time></trkpt><trkpt lat="43.123847662823025" lon="10.63204457945531"><ele>522.0</ele><time>2026-04-04T12:37:21.999Z</time></trkpt><trkpt lat="43.123916881354035" lon="10.63195274128036"><ele>522.0</ele><time>2026-04-04T12:37:22.999Z</time></trkpt><trkpt lat="43.124003164979015" lon="10.631883438346748"><ele>522.0</ele><time>2026-04-04T12:37:23.999Z</time></trkpt><trkpt lat="43.12411147543815" lon="10.631819551683463"><ele>523.6</ele><time>2026-04-04T12:37:24.999Z</time></trkpt><trkpt lat="43.12422009914533" lon="10.63173685234995"><ele>525.2</ele><time>2026-04-04T12:37:25.999Z</time></trkpt><trkpt lat="43.124318576031456" lon="10.631697891905715"><ele>526.8</ele><time>2026-04-04T12:37:26.999Z</time></trkpt><trkpt lat="43.12441419796744" lon="10.631648811435184"><ele>528.4</ele><time>2026-04-04T12:37:27.999Z</time></trkpt><trkpt lat="43.12451452139101" lon="10.631585660299688"><ele>530.0</ele><time>2026-04-04T12:37:28.999Z</time></trkpt><trkpt lat="43.12461933787013" lon="10.631524228042453"><ele>530.0</ele><time>2026-04-04T12:37:29.999Z</time></trkpt><trkpt lat="43.12471851655256" lon="10.631459515583547"><ele>530.0</ele><time>2026-04-04T12:37:30.999Z</time></trkpt><trkpt lat="43.12481882253046" lon="10.631390325001593"><ele>530.0</ele><time>2026-04-04T12:37:31.999Z</time></trkpt><trkpt lat="43.124918235237736" lon="10.631320612810766"><ele>530.0</ele><time>2026-04-04T12:37:32.999Z</time></trkpt><trkpt lat="43.125018078389566" lon="10.631252758862518"><ele>530.0</ele><time>2026-04-04T12:37:33.999Z</time></trkpt><trkpt lat="43.12510278295623" lon="10.63118873438532"><ele>530.0</ele><time>2026-04-04T12:37:34.999Z</time></trkpt><trkpt lat="43.12519407593336" lon="10.631132478207885"><ele>530.0</ele><time>2026-04-04T12:37:35.999Z</time></trkpt><trkpt lat="43.125275741706986" lon="10.631066996073763"><ele>530.0</ele><time>2026-04-04T12:37:36.999Z</time></trkpt><trkpt lat="43.125346897063054" lon="10.630978415211315"><ele>530.0</ele><time>2026-04-04T12:37:37.999Z</time></trkpt><trkpt lat="43.12541013311004" lon="10.630882090888576"><ele>530.0</ele><time>2026-04-04T12:37:38.999Z</time></trkpt><trkpt lat="43.125487426005314" lon="10.630803566589861"><ele>530.0</ele><time>2026-04-04T12:37:39.999Z</time></trkpt><trkpt lat="43.12557963881603" lon="10.630739980989349"><ele>530.0</ele><time>2026-04-04T12:37:40.999Z</time></trkpt><trkpt lat="43.12567701300813" lon="10.630656223644007"><ele>530.0</ele><time>2026-04-04T12:37:41.999Z</time></trkpt><trkpt lat="43.12578139953157" lon="10.630544921078103"><ele>530.0</ele><time>2026-04-04T12:37:42.999Z</time></trkpt><trkpt lat="43.125876138596894" lon="10.630439734468078"><ele>528.0</ele><time>2026-04-04T12:37:43.999Z</time></trkpt><trkpt lat="43.12597167823301" lon="10.630345883627324"><ele>526.0</ele><time>2026-04-04T12:37:44.999Z</time></trkpt><trkpt lat="43.1260570675463" lon="10.630257681613978"><ele>524.0</ele><time>2026-04-04T12:37:45.999Z</time></trkpt><trkpt lat="43.12613747249156" lon="10.630156032733694"><ele>522.0</ele><time>2026-04-04T12:37:46.999Z</time></trkpt><trkpt lat="43.12624202582417" lon="10.630047277342026"><ele>522.0</ele><time>2026-04-04T12:37:47.999Z</time></trkpt><trkpt lat="43.12632598955496" lon="10.629954502387546"><ele>522.0</ele><time>2026-04-04T12:37:48.999Z</time></trkpt><trkpt lat="43.126404204898186" lon="10.62986602596003"><ele>522.0</ele><time>2026-04-04T12:37:49.999Z</time></trkpt><trkpt lat="43.12647242696887" lon="10.629770082503775"><ele>522.0</ele><time>2026-04-04T12:37:50.998Z</time></trkpt><trkpt lat="43.12652919239585" lon="10.629673138742577"><ele>522.0</ele><time>2026-04-04T12:37:51.998Z</time></trkpt><trkpt lat="43.126580775807604" lon="10.629588503411462"><ele>522.1666666666666</ele><time>2026-04-04T12:37:52.998Z</time></trkpt><trkpt lat="43.12663296287641" lon="10.629500199404033"><ele>522.3333333333334</ele><time>2026-04-04T12:37:53.998Z</time></trkpt><trkpt lat="43.12669782599493" lon="10.629436261643246"><ele>522.5</ele><time>2026-04-04T12:37:54.998Z</time></trkpt><trkpt lat="43.12677209940979" lon="10.629383669581392"><ele>522.6666666666667</ele><time>2026-04-04T12:37:55.998Z</time></trkpt><trkpt lat="43.12687851697229" lon="10.629365726602451"><ele>522.8333333333334</ele><time>2026-04-04T12:37:56.998Z</time></trkpt><trkpt lat="43.12696835218696" lon="10.62932986162295"><ele>523.0</ele><time>2026-04-04T12:37:57.998Z</time></trkpt><trkpt lat="43.12704183047821" lon="10.629276015595472"><ele>523.0</ele><time>2026-04-04T12:37:58.998Z</time></trkpt><trkpt lat="43.127126341589175" lon="10.629347455774893"><ele>523.0</ele><time>2026-04-04T12:38:00.998Z</time></trkpt><trkpt lat="43.12715938540953" lon="10.629433228435783"><ele>523.0</ele><time>2026-04-04T12:38:01.998Z</time></trkpt><trkpt lat="43.12719722153431" lon="10.629506757941334"><ele>523.0</ele><time>2026-04-04T12:38:02.998Z</time></trkpt><trkpt lat="43.12727280202277" lon="10.629647386653051"><ele>523.0</ele><time>2026-04-04T12:38:03.998Z</time></trkpt><trkpt lat="43.12735773543643" lon="10.629761540158537"><ele>522.0</ele><time>2026-04-04T12:38:04.998Z</time></trkpt><trkpt lat="43.12744081901665" lon="10.62986397634479"><ele>521.0</ele><time>2026-04-04T12:38:05.998Z</time></trkpt><trkpt lat="43.12752618630307" lon="10.629984581289202"><ele>520.0</ele><time>2026-04-04T12:38:06.998Z</time></trkpt><trkpt lat="43.127599179677865" lon="10.630107253066951"><ele>519.0</ele><time>2026-04-04T12:38:07.998Z</time></trkpt><trkpt lat="43.12767839335011" lon="10.630248125108945"><ele>516.0</ele><time>2026-04-04T12:38:08.998Z</time></trkpt><trkpt lat="43.12775239473626" lon="10.630399099856863"><ele>513.0</ele><time>2026-04-04T12:38:09.998Z</time></trkpt><trkpt lat="43.12782243152536" lon="10.630545352944196"><ele>510.0</ele><time>2026-04-04T12:38:10.998Z</time></trkpt><trkpt lat="43.12789624833186" lon="10.630686935174172"><ele>507.0</ele><time>2026-04-04T12:38:11.998Z</time></trkpt><trkpt lat="43.127964828431864" lon="10.630796049309156"><ele>507.0</ele><time>2026-04-04T12:38:12.998Z</time></trkpt><trkpt lat="43.12806144853656" lon="10.630920940285112"><ele>507.00000000000006</ele><time>2026-04-04T12:38:13.998Z</time></trkpt><trkpt lat="43.12814789017509" lon="10.631043070819887"><ele>507.00000000000006</ele><time>2026-04-04T12:38:14.998Z</time></trkpt><trkpt lat="43.12821031362881" lon="10.631146094442064"><ele>507.0</ele><time>2026-04-04T12:38:15.998Z</time></trkpt><trkpt lat="43.12824833620679" lon="10.631249878550681"><ele>507.0</ele><time>2026-04-04T12:38:16.998Z</time></trkpt><trkpt lat="43.12826028341272" lon="10.631354243017254"><ele>506.6</ele><time>2026-04-04T12:38:17.998Z</time></trkpt><trkpt lat="43.12828231935906" lon="10.631476025147139"><ele>506.20000000000005</ele><time>2026-04-04T12:38:18.998Z</time></trkpt><trkpt lat="43.12835785297875" lon="10.631603742306563"><ele>505.8</ele><time>2026-04-04T12:38:21Z</time></trkpt><trkpt lat="43.12843076500284" lon="10.631684201734155"><ele>505.4</ele><time>2026-04-04T12:38:22Z</time></trkpt><trkpt lat="43.12848652417348" lon="10.631752840325301"><ele>505.0</ele><time>2026-04-04T12:38:23Z</time></trkpt><trkpt lat="43.128550887829206" lon="10.631801478591575"><ele>505.0</ele><time>2026-04-04T12:38:24Z</time></trkpt><trkpt lat="43.12862396047479" lon="10.63179396961721"><ele>505.0</ele><time>2026-04-04T12:38:25Z</time></trkpt><trkpt lat="43.12871311208924" lon="10.631748627469635"><ele>505.0</ele><time>2026-04-04T12:38:26Z</time></trkpt><trkpt lat="43.128814247269766" lon="10.63173131121567"><ele>505.0</ele><time>2026-04-04T12:38:27Z</time></trkpt><trkpt lat="43.12893057265174" lon="10.631705624934801"><ele>505.0</ele><time>2026-04-04T12:38:28Z</time></trkpt><trkpt lat="43.129049918250224" lon="10.631674203439342"><ele>505.50000000000006</ele><time>2026-04-04T12:38:29Z</time></trkpt><trkpt lat="43.12915403070667" lon="10.631644198911037"><ele>506.0</ele><time>2026-04-04T12:38:30Z</time></trkpt><trkpt lat="43.1292421130184" lon="10.631636719529139"><ele>506.5</ele><time>2026-04-04T12:38:31Z</time></trkpt><trkpt lat="43.12931523300189" lon="10.631660313459532"><ele>507.0</ele><time>2026-04-04T12:38:32Z</time></trkpt><trkpt lat="43.12939811290208" lon="10.6316819736712"><ele>507.50000000000006</ele><time>2026-04-04T12:38:33Z</time></trkpt><trkpt lat="43.12948152148937" lon="10.63169346040972"><ele>508.0</ele><time>2026-04-04T12:38:34Z</time></trkpt><trkpt lat="43.12958254896508" lon="10.631683799249627"><ele>508.00000000000006</ele><time>2026-04-04T12:38:35Z</time></trkpt><trkpt lat="43.12968309476951" lon="10.63165905708552"><ele>508.0</ele><time>2026-04-04T12:38:36Z</time></trkpt><trkpt lat="43.12975565533774" lon="10.631676069411688"><ele>508.0</ele><time>2026-04-04T12:38:37Z</time></trkpt><trkpt lat="43.129825100128265" lon="10.631718012936672"><ele>508.0</ele><time>2026-04-04T12:38:38Z</time></trkpt><trkpt lat="43.12989060928023" lon="10.631778517426755"><ele>508.00000000000006</ele><time>2026-04-04T12:38:39Z</time></trkpt><trkpt lat="43.12996117891941" lon="10.631874501040631"><ele>508.0</ele><time>2026-04-04T12:38:40Z</time></trkpt><trkpt lat="43.130045480943544" lon="10.631976235916282"><ele>508.59999999999997</ele><time>2026-04-04T12:38:41Z</time></trkpt><trkpt lat="43.13012682594552" lon="10.632094048822495"><ele>509.19999999999993</ele><time>2026-04-04T12:38:42Z</time></trkpt><trkpt lat="43.13020180156181" lon="10.632186269381606"><ele>509.8</ele><time>2026-04-04T12:38:43Z</time></trkpt><trkpt lat="43.13027810405686" lon="10.632264962717121"><ele>510.4</ele><time>2026-04-04T12:38:44Z</time></trkpt><trkpt lat="43.1303793040552" lon="10.632325054008186"><ele>511.0</ele><time>2026-04-04T12:38:45Z</time></trkpt><trkpt lat="43.13048438380808" lon="10.63234683738921"><ele>511.0</ele><time>2026-04-04T12:38:46Z</time></trkpt><trkpt lat="43.13059873650099" lon="10.632356556145035"><ele>511.0</ele><time>2026-04-04T12:38:47Z</time></trkpt><trkpt lat="43.13071650463568" lon="10.63238110521636"><ele>511.0</ele><time>2026-04-04T12:38:48Z</time></trkpt><trkpt lat="43.13081740756848" lon="10.632403330078612"><ele>511.0</ele><time>2026-04-04T12:38:49Z</time></trkpt><trkpt lat="43.1309135363405" lon="10.632446315480916"><ele>511.0</ele><time>2026-04-04T12:38:50Z</time></trkpt><trkpt lat="43.131017828961575" lon="10.632498376911629"><ele>512.6</ele><time>2026-04-04T12:38:51Z</time></trkpt><trkpt lat="43.13109735961661" lon="10.63255426580332"><ele>514.2</ele><time>2026-04-04T12:38:52Z</time></trkpt><trkpt lat="43.131173809059604" lon="10.632615476622025"><ele>515.8</ele><time>2026-04-04T12:38:53Z</time></trkpt><trkpt lat="43.13124838745168" lon="10.63269620678823"><ele>517.4</ele><time>2026-04-04T12:38:54Z</time></trkpt><trkpt lat="43.13133387828963" lon="10.632795930262114"><ele>519.0</ele><time>2026-04-04T12:38:55Z</time></trkpt><trkpt lat="43.131410904871935" lon="10.632886144013463"><ele>519.0</ele><time>2026-04-04T12:38:56Z</time></trkpt><trkpt lat="43.131495002729906" lon="10.632981765561139"><ele>519.0</ele><time>2026-04-04T12:38:57Z</time></trkpt><trkpt lat="43.131570947212296" lon="10.633060394087922"><ele>519.0</ele><time>2026-04-04T12:38:58Z</time></trkpt><trkpt lat="43.131637775033624" lon="10.6331179476847"><ele>519.0</ele><time>2026-04-04T12:38:59Z</time></trkpt><trkpt lat="43.131718110031294" lon="10.633207766893374"><ele>519.0</ele><time>2026-04-04T12:39:00Z</time></trkpt><trkpt lat="43.13175724723283" lon="10.633316872793491"><ele>516.6</ele><time>2026-04-04T12:39:01Z</time></trkpt><trkpt lat="43.13176839816243" lon="10.633442132430082"><ele>514.2</ele><time>2026-04-04T12:39:02Z</time></trkpt><trkpt lat="43.131783827028244" lon="10.633570403293321"><ele>511.80000000000007</ele><time>2026-04-04T12:39:02.999Z</time></trkpt><trkpt lat="43.13179908989336" lon="10.633721086449059"><ele>509.40000000000003</ele><time>2026-04-04T12:39:03.999Z</time></trkpt><trkpt lat="43.131820757378364" lon="10.633860395171643"><ele>507.0</ele><time>2026-04-04T12:39:04.999Z</time></trkpt><trkpt lat="43.13183324233831" lon="10.633998847477269"><ele>507.0</ele><time>2026-04-04T12:39:05.999Z</time></trkpt><trkpt lat="43.13187358513912" lon="10.63414114224137"><ele>507.00000000000006</ele><time>2026-04-04T12:39:06.999Z</time></trkpt><trkpt lat="43.1319030543997" lon="10.634289562236326"><ele>507.00000000000006</ele><time>2026-04-04T12:39:07.999Z</time></trkpt><trkpt lat="43.131925176463525" lon="10.63442712479882"><ele>507.0</ele><time>2026-04-04T12:39:08.999Z</time></trkpt><trkpt lat="43.13194597233124" lon="10.634553264964856"><ele>507.0</ele><time>2026-04-04T12:39:09.999Z</time></trkpt><trkpt lat="43.13195551268505" lon="10.634673675872184"><ele>507.3333333333333</ele><time>2026-04-04T12:39:10.999Z</time></trkpt><trkpt lat="43.13197411605895" lon="10.634769477276185"><ele>507.66666666666663</ele><time>2026-04-04T12:39:11.999Z</time></trkpt><trkpt lat="43.13199815812847" lon="10.634849800328396"><ele>508.0</ele><time>2026-04-04T12:39:12.999Z</time></trkpt><trkpt lat="43.1320950426636" lon="10.63491439767523"><ele>508.3333333333333</ele><time>2026-04-04T12:39:14.999Z</time></trkpt><trkpt lat="43.13216165451857" lon="10.634890122191129"><ele>508.66666666666663</ele><time>2026-04-04T12:39:15.999Z</time></trkpt><trkpt lat="43.13225257883338" lon="10.634844736232107"><ele>509.0</ele><time>2026-04-04T12:39:16.999Z</time></trkpt><trkpt lat="43.13233227793346" lon="10.634841897793539"><ele>507.3333333333333</ele><time>2026-04-04T12:39:17.999Z</time></trkpt><trkpt lat="43.132414281071746" lon="10.634839693174444"><ele>505.66666666666663</ele><time>2026-04-04T12:39:18.999Z</time></trkpt><trkpt lat="43.132493943573735" lon="10.63478269339748"><ele>504.0</ele><time>2026-04-04T12:39:19.999Z</time></trkpt><trkpt lat="43.13252420420539" lon="10.634688531697856"><ele>502.33333333333337</ele><time>2026-04-04T12:39:20.999Z</time></trkpt><trkpt lat="43.132521624823944" lon="10.634589234622508"><ele>500.6666666666667</ele><time>2026-04-04T12:39:21.999Z</time></trkpt><trkpt lat="43.13261055832334" lon="10.634518125714688"><ele>499.0</ele><time>2026-04-04T12:39:23.999Z</time></trkpt><trkpt lat="43.13267348605874" lon="10.634556725077424"><ele>499.0</ele><time>2026-04-04T12:39:24.999Z</time></trkpt><trkpt lat="43.132804463964526" lon="10.634575820948506"><ele>499.0</ele><time>2026-04-04T12:39:26.999Z</time></trkpt><trkpt lat="43.132910053735166" lon="10.634601537787056"><ele>499.0</ele><time>2026-04-04T12:39:28.999Z</time></trkpt><trkpt lat="43.132994848872876" lon="10.634577273083822"><ele>499.0</ele><time>2026-04-04T12:39:29.999Z</time></trkpt><trkpt lat="43.13306096570386" lon="10.634528797777591"><ele>499.0</ele><time>2026-04-04T12:39:30.999Z</time></trkpt><trkpt lat="43.13311857558506" lon="10.634465925035341"><ele>499.8571428571429</ele><time>2026-04-04T12:39:31.999Z</time></trkpt><trkpt lat="43.13317003828686" lon="10.634408656769306"><ele>500.7142857142857</ele><time>2026-04-04T12:39:32.999Z</time></trkpt><trkpt lat="43.13321530494922" lon="10.634343270824496"><ele>501.57142857142856</ele><time>2026-04-04T12:39:33.999Z</time></trkpt><trkpt lat="43.133260910288556" lon="10.634267327412052"><ele>502.42857142857144</ele><time>2026-04-04T12:39:34.999Z</time></trkpt><trkpt lat="43.133299421958746" lon="10.634185851119698"><ele>503.2857142857142</ele><time>2026-04-04T12:39:35.999Z</time></trkpt><trkpt lat="43.133336033355754" lon="10.634104695864597"><ele>504.1428571428571</ele><time>2026-04-04T12:39:36.999Z</time></trkpt><trkpt lat="43.13333534268649" lon="10.634015420446621"><ele>505.0</ele><time>2026-04-04T12:39:37.999Z</time></trkpt><trkpt lat="43.13331770423884" lon="10.633918810088062"><ele>505.6</ele><time>2026-04-04T12:39:38.999Z</time></trkpt><trkpt lat="43.1332791189278" lon="10.633816832223605"><ele>506.2</ele><time>2026-04-04T12:39:39.999Z</time></trkpt><trkpt lat="43.133298421434354" lon="10.633658970202532"><ele>506.79999999999995</ele><time>2026-04-04T12:39:41.999Z</time></trkpt><trkpt lat="43.133340605231986" lon="10.633555963499205"><ele>507.4</ele><time>2026-04-04T12:39:42.999Z</time></trkpt><trkpt lat="43.13337155520654" lon="10.633446755246243"><ele>508.0</ele><time>2026-04-04T12:39:43.999Z</time></trkpt><trkpt lat="43.13343495952929" lon="10.633356718459671"><ele>507.00000000000006</ele><time>2026-04-04T12:39:44.999Z</time></trkpt><trkpt lat="43.13350082264707" lon="10.633259394328181"><ele>506.0</ele><time>2026-04-04T12:39:45.999Z</time></trkpt><trkpt lat="43.13354664398682" lon="10.633161160655856"><ele>505.0</ele><time>2026-04-04T12:39:46.999Z</time></trkpt><trkpt lat="43.133644368278645" lon="10.6330653828936"><ele>504.0</ele><time>2026-04-04T12:39:48.999Z</time></trkpt><trkpt lat="43.133709375317224" lon="10.633087669096035"><ele>503.00000000000006</ele><time>2026-04-04T12:39:49.999Z</time></trkpt><trkpt lat="43.13377466409105" lon="10.633105533776858"><ele>502.0</ele><time>2026-04-04T12:39:50.999Z</time></trkpt><trkpt lat="43.13385493607749" lon="10.633089498101429"><ele>502.0</ele><time>2026-04-04T12:39:51.999Z</time></trkpt><trkpt lat="43.133932232494125" lon="10.633045472274025"><ele>502.00000000000006</ele><time>2026-04-04T12:39:52.999Z</time></trkpt><trkpt lat="43.134005777412526" lon="10.633008408779732"><ele>502.00000000000006</ele><time>2026-04-04T12:39:54.999Z</time></trkpt><trkpt lat="43.13410271094126" lon="10.63296519866096"><ele>502.0</ele><time>2026-04-04T12:39:56.999Z</time></trkpt><trkpt lat="43.13421628027396" lon="10.632888138440295"><ele>502.0</ele><time>2026-04-04T12:39:58.998Z</time></trkpt><trkpt lat="43.134298841119545" lon="10.632889205057523"><ele>502.83333333333337</ele><time>2026-04-04T12:39:59.998Z</time></trkpt><trkpt lat="43.13439656360996" lon="10.632913237885342"><ele>503.6666666666667</ele><time>2026-04-04T12:40:01.998Z</time></trkpt><trkpt lat="43.13448598523794" lon="10.632944039199835"><ele>504.5</ele><time>2026-04-04T12:40:02.998Z</time></trkpt><trkpt lat="43.13457184106845" lon="10.632974812293176"><ele>505.33333333333337</ele><time>2026-04-04T12:40:03.998Z</time></trkpt><trkpt lat="43.134641237167635" lon="10.633003037090438"><ele>506.1666666666667</ele><time>2026-04-04T12:40:04.998Z</time></trkpt><trkpt lat="43.134701120532256" lon="10.633066063035113"><ele>507.0</ele><time>2026-04-04T12:40:05.998Z</time></trkpt><trkpt lat="43.134770730774044" lon="10.633128336641372"><ele>507.0</ele><time>2026-04-04T12:40:06.998Z</time></trkpt><trkpt lat="43.134870937517434" lon="10.63320795803722"><ele>507.00000000000006</ele><time>2026-04-04T12:40:07.998Z</time></trkpt><trkpt lat="43.134950461627504" lon="10.63327135999984"><ele>507.00000000000006</ele><time>2026-04-04T12:40:08.998Z</time></trkpt><trkpt lat="43.135015918512444" lon="10.633302336008931"><ele>507.0</ele><time>2026-04-04T12:40:09.998Z</time></trkpt><trkpt lat="43.13515808591418" lon="10.633291138992865"><ele>507.0</ele><time>2026-04-04T12:40:11.998Z</time></trkpt><trkpt lat="43.13524979928689" lon="10.633282050476296"><ele>507.6</ele><time>2026-04-04T12:40:12.998Z</time></trkpt><trkpt lat="43.13534844601399" lon="10.6332775202956"><ele>508.20000000000005</ele><time>2026-04-04T12:40:13.998Z</time></trkpt><trkpt lat="43.135431297290296" lon="10.633271517242488"><ele>508.8</ele><time>2026-04-04T12:40:14.998Z</time></trkpt><trkpt lat="43.13552813469778" lon="10.633261850422658"><ele>509.4</ele><time>2026-04-04T12:40:15.998Z</time></trkpt><trkpt lat="43.13561287908145" lon="10.63325371818125"><ele>510.0</ele><time>2026-04-04T12:40:16.998Z</time></trkpt><trkpt lat="43.135705042352704" lon="10.633243886532664"><ele>508.5</ele><time>2026-04-04T12:40:17.998Z</time></trkpt><trkpt lat="43.13578710331402" lon="10.633210922547612"><ele>507.0</ele><time>2026-04-04T12:40:18.998Z</time></trkpt><trkpt lat="43.13585915035405" lon="10.633171273860885"><ele>505.5</ele><time>2026-04-04T12:40:19.998Z</time></trkpt><trkpt lat="43.135923857124695" lon="10.63310736205498"><ele>504.0</ele><time>2026-04-04T12:40:20.998Z</time></trkpt><trkpt lat="43.13599221784763" lon="10.633064291963363"><ele>502.5</ele><time>2026-04-04T12:40:21.998Z</time></trkpt><trkpt lat="43.13606732786786" lon="10.633026300618472"><ele>501.0</ele><time>2026-04-04T12:40:22.998Z</time></trkpt><trkpt lat="43.136144364122366" lon="10.63301584549456"><ele>501.0</ele><time>2026-04-04T12:40:23.998Z</time></trkpt><trkpt lat="43.13628793316973" lon="10.63303211828234"><ele>501.0</ele><time>2026-04-04T12:40:25.998Z</time></trkpt><trkpt lat="43.13636160329283" lon="10.633040514799633"><ele>501.0</ele><time>2026-04-04T12:40:27Z</time></trkpt><trkpt lat="43.13643170361082" lon="10.633073790962062"><ele>501.0</ele><time>2026-04-04T12:40:28Z</time></trkpt><trkpt lat="43.136517385406634" lon="10.633121189990256"><ele>501.0</ele><time>2026-04-04T12:40:29Z</time></trkpt><trkpt lat="43.13658536958223" lon="10.633182484125841"><ele>498.6666666666667</ele><time>2026-04-04T12:40:30Z</time></trkpt><trkpt lat="43.13665967730311" lon="10.63325291367686"><ele>496.33333333333337</ele><time>2026-04-04T12:40:31Z</time></trkpt><trkpt lat="43.136737142957045" lon="10.633274099772224"><ele>494.0</ele><time>2026-04-04T12:40:32Z</time></trkpt><trkpt lat="43.13682566211235" lon="10.633255024743997"><ele>491.6666666666667</ele><time>2026-04-04T12:40:33Z</time></trkpt><trkpt lat="43.13690654427346" lon="10.633221472722813"><ele>489.33333333333337</ele><time>2026-04-04T12:40:34Z</time></trkpt><trkpt lat="43.13698422405645" lon="10.633190016140599"><ele>487.0</ele><time>2026-04-04T12:40:35Z</time></trkpt><trkpt lat="43.13706924125904" lon="10.633207999381325"><ele>487.0</ele><time>2026-04-04T12:40:36Z</time></trkpt><trkpt lat="43.13713295819764" lon="10.633250973206652"><ele>487.0</ele><time>2026-04-04T12:40:37Z</time></trkpt><trkpt lat="43.13720772551964" lon="10.633282214632958"><ele>487.0</ele><time>2026-04-04T12:40:38Z</time></trkpt><trkpt lat="43.13728111583492" lon="10.633276073993702"><ele>487.0</ele><time>2026-04-04T12:40:39Z</time></trkpt><trkpt lat="43.13734507192313" lon="10.633269472888474"><ele>487.0</ele><time>2026-04-04T12:40:40Z</time></trkpt><trkpt lat="43.13742775498286" lon="10.633269774766696"><ele>487.0</ele><time>2026-04-04T12:40:42Z</time></trkpt><trkpt lat="43.137486899202514" lon="10.633233886494088"><ele>487.0</ele><time>2026-04-04T12:40:43Z</time></trkpt><trkpt lat="43.13756434493598" lon="10.63318123663586"><ele>484.00000000000006</ele><time>2026-04-04T12:40:45Z</time></trkpt><trkpt lat="43.137702637219874" lon="10.633231055213212"><ele>481.0</ele><time>2026-04-04T12:40:47Z</time></trkpt><trkpt lat="43.1377696954817" lon="10.633236496924734"><ele>478.0</ele><time>2026-04-04T12:40:48Z</time></trkpt><trkpt lat="43.13784452430405" lon="10.63321079798678"><ele>475.0</ele><time>2026-04-04T12:40:49Z</time></trkpt><trkpt lat="43.137913441617314" lon="10.633137973982485"><ele>472.00000000000006</ele><time>2026-04-04T12:40:50Z</time></trkpt><trkpt lat="43.13796446882552" lon="10.633068046992875"><ele>469.0</ele><time>2026-04-04T12:40:51Z</time></trkpt><trkpt lat="43.13802699163944" lon="10.633037245850309"><ele>469.0</ele><time>2026-04-04T12:40:52Z</time></trkpt><trkpt lat="43.13812321512993" lon="10.633031518682998"><ele>469.0</ele><time>2026-04-04T12:40:53Z</time></trkpt><trkpt lat="43.138222411860355" lon="10.633006159262472"><ele>469.0</ele><time>2026-04-04T12:40:54Z</time></trkpt><trkpt lat="43.13836813877172" lon="10.63298917429495"><ele>469.0</ele><time>2026-04-04T12:40:56Z</time></trkpt><trkpt lat="43.13843925713574" lon="10.633026734155745"><ele>469.0</ele><time>2026-04-04T12:40:57Z</time></trkpt><trkpt lat="43.138510723937124" lon="10.633020673493464"><ele>466.50000000000006</ele><time>2026-04-04T12:40:58Z</time></trkpt><trkpt lat="43.13858707745418" lon="10.632997982371677"><ele>464.0</ele><time>2026-04-04T12:40:59Z</time></trkpt><trkpt lat="43.13866267967065" lon="10.632996234787639"><ele>461.5</ele><time>2026-04-04T12:41:00Z</time></trkpt><trkpt lat="43.138732590874106" lon="10.6329999060329"><ele>459.0</ele><time>2026-04-04T12:41:01Z</time></trkpt><trkpt lat="43.13885052991044" lon="10.633059124575315"><ele>456.50000000000006</ele><time>2026-04-04T12:41:03Z</time></trkpt><trkpt lat="43.138924874493604" lon="10.632982014043318"><ele>454.0</ele><time>2026-04-04T12:41:05Z</time></trkpt><trkpt lat="43.13903308121724" lon="10.632904537868813"><ele>450.4</ele><time>2026-04-04T12:41:07Z</time></trkpt><trkpt lat="43.13914842971164" lon="10.632863422156754"><ele>446.79999999999995</ele><time>2026-04-04T12:41:09Z</time></trkpt><trkpt lat="43.13922479161794" lon="10.632878930774915"><ele>443.20000000000005</ele><time>2026-04-04T12:41:09.999Z</time></trkpt><trkpt lat="43.139346541355614" lon="10.63292322955265"><ele>439.6</ele><time>2026-04-04T12:41:11.999Z</time></trkpt><trkpt lat="43.13940841074666" lon="10.632976446876228"><ele>436.0</ele><time>2026-04-04T12:41:12.999Z</time></trkpt><trkpt lat="43.13949405574248" lon="10.633047254638349"><ele>436.00000000000006</ele><time>2026-04-04T12:41:13.999Z</time></trkpt><trkpt lat="43.139569730686695" lon="10.633083731715368"><ele>436.0</ele><time>2026-04-04T12:41:14.999Z</time></trkpt><trkpt lat="43.139644011716136" lon="10.63306962669622"><ele>436.0</ele><time>2026-04-04T12:41:15.999Z</time></trkpt><trkpt lat="43.1397286366225" lon="10.633065710119803"><ele>436.0</ele><time>2026-04-04T12:41:16.999Z</time></trkpt><trkpt lat="43.13978422245322" lon="10.633111272237166"><ele>436.00000000000006</ele><time>2026-04-04T12:41:17.999Z</time></trkpt><trkpt lat="43.13987394510765" lon="10.633128219677923"><ele>436.0</ele><time>2026-04-04T12:41:19.999Z</time></trkpt><trkpt lat="43.1399270761713" lon="10.633070334304515"><ele>436.4</ele><time>2026-04-04T12:41:20.999Z</time></trkpt><trkpt lat="43.13998228847344" lon="10.633012252439771"><ele>436.8</ele><time>2026-04-04T12:41:21.999Z</time></trkpt><trkpt lat="43.14008821245983" lon="10.632934993673064"><ele>437.19999999999993</ele><time>2026-04-04T12:41:22.999Z</time></trkpt><trkpt lat="43.14016660472509" lon="10.632843303374054"><ele>437.59999999999997</ele><time>2026-04-04T12:41:23.999Z</time></trkpt><trkpt lat="43.140243210917724" lon="10.632736041575841"><ele>438.0</ele><time>2026-04-04T12:41:24.999Z</time></trkpt><trkpt lat="43.14032079091949" lon="10.63262383494724"><ele>437.8333333333333</ele><time>2026-04-04T12:41:25.999Z</time></trkpt><trkpt lat="43.14038409572242" lon="10.632525053407164"><ele>437.66666666666663</ele><time>2026-04-04T12:41:26.999Z</time></trkpt><trkpt lat="43.140458229315634" lon="10.632440162693129"><ele>437.5</ele><time>2026-04-04T12:41:27.999Z</time></trkpt><trkpt lat="43.14053659702038" lon="10.632379989893606"><ele>437.3333333333333</ele><time>2026-04-04T12:41:28.999Z</time></trkpt><trkpt lat="43.14061788799178" lon="10.632339887758407"><ele>437.16666666666663</ele><time>2026-04-04T12:41:29.999Z</time></trkpt><trkpt lat="43.14068866554701" lon="10.63229015875665"><ele>437.0</ele><time>2026-04-04T12:41:30.999Z</time></trkpt><trkpt lat="43.14079092411086" lon="10.632219500451644"><ele>437.0</ele><time>2026-04-04T12:41:31.999Z</time></trkpt><trkpt lat="43.1408903591808" lon="10.63216853499456"><ele>437.00000000000006</ele><time>2026-04-04T12:41:32.999Z</time></trkpt><trkpt lat="43.140990057202785" lon="10.63215024513681"><ele>437.00000000000006</ele><time>2026-04-04T12:41:33.999Z</time></trkpt><trkpt lat="43.14109484367575" lon="10.632147254747304"><ele>437.0</ele><time>2026-04-04T12:41:34.999Z</time></trkpt><trkpt lat="43.141205898025454" lon="10.632150810275009"><ele>437.0</ele><time>2026-04-04T12:41:35.999Z</time></trkpt><trkpt lat="43.141300603111986" lon="10.632159023815847"><ele>437.0</ele><time>2026-04-04T12:41:36.999Z</time></trkpt><trkpt lat="43.141398273052076" lon="10.632186958444423"><ele>437.00000000000006</ele><time>2026-04-04T12:41:37.999Z</time></trkpt><trkpt lat="43.141501114060965" lon="10.63222268109916"><ele>437.00000000000006</ele><time>2026-04-04T12:41:38.999Z</time></trkpt><trkpt lat="43.14159933939358" lon="10.632248543512771"><ele>437.0</ele><time>2026-04-04T12:41:39.999Z</time></trkpt><trkpt lat="43.14170778490125" lon="10.632284251674976"><ele>437.0</ele><time>2026-04-04T12:41:40.999Z</time></trkpt><trkpt lat="43.14182412619571" lon="10.632321261967261"><ele>436.0</ele><time>2026-04-04T12:41:41.999Z</time></trkpt><trkpt lat="43.141948953370914" lon="10.632348105803931"><ele>435.0</ele><time>2026-04-04T12:41:42.999Z</time></trkpt><trkpt lat="43.14207082019844" lon="10.63237829401347"><ele>434.0</ele><time>2026-04-04T12:41:43.999Z</time></trkpt><trkpt lat="43.14218193018678" lon="10.632410394946008"><ele>433.0</ele><time>2026-04-04T12:41:44.999Z</time></trkpt><trkpt lat="43.142292175235525" lon="10.63244243865687"><ele>431.6666666666667</ele><time>2026-04-04T12:41:45.999Z</time></trkpt><trkpt lat="43.14239265930212" lon="10.632464878155085"><ele>430.33333333333337</ele><time>2026-04-04T12:41:46.999Z</time></trkpt><trkpt lat="43.14249217232632" lon="10.632476493525896"><ele>429.0</ele><time>2026-04-04T12:41:47.999Z</time></trkpt><trkpt lat="43.142570709732446" lon="10.63249181762323"><ele>427.66666666666663</ele><time>2026-04-04T12:41:48.999Z</time></trkpt><trkpt lat="43.142632584081205" lon="10.632544908887544"><ele>426.3333333333333</ele><time>2026-04-04T12:41:49.999Z</time></trkpt><trkpt lat="43.14269208504765" lon="10.632597152139047"><ele>425.0</ele><time>2026-04-04T12:41:50.999Z</time></trkpt><trkpt lat="43.142768994678136" lon="10.63267081071518"><ele>425.0</ele><time>2026-04-04T12:41:51.999Z</time></trkpt><trkpt lat="43.14283188224809" lon="10.63273254436509"><ele>425.0</ele><time>2026-04-04T12:41:52.999Z</time></trkpt><trkpt lat="43.14295284835302" lon="10.632733659649247"><ele>425.0</ele><time>2026-04-04T12:41:54.999Z</time></trkpt><trkpt lat="43.14304051419514" lon="10.632685171622231"><ele>425.0</ele><time>2026-04-04T12:41:56.999Z</time></trkpt><trkpt lat="43.143127363401376" lon="10.632659652712881"><ele>425.0</ele><time>2026-04-04T12:41:57.999Z</time></trkpt><trkpt lat="43.14319494595341" lon="10.632643313408858"><ele>422.0</ele><time>2026-04-04T12:41:58.999Z</time></trkpt><trkpt lat="43.143261917339096" lon="10.632654529502426"><ele>419.0</ele><time>2026-04-04T12:41:59.999Z</time></trkpt><trkpt lat="43.143360604501055" lon="10.632708591008589"><ele>416.0</ele><time>2026-04-04T12:42:01.999Z</time></trkpt><trkpt lat="43.14350821198652" lon="10.632703354411678"><ele>413.0</ele><time>2026-04-04T12:42:03.999Z</time></trkpt><trkpt lat="43.14359121083675" lon="10.632696337032067"><ele>410.0</ele><time>2026-04-04T12:42:04.998Z</time></trkpt><trkpt lat="43.143668955046216" lon="10.6326825376437"><ele>409.99999999999994</ele><time>2026-04-04T12:42:05.998Z</time></trkpt><trkpt lat="43.14373641399799" lon="10.632670259935216"><ele>410.0</ele><time>2026-04-04T12:42:06.998Z</time></trkpt><trkpt lat="43.143827781101145" lon="10.632657400368473"><ele>410.0</ele><time>2026-04-04T12:42:07.998Z</time></trkpt><trkpt lat="43.143907785057756" lon="10.632642435876557"><ele>410.0</ele><time>2026-04-04T12:42:08.998Z</time></trkpt><trkpt lat="43.14399406725599" lon="10.632654251281716"><ele>409.99999999999994</ele><time>2026-04-04T12:42:09.998Z</time></trkpt><trkpt lat="43.144101414522275" lon="10.632685793938004"><ele>410.0</ele><time>2026-04-04T12:42:10.998Z</time></trkpt><trkpt lat="43.14418123905468" lon="10.632688986886617"><ele>408.49999999999994</ele><time>2026-04-04T12:42:11.998Z</time></trkpt><trkpt lat="43.144264867273726" lon="10.632672243470758"><ele>407.0</ele><time>2026-04-04T12:42:12.998Z</time></trkpt><trkpt lat="43.14435025951276" lon="10.63264470757492"><ele>405.5</ele><time>2026-04-04T12:42:13.998Z</time></trkpt><trkpt lat="43.14442454720765" lon="10.632587725251966"><ele>404.0</ele><time>2026-04-04T12:42:14.998Z</time></trkpt><trkpt lat="43.14450997068797" lon="10.632550281820377"><ele>402.49999999999994</ele><time>2026-04-04T12:42:15.998Z</time></trkpt><trkpt lat="43.144604430060035" lon="10.632545107844985"><ele>401.0</ele><time>2026-04-04T12:42:16.998Z</time></trkpt><trkpt lat="43.14469866007213" lon="10.632514393758598"><ele>401.0</ele><time>2026-04-04T12:42:17.998Z</time></trkpt><trkpt lat="43.14478397175841" lon="10.632452914135374"><ele>401.0</ele><time>2026-04-04T12:42:18.998Z</time></trkpt><trkpt lat="43.144863248366605" lon="10.63238348287535"><ele>401.0</ele><time>2026-04-04T12:42:19.998Z</time></trkpt><trkpt lat="43.14494716440931" lon="10.632332630125404"><ele>401.0</ele><time>2026-04-04T12:42:20.998Z</time></trkpt><trkpt lat="43.145041895094344" lon="10.632295500951122"><ele>401.0</ele><time>2026-04-04T12:42:21.998Z</time></trkpt><trkpt lat="43.145128180663896" lon="10.632260735561234"><ele>400.99999999999994</ele><time>2026-04-04T12:42:22.998Z</time></trkpt><trkpt lat="43.145215123502666" lon="10.632246245753848"><ele>401.0</ele><time>2026-04-04T12:42:23.998Z</time></trkpt><trkpt lat="43.14530460234907" lon="10.632254593637947"><ele>401.0</ele><time>2026-04-04T12:42:24.998Z</time></trkpt><trkpt lat="43.145387349690466" lon="10.632282462915514"><ele>401.0</ele><time>2026-04-04T12:42:25.998Z</time></trkpt><trkpt lat="43.145467003051145" lon="10.632321227137787"><ele>400.99999999999994</ele><time>2026-04-04T12:42:26.998Z</time></trkpt><trkpt lat="43.14554170206258" lon="10.632376144520933"><ele>401.0</ele><time>2026-04-04T12:42:27.998Z</time></trkpt><trkpt lat="43.145598301514724" lon="10.63244493158723"><ele>400.99999999999994</ele><time>2026-04-04T12:42:28.998Z</time></trkpt><trkpt lat="43.14564062780545" lon="10.632515243440364"><ele>401.0</ele><time>2026-04-04T12:42:29.998Z</time></trkpt><trkpt lat="43.14569807320995" lon="10.63257009678673"><ele>401.0</ele><time>2026-04-04T12:42:30.998Z</time></trkpt><trkpt lat="43.145759716731845" lon="10.632597540791556"><ele>401.0</ele><time>2026-04-04T12:42:31.998Z</time></trkpt><trkpt lat="43.145912895017474" lon="10.632580269160432"><ele>400.99999999999994</ele><time>2026-04-04T12:42:34Z</time></trkpt><trkpt lat="43.14599806773448" lon="10.632549209118745"><ele>401.0</ele><time>2026-04-04T12:42:35Z</time></trkpt><trkpt lat="43.14608135641151" lon="10.632548117481045"><ele>400.3333333333333</ele><time>2026-04-04T12:42:36Z</time></trkpt><trkpt lat="43.1461573905723" lon="10.632589780292134"><ele>399.66666666666663</ele><time>2026-04-04T12:42:37Z</time></trkpt><trkpt lat="43.146220050973504" lon="10.6326436820071"><ele>399.0</ele><time>2026-04-04T12:42:38Z</time></trkpt><trkpt lat="43.14629602753498" lon="10.632679762231861"><ele>398.33333333333337</ele><time>2026-04-04T12:42:39Z</time></trkpt><trkpt lat="43.146385411649824" lon="10.63266548360308"><ele>397.6666666666667</ele><time>2026-04-04T12:42:40Z</time></trkpt><trkpt lat="43.14644663193161" lon="10.632599753553272"><ele>397.0</ele><time>2026-04-04T12:42:41Z</time></trkpt><trkpt lat="43.146517308757005" lon="10.632522655010765"><ele>395.33333333333337</ele><time>2026-04-04T12:42:42Z</time></trkpt><trkpt lat="43.14659724307249" lon="10.632456875141058"><ele>393.6666666666667</ele><time>2026-04-04T12:42:43Z</time></trkpt><trkpt lat="43.14667085532922" lon="10.632418712031768"><ele>392.0</ele><time>2026-04-04T12:42:44Z</time></trkpt><trkpt lat="43.14675997511979" lon="10.632370316156114"><ele>390.33333333333337</ele><time>2026-04-04T12:42:45Z</time></trkpt><trkpt lat="43.14684744802724" lon="10.632335814207662"><ele>388.6666666666667</ele><time>2026-04-04T12:42:46Z</time></trkpt><trkpt lat="43.14692361950903" lon="10.632315162686412"><ele>387.0</ele><time>2026-04-04T12:42:47Z</time></trkpt><trkpt lat="43.14701052372297" lon="10.632280725317669"><ele>387.0</ele><time>2026-04-04T12:42:48Z</time></trkpt><trkpt lat="43.14711281330032" lon="10.63221317251218"><ele>387.0</ele><time>2026-04-04T12:42:50Z</time></trkpt><trkpt lat="43.147184137239684" lon="10.632161629588476"><ele>387.0</ele><time>2026-04-04T12:42:51Z</time></trkpt><trkpt lat="43.14726120541853" lon="10.63209753334578"><ele>387.0</ele><time>2026-04-04T12:42:52Z</time></trkpt><trkpt lat="43.14733303938783" lon="10.632025947848808"><ele>387.0</ele><time>2026-04-04T12:42:53Z</time></trkpt><trkpt lat="43.14742137148757" lon="10.631978723207832"><ele>386.8</ele><time>2026-04-04T12:42:54Z</time></trkpt><trkpt lat="43.147511329140855" lon="10.631957890110458"><ele>386.6</ele><time>2026-04-04T12:42:55Z</time></trkpt><trkpt lat="43.14760370239708" lon="10.631960219161012"><ele>386.40000000000003</ele><time>2026-04-04T12:42:56Z</time></trkpt><trkpt lat="43.14768890078554" lon="10.631995615068561"><ele>386.20000000000005</ele><time>2026-04-04T12:42:57Z</time></trkpt><trkpt lat="43.1477675141176" lon="10.632073987690257"><ele>386.0</ele><time>2026-04-04T12:42:58Z</time></trkpt><trkpt lat="43.14784210186899" lon="10.63217200807809"><ele>384.6</ele><time>2026-04-04T12:42:59Z</time></trkpt><trkpt lat="43.14790778237949" lon="10.632291294858103"><ele>383.20000000000005</ele><time>2026-04-04T12:43:00Z</time></trkpt><trkpt lat="43.14796155866432" lon="10.63240935484403"><ele>381.79999999999995</ele><time>2026-04-04T12:43:01Z</time></trkpt><trkpt lat="43.14803153685158" lon="10.632506262401748"><ele>380.4</ele><time>2026-04-04T12:43:02Z</time></trkpt><trkpt lat="43.148107751305226" lon="10.632560805063664"><ele>379.0</ele><time>2026-04-04T12:43:03Z</time></trkpt><trkpt lat="43.14819227008304" lon="10.632596169434331"><ele>380.16666666666663</ele><time>2026-04-04T12:43:04Z</time></trkpt><trkpt lat="43.148281066368966" lon="10.632659944673964"><ele>381.3333333333333</ele><time>2026-04-04T12:43:05Z</time></trkpt><trkpt lat="43.14835220365672" lon="10.632732271501958"><ele>382.5</ele><time>2026-04-04T12:43:06Z</time></trkpt><trkpt lat="43.148397358024106" lon="10.632818636217484"><ele>383.66666666666663</ele><time>2026-04-04T12:43:07Z</time></trkpt><trkpt lat="43.148438199844755" lon="10.63289660595465"><ele>384.8333333333333</ele><time>2026-04-04T12:43:08Z</time></trkpt><trkpt lat="43.14849287397557" lon="10.633000403245802"><ele>386.0</ele><time>2026-04-04T12:43:09Z</time></trkpt><trkpt lat="43.14855126047976" lon="10.633105503113436"><ele>387.20000000000005</ele><time>2026-04-04T12:43:10Z</time></trkpt><trkpt lat="43.14860811373543" lon="10.633223246802178"><ele>388.40000000000003</ele><time>2026-04-04T12:43:11Z</time></trkpt><trkpt lat="43.14865119932852" lon="10.633344481326723"><ele>389.6</ele><time>2026-04-04T12:43:11.999Z</time></trkpt><trkpt lat="43.148700269785046" lon="10.633466213336922"><ele>390.8</ele><time>2026-04-04T12:43:12.999Z</time></trkpt><trkpt lat="43.14874231769013" lon="10.633571492839023"><ele>392.0</ele><time>2026-04-04T12:43:13.999Z</time></trkpt><trkpt lat="43.148786219062764" lon="10.633661940992816"><ele>392.0</ele><time>2026-04-04T12:43:14.999Z</time></trkpt><trkpt lat="43.14884966538828" lon="10.633736074141959"><ele>392.0</ele><time>2026-04-04T12:43:15.999Z</time></trkpt><trkpt lat="43.148939405388255" lon="10.633787650928745"><ele>392.0</ele><time>2026-04-04T12:43:16.999Z</time></trkpt><trkpt lat="43.14904201958748" lon="10.633776339839503"><ele>392.0</ele><time>2026-04-04T12:43:17.999Z</time></trkpt><trkpt lat="43.149130397890055" lon="10.63373066935001"><ele>392.0</ele><time>2026-04-04T12:43:18.999Z</time></trkpt><trkpt lat="43.14921521897466" lon="10.633657249265706"><ele>393.0</ele><time>2026-04-04T12:43:19.999Z</time></trkpt><trkpt lat="43.14933492250822" lon="10.633604193030424"><ele>394.0</ele><time>2026-04-04T12:43:20.999Z</time></trkpt><trkpt lat="43.14945125843477" lon="10.633569031772142"><ele>395.0</ele><time>2026-04-04T12:43:21.999Z</time></trkpt><trkpt lat="43.14956252935356" lon="10.633532399520568"><ele>396.0</ele><time>2026-04-04T12:43:22.999Z</time></trkpt><trkpt lat="43.14966801868505" lon="10.633479034649076"><ele>396.0</ele><time>2026-04-04T12:43:23.999Z</time></trkpt><trkpt lat="43.14975440265428" lon="10.633438010945934"><ele>396.0</ele><time>2026-04-04T12:43:24.999Z</time></trkpt><trkpt lat="43.149850423588546" lon="10.63342768211156"><ele>396.0</ele><time>2026-04-04T12:43:25.999Z</time></trkpt><trkpt lat="43.14994925365988" lon="10.633471751413948"><ele>396.0</ele><time>2026-04-04T12:43:26.999Z</time></trkpt><trkpt lat="43.15003035426753" lon="10.633492511321567"><ele>396.0</ele><time>2026-04-04T12:43:27.999Z</time></trkpt><trkpt lat="43.15010537729224" lon="10.633462074897482"><ele>395.8333333333333</ele><time>2026-04-04T12:43:28.999Z</time></trkpt><trkpt lat="43.15016462804313" lon="10.633387328051084"><ele>395.66666666666663</ele><time>2026-04-04T12:43:29.999Z</time></trkpt><trkpt lat="43.15020146807091" lon="10.633306286436792"><ele>395.5</ele><time>2026-04-04T12:43:30.999Z</time></trkpt><trkpt lat="43.1502548466523" lon="10.633210246218528"><ele>395.3333333333333</ele><time>2026-04-04T12:43:31.999Z</time></trkpt><trkpt lat="43.15032715366784" lon="10.63309477970427"><ele>395.16666666666663</ele><time>2026-04-04T12:43:32.999Z</time></trkpt><trkpt lat="43.15040210620702" lon="10.633031463771417"><ele>395.0</ele><time>2026-04-04T12:43:33.999Z</time></trkpt><trkpt lat="43.150502248914364" lon="10.632976622263914"><ele>395.0</ele><time>2026-04-04T12:43:34.999Z</time></trkpt><trkpt lat="43.150572342723635" lon="10.632933787933903"><ele>395.0</ele><time>2026-04-04T12:43:35.999Z</time></trkpt><trkpt lat="43.15067069618618" lon="10.632878529412215"><ele>395.0</ele><time>2026-04-04T12:43:36.999Z</time></trkpt><trkpt lat="43.15076778004036" lon="10.632842080841682"><ele>395.0</ele><time>2026-04-04T12:43:37.999Z</time></trkpt><trkpt lat="43.150849016659286" lon="10.632805032404422"><ele>395.0</ele><time>2026-04-04T12:43:38.999Z</time></trkpt><trkpt lat="43.15092844641748" lon="10.632762874865643"><ele>396.4</ele><time>2026-04-04T12:43:39.999Z</time></trkpt><trkpt lat="43.15099958415517" lon="10.632695713177238"><ele>397.8</ele><time>2026-04-04T12:43:40.999Z</time></trkpt><trkpt lat="43.15108883378469" lon="10.632595938646466"><ele>399.20000000000005</ele><time>2026-04-04T12:43:41.999Z</time></trkpt><trkpt lat="43.15117457363618" lon="10.632502298482889"><ele>400.6</ele><time>2026-04-04T12:43:42.999Z</time></trkpt><trkpt lat="43.1512552462006" lon="10.632418271371275"><ele>402.0</ele><time>2026-04-04T12:43:43.999Z</time></trkpt><trkpt lat="43.15133016131503" lon="10.632312659364075"><ele>402.0</ele><time>2026-04-04T12:43:44.999Z</time></trkpt><trkpt lat="43.15140160840312" lon="10.632207812475201"><ele>402.0</ele><time>2026-04-04T12:43:45.999Z</time></trkpt><trkpt lat="43.151467441550366" lon="10.632100978745072"><ele>402.0</ele><time>2026-04-04T12:43:46.999Z</time></trkpt><trkpt lat="43.151534747766455" lon="10.632002107066652"><ele>402.0</ele><time>2026-04-04T12:43:47.999Z</time></trkpt><trkpt lat="43.151600460682374" lon="10.63192204885361"><ele>402.0</ele><time>2026-04-04T12:43:48.999Z</time></trkpt><trkpt lat="43.151663391303735" lon="10.631820539298465"><ele>400.6</ele><time>2026-04-04T12:43:49.999Z</time></trkpt><trkpt lat="43.151719692330765" lon="10.631704203814447"><ele>399.20000000000005</ele><time>2026-04-04T12:43:50.999Z</time></trkpt><trkpt lat="43.15176316346779" lon="10.631585337557077"><ele>397.8</ele><time>2026-04-04T12:43:51.999Z</time></trkpt><trkpt lat="43.15178117250689" lon="10.631472164513541"><ele>396.4</ele><time>2026-04-04T12:43:52.999Z</time></trkpt><trkpt lat="43.15178008731129" lon="10.631327557631714"><ele>395.0</ele><time>2026-04-04T12:43:53.999Z</time></trkpt><trkpt lat="43.151797896250606" lon="10.631162908177535"><ele>393.6</ele><time>2026-04-04T12:43:54.999Z</time></trkpt><trkpt lat="43.15178444837415" lon="10.63102779021124"><ele>392.2</ele><time>2026-04-04T12:43:55.999Z</time></trkpt><trkpt lat="43.151761866695196" lon="10.630904242503153"><ele>390.79999999999995</ele><time>2026-04-04T12:43:56.999Z</time></trkpt><trkpt lat="43.151761299899995" lon="10.63078790117083"><ele>389.4</ele><time>2026-04-04T12:43:57.999Z</time></trkpt><trkpt lat="43.15175310489644" lon="10.630664694394891"><ele>388.0</ele><time>2026-04-04T12:43:58.999Z</time></trkpt><trkpt lat="43.151708980872094" lon="10.630510627371478"><ele>388.0</ele><time>2026-04-04T12:43:59.999Z</time></trkpt><trkpt lat="43.151693163196505" lon="10.630379154929702"><ele>388.0</ele><time>2026-04-04T12:44:00.999Z</time></trkpt><trkpt lat="43.15168656072028" lon="10.630265848137725"><ele>388.0</ele><time>2026-04-04T12:44:01.999Z</time></trkpt><trkpt lat="43.15168700297943" lon="10.630144660271226"><ele>388.0</ele><time>2026-04-04T12:44:02.999Z</time></trkpt><trkpt lat="43.151708714633415" lon="10.629949580101592"><ele>388.0</ele><time>2026-04-04T12:44:03.999Z</time></trkpt><trkpt lat="43.151738974786774" lon="10.629756798036762"><ele>387.0</ele><time>2026-04-04T12:44:04.999Z</time></trkpt><trkpt lat="43.15177018312527" lon="10.629587930931956"><ele>386.0</ele><time>2026-04-04T12:44:05.998Z</time></trkpt><trkpt lat="43.151805305826315" lon="10.629422920610706"><ele>385.0</ele><time>2026-04-04T12:44:06.998Z</time></trkpt><trkpt lat="43.15184768285305" lon="10.629299555916957"><ele>384.0</ele><time>2026-04-04T12:44:07.998Z</time></trkpt><trkpt lat="43.151931817647835" lon="10.629200986133224"><ele>384.0</ele><time>2026-04-04T12:44:08.998Z</time></trkpt><trkpt lat="43.15202185665107" lon="10.629115920341606"><ele>384.0</ele><time>2026-04-04T12:44:09.998Z</time></trkpt><trkpt lat="43.15208758713169" lon="10.629004286133606"><ele>384.0</ele><time>2026-04-04T12:44:10.998Z</time></trkpt><trkpt lat="43.15214096572487" lon="10.628868170794869"><ele>384.0</ele><time>2026-04-04T12:44:11.998Z</time></trkpt><trkpt lat="43.152191941318016" lon="10.628741866062688"><ele>384.0</ele><time>2026-04-04T12:44:12.998Z</time></trkpt><trkpt lat="43.152243874035456" lon="10.628624485986009"><ele>383.0</ele><time>2026-04-04T12:44:13.998Z</time></trkpt><trkpt lat="43.152293841569794" lon="10.62849619510031"><ele>382.0</ele><time>2026-04-04T12:44:14.998Z</time></trkpt><trkpt lat="43.152349879000276" lon="10.628361311188826"><ele>381.0</ele><time>2026-04-04T12:44:15.998Z</time></trkpt><trkpt lat="43.152399656594" lon="10.628211640469452"><ele>380.0</ele><time>2026-04-04T12:44:16.998Z</time></trkpt><trkpt lat="43.15243737516255" lon="10.628063586981328"><ele>375.5</ele><time>2026-04-04T12:44:17.998Z</time></trkpt><trkpt lat="43.15242709794909" lon="10.627948131237572"><ele>371.0</ele><time>2026-04-04T12:44:18.998Z</time></trkpt><trkpt lat="43.152420552596716" lon="10.627845124643349"><ele>366.5</ele><time>2026-04-04T12:44:19.998Z</time></trkpt><trkpt lat="43.1524187118233" lon="10.627732619163163"><ele>362.0</ele><time>2026-04-04T12:44:20.998Z</time></trkpt><trkpt lat="43.15245762882436" lon="10.627631746993154"><ele>357.5</ele><time>2026-04-04T12:44:21.998Z</time></trkpt><trkpt lat="43.1525260650935" lon="10.62755525526808"><ele>353.0</ele><time>2026-04-04T12:44:22.998Z</time></trkpt><trkpt lat="43.15263125685505" lon="10.62750543092462"><ele>352.2</ele><time>2026-04-04T12:44:23.998Z</time></trkpt><trkpt lat="43.15273617013096" lon="10.627472047070036"><ele>351.4</ele><time>2026-04-04T12:44:24.998Z</time></trkpt><trkpt lat="43.152796917672404" lon="10.62741692928628"><ele>350.59999999999997</ele><time>2026-04-04T12:44:25.998Z</time></trkpt><trkpt lat="43.1528551647431" lon="10.627357453902068"><ele>349.79999999999995</ele><time>2026-04-04T12:44:26.998Z</time></trkpt><trkpt lat="43.15291240329741" lon="10.627269761049027"><ele>349.0</ele><time>2026-04-04T12:44:27.998Z</time></trkpt><trkpt lat="43.15297101114346" lon="10.627128652784457"><ele>344.75</ele><time>2026-04-04T12:44:28.998Z</time></trkpt><trkpt lat="43.15301790177046" lon="10.626939486577136"><ele>340.5</ele><time>2026-04-04T12:44:29.998Z</time></trkpt><trkpt lat="43.1530503989886" lon="10.626810534467188"><ele>336.25</ele><time>2026-04-04T12:44:30.998Z</time></trkpt><trkpt lat="43.153082740913376" lon="10.62665392941881"><ele>332.0</ele><time>2026-04-04T12:44:31.998Z</time></trkpt><trkpt lat="43.153084859859355" lon="10.62653011965769"><ele>332.0</ele><time>2026-04-04T12:44:32.998Z</time></trkpt><trkpt lat="43.15305638834963" lon="10.626423582645149"><ele>332.0</ele><time>2026-04-04T12:44:33.998Z</time></trkpt><trkpt lat="43.153020311459954" lon="10.6263077224006"><ele>332.0</ele><time>2026-04-04T12:44:34.998Z</time></trkpt><trkpt lat="43.15299861172738" lon="10.626152884740284"><ele>332.0</ele><time>2026-04-04T12:44:35.998Z</time></trkpt><trkpt lat="43.1530013322516" lon="10.626003728200264"><ele>332.0</ele><time>2026-04-04T12:44:36.998Z</time></trkpt><trkpt lat="43.153007897317295" lon="10.625853037147605"><ele>329.5</ele><time>2026-04-04T12:44:37.998Z</time></trkpt><trkpt lat="43.15302450224423" lon="10.625712687305862"><ele>327.0</ele><time>2026-04-04T12:44:39Z</time></trkpt><trkpt lat="43.153053247810895" lon="10.62560427956108"><ele>324.5</ele><time>2026-04-04T12:44:40Z</time></trkpt><trkpt lat="43.153077639447346" lon="10.625507894953747"><ele>322.0</ele><time>2026-04-04T12:44:41Z</time></trkpt><trkpt lat="43.15309193634583" lon="10.625402524283723"><ele>319.5</ele><time>2026-04-04T12:44:42Z</time></trkpt><trkpt lat="43.15310042147413" lon="10.62526816445088"><ele>317.0</ele><time>2026-04-04T12:44:43Z</time></trkpt><trkpt lat="43.15311032237707" lon="10.625175713058066"><ele>319.5</ele><time>2026-04-04T12:44:44Z</time></trkpt><trkpt lat="43.1531442992997" lon="10.62508016288956"><ele>322.0</ele><time>2026-04-04T12:44:45Z</time></trkpt><trkpt lat="43.153182851328964" lon="10.624987729170519"><ele>324.5</ele><time>2026-04-04T12:44:46Z</time></trkpt><trkpt lat="43.15322686127535" lon="10.624903455567"><ele>327.0</ele><time>2026-04-04T12:44:47Z</time></trkpt><trkpt lat="43.153259961316024" lon="10.62482694836628"><ele>329.5</ele><time>2026-04-04T12:44:48Z</time></trkpt><trkpt lat="43.153313138607764" lon="10.624732852161804"><ele>332.0</ele><time>2026-04-04T12:44:50Z</time></trkpt><trkpt lat="43.15338816546547" lon="10.624662986446971"><ele>332.0</ele><time>2026-04-04T12:44:52Z</time></trkpt><trkpt lat="43.15345375508728" lon="10.624680631385466"><ele>332.0</ele><time>2026-04-04T12:44:53Z</time></trkpt><trkpt lat="43.153543091012416" lon="10.624706587691646"><ele>332.0</ele><time>2026-04-04T12:44:54Z</time></trkpt><trkpt lat="43.153655961125935" lon="10.624725817428171"><ele>332.0</ele><time>2026-04-04T12:44:55Z</time></trkpt><trkpt lat="43.15375718478773" lon="10.62473780976343"><ele>332.0</ele><time>2026-04-04T12:44:56Z</time></trkpt><trkpt lat="43.153855719975" lon="10.624739115098455"><ele>332.0</ele><time>2026-04-04T12:44:57Z</time></trkpt><trkpt lat="43.15395804106002" lon="10.624731609814118"><ele>332.0</ele><time>2026-04-04T12:44:58Z</time></trkpt><trkpt lat="43.15405974655113" lon="10.62470917515309"><ele>332.0</ele><time>2026-04-04T12:44:59Z</time></trkpt><trkpt lat="43.154157348172724" lon="10.62468782394845"><ele>332.0</ele><time>2026-04-04T12:45:00Z</time></trkpt><trkpt lat="43.154246383093685" lon="10.624672884020143"><ele>332.0</ele><time>2026-04-04T12:45:01Z</time></trkpt><trkpt lat="43.1543165873874" lon="10.624649539968152"><ele>332.8</ele><time>2026-04-04T12:45:02Z</time></trkpt><trkpt lat="43.15440696966423" lon="10.624600666476304"><ele>333.6</ele><time>2026-04-04T12:45:03Z</time></trkpt><trkpt lat="43.154486239898375" lon="10.624542492244982"><ele>334.40000000000003</ele><time>2026-04-04T12:45:04Z</time></trkpt><trkpt lat="43.15456434849145" lon="10.624472299539393"><ele>335.20000000000005</ele><time>2026-04-04T12:45:05Z</time></trkpt><trkpt lat="43.154648499636586" lon="10.62438180196976"><ele>336.0</ele><time>2026-04-04T12:45:06Z</time></trkpt><trkpt lat="43.15472435770883" lon="10.624301215053169"><ele>331.8</ele><time>2026-04-04T12:45:07Z</time></trkpt><trkpt lat="43.15479666407063" lon="10.624206515518503"><ele>327.6</ele><time>2026-04-04T12:45:08Z</time></trkpt><trkpt lat="43.154872934210175" lon="10.624130822013752"><ele>323.4</ele><time>2026-04-04T12:45:09Z</time></trkpt><trkpt lat="43.154939702484434" lon="10.624057992189828"><ele>319.2</ele><time>2026-04-04T12:45:10Z</time></trkpt><trkpt lat="43.15500416708486" lon="10.623975425609354"><ele>315.0</ele><time>2026-04-04T12:45:11Z</time></trkpt><trkpt lat="43.15505598575953" lon="10.623883562117587"><ele>315.0</ele><time>2026-04-04T12:45:12Z</time></trkpt><trkpt lat="43.15511272820182" lon="10.62381469931744"><ele>315.0</ele><time>2026-04-04T12:45:13Z</time></trkpt><trkpt lat="43.15517533420046" lon="10.62379254976214"><ele>315.0</ele><time>2026-04-04T12:45:14Z</time></trkpt><trkpt lat="43.155258029549465" lon="10.623741052420366"><ele>315.0</ele><time>2026-04-04T12:45:15Z</time></trkpt><trkpt lat="43.15532869867573" lon="10.623726460942294"><ele>315.0</ele><time>2026-04-04T12:45:16Z</time></trkpt><trkpt lat="43.15540632248282" lon="10.623652738085962"><ele>315.0</ele><time>2026-04-04T12:45:17Z</time></trkpt><trkpt lat="43.15547198946848" lon="10.623516832851777"><ele>311.0</ele><time>2026-04-04T12:45:18Z</time></trkpt><trkpt lat="43.15551930419714" lon="10.6233424822526"><ele>307.0</ele><time>2026-04-04T12:45:18.999Z</time></trkpt><trkpt lat="43.155577323742364" lon="10.623182914296734"><ele>303.0</ele><time>2026-04-04T12:45:19.999Z</time></trkpt><trkpt lat="43.15563838160725" lon="10.62305043486082"><ele>299.0</ele><time>2026-04-04T12:45:20.999Z</time></trkpt><trkpt lat="43.15570327135571" lon="10.622957965297788"><ele>299.4</ele><time>2026-04-04T12:45:21.999Z</time></trkpt><trkpt lat="43.15577648833195" lon="10.622890102947515"><ele>299.79999999999995</ele><time>2026-04-04T12:45:22.999Z</time></trkpt><trkpt lat="43.155885381505165" lon="10.622861420834113"><ele>300.20000000000005</ele><time>2026-04-04T12:45:23.999Z</time></trkpt><trkpt lat="43.15600736640774" lon="10.622825630226439"><ele>300.6</ele><time>2026-04-04T12:45:24.999Z</time></trkpt><trkpt lat="43.15611204882829" lon="10.622834296317983"><ele>301.0</ele><time>2026-04-04T12:45:25.999Z</time></trkpt><trkpt lat="43.156216701999135" lon="10.622847607134375"><ele>301.0</ele><time>2026-04-04T12:45:26.999Z</time></trkpt><trkpt lat="43.15631717256228" lon="10.622841320593672"><ele>301.0</ele><time>2026-04-04T12:45:27.999Z</time></trkpt><trkpt lat="43.156426886768166" lon="10.622797945716997"><ele>301.0</ele><time>2026-04-04T12:45:28.999Z</time></trkpt><trkpt lat="43.156531858858884" lon="10.622722658289888"><ele>301.0</ele><time>2026-04-04T12:45:29.999Z</time></trkpt><trkpt lat="43.15662474636665" lon="10.622620362536841"><ele>299.25</ele><time>2026-04-04T12:45:30.999Z</time></trkpt><trkpt lat="43.156704471509535" lon="10.622521708499903"><ele>297.5</ele><time>2026-04-04T12:45:31.999Z</time></trkpt><trkpt lat="43.15676084915214" lon="10.622384405920132"><ele>295.75</ele><time>2026-04-04T12:45:32.999Z</time></trkpt><trkpt lat="43.15683014529565" lon="10.622242955302585"><ele>294.0</ele><time>2026-04-04T12:45:33.999Z</time></trkpt><trkpt lat="43.1569219756019" lon="10.622136655676648"><ele>294.0</ele><time>2026-04-04T12:45:34.999Z</time></trkpt><trkpt lat="43.156982810512886" lon="10.622004565461546"><ele>294.0</ele><time>2026-04-04T12:45:35.999Z</time></trkpt><trkpt lat="43.156991061686746" lon="10.621834588074863"><ele>294.0</ele><time>2026-04-04T12:45:37.999Z</time></trkpt><trkpt lat="43.156994213271105" lon="10.621685827589848"><ele>294.0</ele><time>2026-04-04T12:45:38.999Z</time></trkpt><trkpt lat="43.1570048658007" lon="10.621555196543111"><ele>294.0</ele><time>2026-04-04T12:45:39.999Z</time></trkpt><trkpt lat="43.157003821227676" lon="10.621456129584923"><ele>294.59999999999997</ele><time>2026-04-04T12:45:40.999Z</time></trkpt><trkpt lat="43.156987554851334" lon="10.621319633018897"><ele>295.2</ele><time>2026-04-04T12:45:42.999Z</time></trkpt><trkpt lat="43.156953631253344" lon="10.621229720313588"><ele>295.79999999999995</ele><time>2026-04-04T12:45:43.999Z</time></trkpt><trkpt lat="43.15691460953274" lon="10.6210806251801"><ele>296.4</ele><time>2026-04-04T12:45:45.999Z</time></trkpt><trkpt lat="43.15694975339648" lon="10.62094156737177"><ele>297.0</ele><time>2026-04-04T12:45:47.999Z</time></trkpt><trkpt lat="43.15699829856027" lon="10.620847148134118"><ele>294.0</ele><time>2026-04-04T12:45:48.999Z</time></trkpt><trkpt lat="43.157067269159434" lon="10.620776692161138"><ele>291.0</ele><time>2026-04-04T12:45:49.999Z</time></trkpt><trkpt lat="43.1571387789089" lon="10.62070482422441"><ele>288.0</ele><time>2026-04-04T12:45:50.999Z</time></trkpt><trkpt lat="43.15720779956688" lon="10.620624816111162"><ele>285.0</ele><time>2026-04-04T12:45:51.999Z</time></trkpt><trkpt lat="43.157252389563865" lon="10.620545374979196"><ele>282.0</ele><time>2026-04-04T12:45:52.999Z</time></trkpt><trkpt lat="43.15729245209619" lon="10.620439857027693"><ele>279.0</ele><time>2026-04-04T12:45:53.999Z</time></trkpt><trkpt lat="43.157320072508845" lon="10.62035419719754"><ele>276.8</ele><time>2026-04-04T12:45:54.999Z</time></trkpt><trkpt lat="43.15735683928491" lon="10.620246780090318"><ele>274.59999999999997</ele><time>2026-04-04T12:45:55.999Z</time></trkpt><trkpt lat="43.15739867319607" lon="10.620127111539691"><ele>272.4</ele><time>2026-04-04T12:45:56.999Z</time></trkpt><trkpt lat="43.157429011545844" lon="10.620027441920405"><ele>270.2</ele><time>2026-04-04T12:45:57.999Z</time></trkpt><trkpt lat="43.15746231545935" lon="10.61992194844201"><ele>268.0</ele><time>2026-04-04T12:45:58.999Z</time></trkpt><trkpt lat="43.15748357488338" lon="10.61977921551257"><ele>268.0</ele><time>2026-04-04T12:45:59.999Z</time></trkpt><trkpt lat="43.157503612739845" lon="10.619672353186377"><ele>268.0</ele><time>2026-04-04T12:46:00.999Z</time></trkpt><trkpt lat="43.157512676103444" lon="10.619545936122107"><ele>268.0</ele><time>2026-04-04T12:46:01.999Z</time></trkpt><trkpt lat="43.15753267512092" lon="10.619449651328026"><ele>268.0</ele><time>2026-04-04T12:46:02.999Z</time></trkpt><trkpt lat="43.157561082680786" lon="10.619362183141321"><ele>268.0</ele><time>2026-04-04T12:46:03.999Z</time></trkpt><trkpt lat="43.15758890075771" lon="10.619247270573764"><ele>268.0</ele><time>2026-04-04T12:46:04.999Z</time></trkpt><trkpt lat="43.1576609841898" lon="10.619090701665883"><ele>263.2</ele><time>2026-04-04T12:46:06.999Z</time></trkpt><trkpt lat="43.15772168463181" lon="10.619007937359504"><ele>258.4</ele><time>2026-04-04T12:46:07.999Z</time></trkpt><trkpt lat="43.15779133272354" lon="10.61894002299589"><ele>253.59999999999997</ele><time>2026-04-04T12:46:08.999Z</time></trkpt><trkpt lat="43.15785170884319" lon="10.618869442912453"><ele>248.79999999999998</ele><time>2026-04-04T12:46:09.999Z</time></trkpt><trkpt lat="43.15792125159936" lon="10.61881764631992"><ele>244.0</ele><time>2026-04-04T12:46:10.999Z</time></trkpt><trkpt lat="43.15804593933495" lon="10.61881151383759"><ele>243.99999999999997</ele><time>2026-04-04T12:46:12.998Z</time></trkpt><trkpt lat="43.15811570942788" lon="10.618835933755202"><ele>244.0</ele><time>2026-04-04T12:46:13.998Z</time></trkpt><trkpt lat="43.15819342814575" lon="10.618878824587126"><ele>244.0</ele><time>2026-04-04T12:46:14.998Z</time></trkpt><trkpt lat="43.15826927297541" lon="10.618949323886346"><ele>244.0</ele><time>2026-04-04T12:46:15.998Z</time></trkpt><trkpt lat="43.15833880589959" lon="10.619021449910688"><ele>243.99999999999997</ele><time>2026-04-04T12:46:16.998Z</time></trkpt><trkpt lat="43.15839942173633" lon="10.619075030528803"><ele>244.0</ele><time>2026-04-04T12:46:17.998Z</time></trkpt><trkpt lat="43.15848192853507" lon="10.619144507292303"><ele>243.79999999999998</ele><time>2026-04-04T12:46:18.998Z</time></trkpt><trkpt lat="43.1585756683088" lon="10.619208252001128"><ele>243.59999999999997</ele><time>2026-04-04T12:46:19.998Z</time></trkpt><trkpt lat="43.158679119324745" lon="10.61924172626085"><ele>243.4</ele><time>2026-04-04T12:46:20.998Z</time></trkpt><trkpt lat="43.1587949439453" lon="10.619260372722579"><ele>243.2</ele><time>2026-04-04T12:46:21.998Z</time></trkpt><trkpt lat="43.1588788338045" lon="10.619277245135972"><ele>243.0</ele><time>2026-04-04T12:46:22.998Z</time></trkpt><trkpt lat="43.15895618838427" lon="10.61928223508443"><ele>243.0</ele><time>2026-04-04T12:46:23.998Z</time></trkpt><trkpt lat="43.15901835188743" lon="10.619257942345047"><ele>243.0</ele><time>2026-04-04T12:46:24.998Z</time></trkpt><trkpt lat="43.15909729890907" lon="10.619184937682723"><ele>243.0</ele><time>2026-04-04T12:46:25.998Z</time></trkpt><trkpt lat="43.15917365176188" lon="10.6191075296714"><ele>243.0</ele><time>2026-04-04T12:46:26.998Z</time></trkpt><trkpt lat="43.15925059015502" lon="10.61897671365778"><ele>243.0</ele><time>2026-04-04T12:46:27.998Z</time></trkpt><trkpt lat="43.159317558497236" lon="10.618810740921186"><ele>239.8</ele><time>2026-04-04T12:46:28.998Z</time></trkpt><trkpt lat="43.15937237909472" lon="10.618677300588718"><ele>236.60000000000002</ele><time>2026-04-04T12:46:29.998Z</time></trkpt><trkpt lat="43.159428962841396" lon="10.618543205814746"><ele>233.39999999999998</ele><time>2026-04-04T12:46:30.998Z</time></trkpt><trkpt lat="43.15948592473805" lon="10.618415463966238"><ele>230.2</ele><time>2026-04-04T12:46:31.998Z</time></trkpt><trkpt lat="43.15954288660033" lon="10.618286935063656"><ele>227.0</ele><time>2026-04-04T12:46:32.998Z</time></trkpt><trkpt lat="43.15960459570914" lon="10.618160178336957"><ele>224.6</ele><time>2026-04-04T12:46:33.998Z</time></trkpt><trkpt lat="43.15966507310489" lon="10.61802925301359"><ele>222.2</ele><time>2026-04-04T12:46:34.998Z</time></trkpt><trkpt lat="43.15971914797181" lon="10.617901726807075"><ele>219.8</ele><time>2026-04-04T12:46:35.998Z</time></trkpt><trkpt lat="43.15978057798069" lon="10.617787109495042"><ele>217.4</ele><time>2026-04-04T12:46:36.998Z</time></trkpt><trkpt lat="43.15982798466175" lon="10.617701872578854"><ele>215.0</ele><time>2026-04-04T12:46:37.998Z</time></trkpt><trkpt lat="43.15987340999564" lon="10.617603859228069"><ele>199.0</ele><time>2026-04-04T12:46:38.998Z</time></trkpt><trkpt lat="43.159895947960294" lon="10.617514746955415"><ele>199.0</ele><time>2026-04-04T12:46:39.998Z</time></trkpt><trkpt lat="43.1599715635477" lon="10.617394184044286"><ele>199.0</ele><time>2026-04-04T12:46:41.998Z</time></trkpt><trkpt lat="43.16003079190375" lon="10.617364783273164"><ele>199.0</ele><time>2026-04-04T12:46:42.998Z</time></trkpt><trkpt lat="43.160073642626564" lon="10.617254298764223"><ele>199.0</ele><time>2026-04-04T12:46:45Z</time></trkpt><trkpt lat="43.16011956558906" lon="10.617187618336546"><ele>199.0</ele><time>2026-04-04T12:46:47Z</time></trkpt></trkseg></trk></gpx>